<?xml version='1.0' encoding='UTF-8'?><gpx version="1.1" creator="JPX - https://github.com/jenetics/jpx" xmlns="http://www.topografix.com/GPX/1/1"><trk><trkseg><trkpt lat="42.15377852642292" lon="14.4821929522853"><ele>80.0</ele><time>2026-04-12T04:50:43.001Z</time></trkpt><trkpt lat="42.15386004915232" lon="14.482170960652859"><ele>80.0</ele><time>2026-04-12T04:50:47Z</time></trkpt><trkpt lat="42.15391801442706" lon="14.48212193289119"><ele>80.0</ele><time>2026-04-12T04:50:50Z</time></trkpt><trkpt lat="42.15398038870808" lon="14.482077300687646"><ele>80.0</ele><time>2026-04-12T04:50:53Z</time></trkpt><trkpt lat="42.1540436418521" lon="14.482035953481121"><ele>80.0</ele><time>2026-04-12T04:50:56Z</time></trkpt><trkpt lat="42.154091054357444" lon="14.481961406284505"><ele>80.0</ele><time>2026-04-12T04:50:59Z</time></trkpt><trkpt lat="42.15411414591435" lon="14.48185244662039"><ele>80.0</ele><time>2026-04-12T04:51:02Z</time></trkpt><trkpt lat="42.15411512044104" lon="14.481767146934942"><ele>79.83333333333334</ele><time>2026-04-12T04:51:04Z</time></trkpt><trkpt lat="42.15410797650283" lon="14.481672772431846"><ele>79.66666666666667</ele><time>2026-04-12T04:51:06Z</time></trkpt><trkpt lat="42.1540979997718" lon="14.48158194314647"><ele>79.5</ele><time>2026-04-12T04:51:08Z</time></trkpt><trkpt lat="42.154068416519586" lon="14.481493051872247"><ele>79.33333333333333</ele><time>2026-04-12T04:51:10Z</time></trkpt><trkpt lat="42.15403163127013" lon="14.481416071874348"><ele>79.16666666666666</ele><time>2026-04-12T04:51:12Z</time></trkpt><trkpt lat="42.15396615324157" lon="14.481321180089065"><ele>79.0</ele><time>2026-04-12T04:51:15Z</time></trkpt><trkpt lat="42.15389709454418" lon="14.481246785792479"><ele>79.0</ele><time>2026-04-12T04:51:18Z</time></trkpt><trkpt lat="42.15382724695441" lon="14.481182572722794"><ele>79.0</ele><time>2026-04-12T04:51:21Z</time></trkpt><trkpt lat="42.15377428388331" lon="14.481095666184455"><ele>79.0</ele><time>2026-04-12T04:51:24Z</time></trkpt><trkpt lat="42.15371878959699" lon="14.481005088287446"><ele>79.0</ele><time>2026-04-12T04:51:27Z</time></trkpt><trkpt lat="42.15366523262737" lon="14.480921251588805"><ele>79.0</ele><time>2026-04-12T04:51:30Z</time></trkpt><trkpt lat="42.1536174315411" lon="14.480837415690054"><ele>79.0</ele><time>2026-04-12T04:51:33Z</time></trkpt><trkpt lat="42.153571402993876" lon="14.48075534939048"><ele>79.0</ele><time>2026-04-12T04:51:36Z</time></trkpt><trkpt lat="42.15353040517131" lon="14.480673079519127"><ele>79.0</ele><time>2026-04-12T04:51:38.999Z</time></trkpt><trkpt lat="42.15349078676177" lon="14.480584291944972"><ele>79.0</ele><time>2026-04-12T04:51:41.999Z</time></trkpt><trkpt lat="42.15345344262165" lon="14.480492761470257"><ele>79.0</ele><time>2026-04-12T04:51:44.999Z</time></trkpt><trkpt lat="42.153412843296486" lon="14.48039918495187"><ele>79.0</ele><time>2026-04-12T04:51:47.999Z</time></trkpt><trkpt lat="42.15337439924147" lon="14.480296897956322"><ele>79.0</ele><time>2026-04-12T04:51:50.999Z</time></trkpt><trkpt lat="42.15334578683639" lon="14.480183428240688"><ele>79.5</ele><time>2026-04-12T04:51:53.999Z</time></trkpt><trkpt lat="42.15331502456021" lon="14.480066349266913"><ele>80.0</ele><time>2026-04-12T04:51:56.999Z</time></trkpt><trkpt lat="42.153287754840974" lon="14.479953374171844"><ele>80.5</ele><time>2026-04-12T04:51:59.999Z</time></trkpt><trkpt lat="42.15326965711073" lon="14.479831230865535"><ele>81.0</ele><time>2026-04-12T04:52:02.999Z</time></trkpt><trkpt lat="42.15325370634321" lon="14.479746602322027"><ele>81.5</ele><time>2026-04-12T04:52:04.999Z</time></trkpt><trkpt lat="42.153254584549586" lon="14.479658831872262"><ele>82.0</ele><time>2026-04-12T04:52:06.999Z</time></trkpt><trkpt lat="42.15326530235925" lon="14.479572079093225"><ele>83.0</ele><time>2026-04-12T04:52:08.999Z</time></trkpt><trkpt lat="42.15328849665553" lon="14.479487469857185"><ele>84.0</ele><time>2026-04-12T04:52:10.999Z</time></trkpt><trkpt lat="42.153314657070915" lon="14.479407490048844"><ele>85.0</ele><time>2026-04-12T04:52:12.999Z</time></trkpt><trkpt lat="42.1533667095921" lon="14.479305652076963"><ele>86.0</ele><time>2026-04-12T04:52:15.999Z</time></trkpt><trkpt lat="42.15342186038778" lon="14.479212373367844"><ele>87.0</ele><time>2026-04-12T04:52:18.999Z</time></trkpt><trkpt lat="42.153478575531345" lon="14.479120167815832"><ele>88.0</ele><time>2026-04-12T04:52:21.999Z</time></trkpt><trkpt lat="42.15353050377595" lon="14.479028270698299"><ele>88.0</ele><time>2026-04-12T04:52:25.001Z</time></trkpt><trkpt lat="42.15357960095356" lon="14.478933954856997"><ele>88.0</ele><time>2026-04-12T04:52:28.001Z</time></trkpt><trkpt lat="42.15362594632701" lon="14.478835614659925"><ele>88.0</ele><time>2026-04-12T04:52:31.001Z</time></trkpt><trkpt lat="42.15365424731248" lon="14.478733245645566"><ele>88.0</ele><time>2026-04-12T04:52:34.001Z</time></trkpt><trkpt lat="42.15367102056714" lon="14.478634382700966"><ele>88.0</ele><time>2026-04-12T04:52:37.001Z</time></trkpt><trkpt lat="42.15366766078068" lon="14.478537213416892"><ele>88.0</ele><time>2026-04-12T04:52:40.001Z</time></trkpt><trkpt lat="42.15364658165705" lon="14.47843743036161"><ele>87.83333333333333</ele><time>2026-04-12T04:52:43.001Z</time></trkpt><trkpt lat="42.15362584999191" lon="14.478353984228821"><ele>87.66666666666666</ele><time>2026-04-12T04:52:45.001Z</time></trkpt><trkpt lat="42.15359140327529" lon="14.478265377172985"><ele>87.5</ele><time>2026-04-12T04:52:47Z</time></trkpt><trkpt lat="42.15356290115151" lon="14.478157906419426"><ele>87.33333333333333</ele><time>2026-04-12T04:52:49Z</time></trkpt><trkpt lat="42.153538818937804" lon="14.478044591473264"><ele>87.16666666666667</ele><time>2026-04-12T04:52:51Z</time></trkpt><trkpt lat="42.15353245858251" lon="14.477907137327"><ele>87.0</ele><time>2026-04-12T04:52:53Z</time></trkpt><trkpt lat="42.15353578123949" lon="14.477751665603762"><ele>85.39999999999999</ele><time>2026-04-12T04:52:55Z</time></trkpt><trkpt lat="42.15353972932288" lon="14.477594513076403"><ele>83.8</ele><time>2026-04-12T04:52:57Z</time></trkpt><trkpt lat="42.15353763880528" lon="14.477452789341694"><ele>82.2</ele><time>2026-04-12T04:52:59Z</time></trkpt><trkpt lat="42.15353689352848" lon="14.477319363594376"><ele>80.6</ele><time>2026-04-12T04:53:01Z</time></trkpt><trkpt lat="42.153536590923665" lon="14.477186027998613"><ele>79.0</ele><time>2026-04-12T04:53:03Z</time></trkpt><trkpt lat="42.15355188092455" lon="14.477049459121911"><ele>77.8</ele><time>2026-04-12T04:53:05Z</time></trkpt><trkpt lat="42.15358139263188" lon="14.476900679306885"><ele>76.60000000000001</ele><time>2026-04-12T04:53:07Z</time></trkpt><trkpt lat="42.15361158979832" lon="14.47673473027636"><ele>75.4</ele><time>2026-04-12T04:53:09Z</time></trkpt><trkpt lat="42.153625455232465" lon="14.476644047416253"><ele>74.2</ele><time>2026-04-12T04:53:10Z</time></trkpt><trkpt lat="42.15363584194651" lon="14.476548101983152"><ele>73.0</ele><time>2026-04-12T04:53:11Z</time></trkpt><trkpt lat="42.15363779007911" lon="14.476450819369187"><ele>73.0</ele><time>2026-04-12T04:53:12Z</time></trkpt><trkpt lat="42.15363321003823" lon="14.476352967957368"><ele>73.0</ele><time>2026-04-12T04:53:13Z</time></trkpt><trkpt lat="42.15362559590269" lon="14.476259283317683"><ele>73.0</ele><time>2026-04-12T04:53:14Z</time></trkpt><trkpt lat="42.15360913486075" lon="14.476170025303436"><ele>73.0</ele><time>2026-04-12T04:53:15Z</time></trkpt><trkpt lat="42.153588139761844" lon="14.476081120377836"><ele>73.0</ele><time>2026-04-12T04:53:16Z</time></trkpt><trkpt lat="42.15356532592086" lon="14.475994864280274"><ele>73.0</ele><time>2026-04-12T04:53:17Z</time></trkpt><trkpt lat="42.15353627184256" lon="14.47591206362552"><ele>73.0</ele><time>2026-04-12T04:53:18Z</time></trkpt><trkpt lat="42.153501089356894" lon="14.475833365934987"><ele>72.33333333333333</ele><time>2026-04-12T04:53:19Z</time></trkpt><trkpt lat="42.15346169635967" lon="14.475760597037665"><ele>71.66666666666666</ele><time>2026-04-12T04:53:20Z</time></trkpt><trkpt lat="42.153418980819765" lon="14.475691830645005"><ele>71.0</ele><time>2026-04-12T04:53:21Z</time></trkpt><trkpt lat="42.1533760218994" lon="14.47562194828551"><ele>70.33333333333333</ele><time>2026-04-12T04:53:22Z</time></trkpt><trkpt lat="42.153333198311884" lon="14.475558493636617"><ele>69.66666666666667</ele><time>2026-04-12T04:53:23Z</time></trkpt><trkpt lat="42.15328795642474" lon="14.475495799687815"><ele>69.0</ele><time>2026-04-12T04:53:24Z</time></trkpt><trkpt lat="42.15319406275719" lon="14.475379718548373"><ele>68.14285714285714</ele><time>2026-04-12T04:53:26Z</time></trkpt><trkpt lat="42.153141529445804" lon="14.475320049206596"><ele>67.28571428571429</ele><time>2026-04-12T04:53:27Z</time></trkpt><trkpt lat="42.153089342177545" lon="14.475258280447301"><ele>66.42857142857143</ele><time>2026-04-12T04:53:28Z</time></trkpt><trkpt lat="42.153037186946044" lon="14.475194774901128"><ele>65.57142857142857</ele><time>2026-04-12T04:53:29Z</time></trkpt><trkpt lat="42.152984096779576" lon="14.475128791234248"><ele>64.71428571428572</ele><time>2026-04-12T04:53:30Z</time></trkpt><trkpt lat="42.15293264606985" lon="14.475066356538282"><ele>63.85714285714286</ele><time>2026-04-12T04:53:31Z</time></trkpt><trkpt lat="42.15287983195293" lon="14.475007093629033"><ele>63.0</ele><time>2026-04-12T04:53:32Z</time></trkpt><trkpt lat="42.15282915753189" lon="14.474947883612465"><ele>63.0</ele><time>2026-04-12T04:53:33Z</time></trkpt><trkpt lat="42.152753831980505" lon="14.474800113491408"><ele>63.0</ele><time>2026-04-12T04:53:35Z</time></trkpt><trkpt lat="42.152701850013145" lon="14.474751886374307"><ele>63.0</ele><time>2026-04-12T04:53:36Z</time></trkpt><trkpt lat="42.15261668001519" lon="14.474631100095575"><ele>63.0</ele><time>2026-04-12T04:53:37.999Z</time></trkpt><trkpt lat="42.152549694548" lon="14.474506736815545"><ele>63.0</ele><time>2026-04-12T04:53:39.999Z</time></trkpt><trkpt lat="42.15246894296969" lon="14.474417152261696"><ele>62.85714285714286</ele><time>2026-04-12T04:53:41.999Z</time></trkpt><trkpt lat="42.152415750326064" lon="14.474337939552546"><ele>62.714285714285715</ele><time>2026-04-12T04:53:43.999Z</time></trkpt><trkpt lat="42.15240329231787" lon="14.474236524125814"><ele>62.57142857142857</ele><time>2026-04-12T04:53:46.999Z</time></trkpt><trkpt lat="42.15245461509758" lon="14.4741625652027"><ele>62.42857142857143</ele><time>2026-04-12T04:53:48.999Z</time></trkpt><trkpt lat="42.15251156275876" lon="14.474121739208137"><ele>62.28571428571429</ele><time>2026-04-12T04:53:51.999Z</time></trkpt><trkpt lat="42.152544991166174" lon="14.474048520650683"><ele>62.142857142857146</ele><time>2026-04-12T04:53:55.999Z</time></trkpt><trkpt lat="42.15262839137729" lon="14.474002353609134"><ele>62.0</ele><time>2026-04-12T04:53:58.999Z</time></trkpt><trkpt lat="42.15269653917295" lon="14.473951320641303"><ele>62.0</ele><time>2026-04-12T04:54:00.999Z</time></trkpt><trkpt lat="42.15277529903851" lon="14.47388215831404"><ele>62.0</ele><time>2026-04-12T04:54:02.999Z</time></trkpt><trkpt lat="42.15286194676708" lon="14.473806039510585"><ele>62.0</ele><time>2026-04-12T04:54:04.999Z</time></trkpt><trkpt lat="42.1529602783613" lon="14.473750021799127"><ele>62.0</ele><time>2026-04-12T04:54:06.999Z</time></trkpt><trkpt lat="42.15305157107439" lon="14.47364845213456"><ele>62.0</ele><time>2026-04-12T04:54:08.999Z</time></trkpt><trkpt lat="42.15315517442427" lon="14.473566802365823"><ele>60.2</ele><time>2026-04-12T04:54:10.999Z</time></trkpt><trkpt lat="42.153262771339094" lon="14.473490565548962"><ele>58.400000000000006</ele><time>2026-04-12T04:54:12.999Z</time></trkpt><trkpt lat="42.15337527230997" lon="14.473447226924709"><ele>56.599999999999994</ele><time>2026-04-12T04:54:14.999Z</time></trkpt><trkpt lat="42.15348480241944" lon="14.473442503539125"><ele>54.8</ele><time>2026-04-12T04:54:16.999Z</time></trkpt><trkpt lat="42.15356930673543" lon="14.47345133393192"><ele>53.0</ele><time>2026-04-12T04:54:18.999Z</time></trkpt><trkpt lat="42.15365289674021" lon="14.47345766741033"><ele>53.00000000000001</ele><time>2026-04-12T04:54:21.999Z</time></trkpt><trkpt lat="42.153718280274994" lon="14.473487081729358"><ele>53.0</ele><time>2026-04-12T04:54:24.999Z</time></trkpt><trkpt lat="42.153754075627035" lon="14.473342019977972"><ele>53.0</ele><time>2026-04-12T04:54:33.001Z</time></trkpt><trkpt lat="42.15369279535272" lon="14.473303684458775"><ele>53.0</ele><time>2026-04-12T04:57:44.999Z</time></trkpt><trkpt lat="42.153655069093745" lon="14.473226591804027"><ele>53.00000000000001</ele><time>2026-04-12T04:57:50.999Z</time></trkpt><trkpt lat="42.15362564732782" lon="14.473129681574443"><ele>53.0</ele><time>2026-04-12T04:58:08.999Z</time></trkpt><trkpt lat="42.15358123673332" lon="14.47305731234814"><ele>53.0</ele><time>2026-04-12T04:58:12.999Z</time></trkpt><trkpt lat="42.15351476433763" lon="14.472998940492536"><ele>53.0</ele><time>2026-04-12T04:58:17.999Z</time></trkpt><trkpt lat="42.15348645454528" lon="14.472919249707816"><ele>53.0</ele><time>2026-04-12T04:58:22.999Z</time></trkpt><trkpt lat="42.15342606470214" lon="14.472862537117523"><ele>53.0</ele><time>2026-04-12T04:58:29.998Z</time></trkpt><trkpt lat="42.15338596006825" lon="14.472788851757254"><ele>53.0</ele><time>2026-04-12T04:58:37.998Z</time></trkpt><trkpt lat="42.15335795834063" lon="14.47270409511586"><ele>53.0</ele><time>2026-04-12T04:58:47Z</time></trkpt><trkpt lat="42.15330028484783" lon="14.4726672469831"><ele>53.0</ele><time>2026-04-12T05:03:24Z</time></trkpt><trkpt lat="42.153232398322665" lon="14.472604099018945"><ele>53.66666666666667</ele><time>2026-04-12T05:03:29Z</time></trkpt><trkpt lat="42.153180283093825" lon="14.4725482539494"><ele>54.333333333333336</ele><time>2026-04-12T05:03:32Z</time></trkpt><trkpt lat="42.153119014515354" lon="14.472479401957257"><ele>55.0</ele><time>2026-04-12T05:03:35Z</time></trkpt><trkpt lat="42.15305235850903" lon="14.472391629965053"><ele>55.66666666666667</ele><time>2026-04-12T05:03:38Z</time></trkpt><trkpt lat="42.15299800077977" lon="14.472333825800778"><ele>56.333333333333336</ele><time>2026-04-12T05:03:39.999Z</time></trkpt><trkpt lat="42.15294298994898" lon="14.472271881016653"><ele>57.0</ele><time>2026-04-12T05:03:41.999Z</time></trkpt><trkpt lat="42.15288284705707" lon="14.472212559137324"><ele>57.0</ele><time>2026-04-12T05:03:43.999Z</time></trkpt><trkpt lat="42.15282623159113" lon="14.47215397357991"><ele>57.0</ele><time>2026-04-12T05:03:45.999Z</time></trkpt><trkpt lat="42.15277118827396" lon="14.472088781912564"><ele>57.0</ele><time>2026-04-12T05:03:47.999Z</time></trkpt><trkpt lat="42.15271370892757" lon="14.4720198660681"><ele>57.0</ele><time>2026-04-12T05:03:49.999Z</time></trkpt><trkpt lat="42.152654661861966" lon="14.471947823248316"><ele>57.0</ele><time>2026-04-12T05:03:51.999Z</time></trkpt><trkpt lat="42.15259486715629" lon="14.471873898745518"><ele>57.0</ele><time>2026-04-12T05:03:53.999Z</time></trkpt><trkpt lat="42.152532977412676" lon="14.471802299953428"><ele>56.333333333333336</ele><time>2026-04-12T05:03:55.999Z</time></trkpt><trkpt lat="42.15247602869354" lon="14.471728348857134"><ele>55.66666666666667</ele><time>2026-04-12T05:03:57.999Z</time></trkpt><trkpt lat="42.15242042588194" lon="14.471651583190866"><ele>55.0</ele><time>2026-04-12T05:03:59.999Z</time></trkpt><trkpt lat="42.15236427768517" lon="14.471568624014916"><ele>54.333333333333336</ele><time>2026-04-12T05:04:01.999Z</time></trkpt><trkpt lat="42.152308228592155" lon="14.471483361245323"><ele>53.66666666666667</ele><time>2026-04-12T05:04:03.999Z</time></trkpt><trkpt lat="42.15225169206158" lon="14.471400519765723"><ele>53.0</ele><time>2026-04-12T05:04:05.999Z</time></trkpt><trkpt lat="42.152196564025495" lon="14.471315752655476"><ele>52.833333333333336</ele><time>2026-04-12T05:04:07.999Z</time></trkpt><trkpt lat="42.152140964449885" lon="14.471233136362496"><ele>52.66666666666667</ele><time>2026-04-12T05:04:09.999Z</time></trkpt><trkpt lat="42.15208528202711" lon="14.471151402629449"><ele>52.5</ele><time>2026-04-12T05:04:11.999Z</time></trkpt><trkpt lat="42.152029077066985" lon="14.471066027407053"><ele>52.33333333333333</ele><time>2026-04-12T05:04:13.999Z</time></trkpt><trkpt lat="42.151974188085255" lon="14.470982531805042"><ele>52.166666666666664</ele><time>2026-04-12T05:04:15.999Z</time></trkpt><trkpt lat="42.15191606711878" lon="14.47089888884884"><ele>52.0</ele><time>2026-04-12T05:04:17.999Z</time></trkpt><trkpt lat="42.151863379037216" lon="14.470811838229418"><ele>51.99999999999999</ele><time>2026-04-12T05:04:19.999Z</time></trkpt><trkpt lat="42.15180967966413" lon="14.470729257730525"><ele>52.0</ele><time>2026-04-12T05:04:21.999Z</time></trkpt><trkpt lat="42.15175471655257" lon="14.470643804044146"><ele>52.0</ele><time>2026-04-12T05:04:23.999Z</time></trkpt><trkpt lat="42.151700405837644" lon="14.470563962925471"><ele>52.0</ele><time>2026-04-12T05:04:25.999Z</time></trkpt><trkpt lat="42.15165022376024" lon="14.470490296807544"><ele>51.99999999999999</ele><time>2026-04-12T05:04:27.999Z</time></trkpt><trkpt lat="42.15160462914469" lon="14.47041107299784"><ele>52.0</ele><time>2026-04-12T05:04:29.999Z</time></trkpt><trkpt lat="42.15155345815232" lon="14.47033062004632"><ele>52.99999999999999</ele><time>2026-04-12T05:04:31.998Z</time></trkpt><trkpt lat="42.151509610345705" lon="14.47023531338116"><ele>54.0</ele><time>2026-04-12T05:04:33.998Z</time></trkpt><trkpt lat="42.151476841416724" lon="14.470133860697212"><ele>55.0</ele><time>2026-04-12T05:04:35.998Z</time></trkpt><trkpt lat="42.15146198818605" lon="14.470029544648954"><ele>56.0</ele><time>2026-04-12T05:04:37.998Z</time></trkpt><trkpt lat="42.15146077653085" lon="14.46992915341256"><ele>56.99999999999999</ele><time>2026-04-12T05:04:39.998Z</time></trkpt><trkpt lat="42.151465765031794" lon="14.46982557318091"><ele>58.0</ele><time>2026-04-12T05:04:41.998Z</time></trkpt><trkpt lat="42.15147370151345" lon="14.469725469790534"><ele>57.99999999999999</ele><time>2026-04-12T05:04:43.998Z</time></trkpt><trkpt lat="42.15147727877048" lon="14.469615254257429"><ele>58.0</ele><time>2026-04-12T05:04:45.998Z</time></trkpt><trkpt lat="42.15147930138279" lon="14.469501570146704"><ele>58.0</ele><time>2026-04-12T05:04:47.998Z</time></trkpt><trkpt lat="42.151460588932245" lon="14.469385639082418"><ele>58.0</ele><time>2026-04-12T05:04:49.998Z</time></trkpt><trkpt lat="42.1514257613494" lon="14.46927502409017"><ele>57.99999999999999</ele><time>2026-04-12T05:04:51.998Z</time></trkpt><trkpt lat="42.151384314258536" lon="14.469166441655856"><ele>58.0</ele><time>2026-04-12T05:04:53.998Z</time></trkpt><trkpt lat="42.151345593575975" lon="14.469069163219896"><ele>57.49999999999999</ele><time>2026-04-12T05:04:55.998Z</time></trkpt><trkpt lat="42.15130240468695" lon="14.468977213396355"><ele>57.0</ele><time>2026-04-12T05:04:57.998Z</time></trkpt><trkpt lat="42.15126768703" lon="14.46888609669907"><ele>56.5</ele><time>2026-04-12T05:05:00Z</time></trkpt><trkpt lat="42.15123039223725" lon="14.468795290383783"><ele>56.0</ele><time>2026-04-12T05:05:02Z</time></trkpt><trkpt lat="42.15120104952095" lon="14.468701477617714"><ele>55.49999999999999</ele><time>2026-04-12T05:05:04Z</time></trkpt><trkpt lat="42.15116595913647" lon="14.468612951617363"><ele>55.0</ele><time>2026-04-12T05:05:06Z</time></trkpt><trkpt lat="42.151128654614666" lon="14.468518893165731"><ele>54.49999999999999</ele><time>2026-04-12T05:05:08Z</time></trkpt><trkpt lat="42.151083522460034" lon="14.468429469984455"><ele>54.0</ele><time>2026-04-12T05:05:10Z</time></trkpt><trkpt lat="42.151041012059665" lon="14.468336496326947"><ele>53.5</ele><time>2026-04-12T05:05:12Z</time></trkpt><trkpt lat="42.15100401805422" lon="14.46824615480678"><ele>53.0</ele><time>2026-04-12T05:05:14Z</time></trkpt><trkpt lat="42.150963065741436" lon="14.468156656280218"><ele>52.49999999999999</ele><time>2026-04-12T05:05:16Z</time></trkpt><trkpt lat="42.15092256998664" lon="14.468064493417895"><ele>52.0</ele><time>2026-04-12T05:05:18Z</time></trkpt><trkpt lat="42.1508884868715" lon="14.46797614884049"><ele>52.285714285714285</ele><time>2026-04-12T05:05:20Z</time></trkpt><trkpt lat="42.15085605988394" lon="14.467889411662032"><ele>52.57142857142858</ele><time>2026-04-12T05:05:22Z</time></trkpt><trkpt lat="42.15081828127305" lon="14.46780015358246"><ele>52.85714285714286</ele><time>2026-04-12T05:05:24Z</time></trkpt><trkpt lat="42.15078083706401" lon="14.467712378328015"><ele>53.14285714285714</ele><time>2026-04-12T05:05:26Z</time></trkpt><trkpt lat="42.15074914926061" lon="14.46762389140768"><ele>53.42857142857143</ele><time>2026-04-12T05:05:28Z</time></trkpt><trkpt lat="42.15071572076213" lon="14.467539093155688"><ele>53.714285714285715</ele><time>2026-04-12T05:05:30Z</time></trkpt><trkpt lat="42.150680236397896" lon="14.467454169593482"><ele>54.0</ele><time>2026-04-12T05:05:32Z</time></trkpt><trkpt lat="42.1506388132576" lon="14.467371839724468"><ele>54.714285714285715</ele><time>2026-04-12T05:05:34Z</time></trkpt><trkpt lat="42.15060260264831" lon="14.467284255576667"><ele>55.42857142857143</ele><time>2026-04-12T05:05:36Z</time></trkpt><trkpt lat="42.150564984170565" lon="14.467192720899579"><ele>56.14285714285714</ele><time>2026-04-12T05:05:37.999Z</time></trkpt><trkpt lat="42.15053057863464" lon="14.467110922232981"><ele>56.85714285714286</ele><time>2026-04-12T05:05:39.999Z</time></trkpt><trkpt lat="42.150500442565146" lon="14.46702886906966"><ele>57.57142857142858</ele><time>2026-04-12T05:05:41.999Z</time></trkpt><trkpt lat="42.15046497996527" lon="14.466948368325264"><ele>58.285714285714285</ele><time>2026-04-12T05:05:43.999Z</time></trkpt><trkpt lat="42.15043146543585" lon="14.466860622067117"><ele>59.0</ele><time>2026-04-12T05:05:45.999Z</time></trkpt><trkpt lat="42.15039365936323" lon="14.46677459244072"><ele>59.00000000000001</ele><time>2026-04-12T05:05:47.999Z</time></trkpt><trkpt lat="42.15035246362392" lon="14.466682009294239"><ele>59.0</ele><time>2026-04-12T05:05:49.999Z</time></trkpt><trkpt lat="42.150310957054955" lon="14.46659164677824"><ele>59.0</ele><time>2026-04-12T05:05:51.999Z</time></trkpt><trkpt lat="42.1502680060274" lon="14.466504665157023"><ele>59.0</ele><time>2026-04-12T05:05:53.999Z</time></trkpt><trkpt lat="42.150223182821634" lon="14.46641821840656"><ele>59.00000000000001</ele><time>2026-04-12T05:05:55.999Z</time></trkpt><trkpt lat="42.15017874202435" lon="14.46633071763004"><ele>59.0</ele><time>2026-04-12T05:05:57.999Z</time></trkpt><trkpt lat="42.15013381250529" lon="14.466241711364695"><ele>59.66666666666667</ele><time>2026-04-12T05:05:59.999Z</time></trkpt><trkpt lat="42.150085288721996" lon="14.466156474976378"><ele>60.333333333333336</ele><time>2026-04-12T05:06:01.999Z</time></trkpt><trkpt lat="42.15003837964701" lon="14.466075983831978"><ele>61.0</ele><time>2026-04-12T05:06:03.999Z</time></trkpt><trkpt lat="42.1499910374111" lon="14.465996074686734"><ele>61.66666666666667</ele><time>2026-04-12T05:06:05.999Z</time></trkpt><trkpt lat="42.149940571780796" lon="14.465913480658639"><ele>62.333333333333336</ele><time>2026-04-12T05:06:07.999Z</time></trkpt><trkpt lat="42.149889270805296" lon="14.465834482712056"><ele>63.0</ele><time>2026-04-12T05:06:09.999Z</time></trkpt><trkpt lat="42.14983989596264" lon="14.465756001243133"><ele>63.0</ele><time>2026-04-12T05:06:11.999Z</time></trkpt><trkpt lat="42.14979029454801" lon="14.465679985416811"><ele>63.0</ele><time>2026-04-12T05:06:13.999Z</time></trkpt><trkpt lat="42.14974213017387" lon="14.46560857115455"><ele>63.0</ele><time>2026-04-12T05:06:15.999Z</time></trkpt><trkpt lat="42.14970245268287" lon="14.465537790619779"><ele>63.0</ele><time>2026-04-12T05:06:17.999Z</time></trkpt><trkpt lat="42.14965817142759" lon="14.465465251620387"><ele>63.0</ele><time>2026-04-12T05:06:19.999Z</time></trkpt><trkpt lat="42.149612089387084" lon="14.465391709551204"><ele>63.0</ele><time>2026-04-12T05:06:21.999Z</time></trkpt><trkpt lat="42.14956155047622" lon="14.465313322320192"><ele>63.0</ele><time>2026-04-12T05:06:23.999Z</time></trkpt><trkpt lat="42.14951345224895" lon="14.465240756890088"><ele>61.857142857142854</ele><time>2026-04-12T05:06:25.999Z</time></trkpt><trkpt lat="42.149459274928276" lon="14.465163736661669"><ele>60.714285714285715</ele><time>2026-04-12T05:06:27.999Z</time></trkpt><trkpt lat="42.14941234088452" lon="14.465086473222495"><ele>59.57142857142857</ele><time>2026-04-12T05:06:29.999Z</time></trkpt><trkpt lat="42.14936818328766" lon="14.465017281435829"><ele>58.42857142857143</ele><time>2026-04-12T05:06:31.998Z</time></trkpt><trkpt lat="42.14931601920982" lon="14.464949911940508"><ele>57.285714285714285</ele><time>2026-04-12T05:06:33.998Z</time></trkpt><trkpt lat="42.14926818876208" lon="14.464874880905796"><ele>56.14285714285714</ele><time>2026-04-12T05:06:35.998Z</time></trkpt><trkpt lat="42.14921947518244" lon="14.464802495804781"><ele>55.0</ele><time>2026-04-12T05:06:37.998Z</time></trkpt><trkpt lat="42.149178613859355" lon="14.46472798630491"><ele>54.99999999999999</ele><time>2026-04-12T05:06:39.998Z</time></trkpt><trkpt lat="42.14912732586568" lon="14.46465499399414"><ele>55.0</ele><time>2026-04-12T05:06:41.998Z</time></trkpt><trkpt lat="42.149071831673325" lon="14.464586409485387"><ele>55.0</ele><time>2026-04-12T05:06:43.998Z</time></trkpt><trkpt lat="42.149026443642974" lon="14.464506474910765"><ele>55.0</ele><time>2026-04-12T05:06:45.998Z</time></trkpt><trkpt lat="42.14897891248916" lon="14.464433127195637"><ele>55.0</ele><time>2026-04-12T05:06:47.998Z</time></trkpt><trkpt lat="42.14893472509392" lon="14.464351979085377"><ele>54.99999999999999</ele><time>2026-04-12T05:06:49.998Z</time></trkpt><trkpt lat="42.148886102043036" lon="14.464280713446342"><ele>55.0</ele><time>2026-04-12T05:06:51.998Z</time></trkpt><trkpt lat="42.14884525530482" lon="14.464205353682692"><ele>55.14285714285714</ele><time>2026-04-12T05:06:53.998Z</time></trkpt><trkpt lat="42.14880019694449" lon="14.464137136639934"><ele>55.285714285714285</ele><time>2026-04-12T05:06:55.998Z</time></trkpt><trkpt lat="42.148762325742425" lon="14.464068886432162"><ele>55.42857142857143</ele><time>2026-04-12T05:06:57.998Z</time></trkpt><trkpt lat="42.14871375254623" lon="14.464007427156291"><ele>55.57142857142857</ele><time>2026-04-12T05:06:59.998Z</time></trkpt><trkpt lat="42.1486672536024" lon="14.463941272417548"><ele>55.714285714285715</ele><time>2026-04-12T05:07:01.998Z</time></trkpt><trkpt lat="42.14862072325725" lon="14.463873052337558"><ele>55.857142857142854</ele><time>2026-04-12T05:07:06Z</time></trkpt><trkpt lat="42.14858330801475" lon="14.463800627035196"><ele>56.0</ele><time>2026-04-12T05:07:12Z</time></trkpt><trkpt lat="42.14853517350541" lon="14.463741117225341"><ele>56.0</ele><time>2026-04-12T05:07:17Z</time></trkpt><trkpt lat="42.1484924976384" lon="14.463677302443331"><ele>56.0</ele><time>2026-04-12T05:07:20Z</time></trkpt><trkpt lat="42.14842748729341" lon="14.463585630702832"><ele>56.0</ele><time>2026-04-12T05:07:23Z</time></trkpt><trkpt lat="42.14838953721716" lon="14.463510997327697"><ele>56.0</ele><time>2026-04-12T05:07:25Z</time></trkpt><trkpt lat="42.14834783882123" lon="14.463445570406888"><ele>56.0</ele><time>2026-04-12T05:07:27Z</time></trkpt><trkpt lat="42.148285439553796" lon="14.463348883578174"><ele>56.0</ele><time>2026-04-12T05:07:30Z</time></trkpt><trkpt lat="42.14824397389198" lon="14.463281411441885"><ele>56.0</ele><time>2026-04-12T05:07:32Z</time></trkpt><trkpt lat="42.14818350590373" lon="14.463185763015792"><ele>56.285714285714285</ele><time>2026-04-12T05:07:35Z</time></trkpt><trkpt lat="42.148125428333294" lon="14.463090694526732"><ele>56.57142857142857</ele><time>2026-04-12T05:07:38Z</time></trkpt><trkpt lat="42.14808196560755" lon="14.463023031294776"><ele>56.85714285714286</ele><time>2026-04-12T05:07:40Z</time></trkpt><trkpt lat="42.148038576218845" lon="14.462956100025748"><ele>57.142857142857146</ele><time>2026-04-12T05:07:41.999Z</time></trkpt><trkpt lat="42.147992483566824" lon="14.462886063582769"><ele>57.42857142857143</ele><time>2026-04-12T05:07:43.999Z</time></trkpt><trkpt lat="42.14794876083186" lon="14.462817562002462"><ele>57.71428571428572</ele><time>2026-04-12T05:07:45.999Z</time></trkpt><trkpt lat="42.147904795179194" lon="14.462756293616145"><ele>58.00000000000001</ele><time>2026-04-12T05:07:47.999Z</time></trkpt><trkpt lat="42.14785876337537" lon="14.462694931597651"><ele>58.00000000000001</ele><time>2026-04-12T05:07:49.999Z</time></trkpt><trkpt lat="42.14780672016344" lon="14.462636120957962"><ele>58.0</ele><time>2026-04-12T05:07:51.999Z</time></trkpt><trkpt lat="42.14774866295021" lon="14.462579100832038"><ele>58.00000000000001</ele><time>2026-04-12T05:07:53.999Z</time></trkpt><trkpt lat="42.147691405866496" lon="14.462520151416957"><ele>58.00000000000001</ele><time>2026-04-12T05:07:55.999Z</time></trkpt><trkpt lat="42.14763570782182" lon="14.462459356819764"><ele>58.0</ele><time>2026-04-12T05:07:57.999Z</time></trkpt><trkpt lat="42.14757525307175" lon="14.462398141182279"><ele>58.00000000000001</ele><time>2026-04-12T05:07:59.999Z</time></trkpt><trkpt lat="42.147517832634804" lon="14.46233092788945"><ele>58.00000000000001</ele><time>2026-04-12T05:08:01.999Z</time></trkpt><trkpt lat="42.14746445619538" lon="14.46226297193423"><ele>57.99999999999999</ele><time>2026-04-12T05:08:03.999Z</time></trkpt><trkpt lat="42.147408588338266" lon="14.46220352502193"><ele>58.0</ele><time>2026-04-12T05:08:05.999Z</time></trkpt><trkpt lat="42.14735210715324" lon="14.462140817359513"><ele>58.0</ele><time>2026-04-12T05:08:07.999Z</time></trkpt><trkpt lat="42.14729207686302" lon="14.462076263109568"><ele>58.0</ele><time>2026-04-12T05:08:09.999Z</time></trkpt><trkpt lat="42.14723310518148" lon="14.462006426788763"><ele>57.99999999999999</ele><time>2026-04-12T05:08:11.999Z</time></trkpt><trkpt lat="42.147166028449085" lon="14.461937654622115"><ele>58.0</ele><time>2026-04-12T05:08:13.999Z</time></trkpt><trkpt lat="42.147099953439216" lon="14.461861031577733"><ele>58.33333333333333</ele><time>2026-04-12T05:08:15.999Z</time></trkpt><trkpt lat="42.14703275316174" lon="14.461782611322734"><ele>58.666666666666664</ele><time>2026-04-12T05:08:17.999Z</time></trkpt><trkpt lat="42.146966222404494" lon="14.461707557152506"><ele>59.0</ele><time>2026-04-12T05:08:19.999Z</time></trkpt><trkpt lat="42.14690149576319" lon="14.461627159873574"><ele>59.33333333333333</ele><time>2026-04-12T05:08:21.999Z</time></trkpt><trkpt lat="42.146834655944545" lon="14.461551005380262"><ele>59.666666666666664</ele><time>2026-04-12T05:08:23.999Z</time></trkpt><trkpt lat="42.14676564804284" lon="14.461476988265243"><ele>60.0</ele><time>2026-04-12T05:08:25.999Z</time></trkpt><trkpt lat="42.14669442524516" lon="14.4613993213289"><ele>60.0</ele><time>2026-04-12T05:08:27.999Z</time></trkpt><trkpt lat="42.14662349629938" lon="14.461320080655506"><ele>60.0</ele><time>2026-04-12T05:08:29.999Z</time></trkpt><trkpt lat="42.14655224266285" lon="14.461243493237554"><ele>60.0</ele><time>2026-04-12T05:08:31.999Z</time></trkpt><trkpt lat="42.146482911689795" lon="14.461161649588135"><ele>60.0</ele><time>2026-04-12T05:08:33.999Z</time></trkpt><trkpt lat="42.14640555451411" lon="14.461101766733636"><ele>60.0</ele><time>2026-04-12T05:08:35.998Z</time></trkpt><trkpt lat="42.14632000459471" lon="14.461067777254268"><ele>60.333333333333336</ele><time>2026-04-12T05:08:37.998Z</time></trkpt><trkpt lat="42.14622774671128" lon="14.461066772852917"><ele>60.66666666666667</ele><time>2026-04-12T05:08:39.998Z</time></trkpt><trkpt lat="42.14613274424828" lon="14.461064689163889"><ele>61.0</ele><time>2026-04-12T05:08:41.998Z</time></trkpt><trkpt lat="42.14604309343411" lon="14.46107727971502"><ele>61.333333333333336</ele><time>2026-04-12T05:08:43.998Z</time></trkpt><trkpt lat="42.14595724571114" lon="14.461086836455056"><ele>61.66666666666667</ele><time>2026-04-12T05:08:45.998Z</time></trkpt><trkpt lat="42.14587360643997" lon="14.461100056504723"><ele>62.0</ele><time>2026-04-12T05:08:47.998Z</time></trkpt><trkpt lat="42.14578892519526" lon="14.461109279935362"><ele>62.16666666666667</ele><time>2026-04-12T05:08:49.998Z</time></trkpt><trkpt lat="42.145709447044375" lon="14.461099863930231"><ele>62.333333333333336</ele><time>2026-04-12T05:08:51.998Z</time></trkpt><trkpt lat="42.145636506306715" lon="14.461059136083705"><ele>62.5</ele><time>2026-04-12T05:08:53.998Z</time></trkpt><trkpt lat="42.14556348118602" lon="14.461014515784944"><ele>62.66666666666667</ele><time>2026-04-12T05:08:55.998Z</time></trkpt><trkpt lat="42.1454875811633" lon="14.460968570037457"><ele>62.833333333333336</ele><time>2026-04-12T05:08:57.998Z</time></trkpt><trkpt lat="42.145412147624086" lon="14.460922145781495"><ele>63.0</ele><time>2026-04-12T05:08:59.998Z</time></trkpt><trkpt lat="42.14533940440934" lon="14.460877625453424"><ele>63.0</ele><time>2026-04-12T05:09:01.998Z</time></trkpt><trkpt lat="42.145265579218226" lon="14.460838697086928"><ele>63.0</ele><time>2026-04-12T05:09:03.998Z</time></trkpt><trkpt lat="42.14519500178463" lon="14.460785918638843"><ele>63.0</ele><time>2026-04-12T05:09:05.998Z</time></trkpt><trkpt lat="42.145122851454865" lon="14.46073729720393"><ele>63.0</ele><time>2026-04-12T05:09:07.998Z</time></trkpt><trkpt lat="42.14505581634914" lon="14.460680887321018"><ele>63.0</ele><time>2026-04-12T05:09:09.998Z</time></trkpt><trkpt lat="42.14499038252409" lon="14.46062224102588"><ele>63.0</ele><time>2026-04-12T05:09:12Z</time></trkpt><trkpt lat="42.14492878992998" lon="14.460552348153469"><ele>63.0</ele><time>2026-04-12T05:09:14Z</time></trkpt><trkpt lat="42.14486773144514" lon="14.460487182500863"><ele>63.0</ele><time>2026-04-12T05:09:16Z</time></trkpt><trkpt lat="42.14481416506732" lon="14.46041164471975"><ele>63.0</ele><time>2026-04-12T05:09:18Z</time></trkpt><trkpt lat="42.14475755240916" lon="14.460335379261302"><ele>63.0</ele><time>2026-04-12T05:09:20Z</time></trkpt><trkpt lat="42.14470087209626" lon="14.460261534157883"><ele>63.0</ele><time>2026-04-12T05:09:22Z</time></trkpt><trkpt lat="42.1446469203888" lon="14.460184359990764"><ele>63.0</ele><time>2026-04-12T05:09:24Z</time></trkpt><trkpt lat="42.14458674727357" lon="14.46011101045333"><ele>63.0</ele><time>2026-04-12T05:09:26Z</time></trkpt><trkpt lat="42.144533899227426" lon="14.460030938160388"><ele>63.0</ele><time>2026-04-12T05:09:28Z</time></trkpt><trkpt lat="42.1444779777204" lon="14.459955154081111"><ele>63.0</ele><time>2026-04-12T05:09:30Z</time></trkpt><trkpt lat="42.144420439858436" lon="14.459880765216699"><ele>63.0</ele><time>2026-04-12T05:09:32Z</time></trkpt><trkpt lat="42.144360582277145" lon="14.459812145363644"><ele>63.0</ele><time>2026-04-12T05:09:34Z</time></trkpt><trkpt lat="42.14429711404887" lon="14.45974797233094"><ele>63.0</ele><time>2026-04-12T05:09:36Z</time></trkpt><trkpt lat="42.144233127164604" lon="14.459687816849998"><ele>63.0</ele><time>2026-04-12T05:09:38Z</time></trkpt><trkpt lat="42.14416216046922" lon="14.459640635481815"><ele>63.0</ele><time>2026-04-12T05:09:40Z</time></trkpt><trkpt lat="42.14408887890619" lon="14.459605361344996"><ele>63.0</ele><time>2026-04-12T05:09:42Z</time></trkpt><trkpt lat="42.14401754506291" lon="14.459575742016229"><ele>63.0</ele><time>2026-04-12T05:09:44Z</time></trkpt><trkpt lat="42.14394605186058" lon="14.459543423128899"><ele>63.0</ele><time>2026-04-12T05:09:45.999Z</time></trkpt><trkpt lat="42.1438752941669" lon="14.459509592046603"><ele>63.0</ele><time>2026-04-12T05:09:47.999Z</time></trkpt><trkpt lat="42.14380620608663" lon="14.459463258366656"><ele>63.833333333333336</ele><time>2026-04-12T05:09:49.999Z</time></trkpt><trkpt lat="42.143739213237545" lon="14.459400933511956"><ele>64.66666666666667</ele><time>2026-04-12T05:09:51.999Z</time></trkpt><trkpt lat="42.14367789889767" lon="14.459324383559704"><ele>65.5</ele><time>2026-04-12T05:09:53.999Z</time></trkpt><trkpt lat="42.14362297612974" lon="14.459240713433616"><ele>66.33333333333334</ele><time>2026-04-12T05:09:55.999Z</time></trkpt><trkpt lat="42.14357233183902" lon="14.459151324550126"><ele>67.16666666666667</ele><time>2026-04-12T05:09:57.999Z</time></trkpt><trkpt lat="42.14353086128975" lon="14.459052890343148"><ele>68.0</ele><time>2026-04-12T05:09:59.999Z</time></trkpt><trkpt lat="42.143500174210814" lon="14.45894049652569"><ele>68.0</ele><time>2026-04-12T05:10:01.999Z</time></trkpt><trkpt lat="42.14348309118786" lon="14.458815025796365"><ele>68.0</ele><time>2026-04-12T05:10:03.999Z</time></trkpt><trkpt lat="42.1434674659882" lon="14.458675489010702"><ele>68.0</ele><time>2026-04-12T05:10:05.999Z</time></trkpt><trkpt lat="42.14344727641343" lon="14.45853061413617"><ele>68.0</ele><time>2026-04-12T05:10:07.999Z</time></trkpt><trkpt lat="42.1434169187086" lon="14.458385378314256"><ele>68.0</ele><time>2026-04-12T05:10:09.999Z</time></trkpt><trkpt lat="42.14337392923715" lon="14.458244807001662"><ele>67.6</ele><time>2026-04-12T05:10:11.999Z</time></trkpt><trkpt lat="42.143315455203926" lon="14.458115180008447"><ele>67.19999999999999</ele><time>2026-04-12T05:10:13.999Z</time></trkpt><trkpt lat="42.14325242438078" lon="14.45798889560844"><ele>66.8</ele><time>2026-04-12T05:10:15.999Z</time></trkpt><trkpt lat="42.14319329339783" lon="14.45787595030029"><ele>66.39999999999999</ele><time>2026-04-12T05:10:17.999Z</time></trkpt><trkpt lat="42.1431349860675" lon="14.457763510227945"><ele>66.0</ele><time>2026-04-12T05:10:19.999Z</time></trkpt><trkpt lat="42.14308041091992" lon="14.457648659739345"><ele>66.0</ele><time>2026-04-12T05:10:21.999Z</time></trkpt><trkpt lat="42.14302697810449" lon="14.457538106576235"><ele>66.0</ele><time>2026-04-12T05:10:23.999Z</time></trkpt><trkpt lat="42.14297294620189" lon="14.457434305999229"><ele>66.0</ele><time>2026-04-12T05:10:25.999Z</time></trkpt><trkpt lat="42.14291670158719" lon="14.457332716476357"><ele>66.0</ele><time>2026-04-12T05:10:27.999Z</time></trkpt><trkpt lat="42.14285927218388" lon="14.457231260292062"><ele>66.0</ele><time>2026-04-12T05:10:29.999Z</time></trkpt><trkpt lat="42.14280075884306" lon="14.457129644195843"><ele>65.0</ele><time>2026-04-12T05:10:31.999Z</time></trkpt><trkpt lat="42.14274616094608" lon="14.457027347087292"><ele>63.99999999999999</ele><time>2026-04-12T05:10:33.999Z</time></trkpt><trkpt lat="42.14268925522228" lon="14.4569278272298"><ele>62.99999999999999</ele><time>2026-04-12T05:10:35.999Z</time></trkpt><trkpt lat="42.142630933174445" lon="14.456823849217008"><ele>62.0</ele><time>2026-04-12T05:10:37.999Z</time></trkpt><trkpt lat="42.14257592456464" lon="14.45672088934076"><ele>61.0</ele><time>2026-04-12T05:10:39.999Z</time></trkpt><trkpt lat="42.14252077811408" lon="14.45661711819962"><ele>61.0</ele><time>2026-04-12T05:10:41.998Z</time></trkpt><trkpt lat="42.14246984823133" lon="14.456509974865345"><ele>60.99999999999999</ele><time>2026-04-12T05:10:43.998Z</time></trkpt><trkpt lat="42.14241174330992" lon="14.456410044567486"><ele>60.99999999999999</ele><time>2026-04-12T05:10:45.998Z</time></trkpt><trkpt lat="42.142359028775644" lon="14.456307299874041"><ele>61.0</ele><time>2026-04-12T05:10:47.998Z</time></trkpt><trkpt lat="42.14230571010678" lon="14.456208106374602"><ele>61.0</ele><time>2026-04-12T05:10:49.998Z</time></trkpt><trkpt lat="42.14225018683879" lon="14.456107320831595"><ele>61.0</ele><time>2026-04-12T05:10:51.998Z</time></trkpt><trkpt lat="42.14219534820201" lon="14.456000028315685"><ele>60.99999999999999</ele><time>2026-04-12T05:10:53.998Z</time></trkpt><trkpt lat="42.14213978449208" lon="14.455897932610585"><ele>60.99999999999999</ele><time>2026-04-12T05:10:55.998Z</time></trkpt><trkpt lat="42.14208481123673" lon="14.455793873034832"><ele>61.0</ele><time>2026-04-12T05:10:57.998Z</time></trkpt><trkpt lat="42.14203323581335" lon="14.455695115710874"><ele>61.0</ele><time>2026-04-12T05:10:59.998Z</time></trkpt><trkpt lat="42.14197873876889" lon="14.45559765717058"><ele>60.99999999999999</ele><time>2026-04-12T05:11:01.998Z</time></trkpt><trkpt lat="42.14192679626381" lon="14.455498339497904"><ele>61.0</ele><time>2026-04-12T05:11:03.998Z</time></trkpt><trkpt lat="42.141876358181015" lon="14.455394562537949"><ele>61.0</ele><time>2026-04-12T05:11:05.998Z</time></trkpt><trkpt lat="42.14182323474871" lon="14.455295513371869"><ele>61.0</ele><time>2026-04-12T05:11:07.998Z</time></trkpt><trkpt lat="42.14176845789738" lon="14.455200566655337"><ele>60.99999999999999</ele><time>2026-04-12T05:11:09.998Z</time></trkpt><trkpt lat="42.14171728108353" lon="14.455105861415081"><ele>61.0</ele><time>2026-04-12T05:11:11.998Z</time></trkpt><trkpt lat="42.141670778230164" lon="14.455007583828355"><ele>60.99999999999999</ele><time>2026-04-12T05:11:13.998Z</time></trkpt><trkpt lat="42.14162381734726" lon="14.454908168917408"><ele>61.0</ele><time>2026-04-12T05:11:15.998Z</time></trkpt><trkpt lat="42.141578310455735" lon="14.454810343073305"><ele>61.0</ele><time>2026-04-12T05:11:18Z</time></trkpt><trkpt lat="42.14153800708678" lon="14.454713060684146"><ele>61.0</ele><time>2026-04-12T05:11:20Z</time></trkpt><trkpt lat="42.14150029557711" lon="14.454612549337236"><ele>60.99999999999999</ele><time>2026-04-12T05:11:22Z</time></trkpt><trkpt lat="42.141467877387655" lon="14.454511096433539"><ele>61.0</ele><time>2026-04-12T05:11:24Z</time></trkpt><trkpt lat="42.14143244553449" lon="14.454407149820856"><ele>61.166666666666664</ele><time>2026-04-12T05:11:26Z</time></trkpt><trkpt lat="42.14140255381049" lon="14.454300644022515"><ele>61.33333333333333</ele><time>2026-04-12T05:11:28Z</time></trkpt><trkpt lat="42.141372405008596" lon="14.454194202032213"><ele>61.5</ele><time>2026-04-12T05:11:30Z</time></trkpt><trkpt lat="42.14134086115351" lon="14.45408487069103"><ele>61.66666666666667</ele><time>2026-04-12T05:11:32Z</time></trkpt><trkpt lat="42.14130939969413" lon="14.453973635449175"><ele>61.833333333333336</ele><time>2026-04-12T05:11:34Z</time></trkpt><trkpt lat="42.14128114713523" lon="14.453860694002495"><ele>62.0</ele><time>2026-04-12T05:11:36Z</time></trkpt><trkpt lat="42.14125111087006" lon="14.45374793541794"><ele>62.00000000000001</ele><time>2026-04-12T05:11:38Z</time></trkpt><trkpt lat="42.14122098695276" lon="14.45363123167212"><ele>62.0</ele><time>2026-04-12T05:11:40Z</time></trkpt><trkpt lat="42.141190050585344" lon="14.45352047818536"><ele>62.0</ele><time>2026-04-12T05:11:42Z</time></trkpt><trkpt lat="42.14115731797298" lon="14.453413171244884"><ele>62.0</ele><time>2026-04-12T05:11:44Z</time></trkpt><trkpt lat="42.14112654549525" lon="14.453307468449779"><ele>62.00000000000001</ele><time>2026-04-12T05:11:46Z</time></trkpt><trkpt lat="42.14109521311366" lon="14.453208171551298"><ele>62.0</ele><time>2026-04-12T05:11:47.999Z</time></trkpt><trkpt lat="42.141064570904405" lon="14.453108330793883"><ele>62.00000000000001</ele><time>2026-04-12T05:11:49.999Z</time></trkpt><trkpt lat="42.141034189592524" lon="14.453010869383316"><ele>62.0</ele><time>2026-04-12T05:11:51.999Z</time></trkpt><trkpt lat="42.14100648612711" lon="14.452916852110246"><ele>62.0</ele><time>2026-04-12T05:11:53.999Z</time></trkpt><trkpt lat="42.14097348623409" lon="14.452823183789338"><ele>62.0</ele><time>2026-04-12T05:11:55.999Z</time></trkpt><trkpt lat="42.14094171297315" lon="14.452729240134973"><ele>62.00000000000001</ele><time>2026-04-12T05:11:57.999Z</time></trkpt><trkpt lat="42.140904244056905" lon="14.45263618051479"><ele>62.0</ele><time>2026-04-12T05:11:59.999Z</time></trkpt><trkpt lat="42.14085960313394" lon="14.452550044544113"><ele>62.142857142857146</ele><time>2026-04-12T05:12:01.999Z</time></trkpt><trkpt lat="42.14081221729516" lon="14.452472148056106"><ele>62.28571428571429</ele><time>2026-04-12T05:12:03.999Z</time></trkpt><trkpt lat="42.14075689048976" lon="14.45240607335676"><ele>62.42857142857143</ele><time>2026-04-12T05:12:05.999Z</time></trkpt><trkpt lat="42.14068840566258" lon="14.45237087550231"><ele>62.57142857142857</ele><time>2026-04-12T05:12:07.999Z</time></trkpt><trkpt lat="42.14061591024455" lon="14.452352298938408"><ele>62.714285714285715</ele><time>2026-04-12T05:12:09.999Z</time></trkpt><trkpt lat="42.14054303986804" lon="14.452349632070238"><ele>62.85714285714286</ele><time>2026-04-12T05:12:11.999Z</time></trkpt><trkpt lat="42.14046869528395" lon="14.452349523134341"><ele>63.0</ele><time>2026-04-12T05:12:13.999Z</time></trkpt><trkpt lat="42.14039757198358" lon="14.452358173852197"><ele>63.166666666666664</ele><time>2026-04-12T05:12:15.999Z</time></trkpt><trkpt lat="42.14031943293112" lon="14.452373834665938"><ele>63.33333333333333</ele><time>2026-04-12T05:12:17.999Z</time></trkpt><trkpt lat="42.14024114242314" lon="14.45237768635276"><ele>63.5</ele><time>2026-04-12T05:12:19.999Z</time></trkpt><trkpt lat="42.140161958534335" lon="14.45237922864383"><ele>63.666666666666664</ele><time>2026-04-12T05:12:21.999Z</time></trkpt><trkpt lat="42.140083365870595" lon="14.452366029765685"><ele>63.83333333333333</ele><time>2026-04-12T05:12:23.999Z</time></trkpt><trkpt lat="42.14000629545684" lon="14.452355171146122"><ele>64.0</ele><time>2026-04-12T05:12:25.999Z</time></trkpt><trkpt lat="42.13992828494584" lon="14.452334893354152"><ele>64.16666666666666</ele><time>2026-04-12T05:12:27.999Z</time></trkpt><trkpt lat="42.139852456290036" lon="14.452307785716119"><ele>64.33333333333333</ele><time>2026-04-12T05:12:29.999Z</time></trkpt><trkpt lat="42.13977661045545" lon="14.452280542386042"><ele>64.5</ele><time>2026-04-12T05:12:31.999Z</time></trkpt><trkpt lat="42.13970422554879" lon="14.452247399723374"><ele>64.66666666666667</ele><time>2026-04-12T05:12:33.999Z</time></trkpt><trkpt lat="42.13963427188286" lon="14.452204701775308"><ele>64.83333333333334</ele><time>2026-04-12T05:12:35.999Z</time></trkpt><trkpt lat="42.13956797946638" lon="14.452149590243556"><ele>65.0</ele><time>2026-04-12T05:12:37.999Z</time></trkpt><trkpt lat="42.13950507624488" lon="14.452085360697529"><ele>65.0</ele><time>2026-04-12T05:12:39.999Z</time></trkpt><trkpt lat="42.139452638234324" lon="14.452006705290065"><ele>65.0</ele><time>2026-04-12T05:12:41.999Z</time></trkpt><trkpt lat="42.13940395070312" lon="14.451922506406932"><ele>65.0</ele><time>2026-04-12T05:12:43.998Z</time></trkpt><trkpt lat="42.13935365063038" lon="14.451824935519696"><ele>65.0</ele><time>2026-04-12T05:12:45.998Z</time></trkpt><trkpt lat="42.13931330717845" lon="14.451726106129522"><ele>65.0</ele><time>2026-04-12T05:12:47.998Z</time></trkpt><trkpt lat="42.139276343908605" lon="14.451620978815084"><ele>65.0</ele><time>2026-04-12T05:12:49.998Z</time></trkpt><trkpt lat="42.13924091265002" lon="14.45151537775723"><ele>65.0</ele><time>2026-04-12T05:12:51.998Z</time></trkpt><trkpt lat="42.13920762873285" lon="14.451407921466382"><ele>65.0</ele><time>2026-04-12T05:12:53.998Z</time></trkpt><trkpt lat="42.139174179277866" lon="14.451298124182095"><ele>65.0</ele><time>2026-04-12T05:12:55.998Z</time></trkpt><trkpt lat="42.13914307388164" lon="14.451187526846688"><ele>65.0</ele><time>2026-04-12T05:12:57.998Z</time></trkpt><trkpt lat="42.13911555648161" lon="14.45107551394605"><ele>65.0</ele><time>2026-04-12T05:12:59.998Z</time></trkpt><trkpt lat="42.13908860537501" lon="14.450964113706979"><ele>65.0</ele><time>2026-04-12T05:13:01.998Z</time></trkpt><trkpt lat="42.13906045824048" lon="14.450852560044684"><ele>65.33333333333334</ele><time>2026-04-12T05:13:03.998Z</time></trkpt><trkpt lat="42.13903146890106" lon="14.450740896398855"><ele>65.66666666666667</ele><time>2026-04-12T05:13:05.998Z</time></trkpt><trkpt lat="42.139009389833795" lon="14.4506286557685"><ele>66.0</ele><time>2026-04-12T05:13:07.998Z</time></trkpt><trkpt lat="42.138980747420234" lon="14.450517980640578"><ele>66.33333333333333</ele><time>2026-04-12T05:13:09.998Z</time></trkpt><trkpt lat="42.13895231534711" lon="14.45040715011644"><ele>66.66666666666666</ele><time>2026-04-12T05:13:11.998Z</time></trkpt><trkpt lat="42.138925125048694" lon="14.450294592019024"><ele>67.0</ele><time>2026-04-12T05:13:13.998Z</time></trkpt><trkpt lat="42.138899517432506" lon="14.45017918105401"><ele>67.0</ele><time>2026-04-12T05:13:15.998Z</time></trkpt><trkpt lat="42.13887332117624" lon="14.450063535428123"><ele>67.0</ele><time>2026-04-12T05:13:17.998Z</time></trkpt><trkpt lat="42.138845928527836" lon="14.449951057148663"><ele>67.0</ele><time>2026-04-12T05:13:19.998Z</time></trkpt><trkpt lat="42.13881674942139" lon="14.44983825472382"><ele>67.0</ele><time>2026-04-12T05:13:21.998Z</time></trkpt><trkpt lat="42.13878799039086" lon="14.44972465234468"><ele>67.0</ele><time>2026-04-12T05:13:24Z</time></trkpt><trkpt lat="42.13876198278058" lon="14.449612253587114"><ele>67.0</ele><time>2026-04-12T05:13:26Z</time></trkpt><trkpt lat="42.138733170264835" lon="14.44950005434909"><ele>66.83333333333333</ele><time>2026-04-12T05:13:28Z</time></trkpt><trkpt lat="42.13870665898504" lon="14.449392548138157"><ele>66.66666666666666</ele><time>2026-04-12T05:13:30Z</time></trkpt><trkpt lat="42.1386809823749" lon="14.449289046788506"><ele>66.5</ele><time>2026-04-12T05:13:32Z</time></trkpt><trkpt lat="42.138656249820414" lon="14.449182746302222"><ele>66.33333333333333</ele><time>2026-04-12T05:13:34Z</time></trkpt><trkpt lat="42.13863127118609" lon="14.449074624878964"><ele>66.16666666666667</ele><time>2026-04-12T05:13:36Z</time></trkpt><trkpt lat="42.13860270519447" lon="14.448967567141919"><ele>66.0</ele><time>2026-04-12T05:13:38Z</time></trkpt><trkpt lat="42.13857343728451" lon="14.448861837410501"><ele>65.66666666666667</ele><time>2026-04-12T05:13:40Z</time></trkpt><trkpt lat="42.13854877290385" lon="14.448753267601123"><ele>65.33333333333333</ele><time>2026-04-12T05:13:42Z</time></trkpt><trkpt lat="42.13852127681554" lon="14.448647635819096"><ele>65.0</ele><time>2026-04-12T05:13:44Z</time></trkpt><trkpt lat="42.138495810895044" lon="14.448540071277508"><ele>64.66666666666666</ele><time>2026-04-12T05:13:46Z</time></trkpt><trkpt lat="42.138470109617934" lon="14.448432514247001"><ele>64.33333333333333</ele><time>2026-04-12T05:13:48Z</time></trkpt><trkpt lat="42.138444871337896" lon="14.448323301570912"><ele>64.0</ele><time>2026-04-12T05:13:49.999Z</time></trkpt><trkpt lat="42.13841788559213" lon="14.448213010060421"><ele>63.99999999999999</ele><time>2026-04-12T05:13:51.999Z</time></trkpt><trkpt lat="42.13839033261152" lon="14.448104368868469"><ele>64.0</ele><time>2026-04-12T05:13:53.999Z</time></trkpt><trkpt lat="42.13836547066395" lon="14.447996198852856"><ele>64.0</ele><time>2026-04-12T05:13:55.999Z</time></trkpt><trkpt lat="42.138336614798206" lon="14.447888095658108"><ele>64.0</ele><time>2026-04-12T05:13:57.999Z</time></trkpt><trkpt lat="42.138307579771485" lon="14.44777878470371"><ele>63.99999999999999</ele><time>2026-04-12T05:13:59.999Z</time></trkpt><trkpt lat="42.13828085012258" lon="14.44766663980911"><ele>64.0</ele><time>2026-04-12T05:14:01.999Z</time></trkpt><trkpt lat="42.13825099169738" lon="14.447559118026904"><ele>63.99999999999999</ele><time>2026-04-12T05:14:03.999Z</time></trkpt><trkpt lat="42.13822119334625" lon="14.447448230028519"><ele>64.0</ele><time>2026-04-12T05:14:05.999Z</time></trkpt><trkpt lat="42.13819073266208" lon="14.44733986411348"><ele>64.0</ele><time>2026-04-12T05:14:07.999Z</time></trkpt><trkpt lat="42.138164303455945" lon="14.447231675446401"><ele>64.0</ele><time>2026-04-12T05:14:09.999Z</time></trkpt><trkpt lat="42.13813549673581" lon="14.44712447704357"><ele>63.99999999999999</ele><time>2026-04-12T05:14:11.999Z</time></trkpt><trkpt lat="42.138106743184444" lon="14.447021196204672"><ele>64.0</ele><time>2026-04-12T05:14:13.999Z</time></trkpt><trkpt lat="42.13807900495899" lon="14.446917518193871"><ele>64.83333333333333</ele><time>2026-04-12T05:14:15.999Z</time></trkpt><trkpt lat="42.13805538562121" lon="14.446809615758555"><ele>65.66666666666666</ele><time>2026-04-12T05:14:17.999Z</time></trkpt><trkpt lat="42.13803101346191" lon="14.446707767213065"><ele>66.5</ele><time>2026-04-12T05:14:19.999Z</time></trkpt><trkpt lat="42.138005238440385" lon="14.446610187804833"><ele>67.33333333333333</ele><time>2026-04-12T05:14:21.999Z</time></trkpt><trkpt lat="42.137979145292725" lon="14.44651175274861"><ele>68.16666666666667</ele><time>2026-04-12T05:14:23.999Z</time></trkpt><trkpt lat="42.13794910881845" lon="14.446413582635017"><ele>69.0</ele><time>2026-04-12T05:14:25.999Z</time></trkpt><trkpt lat="42.13792405151028" lon="14.446318105297253"><ele>69.16666666666667</ele><time>2026-04-12T05:14:27.999Z</time></trkpt><trkpt lat="42.137895182902774" lon="14.44621961597771"><ele>69.33333333333333</ele><time>2026-04-12T05:14:29.999Z</time></trkpt><trkpt lat="42.13786710499053" lon="14.44611543233815"><ele>69.5</ele><time>2026-04-12T05:14:31.999Z</time></trkpt><trkpt lat="42.13783909784128" lon="14.44601469759685"><ele>69.66666666666666</ele><time>2026-04-12T05:14:33.999Z</time></trkpt><trkpt lat="42.13781861478113" lon="14.445913078852307"><ele>69.83333333333333</ele><time>2026-04-12T05:14:35.999Z</time></trkpt><trkpt lat="42.13779696830481" lon="14.445812513299114"><ele>70.0</ele><time>2026-04-12T05:14:37.999Z</time></trkpt><trkpt lat="42.137771687095146" lon="14.445710292481653"><ele>70.0</ele><time>2026-04-12T05:14:39.999Z</time></trkpt><trkpt lat="42.13774628892539" lon="14.445609610796197"><ele>70.0</ele><time>2026-04-12T05:14:41.998Z</time></trkpt><trkpt lat="42.137714409573775" lon="14.445501238339293"><ele>70.0</ele><time>2026-04-12T05:14:43.998Z</time></trkpt><trkpt lat="42.13768536026791" lon="14.445400857967881"><ele>70.0</ele><time>2026-04-12T05:14:45.998Z</time></trkpt><trkpt lat="42.1376585626022" lon="14.445293371477476"><ele>70.0</ele><time>2026-04-12T05:14:47.998Z</time></trkpt><trkpt lat="42.13763685024657" lon="14.445182214306506"><ele>70.0</ele><time>2026-04-12T05:14:49.998Z</time></trkpt><trkpt lat="42.13761044059169" lon="14.445074304197538"><ele>69.83333333333333</ele><time>2026-04-12T05:14:51.998Z</time></trkpt><trkpt lat="42.13758508755059" lon="14.444962683859263"><ele>69.66666666666666</ele><time>2026-04-12T05:14:53.998Z</time></trkpt><trkpt lat="42.13755944974287" lon="14.444852104859867"><ele>69.5</ele><time>2026-04-12T05:14:55.998Z</time></trkpt><trkpt lat="42.13752859230738" lon="14.444738877166488"><ele>69.33333333333333</ele><time>2026-04-12T05:14:57.998Z</time></trkpt><trkpt lat="42.137501174579455" lon="14.444621453552683"><ele>69.16666666666667</ele><time>2026-04-12T05:14:59.998Z</time></trkpt><trkpt lat="42.13747461311948" lon="14.444504211151894"><ele>69.0</ele><time>2026-04-12T05:15:01.998Z</time></trkpt><trkpt lat="42.13744479621403" lon="14.44439055210175"><ele>69.0</ele><time>2026-04-12T05:15:03.998Z</time></trkpt><trkpt lat="42.137416330605525" lon="14.444275008994818"><ele>69.0</ele><time>2026-04-12T05:15:05.998Z</time></trkpt><trkpt lat="42.13738278667729" lon="14.444161316390742"><ele>69.0</ele><time>2026-04-12T05:15:07.998Z</time></trkpt><trkpt lat="42.137348580073166" lon="14.44404652784461"><ele>69.0</ele><time>2026-04-12T05:15:09.998Z</time></trkpt><trkpt lat="42.13731800478324" lon="14.44393134892044"><ele>69.0</ele><time>2026-04-12T05:15:11.998Z</time></trkpt><trkpt lat="42.13728515626771" lon="14.44381428256902"><ele>70.4</ele><time>2026-04-12T05:15:13.998Z</time></trkpt><trkpt lat="42.13725091605088" lon="14.44370621224344"><ele>71.80000000000001</ele><time>2026-04-12T05:15:15.998Z</time></trkpt><trkpt lat="42.13721350866813" lon="14.443596057576531"><ele>73.19999999999999</ele><time>2026-04-12T05:15:17.998Z</time></trkpt><trkpt lat="42.137170030306585" lon="14.443485028194383"><ele>74.6</ele><time>2026-04-12T05:15:19.998Z</time></trkpt><trkpt lat="42.13712666830197" lon="14.443373132991644"><ele>76.0</ele><time>2026-04-12T05:15:21.998Z</time></trkpt><trkpt lat="42.13708054305666" lon="14.443263444360275"><ele>76.0</ele><time>2026-04-12T05:15:23.998Z</time></trkpt><trkpt lat="42.13703921723809" lon="14.443151278355698"><ele>76.0</ele><time>2026-04-12T05:15:25.998Z</time></trkpt><trkpt lat="42.13699490053415" lon="14.443039242238976"><ele>76.0</ele><time>2026-04-12T05:15:27.998Z</time></trkpt><trkpt lat="42.13695081931135" lon="14.442925553196101"><ele>76.0</ele><time>2026-04-12T05:15:30Z</time></trkpt><trkpt lat="42.136907912662075" lon="14.442814336072923"><ele>76.0</ele><time>2026-04-12T05:15:32Z</time></trkpt><trkpt lat="42.136866382865485" lon="14.44270168070558"><ele>74.8</ele><time>2026-04-12T05:15:34Z</time></trkpt><trkpt lat="42.13682030963931" lon="14.44258991472239"><ele>73.6</ele><time>2026-04-12T05:15:36Z</time></trkpt><trkpt lat="42.13677892771699" lon="14.442479137452962"><ele>72.4</ele><time>2026-04-12T05:15:38Z</time></trkpt><trkpt lat="42.136732700252026" lon="14.44236757039127"><ele>71.2</ele><time>2026-04-12T05:15:40Z</time></trkpt><trkpt lat="42.13669073094571" lon="14.442258056431545"><ele>70.0</ele><time>2026-04-12T05:15:42Z</time></trkpt><trkpt lat="42.136648297339796" lon="14.442145628802823"><ele>70.6</ele><time>2026-04-12T05:15:44Z</time></trkpt><trkpt lat="42.13660322506788" lon="14.442035859345136"><ele>71.2</ele><time>2026-04-12T05:15:46Z</time></trkpt><trkpt lat="42.13655962063069" lon="14.44192684281203"><ele>71.8</ele><time>2026-04-12T05:15:48Z</time></trkpt><trkpt lat="42.13651736660171" lon="14.441815790578602"><ele>72.4</ele><time>2026-04-12T05:15:50Z</time></trkpt><trkpt lat="42.13647499219723" lon="14.441704888693668"><ele>73.0</ele><time>2026-04-12T05:15:52Z</time></trkpt><trkpt lat="42.136431548540266" lon="14.441596942302597"><ele>73.0</ele><time>2026-04-12T05:15:53.999Z</time></trkpt><trkpt lat="42.13638822616788" lon="14.44148827496708"><ele>73.0</ele><time>2026-04-12T05:15:55.999Z</time></trkpt><trkpt lat="42.136347010430796" lon="14.441377561931644"><ele>73.0</ele><time>2026-04-12T05:15:57.999Z</time></trkpt><trkpt lat="42.1363027855335" lon="14.441270353924105"><ele>73.0</ele><time>2026-04-12T05:15:59.999Z</time></trkpt><trkpt lat="42.13626107671308" lon="14.44115859821487"><ele>73.0</ele><time>2026-04-12T05:16:01.999Z</time></trkpt><trkpt lat="42.13621822198659" lon="14.441048554065452"><ele>72.6</ele><time>2026-04-12T05:16:03.999Z</time></trkpt><trkpt lat="42.136176278320505" lon="14.440936822928755"><ele>72.19999999999999</ele><time>2026-04-12T05:16:05.999Z</time></trkpt><trkpt lat="42.136133931323386" lon="14.44082810683756"><ele>71.8</ele><time>2026-04-12T05:16:07.999Z</time></trkpt><trkpt lat="42.13608996933024" lon="14.440721159849614"><ele>71.39999999999999</ele><time>2026-04-12T05:16:09.999Z</time></trkpt><trkpt lat="42.136045831945026" lon="14.440609655004435"><ele>71.0</ele><time>2026-04-12T05:16:11.999Z</time></trkpt><trkpt lat="42.13600207986972" lon="14.440499021399761"><ele>70.2</ele><time>2026-04-12T05:16:13.999Z</time></trkpt><trkpt lat="42.135956923987266" lon="14.440384131004938"><ele>69.39999999999999</ele><time>2026-04-12T05:16:15.999Z</time></trkpt><trkpt lat="42.13591185303414" lon="14.440271781972871"><ele>68.6</ele><time>2026-04-12T05:16:17.999Z</time></trkpt><trkpt lat="42.1358668907001" lon="14.440161115768593"><ele>67.8</ele><time>2026-04-12T05:16:19.999Z</time></trkpt><trkpt lat="42.13582409710869" lon="14.440047954830222"><ele>67.0</ele><time>2026-04-12T05:16:21.999Z</time></trkpt><trkpt lat="42.13577857169242" lon="14.439936612713915"><ele>67.0</ele><time>2026-04-12T05:16:23.999Z</time></trkpt><trkpt lat="42.135732343214215" lon="14.439823665550756"><ele>67.0</ele><time>2026-04-12T05:16:25.999Z</time></trkpt><trkpt lat="42.13568986344766" lon="14.439713887753104"><ele>67.0</ele><time>2026-04-12T05:16:27.999Z</time></trkpt><trkpt lat="42.135645523942124" lon="14.439606335776148"><ele>67.0</ele><time>2026-04-12T05:16:29.999Z</time></trkpt><trkpt lat="42.13560316396912" lon="14.439496153226168"><ele>67.0</ele><time>2026-04-12T05:16:31.999Z</time></trkpt><trkpt lat="42.13555865900321" lon="14.439387673399008"><ele>68.4</ele><time>2026-04-12T05:16:33.999Z</time></trkpt><trkpt lat="42.135516410625634" lon="14.439271918457697"><ele>69.80000000000001</ele><time>2026-04-12T05:16:35.999Z</time></trkpt><trkpt lat="42.13547392626468" lon="14.439161903900484"><ele>71.2</ele><time>2026-04-12T05:16:37.999Z</time></trkpt><trkpt lat="42.135431237905806" lon="14.439051671675198"><ele>72.60000000000001</ele><time>2026-04-12T05:16:39.999Z</time></trkpt><trkpt lat="42.1353900794229" lon="14.43893711814491"><ele>74.0</ele><time>2026-04-12T05:16:41.999Z</time></trkpt><trkpt lat="42.13534749271167" lon="14.438825384798772"><ele>72.4</ele><time>2026-04-12T05:16:43.999Z</time></trkpt><trkpt lat="42.135308231484004" lon="14.438713554413614"><ele>70.80000000000001</ele><time>2026-04-12T05:16:45.999Z</time></trkpt><trkpt lat="42.135273747213105" lon="14.43860078082374"><ele>69.19999999999999</ele><time>2026-04-12T05:16:47.998Z</time></trkpt><trkpt lat="42.13524334150681" lon="14.438483819338543"><ele>67.6</ele><time>2026-04-12T05:16:49.998Z</time></trkpt><trkpt lat="42.135209966662245" lon="14.438370040918196"><ele>66.0</ele><time>2026-04-12T05:16:51.998Z</time></trkpt><trkpt lat="42.13517565925449" lon="14.438256921060578"><ele>66.0</ele><time>2026-04-12T05:16:53.998Z</time></trkpt><trkpt lat="42.13514211748622" lon="14.438142575848913"><ele>66.0</ele><time>2026-04-12T05:16:55.998Z</time></trkpt><trkpt lat="42.13511203664213" lon="14.438026314293612"><ele>66.0</ele><time>2026-04-12T05:16:57.998Z</time></trkpt><trkpt lat="42.135078367872836" lon="14.437913304723477"><ele>66.0</ele><time>2026-04-12T05:16:59.998Z</time></trkpt><trkpt lat="42.13504536881269" lon="14.43779827727683"><ele>66.0</ele><time>2026-04-12T05:17:01.998Z</time></trkpt><trkpt lat="42.13501331000832" lon="14.437685507047862"><ele>66.6</ele><time>2026-04-12T05:17:03.998Z</time></trkpt><trkpt lat="42.13498093280288" lon="14.4375710433925"><ele>67.19999999999999</ele><time>2026-04-12T05:17:05.998Z</time></trkpt><trkpt lat="42.134947673570544" lon="14.43745668523084"><ele>67.80000000000001</ele><time>2026-04-12T05:17:07.998Z</time></trkpt><trkpt lat="42.1349113227975" lon="14.437342184295318"><ele>68.4</ele><time>2026-04-12T05:17:09.998Z</time></trkpt><trkpt lat="42.13487778092217" lon="14.437228477135394"><ele>69.0</ele><time>2026-04-12T05:17:11.998Z</time></trkpt><trkpt lat="42.134843564432394" lon="14.43711607974567"><ele>69.8</ele><time>2026-04-12T05:17:13.998Z</time></trkpt><trkpt lat="42.13480771657774" lon="14.437001789307535"><ele>70.60000000000001</ele><time>2026-04-12T05:17:15.998Z</time></trkpt><trkpt lat="42.13476880071447" lon="14.436886511594617"><ele>71.4</ele><time>2026-04-12T05:17:17.998Z</time></trkpt><trkpt lat="42.13472673276772" lon="14.436774084443082"><ele>72.2</ele><time>2026-04-12T05:17:19.998Z</time></trkpt><trkpt lat="42.13468415146193" lon="14.43666145512736"><ele>73.0</ele><time>2026-04-12T05:17:21.998Z</time></trkpt><trkpt lat="42.134640623731464" lon="14.436550202600845"><ele>73.0</ele><time>2026-04-12T05:17:23.998Z</time></trkpt><trkpt lat="42.134593140310294" lon="14.436439039844464"><ele>73.0</ele><time>2026-04-12T05:17:25.998Z</time></trkpt><trkpt lat="42.134545421746964" lon="14.436323768601236"><ele>73.0</ele><time>2026-04-12T05:17:27.998Z</time></trkpt><trkpt lat="42.134500835403465" lon="14.436210070750821"><ele>73.0</ele><time>2026-04-12T05:17:29.998Z</time></trkpt><trkpt lat="42.13445598603087" lon="14.436096533939788"><ele>73.0</ele><time>2026-04-12T05:17:31.998Z</time></trkpt><trkpt lat="42.13440980502456" lon="14.435987269409214"><ele>72.0</ele><time>2026-04-12T05:17:33.998Z</time></trkpt><trkpt lat="42.134363667635306" lon="14.435878855821386"><ele>71.0</ele><time>2026-04-12T05:17:36Z</time></trkpt><trkpt lat="42.134316861433724" lon="14.435774319847447"><ele>70.0</ele><time>2026-04-12T05:17:38Z</time></trkpt><trkpt lat="42.13427049516591" lon="14.435670219817665"><ele>69.0</ele><time>2026-04-12T05:17:40Z</time></trkpt><trkpt lat="42.1342228701622" lon="14.435568994532296"><ele>68.0</ele><time>2026-04-12T05:17:42Z</time></trkpt><trkpt lat="42.13417581006092" lon="14.43546748110948"><ele>68.0</ele><time>2026-04-12T05:17:44Z</time></trkpt><trkpt lat="42.134127929206635" lon="14.43537478790685"><ele>68.0</ele><time>2026-04-12T05:17:46Z</time></trkpt><trkpt lat="42.13408927176375" lon="14.435280508012674"><ele>68.0</ele><time>2026-04-12T05:17:48Z</time></trkpt><trkpt lat="42.134048490257804" lon="14.435185272201467"><ele>68.0</ele><time>2026-04-12T05:17:50Z</time></trkpt><trkpt lat="42.133999005991654" lon="14.435091311322527"><ele>68.0</ele><time>2026-04-12T05:17:52Z</time></trkpt><trkpt lat="42.1339515801765" lon="14.434991254358861"><ele>68.0</ele><time>2026-04-12T05:17:54Z</time></trkpt><trkpt lat="42.133896414505145" lon="14.434895559675764"><ele>68.0</ele><time>2026-04-12T05:17:55.999Z</time></trkpt><trkpt lat="42.133843692812" lon="14.434794278655112"><ele>68.0</ele><time>2026-04-12T05:17:57.999Z</time></trkpt><trkpt lat="42.13379191813298" lon="14.434695266075904"><ele>68.0</ele><time>2026-04-12T05:17:59.999Z</time></trkpt><trkpt lat="42.13374419768338" lon="14.434594635794396"><ele>68.0</ele><time>2026-04-12T05:18:01.999Z</time></trkpt><trkpt lat="42.13369356841847" lon="14.434494766448069"><ele>68.0</ele><time>2026-04-12T05:18:03.999Z</time></trkpt><trkpt lat="42.13363992206527" lon="14.434394117959341"><ele>68.0</ele><time>2026-04-12T05:18:05.999Z</time></trkpt><trkpt lat="42.133590627789616" lon="14.434289878804286"><ele>68.0</ele><time>2026-04-12T05:18:07.999Z</time></trkpt><trkpt lat="42.13354658872184" lon="14.434185778481185"><ele>68.0</ele><time>2026-04-12T05:18:09.999Z</time></trkpt><trkpt lat="42.133496265335985" lon="14.434087108111283"><ele>68.0</ele><time>2026-04-12T05:18:11.999Z</time></trkpt><trkpt lat="42.13344489520241" lon="14.433988345385009"><ele>68.0</ele><time>2026-04-12T05:18:13.999Z</time></trkpt><trkpt lat="42.13339484171977" lon="14.433890968803864"><ele>68.0</ele><time>2026-04-12T05:18:15.999Z</time></trkpt><trkpt lat="42.133348574084614" lon="14.433794282454663"><ele>68.0</ele><time>2026-04-12T05:18:17.999Z</time></trkpt><trkpt lat="42.13330220041839" lon="14.433695264603255"><ele>68.0</ele><time>2026-04-12T05:18:19.999Z</time></trkpt><trkpt lat="42.133258396744694" lon="14.433590143581592"><ele>68.0</ele><time>2026-04-12T05:18:21.999Z</time></trkpt><trkpt lat="42.13322338181954" lon="14.433476651753432"><ele>68.0</ele><time>2026-04-12T05:18:23.999Z</time></trkpt><trkpt lat="42.13319503039007" lon="14.433363480184815"><ele>68.0</ele><time>2026-04-12T05:18:25.999Z</time></trkpt><trkpt lat="42.133176989262225" lon="14.433245335854192"><ele>68.0</ele><time>2026-04-12T05:18:27.999Z</time></trkpt><trkpt lat="42.13315907513283" lon="14.43312936129451"><ele>68.33333333333334</ele><time>2026-04-12T05:18:29.999Z</time></trkpt><trkpt lat="42.13314420856415" lon="14.433012589011168"><ele>68.66666666666667</ele><time>2026-04-12T05:18:31.999Z</time></trkpt><trkpt lat="42.1331293977158" lon="14.43289880240238"><ele>69.0</ele><time>2026-04-12T05:18:33.999Z</time></trkpt><trkpt lat="42.133113849720196" lon="14.432786534343187"><ele>69.33333333333333</ele><time>2026-04-12T05:18:35.999Z</time></trkpt><trkpt lat="42.13310205459459" lon="14.432670385646622"><ele>69.66666666666666</ele><time>2026-04-12T05:18:37.999Z</time></trkpt><trkpt lat="42.133095153620076" lon="14.43255976900847"><ele>70.0</ele><time>2026-04-12T05:18:39.999Z</time></trkpt><trkpt lat="42.133103233093316" lon="14.432446406599857"><ele>70.0</ele><time>2026-04-12T05:18:41.999Z</time></trkpt><trkpt lat="42.1331205386329" lon="14.432329881792091"><ele>70.0</ele><time>2026-04-12T05:18:43.999Z</time></trkpt><trkpt lat="42.13314531744757" lon="14.432217809490844"><ele>70.0</ele><time>2026-04-12T05:18:45.999Z</time></trkpt><trkpt lat="42.13318723658882" lon="14.432116680249068"><ele>70.0</ele><time>2026-04-12T05:18:47.999Z</time></trkpt><trkpt lat="42.13324496198324" lon="14.432027728416472"><ele>70.0</ele><time>2026-04-12T05:18:49.999Z</time></trkpt><trkpt lat="42.13331213466027" lon="14.431952467310282"><ele>70.0</ele><time>2026-04-12T05:18:51.998Z</time></trkpt><trkpt lat="42.13337754228654" lon="14.43186956665137"><ele>69.66666666666666</ele><time>2026-04-12T05:18:53.998Z</time></trkpt><trkpt lat="42.133417296895445" lon="14.431759676646882"><ele>69.33333333333333</ele><time>2026-04-12T05:18:55.998Z</time></trkpt><trkpt lat="42.13341557897991" lon="14.431640752229628"><ele>69.0</ele><time>2026-04-12T05:18:57.998Z</time></trkpt><trkpt lat="42.13335549666446" lon="14.431553539610317"><ele>68.66666666666667</ele><time>2026-04-12T05:18:59.998Z</time></trkpt><trkpt lat="42.133273017820265" lon="14.431528014373363"><ele>68.33333333333334</ele><time>2026-04-12T05:19:01.998Z</time></trkpt><trkpt lat="42.133197108850865" lon="14.431567252371286"><ele>68.0</ele><time>2026-04-12T05:19:03.998Z</time></trkpt><trkpt lat="42.133130233539156" lon="14.431620449455727"><ele>68.0</ele><time>2026-04-12T05:19:05.998Z</time></trkpt><trkpt lat="42.13305350397894" lon="14.43166396832402"><ele>68.0</ele><time>2026-04-12T05:19:07.998Z</time></trkpt><trkpt lat="42.13297212739607" lon="14.431687606541246"><ele>68.0</ele><time>2026-04-12T05:19:09.998Z</time></trkpt><trkpt lat="42.132888460713495" lon="14.4317027011945"><ele>68.0</ele><time>2026-04-12T05:19:11.998Z</time></trkpt><trkpt lat="42.13280273507357" lon="14.431712492487577"><ele>68.0</ele><time>2026-04-12T05:19:13.998Z</time></trkpt><trkpt lat="42.13271595402939" lon="14.431720901345019"><ele>68.0</ele><time>2026-04-12T05:19:15.998Z</time></trkpt><trkpt lat="42.13262692769931" lon="14.431726670811301"><ele>68.0</ele><time>2026-04-12T05:19:17.998Z</time></trkpt><trkpt lat="42.13253231253195" lon="14.431734954911883"><ele>68.0</ele><time>2026-04-12T05:19:19.998Z</time></trkpt><trkpt lat="42.132438176148014" lon="14.431744876856582"><ele>68.0</ele><time>2026-04-12T05:19:21.998Z</time></trkpt><trkpt lat="42.13234129592559" lon="14.431755254956315"><ele>68.0</ele><time>2026-04-12T05:19:23.998Z</time></trkpt><trkpt lat="42.13224293412943" lon="14.431764507596275"><ele>68.0</ele><time>2026-04-12T05:19:25.998Z</time></trkpt><trkpt lat="42.13214613863741" lon="14.431772690356253"><ele>69.2</ele><time>2026-04-12T05:19:27.998Z</time></trkpt><trkpt lat="42.132052609851186" lon="14.431778208029963"><ele>70.4</ele><time>2026-04-12T05:19:29.998Z</time></trkpt><trkpt lat="42.1319579667739" lon="14.431788915838995"><ele>71.60000000000001</ele><time>2026-04-12T05:19:31.998Z</time></trkpt><trkpt lat="42.131863733325225" lon="14.431799725847597"><ele>72.8</ele><time>2026-04-12T05:19:33.998Z</time></trkpt><trkpt lat="42.13177171599727" lon="14.431804932885118"><ele>74.0</ele><time>2026-04-12T05:19:35.998Z</time></trkpt><trkpt lat="42.13167946395384" lon="14.431809477037413"><ele>74.0</ele><time>2026-04-12T05:19:37.998Z</time></trkpt><trkpt lat="42.131587785481145" lon="14.43181706925262"><ele>74.0</ele><time>2026-04-12T05:19:39.998Z</time></trkpt><trkpt lat="42.131493556448014" lon="14.431826148274542"><ele>74.0</ele><time>2026-04-12T05:19:42Z</time></trkpt><trkpt lat="42.13139673998418" lon="14.431833874446289"><ele>74.0</ele><time>2026-04-12T05:19:44Z</time></trkpt><trkpt lat="42.13129359160711" lon="14.431840955322254"><ele>74.0</ele><time>2026-04-12T05:19:46Z</time></trkpt><trkpt lat="42.131191493621955" lon="14.431850292890152"><ele>73.60000000000001</ele><time>2026-04-12T05:19:48Z</time></trkpt><trkpt lat="42.13108959796112" lon="14.43185833727856"><ele>73.2</ele><time>2026-04-12T05:19:50Z</time></trkpt><trkpt lat="42.13098986985998" lon="14.431868307120766"><ele>72.80000000000001</ele><time>2026-04-12T05:19:52Z</time></trkpt><trkpt lat="42.13088680029092" lon="14.431876939709063"><ele>72.4</ele><time>2026-04-12T05:19:54Z</time></trkpt><trkpt lat="42.13078594901069" lon="14.431881484218815"><ele>72.0</ele><time>2026-04-12T05:19:56Z</time></trkpt><trkpt lat="42.13068514245626" lon="14.43189085058928"><ele>72.8</ele><time>2026-04-12T05:19:57.999Z</time></trkpt><trkpt lat="42.13058682749286" lon="14.431899006360815"><ele>73.6</ele><time>2026-04-12T05:19:59.999Z</time></trkpt><trkpt lat="42.13049059780357" lon="14.4319077044905"><ele>74.39999999999999</ele><time>2026-04-12T05:20:01.999Z</time></trkpt><trkpt lat="42.130393066238845" lon="14.431915207235775"><ele>75.2</ele><time>2026-04-12T05:20:03.999Z</time></trkpt><trkpt lat="42.130297868277005" lon="14.431923418839933"><ele>76.0</ele><time>2026-04-12T05:20:05.999Z</time></trkpt><trkpt lat="42.13020510226882" lon="14.431928778865629"><ele>76.0</ele><time>2026-04-12T05:20:07.999Z</time></trkpt><trkpt lat="42.130113391805104" lon="14.431937854068448"><ele>76.0</ele><time>2026-04-12T05:20:09.999Z</time></trkpt><trkpt lat="42.13002154213521" lon="14.431948300811193"><ele>76.0</ele><time>2026-04-12T05:20:11.999Z</time></trkpt><trkpt lat="42.12993174570393" lon="14.431953119835487"><ele>76.0</ele><time>2026-04-12T05:20:13.999Z</time></trkpt><trkpt lat="42.12984478835965" lon="14.431960237700368"><ele>76.0</ele><time>2026-04-12T05:20:15.999Z</time></trkpt><trkpt lat="42.12975855527682" lon="14.43196441845456"><ele>76.0</ele><time>2026-04-12T05:20:17.999Z</time></trkpt><trkpt lat="42.129675379417385" lon="14.43197146412983"><ele>76.83333333333333</ele><time>2026-04-12T05:20:19.999Z</time></trkpt><trkpt lat="42.12959141842197" lon="14.431981277433025"><ele>77.66666666666666</ele><time>2026-04-12T05:20:21.999Z</time></trkpt><trkpt lat="42.129507256379156" lon="14.431988484493635"><ele>78.5</ele><time>2026-04-12T05:20:23.999Z</time></trkpt><trkpt lat="42.12942360029904" lon="14.431992119555158"><ele>79.33333333333333</ele><time>2026-04-12T05:20:25.999Z</time></trkpt><trkpt lat="42.129342410157165" lon="14.431999826061908"><ele>80.16666666666667</ele><time>2026-04-12T05:20:27.999Z</time></trkpt><trkpt lat="42.129259088961724" lon="14.432008087835603"><ele>81.0</ele><time>2026-04-12T05:20:29.999Z</time></trkpt><trkpt lat="42.12917414880607" lon="14.432013690856104"><ele>81.0</ele><time>2026-04-12T05:20:31.999Z</time></trkpt><trkpt lat="42.12909060502746" lon="14.432022144274555"><ele>81.0</ele><time>2026-04-12T05:20:33.999Z</time></trkpt><trkpt lat="42.129007170549855" lon="14.432026214431875"><ele>81.0</ele><time>2026-04-12T05:20:35.999Z</time></trkpt><trkpt lat="42.12892595635348" lon="14.432033438832109"><ele>81.0</ele><time>2026-04-12T05:20:37.999Z</time></trkpt><trkpt lat="42.12884757684844" lon="14.432040761974969"><ele>81.0</ele><time>2026-04-12T05:20:39.999Z</time></trkpt><trkpt lat="42.128769466177125" lon="14.432047321614018"><ele>81.0</ele><time>2026-04-12T05:20:41.999Z</time></trkpt><trkpt lat="42.128689403835985" lon="14.43205344887477"><ele>82.33333333333333</ele><time>2026-04-12T05:20:43.999Z</time></trkpt><trkpt lat="42.12860798381916" lon="14.432061864844046"><ele>83.66666666666667</ele><time>2026-04-12T05:20:45.999Z</time></trkpt><trkpt lat="42.12852532465274" lon="14.432071840297198"><ele>85.0</ele><time>2026-04-12T05:20:47.999Z</time></trkpt><trkpt lat="42.128443198250984" lon="14.432076039169115"><ele>86.33333333333334</ele><time>2026-04-12T05:20:49.999Z</time></trkpt><trkpt lat="42.12836176840892" lon="14.43208577417757"><ele>87.66666666666667</ele><time>2026-04-12T05:20:51.999Z</time></trkpt><trkpt lat="42.12828066903024" lon="14.432088947147363"><ele>89.0</ele><time>2026-04-12T05:20:53.998Z</time></trkpt><trkpt lat="42.1281983451882" lon="14.432099353554596"><ele>89.16666666666667</ele><time>2026-04-12T05:20:55.998Z</time></trkpt><trkpt lat="42.128115072200615" lon="14.432111632729766"><ele>89.33333333333334</ele><time>2026-04-12T05:20:57.998Z</time></trkpt><trkpt lat="42.12803317696901" lon="14.432114050116029"><ele>89.5</ele><time>2026-04-12T05:20:59.998Z</time></trkpt><trkpt lat="42.12795314916708" lon="14.432125633420352"><ele>89.66666666666667</ele><time>2026-04-12T05:21:01.998Z</time></trkpt><trkpt lat="42.12787262005808" lon="14.43213088024607"><ele>89.83333333333333</ele><time>2026-04-12T05:21:03.998Z</time></trkpt><trkpt lat="42.12778989709155" lon="14.432128389942488"><ele>90.0</ele><time>2026-04-12T05:21:05.998Z</time></trkpt><trkpt lat="42.12770930801835" lon="14.432135109113954"><ele>90.0</ele><time>2026-04-12T05:21:07.998Z</time></trkpt><trkpt lat="42.127629027228885" lon="14.432139336938583"><ele>90.0</ele><time>2026-04-12T05:21:09.998Z</time></trkpt><trkpt lat="42.1275476455855" lon="14.43214917799024"><ele>90.0</ele><time>2026-04-12T05:21:11.998Z</time></trkpt><trkpt lat="42.12746609403826" lon="14.432157756764445"><ele>90.0</ele><time>2026-04-12T05:21:13.998Z</time></trkpt><trkpt lat="42.127385731054574" lon="14.432163984354911"><ele>90.0</ele><time>2026-04-12T05:21:15.998Z</time></trkpt><trkpt lat="42.12730581849674" lon="14.432175635752332"><ele>90.0</ele><time>2026-04-12T05:21:17.998Z</time></trkpt><trkpt lat="42.12722493968763" lon="14.432176025388237"><ele>89.85714285714285</ele><time>2026-04-12T05:21:19.998Z</time></trkpt><trkpt lat="42.12715227405724" lon="14.432183612444549"><ele>89.71428571428572</ele><time>2026-04-12T05:21:21.998Z</time></trkpt><trkpt lat="42.127087581910665" lon="14.432185716411205"><ele>89.57142857142857</ele><time>2026-04-12T05:21:23.998Z</time></trkpt><trkpt lat="42.127017844386955" lon="14.432183845270005"><ele>89.42857142857142</ele><time>2026-04-12T05:21:25.998Z</time></trkpt><trkpt lat="42.126945186423036" lon="14.432173645746195"><ele>89.28571428571428</ele><time>2026-04-12T05:21:27.998Z</time></trkpt><trkpt lat="42.12687451338657" lon="14.43214708961804"><ele>89.14285714285714</ele><time>2026-04-12T05:21:29.998Z</time></trkpt><trkpt lat="42.12680563343852" lon="14.432125812215649"><ele>89.0</ele><time>2026-04-12T05:21:31.998Z</time></trkpt><trkpt lat="42.126740083893345" lon="14.432137648743032"><ele>89.0</ele><time>2026-04-12T05:21:33.998Z</time></trkpt><trkpt lat="42.12665079417456" lon="14.432183322820034"><ele>89.0</ele><time>2026-04-12T05:21:36.998Z</time></trkpt><trkpt lat="42.12658644782908" lon="14.432216696296884"><ele>89.0</ele><time>2026-04-12T05:21:38.998Z</time></trkpt><trkpt lat="42.126516787822034" lon="14.432228564543818"><ele>89.0</ele><time>2026-04-12T05:21:40.998Z</time></trkpt><trkpt lat="42.126449665332984" lon="14.432236965461364"><ele>89.0</ele><time>2026-04-12T05:21:42.998Z</time></trkpt><trkpt lat="42.12638611834784" lon="14.432244183872148"><ele>89.0</ele><time>2026-04-12T05:21:44.998Z</time></trkpt><trkpt lat="42.12629128526933" lon="14.432250961332636"><ele>90.0</ele><time>2026-04-12T05:21:47.999Z</time></trkpt><trkpt lat="42.126198179211606" lon="14.432262243754998"><ele>91.0</ele><time>2026-04-12T05:21:50.999Z</time></trkpt><trkpt lat="42.126134710353426" lon="14.43226463522065"><ele>92.0</ele><time>2026-04-12T05:21:52.999Z</time></trkpt><trkpt lat="42.12606970906163" lon="14.432269435335327"><ele>93.0</ele><time>2026-04-12T05:21:55Z</time></trkpt><trkpt lat="42.125975999468146" lon="14.432271654408884"><ele>94.0</ele><time>2026-04-12T05:21:58Z</time></trkpt><trkpt lat="42.12588718311676" lon="14.432280001310508"><ele>95.0</ele><time>2026-04-12T05:22:01Z</time></trkpt><trkpt lat="42.125800021591544" lon="14.432289631099808"><ele>96.0</ele><time>2026-04-12T05:22:04Z</time></trkpt><trkpt lat="42.12571196616184" lon="14.432297894481884"><ele>97.0</ele><time>2026-04-12T05:22:07Z</time></trkpt><trkpt lat="42.12562495504039" lon="14.432301601125355"><ele>98.0</ele><time>2026-04-12T05:22:10Z</time></trkpt><trkpt lat="42.12553904290647" lon="14.432308307579854"><ele>99.0</ele><time>2026-04-12T05:22:13Z</time></trkpt><trkpt lat="42.12545417430831" lon="14.432319458301723"><ele>99.99999999999999</ele><time>2026-04-12T05:22:16Z</time></trkpt><trkpt lat="42.125370047050446" lon="14.432325404878416"><ele>101.0</ele><time>2026-04-12T05:22:19Z</time></trkpt><trkpt lat="42.125291240360056" lon="14.432324866432543"><ele>100.99999999999999</ele><time>2026-04-12T05:22:22Z</time></trkpt><trkpt lat="42.12521126837204" lon="14.432325932387728"><ele>101.0</ele><time>2026-04-12T05:22:25Z</time></trkpt><trkpt lat="42.12512782065926" lon="14.432316305989696"><ele>101.0</ele><time>2026-04-12T05:22:28Z</time></trkpt><trkpt lat="42.125049255457746" lon="14.432304329132752"><ele>101.0</ele><time>2026-04-12T05:22:31Z</time></trkpt><trkpt lat="42.124965166467746" lon="14.432286989373894"><ele>100.99999999999999</ele><time>2026-04-12T05:22:34Z</time></trkpt><trkpt lat="42.124884235304" lon="14.43226954052104"><ele>101.0</ele><time>2026-04-12T05:22:37Z</time></trkpt><trkpt lat="42.12480386040328" lon="14.432248802155135"><ele>101.33333333333333</ele><time>2026-04-12T05:22:40Z</time></trkpt><trkpt lat="42.124722467582146" lon="14.432233428697792"><ele>101.66666666666666</ele><time>2026-04-12T05:22:43Z</time></trkpt><trkpt lat="42.12463950978542" lon="14.432213725142876"><ele>102.0</ele><time>2026-04-12T05:22:46Z</time></trkpt><trkpt lat="42.12457844501863" lon="14.432181666570768"><ele>102.33333333333334</ele><time>2026-04-12T05:22:48Z</time></trkpt><trkpt lat="42.12451438457225" lon="14.432174252959083"><ele>102.66666666666667</ele><time>2026-04-12T05:22:50Z</time></trkpt><trkpt lat="42.12442958143423" lon="14.432160467083504"><ele>103.0</ele><time>2026-04-12T05:22:53Z</time></trkpt><trkpt lat="42.124341076223914" lon="14.432141965856935"><ele>102.66666666666667</ele><time>2026-04-12T05:22:55.999Z</time></trkpt><trkpt lat="42.12427098136891" lon="14.432129385628567"><ele>102.33333333333334</ele><time>2026-04-12T05:22:57.999Z</time></trkpt><trkpt lat="42.124194605768174" lon="14.43212064411944"><ele>102.0</ele><time>2026-04-12T05:22:59.999Z</time></trkpt><trkpt lat="42.12412232444252" lon="14.432104896813165"><ele>101.66666666666666</ele><time>2026-04-12T05:23:01.999Z</time></trkpt><trkpt lat="42.124042462143635" lon="14.432086531085366"><ele>101.33333333333333</ele><time>2026-04-12T05:23:03.999Z</time></trkpt><trkpt lat="42.12396252945069" lon="14.432067002923173"><ele>101.0</ele><time>2026-04-12T05:23:05.999Z</time></trkpt><trkpt lat="42.123877793874925" lon="14.432048522834227"><ele>100.6</ele><time>2026-04-12T05:23:07.999Z</time></trkpt><trkpt lat="42.12378364183216" lon="14.432028400335351"><ele>100.19999999999999</ele><time>2026-04-12T05:23:09.999Z</time></trkpt><trkpt lat="42.12368223391882" lon="14.432005185458438"><ele>99.80000000000001</ele><time>2026-04-12T05:23:11.999Z</time></trkpt><trkpt lat="42.123585839563894" lon="14.431977108513145"><ele>99.4</ele><time>2026-04-12T05:23:13.999Z</time></trkpt><trkpt lat="42.12348968337005" lon="14.43195267750809"><ele>99.0</ele><time>2026-04-12T05:23:15.999Z</time></trkpt><trkpt lat="42.12340095954728" lon="14.431931699168455"><ele>99.0</ele><time>2026-04-12T05:23:17.999Z</time></trkpt><trkpt lat="42.12331716039236" lon="14.431905881190339"><ele>99.0</ele><time>2026-04-12T05:23:19.999Z</time></trkpt><trkpt lat="42.12322807988185" lon="14.431880050941016"><ele>99.0</ele><time>2026-04-12T05:23:21.999Z</time></trkpt><trkpt lat="42.123145784658384" lon="14.431852570866518"><ele>99.0</ele><time>2026-04-12T05:23:23.999Z</time></trkpt><trkpt lat="42.123058594117374" lon="14.431832502817647"><ele>99.0</ele><time>2026-04-12T05:23:25.999Z</time></trkpt><trkpt lat="42.122976056836166" lon="14.431811999607476"><ele>99.0</ele><time>2026-04-12T05:23:27.999Z</time></trkpt><trkpt lat="42.12288889412494" lon="14.431800323411496"><ele>98.83333333333333</ele><time>2026-04-12T05:23:29.999Z</time></trkpt><trkpt lat="42.12280069248377" lon="14.431805913647855"><ele>98.66666666666666</ele><time>2026-04-12T05:23:31.999Z</time></trkpt><trkpt lat="42.12271565358337" lon="14.431818152680622"><ele>98.5</ele><time>2026-04-12T05:23:33.999Z</time></trkpt><trkpt lat="42.12262940618378" lon="14.431835675234256"><ele>98.33333333333333</ele><time>2026-04-12T05:23:35.999Z</time></trkpt><trkpt lat="42.122548667403834" lon="14.431862176238809"><ele>98.16666666666666</ele><time>2026-04-12T05:23:37.999Z</time></trkpt><trkpt lat="42.122467940490395" lon="14.431886428599366"><ele>98.0</ele><time>2026-04-12T05:23:39.999Z</time></trkpt><trkpt lat="42.12238841574815" lon="14.431904396598487"><ele>97.83333333333333</ele><time>2026-04-12T05:23:41.999Z</time></trkpt><trkpt lat="42.122305780240964" lon="14.43191574220875"><ele>97.66666666666666</ele><time>2026-04-12T05:23:43.999Z</time></trkpt><trkpt lat="42.1222246638597" lon="14.43191294442142"><ele>97.5</ele><time>2026-04-12T05:23:45.999Z</time></trkpt><trkpt lat="42.12214615311913" lon="14.43190039314513"><ele>97.33333333333334</ele><time>2026-04-12T05:23:47.999Z</time></trkpt><trkpt lat="42.12207045911038" lon="14.431886212543427"><ele>97.16666666666667</ele><time>2026-04-12T05:23:49.998Z</time></trkpt><trkpt lat="42.12199383007974" lon="14.431866901034926"><ele>97.0</ele><time>2026-04-12T05:23:51.998Z</time></trkpt><trkpt lat="42.1219161491246" lon="14.43184469117206"><ele>97.00000000000001</ele><time>2026-04-12T05:23:54Z</time></trkpt><trkpt lat="42.12183610456272" lon="14.431823241320608"><ele>97.0</ele><time>2026-04-12T05:23:56Z</time></trkpt><trkpt lat="42.12175699779992" lon="14.431802054094979"><ele>97.0</ele><time>2026-04-12T05:23:58Z</time></trkpt><trkpt lat="42.12168026503063" lon="14.431780944562718"><ele>97.0</ele><time>2026-04-12T05:24:00Z</time></trkpt><trkpt lat="42.121602180408246" lon="14.431757464388085"><ele>97.00000000000001</ele><time>2026-04-12T05:24:02Z</time></trkpt><trkpt lat="42.12152063024581" lon="14.431739105876892"><ele>97.0</ele><time>2026-04-12T05:24:04Z</time></trkpt><trkpt lat="42.12144271900696" lon="14.431717058742874"><ele>97.16666666666667</ele><time>2026-04-12T05:24:06Z</time></trkpt><trkpt lat="42.121363635311205" lon="14.431693872818688"><ele>97.33333333333334</ele><time>2026-04-12T05:24:08Z</time></trkpt><trkpt lat="42.12128507879124" lon="14.431673643858757"><ele>97.5</ele><time>2026-04-12T05:24:10Z</time></trkpt><trkpt lat="42.12120711729466" lon="14.431649473458002"><ele>97.66666666666666</ele><time>2026-04-12T05:24:12Z</time></trkpt><trkpt lat="42.12112978801241" lon="14.431628281520728"><ele>97.83333333333333</ele><time>2026-04-12T05:24:14Z</time></trkpt><trkpt lat="42.12105510740898" lon="14.431604725390626"><ele>98.0</ele><time>2026-04-12T05:24:16Z</time></trkpt><trkpt lat="42.12097949104843" lon="14.43159171154416"><ele>97.99999999999999</ele><time>2026-04-12T05:24:18Z</time></trkpt><trkpt lat="42.12090243647816" lon="14.431579848535678"><ele>98.0</ele><time>2026-04-12T05:24:20Z</time></trkpt><trkpt lat="42.12082438299147" lon="14.43157624973694"><ele>98.0</ele><time>2026-04-12T05:24:22Z</time></trkpt><trkpt lat="42.120746527556655" lon="14.43157607476381"><ele>98.0</ele><time>2026-04-12T05:24:24Z</time></trkpt><trkpt lat="42.12066919288362" lon="14.431583336161065"><ele>97.99999999999999</ele><time>2026-04-12T05:24:26Z</time></trkpt><trkpt lat="42.1205929490551" lon="14.431584232449046"><ele>98.0</ele><time>2026-04-12T05:24:28Z</time></trkpt><trkpt lat="42.12051550003289" lon="14.431592642377678"><ele>98.49999999999999</ele><time>2026-04-12T05:24:30Z</time></trkpt><trkpt lat="42.12043837635555" lon="14.431596385723054"><ele>99.0</ele><time>2026-04-12T05:24:32Z</time></trkpt><trkpt lat="42.12036138402138" lon="14.431602309438261"><ele>99.5</ele><time>2026-04-12T05:24:34Z</time></trkpt><trkpt lat="42.12028412588375" lon="14.431605103660736"><ele>100.0</ele><time>2026-04-12T05:24:36Z</time></trkpt><trkpt lat="42.12020671992798" lon="14.431614246861526"><ele>100.49999999999999</ele><time>2026-04-12T05:24:38Z</time></trkpt><trkpt lat="42.12012628542369" lon="14.431616102864048"><ele>101.0</ele><time>2026-04-12T05:24:40Z</time></trkpt><trkpt lat="42.12004548997489" lon="14.43161883448913"><ele>100.99999999999999</ele><time>2026-04-12T05:24:42Z</time></trkpt><trkpt lat="42.11996652735377" lon="14.4316219101205"><ele>101.0</ele><time>2026-04-12T05:24:44Z</time></trkpt><trkpt lat="42.11988678306328" lon="14.43163121890629"><ele>101.0</ele><time>2026-04-12T05:24:46Z</time></trkpt><trkpt lat="42.119807333111254" lon="14.431641154954939"><ele>101.0</ele><time>2026-04-12T05:24:48Z</time></trkpt><trkpt lat="42.11972773967399" lon="14.431652039321161"><ele>100.99999999999999</ele><time>2026-04-12T05:24:50Z</time></trkpt><trkpt lat="42.11964690425344" lon="14.431663933700602"><ele>101.0</ele><time>2026-04-12T05:24:52Z</time></trkpt><trkpt lat="42.1195676812932" lon="14.431679291479062"><ele>101.33333333333333</ele><time>2026-04-12T05:24:54Z</time></trkpt><trkpt lat="42.11948749850629" lon="14.431700169617487"><ele>101.66666666666666</ele><time>2026-04-12T05:24:55.999Z</time></trkpt><trkpt lat="42.119410880595495" lon="14.431722352607483"><ele>102.0</ele><time>2026-04-12T05:24:57.999Z</time></trkpt><trkpt lat="42.11933649515703" lon="14.431751930201425"><ele>102.33333333333334</ele><time>2026-04-12T05:24:59.999Z</time></trkpt><trkpt lat="42.119262632357746" lon="14.431777553742302"><ele>102.66666666666667</ele><time>2026-04-12T05:25:01.999Z</time></trkpt><trkpt lat="42.11918804105677" lon="14.431806244396935"><ele>103.0</ele><time>2026-04-12T05:25:03.999Z</time></trkpt><trkpt lat="42.11911344469567" lon="14.431832758688834"><ele>103.33333333333334</ele><time>2026-04-12T05:25:05.999Z</time></trkpt><trkpt lat="42.11903919265149" lon="14.43185971705257"><ele>103.66666666666667</ele><time>2026-04-12T05:25:07.999Z</time></trkpt><trkpt lat="42.11896252303446" lon="14.431889699867261"><ele>104.0</ele><time>2026-04-12T05:25:09.999Z</time></trkpt><trkpt lat="42.11888348094613" lon="14.43191297989301"><ele>104.33333333333334</ele><time>2026-04-12T05:25:11.999Z</time></trkpt><trkpt lat="42.1188051156487" lon="14.431943942692609"><ele>104.66666666666667</ele><time>2026-04-12T05:25:13.999Z</time></trkpt><trkpt lat="42.11872556370765" lon="14.431972320887512"><ele>105.0</ele><time>2026-04-12T05:25:15.999Z</time></trkpt><trkpt lat="42.118646351949366" lon="14.432002545441591"><ele>105.0</ele><time>2026-04-12T05:25:17.999Z</time></trkpt><trkpt lat="42.11856723987406" lon="14.432029806348162"><ele>105.0</ele><time>2026-04-12T05:25:19.999Z</time></trkpt><trkpt lat="42.11848835836966" lon="14.432054582815928"><ele>105.0</ele><time>2026-04-12T05:25:21.999Z</time></trkpt><trkpt lat="42.11841253897693" lon="14.432087270261782"><ele>105.0</ele><time>2026-04-12T05:25:23.999Z</time></trkpt><trkpt lat="42.11833599488541" lon="14.432115637839349"><ele>105.0</ele><time>2026-04-12T05:25:25.999Z</time></trkpt><trkpt lat="42.118258943606534" lon="14.432149912720238"><ele>105.0</ele><time>2026-04-12T05:25:27.999Z</time></trkpt><trkpt lat="42.118181007911986" lon="14.432182740689102"><ele>105.16666666666667</ele><time>2026-04-12T05:25:29.999Z</time></trkpt><trkpt lat="42.11810550300482" lon="14.432220161514195"><ele>105.33333333333334</ele><time>2026-04-12T05:25:31.999Z</time></trkpt><trkpt lat="42.11803001242719" lon="14.4322592526829"><ele>105.5</ele><time>2026-04-12T05:25:33.999Z</time></trkpt><trkpt lat="42.117953643515435" lon="14.432301893215591"><ele>105.66666666666667</ele><time>2026-04-12T05:25:35.999Z</time></trkpt><trkpt lat="42.11787767573185" lon="14.432341477772948"><ele>105.83333333333334</ele><time>2026-04-12T05:25:37.999Z</time></trkpt><trkpt lat="42.117801514515776" lon="14.432382693762682"><ele>106.0</ele><time>2026-04-12T05:25:39.999Z</time></trkpt><trkpt lat="42.11772467258048" lon="14.432424599159832"><ele>106.00000000000001</ele><time>2026-04-12T05:25:41.999Z</time></trkpt><trkpt lat="42.11764938141327" lon="14.43246731877732"><ele>106.0</ele><time>2026-04-12T05:25:43.999Z</time></trkpt><trkpt lat="42.117573930084916" lon="14.432510748557272"><ele>106.0</ele><time>2026-04-12T05:25:45.999Z</time></trkpt><trkpt lat="42.11749661178494" lon="14.43255336697313"><ele>106.0</ele><time>2026-04-12T05:25:47.999Z</time></trkpt><trkpt lat="42.11741821392656" lon="14.432594900758854"><ele>106.00000000000001</ele><time>2026-04-12T05:25:49.999Z</time></trkpt><trkpt lat="42.11734534054153" lon="14.432641625606031"><ele>106.0</ele><time>2026-04-12T05:25:51.998Z</time></trkpt><trkpt lat="42.11726928334258" lon="14.432683989335539"><ele>106.33333333333334</ele><time>2026-04-12T05:25:53.998Z</time></trkpt><trkpt lat="42.117194088297936" lon="14.432729212800886"><ele>106.66666666666667</ele><time>2026-04-12T05:25:55.998Z</time></trkpt><trkpt lat="42.11711753223268" lon="14.432771274473348"><ele>107.0</ele><time>2026-04-12T05:25:57.998Z</time></trkpt><trkpt lat="42.11703903246867" lon="14.432814415168219"><ele>107.33333333333334</ele><time>2026-04-12T05:26:00Z</time></trkpt><trkpt lat="42.116962611869944" lon="14.432856449220301"><ele>107.66666666666667</ele><time>2026-04-12T05:26:02Z</time></trkpt><trkpt lat="42.1168885051446" lon="14.432898334924296"><ele>108.0</ele><time>2026-04-12T05:26:04Z</time></trkpt><trkpt lat="42.11681447312631" lon="14.432939601843994"><ele>108.33333333333333</ele><time>2026-04-12T05:26:06Z</time></trkpt><trkpt lat="42.116739518330306" lon="14.432981826797128"><ele>108.66666666666666</ele><time>2026-04-12T05:26:08Z</time></trkpt><trkpt lat="42.11666143257567" lon="14.433021064957437"><ele>109.0</ele><time>2026-04-12T05:26:10Z</time></trkpt><trkpt lat="42.11658403089848" lon="14.433064006004312"><ele>109.33333333333333</ele><time>2026-04-12T05:26:12Z</time></trkpt><trkpt lat="42.116508045012935" lon="14.433107959324511"><ele>109.66666666666666</ele><time>2026-04-12T05:26:14Z</time></trkpt><trkpt lat="42.11643012875522" lon="14.433150495850052"><ele>110.0</ele><time>2026-04-12T05:26:16Z</time></trkpt><trkpt lat="42.116356575990245" lon="14.433194070972222"><ele>110.49999999999999</ele><time>2026-04-12T05:26:18Z</time></trkpt><trkpt lat="42.11627988917007" lon="14.433241308824236"><ele>111.0</ele><time>2026-04-12T05:26:20Z</time></trkpt><trkpt lat="42.116204343707984" lon="14.433283768154098"><ele>111.5</ele><time>2026-04-12T05:26:22Z</time></trkpt><trkpt lat="42.11613076845736" lon="14.433327238586074"><ele>112.0</ele><time>2026-04-12T05:26:24Z</time></trkpt><trkpt lat="42.1160585359791" lon="14.433368707572466"><ele>112.49999999999999</ele><time>2026-04-12T05:26:26Z</time></trkpt><trkpt lat="42.11598781346398" lon="14.433413139257832"><ele>113.0</ele><time>2026-04-12T05:26:28Z</time></trkpt><trkpt lat="42.11591237092788" lon="14.433455149400904"><ele>112.99999999999999</ele><time>2026-04-12T05:26:30Z</time></trkpt><trkpt lat="42.115838507156575" lon="14.433496845910119"><ele>113.0</ele><time>2026-04-12T05:26:32Z</time></trkpt><trkpt lat="42.115763878915615" lon="14.433535773069531"><ele>113.0</ele><time>2026-04-12T05:26:34Z</time></trkpt><trkpt lat="42.11568983279088" lon="14.433580843598948"><ele>113.0</ele><time>2026-04-12T05:26:36Z</time></trkpt><trkpt lat="42.11561645213399" lon="14.433624315505638"><ele>112.99999999999999</ele><time>2026-04-12T05:26:38Z</time></trkpt><trkpt lat="42.11554189872438" lon="14.433664348527111"><ele>113.0</ele><time>2026-04-12T05:26:40Z</time></trkpt><trkpt lat="42.11546366167862" lon="14.433708082382067"><ele>112.83333333333333</ele><time>2026-04-12T05:26:42Z</time></trkpt><trkpt lat="42.11538875107408" lon="14.433749601586118"><ele>112.66666666666666</ele><time>2026-04-12T05:26:44Z</time></trkpt><trkpt lat="42.11531568150339" lon="14.433790708718698"><ele>112.5</ele><time>2026-04-12T05:26:46Z</time></trkpt><trkpt lat="42.115244021652245" lon="14.433830590608421"><ele>112.33333333333334</ele><time>2026-04-12T05:26:48Z</time></trkpt><trkpt lat="42.11517159895186" lon="14.433866820678423"><ele>112.16666666666667</ele><time>2026-04-12T05:26:50Z</time></trkpt><trkpt lat="42.11509934379054" lon="14.433906198903934"><ele>112.0</ele><time>2026-04-12T05:26:52Z</time></trkpt><trkpt lat="42.11502916967946" lon="14.433950312085864"><ele>112.00000000000001</ele><time>2026-04-12T05:26:54Z</time></trkpt><trkpt lat="42.1149557482839" lon="14.433991126125338"><ele>112.0</ele><time>2026-04-12T05:26:56Z</time></trkpt><trkpt lat="42.114885839838315" lon="14.434033119548767"><ele>112.0</ele><time>2026-04-12T05:26:58Z</time></trkpt><trkpt lat="42.11481012091129" lon="14.434074898976531"><ele>112.0</ele><time>2026-04-12T05:26:59.999Z</time></trkpt><trkpt lat="42.11473649562036" lon="14.434119068189624"><ele>112.00000000000001</ele><time>2026-04-12T05:27:01.999Z</time></trkpt><trkpt lat="42.11466066566683" lon="14.434162624507168"><ele>112.0</ele><time>2026-04-12T05:27:03.999Z</time></trkpt><trkpt lat="42.11458853434629" lon="14.434205008204916"><ele>112.33333333333334</ele><time>2026-04-12T05:27:05.999Z</time></trkpt><trkpt lat="42.114513451353076" lon="14.434247728636006"><ele>112.66666666666667</ele><time>2026-04-12T05:27:07.999Z</time></trkpt><trkpt lat="42.11443594159416" lon="14.434291005964297"><ele>113.0</ele><time>2026-04-12T05:27:09.999Z</time></trkpt><trkpt lat="42.11435873911391" lon="14.43432777425879"><ele>113.33333333333334</ele><time>2026-04-12T05:27:11.999Z</time></trkpt><trkpt lat="42.11428023505698" lon="14.434360709139003"><ele>113.66666666666667</ele><time>2026-04-12T05:27:13.999Z</time></trkpt><trkpt lat="42.11420004965063" lon="14.43439540120776"><ele>114.0</ele><time>2026-04-12T05:27:15.999Z</time></trkpt><trkpt lat="42.11412193924826" lon="14.434423807136156"><ele>113.83333333333333</ele><time>2026-04-12T05:27:17.999Z</time></trkpt><trkpt lat="42.11404235185082" lon="14.434450776341608"><ele>113.66666666666666</ele><time>2026-04-12T05:27:19.999Z</time></trkpt><trkpt lat="42.11396263794435" lon="14.43447814911333"><ele>113.5</ele><time>2026-04-12T05:27:21.999Z</time></trkpt><trkpt lat="42.11388380728461" lon="14.434502185477397"><ele>113.33333333333333</ele><time>2026-04-12T05:27:23.999Z</time></trkpt><trkpt lat="42.11380431282155" lon="14.434527672914866"><ele>113.16666666666666</ele><time>2026-04-12T05:27:25.999Z</time></trkpt><trkpt lat="42.11372583771728" lon="14.434553583452375"><ele>113.0</ele><time>2026-04-12T05:27:27.999Z</time></trkpt><trkpt lat="42.1136484192747" lon="14.434579152805483"><ele>112.99999999999999</ele><time>2026-04-12T05:27:29.999Z</time></trkpt><trkpt lat="42.113572109281016" lon="14.434602019432397"><ele>113.0</ele><time>2026-04-12T05:27:31.999Z</time></trkpt><trkpt lat="42.113496247035094" lon="14.434631127636589"><ele>113.0</ele><time>2026-04-12T05:27:33.999Z</time></trkpt><trkpt lat="42.11341939269871" lon="14.434657395401356"><ele>113.0</ele><time>2026-04-12T05:27:35.999Z</time></trkpt><trkpt lat="42.113342978712915" lon="14.434688253530556"><ele>112.99999999999999</ele><time>2026-04-12T05:27:37.999Z</time></trkpt><trkpt lat="42.11326929669222" lon="14.434725077022385"><ele>113.0</ele><time>2026-04-12T05:27:39.999Z</time></trkpt><trkpt lat="42.11319494444122" lon="14.434756111738341"><ele>113.33333333333333</ele><time>2026-04-12T05:27:41.999Z</time></trkpt><trkpt lat="42.11312260259993" lon="14.434790397390103"><ele>113.66666666666666</ele><time>2026-04-12T05:27:43.999Z</time></trkpt><trkpt lat="42.11304736510532" lon="14.434823041895442"><ele>114.0</ele><time>2026-04-12T05:27:45.999Z</time></trkpt><trkpt lat="42.11297169426629" lon="14.434854767710583"><ele>114.33333333333334</ele><time>2026-04-12T05:27:47.999Z</time></trkpt><trkpt lat="42.112897506109256" lon="14.4348910818314"><ele>114.66666666666667</ele><time>2026-04-12T05:27:49.999Z</time></trkpt><trkpt lat="42.11282359241383" lon="14.434924572140412"><ele>115.0</ele><time>2026-04-12T05:27:51.999Z</time></trkpt><trkpt lat="42.112749871276094" lon="14.434956963842154"><ele>115.00000000000001</ele><time>2026-04-12T05:27:53.999Z</time></trkpt><trkpt lat="42.11267368538233" lon="14.434984454827875"><ele>115.0</ele><time>2026-04-12T05:27:55.998Z</time></trkpt><trkpt lat="42.11259730740088" lon="14.435003574650857"><ele>115.0</ele><time>2026-04-12T05:27:57.998Z</time></trkpt><trkpt lat="42.112520533787915" lon="14.43501815669874"><ele>115.0</ele><time>2026-04-12T05:27:59.998Z</time></trkpt><trkpt lat="42.11244600405341" lon="14.435028626291226"><ele>115.00000000000001</ele><time>2026-04-12T05:28:01.998Z</time></trkpt><trkpt lat="42.11237013343969" lon="14.435030079166843"><ele>115.0</ele><time>2026-04-12T05:28:03.998Z</time></trkpt><trkpt lat="42.11229710516493" lon="14.435020512331253"><ele>115.42857142857142</ele><time>2026-04-12T05:28:06Z</time></trkpt><trkpt lat="42.11222437760708" lon="14.435006010722239"><ele>115.85714285714286</ele><time>2026-04-12T05:28:08Z</time></trkpt><trkpt lat="42.11214974244905" lon="14.434980212220177"><ele>116.28571428571428</ele><time>2026-04-12T05:28:10Z</time></trkpt><trkpt lat="42.11207782753194" lon="14.434954054601503"><ele>116.71428571428571</ele><time>2026-04-12T05:28:12Z</time></trkpt><trkpt lat="42.11200784113195" lon="14.434920074057139"><ele>117.14285714285714</ele><time>2026-04-12T05:28:14Z</time></trkpt><trkpt lat="42.111939183915204" lon="14.434887206546135"><ele>117.57142857142857</ele><time>2026-04-12T05:28:16Z</time></trkpt><trkpt lat="42.11186976774352" lon="14.434853785133953"><ele>118.0</ele><time>2026-04-12T05:28:18Z</time></trkpt><trkpt lat="42.11180096859506" lon="14.434816349373289"><ele>118.0</ele><time>2026-04-12T05:28:20Z</time></trkpt><trkpt lat="42.11173455393239" lon="14.4347840002658"><ele>118.0</ele><time>2026-04-12T05:28:22Z</time></trkpt><trkpt lat="42.11166543087914" lon="14.434753106941418"><ele>118.0</ele><time>2026-04-12T05:28:24Z</time></trkpt><trkpt lat="42.11159469164931" lon="14.434722867127634"><ele>118.0</ele><time>2026-04-12T05:28:26Z</time></trkpt><trkpt lat="42.11152303393527" lon="14.434689520629783"><ele>118.0</ele><time>2026-04-12T05:28:28Z</time></trkpt><trkpt lat="42.11145364102772" lon="14.434659536816131"><ele>118.0</ele><time>2026-04-12T05:28:30Z</time></trkpt><trkpt lat="42.11138650496415" lon="14.434633382562868"><ele>118.0</ele><time>2026-04-12T05:28:32Z</time></trkpt><trkpt lat="42.11131673609683" lon="14.434608630369787"><ele>118.50000000000001</ele><time>2026-04-12T05:28:34Z</time></trkpt><trkpt lat="42.11124175491468" lon="14.434581932061263"><ele>119.0</ele><time>2026-04-12T05:28:36Z</time></trkpt><trkpt lat="42.11116769561071" lon="14.434558536079855"><ele>119.5</ele><time>2026-04-12T05:28:38Z</time></trkpt><trkpt lat="42.11109287822198" lon="14.434537633798412"><ele>120.0</ele><time>2026-04-12T05:28:40Z</time></trkpt><trkpt lat="42.11101681077919" lon="14.434514835691374"><ele>120.50000000000001</ele><time>2026-04-12T05:28:42Z</time></trkpt><trkpt lat="42.11094210395138" lon="14.434499919424939"><ele>121.0</ele><time>2026-04-12T05:28:44Z</time></trkpt><trkpt lat="42.110864491065044" lon="14.434485362892287"><ele>121.00000000000001</ele><time>2026-04-12T05:28:46Z</time></trkpt><trkpt lat="42.11078868082925" lon="14.434471100158705"><ele>121.0</ele><time>2026-04-12T05:28:48Z</time></trkpt><trkpt lat="42.11071083557015" lon="14.434457782901685"><ele>121.0</ele><time>2026-04-12T05:28:50Z</time></trkpt><trkpt lat="42.11063403721006" lon="14.434439908573058"><ele>121.0</ele><time>2026-04-12T05:28:52Z</time></trkpt><trkpt lat="42.11055847838103" lon="14.434422517272548"><ele>121.00000000000001</ele><time>2026-04-12T05:28:54Z</time></trkpt><trkpt lat="42.11048117691075" lon="14.434411245521593"><ele>121.0</ele><time>2026-04-12T05:28:56Z</time></trkpt><trkpt lat="42.11040366084418" lon="14.434396893821502"><ele>121.00000000000001</ele><time>2026-04-12T05:28:58Z</time></trkpt><trkpt lat="42.110322367429596" lon="14.434382502033936"><ele>121.0</ele><time>2026-04-12T05:29:00Z</time></trkpt><trkpt lat="42.11024013400875" lon="14.434369310612869"><ele>121.0</ele><time>2026-04-12T05:29:01.999Z</time></trkpt><trkpt lat="42.110159237384025" lon="14.434353511965126"><ele>121.0</ele><time>2026-04-12T05:29:03.999Z</time></trkpt><trkpt lat="42.110079519937656" lon="14.434337464154122"><ele>121.00000000000001</ele><time>2026-04-12T05:29:05.999Z</time></trkpt><trkpt lat="42.10999907435229" lon="14.43432460289352"><ele>121.0</ele><time>2026-04-12T05:29:07.999Z</time></trkpt><trkpt lat="42.10991656318214" lon="14.434311245368475"><ele>121.16666666666667</ele><time>2026-04-12T05:29:09.999Z</time></trkpt><trkpt lat="42.109833353343866" lon="14.434296892503266"><ele>121.33333333333334</ele><time>2026-04-12T05:29:11.999Z</time></trkpt><trkpt lat="42.109750338301886" lon="14.434287504958885"><ele>121.5</ele><time>2026-04-12T05:29:13.999Z</time></trkpt><trkpt lat="42.10966905904074" lon="14.434282837933278"><ele>121.66666666666666</ele><time>2026-04-12T05:29:15.999Z</time></trkpt><trkpt lat="42.10958725042837" lon="14.434286760082129"><ele>121.83333333333333</ele><time>2026-04-12T05:29:17.999Z</time></trkpt><trkpt lat="42.10950218592186" lon="14.434298473646948"><ele>122.0</ele><time>2026-04-12T05:29:19.999Z</time></trkpt><trkpt lat="42.109420924056636" lon="14.434316160752799"><ele>121.99999999999999</ele><time>2026-04-12T05:29:21.999Z</time></trkpt><trkpt lat="42.10933951119145" lon="14.434336272295292"><ele>122.0</ele><time>2026-04-12T05:29:23.999Z</time></trkpt><trkpt lat="42.10925934861234" lon="14.43435994581886"><ele>122.0</ele><time>2026-04-12T05:29:25.999Z</time></trkpt><trkpt lat="42.109180338556754" lon="14.434385922542138"><ele>122.0</ele><time>2026-04-12T05:29:27.999Z</time></trkpt><trkpt lat="42.109097695410526" lon="14.434412149590713"><ele>121.99999999999999</ele><time>2026-04-12T05:29:29.999Z</time></trkpt><trkpt lat="42.109014302620935" lon="14.434440082894216"><ele>122.0</ele><time>2026-04-12T05:29:31.999Z</time></trkpt><trkpt lat="42.10892876910068" lon="14.434465942903252"><ele>122.33333333333333</ele><time>2026-04-12T05:29:33.999Z</time></trkpt><trkpt lat="42.108843194905596" lon="14.434491444427277"><ele>122.66666666666666</ele><time>2026-04-12T05:29:35.999Z</time></trkpt><trkpt lat="42.10876421631736" lon="14.434518016512945"><ele>123.0</ele><time>2026-04-12T05:29:37.999Z</time></trkpt><trkpt lat="42.10868447734663" lon="14.434545605599801"><ele>123.33333333333334</ele><time>2026-04-12T05:29:39.999Z</time></trkpt><trkpt lat="42.10860383534198" lon="14.434570816750105"><ele>123.66666666666667</ele><time>2026-04-12T05:29:41.999Z</time></trkpt><trkpt lat="42.10852697150992" lon="14.434597328223878"><ele>124.0</ele><time>2026-04-12T05:29:43.999Z</time></trkpt><trkpt lat="42.10844643859422" lon="14.434622602906291"><ele>124.33333333333334</ele><time>2026-04-12T05:29:45.999Z</time></trkpt><trkpt lat="42.10836684717169" lon="14.434644178585925"><ele>124.66666666666667</ele><time>2026-04-12T05:29:47.999Z</time></trkpt><trkpt lat="42.10828740624269" lon="14.434671969997598"><ele>125.0</ele><time>2026-04-12T05:29:49.999Z</time></trkpt><trkpt lat="42.108210364502874" lon="14.434690973649966"><ele>125.33333333333334</ele><time>2026-04-12T05:29:51.999Z</time></trkpt><trkpt lat="42.10813155936079" lon="14.43471563290756"><ele>125.66666666666667</ele><time>2026-04-12T05:29:53.999Z</time></trkpt><trkpt lat="42.10805138177449" lon="14.434741767917087"><ele>126.0</ele><time>2026-04-12T05:29:55.999Z</time></trkpt><trkpt lat="42.10797479651381" lon="14.434768265007014"><ele>126.0</ele><time>2026-04-12T05:29:57.998Z</time></trkpt><trkpt lat="42.107897295717024" lon="14.434791927843062"><ele>126.0</ele><time>2026-04-12T05:29:59.998Z</time></trkpt><trkpt lat="42.10781934358321" lon="14.434817811155114"><ele>126.0</ele><time>2026-04-12T05:30:01.998Z</time></trkpt><trkpt lat="42.10774161205316" lon="14.434842987403478"><ele>126.0</ele><time>2026-04-12T05:30:03.998Z</time></trkpt><trkpt lat="42.10766454243317" lon="14.434858007393487"><ele>126.0</ele><time>2026-04-12T05:30:05.998Z</time></trkpt><trkpt lat="42.10758478447001" lon="14.43486221502632"><ele>126.0</ele><time>2026-04-12T05:30:07.998Z</time></trkpt><trkpt lat="42.107505928088585" lon="14.434861073161317"><ele>126.0</ele><time>2026-04-12T05:30:09.998Z</time></trkpt><trkpt lat="42.10743023971371" lon="14.434849317414523"><ele>126.0</ele><time>2026-04-12T05:30:12Z</time></trkpt><trkpt lat="42.10735667267738" lon="14.434832694701123"><ele>126.0</ele><time>2026-04-12T05:30:14Z</time></trkpt><trkpt lat="42.10728451957248" lon="14.4348082150345"><ele>126.0</ele><time>2026-04-12T05:30:16Z</time></trkpt><trkpt lat="42.10721306844805" lon="14.434770915559728"><ele>126.0</ele><time>2026-04-12T05:30:18Z</time></trkpt><trkpt lat="42.10714805686757" lon="14.434729436987482"><ele>126.0</ele><time>2026-04-12T05:30:20Z</time></trkpt><trkpt lat="42.10708213649939" lon="14.434683542344045"><ele>126.0</ele><time>2026-04-12T05:30:22Z</time></trkpt><trkpt lat="42.10701901862178" lon="14.434634560774269"><ele>126.71428571428572</ele><time>2026-04-12T05:30:24Z</time></trkpt><trkpt lat="42.106957892140606" lon="14.43458600727872"><ele>127.42857142857143</ele><time>2026-04-12T05:30:26Z</time></trkpt><trkpt lat="42.10689571408487" lon="14.434536667946354"><ele>128.14285714285714</ele><time>2026-04-12T05:30:28Z</time></trkpt><trkpt lat="42.106836631074096" lon="14.434485473861063"><ele>128.85714285714286</ele><time>2026-04-12T05:30:30Z</time></trkpt><trkpt lat="42.106778809092624" lon="14.434436350968934"><ele>129.57142857142858</ele><time>2026-04-12T05:30:32Z</time></trkpt><trkpt lat="42.10672113200016" lon="14.434388930444399"><ele>130.28571428571428</ele><time>2026-04-12T05:30:34Z</time></trkpt><trkpt lat="42.106663670471285" lon="14.434340196014427"><ele>131.0</ele><time>2026-04-12T05:30:36Z</time></trkpt><trkpt lat="42.106606321712626" lon="14.434292894791175"><ele>131.0</ele><time>2026-04-12T05:30:38Z</time></trkpt><trkpt lat="42.10654965883136" lon="14.434243919645843"><ele>131.0</ele><time>2026-04-12T05:30:40Z</time></trkpt><trkpt lat="42.10649221847492" lon="14.434195236520765"><ele>131.0</ele><time>2026-04-12T05:30:42Z</time></trkpt><trkpt lat="42.106435285092154" lon="14.43414708134461"><ele>131.0</ele><time>2026-04-12T05:30:44Z</time></trkpt><trkpt lat="42.106377965855174" lon="14.434098609343678"><ele>131.0</ele><time>2026-04-12T05:30:46Z</time></trkpt><trkpt lat="42.1063172846762" lon="14.434050546981123"><ele>131.0</ele><time>2026-04-12T05:30:48Z</time></trkpt><trkpt lat="42.10625852571582" lon="14.433996523655262"><ele>131.0</ele><time>2026-04-12T05:30:50Z</time></trkpt><trkpt lat="42.10619912319118" lon="14.433948926599284"><ele>131.0</ele><time>2026-04-12T05:30:52Z</time></trkpt><trkpt lat="42.10613994623384" lon="14.433897171427459"><ele>131.0</ele><time>2026-04-12T05:30:54Z</time></trkpt><trkpt lat="42.10607836458845" lon="14.433847085057826"><ele>131.0</ele><time>2026-04-12T05:30:56Z</time></trkpt><trkpt lat="42.1060158117103" lon="14.433803824896327"><ele>131.0</ele><time>2026-04-12T05:30:58Z</time></trkpt><trkpt lat="42.10595204536978" lon="14.433762231216468"><ele>131.0</ele><time>2026-04-12T05:31:00Z</time></trkpt><trkpt lat="42.10588339454579" lon="14.433729438783518"><ele>131.0</ele><time>2026-04-12T05:31:02Z</time></trkpt><trkpt lat="42.10581296276032" lon="14.433706087099553"><ele>131.0</ele><time>2026-04-12T05:31:04Z</time></trkpt><trkpt lat="42.105741114394014" lon="14.433692341445052"><ele>131.42857142857144</ele><time>2026-04-12T05:31:05.999Z</time></trkpt><trkpt lat="42.105672035405036" lon="14.43369399641793"><ele>131.85714285714286</ele><time>2026-04-12T05:31:07.999Z</time></trkpt><trkpt lat="42.10560134103713" lon="14.433697304710604"><ele>132.28571428571428</ele><time>2026-04-12T05:31:09.999Z</time></trkpt><trkpt lat="42.105530894482605" lon="14.433707263891211"><ele>132.71428571428572</ele><time>2026-04-12T05:31:11.999Z</time></trkpt><trkpt lat="42.1054660778194" lon="14.433719627041834"><ele>133.14285714285714</ele><time>2026-04-12T05:31:13.999Z</time></trkpt><trkpt lat="42.10537602930348" lon="14.433676317487448"><ele>133.57142857142858</ele><time>2026-04-12T05:31:16.999Z</time></trkpt><trkpt lat="42.10532566747233" lon="14.433623020601031"><ele>134.0</ele><time>2026-04-12T05:31:18.999Z</time></trkpt><trkpt lat="42.10528514212822" lon="14.433549945485897"><ele>134.0</ele><time>2026-04-12T05:31:21.999Z</time></trkpt><trkpt lat="42.10522907102144" lon="14.433497821787846"><ele>134.0</ele><time>2026-04-12T05:33:08Z</time></trkpt><trkpt lat="42.10516760494624" lon="14.433569725198392"><ele>134.0</ele><time>2026-04-12T05:33:11.999Z</time></trkpt><trkpt lat="42.105130482794934" lon="14.433673398878796"><ele>134.0</ele><time>2026-04-12T05:33:14.999Z</time></trkpt><trkpt lat="42.10509689846937" lon="14.433746516491002"><ele>134.0</ele><time>2026-04-12T05:33:16.999Z</time></trkpt><trkpt lat="42.105030106942856" lon="14.43383094934095"><ele>134.0</ele><time>2026-04-12T05:33:19.999Z</time></trkpt><trkpt lat="42.10495011237417" lon="14.43388363959358"><ele>134.16666666666666</ele><time>2026-04-12T05:33:22.999Z</time></trkpt><trkpt lat="42.10485945450664" lon="14.433906084871786"><ele>134.33333333333331</ele><time>2026-04-12T05:33:25.999Z</time></trkpt><trkpt lat="42.1047966500907" lon="14.433924696136"><ele>134.5</ele><time>2026-04-12T05:33:27.999Z</time></trkpt><trkpt lat="42.1047322405911" lon="14.433940717066589"><ele>134.66666666666666</ele><time>2026-04-12T05:33:29.999Z</time></trkpt><trkpt lat="42.104641008882524" lon="14.433965300194563"><ele>134.83333333333334</ele><time>2026-04-12T05:33:32.999Z</time></trkpt><trkpt lat="42.10455167191473" lon="14.433990290852174"><ele>135.0</ele><time>2026-04-12T05:33:35.999Z</time></trkpt><trkpt lat="42.1044608075964" lon="14.434011952443766"><ele>135.0</ele><time>2026-04-12T05:33:38.999Z</time></trkpt><trkpt lat="42.10439298526744" lon="14.434029559999336"><ele>135.0</ele><time>2026-04-12T05:33:40.999Z</time></trkpt><trkpt lat="42.10429883436694" lon="14.434054959951775"><ele>135.0</ele><time>2026-04-12T05:33:43.999Z</time></trkpt><trkpt lat="42.10423446551" lon="14.43406624237182"><ele>135.0</ele><time>2026-04-12T05:33:45.999Z</time></trkpt><trkpt lat="42.10416784674561" lon="14.43408447738276"><ele>135.0</ele><time>2026-04-12T05:33:47.999Z</time></trkpt><trkpt lat="42.104102636525525" lon="14.434096644690213"><ele>135.0</ele><time>2026-04-12T05:33:49.999Z</time></trkpt><trkpt lat="42.104036998206965" lon="14.434110834586445"><ele>135.0</ele><time>2026-04-12T05:33:51.999Z</time></trkpt><trkpt lat="42.103972219879644" lon="14.434127925097958"><ele>135.57142857142856</ele><time>2026-04-12T05:33:53.999Z</time></trkpt><trkpt lat="42.103906058791324" lon="14.434142909303151"><ele>136.14285714285714</ele><time>2026-04-12T05:33:55.999Z</time></trkpt><trkpt lat="42.1038396593353" lon="14.434162633323085"><ele>136.71428571428572</ele><time>2026-04-12T05:33:57.999Z</time></trkpt><trkpt lat="42.10377501717448" lon="14.434177816865006"><ele>137.28571428571428</ele><time>2026-04-12T05:33:59.999Z</time></trkpt><trkpt lat="42.10370779275604" lon="14.434193310594948"><ele>137.85714285714286</ele><time>2026-04-12T05:34:01.999Z</time></trkpt><trkpt lat="42.10364261567498" lon="14.434206987451601"><ele>138.42857142857142</ele><time>2026-04-12T05:34:03.999Z</time></trkpt><trkpt lat="42.103580386671396" lon="14.43422633257917"><ele>139.0</ele><time>2026-04-12T05:34:05.998Z</time></trkpt><trkpt lat="42.103514611134855" lon="14.434242873172241"><ele>139.0</ele><time>2026-04-12T05:34:07.998Z</time></trkpt><trkpt lat="42.10345069763848" lon="14.43426168387998"><ele>139.0</ele><time>2026-04-12T05:34:09.998Z</time></trkpt><trkpt lat="42.1033837050745" lon="14.434275434796914"><ele>139.0</ele><time>2026-04-12T05:34:11.998Z</time></trkpt><trkpt lat="42.10332074748409" lon="14.434294313803836"><ele>139.0</ele><time>2026-04-12T05:34:13.998Z</time></trkpt><trkpt lat="42.103257712404165" lon="14.434309481673381"><ele>139.0</ele><time>2026-04-12T05:34:15.998Z</time></trkpt><trkpt lat="42.10319037004734" lon="14.43432340036719"><ele>139.0</ele><time>2026-04-12T05:34:17.998Z</time></trkpt><trkpt lat="42.103125224792805" lon="14.434339108355715"><ele>139.0</ele><time>2026-04-12T05:34:19.998Z</time></trkpt><trkpt lat="42.103056146814424" lon="14.434353983287386"><ele>139.14285714285714</ele><time>2026-04-12T05:34:21.998Z</time></trkpt><trkpt lat="42.10299325038774" lon="14.434375468910568"><ele>139.28571428571428</ele><time>2026-04-12T05:34:24Z</time></trkpt><trkpt lat="42.1029258381606" lon="14.434391112952001"><ele>139.42857142857144</ele><time>2026-04-12T05:34:26Z</time></trkpt><trkpt lat="42.102863222596184" lon="14.434407794110742"><ele>139.57142857142856</ele><time>2026-04-12T05:34:28Z</time></trkpt><trkpt lat="42.1027994458695" lon="14.434423239722367"><ele>139.71428571428572</ele><time>2026-04-12T05:34:30Z</time></trkpt><trkpt lat="42.10273481670061" lon="14.434442126770332"><ele>139.85714285714286</ele><time>2026-04-12T05:34:32Z</time></trkpt><trkpt lat="42.1026677118893" lon="14.434460228854281"><ele>140.0</ele><time>2026-04-12T05:34:34Z</time></trkpt><trkpt lat="42.10260191047997" lon="14.434474670344263"><ele>140.0</ele><time>2026-04-12T05:34:36Z</time></trkpt><trkpt lat="42.1025374373751" lon="14.434493366291088"><ele>140.0</ele><time>2026-04-12T05:34:38Z</time></trkpt><trkpt lat="42.10247078166935" lon="14.43450827555234"><ele>140.0</ele><time>2026-04-12T05:34:40Z</time></trkpt><trkpt lat="42.10240271367036" lon="14.434526040560833"><ele>140.0</ele><time>2026-04-12T05:34:42Z</time></trkpt><trkpt lat="42.10233576398646" lon="14.434542101142702"><ele>140.0</ele><time>2026-04-12T05:34:44Z</time></trkpt><trkpt lat="42.10226652754953" lon="14.434558349721536"><ele>140.0</ele><time>2026-04-12T05:34:46Z</time></trkpt><trkpt lat="42.1021968750266" lon="14.434569457866479"><ele>140.0</ele><time>2026-04-12T05:34:48Z</time></trkpt><trkpt lat="42.10212933334787" lon="14.43458630161116"><ele>140.14285714285714</ele><time>2026-04-12T05:34:50Z</time></trkpt><trkpt lat="42.102060712824446" lon="14.434601949202976"><ele>140.28571428571428</ele><time>2026-04-12T05:34:52Z</time></trkpt><trkpt lat="42.10199315242561" lon="14.434617435637415"><ele>140.42857142857144</ele><time>2026-04-12T05:34:54Z</time></trkpt><trkpt lat="42.101927708602176" lon="14.434632505675756"><ele>140.57142857142856</ele><time>2026-04-12T05:34:56Z</time></trkpt><trkpt lat="42.10186303081043" lon="14.434646675291297"><ele>140.71428571428572</ele><time>2026-04-12T05:34:58Z</time></trkpt><trkpt lat="42.10179659871797" lon="14.4346650784279"><ele>140.85714285714286</ele><time>2026-04-12T05:35:00Z</time></trkpt><trkpt lat="42.10172578619883" lon="14.434685813889402"><ele>141.0</ele><time>2026-04-12T05:35:02Z</time></trkpt><trkpt lat="42.10165788737598" lon="14.434703562892766"><ele>141.57142857142858</ele><time>2026-04-12T05:35:04Z</time></trkpt><trkpt lat="42.10158821519869" lon="14.434720579521116"><ele>142.14285714285714</ele><time>2026-04-12T05:35:06Z</time></trkpt><trkpt lat="42.10152541917141" lon="14.434746572558979"><ele>142.71428571428572</ele><time>2026-04-12T05:35:08Z</time></trkpt><trkpt lat="42.101466036199625" lon="14.434779691560758"><ele>143.28571428571428</ele><time>2026-04-12T05:35:10Z</time></trkpt><trkpt lat="42.1014073321456" lon="14.43482210782748"><ele>143.85714285714286</ele><time>2026-04-12T05:35:11.999Z</time></trkpt><trkpt lat="42.10134830611783" lon="14.434865539451609"><ele>144.42857142857144</ele><time>2026-04-12T05:35:13.999Z</time></trkpt><trkpt lat="42.10129310949428" lon="14.434914740444388"><ele>145.0</ele><time>2026-04-12T05:35:15.999Z</time></trkpt><trkpt lat="42.101235672458735" lon="14.43496287585999"><ele>145.0</ele><time>2026-04-12T05:35:17.999Z</time></trkpt><trkpt lat="42.1011826328521" lon="14.435014707330511"><ele>145.0</ele><time>2026-04-12T05:35:19.999Z</time></trkpt><trkpt lat="42.10112808921415" lon="14.435063447136512"><ele>145.0</ele><time>2026-04-12T05:35:21.999Z</time></trkpt><trkpt lat="42.10107287496222" lon="14.435109947346895"><ele>145.0</ele><time>2026-04-12T05:35:23.999Z</time></trkpt><trkpt lat="42.101019467464866" lon="14.435159731564212"><ele>145.0</ele><time>2026-04-12T05:35:25.999Z</time></trkpt><trkpt lat="42.100968317754706" lon="14.435210951899814"><ele>145.0</ele><time>2026-04-12T05:35:27.999Z</time></trkpt><trkpt lat="42.100913718406964" lon="14.435260065673852"><ele>145.0</ele><time>2026-04-12T05:35:29.999Z</time></trkpt><trkpt lat="42.100861029277795" lon="14.435307069993813"><ele>145.0</ele><time>2026-04-12T05:35:31.999Z</time></trkpt><trkpt lat="42.10080706798542" lon="14.4353512288203"><ele>145.0</ele><time>2026-04-12T05:35:33.999Z</time></trkpt><trkpt lat="42.100753594746834" lon="14.435398034730797"><ele>145.0</ele><time>2026-04-12T05:35:35.999Z</time></trkpt><trkpt lat="42.10066935720225" lon="14.435452676233261"><ele>145.0</ele><time>2026-04-12T05:35:38.999Z</time></trkpt><trkpt lat="42.10058175638009" lon="14.435477330663316"><ele>145.0</ele><time>2026-04-12T05:35:41.999Z</time></trkpt><trkpt lat="42.10049648651795" lon="14.435486398055101"><ele>145.0</ele><time>2026-04-12T05:35:44.999Z</time></trkpt><trkpt lat="42.100427266737604" lon="14.43547178824938"><ele>145.85714285714286</ele><time>2026-04-12T05:35:47.999Z</time></trkpt><trkpt lat="42.100358312892936" lon="14.435440799248424"><ele>146.71428571428572</ele><time>2026-04-12T05:35:50.999Z</time></trkpt><trkpt lat="42.10029866801122" lon="14.43540170159558"><ele>147.57142857142858</ele><time>2026-04-12T05:35:53.999Z</time></trkpt><trkpt lat="42.10024655124494" lon="14.435344262846147"><ele>148.42857142857144</ele><time>2026-04-12T05:35:56.999Z</time></trkpt><trkpt lat="42.10020273772807" lon="14.435279750658935"><ele>149.28571428571428</ele><time>2026-04-12T05:35:59.999Z</time></trkpt><trkpt lat="42.100161927896835" lon="14.435212045691884"><ele>150.14285714285717</ele><time>2026-04-12T05:36:02.999Z</time></trkpt><trkpt lat="42.10012760374776" lon="14.435139488576253"><ele>151.0</ele><time>2026-04-12T05:36:05.999Z</time></trkpt><trkpt lat="42.100083402469764" lon="14.43504060030202"><ele>151.0</ele><time>2026-04-12T05:36:09.998Z</time></trkpt><trkpt lat="42.100025363906894" lon="14.434959745180638"><ele>151.0</ele><time>2026-04-12T05:36:13.998Z</time></trkpt><trkpt lat="42.09995303311041" lon="14.43490755187214"><ele>151.0</ele><time>2026-04-12T05:36:17.998Z</time></trkpt><trkpt lat="42.09987946446612" lon="14.434917061456137"><ele>151.0</ele><time>2026-04-12T05:36:21.998Z</time></trkpt><trkpt lat="42.09981093945146" lon="14.434973737883093"><ele>151.0</ele><time>2026-04-12T05:36:25.998Z</time></trkpt><trkpt lat="42.099755870175" lon="14.435056054084408"><ele>151.0</ele><time>2026-04-12T05:36:30Z</time></trkpt><trkpt lat="42.09970086840361" lon="14.435137957181128"><ele>152.66666666666669</ele><time>2026-04-12T05:36:34Z</time></trkpt><trkpt lat="42.09964519607159" lon="14.43521375196544"><ele>154.33333333333334</ele><time>2026-04-12T05:36:38Z</time></trkpt><trkpt lat="42.09958757705901" lon="14.435287184075934"><ele>156.0</ele><time>2026-04-12T05:36:42Z</time></trkpt><trkpt lat="42.099533240549725" lon="14.43535937383268"><ele>157.66666666666666</ele><time>2026-04-12T05:36:46Z</time></trkpt><trkpt lat="42.099479629200516" lon="14.435430690480217"><ele>159.33333333333331</ele><time>2026-04-12T05:36:50Z</time></trkpt><trkpt lat="42.099424687459354" lon="14.435503673039486"><ele>161.0</ele><time>2026-04-12T05:36:54Z</time></trkpt><trkpt lat="42.099369521463245" lon="14.435578427302898"><ele>161.0</ele><time>2026-04-12T05:36:58Z</time></trkpt><trkpt lat="42.099310914155275" lon="14.435645383146044"><ele>161.0</ele><time>2026-04-12T05:37:02Z</time></trkpt><trkpt lat="42.0992519934755" lon="14.43571486022705"><ele>161.0</ele><time>2026-04-12T05:37:06Z</time></trkpt><trkpt lat="42.099197232714474" lon="14.435770126678428"><ele>161.0</ele><time>2026-04-12T05:37:10Z</time></trkpt><trkpt lat="42.09913972358502" lon="14.43581265047233"><ele>161.0</ele><time>2026-04-12T05:37:12.999Z</time></trkpt><trkpt lat="42.099066700196445" lon="14.435849760403919"><ele>161.0</ele><time>2026-04-12T05:37:16.999Z</time></trkpt><trkpt lat="42.09898852192277" lon="14.435871008171702"><ele>161.0</ele><time>2026-04-12T05:37:20.999Z</time></trkpt><trkpt lat="42.09891638299005" lon="14.4358940391217"><ele>163.5</ele><time>2026-04-12T05:37:24.999Z</time></trkpt><trkpt lat="42.09883988605086" lon="14.435918585109174"><ele>166.0</ele><time>2026-04-12T05:37:28.999Z</time></trkpt><trkpt lat="42.09876439047855" lon="14.43593918781462"><ele>168.5</ele><time>2026-04-12T05:37:32.999Z</time></trkpt><trkpt lat="42.09868575482737" lon="14.435955253209759"><ele>171.0</ele><time>2026-04-12T05:37:36.999Z</time></trkpt><trkpt lat="42.09861490655936" lon="14.435980042788604"><ele>173.5</ele><time>2026-04-12T05:37:40.999Z</time></trkpt><trkpt lat="42.09854255999506" lon="14.436023995508656"><ele>176.0</ele><time>2026-04-12T05:37:44.999Z</time></trkpt><trkpt lat="42.098486244931" lon="14.436097028776887"><ele>176.0</ele><time>2026-04-12T05:37:48.999Z</time></trkpt><trkpt lat="42.09843455650166" lon="14.436178593090446"><ele>176.0</ele><time>2026-04-12T05:37:52.999Z</time></trkpt><trkpt lat="42.098392160322376" lon="14.436270393713786"><ele>176.0</ele><time>2026-04-12T05:37:56.999Z</time></trkpt><trkpt lat="42.09834232541403" lon="14.43635639569045"><ele>176.0</ele><time>2026-04-12T05:38:00.999Z</time></trkpt><trkpt lat="42.09827244119385" lon="14.436404000440437"><ele>176.0</ele><time>2026-04-12T05:38:04.999Z</time></trkpt><trkpt lat="42.09819205061248" lon="14.436387055239539"><ele>176.0</ele><time>2026-04-12T05:38:08.998Z</time></trkpt><trkpt lat="42.098143869314406" lon="14.43630327703355"><ele>176.0</ele><time>2026-04-12T05:38:12.998Z</time></trkpt><trkpt lat="42.09813686166471" lon="14.4362188941111"><ele>176.0</ele><time>2026-04-12T05:38:15.998Z</time></trkpt><trkpt lat="42.0981547498308" lon="14.43611979824501"><ele>176.0</ele><time>2026-04-12T05:38:19.998Z</time></trkpt><trkpt lat="42.098180944835484" lon="14.436022277041358"><ele>176.0</ele><time>2026-04-12T05:38:22.998Z</time></trkpt><trkpt lat="42.098211924652205" lon="14.435943231063382"><ele>176.0</ele><time>2026-04-12T05:38:25.998Z</time></trkpt><trkpt lat="42.09824369295306" lon="14.435867117331068"><ele>176.0</ele><time>2026-04-12T05:38:28.998Z</time></trkpt><trkpt lat="42.09827857914781" lon="14.435795440291942"><ele>176.0</ele><time>2026-04-12T05:38:31.998Z</time></trkpt><trkpt lat="42.09831219252204" lon="14.43572110384502"><ele>176.0</ele><time>2026-04-12T05:38:34.998Z</time></trkpt><trkpt lat="42.098351288375966" lon="14.435653381759495"><ele>176.0</ele><time>2026-04-12T05:38:38Z</time></trkpt><trkpt lat="42.09839157136666" lon="14.435586880732957"><ele>176.0</ele><time>2026-04-12T05:38:41Z</time></trkpt><trkpt lat="42.098430788405054" lon="14.435516542126523"><ele>176.0</ele><time>2026-04-12T05:38:44Z</time></trkpt><trkpt lat="42.09846997104734" lon="14.435446529485983"><ele>176.0</ele><time>2026-04-12T05:38:47Z</time></trkpt><trkpt lat="42.0985086225168" lon="14.435376614099564"><ele>176.0</ele><time>2026-04-12T05:38:50Z</time></trkpt><trkpt lat="42.0985456737097" lon="14.435306542451142"><ele>176.0</ele><time>2026-04-12T05:38:53Z</time></trkpt><trkpt lat="42.098579396625176" lon="14.435224762977233"><ele>176.71428571428572</ele><time>2026-04-12T05:38:56Z</time></trkpt><trkpt lat="42.09860325712958" lon="14.435136863181132"><ele>177.42857142857142</ele><time>2026-04-12T05:38:59Z</time></trkpt><trkpt lat="42.09861400297575" lon="14.435046608529364"><ele>178.14285714285714</ele><time>2026-04-12T05:39:02Z</time></trkpt><trkpt lat="42.09860188479282" lon="14.434957518387877"><ele>178.85714285714286</ele><time>2026-04-12T05:39:05Z</time></trkpt><trkpt lat="42.09857247359634" lon="14.434876584536068"><ele>179.57142857142856</ele><time>2026-04-12T05:39:08Z</time></trkpt><trkpt lat="42.09852995449506" lon="14.434807245878948"><ele>180.28571428571428</ele><time>2026-04-12T05:39:11Z</time></trkpt><trkpt lat="42.09847748791091" lon="14.434751879923246"><ele>181.0</ele><time>2026-04-12T05:39:14Z</time></trkpt><trkpt lat="42.0984156423358" lon="14.4347181910329"><ele>181.0</ele><time>2026-04-12T05:39:16.999Z</time></trkpt><trkpt lat="42.098350683896484" lon="14.434709936805683"><ele>181.0</ele><time>2026-04-12T05:39:19.999Z</time></trkpt><trkpt lat="42.09828437321381" lon="14.434723597164375"><ele>181.0</ele><time>2026-04-12T05:39:22.999Z</time></trkpt><trkpt lat="42.09822050809806" lon="14.43474590689074"><ele>181.0</ele><time>2026-04-12T05:39:25.999Z</time></trkpt><trkpt lat="42.09815989373825" lon="14.434779566198909"><ele>181.0</ele><time>2026-04-12T05:39:28.999Z</time></trkpt><trkpt lat="42.09810062664296" lon="14.434816207484515"><ele>181.0</ele><time>2026-04-12T05:39:31.999Z</time></trkpt><trkpt lat="42.0980453261864" lon="14.434857463376348"><ele>181.0</ele><time>2026-04-12T05:39:34.999Z</time></trkpt><trkpt lat="42.09798848022413" lon="14.434906118580718"><ele>181.85714285714286</ele><time>2026-04-12T05:39:37.999Z</time></trkpt><trkpt lat="42.09792715820919" lon="14.434950924084749"><ele>182.71428571428572</ele><time>2026-04-12T05:39:40.999Z</time></trkpt><trkpt lat="42.097871169250915" lon="14.43499697381404"><ele>183.57142857142856</ele><time>2026-04-12T05:39:43.999Z</time></trkpt><trkpt lat="42.097817283524904" lon="14.435045053822817"><ele>184.42857142857144</ele><time>2026-04-12T05:39:46.999Z</time></trkpt><trkpt lat="42.09776086722074" lon="14.435095481821802"><ele>185.2857142857143</ele><time>2026-04-12T05:39:49.999Z</time></trkpt><trkpt lat="42.0977073763062" lon="14.43514726636548"><ele>186.14285714285714</ele><time>2026-04-12T05:39:52.999Z</time></trkpt><trkpt lat="42.097650141148215" lon="14.435194888721593"><ele>187.0</ele><time>2026-04-12T05:39:55.999Z</time></trkpt><trkpt lat="42.097594957621375" lon="14.435244095632648"><ele>187.0</ele><time>2026-04-12T05:39:58.999Z</time></trkpt><trkpt lat="42.09753891135179" lon="14.43529162102224"><ele>187.0</ele><time>2026-04-12T05:40:01.999Z</time></trkpt><trkpt lat="42.09748293054632" lon="14.435340671532995"><ele>187.0</ele><time>2026-04-12T05:40:04.999Z</time></trkpt><trkpt lat="42.09742712887247" lon="14.435389228637803"><ele>187.0</ele><time>2026-04-12T05:40:07.999Z</time></trkpt><trkpt lat="42.09735437136322" lon="14.4354576927969"><ele>187.0</ele><time>2026-04-12T05:40:11.998Z</time></trkpt><trkpt lat="42.097297749347334" lon="14.435509403117976"><ele>187.0</ele><time>2026-04-12T05:40:14.998Z</time></trkpt><trkpt lat="42.09723934010706" lon="14.435562654283727"><ele>187.0</ele><time>2026-04-12T05:40:17.998Z</time></trkpt><trkpt lat="42.097181593594584" lon="14.435615907491943"><ele>188.7142857142857</ele><time>2026-04-12T05:40:20.998Z</time></trkpt><trkpt lat="42.09712607630448" lon="14.435669197839037"><ele>190.42857142857144</ele><time>2026-04-12T05:40:23.998Z</time></trkpt><trkpt lat="42.09706859243281" lon="14.43572006435651"><ele>192.14285714285714</ele><time>2026-04-12T05:40:26.998Z</time></trkpt><trkpt lat="42.097010258746835" lon="14.435774437177594"><ele>193.85714285714283</ele><time>2026-04-12T05:40:29.998Z</time></trkpt><trkpt lat="42.096948411497955" lon="14.435824243453514"><ele>195.57142857142856</ele><time>2026-04-12T05:40:32.998Z</time></trkpt><trkpt lat="42.09689067788411" lon="14.435877748437536"><ele>197.28571428571428</ele><time>2026-04-12T05:40:35.998Z</time></trkpt><trkpt lat="42.09683520951213" lon="14.435926148752506"><ele>199.0</ele><time>2026-04-12T05:40:38.998Z</time></trkpt><trkpt lat="42.09677821555721" lon="14.435979042953445"><ele>198.99999999999997</ele><time>2026-04-12T05:40:42Z</time></trkpt><trkpt lat="42.096723001089174" lon="14.436032452385874"><ele>199.0</ele><time>2026-04-12T05:40:45Z</time></trkpt><trkpt lat="42.096667825012176" lon="14.436086358766662"><ele>199.0</ele><time>2026-04-12T05:40:48Z</time></trkpt><trkpt lat="42.09660824431944" lon="14.436137138434152"><ele>199.0</ele><time>2026-04-12T05:40:51Z</time></trkpt><trkpt lat="42.09655258506772" lon="14.436187191876996"><ele>199.0</ele><time>2026-04-12T05:40:54Z</time></trkpt><trkpt lat="42.09649198382078" lon="14.436242495731392"><ele>198.99999999999997</ele><time>2026-04-12T05:40:57Z</time></trkpt><trkpt lat="42.09642810783806" lon="14.43629187920295"><ele>199.0</ele><time>2026-04-12T05:41:00Z</time></trkpt><trkpt lat="42.09637171800073" lon="14.436341381494003"><ele>199.85714285714283</ele><time>2026-04-12T05:41:03Z</time></trkpt><trkpt lat="42.0963137066097" lon="14.436392120358995"><ele>200.71428571428572</ele><time>2026-04-12T05:41:06Z</time></trkpt><trkpt lat="42.0962580613335" lon="14.43644972264298"><ele>201.57142857142856</ele><time>2026-04-12T05:41:09Z</time></trkpt><trkpt lat="42.09619974723352" lon="14.436499393389639"><ele>202.42857142857142</ele><time>2026-04-12T05:41:12Z</time></trkpt><trkpt lat="42.096140911715516" lon="14.436549832193997"><ele>203.28571428571428</ele><time>2026-04-12T05:41:15Z</time></trkpt><trkpt lat="42.09608278130266" lon="14.436602310088606"><ele>204.14285714285714</ele><time>2026-04-12T05:41:18Z</time></trkpt><trkpt lat="42.09602560595154" lon="14.43665638559841"><ele>205.0</ele><time>2026-04-12T05:41:20.999Z</time></trkpt><trkpt lat="42.09596552920993" lon="14.436707319983928"><ele>205.0</ele><time>2026-04-12T05:41:23.999Z</time></trkpt><trkpt lat="42.09590432410296" lon="14.436755904597836"><ele>205.0</ele><time>2026-04-12T05:41:26.999Z</time></trkpt><trkpt lat="42.09583919985058" lon="14.436799827179804"><ele>205.0</ele><time>2026-04-12T05:41:29.999Z</time></trkpt><trkpt lat="42.095774939914335" lon="14.436841041281795"><ele>205.0</ele><time>2026-04-12T05:41:32.999Z</time></trkpt><trkpt lat="42.09570723755607" lon="14.43687652459517"><ele>205.0</ele><time>2026-04-12T05:41:35.999Z</time></trkpt><trkpt lat="42.09563901682476" lon="14.43690738629663"><ele>205.0</ele><time>2026-04-12T05:41:38.999Z</time></trkpt><trkpt lat="42.0955641951684" lon="14.43693403389112"><ele>205.0</ele><time>2026-04-12T05:41:41.999Z</time></trkpt><trkpt lat="42.095490893213054" lon="14.43695961685936"><ele>206.16666666666666</ele><time>2026-04-12T05:41:44.999Z</time></trkpt><trkpt lat="42.095413522149286" lon="14.436975340666983"><ele>207.33333333333331</ele><time>2026-04-12T05:41:47.999Z</time></trkpt><trkpt lat="42.09533672614408" lon="14.436991718986286"><ele>208.5</ele><time>2026-04-12T05:41:50.999Z</time></trkpt><trkpt lat="42.09525872455947" lon="14.437006295246258"><ele>209.66666666666669</ele><time>2026-04-12T05:41:53.999Z</time></trkpt><trkpt lat="42.09518164527374" lon="14.437017802149825"><ele>210.83333333333334</ele><time>2026-04-12T05:41:56.999Z</time></trkpt><trkpt lat="42.0951048183539" lon="14.437031599796937"><ele>212.0</ele><time>2026-04-12T05:41:59.999Z</time></trkpt><trkpt lat="42.09502758219679" lon="14.43704567770973"><ele>212.00000000000003</ele><time>2026-04-12T05:42:02.999Z</time></trkpt><trkpt lat="42.09493895634763" lon="14.437053199549034"><ele>212.0</ele><time>2026-04-12T05:42:05.999Z</time></trkpt><trkpt lat="42.094855099367244" lon="14.437082382651624"><ele>212.0</ele><time>2026-04-12T05:42:08.999Z</time></trkpt><trkpt lat="42.094773388014" lon="14.437117503359747"><ele>212.0</ele><time>2026-04-12T05:42:11.999Z</time></trkpt><trkpt lat="42.09469937299186" lon="14.437167915989974"><ele>212.00000000000003</ele><time>2026-04-12T05:42:14.998Z</time></trkpt><trkpt lat="42.09462859078891" lon="14.437232586707019"><ele>212.0</ele><time>2026-04-12T05:42:17.998Z</time></trkpt><trkpt lat="42.09456797397843" lon="14.437313560818286"><ele>212.50000000000003</ele><time>2026-04-12T05:42:20.998Z</time></trkpt><trkpt lat="42.094516417249984" lon="14.437407073190947"><ele>213.0</ele><time>2026-04-12T05:42:23.998Z</time></trkpt><trkpt lat="42.09447735041237" lon="14.437509397346785"><ele>213.5</ele><time>2026-04-12T05:42:26.998Z</time></trkpt><trkpt lat="42.094453752908755" lon="14.437619194717001"><ele>214.0</ele><time>2026-04-12T05:42:29.998Z</time></trkpt><trkpt lat="42.094439547518476" lon="14.437726158357492"><ele>214.50000000000003</ele><time>2026-04-12T05:42:32.998Z</time></trkpt><trkpt lat="42.094440110638786" lon="14.437841971386677"><ele>215.0</ele><time>2026-04-12T05:42:35.998Z</time></trkpt><trkpt lat="42.09445261227863" lon="14.437957227243837"><ele>214.66666666666669</ele><time>2026-04-12T05:42:38.998Z</time></trkpt><trkpt lat="42.094468269578535" lon="14.438069326639772"><ele>214.33333333333334</ele><time>2026-04-12T05:42:41.998Z</time></trkpt><trkpt lat="42.094483038775586" lon="14.43818052219153"><ele>214.0</ele><time>2026-04-12T05:42:44.998Z</time></trkpt><trkpt lat="42.09450091881737" lon="14.438289381115956"><ele>213.66666666666669</ele><time>2026-04-12T05:42:48Z</time></trkpt><trkpt lat="42.09451843112877" lon="14.438398045667508"><ele>213.33333333333334</ele><time>2026-04-12T05:42:51Z</time></trkpt><trkpt lat="42.09453801695178" lon="14.438506773976098"><ele>213.0</ele><time>2026-04-12T05:42:54Z</time></trkpt><trkpt lat="42.09455763185537" lon="14.438616629036034"><ele>213.0</ele><time>2026-04-12T05:42:57Z</time></trkpt><trkpt lat="42.09457767170977" lon="14.438724957081613"><ele>213.0</ele><time>2026-04-12T05:43:00Z</time></trkpt><trkpt lat="42.09459850956315" lon="14.438836721272013"><ele>213.0</ele><time>2026-04-12T05:43:03Z</time></trkpt><trkpt lat="42.09462219369334" lon="14.438952080364553"><ele>213.0</ele><time>2026-04-12T05:43:06Z</time></trkpt><trkpt lat="42.09464060969622" lon="14.439060037248076"><ele>213.0</ele><time>2026-04-12T05:43:09Z</time></trkpt><trkpt lat="42.094660899658244" lon="14.439172111231956"><ele>213.0</ele><time>2026-04-12T05:43:12Z</time></trkpt><trkpt lat="42.094679969966066" lon="14.43928165904386"><ele>213.0</ele><time>2026-04-12T05:43:15Z</time></trkpt><trkpt lat="42.09469919662735" lon="14.43939202233353"><ele>213.0</ele><time>2026-04-12T05:43:18Z</time></trkpt><trkpt lat="42.094717801941215" lon="14.439504328051706"><ele>213.0</ele><time>2026-04-12T05:43:21Z</time></trkpt><trkpt lat="42.09473367644826" lon="14.439622908834425"><ele>213.0</ele><time>2026-04-12T05:43:23.999Z</time></trkpt><trkpt lat="42.09473966771471" lon="14.439736259423306"><ele>213.0</ele><time>2026-04-12T05:43:26.999Z</time></trkpt><trkpt lat="42.094738679622594" lon="14.439854531969154"><ele>213.0</ele><time>2026-04-12T05:43:29.999Z</time></trkpt><trkpt lat="42.09473202813866" lon="14.439970312533989"><ele>213.0</ele><time>2026-04-12T05:43:32.999Z</time></trkpt><trkpt lat="42.0947170337678" lon="14.44008043035981"><ele>213.0</ele><time>2026-04-12T05:43:35.999Z</time></trkpt><trkpt lat="42.094698239574775" lon="14.440188212860033"><ele>213.0</ele><time>2026-04-12T05:43:38.999Z</time></trkpt><trkpt lat="42.094673557096165" lon="14.440295152568918"><ele>213.0</ele><time>2026-04-12T05:43:41.999Z</time></trkpt><trkpt lat="42.094644133330625" lon="14.440402857791918"><ele>213.0</ele><time>2026-04-12T05:43:44.999Z</time></trkpt><trkpt lat="42.09460798832394" lon="14.440498447125506"><ele>213.0</ele><time>2026-04-12T05:43:47.999Z</time></trkpt><trkpt lat="42.09456820024269" lon="14.44058523202614"><ele>213.85714285714283</ele><time>2026-04-12T05:43:50.999Z</time></trkpt><trkpt lat="42.094525121325056" lon="14.440665912770854"><ele>214.71428571428572</ele><time>2026-04-12T05:43:53.999Z</time></trkpt><trkpt lat="42.09448296308667" lon="14.440743937939747"><ele>215.57142857142856</ele><time>2026-04-12T05:43:56.999Z</time></trkpt><trkpt lat="42.09443569097993" lon="14.440821245351335"><ele>216.42857142857142</ele><time>2026-04-12T05:43:59.999Z</time></trkpt><trkpt lat="42.09439425812871" lon="14.440898087749042"><ele>217.28571428571428</ele><time>2026-04-12T05:44:02.999Z</time></trkpt><trkpt lat="42.094349541350255" lon="14.440976240512782"><ele>218.14285714285714</ele><time>2026-04-12T05:44:05.999Z</time></trkpt><trkpt lat="42.09430757339416" lon="14.441055305318594"><ele>219.0</ele><time>2026-04-12T05:44:08.999Z</time></trkpt><trkpt lat="42.0942636353002" lon="14.44112965900519"><ele>219.0</ele><time>2026-04-12T05:44:11.999Z</time></trkpt><trkpt lat="42.09422124627609" lon="14.441212204186284"><ele>219.0</ele><time>2026-04-12T05:44:14.999Z</time></trkpt><trkpt lat="42.094180216016966" lon="14.441297784719147"><ele>219.0</ele><time>2026-04-12T05:44:17.998Z</time></trkpt><trkpt lat="42.09414561712086" lon="14.441387684018817"><ele>219.0</ele><time>2026-04-12T05:44:20.998Z</time></trkpt><trkpt lat="42.094118745277775" lon="14.44147877138702"><ele>219.0</ele><time>2026-04-12T05:44:23.998Z</time></trkpt><trkpt lat="42.09409804448808" lon="14.44157023126736"><ele>219.0</ele><time>2026-04-12T05:44:26.998Z</time></trkpt><trkpt lat="42.09408040764369" lon="14.44166066555204"><ele>219.0</ele><time>2026-04-12T05:44:29.998Z</time></trkpt><trkpt lat="42.09406481631442" lon="14.441757283304927"><ele>220.28571428571428</ele><time>2026-04-12T05:44:32.998Z</time></trkpt><trkpt lat="42.0940527538587" lon="14.441852665930481"><ele>221.57142857142856</ele><time>2026-04-12T05:44:35.998Z</time></trkpt><trkpt lat="42.094038831088646" lon="14.44194566633172"><ele>222.85714285714283</ele><time>2026-04-12T05:44:38.998Z</time></trkpt><trkpt lat="42.09402975004326" lon="14.44203892805163"><ele>224.14285714285714</ele><time>2026-04-12T05:44:41.998Z</time></trkpt><trkpt lat="42.09401773229062" lon="14.442129398202002"><ele>225.4285714285714</ele><time>2026-04-12T05:44:44.998Z</time></trkpt><trkpt lat="42.09400518383272" lon="14.44221908186197"><ele>226.7142857142857</ele><time>2026-04-12T05:44:47.998Z</time></trkpt><trkpt lat="42.09399558014863" lon="14.44230840999909"><ele>228.0</ele><time>2026-04-12T05:44:50.998Z</time></trkpt><trkpt lat="42.09398661293207" lon="14.44239910130935"><ele>229.28571428571428</ele><time>2026-04-12T05:44:54Z</time></trkpt><trkpt lat="42.0939735475278" lon="14.442488499775973"><ele>230.57142857142856</ele><time>2026-04-12T05:44:57Z</time></trkpt><trkpt lat="42.09396632824787" lon="14.442582865017892"><ele>231.85714285714283</ele><time>2026-04-12T05:45:00Z</time></trkpt><trkpt lat="42.093952777217446" lon="14.442677485420933"><ele>233.1428571428571</ele><time>2026-04-12T05:45:03Z</time></trkpt><trkpt lat="42.09393906634643" lon="14.442771210154335"><ele>234.42857142857142</ele><time>2026-04-12T05:45:06Z</time></trkpt><trkpt lat="42.0939195102222" lon="14.44285878993712"><ele>235.71428571428567</ele><time>2026-04-12T05:45:09Z</time></trkpt><trkpt lat="42.093890936371054" lon="14.442940551020301"><ele>236.99999999999997</ele><time>2026-04-12T05:45:12Z</time></trkpt><trkpt lat="42.09386145097509" lon="14.443019443255185"><ele>236.99999999999997</ele><time>2026-04-12T05:45:15Z</time></trkpt><trkpt lat="42.093820364253396" lon="14.443092602293497"><ele>237.0</ele><time>2026-04-12T05:45:18Z</time></trkpt><trkpt lat="42.09377199736959" lon="14.44316665741367"><ele>236.99999999999997</ele><time>2026-04-12T05:45:21Z</time></trkpt><trkpt lat="42.093722173030024" lon="14.443233357461468"><ele>236.99999999999997</ele><time>2026-04-12T05:45:23.999Z</time></trkpt><trkpt lat="42.09366956386131" lon="14.443298953922785"><ele>237.0</ele><time>2026-04-12T05:45:26.999Z</time></trkpt><trkpt lat="42.093617431123846" lon="14.443363939979367"><ele>236.99999999999997</ele><time>2026-04-12T05:45:29.999Z</time></trkpt><trkpt lat="42.093553760238294" lon="14.443434269432837"><ele>236.99999999999997</ele><time>2026-04-12T05:45:33.999Z</time></trkpt><trkpt lat="42.09349034296377" lon="14.443507338484057"><ele>236.99999999999997</ele><time>2026-04-12T05:45:36.999Z</time></trkpt><trkpt lat="42.09343547743275" lon="14.443568089835601"><ele>237.0</ele><time>2026-04-12T05:45:39.999Z</time></trkpt><trkpt lat="42.093383858652494" lon="14.443635915982057"><ele>236.99999999999997</ele><time>2026-04-12T05:45:42.999Z</time></trkpt><trkpt lat="42.0933303529645" lon="14.443703602112503"><ele>236.99999999999997</ele><time>2026-04-12T05:45:45.999Z</time></trkpt><trkpt lat="42.093271446099955" lon="14.443764726548523"><ele>237.0</ele><time>2026-04-12T05:45:48.999Z</time></trkpt><trkpt lat="42.09321194655465" lon="14.443827169879558"><ele>236.99999999999997</ele><time>2026-04-12T05:45:51.999Z</time></trkpt><trkpt lat="42.09314671439085" lon="14.443890577434768"><ele>236.99999999999997</ele><time>2026-04-12T05:45:54.999Z</time></trkpt><trkpt lat="42.09308065496465" lon="14.443959100598615"><ele>236.5</ele><time>2026-04-12T05:45:57.999Z</time></trkpt><trkpt lat="42.093014233963295" lon="14.444021767368081"><ele>236.0</ele><time>2026-04-12T05:46:00.999Z</time></trkpt><trkpt lat="42.09294285306743" lon="14.444084994663951"><ele>235.5</ele><time>2026-04-12T05:46:03.999Z</time></trkpt><trkpt lat="42.09287320993752" lon="14.444153483203436"><ele>235.0</ele><time>2026-04-12T05:46:06.999Z</time></trkpt><trkpt lat="42.092804873248554" lon="14.444214859798063"><ele>234.5</ele><time>2026-04-12T05:46:09.999Z</time></trkpt><trkpt lat="42.09273610909789" lon="14.444281143304467"><ele>234.0</ele><time>2026-04-12T05:46:12.999Z</time></trkpt><trkpt lat="42.09266883025064" lon="14.444344563682918"><ele>234.0</ele><time>2026-04-12T05:46:15.999Z</time></trkpt><trkpt lat="42.09260085173898" lon="14.44440615964315"><ele>234.0</ele><time>2026-04-12T05:46:18.998Z</time></trkpt><trkpt lat="42.092530012763476" lon="14.44446748688265"><ele>234.0</ele><time>2026-04-12T05:46:21.998Z</time></trkpt><trkpt lat="42.09245821629637" lon="14.44452718198023"><ele>234.0</ele><time>2026-04-12T05:46:24.998Z</time></trkpt><trkpt lat="42.092389484903144" lon="14.444588308739554"><ele>234.0</ele><time>2026-04-12T05:46:27.998Z</time></trkpt><trkpt lat="42.09232750355" lon="14.444641709710213"><ele>234.0</ele><time>2026-04-12T05:46:30.998Z</time></trkpt><trkpt lat="42.09227332454612" lon="14.444695712585176"><ele>234.0</ele><time>2026-04-12T05:46:33.998Z</time></trkpt><trkpt lat="42.09221828842264" lon="14.444758678002746"><ele>234.00000000000003</ele><time>2026-04-12T05:46:36.998Z</time></trkpt><trkpt lat="42.09217057183341" lon="14.444834071261212"><ele>234.0</ele><time>2026-04-12T05:46:39.998Z</time></trkpt><trkpt lat="42.09213259541154" lon="14.44491608882204"><ele>234.0</ele><time>2026-04-12T05:46:42.998Z</time></trkpt><trkpt lat="42.09210273602359" lon="14.444999991834338"><ele>234.00000000000003</ele><time>2026-04-12T05:46:45.998Z</time></trkpt><trkpt lat="42.09207717116018" lon="14.445079785389035"><ele>234.0</ele><time>2026-04-12T05:46:48.998Z</time></trkpt><trkpt lat="42.092061631610385" lon="14.445162245441214"><ele>234.0</ele><time>2026-04-12T05:46:51.998Z</time></trkpt><trkpt lat="42.09204617292295" lon="14.445244485236993"><ele>234.0</ele><time>2026-04-12T05:46:54.998Z</time></trkpt><trkpt lat="42.09202660319606" lon="14.445351295547395"><ele>234.0</ele><time>2026-04-12T05:46:59Z</time></trkpt><trkpt lat="42.09200352552699" lon="14.445457782242249"><ele>234.0</ele><time>2026-04-12T05:47:03Z</time></trkpt><trkpt lat="42.09198734430242" lon="14.445548345003518"><ele>234.0</ele><time>2026-04-12T05:47:07Z</time></trkpt><trkpt lat="42.09196879261964" lon="14.445649050124398"><ele>234.0</ele><time>2026-04-12T05:47:11Z</time></trkpt><trkpt lat="42.09195184154182" lon="14.445758155970692"><ele>234.0</ele><time>2026-04-12T05:47:15Z</time></trkpt><trkpt lat="42.0919347759192" lon="14.445864516277787"><ele>234.83333333333334</ele><time>2026-04-12T05:47:19Z</time></trkpt><trkpt lat="42.09192243926952" lon="14.445970374498442"><ele>235.66666666666669</ele><time>2026-04-12T05:47:23Z</time></trkpt><trkpt lat="42.09192776752634" lon="14.446078341610578"><ele>236.5</ele><time>2026-04-12T05:47:26.999Z</time></trkpt><trkpt lat="42.09195466036182" lon="14.446171200106065"><ele>237.33333333333334</ele><time>2026-04-12T05:47:29.999Z</time></trkpt><trkpt lat="42.09199106078733" lon="14.446245780569285"><ele>238.16666666666669</ele><time>2026-04-12T05:47:32.999Z</time></trkpt><trkpt lat="42.09205271190217" lon="14.44630992683206"><ele>239.0</ele><time>2026-04-12T05:47:36.999Z</time></trkpt><trkpt lat="42.09212490166772" lon="14.446344721103157"><ele>240.50000000000003</ele><time>2026-04-12T05:47:40.999Z</time></trkpt><trkpt lat="42.092202674058264" lon="14.44635346377965"><ele>242.0</ele><time>2026-04-12T05:47:44.999Z</time></trkpt><trkpt lat="42.09228253258022" lon="14.446353999747071"><ele>243.5</ele><time>2026-04-12T05:47:48.999Z</time></trkpt><trkpt lat="42.0923599269092" lon="14.446358098167924"><ele>245.0</ele><time>2026-04-12T05:47:52.999Z</time></trkpt><trkpt lat="42.09243875384588" lon="14.44636425327722"><ele>246.50000000000003</ele><time>2026-04-12T05:47:56.999Z</time></trkpt><trkpt lat="42.09251580285461" lon="14.446384804941983"><ele>248.0</ele><time>2026-04-12T05:48:00.999Z</time></trkpt><trkpt lat="42.0925677970231" lon="14.44643420240146"><ele>248.0</ele><time>2026-04-12T05:48:03.999Z</time></trkpt><trkpt lat="42.09260036922469" lon="14.446511567425157"><ele>248.00000000000003</ele><time>2026-04-12T05:48:06.999Z</time></trkpt><trkpt lat="42.09260328424486" lon="14.446601861641781"><ele>248.0</ele><time>2026-04-12T05:48:09.999Z</time></trkpt><trkpt lat="42.09256604554242" lon="14.446697435973707"><ele>248.0</ele><time>2026-04-12T05:48:13.999Z</time></trkpt><trkpt lat="42.092512756013186" lon="14.446775311634743"><ele>248.00000000000003</ele><time>2026-04-12T05:48:17.999Z</time></trkpt><trkpt lat="42.09245883498448" lon="14.446847782336325"><ele>248.0</ele><time>2026-04-12T05:48:21.999Z</time></trkpt><trkpt lat="42.0924004701473" lon="14.44692342110524"><ele>248.0</ele><time>2026-04-12T05:48:25.998Z</time></trkpt><trkpt lat="42.09234049187775" lon="14.447002614252044"><ele>248.00000000000003</ele><time>2026-04-12T05:48:29.998Z</time></trkpt><trkpt lat="42.09228203335608" lon="14.447081759696701"><ele>248.0</ele><time>2026-04-12T05:48:33.998Z</time></trkpt><trkpt lat="42.09223265969105" lon="14.447149645555644"><ele>248.0</ele><time>2026-04-12T05:48:37.998Z</time></trkpt><trkpt lat="42.09216665071265" lon="14.447241402597577"><ele>248.0</ele><time>2026-04-12T05:48:41.998Z</time></trkpt><trkpt lat="42.092120756538264" lon="14.44730835380556"><ele>248.00000000000003</ele><time>2026-04-12T05:48:44.998Z</time></trkpt><trkpt lat="42.092071919099226" lon="14.447365581387396"><ele>248.0</ele><time>2026-04-12T05:48:47.998Z</time></trkpt><trkpt lat="42.09201049779554" lon="14.44743624608321"><ele>249.85714285714286</ele><time>2026-04-12T05:48:51.998Z</time></trkpt><trkpt lat="42.09195983496388" lon="14.447489395395753"><ele>251.71428571428572</ele><time>2026-04-12T05:48:54.998Z</time></trkpt><trkpt lat="42.09188979777595" lon="14.44754917981558"><ele>253.57142857142858</ele><time>2026-04-12T05:48:58.998Z</time></trkpt><trkpt lat="42.09183467797273" lon="14.447593230487644"><ele>255.42857142857144</ele><time>2026-04-12T05:49:01.998Z</time></trkpt><trkpt lat="42.09177664723137" lon="14.447633350672863"><ele>257.2857142857143</ele><time>2026-04-12T05:49:05Z</time></trkpt><trkpt lat="42.09171875083522" lon="14.447671143586634"><ele>259.14285714285717</ele><time>2026-04-12T05:49:08Z</time></trkpt><trkpt lat="42.09165742784196" lon="14.44770324805288"><ele>261.0</ele><time>2026-04-12T05:49:11Z</time></trkpt><trkpt lat="42.09159655739458" lon="14.447740468000733"><ele>261.2857142857143</ele><time>2026-04-12T05:49:14Z</time></trkpt><trkpt lat="42.09153424842907" lon="14.447775313157946"><ele>261.57142857142856</ele><time>2026-04-12T05:49:17Z</time></trkpt><trkpt lat="42.09147010379279" lon="14.447804819114436"><ele>261.85714285714283</ele><time>2026-04-12T05:49:20Z</time></trkpt><trkpt lat="42.09140915951713" lon="14.44783434557677"><ele>262.1428571428571</ele><time>2026-04-12T05:49:23Z</time></trkpt><trkpt lat="42.091347587154786" lon="14.447862428393613"><ele>262.4285714285714</ele><time>2026-04-12T05:49:26Z</time></trkpt><trkpt lat="42.09128387950797" lon="14.447882461162918"><ele>262.7142857142857</ele><time>2026-04-12T05:49:28.999Z</time></trkpt><trkpt lat="42.09121829715485" lon="14.447898070286062"><ele>263.0</ele><time>2026-04-12T05:49:31.999Z</time></trkpt><trkpt lat="42.091153165663165" lon="14.447913644698309"><ele>263.0</ele><time>2026-04-12T05:49:34.999Z</time></trkpt><trkpt lat="42.09108744606433" lon="14.44791596329817"><ele>263.0</ele><time>2026-04-12T05:49:37.999Z</time></trkpt><trkpt lat="42.09102161993382" lon="14.447916930312164"><ele>263.0</ele><time>2026-04-12T05:49:40.999Z</time></trkpt><trkpt lat="42.09095563582904" lon="14.447916929116708"><ele>263.0</ele><time>2026-04-12T05:49:43.999Z</time></trkpt><trkpt lat="42.09088546670524" lon="14.447910754316652"><ele>263.0</ele><time>2026-04-12T05:49:46.999Z</time></trkpt><trkpt lat="42.0908148055015" lon="14.44790422711645"><ele>263.0</ele><time>2026-04-12T05:49:49.999Z</time></trkpt><trkpt lat="42.0907443190043" lon="14.447894816532193"><ele>263.0</ele><time>2026-04-12T05:49:52.999Z</time></trkpt><trkpt lat="42.09067304088859" lon="14.447885785938897"><ele>264.0</ele><time>2026-04-12T05:49:55.999Z</time></trkpt><trkpt lat="42.09060273770445" lon="14.447877604177732"><ele>265.0</ele><time>2026-04-12T05:49:58.999Z</time></trkpt><trkpt lat="42.090533542342115" lon="14.447866598297978"><ele>266.0</ele><time>2026-04-12T05:50:01.999Z</time></trkpt><trkpt lat="42.0904639137832" lon="14.44785519363492"><ele>267.0</ele><time>2026-04-12T05:50:04.999Z</time></trkpt><trkpt lat="42.090394518148706" lon="14.447846449420428"><ele>268.0</ele><time>2026-04-12T05:50:07.999Z</time></trkpt><trkpt lat="42.090323732222814" lon="14.447832359895934"><ele>269.0</ele><time>2026-04-12T05:50:10.999Z</time></trkpt><trkpt lat="42.0902534415059" lon="14.44782012726121"><ele>270.0</ele><time>2026-04-12T05:50:13.999Z</time></trkpt><trkpt lat="42.090183720083225" lon="14.447800519958763"><ele>270.0</ele><time>2026-04-12T05:50:16.999Z</time></trkpt><trkpt lat="42.090113941983276" lon="14.447776654901745"><ele>270.0</ele><time>2026-04-12T05:50:19.999Z</time></trkpt><trkpt lat="42.090044816718596" lon="14.447743878818951"><ele>270.0</ele><time>2026-04-12T05:50:22.999Z</time></trkpt><trkpt lat="42.08997784121813" lon="14.447705576007513"><ele>270.0</ele><time>2026-04-12T05:50:25.998Z</time></trkpt><trkpt lat="42.0899148208092" lon="14.447663615530136"><ele>270.0</ele><time>2026-04-12T05:50:28.998Z</time></trkpt><trkpt lat="42.08985032302802" lon="14.447607470210642"><ele>270.0</ele><time>2026-04-12T05:50:31.998Z</time></trkpt><trkpt lat="42.08978634394085" lon="14.447551040930552"><ele>270.0</ele><time>2026-04-12T05:50:34.998Z</time></trkpt><trkpt lat="42.08972506509785" lon="14.447496306763021"><ele>269.6666666666667</ele><time>2026-04-12T05:50:37.998Z</time></trkpt><trkpt lat="42.0896704926322" lon="14.447452224585962"><ele>269.3333333333333</ele><time>2026-04-12T05:50:40.998Z</time></trkpt><trkpt lat="42.089608910970135" lon="14.447398393727998"><ele>269.0</ele><time>2026-04-12T05:50:43.998Z</time></trkpt><trkpt lat="42.08953272258172" lon="14.447328799294633"><ele>268.66666666666663</ele><time>2026-04-12T05:50:46.998Z</time></trkpt><trkpt lat="42.089469837802554" lon="14.447262749349804"><ele>268.3333333333333</ele><time>2026-04-12T05:50:48.998Z</time></trkpt><trkpt lat="42.08939638050487" lon="14.447186175626435"><ele>268.0</ele><time>2026-04-12T05:50:50.998Z</time></trkpt><trkpt lat="42.089314170443416" lon="14.447102380986971"><ele>268.0</ele><time>2026-04-12T05:50:52.998Z</time></trkpt><trkpt lat="42.0892295997321" lon="14.447021421597043"><ele>268.0</ele><time>2026-04-12T05:50:54.998Z</time></trkpt><trkpt lat="42.08915344635133" lon="14.446931955852207"><ele>268.0</ele><time>2026-04-12T05:50:56.998Z</time></trkpt><trkpt lat="42.089104378633905" lon="14.446781366315856"><ele>268.0</ele><time>2026-04-12T05:50:58.998Z</time></trkpt><trkpt lat="42.08910758810589" lon="14.446624253663817"><ele>268.0</ele><time>2026-04-12T05:51:00.998Z</time></trkpt><trkpt lat="42.08908911199546" lon="14.44650019911815"><ele>269.16666666666663</ele><time>2026-04-12T05:51:02.998Z</time></trkpt><trkpt lat="42.0890325509371" lon="14.446408075509215"><ele>270.3333333333333</ele><time>2026-04-12T05:51:04.998Z</time></trkpt><trkpt lat="42.08895963580421" lon="14.44636958147958"><ele>271.5</ele><time>2026-04-12T05:51:06.998Z</time></trkpt><trkpt lat="42.08889168732268" lon="14.4463578018572"><ele>272.6666666666667</ele><time>2026-04-12T05:51:08.998Z</time></trkpt><trkpt lat="42.08882808583338" lon="14.446354689962602"><ele>273.83333333333337</ele><time>2026-04-12T05:51:11Z</time></trkpt><trkpt lat="42.08873808932358" lon="14.446347649427842"><ele>275.0</ele><time>2026-04-12T05:51:14Z</time></trkpt><trkpt lat="42.088661989335606" lon="14.446325202436672"><ele>275.0</ele><time>2026-04-12T05:51:17Z</time></trkpt><trkpt lat="42.08858062538537" lon="14.446297048933918"><ele>275.0</ele><time>2026-04-12T05:51:20Z</time></trkpt><trkpt lat="42.08849851587863" lon="14.446249749262634"><ele>275.0</ele><time>2026-04-12T05:51:23Z</time></trkpt><trkpt lat="42.088429297812084" lon="14.44619175590723"><ele>275.0</ele><time>2026-04-12T05:51:26Z</time></trkpt><trkpt lat="42.08836244821234" lon="14.446138199305214"><ele>275.0</ele><time>2026-04-12T05:51:29Z</time></trkpt><trkpt lat="42.088296178840196" lon="14.446074786868076"><ele>275.0</ele><time>2026-04-12T05:51:32.999Z</time></trkpt><trkpt lat="42.08823538823711" lon="14.446022990547666"><ele>275.33333333333337</ele><time>2026-04-12T05:51:35.999Z</time></trkpt><trkpt lat="42.08816522087406" lon="14.445954669487863"><ele>275.6666666666667</ele><time>2026-04-12T05:51:38.999Z</time></trkpt><trkpt lat="42.08808852038489" lon="14.445888901620828"><ele>276.0</ele><time>2026-04-12T05:51:41.999Z</time></trkpt><trkpt lat="42.08803274717312" lon="14.445827972605628"><ele>276.3333333333333</ele><time>2026-04-12T05:51:44.999Z</time></trkpt><trkpt lat="42.08796978890542" lon="14.445766673724998"><ele>276.66666666666663</ele><time>2026-04-12T05:51:47.999Z</time></trkpt><trkpt lat="42.087912074099314" lon="14.445709491267309"><ele>277.0</ele><time>2026-04-12T05:51:50.999Z</time></trkpt><trkpt lat="42.087852608748314" lon="14.445653414300768"><ele>277.0</ele><time>2026-04-12T05:51:53.999Z</time></trkpt><trkpt lat="42.08779873109427" lon="14.445600670546082"><ele>277.0</ele><time>2026-04-12T05:51:56.999Z</time></trkpt><trkpt lat="42.08774625260144" lon="14.44555070403984"><ele>277.0</ele><time>2026-04-12T05:51:59.999Z</time></trkpt><trkpt lat="42.08769039435929" lon="14.445493286848494"><ele>277.0</ele><time>2026-04-12T05:52:02.999Z</time></trkpt><trkpt lat="42.08763382320821" lon="14.44543723257804"><ele>277.0</ele><time>2026-04-12T05:52:05.999Z</time></trkpt><trkpt lat="42.08758023128082" lon="14.445381684287238"><ele>277.0</ele><time>2026-04-12T05:52:08.999Z</time></trkpt><trkpt lat="42.08752707604361" lon="14.445322626927679"><ele>277.0</ele><time>2026-04-12T05:52:11.999Z</time></trkpt><trkpt lat="42.087473017577345" lon="14.445264709120801"><ele>277.85714285714283</ele><time>2026-04-12T05:52:14.999Z</time></trkpt><trkpt lat="42.0874228787303" lon="14.445208589386803"><ele>278.71428571428567</ele><time>2026-04-12T05:52:17.999Z</time></trkpt><trkpt lat="42.08736862846802" lon="14.445156388614466"><ele>279.57142857142856</ele><time>2026-04-12T05:52:20.999Z</time></trkpt><trkpt lat="42.08731933695486" lon="14.44510059337079"><ele>280.42857142857144</ele><time>2026-04-12T05:52:23.998Z</time></trkpt><trkpt lat="42.08726726128944" lon="14.445036606869296"><ele>281.28571428571433</ele><time>2026-04-12T05:52:26.998Z</time></trkpt><trkpt lat="42.0872159307457" lon="14.444974795039304"><ele>282.14285714285717</ele><time>2026-04-12T05:52:29.998Z</time></trkpt><trkpt lat="42.08716196521468" lon="14.444913165843559"><ele>283.0</ele><time>2026-04-12T05:52:32.998Z</time></trkpt><trkpt lat="42.087107987024886" lon="14.444852350370589"><ele>283.0</ele><time>2026-04-12T05:52:35.998Z</time></trkpt><trkpt lat="42.087054471326056" lon="14.444793320937418"><ele>283.0</ele><time>2026-04-12T05:52:38.998Z</time></trkpt><trkpt lat="42.08700374757569" lon="14.444733464668705"><ele>283.0</ele><time>2026-04-12T05:52:41.998Z</time></trkpt><trkpt lat="42.08695206046776" lon="14.444677494053243"><ele>283.0</ele><time>2026-04-12T05:52:44.998Z</time></trkpt><trkpt lat="42.086900548723996" lon="14.444623720900745"><ele>283.0</ele><time>2026-04-12T05:52:47.998Z</time></trkpt><trkpt lat="42.08684404941661" lon="14.444572155478411"><ele>283.0</ele><time>2026-04-12T05:52:50.998Z</time></trkpt><trkpt lat="42.08678374416694" lon="14.444520980200027"><ele>283.0</ele><time>2026-04-12T05:52:53.998Z</time></trkpt><trkpt lat="42.0867266016729" lon="14.44447677723038"><ele>284.14285714285717</ele><time>2026-04-12T05:52:56.998Z</time></trkpt><trkpt lat="42.08666617458195" lon="14.44443503892993"><ele>285.28571428571433</ele><time>2026-04-12T05:52:59.998Z</time></trkpt><trkpt lat="42.08660725836536" lon="14.444393202093924"><ele>286.42857142857144</ele><time>2026-04-12T05:53:02.998Z</time></trkpt><trkpt lat="42.08654630536664" lon="14.444356438854863"><ele>287.57142857142856</ele><time>2026-04-12T05:53:05.998Z</time></trkpt><trkpt lat="42.086488725419876" lon="14.444317486482788"><ele>288.71428571428567</ele><time>2026-04-12T05:53:08.998Z</time></trkpt><trkpt lat="42.086427898159585" lon="14.444279698290327"><ele>289.85714285714283</ele><time>2026-04-12T05:53:11.998Z</time></trkpt><trkpt lat="42.086369627952884" lon="14.444243875639103"><ele>291.0</ele><time>2026-04-12T05:53:14.998Z</time></trkpt><trkpt lat="42.086298277015175" lon="14.444198592297061"><ele>291.85714285714283</ele><time>2026-04-12T05:53:19Z</time></trkpt><trkpt lat="42.08622745022583" lon="14.444156293412522"><ele>292.71428571428567</ele><time>2026-04-12T05:53:23Z</time></trkpt><trkpt lat="42.086170059070746" lon="14.444121042252505"><ele>293.57142857142856</ele><time>2026-04-12T05:53:26Z</time></trkpt><trkpt lat="42.0861104418158" lon="14.444088442360908"><ele>294.42857142857144</ele><time>2026-04-12T05:53:29Z</time></trkpt><trkpt lat="42.08605231937019" lon="14.444047583307917"><ele>295.28571428571433</ele><time>2026-04-12T05:53:32Z</time></trkpt><trkpt lat="42.08599314616663" lon="14.444010636172871"><ele>296.14285714285717</ele><time>2026-04-12T05:53:34.999Z</time></trkpt><trkpt lat="42.0859335994796" lon="14.443972512598057"><ele>297.0</ele><time>2026-04-12T05:53:37.999Z</time></trkpt><trkpt lat="42.08587307596396" lon="14.443936146094996"><ele>297.0</ele><time>2026-04-12T05:53:40.999Z</time></trkpt><trkpt lat="42.08581403323847" lon="14.443896600560977"><ele>297.0</ele><time>2026-04-12T05:53:43.999Z</time></trkpt><trkpt lat="42.08575241745223" lon="14.443863260476586"><ele>297.0</ele><time>2026-04-12T05:53:46.999Z</time></trkpt><trkpt lat="42.085693099700364" lon="14.443827313777595"><ele>297.0</ele><time>2026-04-12T05:53:49.999Z</time></trkpt><trkpt lat="42.08563502986369" lon="14.44379012699486"><ele>297.0</ele><time>2026-04-12T05:53:52.999Z</time></trkpt><trkpt lat="42.08557499860125" lon="14.44374998128331"><ele>297.0</ele><time>2026-04-12T05:53:55.999Z</time></trkpt><trkpt lat="42.08551008376453" lon="14.443712562213275"><ele>297.0</ele><time>2026-04-12T05:53:58.999Z</time></trkpt><trkpt lat="42.08544937481772" lon="14.443674679879285"><ele>298.14285714285717</ele><time>2026-04-12T05:54:01.999Z</time></trkpt><trkpt lat="42.08538786636511" lon="14.443636368687065"><ele>299.28571428571433</ele><time>2026-04-12T05:54:04.999Z</time></trkpt><trkpt lat="42.08532472284385" lon="14.443595711732824"><ele>300.42857142857144</ele><time>2026-04-12T05:54:07.999Z</time></trkpt><trkpt lat="42.08525973028107" lon="14.443554351626334"><ele>301.57142857142856</ele><time>2026-04-12T05:54:10.999Z</time></trkpt><trkpt lat="42.08519173485761" lon="14.443515170871137"><ele>302.71428571428567</ele><time>2026-04-12T05:54:13.999Z</time></trkpt><trkpt lat="42.085125948213964" lon="14.443475031965875"><ele>303.8571428571429</ele><time>2026-04-12T05:54:16.999Z</time></trkpt><trkpt lat="42.08505811698343" lon="14.443437277594326"><ele>305.0</ele><time>2026-04-12T05:54:19.999Z</time></trkpt><trkpt lat="42.08498892519205" lon="14.44339472262013"><ele>304.1666666666667</ele><time>2026-04-12T05:54:22.999Z</time></trkpt><trkpt lat="42.08492256598269" lon="14.443355010979458"><ele>303.33333333333337</ele><time>2026-04-12T05:54:25.999Z</time></trkpt><trkpt lat="42.08485507116734" lon="14.443316996509644"><ele>302.5</ele><time>2026-04-12T05:54:28.999Z</time></trkpt><trkpt lat="42.084787068637034" lon="14.443271845682741"><ele>301.6666666666667</ele><time>2026-04-12T05:54:31.998Z</time></trkpt><trkpt lat="42.08471649695075" lon="14.443226936294048"><ele>300.8333333333333</ele><time>2026-04-12T05:54:34.998Z</time></trkpt><trkpt lat="42.08464126047576" lon="14.443181089445519"><ele>300.0</ele><time>2026-04-12T05:54:37.998Z</time></trkpt><trkpt lat="42.084563727225806" lon="14.443133875572409"><ele>300.0</ele><time>2026-04-12T05:54:40.998Z</time></trkpt><trkpt lat="42.08449280205675" lon="14.443068710590715"><ele>300.0</ele><time>2026-04-12T05:54:43.998Z</time></trkpt><trkpt lat="42.08442122737338" lon="14.443011597917483"><ele>300.0</ele><time>2026-04-12T05:54:46.998Z</time></trkpt><trkpt lat="42.084353899756294" lon="14.442956685795226"><ele>300.0</ele><time>2026-04-12T05:54:49.998Z</time></trkpt><trkpt lat="42.08428091125269" lon="14.442916054828954"><ele>300.0</ele><time>2026-04-12T05:54:52.998Z</time></trkpt><trkpt lat="42.08420355801193" lon="14.442871779490558"><ele>300.0</ele><time>2026-04-12T05:54:55.998Z</time></trkpt><trkpt lat="42.08411969276113" lon="14.442851132669405"><ele>301.3333333333333</ele><time>2026-04-12T05:54:58.998Z</time></trkpt><trkpt lat="42.08403024547308" lon="14.442849608081515"><ele>302.6666666666667</ele><time>2026-04-12T05:55:01.998Z</time></trkpt><trkpt lat="42.083943759272486" lon="14.442857191382606"><ele>304.0</ele><time>2026-04-12T05:55:04.998Z</time></trkpt><trkpt lat="42.08386745797728" lon="14.442865093066517"><ele>305.33333333333337</ele><time>2026-04-12T05:55:07.998Z</time></trkpt><trkpt lat="42.083790272384924" lon="14.442869646162759"><ele>306.6666666666667</ele><time>2026-04-12T05:55:10.999Z</time></trkpt><trkpt lat="42.083711506807035" lon="14.442880171351671"><ele>308.0</ele><time>2026-04-12T05:55:13.999Z</time></trkpt><trkpt lat="42.08363102923836" lon="14.442888246332124"><ele>308.0</ele><time>2026-04-12T05:55:16.999Z</time></trkpt><trkpt lat="42.08355243301763" lon="14.442899508090003"><ele>308.0</ele><time>2026-04-12T05:55:19.999Z</time></trkpt><trkpt lat="42.083477186532626" lon="14.442910242379892"><ele>308.0</ele><time>2026-04-12T05:55:23.001Z</time></trkpt><trkpt lat="42.083401529265686" lon="14.442921319240199"><ele>308.0</ele><time>2026-04-12T05:55:26.001Z</time></trkpt><trkpt lat="42.08332890645259" lon="14.442926699851819"><ele>308.0</ele><time>2026-04-12T05:55:29.001Z</time></trkpt><trkpt lat="42.08325873449762" lon="14.442934329301204"><ele>308.0</ele><time>2026-04-12T05:55:32.001Z</time></trkpt><trkpt lat="42.08319240120154" lon="14.44294491241826"><ele>308.0</ele><time>2026-04-12T05:55:35.001Z</time></trkpt><trkpt lat="42.08312610017235" lon="14.442950594034246"><ele>308.42857142857144</ele><time>2026-04-12T05:55:38Z</time></trkpt><trkpt lat="42.08306069223528" lon="14.4429610206336"><ele>308.8571428571429</ele><time>2026-04-12T05:55:41Z</time></trkpt><trkpt lat="42.08299448402742" lon="14.442967931510042"><ele>309.2857142857143</ele><time>2026-04-12T05:55:44Z</time></trkpt><trkpt lat="42.08292750001136" lon="14.442977883872983"><ele>309.7142857142857</ele><time>2026-04-12T05:55:47Z</time></trkpt><trkpt lat="42.08286012941425" lon="14.44298709079277"><ele>310.14285714285717</ele><time>2026-04-12T05:55:50Z</time></trkpt><trkpt lat="42.08279298870698" lon="14.44299789071496"><ele>310.57142857142856</ele><time>2026-04-12T05:55:53Z</time></trkpt><trkpt lat="42.08272478549479" lon="14.443005983989952"><ele>311.0</ele><time>2026-04-12T05:55:56Z</time></trkpt><trkpt lat="42.08265731560322" lon="14.443016477147246"><ele>311.0</ele><time>2026-04-12T05:55:59Z</time></trkpt><trkpt lat="42.082588995133094" lon="14.44302720269472"><ele>311.0</ele><time>2026-04-12T05:56:02Z</time></trkpt><trkpt lat="42.082521045621306" lon="14.443035972436906"><ele>311.0</ele><time>2026-04-12T05:56:05Z</time></trkpt><trkpt lat="42.082452321736554" lon="14.443044487810576"><ele>311.0</ele><time>2026-04-12T05:56:08Z</time></trkpt><trkpt lat="42.0823825551974" lon="14.443057185802541"><ele>311.0</ele><time>2026-04-12T05:56:11Z</time></trkpt><trkpt lat="42.082312448918124" lon="14.443064226139956"><ele>311.0</ele><time>2026-04-12T05:56:14Z</time></trkpt><trkpt lat="42.08224685354436" lon="14.44307214655076"><ele>311.0</ele><time>2026-04-12T05:56:17Z</time></trkpt><trkpt lat="42.08217944549382" lon="14.443076741538711"><ele>311.7142857142857</ele><time>2026-04-12T05:56:20Z</time></trkpt><trkpt lat="42.08211005782169" lon="14.443075840834661"><ele>312.42857142857144</ele><time>2026-04-12T05:56:23Z</time></trkpt><trkpt lat="42.08204216682945" lon="14.443068745785672"><ele>313.14285714285717</ele><time>2026-04-12T05:56:26Z</time></trkpt><trkpt lat="42.08196959307012" lon="14.443049527336676"><ele>313.8571428571429</ele><time>2026-04-12T05:56:29.999Z</time></trkpt><trkpt lat="42.08189629353741" lon="14.443016939123494"><ele>314.57142857142856</ele><time>2026-04-12T05:56:33.999Z</time></trkpt><trkpt lat="42.08182517007188" lon="14.442974881347922"><ele>315.28571428571433</ele><time>2026-04-12T05:56:37.999Z</time></trkpt><trkpt lat="42.08175416994414" lon="14.442927689162545"><ele>316.0</ele><time>2026-04-12T05:56:41.999Z</time></trkpt><trkpt lat="42.081684586853726" lon="14.44287324598232"><ele>317.66666666666663</ele><time>2026-04-12T05:56:45.999Z</time></trkpt><trkpt lat="42.08161451414849" lon="14.442815861472564"><ele>319.3333333333333</ele><time>2026-04-12T05:56:49.999Z</time></trkpt><trkpt lat="42.08154429843333" lon="14.442760586532291"><ele>321.0</ele><time>2026-04-12T05:56:53.999Z</time></trkpt><trkpt lat="42.0814767567036" lon="14.442706029004409"><ele>322.6666666666667</ele><time>2026-04-12T05:56:57.999Z</time></trkpt><trkpt lat="42.08140657834766" lon="14.44265651899167"><ele>324.33333333333337</ele><time>2026-04-12T05:57:01.999Z</time></trkpt><trkpt lat="42.08133906065379" lon="14.442596579626327"><ele>326.0</ele><time>2026-04-12T05:57:05.999Z</time></trkpt><trkpt lat="42.081269561515796" lon="14.442539948115714"><ele>326.14285714285717</ele><time>2026-04-12T05:57:09.999Z</time></trkpt><trkpt lat="42.08119899985638" lon="14.442484357551642"><ele>326.2857142857143</ele><time>2026-04-12T05:57:13.999Z</time></trkpt><trkpt lat="42.08112947911816" lon="14.442430466470173"><ele>326.42857142857144</ele><time>2026-04-12T05:57:17.999Z</time></trkpt><trkpt lat="42.08107291616876" lon="14.442393196642948"><ele>326.57142857142856</ele><time>2026-04-12T05:57:20.999Z</time></trkpt><trkpt lat="42.08101417474266" lon="14.442360252086516"><ele>326.7142857142857</ele><time>2026-04-12T05:57:23.998Z</time></trkpt><trkpt lat="42.08095337542633" lon="14.442325814071854"><ele>326.85714285714283</ele><time>2026-04-12T05:57:26.998Z</time></trkpt><trkpt lat="42.080890417981195" lon="14.442291851783589"><ele>327.0</ele><time>2026-04-12T05:57:30Z</time></trkpt><trkpt lat="42.08082799831674" lon="14.442257832118093"><ele>327.42857142857144</ele><time>2026-04-12T05:57:33Z</time></trkpt><trkpt lat="42.080764183650835" lon="14.442223947729723"><ele>327.8571428571429</ele><time>2026-04-12T05:57:36Z</time></trkpt><trkpt lat="42.080702977758285" lon="14.442184408710512"><ele>328.28571428571433</ele><time>2026-04-12T05:57:39Z</time></trkpt><trkpt lat="42.08062525321921" lon="14.442144761947803"><ele>328.7142857142857</ele><time>2026-04-12T05:57:43Z</time></trkpt><trkpt lat="42.08056483989773" lon="14.442113854540276"><ele>329.14285714285717</ele><time>2026-04-12T05:57:46Z</time></trkpt><trkpt lat="42.0805048707484" lon="14.442080980892403"><ele>329.5714285714286</ele><time>2026-04-12T05:57:49Z</time></trkpt><trkpt lat="42.08044695316203" lon="14.442045182351384"><ele>330.0</ele><time>2026-04-12T05:57:52Z</time></trkpt><trkpt lat="42.08037002448584" lon="14.442005283289955"><ele>330.00000000000006</ele><time>2026-04-12T05:57:56Z</time></trkpt><trkpt lat="42.080311121631645" lon="14.441970259085293"><ele>330.0</ele><time>2026-04-12T05:57:59Z</time></trkpt><trkpt lat="42.08025256374319" lon="14.441936841395488"><ele>330.0</ele><time>2026-04-12T05:58:02Z</time></trkpt><trkpt lat="42.08017490129664" lon="14.44189506905384"><ele>330.0</ele><time>2026-04-12T05:58:06Z</time></trkpt><trkpt lat="42.08011509053905" lon="14.441862005490036"><ele>330.0</ele><time>2026-04-12T05:58:09Z</time></trkpt><trkpt lat="42.08003775155165" lon="14.441822512540298"><ele>330.00000000000006</ele><time>2026-04-12T05:58:13Z</time></trkpt><trkpt lat="42.079956795506256" lon="14.441790035065106"><ele>330.0</ele><time>2026-04-12T05:58:17Z</time></trkpt><trkpt lat="42.079895594611635" lon="14.441767761131725"><ele>331.14285714285717</ele><time>2026-04-12T05:58:20Z</time></trkpt><trkpt lat="42.079829965413744" lon="14.441756541258496"><ele>332.2857142857143</ele><time>2026-04-12T05:58:23Z</time></trkpt><trkpt lat="42.07976684609938" lon="14.441755972968725"><ele>333.42857142857144</ele><time>2026-04-12T05:58:26Z</time></trkpt><trkpt lat="42.07968333845251" lon="14.441762050093068"><ele>334.57142857142856</ele><time>2026-04-12T05:58:30Z</time></trkpt><trkpt lat="42.07961751494503" lon="14.44178010229061"><ele>335.7142857142857</ele><time>2026-04-12T05:58:32.999Z</time></trkpt><trkpt lat="42.079556077087084" lon="14.441804249529559"><ele>336.8571428571429</ele><time>2026-04-12T05:58:35.999Z</time></trkpt><trkpt lat="42.0794978115082" lon="14.441836781485714"><ele>338.0</ele><time>2026-04-12T05:58:38.999Z</time></trkpt><trkpt lat="42.07942992839354" lon="14.4418980413805"><ele>338.0</ele><time>2026-04-12T05:58:42.999Z</time></trkpt><trkpt lat="42.07937144367464" lon="14.441953201784212"><ele>338.0</ele><time>2026-04-12T05:58:46.999Z</time></trkpt><trkpt lat="42.07931465938476" lon="14.442014380974376"><ele>338.0</ele><time>2026-04-12T05:58:50.999Z</time></trkpt><trkpt lat="42.07926165065076" lon="14.442081175862269"><ele>338.0</ele><time>2026-04-12T05:58:54.999Z</time></trkpt><trkpt lat="42.07920487205992" lon="14.442146838568988"><ele>338.0</ele><time>2026-04-12T05:58:58.999Z</time></trkpt><trkpt lat="42.07915901251854" lon="14.442220744186548"><ele>338.0</ele><time>2026-04-12T05:59:02.999Z</time></trkpt><trkpt lat="42.07910016932231" lon="14.442280893887359"><ele>338.0</ele><time>2026-04-12T05:59:06.999Z</time></trkpt><trkpt lat="42.07904803722425" lon="14.442358938620705"><ele>340.0</ele><time>2026-04-12T05:59:10.999Z</time></trkpt><trkpt lat="42.07899128082658" lon="14.442429667846527"><ele>342.0</ele><time>2026-04-12T05:59:14.999Z</time></trkpt><trkpt lat="42.078935216446695" lon="14.442504030285853"><ele>344.0</ele><time>2026-04-12T05:59:18.999Z</time></trkpt><trkpt lat="42.078875156679125" lon="14.442571639423026"><ele>346.0</ele><time>2026-04-12T05:59:22.999Z</time></trkpt><trkpt lat="42.07881923717896" lon="14.442645005069224"><ele>348.0</ele><time>2026-04-12T05:59:26.999Z</time></trkpt><trkpt lat="42.078760191072135" lon="14.442713263871415"><ele>350.0</ele><time>2026-04-12T05:59:30.998Z</time></trkpt><trkpt lat="42.07869753949901" lon="14.442785860375208"><ele>350.0</ele><time>2026-04-12T05:59:35Z</time></trkpt><trkpt lat="42.07864397981662" lon="14.442835425599736"><ele>350.0</ele><time>2026-04-12T05:59:38Z</time></trkpt><trkpt lat="42.078587514402265" lon="14.442881227340537"><ele>350.0</ele><time>2026-04-12T05:59:41Z</time></trkpt><trkpt lat="42.078524805112785" lon="14.442949741519"><ele>350.0</ele><time>2026-04-12T05:59:45Z</time></trkpt><trkpt lat="42.07847302959999" lon="14.443003052597291"><ele>350.0</ele><time>2026-04-12T05:59:48Z</time></trkpt><trkpt lat="42.078410802039464" lon="14.443072032364569"><ele>350.0</ele><time>2026-04-12T05:59:52Z</time></trkpt><trkpt lat="42.0783426997513" lon="14.443134334525471"><ele>350.0</ele><time>2026-04-12T05:59:56Z</time></trkpt><trkpt lat="42.07827514931588" lon="14.44320019784413"><ele>352.0</ele><time>2026-04-12T06:00:00Z</time></trkpt><trkpt lat="42.07821115922105" lon="14.443270266082134"><ele>354.0</ele><time>2026-04-12T06:00:04Z</time></trkpt><trkpt lat="42.07814371073528" lon="14.44333610942107"><ele>356.0</ele><time>2026-04-12T06:00:08Z</time></trkpt><trkpt lat="42.078078747021316" lon="14.443408148561932"><ele>358.0</ele><time>2026-04-12T06:00:12Z</time></trkpt><trkpt lat="42.078026786187635" lon="14.443457537189554"><ele>360.0</ele><time>2026-04-12T06:00:15Z</time></trkpt><trkpt lat="42.077966424368505" lon="14.44352766814099"><ele>362.0</ele><time>2026-04-12T06:00:19Z</time></trkpt><trkpt lat="42.07791611313472" lon="14.44358084202447"><ele>362.0</ele><time>2026-04-12T06:00:22Z</time></trkpt><trkpt lat="42.07786594573338" lon="14.443632625298713"><ele>362.0</ele><time>2026-04-12T06:00:25Z</time></trkpt><trkpt lat="42.07779881976975" lon="14.443698519328773"><ele>362.0</ele><time>2026-04-12T06:00:29Z</time></trkpt><trkpt lat="42.07774992289106" lon="14.443753755316989"><ele>362.0</ele><time>2026-04-12T06:00:32Z</time></trkpt><trkpt lat="42.077693908164896" lon="14.443802963838102"><ele>362.0</ele><time>2026-04-12T06:00:34.999Z</time></trkpt><trkpt lat="42.077643274254825" lon="14.443857984659818"><ele>362.0</ele><time>2026-04-12T06:00:37.999Z</time></trkpt><trkpt lat="42.07758242612053" lon="14.443925278807713"><ele>362.0</ele><time>2026-04-12T06:00:40.999Z</time></trkpt><trkpt lat="42.07751496122363" lon="14.443991244560712"><ele>361.1666666666667</ele><time>2026-04-12T06:00:43.999Z</time></trkpt><trkpt lat="42.077453349767495" lon="14.444059829623566"><ele>360.33333333333337</ele><time>2026-04-12T06:00:46.999Z</time></trkpt><trkpt lat="42.0773895584747" lon="14.44413138467979"><ele>359.5</ele><time>2026-04-12T06:00:49.999Z</time></trkpt><trkpt lat="42.07732287521217" lon="14.44419898240264"><ele>358.6666666666667</ele><time>2026-04-12T06:00:52.999Z</time></trkpt><trkpt lat="42.07725519941761" lon="14.444267494746592"><ele>357.8333333333333</ele><time>2026-04-12T06:00:55.999Z</time></trkpt><trkpt lat="42.07718964023375" lon="14.444332721063587"><ele>357.0</ele><time>2026-04-12T06:00:58.999Z</time></trkpt><trkpt lat="42.0771263756301" lon="14.444398527839054"><ele>357.5</ele><time>2026-04-12T06:01:01.999Z</time></trkpt><trkpt lat="42.07706106438168" lon="14.444476033782323"><ele>358.0</ele><time>2026-04-12T06:01:04.999Z</time></trkpt><trkpt lat="42.07700195249305" lon="14.444553670944275"><ele>358.5</ele><time>2026-04-12T06:01:07.999Z</time></trkpt><trkpt lat="42.076943279973115" lon="14.444629882917134"><ele>359.0</ele><time>2026-04-12T06:01:10.999Z</time></trkpt><trkpt lat="42.07688812757535" lon="14.444719507672104"><ele>359.5</ele><time>2026-04-12T06:01:13.999Z</time></trkpt><trkpt lat="42.07683128349867" lon="14.44481080593513"><ele>360.0</ele><time>2026-04-12T06:01:16.999Z</time></trkpt><trkpt lat="42.07677854488099" lon="14.444907686337725"><ele>360.0</ele><time>2026-04-12T06:01:19.999Z</time></trkpt><trkpt lat="42.07672488161215" lon="14.445004728899981"><ele>360.0</ele><time>2026-04-12T06:01:22.999Z</time></trkpt><trkpt lat="42.076670831172784" lon="14.44509477054602"><ele>360.0</ele><time>2026-04-12T06:01:25.999Z</time></trkpt><trkpt lat="42.07661678512934" lon="14.445184730771038"><ele>360.0</ele><time>2026-04-12T06:01:28.998Z</time></trkpt><trkpt lat="42.0765615097154" lon="14.445276796937508"><ele>360.0</ele><time>2026-04-12T06:01:31.998Z</time></trkpt><trkpt lat="42.076506516243796" lon="14.445368700896536"><ele>360.0</ele><time>2026-04-12T06:01:34.998Z</time></trkpt><trkpt lat="42.076445853445016" lon="14.445457645143183"><ele>360.5</ele><time>2026-04-12T06:01:37.998Z</time></trkpt><trkpt lat="42.07637715615069" lon="14.445539282608003"><ele>361.0</ele><time>2026-04-12T06:01:41Z</time></trkpt><trkpt lat="42.0763026936886" lon="14.445608620410336"><ele>361.5</ele><time>2026-04-12T06:01:44Z</time></trkpt><trkpt lat="42.07622319918047" lon="14.445672939470967"><ele>362.0</ele><time>2026-04-12T06:01:47Z</time></trkpt><trkpt lat="42.076166308410286" lon="14.445709749593403"><ele>362.5</ele><time>2026-04-12T06:01:49Z</time></trkpt><trkpt lat="42.076108769719276" lon="14.445744372817229"><ele>363.0</ele><time>2026-04-12T06:01:51Z</time></trkpt><trkpt lat="42.07604814282357" lon="14.445773419275909"><ele>363.0</ele><time>2026-04-12T06:01:53Z</time></trkpt><trkpt lat="42.075988679729356" lon="14.445804612637925"><ele>363.0</ele><time>2026-04-12T06:01:55Z</time></trkpt><trkpt lat="42.075901483838734" lon="14.445847768055565"><ele>363.0</ele><time>2026-04-12T06:01:58Z</time></trkpt><trkpt lat="42.0758118895904" lon="14.445887026440518"><ele>363.0</ele><time>2026-04-12T06:02:01Z</time></trkpt><trkpt lat="42.075724570789745" lon="14.445927092898168"><ele>363.0</ele><time>2026-04-12T06:02:04Z</time></trkpt><trkpt lat="42.0756423781263" lon="14.4459682551438"><ele>363.0</ele><time>2026-04-12T06:02:07Z</time></trkpt><trkpt lat="42.075559380652706" lon="14.44600898107915"><ele>363.1428571428571</ele><time>2026-04-12T06:02:10Z</time></trkpt><trkpt lat="42.07548929026099" lon="14.446036160126578"><ele>363.2857142857143</ele><time>2026-04-12T06:02:13Z</time></trkpt><trkpt lat="42.07541314897322" lon="14.44605232144692"><ele>363.42857142857144</ele><time>2026-04-12T06:02:17Z</time></trkpt><trkpt lat="42.075348627677506" lon="14.446096586418367"><ele>363.57142857142856</ele><time>2026-04-12T06:04:13Z</time></trkpt><trkpt lat="42.07528841941628" lon="14.446123588543218"><ele>363.7142857142857</ele><time>2026-04-12T06:04:16Z</time></trkpt><trkpt lat="42.07521990116871" lon="14.446155070978152"><ele>363.85714285714283</ele><time>2026-04-12T06:04:19Z</time></trkpt><trkpt lat="42.07513820729719" lon="14.44618797663494"><ele>364.0</ele><time>2026-04-12T06:04:22Z</time></trkpt><trkpt lat="42.075051980652816" lon="14.446227772234437"><ele>364.0</ele><time>2026-04-12T06:04:25Z</time></trkpt><trkpt lat="42.074979246112385" lon="14.446263905771032"><ele>364.0</ele><time>2026-04-12T06:04:27Z</time></trkpt><trkpt lat="42.074906760755425" lon="14.446292668158598"><ele>364.0</ele><time>2026-04-12T06:04:29Z</time></trkpt><trkpt lat="42.07484857365177" lon="14.446325217699139"><ele>364.0</ele><time>2026-04-12T06:04:31Z</time></trkpt><trkpt lat="42.07478620266777" lon="14.446345211836412"><ele>364.0</ele><time>2026-04-12T06:04:33Z</time></trkpt><trkpt lat="42.07472576424142" lon="14.446376580255162"><ele>364.0</ele><time>2026-04-12T06:04:35Z</time></trkpt><trkpt lat="42.074635048126" lon="14.446418738317712"><ele>364.0</ele><time>2026-04-12T06:04:38Z</time></trkpt><trkpt lat="42.07457323520273" lon="14.446448608246184"><ele>363.85714285714283</ele><time>2026-04-12T06:04:40Z</time></trkpt><trkpt lat="42.07450965208068" lon="14.446475875405273"><ele>363.7142857142857</ele><time>2026-04-12T06:04:41.999Z</time></trkpt><trkpt lat="42.074443571402995" lon="14.446504550376385"><ele>363.57142857142856</ele><time>2026-04-12T06:04:43.999Z</time></trkpt><trkpt lat="42.07437888430012" lon="14.446534086589903"><ele>363.42857142857144</ele><time>2026-04-12T06:04:45.999Z</time></trkpt><trkpt lat="42.074313450775186" lon="14.446565822142073"><ele>363.2857142857143</ele><time>2026-04-12T06:04:47.999Z</time></trkpt><trkpt lat="42.07425133912101" lon="14.446597511335527"><ele>363.1428571428571</ele><time>2026-04-12T06:04:49.999Z</time></trkpt><trkpt lat="42.07418899785657" lon="14.446626378442007"><ele>363.0</ele><time>2026-04-12T06:04:51.999Z</time></trkpt><trkpt lat="42.074125477963115" lon="14.446655643101007"><ele>362.71428571428567</ele><time>2026-04-12T06:04:53.999Z</time></trkpt><trkpt lat="42.074060318682534" lon="14.446686243444192"><ele>362.42857142857144</ele><time>2026-04-12T06:04:55.999Z</time></trkpt><trkpt lat="42.07399658814576" lon="14.446720082756569"><ele>362.1428571428571</ele><time>2026-04-12T06:04:57.999Z</time></trkpt><trkpt lat="42.07393417364776" lon="14.446752798739963"><ele>361.85714285714283</ele><time>2026-04-12T06:04:59.999Z</time></trkpt><trkpt lat="42.073870919772524" lon="14.446782360954531"><ele>361.57142857142856</ele><time>2026-04-12T06:05:01.999Z</time></trkpt><trkpt lat="42.073811197089434" lon="14.446813104348546"><ele>361.2857142857143</ele><time>2026-04-12T06:05:03.999Z</time></trkpt><trkpt lat="42.07372702478653" lon="14.446860410250858"><ele>361.0</ele><time>2026-04-12T06:05:06.999Z</time></trkpt><trkpt lat="42.073639925174994" lon="14.446904771847944"><ele>361.0</ele><time>2026-04-12T06:05:09.999Z</time></trkpt><trkpt lat="42.07355429692087" lon="14.446948509294511"><ele>361.0</ele><time>2026-04-12T06:05:12.999Z</time></trkpt><trkpt lat="42.07349303774508" lon="14.446975834532244"><ele>361.0</ele><time>2026-04-12T06:05:14.999Z</time></trkpt><trkpt lat="42.073430154656414" lon="14.447006642480746"><ele>361.0</ele><time>2026-04-12T06:05:16.999Z</time></trkpt><trkpt lat="42.07336734065111" lon="14.447040662488366"><ele>361.0</ele><time>2026-04-12T06:05:18.999Z</time></trkpt><trkpt lat="42.07330734713023" lon="14.447071007412996"><ele>361.0</ele><time>2026-04-12T06:05:20.999Z</time></trkpt><trkpt lat="42.07321952340041" lon="14.447117903060114"><ele>361.0</ele><time>2026-04-12T06:05:23.999Z</time></trkpt><trkpt lat="42.07312950460118" lon="14.447149047984945"><ele>363.16666666666663</ele><time>2026-04-12T06:05:26.999Z</time></trkpt><trkpt lat="42.073049377440384" lon="14.447189303644445"><ele>365.3333333333333</ele><time>2026-04-12T06:05:29.999Z</time></trkpt><trkpt lat="42.07297927297956" lon="14.447232962580635"><ele>367.5</ele><time>2026-04-12T06:05:32.999Z</time></trkpt><trkpt lat="42.0728980786415" lon="14.447267866123"><ele>369.6666666666667</ele><time>2026-04-12T06:05:35.998Z</time></trkpt><trkpt lat="42.07281202214394" lon="14.447303509650672"><ele>371.83333333333337</ele><time>2026-04-12T06:05:38.998Z</time></trkpt><trkpt lat="42.07272564918668" lon="14.447324681606617"><ele>374.0</ele><time>2026-04-12T06:05:41.998Z</time></trkpt><trkpt lat="42.072644027416466" lon="14.447350374078948"><ele>374.0</ele><time>2026-04-12T06:05:44.998Z</time></trkpt><trkpt lat="42.07256858573568" lon="14.447375823904949"><ele>374.0</ele><time>2026-04-12T06:05:47.998Z</time></trkpt><trkpt lat="42.07249988050947" lon="14.44740127301631"><ele>374.0</ele><time>2026-04-12T06:05:51Z</time></trkpt><trkpt lat="42.072434218266835" lon="14.447426562589671"><ele>374.0</ele><time>2026-04-12T06:05:54Z</time></trkpt><trkpt lat="42.072371256246164" lon="14.44744987086285"><ele>374.0</ele><time>2026-04-12T06:05:57Z</time></trkpt><trkpt lat="42.07230858037242" lon="14.447476148437252"><ele>374.0</ele><time>2026-04-12T06:06:00Z</time></trkpt><trkpt lat="42.07222562028035" lon="14.447482273821421"><ele>374.0</ele><time>2026-04-12T06:06:04Z</time></trkpt><trkpt lat="42.072147455459756" lon="14.447496643449282"><ele>375.2857142857143</ele><time>2026-04-12T06:06:08Z</time></trkpt><trkpt lat="42.07208322373916" lon="14.447504526774253"><ele>376.5714285714286</ele><time>2026-04-12T06:06:11Z</time></trkpt><trkpt lat="42.07200632497452" lon="14.447508324949998"><ele>377.8571428571429</ele><time>2026-04-12T06:06:15Z</time></trkpt><trkpt lat="42.071931642854025" lon="14.447494934018799"><ele>379.1428571428571</ele><time>2026-04-12T06:06:19Z</time></trkpt><trkpt lat="42.07185360277356" lon="14.44748273897615"><ele>380.42857142857144</ele><time>2026-04-12T06:06:23Z</time></trkpt><trkpt lat="42.07178437817691" lon="14.447442066500969"><ele>381.7142857142857</ele><time>2026-04-12T06:06:26Z</time></trkpt><trkpt lat="42.07171633962928" lon="14.447399918556064"><ele>383.0</ele><time>2026-04-12T06:06:29Z</time></trkpt><trkpt lat="42.07165200133915" lon="14.447356567531513"><ele>383.1428571428571</ele><time>2026-04-12T06:06:32Z</time></trkpt><trkpt lat="42.07158838193359" lon="14.447308306862517"><ele>383.2857142857143</ele><time>2026-04-12T06:06:35Z</time></trkpt><trkpt lat="42.071525640661356" lon="14.447262649749353"><ele>383.42857142857144</ele><time>2026-04-12T06:06:38Z</time></trkpt><trkpt lat="42.07146182860053" lon="14.447220410863661"><ele>383.57142857142856</ele><time>2026-04-12T06:06:40.999Z</time></trkpt><trkpt lat="42.071396260527656" lon="14.447178044061216"><ele>383.7142857142857</ele><time>2026-04-12T06:06:43.999Z</time></trkpt><trkpt lat="42.071332835578666" lon="14.447134927795654"><ele>383.85714285714283</ele><time>2026-04-12T06:06:46.999Z</time></trkpt><trkpt lat="42.07127165565209" lon="14.447095809799151"><ele>384.0</ele><time>2026-04-12T06:06:49.999Z</time></trkpt><trkpt lat="42.07120967787396" lon="14.447062042171321"><ele>383.99999999999994</ele><time>2026-04-12T06:06:52.999Z</time></trkpt><trkpt lat="42.07114353674567" lon="14.447017581460969"><ele>384.0</ele><time>2026-04-12T06:06:55.999Z</time></trkpt><trkpt lat="42.0710810479779" lon="14.446980622186478"><ele>384.0</ele><time>2026-04-12T06:06:58.999Z</time></trkpt><trkpt lat="42.07102419085545" lon="14.446940277501962"><ele>384.0</ele><time>2026-04-12T06:07:01.999Z</time></trkpt><trkpt lat="42.070961592428496" lon="14.446904748578682"><ele>384.0</ele><time>2026-04-12T06:07:04.999Z</time></trkpt><trkpt lat="42.070901328025435" lon="14.446868620994634"><ele>383.99999999999994</ele><time>2026-04-12T06:07:07.999Z</time></trkpt><trkpt lat="42.07082230168863" lon="14.44683846964399"><ele>384.0</ele><time>2026-04-12T06:07:11.999Z</time></trkpt><trkpt lat="42.07074456546774" lon="14.446810086281097"><ele>384.0</ele><time>2026-04-12T06:07:15.999Z</time></trkpt><trkpt lat="42.0706639292388" lon="14.446811063679405"><ele>384.0</ele><time>2026-04-12T06:07:19.999Z</time></trkpt><trkpt lat="42.07058242464272" lon="14.446820518563673"><ele>384.0</ele><time>2026-04-12T06:07:23.999Z</time></trkpt><trkpt lat="42.07051541109606" lon="14.446830782526469"><ele>384.0</ele><time>2026-04-12T06:07:27.999Z</time></trkpt><trkpt lat="42.070443977373465" lon="14.446859896739621"><ele>384.0</ele><time>2026-04-12T06:07:31.999Z</time></trkpt><trkpt lat="42.07036411166579" lon="14.446887962504277"><ele>384.0</ele><time>2026-04-12T06:07:35.998Z</time></trkpt><trkpt lat="42.070290249606465" lon="14.446905377078496"><ele>384.0</ele><time>2026-04-12T06:07:39.998Z</time></trkpt><trkpt lat="42.0702199227698" lon="14.446928759805495"><ele>384.0</ele><time>2026-04-12T06:07:43.998Z</time></trkpt><trkpt lat="42.07014689648695" lon="14.446950534062655"><ele>384.0</ele><time>2026-04-12T06:07:47.998Z</time></trkpt><trkpt lat="42.07007236839172" lon="14.446973376647314"><ele>384.0</ele><time>2026-04-12T06:07:51.998Z</time></trkpt><trkpt lat="42.07000156996106" lon="14.446997351733732"><ele>384.0</ele><time>2026-04-12T06:07:55.998Z</time></trkpt><trkpt lat="42.06992676979382" lon="14.447027499637255"><ele>384.0</ele><time>2026-04-12T06:08:00Z</time></trkpt><trkpt lat="42.06985317800936" lon="14.447051210441181"><ele>384.6666666666667</ele><time>2026-04-12T06:08:04Z</time></trkpt><trkpt lat="42.069776566049335" lon="14.447076637487466"><ele>385.33333333333337</ele><time>2026-04-12T06:08:08Z</time></trkpt><trkpt lat="42.06970345361044" lon="14.447106767735898"><ele>386.0</ele><time>2026-04-12T06:08:12Z</time></trkpt><trkpt lat="42.06963170337696" lon="14.44712939450175"><ele>386.6666666666667</ele><time>2026-04-12T06:08:16Z</time></trkpt><trkpt lat="42.06956013310926" lon="14.447151938424913"><ele>387.33333333333337</ele><time>2026-04-12T06:08:20Z</time></trkpt><trkpt lat="42.06948896583367" lon="14.447176287239586"><ele>388.0</ele><time>2026-04-12T06:08:24Z</time></trkpt><trkpt lat="42.0694137766012" lon="14.44720041053013"><ele>390.4285714285714</ele><time>2026-04-12T06:08:28Z</time></trkpt><trkpt lat="42.06933970120112" lon="14.447229141240989"><ele>392.8571428571429</ele><time>2026-04-12T06:08:32Z</time></trkpt><trkpt lat="42.06926446921954" lon="14.4472540911238"><ele>395.2857142857143</ele><time>2026-04-12T06:08:36Z</time></trkpt><trkpt lat="42.06919223555772" lon="14.4472705242942"><ele>397.71428571428567</ele><time>2026-04-12T06:08:40Z</time></trkpt><trkpt lat="42.069128177721566" lon="14.447290634829205"><ele>400.1428571428571</ele><time>2026-04-12T06:08:43.999Z</time></trkpt><trkpt lat="42.06905910925639" lon="14.447314139103462"><ele>402.57142857142856</ele><time>2026-04-12T06:08:47.999Z</time></trkpt><trkpt lat="42.06898869709503" lon="14.44734481026269"><ele>405.0</ele><time>2026-04-12T06:08:51.999Z</time></trkpt><trkpt lat="42.06891500023024" lon="14.447375762160396"><ele>406.8333333333333</ele><time>2026-04-12T06:08:55.999Z</time></trkpt><trkpt lat="42.06883833796808" lon="14.44741022199148"><ele>408.66666666666663</ele><time>2026-04-12T06:08:59.999Z</time></trkpt><trkpt lat="42.06876674540191" lon="14.44742942563722"><ele>410.5</ele><time>2026-04-12T06:09:03.999Z</time></trkpt><trkpt lat="42.0686960709095" lon="14.447445560723798"><ele>412.3333333333333</ele><time>2026-04-12T06:09:07.999Z</time></trkpt><trkpt lat="42.068626429075614" lon="14.447458422943836"><ele>414.16666666666663</ele><time>2026-04-12T06:09:11.999Z</time></trkpt><trkpt lat="42.068549518999916" lon="14.447458268456208"><ele>416.0</ele><time>2026-04-12T06:09:15.999Z</time></trkpt><trkpt lat="42.06847195129943" lon="14.447455977055917"><ele>416.0</ele><time>2026-04-12T06:09:19.999Z</time></trkpt><trkpt lat="42.068393580354694" lon="14.447442445173122"><ele>416.0</ele><time>2026-04-12T06:09:23.999Z</time></trkpt><trkpt lat="42.06831873339204" lon="14.447429919893514"><ele>416.0</ele><time>2026-04-12T06:09:27.999Z</time></trkpt><trkpt lat="42.06824183282253" lon="14.447404285298767"><ele>416.0</ele><time>2026-04-12T06:09:31.999Z</time></trkpt><trkpt lat="42.06818001823097" lon="14.447359607334551"><ele>416.0</ele><time>2026-04-12T06:09:35.999Z</time></trkpt><trkpt lat="42.06813002068388" lon="14.447294798519716"><ele>416.0</ele><time>2026-04-12T06:09:39.998Z</time></trkpt><trkpt lat="42.0680776438716" lon="14.447239546330904"><ele>416.0</ele><time>2026-04-12T06:09:42.998Z</time></trkpt><trkpt lat="42.06802178784468" lon="14.447199189956027"><ele>420.3333333333333</ele><time>2026-04-12T06:09:45.998Z</time></trkpt><trkpt lat="42.06795089833425" lon="14.447150959377012"><ele>424.66666666666663</ele><time>2026-04-12T06:09:49.998Z</time></trkpt><trkpt lat="42.06790287050705" lon="14.447085221197323"><ele>429.0</ele><time>2026-04-12T06:09:53.998Z</time></trkpt><trkpt lat="42.06788471167431" lon="14.446983614722274"><ele>433.33333333333337</ele><time>2026-04-12T06:09:57.998Z</time></trkpt><trkpt lat="42.067873884837496" lon="14.446886659434796"><ele>437.6666666666667</ele><time>2026-04-12T06:10:01.998Z</time></trkpt><trkpt lat="42.067865546907335" lon="14.44678281001628"><ele>442.0</ele><time>2026-04-12T06:10:06Z</time></trkpt><trkpt lat="42.0678627205396" lon="14.446682929205519"><ele>442.00000000000006</ele><time>2026-04-12T06:10:10Z</time></trkpt><trkpt lat="42.067858587455504" lon="14.446577714716783"><ele>442.0</ele><time>2026-04-12T06:10:14Z</time></trkpt><trkpt lat="42.067852381784085" lon="14.446477112998446"><ele>442.0</ele><time>2026-04-12T06:10:18Z</time></trkpt><trkpt lat="42.06784457768768" lon="14.446374677010843"><ele>442.0</ele><time>2026-04-12T06:10:22Z</time></trkpt><trkpt lat="42.06783929808115" lon="14.446271431465478"><ele>442.00000000000006</ele><time>2026-04-12T06:10:26Z</time></trkpt><trkpt lat="42.067831463269314" lon="14.44616675800473"><ele>442.0</ele><time>2026-04-12T06:10:30Z</time></trkpt><trkpt lat="42.067829089481755" lon="14.446063880249977"><ele>441.5714285714286</ele><time>2026-04-12T06:10:34Z</time></trkpt><trkpt lat="42.067829066869145" lon="14.445959883857823"><ele>441.14285714285717</ele><time>2026-04-12T06:10:38Z</time></trkpt><trkpt lat="42.06781197897133" lon="14.445860659569597"><ele>440.7142857142857</ele><time>2026-04-12T06:10:42Z</time></trkpt><trkpt lat="42.06779142404432" lon="14.445764794217201"><ele>440.28571428571433</ele><time>2026-04-12T06:10:45.999Z</time></trkpt><trkpt lat="42.06775737769657" lon="14.445680534712295"><ele>439.85714285714283</ele><time>2026-04-12T06:10:49.999Z</time></trkpt><trkpt lat="42.067716818331235" lon="14.445601381461268"><ele>439.42857142857144</ele><time>2026-04-12T06:10:53.999Z</time></trkpt><trkpt lat="42.06767368343114" lon="14.445537360834079"><ele>439.0</ele><time>2026-04-12T06:10:57.999Z</time></trkpt><trkpt lat="42.06763927563432" lon="14.445457923120182"><ele>439.57142857142856</ele><time>2026-04-12T06:11:02.999Z</time></trkpt><trkpt lat="42.06760060635553" lon="14.445388172995312"><ele>440.1428571428571</ele><time>2026-04-12T06:11:06.999Z</time></trkpt><trkpt lat="42.067550929000255" lon="14.44531245095016"><ele>440.7142857142857</ele><time>2026-04-12T06:11:11.999Z</time></trkpt><trkpt lat="42.067507914124995" lon="14.445220067151789"><ele>441.2857142857143</ele><time>2026-04-12T06:11:15.999Z</time></trkpt><trkpt lat="42.06747189869653" lon="14.445128179401017"><ele>441.8571428571429</ele><time>2026-04-12T06:11:19.999Z</time></trkpt><trkpt lat="42.06742486815349" lon="14.445064164216596"><ele>442.42857142857144</ele><time>2026-04-12T06:11:23.999Z</time></trkpt><trkpt lat="42.067391293246075" lon="14.444991048782404"><ele>443.0</ele><time>2026-04-12T06:11:27.999Z</time></trkpt><trkpt lat="42.067342726388716" lon="14.444902382917581"><ele>443.0</ele><time>2026-04-12T06:11:31.999Z</time></trkpt><trkpt lat="42.06730573614048" lon="14.444818467668545"><ele>443.0</ele><time>2026-04-12T06:11:34.999Z</time></trkpt><trkpt lat="42.06726093882234" lon="14.444737138306024"><ele>443.0</ele><time>2026-04-12T06:11:37.999Z</time></trkpt><trkpt lat="42.0672162687322" lon="14.444666221568587"><ele>443.0</ele><time>2026-04-12T06:11:40.998Z</time></trkpt><trkpt lat="42.06718012863471" lon="14.444586115171914"><ele>443.0</ele><time>2026-04-12T06:11:43.998Z</time></trkpt><trkpt lat="42.067153493002046" lon="14.444508398519128"><ele>443.0</ele><time>2026-04-12T06:11:46.998Z</time></trkpt><trkpt lat="42.06711503284872" lon="14.444438523549843"><ele>443.0</ele><time>2026-04-12T06:11:49.998Z</time></trkpt><trkpt lat="42.06707317813848" lon="14.444343865606273"><ele>441.66666666666663</ele><time>2026-04-12T06:11:54.998Z</time></trkpt><trkpt lat="42.067032450100214" lon="14.444252734035548"><ele>440.3333333333333</ele><time>2026-04-12T06:11:59.998Z</time></trkpt><trkpt lat="42.06699444198044" lon="14.444158408629418"><ele>439.0</ele><time>2026-04-12T06:12:03.998Z</time></trkpt><trkpt lat="42.06694238173618" lon="14.444092398822136"><ele>437.66666666666663</ele><time>2026-04-12T06:12:09Z</time></trkpt><trkpt lat="42.06695191765729" lon="14.444218042977568"><ele>436.3333333333333</ele><time>2026-04-12T06:12:19Z</time></trkpt><trkpt lat="42.06697064135337" lon="14.444338766020156"><ele>435.0</ele><time>2026-04-12T06:12:26Z</time></trkpt><trkpt lat="42.06697893913168" lon="14.444424962971361"><ele>435.00000000000006</ele><time>2026-04-12T06:12:29Z</time></trkpt><trkpt lat="42.06695733679799" lon="14.44450747137782"><ele>435.0</ele><time>2026-04-12T06:12:32Z</time></trkpt><trkpt lat="42.066906540794115" lon="14.44458268044546"><ele>435.0</ele><time>2026-04-12T06:12:36Z</time></trkpt><trkpt lat="42.06685539459319" lon="14.444645501698758"><ele>435.0</ele><time>2026-04-12T06:12:39Z</time></trkpt><trkpt lat="42.066770681350505" lon="14.444686238422891"><ele>435.0</ele><time>2026-04-12T06:12:42Z</time></trkpt><trkpt lat="42.066707473047614" lon="14.444733227268623"><ele>435.00000000000006</ele><time>2026-04-12T06:12:45Z</time></trkpt><trkpt lat="42.06664525251232" lon="14.444746223454032"><ele>435.0</ele><time>2026-04-12T06:12:46.999Z</time></trkpt><trkpt lat="42.066586008545826" lon="14.444798686818956"><ele>431.7142857142857</ele><time>2026-04-12T06:12:49.999Z</time></trkpt><trkpt lat="42.06653940740526" lon="14.444859952524844"><ele>428.42857142857144</ele><time>2026-04-12T06:12:52.999Z</time></trkpt><trkpt lat="42.06649244338424" lon="14.444928419667345"><ele>425.1428571428571</ele><time>2026-04-12T06:12:55.999Z</time></trkpt><trkpt lat="42.06646405992159" lon="14.445005997451766"><ele>421.8571428571429</ele><time>2026-04-12T06:12:58.999Z</time></trkpt><trkpt lat="42.06642507635233" lon="14.445079240789537"><ele>418.57142857142856</ele><time>2026-04-12T06:13:01.999Z</time></trkpt><trkpt lat="42.06639160519604" lon="14.44515479856795"><ele>415.2857142857143</ele><time>2026-04-12T06:13:04.999Z</time></trkpt><trkpt lat="42.0663674077225" lon="14.445262063584435"><ele>412.0</ele><time>2026-04-12T06:13:08.999Z</time></trkpt><trkpt lat="42.06634050422143" lon="14.445342359620142"><ele>412.00000000000006</ele><time>2026-04-12T06:13:11.999Z</time></trkpt><trkpt lat="42.06632631677008" lon="14.445430270203422"><ele>412.0</ele><time>2026-04-12T06:13:14.999Z</time></trkpt><trkpt lat="42.066312339187604" lon="14.445531844497436"><ele>412.0</ele><time>2026-04-12T06:13:17.999Z</time></trkpt><trkpt lat="42.06629493213168" lon="14.44564024907427"><ele>412.0</ele><time>2026-04-12T06:13:20.999Z</time></trkpt><trkpt lat="42.06628155121938" lon="14.445751430496518"><ele>412.00000000000006</ele><time>2026-04-12T06:13:23.999Z</time></trkpt><trkpt lat="42.06626346870601" lon="14.445864504661834"><ele>412.0</ele><time>2026-04-12T06:13:26.999Z</time></trkpt><trkpt lat="42.06623264866664" lon="14.445968988974764"><ele>414.6666666666667</ele><time>2026-04-12T06:13:29.999Z</time></trkpt><trkpt lat="42.066202479623925" lon="14.446077046870125"><ele>417.33333333333337</ele><time>2026-04-12T06:13:32.999Z</time></trkpt><trkpt lat="42.066187684723076" lon="14.446192550638614"><ele>420.0</ele><time>2026-04-12T06:13:35.999Z</time></trkpt><trkpt lat="42.066177810033594" lon="14.446304857926423"><ele>422.66666666666663</ele><time>2026-04-12T06:13:38.999Z</time></trkpt><trkpt lat="42.06617106383427" lon="14.446420443264143"><ele>425.3333333333333</ele><time>2026-04-12T06:13:41.998Z</time></trkpt><trkpt lat="42.066181440695274" lon="14.446518839540923"><ele>428.0</ele><time>2026-04-12T06:13:44.998Z</time></trkpt><trkpt lat="42.06620394508916" lon="14.446621469808338"><ele>428.28571428571433</ele><time>2026-04-12T06:13:47.998Z</time></trkpt><trkpt lat="42.06622170249904" lon="14.446715353026907"><ele>428.57142857142856</ele><time>2026-04-12T06:13:50.998Z</time></trkpt><trkpt lat="42.066245283802125" lon="14.446798499612369"><ele>428.8571428571429</ele><time>2026-04-12T06:13:53.998Z</time></trkpt><trkpt lat="42.0662481441436" lon="14.44689555722536"><ele>429.14285714285717</ele><time>2026-04-12T06:13:55.998Z</time></trkpt><trkpt lat="42.06628494651499" lon="14.446966168348055"><ele>429.42857142857144</ele><time>2026-04-12T06:13:58.998Z</time></trkpt><trkpt lat="42.0663513084489" lon="14.447037232525412"><ele>429.7142857142857</ele><time>2026-04-12T06:14:01.998Z</time></trkpt><trkpt lat="42.0664324670394" lon="14.44709037117846"><ele>430.0</ele><time>2026-04-12T06:14:04.998Z</time></trkpt><trkpt lat="42.06650955396533" lon="14.447123495464181"><ele>427.00000000000006</ele><time>2026-04-12T06:14:07.998Z</time></trkpt><trkpt lat="42.06658893564471" lon="14.447155685577911"><ele>424.0</ele><time>2026-04-12T06:14:10.998Z</time></trkpt><trkpt lat="42.06666557408911" lon="14.447192080643516"><ele>421.0</ele><time>2026-04-12T06:14:13.998Z</time></trkpt><trkpt lat="42.06674896150174" lon="14.44720539857562"><ele>418.0</ele><time>2026-04-12T06:14:17Z</time></trkpt><trkpt lat="42.06682710254409" lon="14.447241652812151"><ele>415.00000000000006</ele><time>2026-04-12T06:14:20Z</time></trkpt><trkpt lat="42.06690790993233" lon="14.447284197127143"><ele>412.0</ele><time>2026-04-12T06:14:23Z</time></trkpt><trkpt lat="42.06696682727568" lon="14.447318409139974"><ele>418.1666666666667</ele><time>2026-04-12T06:14:25Z</time></trkpt><trkpt lat="42.06702274949851" lon="14.447365983049144"><ele>424.33333333333337</ele><time>2026-04-12T06:14:27Z</time></trkpt><trkpt lat="42.067075073546555" lon="14.44741600340757"><ele>430.5</ele><time>2026-04-12T06:14:29Z</time></trkpt><trkpt lat="42.06712801539294" lon="14.447516191196653"><ele>436.66666666666663</ele><time>2026-04-12T06:14:32Z</time></trkpt><trkpt lat="42.06716704595324" lon="14.447616586198574"><ele>442.8333333333333</ele><time>2026-04-12T06:14:35Z</time></trkpt><trkpt lat="42.06720545428321" lon="14.447727881956318"><ele>449.0</ele><time>2026-04-12T06:14:38Z</time></trkpt><trkpt lat="42.06724721524979" lon="14.447832328932854"><ele>448.99999999999994</ele><time>2026-04-12T06:14:41Z</time></trkpt><trkpt lat="42.06727498234889" lon="14.447937657807413"><ele>449.0</ele><time>2026-04-12T06:14:44Z</time></trkpt><trkpt lat="42.06730071389037" lon="14.448035843054422"><ele>449.0</ele><time>2026-04-12T06:14:48Z</time></trkpt><trkpt lat="42.067330355038564" lon="14.448144503068416"><ele>449.0</ele><time>2026-04-12T06:15:22.999Z</time></trkpt><trkpt lat="42.06739804546187" lon="14.448141157714485"><ele>448.99999999999994</ele><time>2026-04-12T06:15:35.999Z</time></trkpt><trkpt lat="42.06737696166453" lon="14.448228221781564"><ele>449.0</ele><time>2026-04-12T06:16:02.998Z</time></trkpt><trkpt lat="42.06731040165183" lon="14.448261959827349"><ele>447.0</ele><time>2026-04-12T06:16:16.998Z</time></trkpt><trkpt lat="42.06725590329866" lon="14.44830997607424"><ele>445.0</ele><time>2026-04-12T06:16:27Z</time></trkpt><trkpt lat="42.06720094843766" lon="14.448354206593228"><ele>443.0</ele><time>2026-04-12T06:16:39Z</time></trkpt><trkpt lat="42.06713141618059" lon="14.448323965862285"><ele>441.0</ele><time>2026-04-12T06:16:45Z</time></trkpt><trkpt lat="42.06708901798317" lon="14.448430089283958"><ele>439.0</ele><time>2026-04-12T06:16:48Z</time></trkpt><trkpt lat="42.0667264101698" lon="14.448609992312706"><ele>439.0</ele><time>2026-04-12T06:16:50Z</time></trkpt><trkpt lat="42.06682813382969" lon="14.448533941779797"><ele>439.0</ele><time>2026-04-12T06:16:54Z</time></trkpt><trkpt lat="42.066937559404096" lon="14.448478254702698"><ele>439.0</ele><time>2026-04-12T06:17:00.999Z</time></trkpt><trkpt lat="42.06705377320982" lon="14.448384295524612"><ele>439.0</ele><time>2026-04-12T06:17:05.999Z</time></trkpt><trkpt lat="42.06723029402845" lon="14.448355147795453"><ele>439.00000000000006</ele><time>2026-04-12T06:18:04.998Z</time></trkpt><trkpt lat="42.067219158345566" lon="14.448270174127941"><ele>439.0</ele><time>2026-04-12T06:19:37.999Z</time></trkpt><trkpt lat="42.06731406103767" lon="14.44821892001604"><ele>439.0</ele><time>2026-04-12T06:21:21.999Z</time></trkpt><trkpt lat="42.06734034079815" lon="14.448301450446538"><ele>439.0</ele><time>2026-04-12T06:21:26.999Z</time></trkpt><trkpt lat="42.067345871038135" lon="14.4483976486326"><ele>439.00000000000006</ele><time>2026-04-12T06:21:30.999Z</time></trkpt><trkpt lat="42.06740920394958" lon="14.448450169356368"><ele>439.0</ele><time>2026-04-12T06:21:34.999Z</time></trkpt><trkpt lat="42.06748192329628" lon="14.448415313759615"><ele>440.50000000000006</ele><time>2026-04-12T06:21:37.999Z</time></trkpt><trkpt lat="42.06755682239125" lon="14.4483864560718"><ele>442.0</ele><time>2026-04-12T06:21:40.999Z</time></trkpt><trkpt lat="42.06763909164083" lon="14.44838198472915"><ele>443.5</ele><time>2026-04-12T06:21:43.999Z</time></trkpt><trkpt lat="42.06769628424031" lon="14.448317496980454"><ele>445.0</ele><time>2026-04-12T06:21:45.999Z</time></trkpt><trkpt lat="42.06774493162389" lon="14.44824262478234"><ele>446.50000000000006</ele><time>2026-04-12T06:21:47.999Z</time></trkpt><trkpt lat="42.067761779062735" lon="14.448127579741408"><ele>448.0</ele><time>2026-04-12T06:21:49.998Z</time></trkpt><trkpt lat="42.067739612656574" lon="14.448000253809685"><ele>447.4</ele><time>2026-04-12T06:21:51.998Z</time></trkpt><trkpt lat="42.06770323595745" lon="14.447879462675168"><ele>446.79999999999995</ele><time>2026-04-12T06:21:53.998Z</time></trkpt><trkpt lat="42.067647646119" lon="14.447741870852127"><ele>446.2</ele><time>2026-04-12T06:21:55.998Z</time></trkpt><trkpt lat="42.06759933879137" lon="14.447607699867444"><ele>445.6</ele><time>2026-04-12T06:21:57.998Z</time></trkpt><trkpt lat="42.0675507219085" lon="14.44748162034145"><ele>445.0</ele><time>2026-04-12T06:21:59.998Z</time></trkpt><trkpt lat="42.06749114475886" lon="14.447369177876661"><ele>445.0</ele><time>2026-04-12T06:22:01.998Z</time></trkpt><trkpt lat="42.06745607153437" lon="14.447246764580525"><ele>445.0</ele><time>2026-04-12T06:22:03.998Z</time></trkpt><trkpt lat="42.067443036454286" lon="14.44712307394802"><ele>445.0</ele><time>2026-04-12T06:22:05.998Z</time></trkpt><trkpt lat="42.06744940738716" lon="14.446996817555036"><ele>445.0</ele><time>2026-04-12T06:22:07.998Z</time></trkpt><trkpt lat="42.06745411259026" lon="14.446869157899789"><ele>445.0</ele><time>2026-04-12T06:22:09.998Z</time></trkpt><trkpt lat="42.06746294956922" lon="14.446741152053232"><ele>444.4</ele><time>2026-04-12T06:22:11.998Z</time></trkpt><trkpt lat="42.067471201831374" lon="14.446614246205167"><ele>443.8</ele><time>2026-04-12T06:22:13.998Z</time></trkpt><trkpt lat="42.06747952775642" lon="14.446484418054808"><ele>443.20000000000005</ele><time>2026-04-12T06:22:15.998Z</time></trkpt><trkpt lat="42.0674830329922" lon="14.44635214100376"><ele>442.6</ele><time>2026-04-12T06:22:17.998Z</time></trkpt><trkpt lat="42.06748252514312" lon="14.446217391080872"><ele>442.0</ele><time>2026-04-12T06:22:19.998Z</time></trkpt><trkpt lat="42.06746133839333" lon="14.446079850478098"><ele>442.20000000000005</ele><time>2026-04-12T06:22:21.998Z</time></trkpt><trkpt lat="42.06742589692224" lon="14.445943702692682"><ele>442.40000000000003</ele><time>2026-04-12T06:22:23.998Z</time></trkpt><trkpt lat="42.06738429214955" lon="14.445814703949459"><ele>442.59999999999997</ele><time>2026-04-12T06:22:25.998Z</time></trkpt><trkpt lat="42.067335216680256" lon="14.445680759093893"><ele>442.79999999999995</ele><time>2026-04-12T06:22:27.998Z</time></trkpt><trkpt lat="42.067289131903394" lon="14.445537303849518"><ele>443.0</ele><time>2026-04-12T06:22:29.998Z</time></trkpt><trkpt lat="42.06723202239183" lon="14.445400313204313"><ele>443.0</ele><time>2026-04-12T06:22:31.998Z</time></trkpt><trkpt lat="42.06716277174373" lon="14.44525913272791"><ele>443.0</ele><time>2026-04-12T06:22:33.998Z</time></trkpt><trkpt lat="42.06709964749398" lon="14.445121662113145"><ele>443.0</ele><time>2026-04-12T06:22:35.998Z</time></trkpt><trkpt lat="42.06703861988069" lon="14.444982911025052"><ele>443.0</ele><time>2026-04-12T06:22:38Z</time></trkpt><trkpt lat="42.066998882159254" lon="14.444867463227562"><ele>442.99999999999994</ele><time>2026-04-12T06:22:40Z</time></trkpt><trkpt lat="42.06699668379554" lon="14.444727839073488"><ele>443.0</ele><time>2026-04-12T06:22:42Z</time></trkpt><trkpt lat="42.06697817046016" lon="14.444622873200087"><ele>443.0</ele><time>2026-04-12T06:22:44Z</time></trkpt><trkpt lat="42.06701898980321" lon="14.444503144662487"><ele>443.0</ele><time>2026-04-12T06:22:47Z</time></trkpt><trkpt lat="42.067048117506666" lon="14.44441858478348"><ele>442.99999999999994</ele><time>2026-04-12T06:22:49Z</time></trkpt><trkpt lat="42.0670981848348" lon="14.444326767512072"><ele>443.0</ele><time>2026-04-12T06:22:52Z</time></trkpt><trkpt lat="42.06718429322509" lon="14.44426556487881"><ele>443.16666666666663</ele><time>2026-04-12T06:22:55Z</time></trkpt><trkpt lat="42.06721481102436" lon="14.44418175992064"><ele>443.3333333333333</ele><time>2026-04-12T06:22:57Z</time></trkpt><trkpt lat="42.06727482750071" lon="14.44409481975199"><ele>443.5</ele><time>2026-04-12T06:22:59.999Z</time></trkpt><trkpt lat="42.06734047752918" lon="14.444015113266218"><ele>443.66666666666663</ele><time>2026-04-12T06:23:02.999Z</time></trkpt><trkpt lat="42.06741165125112" lon="14.443942006426537"><ele>443.8333333333333</ele><time>2026-04-12T06:23:05.999Z</time></trkpt><trkpt lat="42.06746572393832" lon="14.443842011079354"><ele>444.0</ele><time>2026-04-12T06:23:08.999Z</time></trkpt><trkpt lat="42.067509394809456" lon="14.443746126035037"><ele>444.0</ele><time>2026-04-12T06:23:11.999Z</time></trkpt><trkpt lat="42.067549005311136" lon="14.443663852953831"><ele>444.0</ele><time>2026-04-12T06:23:14.999Z</time></trkpt><trkpt lat="42.067527541537366" lon="14.443579962224804"><ele>444.0</ele><time>2026-04-12T06:23:19.999Z</time></trkpt><trkpt lat="42.06745859687802" lon="14.443504467601494"><ele>444.0</ele><time>2026-04-12T06:23:22.999Z</time></trkpt><trkpt lat="42.0673966608322" lon="14.443437275314151"><ele>444.0</ele><time>2026-04-12T06:23:25.999Z</time></trkpt><trkpt lat="42.06734737151461" lon="14.443374002417501"><ele>444.0</ele><time>2026-04-12T06:23:28.999Z</time></trkpt><trkpt lat="42.06732418119494" lon="14.443293116002085"><ele>444.0</ele><time>2026-04-12T06:23:31.999Z</time></trkpt><trkpt lat="42.06729123379373" lon="14.443183061355665"><ele>440.6666666666667</ele><time>2026-04-12T06:23:32.999Z</time></trkpt><trkpt lat="42.06730558163346" lon="14.443097240688287"><ele>437.33333333333337</ele><time>2026-04-12T06:23:38.999Z</time></trkpt><trkpt lat="42.06729597914117" lon="14.442967662974613"><ele>434.0</ele><time>2026-04-12T06:23:41.999Z</time></trkpt><trkpt lat="42.067350309770454" lon="14.44289647482571"><ele>430.6666666666667</ele><time>2026-04-12T06:23:42.999Z</time></trkpt><trkpt lat="42.067342154508644" lon="14.442763840910349"><ele>427.33333333333337</ele><time>2026-04-12T06:23:43.999Z</time></trkpt><trkpt lat="42.06740476595509" lon="14.442640998210829"><ele>424.0</ele><time>2026-04-12T06:23:45.999Z</time></trkpt><trkpt lat="42.06743627174447" lon="14.442503202881085"><ele>425.79999999999995</ele><time>2026-04-12T06:23:47.999Z</time></trkpt><trkpt lat="42.06749416200563" lon="14.44239930787785"><ele>427.59999999999997</ele><time>2026-04-12T06:23:49.999Z</time></trkpt><trkpt lat="42.06756216558393" lon="14.442290032686474"><ele>429.4</ele><time>2026-04-12T06:23:51.998Z</time></trkpt><trkpt lat="42.06757073845263" lon="14.442197703340302"><ele>431.2</ele><time>2026-04-12T06:23:52.998Z</time></trkpt><trkpt lat="42.067599880349036" lon="14.442046065469963"><ele>433.0</ele><time>2026-04-12T06:23:54.998Z</time></trkpt><trkpt lat="42.06760829667709" lon="14.44190298929559"><ele>433.00000000000006</ele><time>2026-04-12T06:23:56.998Z</time></trkpt><trkpt lat="42.0675715818371" lon="14.441766101902843"><ele>433.0</ele><time>2026-04-12T06:23:58.998Z</time></trkpt><trkpt lat="42.067514170390176" lon="14.441631729856555"><ele>433.0</ele><time>2026-04-12T06:24:00.998Z</time></trkpt><trkpt lat="42.067447742861965" lon="14.441598395286784"><ele>433.0</ele><time>2026-04-12T06:24:01.998Z</time></trkpt><trkpt lat="42.06740071972007" lon="14.441535919817733"><ele>433.00000000000006</ele><time>2026-04-12T06:24:02.998Z</time></trkpt><trkpt lat="42.06735640629506" lon="14.441464780957324"><ele>433.0</ele><time>2026-04-12T06:24:03.998Z</time></trkpt><trkpt lat="42.06730407535293" lon="14.441410416469369"><ele>429.50000000000006</ele><time>2026-04-12T06:24:04.998Z</time></trkpt><trkpt lat="42.06725319787347" lon="14.441360287184802"><ele>426.0</ele><time>2026-04-12T06:24:05.998Z</time></trkpt><trkpt lat="42.06720254590815" lon="14.441302969024987"><ele>422.5</ele><time>2026-04-12T06:24:06.998Z</time></trkpt><trkpt lat="42.067133805641745" lon="14.441226590556738"><ele>419.0</ele><time>2026-04-12T06:24:07.998Z</time></trkpt><trkpt lat="42.06705543092066" lon="14.441142578383968"><ele>415.50000000000006</ele><time>2026-04-12T06:24:09.998Z</time></trkpt><trkpt lat="42.067001652017325" lon="14.441097601117844"><ele>412.0</ele><time>2026-04-12T06:24:11.998Z</time></trkpt><trkpt lat="42.06703799872877" lon="14.440944703320449"><ele>411.40000000000003</ele><time>2026-04-12T06:24:13.998Z</time></trkpt><trkpt lat="42.06706526387769" lon="14.440861124710723"><ele>410.8</ele><time>2026-04-12T06:24:14.998Z</time></trkpt><trkpt lat="42.067128857662674" lon="14.440733837119604"><ele>410.2</ele><time>2026-04-12T06:24:16.998Z</time></trkpt><trkpt lat="42.067253949264895" lon="14.440731853819218"><ele>409.6</ele><time>2026-04-12T06:24:18.998Z</time></trkpt><trkpt lat="42.067319252023196" lon="14.440773225791418"><ele>409.0</ele><time>2026-04-12T06:24:19.998Z</time></trkpt><trkpt lat="42.067376026454745" lon="14.4408525169355"><ele>409.00000000000006</ele><time>2026-04-12T06:24:20.998Z</time></trkpt><trkpt lat="42.06741565558421" lon="14.440940050572591"><ele>409.0</ele><time>2026-04-12T06:24:21.998Z</time></trkpt><trkpt lat="42.067459363086726" lon="14.441033852577934"><ele>409.0</ele><time>2026-04-12T06:24:22.998Z</time></trkpt><trkpt lat="42.06751136801085" lon="14.44112145513377"><ele>409.0</ele><time>2026-04-12T06:24:23.998Z</time></trkpt><trkpt lat="42.06755694566646" lon="14.44119684831176"><ele>409.00000000000006</ele><time>2026-04-12T06:24:24.998Z</time></trkpt><trkpt lat="42.06764255509234" lon="14.441302147540611"><ele>409.0</ele><time>2026-04-12T06:24:26.998Z</time></trkpt><trkpt lat="42.067719858642846" lon="14.441295357295347"><ele>410.50000000000006</ele><time>2026-04-12T06:24:28.998Z</time></trkpt><trkpt lat="42.06776847992889" lon="14.441217038169242"><ele>412.0</ele><time>2026-04-12T06:24:30.998Z</time></trkpt><trkpt lat="42.06769518258526" lon="14.44103852904277"><ele>413.5</ele><time>2026-04-12T06:24:32.998Z</time></trkpt><trkpt lat="42.06764879084074" lon="14.440973505327474"><ele>415.0</ele><time>2026-04-12T06:24:33.998Z</time></trkpt><trkpt lat="42.0676010697192" lon="14.440912734919698"><ele>416.50000000000006</ele><time>2026-04-12T06:24:34.998Z</time></trkpt><trkpt lat="42.067554168628284" lon="14.440845948289017"><ele>418.0</ele><time>2026-04-12T06:24:35.998Z</time></trkpt><trkpt lat="42.06750192607985" lon="14.44076494961477"><ele>418.0</ele><time>2026-04-12T06:24:36.998Z</time></trkpt><trkpt lat="42.067461551244556" lon="14.440692614557602"><ele>418.0</ele><time>2026-04-12T06:24:37.998Z</time></trkpt><trkpt lat="42.06742235956544" lon="14.44062189118865"><ele>418.0</ele><time>2026-04-12T06:24:38.998Z</time></trkpt><trkpt lat="42.06738706735238" lon="14.440546566545086"><ele>418.0</ele><time>2026-04-12T06:24:39.998Z</time></trkpt><trkpt lat="42.06736315803577" lon="14.440455549488648"><ele>418.0</ele><time>2026-04-12T06:24:40.998Z</time></trkpt><trkpt lat="42.0673512658487" lon="14.440359597074764"><ele>418.0</ele><time>2026-04-12T06:24:41.998Z</time></trkpt><trkpt lat="42.06734648954128" lon="14.440260731450381"><ele>418.0</ele><time>2026-04-12T06:24:42.998Z</time></trkpt><trkpt lat="42.06734822278564" lon="14.44017024333375"><ele>415.50000000000006</ele><time>2026-04-12T06:24:44Z</time></trkpt><trkpt lat="42.067347125248595" lon="14.440084755427534"><ele>413.0</ele><time>2026-04-12T06:24:45Z</time></trkpt><trkpt lat="42.06733470530546" lon="14.43993020586598"><ele>410.5</ele><time>2026-04-12T06:24:47Z</time></trkpt><trkpt lat="42.067273034919246" lon="14.439811484018016"><ele>408.0</ele><time>2026-04-12T06:24:49Z</time></trkpt><trkpt lat="42.06721220288261" lon="14.439779028351582"><ele>405.50000000000006</ele><time>2026-04-12T06:24:50Z</time></trkpt><trkpt lat="42.067138334306826" lon="14.439780147321251"><ele>403.0</ele><time>2026-04-12T06:24:51Z</time></trkpt><trkpt lat="42.06706712344074" lon="14.439792485072651"><ele>403.0</ele><time>2026-04-12T06:24:52Z</time></trkpt><trkpt lat="42.06699458202818" lon="14.439810309751495"><ele>403.0</ele><time>2026-04-12T06:24:53Z</time></trkpt><trkpt lat="42.06692176935157" lon="14.439835466377922"><ele>403.0</ele><time>2026-04-12T06:24:54Z</time></trkpt><trkpt lat="42.06684988691668" lon="14.439863995517594"><ele>403.0</ele><time>2026-04-12T06:24:55Z</time></trkpt><trkpt lat="42.0667802693905" lon="14.439890634538266"><ele>403.0</ele><time>2026-04-12T06:24:56Z</time></trkpt><trkpt lat="42.06671437441749" lon="14.439913035240052"><ele>403.0</ele><time>2026-04-12T06:24:57Z</time></trkpt><trkpt lat="42.0666510732382" lon="14.439931046105546"><ele>403.0</ele><time>2026-04-12T06:24:58Z</time></trkpt><trkpt lat="42.06652573270424" lon="14.439943896821465"><ele>400.00000000000006</ele><time>2026-04-12T06:25:00Z</time></trkpt><trkpt lat="42.066460384071576" lon="14.43992515766347"><ele>397.0</ele><time>2026-04-12T06:25:01Z</time></trkpt><trkpt lat="42.066397460568695" lon="14.439889238863403"><ele>394.0</ele><time>2026-04-12T06:25:02Z</time></trkpt><trkpt lat="42.066341980870256" lon="14.439842254886697"><ele>391.0</ele><time>2026-04-12T06:25:03Z</time></trkpt><trkpt lat="42.06629508730773" lon="14.439782518226586"><ele>388.00000000000006</ele><time>2026-04-12T06:25:04Z</time></trkpt><trkpt lat="42.06625300642451" lon="14.439716439756968"><ele>385.0</ele><time>2026-04-12T06:25:04.999Z</time></trkpt><trkpt lat="42.06618594547078" lon="14.439576303753087"><ele>385.00000000000006</ele><time>2026-04-12T06:25:06.999Z</time></trkpt><trkpt lat="42.0661112923045" lon="14.439440043931794"><ele>385.0</ele><time>2026-04-12T06:25:08.999Z</time></trkpt><trkpt lat="42.06605898544984" lon="14.43937563448077"><ele>385.0</ele><time>2026-04-12T06:25:09.999Z</time></trkpt><trkpt lat="42.06599732599832" lon="14.439318084177584"><ele>385.0</ele><time>2026-04-12T06:25:10.999Z</time></trkpt><trkpt lat="42.065930614740374" lon="14.439269158382332"><ele>385.00000000000006</ele><time>2026-04-12T06:25:11.999Z</time></trkpt><trkpt lat="42.06586769734905" lon="14.43922615723588"><ele>385.0</ele><time>2026-04-12T06:25:12.999Z</time></trkpt><trkpt lat="42.065811441648165" lon="14.439185477771119"><ele>383.14285714285717</ele><time>2026-04-12T06:25:13.999Z</time></trkpt><trkpt lat="42.06575853568598" lon="14.439139040114455"><ele>381.2857142857143</ele><time>2026-04-12T06:25:14.999Z</time></trkpt><trkpt lat="42.06571375831615" lon="14.43907519670656"><ele>379.42857142857144</ele><time>2026-04-12T06:25:15.999Z</time></trkpt><trkpt lat="42.06568284129346" lon="14.43899181515894"><ele>377.57142857142856</ele><time>2026-04-12T06:25:16.999Z</time></trkpt><trkpt lat="42.06566435483276" lon="14.438896085276898"><ele>375.7142857142857</ele><time>2026-04-12T06:25:17.999Z</time></trkpt><trkpt lat="42.065658097534346" lon="14.438795350769393"><ele>373.8571428571429</ele><time>2026-04-12T06:25:18.999Z</time></trkpt><trkpt lat="42.06564648534982" lon="14.438697538839701"><ele>372.0</ele><time>2026-04-12T06:25:19.999Z</time></trkpt><trkpt lat="42.06563075445756" lon="14.43859897810982"><ele>372.00000000000006</ele><time>2026-04-12T06:25:20.999Z</time></trkpt><trkpt lat="42.06561508709311" lon="14.438503705954469"><ele>372.0</ele><time>2026-04-12T06:25:21.999Z</time></trkpt><trkpt lat="42.06559773430602" lon="14.438412387045771"><ele>372.0</ele><time>2026-04-12T06:25:22.999Z</time></trkpt><trkpt lat="42.065576669425404" lon="14.438327507015634"><ele>372.0</ele><time>2026-04-12T06:25:23.999Z</time></trkpt><trkpt lat="42.065559853498016" lon="14.438243246423243"><ele>372.0</ele><time>2026-04-12T06:25:24.999Z</time></trkpt><trkpt lat="42.065542954354235" lon="14.43816028963136"><ele>372.00000000000006</ele><time>2026-04-12T06:25:25.999Z</time></trkpt><trkpt lat="42.065519293549436" lon="14.43807940637371"><ele>372.0</ele><time>2026-04-12T06:25:26.999Z</time></trkpt><trkpt lat="42.065479250579486" lon="14.437925865561164"><ele>374.0</ele><time>2026-04-12T06:25:28.999Z</time></trkpt><trkpt lat="42.06543680625532" lon="14.437779538087353"><ele>376.0</ele><time>2026-04-12T06:25:30.999Z</time></trkpt><trkpt lat="42.065397756047155" lon="14.43763523748589"><ele>378.0</ele><time>2026-04-12T06:25:32.999Z</time></trkpt><trkpt lat="42.06535860436319" lon="14.437491133232731"><ele>380.0</ele><time>2026-04-12T06:25:34.999Z</time></trkpt><trkpt lat="42.06532279230854" lon="14.437345826234168"><ele>380.0</ele><time>2026-04-12T06:25:36.999Z</time></trkpt><trkpt lat="42.06528454080353" lon="14.437202473265414"><ele>380.0</ele><time>2026-04-12T06:25:38.999Z</time></trkpt><trkpt lat="42.06524751379179" lon="14.437061733674177"><ele>380.0</ele><time>2026-04-12T06:25:40.999Z</time></trkpt><trkpt lat="42.06521051391382" lon="14.436917862362412"><ele>380.0</ele><time>2026-04-12T06:25:42.999Z</time></trkpt><trkpt lat="42.06516426299798" lon="14.436774028466925"><ele>380.6</ele><time>2026-04-12T06:25:44.999Z</time></trkpt><trkpt lat="42.06509515464464" lon="14.43665708344832"><ele>381.2</ele><time>2026-04-12T06:25:46.999Z</time></trkpt><trkpt lat="42.06503521467839" lon="14.436538531438117"><ele>381.79999999999995</ele><time>2026-04-12T06:25:48.999Z</time></trkpt><trkpt lat="42.06496984798994" lon="14.436427062789434"><ele>382.4</ele><time>2026-04-12T06:25:50.999Z</time></trkpt><trkpt lat="42.06490843594235" lon="14.43631335661021"><ele>383.0</ele><time>2026-04-12T06:25:52.999Z</time></trkpt><trkpt lat="42.064851915690966" lon="14.436206296519394"><ele>383.0</ele><time>2026-04-12T06:25:54.999Z</time></trkpt><trkpt lat="42.06479887864628" lon="14.436102132301036"><ele>383.0</ele><time>2026-04-12T06:25:56.999Z</time></trkpt><trkpt lat="42.06474450293394" lon="14.436006511730694"><ele>383.0</ele><time>2026-04-12T06:25:58.999Z</time></trkpt><trkpt lat="42.0646904237694" lon="14.435917065873829"><ele>383.0</ele><time>2026-04-12T06:26:00.998Z</time></trkpt><trkpt lat="42.064644112925706" lon="14.435831018724748"><ele>383.0</ele><time>2026-04-12T06:26:02.998Z</time></trkpt><trkpt lat="42.0646006230566" lon="14.435752249100249"><ele>383.0</ele><time>2026-04-12T06:26:04.998Z</time></trkpt><trkpt lat="42.064546879744434" lon="14.435653523605882"><ele>383.0</ele><time>2026-04-12T06:26:07.998Z</time></trkpt><trkpt lat="42.06450451835755" lon="14.43559029783587"><ele>383.0</ele><time>2026-04-12T06:26:09.998Z</time></trkpt><trkpt lat="42.064457600616386" lon="14.435526726054958"><ele>383.0</ele><time>2026-04-12T06:26:11.998Z</time></trkpt><trkpt lat="42.064407776436575" lon="14.435468146776458"><ele>383.0</ele><time>2026-04-12T06:26:13.998Z</time></trkpt><trkpt lat="42.06433550401409" lon="14.4353870740994"><ele>383.0</ele><time>2026-04-12T06:26:16.998Z</time></trkpt><trkpt lat="42.06428186716771" lon="14.435332913683377"><ele>383.0</ele><time>2026-04-12T06:26:18.998Z</time></trkpt><trkpt lat="42.06423282833835" lon="14.435275769632746"><ele>383.0</ele><time>2026-04-12T06:26:20.998Z</time></trkpt><trkpt lat="42.06418215811869" lon="14.435221592860527"><ele>384.0</ele><time>2026-04-12T06:26:22.998Z</time></trkpt><trkpt lat="42.06413540532698" lon="14.435162122067046"><ele>385.0</ele><time>2026-04-12T06:26:24.998Z</time></trkpt><trkpt lat="42.06406705460271" lon="14.435079333656601"><ele>386.0</ele><time>2026-04-12T06:26:27.998Z</time></trkpt><trkpt lat="42.06399561398408" lon="14.435004562390443"><ele>387.0</ele><time>2026-04-12T06:26:30.998Z</time></trkpt><trkpt lat="42.06393355423813" lon="14.434926439646263"><ele>387.99999999999994</ele><time>2026-04-12T06:26:33.998Z</time></trkpt><trkpt lat="42.06386486786931" lon="14.4348474619386"><ele>389.0</ele><time>2026-04-12T06:26:36.998Z</time></trkpt><trkpt lat="42.0638160908058" lon="14.43475025993627"><ele>388.99999999999994</ele><time>2026-04-12T06:26:39.998Z</time></trkpt><trkpt lat="42.0637882305344" lon="14.434639820469425"><ele>389.0</ele><time>2026-04-12T06:26:42.998Z</time></trkpt><trkpt lat="42.06376505307078" lon="14.434535671353748"><ele>389.0</ele><time>2026-04-12T06:26:45.998Z</time></trkpt><trkpt lat="42.06373985867141" lon="14.434440827474496"><ele>389.0</ele><time>2026-04-12T06:26:49Z</time></trkpt><trkpt lat="42.063722813563366" lon="14.434343328053151"><ele>388.99999999999994</ele><time>2026-04-12T06:26:52Z</time></trkpt><trkpt lat="42.063698563025916" lon="14.434251702717205"><ele>389.0</ele><time>2026-04-12T06:26:55Z</time></trkpt><trkpt lat="42.06368269751013" lon="14.434153797587301"><ele>391.2857142857143</ele><time>2026-04-12T06:26:59Z</time></trkpt><trkpt lat="42.06367390423521" lon="14.434067287169622"><ele>393.57142857142856</ele><time>2026-04-12T06:27:02Z</time></trkpt><trkpt lat="42.06365102968112" lon="14.433983903335124"><ele>395.85714285714283</ele><time>2026-04-12T06:27:05Z</time></trkpt><trkpt lat="42.06362914981819" lon="14.43390120420204"><ele>398.1428571428571</ele><time>2026-04-12T06:27:07.999Z</time></trkpt><trkpt lat="42.06360516256941" lon="14.433794027853368"><ele>400.42857142857144</ele><time>2026-04-12T06:27:11.999Z</time></trkpt><trkpt lat="42.06359947162164" lon="14.433682768435654"><ele>402.71428571428567</ele><time>2026-04-12T06:27:15.999Z</time></trkpt><trkpt lat="42.063608907024445" lon="14.433573271846177"><ele>405.0</ele><time>2026-04-12T06:27:19.999Z</time></trkpt><trkpt lat="42.06362319154706" lon="14.433487385514564"><ele>407.1666666666667</ele><time>2026-04-12T06:27:22.999Z</time></trkpt><trkpt lat="42.063636015549434" lon="14.43337943811438"><ele>409.33333333333337</ele><time>2026-04-12T06:27:26.999Z</time></trkpt><trkpt lat="42.06364671111335" lon="14.43327422150594"><ele>411.5</ele><time>2026-04-12T06:27:30.999Z</time></trkpt><trkpt lat="42.06364281937571" lon="14.433181011041402"><ele>413.6666666666667</ele><time>2026-04-12T06:27:34.999Z</time></trkpt><trkpt lat="42.06362238773068" lon="14.433081677519567"><ele>415.83333333333337</ele><time>2026-04-12T06:27:38.999Z</time></trkpt><trkpt lat="42.06359359388793" lon="14.433002793745338"><ele>418.0</ele><time>2026-04-12T06:27:42.999Z</time></trkpt><trkpt lat="42.0635511715918" lon="14.432909866253345"><ele>419.42857142857144</ele><time>2026-04-12T06:27:46.999Z</time></trkpt><trkpt lat="42.06353016837963" lon="14.432820573513744"><ele>420.85714285714283</ele><time>2026-04-12T06:27:50.999Z</time></trkpt><trkpt lat="42.0635275938722" lon="14.432713865530314"><ele>422.28571428571433</ele><time>2026-04-12T06:27:54.999Z</time></trkpt><trkpt lat="42.06352174209514" lon="14.432607843106615"><ele>423.7142857142857</ele><time>2026-04-12T06:27:58.999Z</time></trkpt><trkpt lat="42.063525157079106" lon="14.432510912002279"><ele>425.14285714285717</ele><time>2026-04-12T06:28:02.998Z</time></trkpt><trkpt lat="42.06353680970144" lon="14.432420711366923"><ele>426.5714285714286</ele><time>2026-04-12T06:28:06.998Z</time></trkpt><trkpt lat="42.063546905933855" lon="14.432325309818065"><ele>428.0</ele><time>2026-04-12T06:28:10.998Z</time></trkpt><trkpt lat="42.06357170256449" lon="14.43223585001655"><ele>428.00000000000006</ele><time>2026-04-12T06:28:14.998Z</time></trkpt><trkpt lat="42.06361238662793" lon="14.432154039813122"><ele>428.0</ele><time>2026-04-12T06:28:18.998Z</time></trkpt><trkpt lat="42.06365734258487" lon="14.432093753620567"><ele>428.0</ele><time>2026-04-12T06:28:22.998Z</time></trkpt><trkpt lat="42.063717614711585" lon="14.432030896198176"><ele>428.0</ele><time>2026-04-12T06:28:25.998Z</time></trkpt><trkpt lat="42.06378955697052" lon="14.43198163548814"><ele>428.0</ele><time>2026-04-12T06:28:29.998Z</time></trkpt><trkpt lat="42.06384400275721" lon="14.431927145725473"><ele>428.00000000000006</ele><time>2026-04-12T06:28:33.998Z</time></trkpt><trkpt lat="42.06388782127199" lon="14.431850199996436"><ele>428.0</ele><time>2026-04-12T06:28:37.998Z</time></trkpt><trkpt lat="42.06392058550491" lon="14.431744223315917"><ele>428.28571428571433</ele><time>2026-04-12T06:28:41.998Z</time></trkpt><trkpt lat="42.06392279908028" lon="14.431654914116894"><ele>428.57142857142856</ele><time>2026-04-12T06:28:45.998Z</time></trkpt><trkpt lat="42.06390114838557" lon="14.43155584917061"><ele>428.8571428571429</ele><time>2026-04-12T06:28:49.998Z</time></trkpt><trkpt lat="42.06386232671059" lon="14.431473806803368"><ele>429.14285714285717</ele><time>2026-04-12T06:28:52.998Z</time></trkpt><trkpt lat="42.0638055404569" lon="14.431395367950635"><ele>429.42857142857144</ele><time>2026-04-12T06:28:58.001Z</time></trkpt><trkpt lat="42.06375701905596" lon="14.431340938625803"><ele>429.7142857142857</ele><time>2026-04-12T06:29:01.001Z</time></trkpt><trkpt lat="42.063703791570475" lon="14.431295480611142"><ele>430.0</ele><time>2026-04-12T06:29:04.001Z</time></trkpt><trkpt lat="42.063644342437094" lon="14.43125187255101"><ele>430.0</ele><time>2026-04-12T06:29:08.001Z</time></trkpt><trkpt lat="42.063587493173806" lon="14.431203464408576"><ele>430.0</ele><time>2026-04-12T06:29:12Z</time></trkpt><trkpt lat="42.06351524063922" lon="14.43114270310764"><ele>430.0</ele><time>2026-04-12T06:29:16Z</time></trkpt><trkpt lat="42.06344821006622" lon="14.431087071474026"><ele>430.0</ele><time>2026-04-12T06:29:20Z</time></trkpt><trkpt lat="42.06338727241751" lon="14.431050306723991"><ele>430.0</ele><time>2026-04-12T06:29:24Z</time></trkpt><trkpt lat="42.06333205815973" lon="14.430989041868237"><ele>430.0</ele><time>2026-04-12T06:29:28Z</time></trkpt><trkpt lat="42.0632770624948" lon="14.430919618393922"><ele>430.0</ele><time>2026-04-12T06:29:32Z</time></trkpt><trkpt lat="42.063223538106385" lon="14.43083936681462"><ele>433.42857142857144</ele><time>2026-04-12T06:29:36Z</time></trkpt><trkpt lat="42.06318304292011" lon="14.430758250093412"><ele>436.8571428571429</ele><time>2026-04-12T06:29:40Z</time></trkpt><trkpt lat="42.06314351208579" lon="14.430674466534937"><ele>440.28571428571433</ele><time>2026-04-12T06:29:44Z</time></trkpt><trkpt lat="42.06310551384225" lon="14.430591901753989"><ele>443.7142857142857</ele><time>2026-04-12T06:29:48Z</time></trkpt><trkpt lat="42.06307082199778" lon="14.430517169255372"><ele>447.1428571428572</ele><time>2026-04-12T06:29:52Z</time></trkpt><trkpt lat="42.06302968759314" lon="14.430439308035641"><ele>450.5714285714286</ele><time>2026-04-12T06:29:56Z</time></trkpt><trkpt lat="42.062984031191114" lon="14.430354803671163"><ele>454.0</ele><time>2026-04-12T06:30:00Z</time></trkpt><trkpt lat="42.06294698871041" lon="14.430278936236553"><ele>454.0</ele><time>2026-04-12T06:30:04Z</time></trkpt><trkpt lat="42.06291640651117" lon="14.430204208909062"><ele>454.00000000000006</ele><time>2026-04-12T06:30:07.999Z</time></trkpt><trkpt lat="42.062892385281856" lon="14.430122373544002"><ele>454.0</ele><time>2026-04-12T06:30:11.999Z</time></trkpt><trkpt lat="42.06287293192111" lon="14.430027636442382"><ele>454.0</ele><time>2026-04-12T06:30:15.999Z</time></trkpt><trkpt lat="42.06284950819547" lon="14.429938058174427"><ele>454.00000000000006</ele><time>2026-04-12T06:30:19.999Z</time></trkpt><trkpt lat="42.062835174612324" lon="14.429847451751428"><ele>454.0</ele><time>2026-04-12T06:30:23.999Z</time></trkpt><trkpt lat="42.06281842859364" lon="14.429745888305026"><ele>454.0</ele><time>2026-04-12T06:30:28.999Z</time></trkpt><trkpt lat="42.06281481942306" lon="14.429632860701487"><ele>454.5714285714286</ele><time>2026-04-12T06:30:33.999Z</time></trkpt><trkpt lat="42.062823336887625" lon="14.429547441212025"><ele>455.1428571428572</ele><time>2026-04-12T06:30:37.999Z</time></trkpt><trkpt lat="42.0628463105263" lon="14.429450436194529"><ele>455.7142857142857</ele><time>2026-04-12T06:30:41.999Z</time></trkpt><trkpt lat="42.06287050812655" lon="14.429362248982034"><ele>456.28571428571433</ele><time>2026-04-12T06:30:45.999Z</time></trkpt><trkpt lat="42.06289112134577" lon="14.429258103005251"><ele>456.8571428571429</ele><time>2026-04-12T06:30:49.999Z</time></trkpt><trkpt lat="42.062915951823946" lon="14.429180004357937"><ele>457.42857142857144</ele><time>2026-04-12T06:30:53.999Z</time></trkpt><trkpt lat="42.06294269753239" lon="14.429090651372801"><ele>458.0</ele><time>2026-04-12T06:30:57.999Z</time></trkpt><trkpt lat="42.0629792112573" lon="14.429010448230514"><ele>458.0</ele><time>2026-04-12T06:31:02Z</time></trkpt><trkpt lat="42.0630262643382" lon="14.428921682989648"><ele>458.0</ele><time>2026-04-12T06:31:06Z</time></trkpt><trkpt lat="42.063070479756476" lon="14.428832775048658"><ele>458.0</ele><time>2026-04-12T06:31:10Z</time></trkpt><trkpt lat="42.06311455563103" lon="14.428749638876987"><ele>458.0</ele><time>2026-04-12T06:31:14Z</time></trkpt><trkpt lat="42.06315273328506" lon="14.428668014359005"><ele>458.0</ele><time>2026-04-12T06:31:18Z</time></trkpt><trkpt lat="42.06317837205266" lon="14.428580431988214"><ele>458.0</ele><time>2026-04-12T06:31:22Z</time></trkpt><trkpt lat="42.06319992018796" lon="14.428489101027894"><ele>458.0</ele><time>2026-04-12T06:31:26Z</time></trkpt><trkpt lat="42.063203879879886" lon="14.428389565095397"><ele>459.1428571428571</ele><time>2026-04-12T06:31:30Z</time></trkpt><trkpt lat="42.06320316213716" lon="14.428290615434296"><ele>460.28571428571433</ele><time>2026-04-12T06:31:34Z</time></trkpt><trkpt lat="42.06319767290102" lon="14.428190993956386"><ele>461.42857142857144</ele><time>2026-04-12T06:31:38Z</time></trkpt><trkpt lat="42.06319678159858" lon="14.428092736915522"><ele>462.57142857142856</ele><time>2026-04-12T06:31:42Z</time></trkpt><trkpt lat="42.06319253009272" lon="14.427995485875"><ele>463.71428571428567</ele><time>2026-04-12T06:31:46Z</time></trkpt><trkpt lat="42.06319210975941" lon="14.427898272560826"><ele>464.8571428571429</ele><time>2026-04-12T06:31:50Z</time></trkpt><trkpt lat="42.063184487905346" lon="14.427804954158738"><ele>466.0</ele><time>2026-04-12T06:31:54Z</time></trkpt><trkpt lat="42.06316223412637" lon="14.427714666129743"><ele>466.0</ele><time>2026-04-12T06:31:58Z</time></trkpt><trkpt lat="42.06312339779918" lon="14.427647102858087"><ele>466.0</ele><time>2026-04-12T06:32:01.999Z</time></trkpt><trkpt lat="42.063059261704815" lon="14.427571535996583"><ele>466.0</ele><time>2026-04-12T06:32:06.999Z</time></trkpt><trkpt lat="42.062992027807724" lon="14.427520242058712"><ele>466.0</ele><time>2026-04-12T06:32:10.999Z</time></trkpt><trkpt lat="42.062932452521316" lon="14.427470295873563"><ele>466.0</ele><time>2026-04-12T06:32:14.999Z</time></trkpt><trkpt lat="42.062871276959974" lon="14.427417619756632"><ele>466.0</ele><time>2026-04-12T06:32:18.999Z</time></trkpt><trkpt lat="42.06281084343248" lon="14.427372199966062"><ele>466.0</ele><time>2026-04-12T06:32:22.999Z</time></trkpt><trkpt lat="42.06277004499611" lon="14.427304590077544"><ele>466.0</ele><time>2026-04-12T06:32:26.999Z</time></trkpt><trkpt lat="42.062726496504894" lon="14.427237014827462"><ele>466.0</ele><time>2026-04-12T06:32:30.999Z</time></trkpt><trkpt lat="42.0626887712499" lon="14.427164873696208"><ele>466.0</ele><time>2026-04-12T06:32:34.999Z</time></trkpt><trkpt lat="42.06262535611431" lon="14.42708882520861"><ele>466.0</ele><time>2026-04-12T06:32:39.999Z</time></trkpt><trkpt lat="42.062567509669485" lon="14.427053023245467"><ele>466.0</ele><time>2026-04-12T06:32:43.999Z</time></trkpt><trkpt lat="42.062498852601465" lon="14.427038353069683"><ele>466.0</ele><time>2026-04-12T06:32:47.999Z</time></trkpt><trkpt lat="42.06241946668095" lon="14.427029501208834"><ele>466.0</ele><time>2026-04-12T06:32:51.999Z</time></trkpt><trkpt lat="42.06234810449977" lon="14.427034135089189"><ele>468.0</ele><time>2026-04-12T06:32:55.998Z</time></trkpt><trkpt lat="42.06228271668507" lon="14.427041391448256"><ele>470.0</ele><time>2026-04-12T06:32:58.998Z</time></trkpt><trkpt lat="42.06221007915674" lon="14.42704206856509"><ele>472.0</ele><time>2026-04-12T06:33:02.998Z</time></trkpt><trkpt lat="42.062141580960535" lon="14.427050475526189"><ele>474.0</ele><time>2026-04-12T06:33:07Z</time></trkpt><trkpt lat="42.06206887816902" lon="14.427040898165183"><ele>476.0</ele><time>2026-04-12T06:33:12Z</time></trkpt><trkpt lat="42.06199610653633" lon="14.427027512059007"><ele>478.0</ele><time>2026-04-12T06:33:16Z</time></trkpt><trkpt lat="42.06193344143184" lon="14.42701282854786"><ele>480.0</ele><time>2026-04-12T06:33:20Z</time></trkpt><trkpt lat="42.061855585167926" lon="14.426993644637623"><ele>480.0</ele><time>2026-04-12T06:33:24Z</time></trkpt><trkpt lat="42.06178019958724" lon="14.426937961079174"><ele>480.0</ele><time>2026-04-12T06:33:29Z</time></trkpt><trkpt lat="42.06171640091593" lon="14.426861195900358"><ele>480.0</ele><time>2026-04-12T06:33:34Z</time></trkpt><trkpt lat="42.061664847333674" lon="14.42676386324964"><ele>480.0</ele><time>2026-04-12T06:33:39Z</time></trkpt><trkpt lat="42.06163698441885" lon="14.426661569960068"><ele>480.0</ele><time>2026-04-12T06:33:44Z</time></trkpt><trkpt lat="42.06164104424839" lon="14.426558628924555"><ele>480.0</ele><time>2026-04-12T06:33:48Z</time></trkpt><trkpt lat="42.06167176851062" lon="14.4264741573415"><ele>480.0</ele><time>2026-04-12T06:33:52Z</time></trkpt><trkpt lat="42.06171459388793" lon="14.42640979271892"><ele>480.0</ele><time>2026-04-12T06:33:56Z</time></trkpt><trkpt lat="42.06176875905202" lon="14.426345771803017"><ele>480.0</ele><time>2026-04-12T06:34:00Z</time></trkpt><trkpt lat="42.0618196216948" lon="14.42629386051102"><ele>480.0</ele><time>2026-04-12T06:34:03Z</time></trkpt><trkpt lat="42.06186904339444" lon="14.426230572550397"><ele>480.0</ele><time>2026-04-12T06:34:06.999Z</time></trkpt><trkpt lat="42.061924140156286" lon="14.426151044356216"><ele>480.0</ele><time>2026-04-12T06:34:10.999Z</time></trkpt><trkpt lat="42.061969063379216" lon="14.426073338390884"><ele>480.0</ele><time>2026-04-12T06:34:14.999Z</time></trkpt><trkpt lat="42.062009997646285" lon="14.425997562123914"><ele>479.57142857142856</ele><time>2026-04-12T06:34:18.999Z</time></trkpt><trkpt lat="42.062042984812784" lon="14.42591241604969"><ele>479.1428571428571</ele><time>2026-04-12T06:34:22.999Z</time></trkpt><trkpt lat="42.062059801244565" lon="14.425817245597853"><ele>478.71428571428567</ele><time>2026-04-12T06:34:26.999Z</time></trkpt><trkpt lat="42.0620564518309" lon="14.4257268195408"><ele>478.2857142857143</ele><time>2026-04-12T06:34:30.999Z</time></trkpt><trkpt lat="42.062037467768604" lon="14.425639774108754"><ele>477.8571428571428</ele><time>2026-04-12T06:34:34.999Z</time></trkpt><trkpt lat="42.06200910516799" lon="14.425556860910907"><ele>477.4285714285714</ele><time>2026-04-12T06:34:37.999Z</time></trkpt><trkpt lat="42.06197232144531" lon="14.425479239239708"><ele>477.0</ele><time>2026-04-12T06:34:41.999Z</time></trkpt><trkpt lat="42.06192350322364" lon="14.4254099867417"><ele>477.0</ele><time>2026-04-12T06:34:45.999Z</time></trkpt><trkpt lat="42.06185592860614" lon="14.42536960647952"><ele>476.99999999999994</ele><time>2026-04-12T06:34:49.999Z</time></trkpt><trkpt lat="42.06179011375862" lon="14.42535570186317"><ele>477.0</ele><time>2026-04-12T06:34:53.999Z</time></trkpt><trkpt lat="42.061716573681835" lon="14.425373585188218"><ele>477.0</ele><time>2026-04-12T06:34:57.999Z</time></trkpt><trkpt lat="42.061653555302144" lon="14.42541822458406"><ele>476.99999999999994</ele><time>2026-04-12T06:35:01.998Z</time></trkpt><trkpt lat="42.06160236052744" lon="14.42547989263776"><ele>477.0</ele><time>2026-04-12T06:35:05.998Z</time></trkpt><trkpt lat="42.06154553438353" lon="14.425540953863024"><ele>477.0</ele><time>2026-04-12T06:35:09.998Z</time></trkpt><trkpt lat="42.0614972870468" lon="14.425603833289461"><ele>478.1428571428571</ele><time>2026-04-12T06:35:14Z</time></trkpt><trkpt lat="42.06145086077932" lon="14.425663488502444"><ele>479.2857142857142</ele><time>2026-04-12T06:35:18Z</time></trkpt><trkpt lat="42.0614016889609" lon="14.425736714770242"><ele>480.42857142857144</ele><time>2026-04-12T06:35:22Z</time></trkpt><trkpt lat="42.06135097782309" lon="14.425808362056983"><ele>481.57142857142856</ele><time>2026-04-12T06:35:26Z</time></trkpt><trkpt lat="42.061300963824415" lon="14.425862605236421"><ele>482.7142857142857</ele><time>2026-04-12T06:35:30Z</time></trkpt><trkpt lat="42.06124991158936" lon="14.425927880661044"><ele>483.8571428571429</ele><time>2026-04-12T06:35:34Z</time></trkpt><trkpt lat="42.06119293580079" lon="14.426000177575766"><ele>485.00000000000006</ele><time>2026-04-12T06:35:38Z</time></trkpt><trkpt lat="42.06114504000623" lon="14.426075091690644"><ele>485.00000000000006</ele><time>2026-04-12T06:35:42Z</time></trkpt><trkpt lat="42.061107737684026" lon="14.42614521665454"><ele>485.0</ele><time>2026-04-12T06:35:45Z</time></trkpt><trkpt lat="42.06106869491697" lon="14.426224208663383"><ele>485.00000000000006</ele><time>2026-04-12T06:35:49Z</time></trkpt><trkpt lat="42.06103448403706" lon="14.426307991468775"><ele>485.00000000000006</ele><time>2026-04-12T06:35:53Z</time></trkpt><trkpt lat="42.061000861379945" lon="14.42638609680762"><ele>485.0</ele><time>2026-04-12T06:35:57Z</time></trkpt><trkpt lat="42.060961107064884" lon="14.426470647253034"><ele>485.00000000000006</ele><time>2026-04-12T06:36:01Z</time></trkpt><trkpt lat="42.06091684126137" lon="14.426539769980108"><ele>485.00000000000006</ele><time>2026-04-12T06:36:05Z</time></trkpt><trkpt lat="42.060858936669966" lon="14.42659954980709"><ele>486.1428571428572</ele><time>2026-04-12T06:36:09Z</time></trkpt><trkpt lat="42.060786024290444" lon="14.42664011700582"><ele>487.28571428571433</ele><time>2026-04-12T06:36:12.999Z</time></trkpt><trkpt lat="42.06072129491988" lon="14.426658916826053"><ele>488.42857142857144</ele><time>2026-04-12T06:36:16.999Z</time></trkpt><trkpt lat="42.060648488656696" lon="14.426662977268567"><ele>489.5714285714286</ele><time>2026-04-12T06:36:20.999Z</time></trkpt><trkpt lat="42.060584729944715" lon="14.426669748878917"><ele>490.7142857142858</ele><time>2026-04-12T06:36:23.999Z</time></trkpt><trkpt lat="42.060510608032715" lon="14.426677874394715"><ele>491.85714285714283</ele><time>2026-04-12T06:36:27.999Z</time></trkpt><trkpt lat="42.06044449332259" lon="14.42668381792678"><ele>493.0</ele><time>2026-04-12T06:36:31.999Z</time></trkpt><trkpt lat="42.0603800725681" lon="14.426690912902721"><ele>494.71428571428567</ele><time>2026-04-12T06:36:35.999Z</time></trkpt><trkpt lat="42.06031063523219" lon="14.426708928395884"><ele>496.42857142857144</ele><time>2026-04-12T06:36:39.999Z</time></trkpt><trkpt lat="42.06024785894326" lon="14.4267293817741"><ele>498.1428571428571</ele><time>2026-04-12T06:36:43.999Z</time></trkpt><trkpt lat="42.060172700674215" lon="14.4267398443727"><ele>499.85714285714283</ele><time>2026-04-12T06:36:48.999Z</time></trkpt><trkpt lat="42.06010536173695" lon="14.426754330355648"><ele>501.57142857142856</ele><time>2026-04-12T06:36:52.999Z</time></trkpt><trkpt lat="42.060036295765" lon="14.426783199372448"><ele>503.2857142857143</ele><time>2026-04-12T06:36:56.999Z</time></trkpt><trkpt lat="42.059971654179144" lon="14.426798980747538"><ele>505.0</ele><time>2026-04-12T06:37:00.999Z</time></trkpt><trkpt lat="42.05990366954005" lon="14.426790313643483"><ele>508.1428571428571</ele><time>2026-04-12T06:37:04.998Z</time></trkpt><trkpt lat="42.05984150199379" lon="14.426748995094304"><ele>511.2857142857142</ele><time>2026-04-12T06:37:08.998Z</time></trkpt><trkpt lat="42.05978202508544" lon="14.42666145232258"><ele>514.4285714285714</ele><time>2026-04-12T06:37:12.998Z</time></trkpt><trkpt lat="42.05974558224585" lon="14.426573931144521"><ele>517.5714285714286</ele><time>2026-04-12T06:37:15.998Z</time></trkpt><trkpt lat="42.059726783126926" lon="14.426492257106425"><ele>520.7142857142858</ele><time>2026-04-12T06:37:19Z</time></trkpt><trkpt lat="42.05971527842292" lon="14.42638177912327"><ele>523.8571428571429</ele><time>2026-04-12T06:37:23Z</time></trkpt><trkpt lat="42.059704947595094" lon="14.42629504792503"><ele>527.0</ele><time>2026-04-12T06:37:26Z</time></trkpt><trkpt lat="42.05968910042063" lon="14.426211241717048"><ele>527.0</ele><time>2026-04-12T06:37:29Z</time></trkpt><trkpt lat="42.05966869067" lon="14.426102893875994"><ele>527.0</ele><time>2026-04-12T06:37:33Z</time></trkpt><trkpt lat="42.059644200066714" lon="14.42599420579554"><ele>527.0</ele><time>2026-04-12T06:37:37Z</time></trkpt><trkpt lat="42.05960797916459" lon="14.425901096765866"><ele>527.0</ele><time>2026-04-12T06:37:41Z</time></trkpt><trkpt lat="42.05958061999033" lon="14.425822446594404"><ele>527.0</ele><time>2026-04-12T06:37:44Z</time></trkpt><trkpt lat="42.059551516945604" lon="14.425724998875289"><ele>527.0</ele><time>2026-04-12T06:37:48Z</time></trkpt><trkpt lat="42.05952390164029" lon="14.425634743411404"><ele>527.0</ele><time>2026-04-12T06:37:52Z</time></trkpt><trkpt lat="42.05949732019257" lon="14.425539361299206"><ele>527.0</ele><time>2026-04-12T06:37:55Z</time></trkpt><trkpt lat="42.0594767042459" lon="14.425435497728316"><ele>527.0</ele><time>2026-04-12T06:37:59Z</time></trkpt><trkpt lat="42.059465513843534" lon="14.425339154791422"><ele>527.0</ele><time>2026-04-12T06:38:03Z</time></trkpt><trkpt lat="42.059455689945864" lon="14.4252278736669"><ele>527.0</ele><time>2026-04-12T06:38:07Z</time></trkpt><trkpt lat="42.05944098983004" lon="14.425142677725999"><ele>527.0</ele><time>2026-04-12T06:38:10Z</time></trkpt><trkpt lat="42.059427811463884" lon="14.425033291335847"><ele>526.1666666666666</ele><time>2026-04-12T06:38:13.999Z</time></trkpt><trkpt lat="42.05940859940417" lon="14.424926727799832"><ele>525.3333333333333</ele><time>2026-04-12T06:38:17.999Z</time></trkpt><trkpt lat="42.05938253153196" lon="14.424820317699714"><ele>524.5</ele><time>2026-04-12T06:38:21.999Z</time></trkpt><trkpt lat="42.059349794915406" lon="14.424747813294728"><ele>523.6666666666666</ele><time>2026-04-12T06:38:24.999Z</time></trkpt><trkpt lat="42.059295858087616" lon="14.424662891384903"><ele>522.8333333333334</ele><time>2026-04-12T06:38:28.999Z</time></trkpt><trkpt lat="42.05924135334095" lon="14.42461422251665"><ele>522.0</ele><time>2026-04-12T06:38:31.999Z</time></trkpt><trkpt lat="42.05917085485557" lon="14.424569895450595"><ele>523.0</ele><time>2026-04-12T06:38:35.999Z</time></trkpt><trkpt lat="42.059093209109044" lon="14.424534120294286"><ele>524.0</ele><time>2026-04-12T06:38:39.999Z</time></trkpt><trkpt lat="42.05902554136594" lon="14.424497658546555"><ele>525.0</ele><time>2026-04-12T06:38:43.999Z</time></trkpt><trkpt lat="42.05895682297119" lon="14.424455147229528"><ele>526.0</ele><time>2026-04-12T06:38:47.999Z</time></trkpt><trkpt lat="42.0588869167778" lon="14.42441205730732"><ele>527.0</ele><time>2026-04-12T06:38:51.999Z</time></trkpt><trkpt lat="42.058814576371375" lon="14.424366899864278"><ele>528.0</ele><time>2026-04-12T06:38:55.999Z</time></trkpt><trkpt lat="42.05874610525858" lon="14.424325688247032"><ele>528.0</ele><time>2026-04-12T06:38:59.999Z</time></trkpt><trkpt lat="42.05867296975963" lon="14.424285133346485"><ele>528.0</ele><time>2026-04-12T06:39:03.999Z</time></trkpt><trkpt lat="42.058605701927796" lon="14.424242480437684"><ele>528.0</ele><time>2026-04-12T06:39:07.998Z</time></trkpt><trkpt lat="42.05853818666565" lon="14.424199380124607"><ele>528.0</ele><time>2026-04-12T06:39:11.998Z</time></trkpt><trkpt lat="42.058480961732336" lon="14.42416253439417"><ele>528.0</ele><time>2026-04-12T06:39:15.998Z</time></trkpt><trkpt lat="42.05841642505774" lon="14.424129555037851"><ele>528.0</ele><time>2026-04-12T06:39:18.998Z</time></trkpt><trkpt lat="42.05833186323844" lon="14.424082090832197"><ele>530.1428571428571</ele><time>2026-04-12T06:39:24Z</time></trkpt><trkpt lat="42.05825087009632" lon="14.424030595246967"><ele>532.2857142857143</ele><time>2026-04-12T06:39:29Z</time></trkpt><trkpt lat="42.058195671220155" lon="14.42398152531912"><ele>534.4285714285714</ele><time>2026-04-12T06:39:32Z</time></trkpt><trkpt lat="42.05814064029899" lon="14.423937250548791"><ele>536.5714285714286</ele><time>2026-04-12T06:39:36Z</time></trkpt><trkpt lat="42.058080915243195" lon="14.4238656869978"><ele>538.7142857142857</ele><time>2026-04-12T06:39:40Z</time></trkpt><trkpt lat="42.058048353763816" lon="14.42379284020513"><ele>540.8571428571429</ele><time>2026-04-12T06:39:44Z</time></trkpt><trkpt lat="42.05803128159437" lon="14.423690404595057"><ele>543.0</ele><time>2026-04-12T06:39:48Z</time></trkpt><trkpt lat="42.05803848153745" lon="14.42358477987331"><ele>543.1666666666666</ele><time>2026-04-12T06:39:52Z</time></trkpt><trkpt lat="42.058061879523784" lon="14.423483806340215"><ele>543.3333333333334</ele><time>2026-04-12T06:39:56Z</time></trkpt><trkpt lat="42.05810271996629" lon="14.423407910088173"><ele>543.5</ele><time>2026-04-12T06:40:00Z</time></trkpt><trkpt lat="42.05814888002529" lon="14.423340328745017"><ele>543.6666666666667</ele><time>2026-04-12T06:40:03Z</time></trkpt><trkpt lat="42.058211153665034" lon="14.423257910520018"><ele>543.8333333333334</ele><time>2026-04-12T06:40:07Z</time></trkpt><trkpt lat="42.05826141240856" lon="14.42318209433791"><ele>544.0</ele><time>2026-04-12T06:40:11Z</time></trkpt><trkpt lat="42.05831962945515" lon="14.423105147026341"><ele>543.5</ele><time>2026-04-12T06:40:14.999Z</time></trkpt><trkpt lat="42.058378623672795" lon="14.42303128387267"><ele>543.0</ele><time>2026-04-12T06:40:18.999Z</time></trkpt><trkpt lat="42.05843964509399" lon="14.42296795622586"><ele>542.5</ele><time>2026-04-12T06:40:22.999Z</time></trkpt><trkpt lat="42.05851510111202" lon="14.42292192278842"><ele>542.0</ele><time>2026-04-12T06:40:26.999Z</time></trkpt><trkpt lat="42.05859448536973" lon="14.422896196691697"><ele>541.5</ele><time>2026-04-12T06:40:30.999Z</time></trkpt><trkpt lat="42.05866212202494" lon="14.422884981931785"><ele>541.0</ele><time>2026-04-12T06:40:33.999Z</time></trkpt><trkpt lat="42.05872296871762" lon="14.422861629380376"><ele>541.0</ele><time>2026-04-12T06:40:36.999Z</time></trkpt><trkpt lat="42.05879358520292" lon="14.42281699494277"><ele>541.0</ele><time>2026-04-12T06:40:40.999Z</time></trkpt><trkpt lat="42.058856913571944" lon="14.42275804360124"><ele>541.0</ele><time>2026-04-12T06:40:44.999Z</time></trkpt><trkpt lat="42.058920225458465" lon="14.422696157343236"><ele>541.0</ele><time>2026-04-12T06:40:48.999Z</time></trkpt><trkpt lat="42.058968821241784" lon="14.422640398805585"><ele>541.0</ele><time>2026-04-12T06:40:51.999Z</time></trkpt><trkpt lat="42.05902290041734" lon="14.422562662320704"><ele>541.0</ele><time>2026-04-12T06:40:55.999Z</time></trkpt><trkpt lat="42.05907636151239" lon="14.42249145067248"><ele>540.1666666666667</ele><time>2026-04-12T06:40:59.999Z</time></trkpt><trkpt lat="42.059132564735776" lon="14.422407924613248"><ele>539.3333333333334</ele><time>2026-04-12T06:41:03.999Z</time></trkpt><trkpt lat="42.059177308884244" lon="14.422315183915876"><ele>538.5</ele><time>2026-04-12T06:41:07.998Z</time></trkpt><trkpt lat="42.05921365900619" lon="14.4222159240052"><ele>537.6666666666666</ele><time>2026-04-12T06:41:11.998Z</time></trkpt><trkpt lat="42.05923575481992" lon="14.422111806280995"><ele>536.8333333333333</ele><time>2026-04-12T06:41:15.998Z</time></trkpt><trkpt lat="42.059261405873144" lon="14.422003822352044"><ele>536.0</ele><time>2026-04-12T06:41:19.998Z</time></trkpt><trkpt lat="42.05927599949729" lon="14.421917955340232"><ele>536.0</ele><time>2026-04-12T06:41:22.998Z</time></trkpt><trkpt lat="42.0592878141956" lon="14.421832269626627"><ele>536.0</ele><time>2026-04-12T06:41:25.998Z</time></trkpt><trkpt lat="42.05928527475289" lon="14.421743883384906"><ele>536.0</ele><time>2026-04-12T06:41:29Z</time></trkpt><trkpt lat="42.05925306621222" lon="14.42164392751463"><ele>536.0</ele><time>2026-04-12T06:41:33Z</time></trkpt><trkpt lat="42.059194006856856" lon="14.421580198323946"><ele>536.0</ele><time>2026-04-12T06:41:37Z</time></trkpt><trkpt lat="42.05911470580128" lon="14.421565426811869"><ele>536.0</ele><time>2026-04-12T06:41:41Z</time></trkpt><trkpt lat="42.05903740389744" lon="14.421600327580403"><ele>536.0</ele><time>2026-04-12T06:41:45Z</time></trkpt><trkpt lat="42.05898863025717" lon="14.421666306973044"><ele>537.5</ele><time>2026-04-12T06:41:49Z</time></trkpt><trkpt lat="42.058937633596976" lon="14.421741653630692"><ele>539.0</ele><time>2026-04-12T06:41:53Z</time></trkpt><trkpt lat="42.05888468231601" lon="14.421818896285739"><ele>540.5</ele><time>2026-04-12T06:41:57Z</time></trkpt><trkpt lat="42.05883061779933" lon="14.42189145857327"><ele>542.0</ele><time>2026-04-12T06:42:01Z</time></trkpt><trkpt lat="42.05876587742463" lon="14.421952337559"><ele>543.5</ele><time>2026-04-12T06:42:05Z</time></trkpt><trkpt lat="42.05869292976277" lon="14.421989398088044"><ele>545.0</ele><time>2026-04-12T06:42:09Z</time></trkpt><trkpt lat="42.05861989281736" lon="14.422015854820186"><ele>545.0</ele><time>2026-04-12T06:42:13Z</time></trkpt><trkpt lat="42.05853970944355" lon="14.422031490827775"><ele>545.0</ele><time>2026-04-12T06:42:16.999Z</time></trkpt><trkpt lat="42.05846217900672" lon="14.422042259615592"><ele>545.0</ele><time>2026-04-12T06:42:20.999Z</time></trkpt><trkpt lat="42.058387324171186" lon="14.422056841773369"><ele>545.0</ele><time>2026-04-12T06:42:24.999Z</time></trkpt><trkpt lat="42.05830989277207" lon="14.42206442535704"><ele>545.0</ele><time>2026-04-12T06:42:28.999Z</time></trkpt><trkpt lat="42.05822857270723" lon="14.422079342909278"><ele>545.0</ele><time>2026-04-12T06:42:32.999Z</time></trkpt><trkpt lat="42.058150807089085" lon="14.422098625612218"><ele>546.0</ele><time>2026-04-12T06:42:36.999Z</time></trkpt><trkpt lat="42.05807356695418" lon="14.422129032219841"><ele>547.0</ele><time>2026-04-12T06:42:40.999Z</time></trkpt><trkpt lat="42.05800011823903" lon="14.422169935575987"><ele>548.0</ele><time>2026-04-12T06:42:44.999Z</time></trkpt><trkpt lat="42.057923631063424" lon="14.422212098482406"><ele>549.0</ele><time>2026-04-12T06:42:48.999Z</time></trkpt><trkpt lat="42.05785081119813" lon="14.422257686986809"><ele>550.0</ele><time>2026-04-12T06:42:52.999Z</time></trkpt><trkpt lat="42.057776846967144" lon="14.422301913039302"><ele>551.0</ele><time>2026-04-12T06:42:56.999Z</time></trkpt><trkpt lat="42.05770629854562" lon="14.422346337258007"><ele>551.0</ele><time>2026-04-12T06:43:00.999Z</time></trkpt><trkpt lat="42.057635184063884" lon="14.422388410467796"><ele>551.0</ele><time>2026-04-12T06:43:04.999Z</time></trkpt><trkpt lat="42.0575625388207" lon="14.422427649713148"><ele>551.0</ele><time>2026-04-12T06:43:08.999Z</time></trkpt><trkpt lat="42.0574868509391" lon="14.4224663606331"><ele>551.0</ele><time>2026-04-12T06:43:12.998Z</time></trkpt><trkpt lat="42.05741055138657" lon="14.422509800241468"><ele>551.0</ele><time>2026-04-12T06:43:16.998Z</time></trkpt><trkpt lat="42.05733848242764" lon="14.422555133395063"><ele>551.0</ele><time>2026-04-12T06:43:20.998Z</time></trkpt><trkpt lat="42.05726976105506" lon="14.422606354226417"><ele>551.1666666666666</ele><time>2026-04-12T06:43:24.998Z</time></trkpt><trkpt lat="42.05720247642377" lon="14.422661847730494"><ele>551.3333333333333</ele><time>2026-04-12T06:43:28.998Z</time></trkpt><trkpt lat="42.05713638134821" lon="14.422729694592777"><ele>551.5</ele><time>2026-04-12T06:43:32.998Z</time></trkpt><trkpt lat="42.05707897022317" lon="14.422798347869414"><ele>551.6666666666666</ele><time>2026-04-12T06:43:37Z</time></trkpt><trkpt lat="42.05703033650969" lon="14.422878303313494"><ele>551.8333333333334</ele><time>2026-04-12T06:43:41Z</time></trkpt><trkpt lat="42.05697406651866" lon="14.422946077349195"><ele>552.0</ele><time>2026-04-12T06:43:45Z</time></trkpt><trkpt lat="42.056911165322475" lon="14.423007042784635"><ele>552.0</ele><time>2026-04-12T06:43:49Z</time></trkpt><trkpt lat="42.05684571242348" lon="14.4230682387262"><ele>552.0</ele><time>2026-04-12T06:43:53Z</time></trkpt><trkpt lat="42.05677008496863" lon="14.423111769262016"><ele>552.0</ele><time>2026-04-12T06:43:57Z</time></trkpt><trkpt lat="42.056707148573075" lon="14.423121970003512"><ele>552.0</ele><time>2026-04-12T06:44:00Z</time></trkpt><trkpt lat="42.056644497372574" lon="14.423111848428933"><ele>552.0</ele><time>2026-04-12T06:44:03Z</time></trkpt><trkpt lat="42.05657189290894" lon="14.423070801028688"><ele>552.0</ele><time>2026-04-12T06:44:07Z</time></trkpt><trkpt lat="42.05650912410426" lon="14.42300313694319"><ele>552.0</ele><time>2026-04-12T06:44:11Z</time></trkpt><trkpt lat="42.05646288470761" lon="14.422920543073866"><ele>551.2857142857143</ele><time>2026-04-12T06:44:15Z</time></trkpt><trkpt lat="42.05643921573136" lon="14.422823373895746"><ele>550.5714285714287</ele><time>2026-04-12T06:44:18.999Z</time></trkpt><trkpt lat="42.05642756970613" lon="14.422723695402182"><ele>549.8571428571429</ele><time>2026-04-12T06:44:22.999Z</time></trkpt><trkpt lat="42.05640693172771" lon="14.422617324559145"><ele>549.1428571428571</ele><time>2026-04-12T06:44:26.999Z</time></trkpt><trkpt lat="42.0563976776442" lon="14.422532592838715"><ele>548.4285714285713</ele><time>2026-04-12T06:44:29.999Z</time></trkpt><trkpt lat="42.05638225875242" lon="14.422424714488272"><ele>547.7142857142857</ele><time>2026-04-12T06:44:33.999Z</time></trkpt><trkpt lat="42.056370163568566" lon="14.422340749459373"><ele>547.0</ele><time>2026-04-12T06:44:36.999Z</time></trkpt><trkpt lat="42.0563586690192" lon="14.422256151831798"><ele>547.0</ele><time>2026-04-12T06:44:39.999Z</time></trkpt><trkpt lat="42.05635009421912" lon="14.422170037662223"><ele>547.0</ele><time>2026-04-12T06:44:42.999Z</time></trkpt><trkpt lat="42.056334781098876" lon="14.422084530256889"><ele>547.0</ele><time>2026-04-12T06:44:45.999Z</time></trkpt><trkpt lat="42.05632701704952" lon="14.421996134425235"><ele>547.0</ele><time>2026-04-12T06:44:48.999Z</time></trkpt><trkpt lat="42.056311575571556" lon="14.421910479539406"><ele>547.0</ele><time>2026-04-12T06:44:51.999Z</time></trkpt><trkpt lat="42.05628941647202" lon="14.4218249784689"><ele>547.0</ele><time>2026-04-12T06:44:54.999Z</time></trkpt><trkpt lat="42.056264946905365" lon="14.421735514802382"><ele>547.0</ele><time>2026-04-12T06:44:57.999Z</time></trkpt><trkpt lat="42.05623097272381" lon="14.421653277299765"><ele>548.1428571428571</ele><time>2026-04-12T06:45:00.999Z</time></trkpt><trkpt lat="42.0561889013574" lon="14.421575793558835"><ele>549.2857142857142</ele><time>2026-04-12T06:45:03.999Z</time></trkpt><trkpt lat="42.056139057658804" lon="14.421502898845704"><ele>550.4285714285714</ele><time>2026-04-12T06:45:06.999Z</time></trkpt><trkpt lat="42.056078582559245" lon="14.421443232770528"><ele>551.5714285714286</ele><time>2026-04-12T06:45:09.999Z</time></trkpt><trkpt lat="42.05601543420947" lon="14.421392820803003"><ele>552.7142857142858</ele><time>2026-04-12T06:45:12.998Z</time></trkpt><trkpt lat="42.055949567947394" lon="14.421343867627881"><ele>553.8571428571429</ele><time>2026-04-12T06:45:15.998Z</time></trkpt><trkpt lat="42.055885245423276" lon="14.421298631315054"><ele>555.0</ele><time>2026-04-12T06:45:18.998Z</time></trkpt><trkpt lat="42.05582099776611" lon="14.42126072688338"><ele>555.5714285714287</ele><time>2026-04-12T06:45:21.998Z</time></trkpt><trkpt lat="42.055760192250254" lon="14.42121348273836"><ele>556.1428571428571</ele><time>2026-04-12T06:45:24.998Z</time></trkpt><trkpt lat="42.055697545841944" lon="14.421168810503042"><ele>556.7142857142858</ele><time>2026-04-12T06:45:27.998Z</time></trkpt><trkpt lat="42.05563599373162" lon="14.421125103298587"><ele>557.2857142857143</ele><time>2026-04-12T06:45:30.998Z</time></trkpt><trkpt lat="42.05557356241243" lon="14.421078706365394"><ele>557.8571428571429</ele><time>2026-04-12T06:45:33.998Z</time></trkpt><trkpt lat="42.05550780088749" lon="14.421039080608884"><ele>558.4285714285714</ele><time>2026-04-12T06:45:36.998Z</time></trkpt><trkpt lat="42.05544810372922" lon="14.420993015654265"><ele>559.0</ele><time>2026-04-12T06:45:40Z</time></trkpt><trkpt lat="42.055388654604535" lon="14.420942115611986"><ele>559.0</ele><time>2026-04-12T06:45:43Z</time></trkpt><trkpt lat="42.05533402799579" lon="14.420890430131102"><ele>559.0</ele><time>2026-04-12T06:45:46Z</time></trkpt><trkpt lat="42.05528672894597" lon="14.420828117877731"><ele>559.0</ele><time>2026-04-12T06:45:49Z</time></trkpt><trkpt lat="42.05524799797478" lon="14.420753150619092"><ele>559.0</ele><time>2026-04-12T06:45:52Z</time></trkpt><trkpt lat="42.05522633943668" lon="14.420672240951285"><ele>559.0</ele><time>2026-04-12T06:45:55Z</time></trkpt><trkpt lat="42.055215952696436" lon="14.420564908763446"><ele>559.0</ele><time>2026-04-12T06:45:59Z</time></trkpt><trkpt lat="42.0552142579818" lon="14.420478714059247"><ele>559.0</ele><time>2026-04-12T06:46:02Z</time></trkpt><trkpt lat="42.05521260798903" lon="14.420389456142843"><ele>560.2857142857143</ele><time>2026-04-12T06:46:05Z</time></trkpt><trkpt lat="42.05521197400638" lon="14.420300495922085"><ele>561.5714285714287</ele><time>2026-04-12T06:46:08Z</time></trkpt><trkpt lat="42.055208632313935" lon="14.420210478793125"><ele>562.8571428571429</ele><time>2026-04-12T06:46:11Z</time></trkpt><trkpt lat="42.05520360072543" lon="14.420120226368251"><ele>564.1428571428571</ele><time>2026-04-12T06:46:14Z</time></trkpt><trkpt lat="42.05519801736873" lon="14.420029698967825"><ele>565.4285714285713</ele><time>2026-04-12T06:46:17Z</time></trkpt><trkpt lat="42.055189602734195" lon="14.419940805334807"><ele>566.7142857142857</ele><time>2026-04-12T06:46:20Z</time></trkpt><trkpt lat="42.05518336120838" lon="14.419853275989128"><ele>568.0</ele><time>2026-04-12T06:46:22.999Z</time></trkpt><trkpt lat="42.055171849972005" lon="14.419768086012818"><ele>568.0</ele><time>2026-04-12T06:46:25.999Z</time></trkpt><trkpt lat="42.05516430572072" lon="14.419681140037012"><ele>568.0</ele><time>2026-04-12T06:46:28.999Z</time></trkpt><trkpt lat="42.055151571865316" lon="14.419596470996416"><ele>568.0</ele><time>2026-04-12T06:46:31.999Z</time></trkpt><trkpt lat="42.05514570403873" lon="14.419509439921434"><ele>568.0</ele><time>2026-04-12T06:46:34.999Z</time></trkpt><trkpt lat="42.05513613894869" lon="14.419423005648651"><ele>568.0</ele><time>2026-04-12T06:46:37.999Z</time></trkpt><trkpt lat="42.05511992699737" lon="14.41931216857335"><ele>568.0</ele><time>2026-04-12T06:46:41.999Z</time></trkpt><trkpt lat="42.0551083684612" lon="14.419225300729567"><ele>568.0</ele><time>2026-04-12T06:46:44.999Z</time></trkpt><trkpt lat="42.0550764405057" lon="14.419117500579812"><ele>567.8571428571429</ele><time>2026-04-12T06:46:48.999Z</time></trkpt><trkpt lat="42.05504001689886" lon="14.41903932143203"><ele>567.7142857142857</ele><time>2026-04-12T06:46:51.999Z</time></trkpt><trkpt lat="42.05498828383714" lon="14.418976692233343"><ele>567.5714285714286</ele><time>2026-04-12T06:46:54.999Z</time></trkpt><trkpt lat="42.054931014525316" lon="14.418929855708644"><ele>567.4285714285714</ele><time>2026-04-12T06:46:57.999Z</time></trkpt><trkpt lat="42.05487232470844" lon="14.4188921828991"><ele>567.2857142857142</ele><time>2026-04-12T06:47:00.999Z</time></trkpt><trkpt lat="42.054801767580386" lon="14.418845084597475"><ele>567.1428571428571</ele><time>2026-04-12T06:47:03.999Z</time></trkpt><trkpt lat="42.05473249073588" lon="14.418805131617907"><ele>567.0</ele><time>2026-04-12T06:47:06.999Z</time></trkpt><trkpt lat="42.05466045455904" lon="14.418773926475398"><ele>569.5</ele><time>2026-04-12T06:47:09.999Z</time></trkpt><trkpt lat="42.054590907882734" lon="14.418737530513775"><ele>572.0</ele><time>2026-04-12T06:47:12.999Z</time></trkpt><trkpt lat="42.05452130672955" lon="14.418699886965316"><ele>574.5</ele><time>2026-04-12T06:47:15.999Z</time></trkpt><trkpt lat="42.054447779447166" lon="14.418643587954183"><ele>577.0</ele><time>2026-04-12T06:47:18.998Z</time></trkpt><trkpt lat="42.05437712663176" lon="14.41858950247224"><ele>579.5</ele><time>2026-04-12T06:47:21.998Z</time></trkpt><trkpt lat="42.054311537838245" lon="14.418526212232706"><ele>582.0</ele><time>2026-04-12T06:47:24.998Z</time></trkpt><trkpt lat="42.0542461734974" lon="14.418445416325483"><ele>582.0</ele><time>2026-04-12T06:47:27.998Z</time></trkpt><trkpt lat="42.05418928755772" lon="14.418368501677602"><ele>582.0</ele><time>2026-04-12T06:47:30.998Z</time></trkpt><trkpt lat="42.054130641006914" lon="14.418305008295109"><ele>582.0</ele><time>2026-04-12T06:47:33.998Z</time></trkpt><trkpt lat="42.05406353559777" lon="14.418253661132749"><ele>582.0</ele><time>2026-04-12T06:47:36.998Z</time></trkpt><trkpt lat="42.05399038381676" lon="14.41821805567438"><ele>582.0</ele><time>2026-04-12T06:47:39.998Z</time></trkpt><trkpt lat="42.05391668203865" lon="14.418193429272185"><ele>582.0</ele><time>2026-04-12T06:47:42.998Z</time></trkpt><trkpt lat="42.05383803871163" lon="14.418171995387297"><ele>581.6666666666666</ele><time>2026-04-12T06:47:46Z</time></trkpt><trkpt lat="42.05375846112856" lon="14.418151067022011"><ele>581.3333333333334</ele><time>2026-04-12T06:47:49Z</time></trkpt><trkpt lat="42.053679115455516" lon="14.41813176403493"><ele>581.0</ele><time>2026-04-12T06:47:52Z</time></trkpt><trkpt lat="42.053598702644045" lon="14.418122569270839"><ele>580.6666666666667</ele><time>2026-04-12T06:47:55Z</time></trkpt><trkpt lat="42.053518902161706" lon="14.418129721217328"><ele>580.3333333333334</ele><time>2026-04-12T06:47:58Z</time></trkpt><trkpt lat="42.053433738388314" lon="14.418164127849357"><ele>580.0</ele><time>2026-04-12T06:48:01Z</time></trkpt><trkpt lat="42.05335473712004" lon="14.418217544060969"><ele>581.5</ele><time>2026-04-12T06:48:04Z</time></trkpt><trkpt lat="42.05328465661619" lon="14.418282922252379"><ele>583.0</ele><time>2026-04-12T06:48:07Z</time></trkpt><trkpt lat="42.05321896251154" lon="14.418367550096276"><ele>584.5</ele><time>2026-04-12T06:48:10Z</time></trkpt><trkpt lat="42.0531550127466" lon="14.418451909836527"><ele>586.0</ele><time>2026-04-12T06:48:13Z</time></trkpt><trkpt lat="42.05309501795827" lon="14.418543136711246"><ele>587.5</ele><time>2026-04-12T06:48:16Z</time></trkpt><trkpt lat="42.05303020969826" lon="14.418623748574094"><ele>589.0</ele><time>2026-04-12T06:48:19Z</time></trkpt><trkpt lat="42.052958979199914" lon="14.41870643032653"><ele>589.0</ele><time>2026-04-12T06:48:22Z</time></trkpt><trkpt lat="42.052906022830356" lon="14.418760639109978"><ele>589.0</ele><time>2026-04-12T06:48:24Z</time></trkpt><trkpt lat="42.05284586819265" lon="14.418810542845737"><ele>589.0</ele><time>2026-04-12T06:48:25.999Z</time></trkpt><trkpt lat="42.05278406525943" lon="14.418851123897342"><ele>589.0</ele><time>2026-04-12T06:48:27.999Z</time></trkpt><trkpt lat="42.05271988250639" lon="14.418875890404621"><ele>589.0</ele><time>2026-04-12T06:48:29.999Z</time></trkpt><trkpt lat="42.052658515947805" lon="14.418895309238307"><ele>589.0</ele><time>2026-04-12T06:48:31.999Z</time></trkpt><trkpt lat="42.05256623045962" lon="14.418911140505378"><ele>589.0</ele><time>2026-04-12T06:48:34.999Z</time></trkpt><trkpt lat="42.05249908264716" lon="14.418914559234262"><ele>586.2857142857142</ele><time>2026-04-12T06:48:36.999Z</time></trkpt><trkpt lat="42.05243548036929" lon="14.418914630141696"><ele>583.5714285714286</ele><time>2026-04-12T06:48:38.999Z</time></trkpt><trkpt lat="42.05237042459515" lon="14.41891587294282"><ele>580.8571428571429</ele><time>2026-04-12T06:48:40.999Z</time></trkpt><trkpt lat="42.052306095960816" lon="14.418914208104411"><ele>578.1428571428571</ele><time>2026-04-12T06:48:42.999Z</time></trkpt><trkpt lat="42.05223906202512" lon="14.418911551222626"><ele>575.4285714285714</ele><time>2026-04-12T06:48:44.999Z</time></trkpt><trkpt lat="42.05217186021182" lon="14.418906693283299"><ele>572.7142857142857</ele><time>2026-04-12T06:48:46.999Z</time></trkpt><trkpt lat="42.05210220018109" lon="14.41889658905473"><ele>570.0</ele><time>2026-04-12T06:48:48.999Z</time></trkpt><trkpt lat="42.05203425371881" lon="14.418867164893426"><ele>570.0</ele><time>2026-04-12T06:48:50.999Z</time></trkpt><trkpt lat="42.05196974647819" lon="14.418820733216693"><ele>570.0</ele><time>2026-04-12T06:48:52.999Z</time></trkpt><trkpt lat="42.05191116799154" lon="14.418739204263858"><ele>570.0</ele><time>2026-04-12T06:48:54.999Z</time></trkpt><trkpt lat="42.051865920935846" lon="14.418643625894934"><ele>570.0</ele><time>2026-04-12T06:48:56.999Z</time></trkpt><trkpt lat="42.05183895993284" lon="14.418547006612942"><ele>570.0</ele><time>2026-04-12T06:48:58.999Z</time></trkpt><trkpt lat="42.05183095590488" lon="14.418436455436565"><ele>570.0</ele><time>2026-04-12T06:49:00.999Z</time></trkpt><trkpt lat="42.05183948370479" lon="14.418323793839418"><ele>571.5</ele><time>2026-04-12T06:49:02.999Z</time></trkpt><trkpt lat="42.0518656524487" lon="14.418220901244812"><ele>573.0</ele><time>2026-04-12T06:49:04.999Z</time></trkpt><trkpt lat="42.051882372486794" lon="14.418123314024813"><ele>574.5</ele><time>2026-04-12T06:49:06.999Z</time></trkpt><trkpt lat="42.05189528968924" lon="14.418023414634558"><ele>576.0</ele><time>2026-04-12T06:49:08.999Z</time></trkpt><trkpt lat="42.05189756088984" lon="14.417915408878313"><ele>577.5</ele><time>2026-04-12T06:49:10.999Z</time></trkpt><trkpt lat="42.051894732928304" lon="14.417800463801832"><ele>579.0</ele><time>2026-04-12T06:49:12.999Z</time></trkpt><trkpt lat="42.051879830031325" lon="14.41768881525108"><ele>579.6</ele><time>2026-04-12T06:49:14.999Z</time></trkpt><trkpt lat="42.05185252929729" lon="14.417577626213689"><ele>580.2</ele><time>2026-04-12T06:49:16.999Z</time></trkpt><trkpt lat="42.05182488713542" lon="14.417467390758473"><ele>580.8000000000001</ele><time>2026-04-12T06:49:18.998Z</time></trkpt><trkpt lat="42.05178150462841" lon="14.417362289309802"><ele>581.4</ele><time>2026-04-12T06:49:20.998Z</time></trkpt><trkpt lat="42.05171918849501" lon="14.41726788256008"><ele>582.0</ele><time>2026-04-12T06:49:22.998Z</time></trkpt><trkpt lat="42.05164008265288" lon="14.417195866741082"><ele>582.2</ele><time>2026-04-12T06:49:24.998Z</time></trkpt><trkpt lat="42.05154907148562" lon="14.417143110001645"><ele>582.4000000000001</ele><time>2026-04-12T06:49:26.998Z</time></trkpt><trkpt lat="42.05145644965404" lon="14.417092851661957"><ele>582.5999999999999</ele><time>2026-04-12T06:49:28.998Z</time></trkpt><trkpt lat="42.051362277173794" lon="14.417044486444064"><ele>582.8</ele><time>2026-04-12T06:49:30.998Z</time></trkpt><trkpt lat="42.05127337592868" lon="14.416996541423048"><ele>583.0</ele><time>2026-04-12T06:49:32.998Z</time></trkpt><trkpt lat="42.051181355416425" lon="14.416946781723444"><ele>583.0</ele><time>2026-04-12T06:49:34.998Z</time></trkpt><trkpt lat="42.05108575309465" lon="14.416895890597363"><ele>583.0</ele><time>2026-04-12T06:49:36.998Z</time></trkpt><trkpt lat="42.05098665121853" lon="14.41684280605927"><ele>583.0</ele><time>2026-04-12T06:49:38.998Z</time></trkpt><trkpt lat="42.05088821074848" lon="14.416785456145755"><ele>583.0</ele><time>2026-04-12T06:49:40.998Z</time></trkpt><trkpt lat="42.05078505855504" lon="14.416733575059965"><ele>583.0</ele><time>2026-04-12T06:49:42.998Z</time></trkpt><trkpt lat="42.05067691995088" lon="14.416694504082136"><ele>582.4</ele><time>2026-04-12T06:49:44.998Z</time></trkpt><trkpt lat="42.05056658649805" lon="14.416672109005868"><ele>581.8</ele><time>2026-04-12T06:49:46.998Z</time></trkpt><trkpt lat="42.05044786862809" lon="14.416676748697876"><ele>581.2</ele><time>2026-04-12T06:49:48.998Z</time></trkpt><trkpt lat="42.050324144174716" lon="14.416707237970629"><ele>580.6</ele><time>2026-04-12T06:49:51Z</time></trkpt><trkpt lat="42.0502625667375" lon="14.416735239897484"><ele>580.0</ele><time>2026-04-12T06:49:52Z</time></trkpt><trkpt lat="42.05019882893278" lon="14.416769805039607"><ele>580.0</ele><time>2026-04-12T06:49:53Z</time></trkpt><trkpt lat="42.050134150936735" lon="14.416806093341501"><ele>580.0</ele><time>2026-04-12T06:49:54Z</time></trkpt><trkpt lat="42.05006550680364" lon="14.416842039871513"><ele>580.0</ele><time>2026-04-12T06:49:55Z</time></trkpt><trkpt lat="42.04999687252369" lon="14.416877423957015"><ele>580.0</ele><time>2026-04-12T06:49:56Z</time></trkpt><trkpt lat="42.049926713059946" lon="14.41691394972881"><ele>580.0</ele><time>2026-04-12T06:49:57Z</time></trkpt><trkpt lat="42.04985343207089" lon="14.41694943727535"><ele>580.0</ele><time>2026-04-12T06:49:58Z</time></trkpt><trkpt lat="42.04977978724124" lon="14.416988569415055"><ele>580.0</ele><time>2026-04-12T06:49:59Z</time></trkpt><trkpt lat="42.04970785391717" lon="14.417023081758337"><ele>580.0</ele><time>2026-04-12T06:50:00Z</time></trkpt><trkpt lat="42.04963651684485" lon="14.417055851866712"><ele>580.0</ele><time>2026-04-12T06:50:01Z</time></trkpt><trkpt lat="42.049563894276176" lon="14.41708197763055"><ele>580.0</ele><time>2026-04-12T06:50:02Z</time></trkpt><trkpt lat="42.049490034409416" lon="14.417100837698237"><ele>580.0</ele><time>2026-04-12T06:50:03Z</time></trkpt><trkpt lat="42.04941386915512" lon="14.417111843882036"><ele>580.0</ele><time>2026-04-12T06:50:04Z</time></trkpt><trkpt lat="42.04933947817303" lon="14.417116356364215"><ele>580.0</ele><time>2026-04-12T06:50:05Z</time></trkpt><trkpt lat="42.049265174340356" lon="14.417117366275168"><ele>580.0</ele><time>2026-04-12T06:50:06Z</time></trkpt><trkpt lat="42.049192480055616" lon="14.417114488739843"><ele>580.0</ele><time>2026-04-12T06:50:07Z</time></trkpt><trkpt lat="42.04911735778895" lon="14.417102845442924"><ele>580.0</ele><time>2026-04-12T06:50:08Z</time></trkpt><trkpt lat="42.049044936590334" lon="14.417080035588844"><ele>580.0</ele><time>2026-04-12T06:50:09Z</time></trkpt><trkpt lat="42.04897547541825" lon="14.417045372324804"><ele>580.0</ele><time>2026-04-12T06:50:10Z</time></trkpt><trkpt lat="42.048912192643485" lon="14.41699732621941"><ele>580.0</ele><time>2026-04-12T06:50:11Z</time></trkpt><trkpt lat="42.048852614228366" lon="14.416944219393399"><ele>580.0</ele><time>2026-04-12T06:50:12Z</time></trkpt><trkpt lat="42.04879287430359" lon="14.416892038440874"><ele>577.5</ele><time>2026-04-12T06:50:13Z</time></trkpt><trkpt lat="42.04873263497751" lon="14.416839194503261"><ele>575.0</ele><time>2026-04-12T06:50:14Z</time></trkpt><trkpt lat="42.04866752813722" lon="14.416788928928064"><ele>572.5</ele><time>2026-04-12T06:50:15Z</time></trkpt><trkpt lat="42.0486022625302" lon="14.416734389009518"><ele>570.0</ele><time>2026-04-12T06:50:16Z</time></trkpt><trkpt lat="42.04853737175202" lon="14.4166768137972"><ele>567.5</ele><time>2026-04-12T06:50:17Z</time></trkpt><trkpt lat="42.04847073545983" lon="14.416620220388328"><ele>565.0</ele><time>2026-04-12T06:50:18Z</time></trkpt><trkpt lat="42.048404621858225" lon="14.416565973627817"><ele>565.0</ele><time>2026-04-12T06:50:19Z</time></trkpt><trkpt lat="42.0483356011828" lon="14.416511600739938"><ele>565.0</ele><time>2026-04-12T06:50:20Z</time></trkpt><trkpt lat="42.048267331092745" lon="14.416458591837557"><ele>565.0</ele><time>2026-04-12T06:50:21Z</time></trkpt><trkpt lat="42.048201603940434" lon="14.41639902598281"><ele>565.0</ele><time>2026-04-12T06:50:22Z</time></trkpt><trkpt lat="42.048137385528754" lon="14.416338812224573"><ele>565.0</ele><time>2026-04-12T06:50:23Z</time></trkpt><trkpt lat="42.04807359386348" lon="14.416278305074524"><ele>565.0</ele><time>2026-04-12T06:50:24Z</time></trkpt><trkpt lat="42.04801193168409" lon="14.416213788273268"><ele>564.2857142857142</ele><time>2026-04-12T06:50:25Z</time></trkpt><trkpt lat="42.0479545258677" lon="14.416144380162192"><ele>563.5714285714286</ele><time>2026-04-12T06:50:26Z</time></trkpt><trkpt lat="42.04790433474291" lon="14.416069099289011"><ele>562.8571428571429</ele><time>2026-04-12T06:50:26.999Z</time></trkpt><trkpt lat="42.047861282044614" lon="14.415987330607349"><ele>562.1428571428571</ele><time>2026-04-12T06:50:27.999Z</time></trkpt><trkpt lat="42.04782518492632" lon="14.4159019466867"><ele>561.4285714285714</ele><time>2026-04-12T06:50:28.999Z</time></trkpt><trkpt lat="42.04779544775687" lon="14.415814213295468"><ele>560.7142857142857</ele><time>2026-04-12T06:50:29.999Z</time></trkpt><trkpt lat="42.04777273677726" lon="14.415721561595042"><ele>560.0</ele><time>2026-04-12T06:50:30.999Z</time></trkpt><trkpt lat="42.0477591728074" lon="14.415623224870734"><ele>560.0</ele><time>2026-04-12T06:50:31.999Z</time></trkpt><trkpt lat="42.047751209193436" lon="14.415523532406624"><ele>560.0</ele><time>2026-04-12T06:50:32.999Z</time></trkpt><trkpt lat="42.04775091665724" lon="14.415423718639772"><ele>560.0</ele><time>2026-04-12T06:50:33.999Z</time></trkpt><trkpt lat="42.04775207354018" lon="14.415322600459447"><ele>560.0</ele><time>2026-04-12T06:50:34.999Z</time></trkpt><trkpt lat="42.04775276281892" lon="14.415220884001245"><ele>560.0</ele><time>2026-04-12T06:50:35.999Z</time></trkpt><trkpt lat="42.047752577909336" lon="14.415118226674748"><ele>560.0</ele><time>2026-04-12T06:50:36.999Z</time></trkpt><trkpt lat="42.04774919138407" lon="14.415016022295456"><ele>561.0</ele><time>2026-04-12T06:50:37.999Z</time></trkpt><trkpt lat="42.04774591545425" lon="14.414911849607345"><ele>562.0</ele><time>2026-04-12T06:50:38.999Z</time></trkpt><trkpt lat="42.047742546260615" lon="14.414807038461987"><ele>563.0</ele><time>2026-04-12T06:50:39.999Z</time></trkpt><trkpt lat="42.047739539809335" lon="14.41470325548291"><ele>564.0</ele><time>2026-04-12T06:50:40.999Z</time></trkpt><trkpt lat="42.047731944884426" lon="14.414598585607555"><ele>565.0</ele><time>2026-04-12T06:50:41.999Z</time></trkpt><trkpt lat="42.04772505663014" lon="14.414496856558488"><ele>566.0</ele><time>2026-04-12T06:50:42.999Z</time></trkpt><trkpt lat="42.0477180279379" lon="14.414398099125519"><ele>566.1428571428571</ele><time>2026-04-12T06:50:43.999Z</time></trkpt><trkpt lat="42.04770968183314" lon="14.414297240478675"><ele>566.2857142857143</ele><time>2026-04-12T06:50:44.999Z</time></trkpt><trkpt lat="42.047703135761324" lon="14.414198137578653"><ele>566.4285714285714</ele><time>2026-04-12T06:50:45.999Z</time></trkpt><trkpt lat="42.04770087541121" lon="14.414098423226427"><ele>566.5714285714286</ele><time>2026-04-12T06:50:46.999Z</time></trkpt><trkpt lat="42.047694915542834" lon="14.41400001973457"><ele>566.7142857142858</ele><time>2026-04-12T06:50:47.999Z</time></trkpt><trkpt lat="42.047686632950466" lon="14.413905210369055"><ele>566.8571428571429</ele><time>2026-04-12T06:50:48.999Z</time></trkpt><trkpt lat="42.04767816387354" lon="14.413810270154583"><ele>567.0</ele><time>2026-04-12T06:50:49.999Z</time></trkpt><trkpt lat="42.04766762572483" lon="14.41372399202951"><ele>569.25</ele><time>2026-04-12T06:50:50.999Z</time></trkpt><trkpt lat="42.04760396196674" lon="14.413577348466507"><ele>571.5</ele><time>2026-04-12T06:50:52.999Z</time></trkpt><trkpt lat="42.0475485401956" lon="14.413456837563105"><ele>573.75</ele><time>2026-04-12T06:50:54.999Z</time></trkpt><trkpt lat="42.04741987748666" lon="14.413518235751097"><ele>576.0</ele><time>2026-04-12T06:50:55.999Z</time></trkpt><trkpt lat="42.04729657246578" lon="14.413535000909771"><ele>580.4</ele><time>2026-04-12T06:50:57.999Z</time></trkpt><trkpt lat="42.04718002396106" lon="14.413576213939345"><ele>584.8</ele><time>2026-04-12T06:50:59.999Z</time></trkpt><trkpt lat="42.04709294066524" lon="14.413697781482114"><ele>589.1999999999999</ele><time>2026-04-12T06:51:01.999Z</time></trkpt><trkpt lat="42.047062291426705" lon="14.413774086489347"><ele>593.6</ele><time>2026-04-12T06:51:02.999Z</time></trkpt><trkpt lat="42.04702000797246" lon="14.413931534447464"><ele>598.0</ele><time>2026-04-12T06:51:04.999Z</time></trkpt><trkpt lat="42.046994592073894" lon="14.414083295076553"><ele>598.0</ele><time>2026-04-12T06:51:06.999Z</time></trkpt><trkpt lat="42.046997883368114" lon="14.414227106996286"><ele>598.0</ele><time>2026-04-12T06:51:08.999Z</time></trkpt><trkpt lat="42.0470055522569" lon="14.414353668970277"><ele>598.0</ele><time>2026-04-12T06:51:10.999Z</time></trkpt><trkpt lat="42.047009510024445" lon="14.414471737006153"><ele>598.0</ele><time>2026-04-12T06:51:12.999Z</time></trkpt><trkpt lat="42.0470027063754" lon="14.41457759605705"><ele>598.0</ele><time>2026-04-12T06:51:14.999Z</time></trkpt><trkpt lat="42.046998768596374" lon="14.41469940021924"><ele>595.6666666666667</ele><time>2026-04-12T06:51:17.999Z</time></trkpt><trkpt lat="42.046980375477936" lon="14.414813874042133"><ele>593.3333333333334</ele><time>2026-04-12T06:51:20.998Z</time></trkpt><trkpt lat="42.04694204600327" lon="14.414919116910525"><ele>591.0</ele><time>2026-04-12T06:51:23.998Z</time></trkpt><trkpt lat="42.04690026783918" lon="14.41501572190003"><ele>588.6666666666666</ele><time>2026-04-12T06:51:26.998Z</time></trkpt><trkpt lat="42.046837674318006" lon="14.415076302048242"><ele>586.3333333333333</ele><time>2026-04-12T06:51:29.998Z</time></trkpt><trkpt lat="42.046776717731326" lon="14.415116170242383"><ele>584.0</ele><time>2026-04-12T06:51:32.998Z</time></trkpt><trkpt lat="42.04670362812624" lon="14.415155420886185"><ele>584.0</ele><time>2026-04-12T06:51:36.998Z</time></trkpt><trkpt lat="42.04665164508587" lon="14.415206763867543"><ele>584.0</ele><time>2026-04-12T06:51:39.998Z</time></trkpt><trkpt lat="42.046606330610715" lon="14.415281924643743"><ele>584.0</ele><time>2026-04-12T06:51:43.998Z</time></trkpt><trkpt lat="42.04658593933977" lon="14.415368591934513"><ele>584.0</ele><time>2026-04-12T06:51:46.998Z</time></trkpt><trkpt lat="42.046587542211604" lon="14.415459183742271"><ele>584.0</ele><time>2026-04-12T06:51:49.998Z</time></trkpt><trkpt lat="42.04660287508431" lon="14.415542406932706"><ele>584.0</ele><time>2026-04-12T06:51:52.998Z</time></trkpt><trkpt lat="42.046626416468825" lon="14.4156465661157"><ele>584.0</ele><time>2026-04-12T06:51:57Z</time></trkpt><trkpt lat="42.046643383443495" lon="14.415753783676887"><ele>583.2857142857142</ele><time>2026-04-12T06:52:01Z</time></trkpt><trkpt lat="42.04666322520032" lon="14.415863597324476"><ele>582.5714285714286</ele><time>2026-04-12T06:52:05Z</time></trkpt><trkpt lat="42.046672868949194" lon="14.415952295288074"><ele>581.8571428571429</ele><time>2026-04-12T06:52:08Z</time></trkpt><trkpt lat="42.04668108477115" lon="14.416037437565892"><ele>581.1428571428571</ele><time>2026-04-12T06:52:11Z</time></trkpt><trkpt lat="42.04668555382138" lon="14.416122118865935"><ele>580.4285714285714</ele><time>2026-04-12T06:52:14Z</time></trkpt><trkpt lat="42.046698012691905" lon="14.416223950734043"><ele>579.7142857142857</ele><time>2026-04-12T06:52:18Z</time></trkpt><trkpt lat="42.04669666255511" lon="14.41632587409916"><ele>579.0</ele><time>2026-04-12T06:52:21Z</time></trkpt><trkpt lat="42.04670110598593" lon="14.41641782557448"><ele>578.8571428571428</ele><time>2026-04-12T06:52:24Z</time></trkpt><trkpt lat="42.04670398055031" lon="14.416512630098758"><ele>578.7142857142857</ele><time>2026-04-12T06:52:26.999Z</time></trkpt><trkpt lat="42.04671241168027" lon="14.416606064224188"><ele>578.5714285714286</ele><time>2026-04-12T06:52:29.999Z</time></trkpt><trkpt lat="42.046721986645636" lon="14.416698195199995"><ele>578.4285714285713</ele><time>2026-04-12T06:52:32.999Z</time></trkpt><trkpt lat="42.046723746335594" lon="14.416785944771908"><ele>578.2857142857142</ele><time>2026-04-12T06:52:35.999Z</time></trkpt><trkpt lat="42.046701331928666" lon="14.416891589045104"><ele>578.1428571428571</ele><time>2026-04-12T06:52:39.999Z</time></trkpt><trkpt lat="42.04664669420321" lon="14.416973224383016"><ele>578.0</ele><time>2026-04-12T06:52:43.999Z</time></trkpt><trkpt lat="42.04658476176173" lon="14.417039232754954"><ele>578.0</ele><time>2026-04-12T06:52:47.999Z</time></trkpt><trkpt lat="42.046513723120654" lon="14.41709291377041"><ele>578.0</ele><time>2026-04-12T06:52:51.999Z</time></trkpt><trkpt lat="42.0464395244921" lon="14.417139246202721"><ele>578.0</ele><time>2026-04-12T06:52:55.999Z</time></trkpt><trkpt lat="42.046381086109626" lon="14.417176871646367"><ele>578.0</ele><time>2026-04-12T06:52:58.999Z</time></trkpt><trkpt lat="42.046301190220404" lon="14.417210179104554"><ele>578.0</ele><time>2026-04-12T06:53:02.999Z</time></trkpt><trkpt lat="42.046224878979174" lon="14.417231474976624"><ele>578.0</ele><time>2026-04-12T06:53:06.999Z</time></trkpt><trkpt lat="42.04614649405906" lon="14.417241211546516"><ele>578.0</ele><time>2026-04-12T06:53:10.999Z</time></trkpt><trkpt lat="42.04607082728943" lon="14.417248448115616"><ele>578.0</ele><time>2026-04-12T06:53:14.999Z</time></trkpt><trkpt lat="42.0460005749179" lon="14.41724776153182"><ele>578.0</ele><time>2026-04-12T06:53:18.999Z</time></trkpt><trkpt lat="42.04592804010812" lon="14.41723406090639"><ele>578.0</ele><time>2026-04-12T06:53:22.998Z</time></trkpt><trkpt lat="42.04585455666994" lon="14.41721508491147"><ele>578.0</ele><time>2026-04-12T06:53:26.998Z</time></trkpt><trkpt lat="42.04578623360819" lon="14.417192467470397"><ele>578.0</ele><time>2026-04-12T06:53:30.998Z</time></trkpt><trkpt lat="42.04571300216542" lon="14.417160756908237"><ele>578.0</ele><time>2026-04-12T06:53:34.998Z</time></trkpt><trkpt lat="42.04565454565533" lon="14.417123644944152"><ele>580.8571428571429</ele><time>2026-04-12T06:53:37.998Z</time></trkpt><trkpt lat="42.04559590934673" lon="14.417087313700295"><ele>583.7142857142857</ele><time>2026-04-12T06:53:40.998Z</time></trkpt><trkpt lat="42.04553923434028" lon="14.417048800664796"><ele>586.5714285714286</ele><time>2026-04-12T06:53:43.998Z</time></trkpt><trkpt lat="42.04547885819028" lon="14.417006665462013"><ele>589.4285714285714</ele><time>2026-04-12T06:53:46.998Z</time></trkpt><trkpt lat="42.04542031226036" lon="14.416971697531084"><ele>592.2857142857143</ele><time>2026-04-12T06:53:49.998Z</time></trkpt><trkpt lat="42.04534768057589" lon="14.416917270130476"><ele>595.1428571428571</ele><time>2026-04-12T06:53:53.998Z</time></trkpt><trkpt lat="42.04529105609159" lon="14.416877696717743"><ele>598.0</ele><time>2026-04-12T06:53:56.998Z</time></trkpt><trkpt lat="42.045234823888" lon="14.416836684963355"><ele>598.0</ele><time>2026-04-12T06:53:59.998Z</time></trkpt><trkpt lat="42.04516264078257" lon="14.416784181660306"><ele>598.0</ele><time>2026-04-12T06:54:04Z</time></trkpt><trkpt lat="42.04510615391606" lon="14.416741471988496"><ele>598.0</ele><time>2026-04-12T06:54:07Z</time></trkpt><trkpt lat="42.04504602264075" lon="14.416705299428997"><ele>598.0</ele><time>2026-04-12T06:54:10Z</time></trkpt><trkpt lat="42.04498705476525" lon="14.41667221366291"><ele>598.0</ele><time>2026-04-12T06:54:13Z</time></trkpt><trkpt lat="42.044920581367506" lon="14.416649460994549"><ele>598.0</ele><time>2026-04-12T06:54:16Z</time></trkpt><trkpt lat="42.04485142664238" lon="14.41663011240921"><ele>598.0</ele><time>2026-04-12T06:54:19Z</time></trkpt><trkpt lat="42.04478019588622" lon="14.41662216430625"><ele>599.8333333333334</ele><time>2026-04-12T06:54:22Z</time></trkpt><trkpt lat="42.04470053153127" lon="14.4166262492148"><ele>601.6666666666667</ele><time>2026-04-12T06:54:25Z</time></trkpt><trkpt lat="42.04462144055469" lon="14.416642405548906"><ele>603.5</ele><time>2026-04-12T06:54:28Z</time></trkpt><trkpt lat="42.044543568027144" lon="14.416666050160776"><ele>605.3333333333334</ele><time>2026-04-12T06:54:30.999Z</time></trkpt><trkpt lat="42.04446910158154" lon="14.41670647411617"><ele>607.1666666666666</ele><time>2026-04-12T06:54:33.999Z</time></trkpt><trkpt lat="42.044397308172954" lon="14.416751513009867"><ele>609.0</ele><time>2026-04-12T06:54:36.999Z</time></trkpt><trkpt lat="42.044327764128354" lon="14.41679081085322"><ele>609.0</ele><time>2026-04-12T06:54:39.999Z</time></trkpt><trkpt lat="42.0442655409459" lon="14.416841752879073"><ele>609.0</ele><time>2026-04-12T06:54:42.999Z</time></trkpt><trkpt lat="42.044195752241805" lon="14.41688931522984"><ele>609.0</ele><time>2026-04-12T06:54:45.999Z</time></trkpt><trkpt lat="42.044129361026044" lon="14.41694028460068"><ele>609.0</ele><time>2026-04-12T06:54:48.999Z</time></trkpt><trkpt lat="42.04406486192097" lon="14.416990400158708"><ele>609.0</ele><time>2026-04-12T06:54:51.999Z</time></trkpt><trkpt lat="42.04399983507479" lon="14.41704310863055"><ele>609.0</ele><time>2026-04-12T06:54:54.999Z</time></trkpt><trkpt lat="42.043940874108195" lon="14.417100880199428"><ele>608.7142857142857</ele><time>2026-04-12T06:54:57.999Z</time></trkpt><trkpt lat="42.04388602269169" lon="14.417153123466155"><ele>608.4285714285714</ele><time>2026-04-12T06:55:00.999Z</time></trkpt><trkpt lat="42.04381959018672" lon="14.417220844536654"><ele>608.1428571428571</ele><time>2026-04-12T06:55:04.999Z</time></trkpt><trkpt lat="42.04376515451228" lon="14.417267864180607"><ele>607.8571428571429</ele><time>2026-04-12T06:55:07.999Z</time></trkpt><trkpt lat="42.04371400763693" lon="14.417320358421524"><ele>607.5714285714286</ele><time>2026-04-12T06:55:11.999Z</time></trkpt><trkpt lat="42.043661811822545" lon="14.417387639179923"><ele>607.2857142857142</ele><time>2026-04-12T06:56:48.999Z</time></trkpt><trkpt lat="42.04360933227725" lon="14.41745777971984"><ele>607.0</ele><time>2026-04-12T06:56:53.999Z</time></trkpt><trkpt lat="42.04356680600097" lon="14.417522370879581"><ele>606.9999999999999</ele><time>2026-04-12T06:56:57.999Z</time></trkpt><trkpt lat="42.04351441705341" lon="14.41759814019663"><ele>607.0</ele><time>2026-04-12T06:57:01.999Z</time></trkpt><trkpt lat="42.04346353941453" lon="14.41767402089691"><ele>607.0</ele><time>2026-04-12T06:57:05.999Z</time></trkpt><trkpt lat="42.04340857193705" lon="14.41775467638946"><ele>607.0</ele><time>2026-04-12T06:57:09.999Z</time></trkpt><trkpt lat="42.04335719152488" lon="14.417818268280545"><ele>607.0</ele><time>2026-04-12T06:57:12.999Z</time></trkpt><trkpt lat="42.04330153391082" lon="14.417865122428406"><ele>606.9999999999999</ele><time>2026-04-12T06:57:15.999Z</time></trkpt><trkpt lat="42.043236506601026" lon="14.417896893430095"><ele>607.0</ele><time>2026-04-12T06:57:18.999Z</time></trkpt><trkpt lat="42.0431684315718" lon="14.417904528644689"><ele>606.2857142857142</ele><time>2026-04-12T06:57:21.999Z</time></trkpt><trkpt lat="42.04309813397221" lon="14.417892861773925"><ele>605.5714285714286</ele><time>2026-04-12T06:57:24.999Z</time></trkpt><trkpt lat="42.04303330006109" lon="14.41785646460571"><ele>604.8571428571429</ele><time>2026-04-12T06:57:27.998Z</time></trkpt><trkpt lat="42.04297264467246" lon="14.417810663243525"><ele>604.1428571428571</ele><time>2026-04-12T06:57:30.998Z</time></trkpt><trkpt lat="42.04291302203255" lon="14.417754957360364"><ele>603.4285714285714</ele><time>2026-04-12T06:57:33.998Z</time></trkpt><trkpt lat="42.042857471357564" lon="14.417702286900342"><ele>602.7142857142857</ele><time>2026-04-12T06:57:36.998Z</time></trkpt><trkpt lat="42.04280407778102" lon="14.417643584848737"><ele>602.0</ele><time>2026-04-12T06:57:39.998Z</time></trkpt><trkpt lat="42.042747670831474" lon="14.417559627688638"><ele>602.0</ele><time>2026-04-12T06:57:43.998Z</time></trkpt><trkpt lat="42.04270611808843" lon="14.417481838031556"><ele>602.0</ele><time>2026-04-12T06:57:46.998Z</time></trkpt><trkpt lat="42.04267380917803" lon="14.417408115807818"><ele>602.0</ele><time>2026-04-12T06:57:49.998Z</time></trkpt><trkpt lat="42.04263761712737" lon="14.41731325288752"><ele>602.0</ele><time>2026-04-12T06:57:53.998Z</time></trkpt><trkpt lat="42.04260719734419" lon="14.417223492782496"><ele>602.0</ele><time>2026-04-12T06:57:56.998Z</time></trkpt><trkpt lat="42.04257810376897" lon="14.417113778549432"><ele>602.0</ele><time>2026-04-12T06:57:59.998Z</time></trkpt><trkpt lat="42.0425543211324" lon="14.417017853164422"><ele>602.0</ele><time>2026-04-12T06:58:03.998Z</time></trkpt><trkpt lat="42.0425427175402" lon="14.416926810089613"><ele>602.1428571428571</ele><time>2026-04-12T06:58:06.998Z</time></trkpt><trkpt lat="42.042534525278796" lon="14.416839858783835"><ele>602.2857142857142</ele><time>2026-04-12T06:58:09.998Z</time></trkpt><trkpt lat="42.04252758149441" lon="14.416728372892464"><ele>602.4285714285714</ele><time>2026-04-12T06:58:13.998Z</time></trkpt><trkpt lat="42.04251657045675" lon="14.416625429803052"><ele>602.5714285714286</ele><time>2026-04-12T06:58:18Z</time></trkpt><trkpt lat="42.04249743944582" lon="14.416532806639355"><ele>602.7142857142857</ele><time>2026-04-12T06:58:22Z</time></trkpt><trkpt lat="42.042472956689835" lon="14.41644327595826"><ele>602.8571428571429</ele><time>2026-04-12T06:58:25Z</time></trkpt><trkpt lat="42.04244270039251" lon="14.416366826535599"><ele>603.0</ele><time>2026-04-12T06:58:28Z</time></trkpt><trkpt lat="42.04240845647068" lon="14.416295536261197"><ele>603.0</ele><time>2026-04-12T06:58:31Z</time></trkpt><trkpt lat="42.0423721399719" lon="14.416214529579156"><ele>603.0</ele><time>2026-04-12T06:58:35Z</time></trkpt><trkpt lat="42.04233592354135" lon="14.416128573247299"><ele>603.0</ele><time>2026-04-12T06:58:38.999Z</time></trkpt><trkpt lat="42.042296388303626" lon="14.416038601637176"><ele>603.0</ele><time>2026-04-12T06:58:42.999Z</time></trkpt><trkpt lat="42.042252222354456" lon="14.415945238876743"><ele>603.0</ele><time>2026-04-12T06:58:46.999Z</time></trkpt><trkpt lat="42.042208082108196" lon="14.415850777191954"><ele>603.0</ele><time>2026-04-12T06:58:50.999Z</time></trkpt><trkpt lat="42.04216734556222" lon="14.415755914927882"><ele>603.0</ele><time>2026-04-12T06:58:54.999Z</time></trkpt><trkpt lat="42.042140479868344" lon="14.415677187440544"><ele>603.0</ele><time>2026-04-12T06:58:56.999Z</time></trkpt><trkpt lat="42.04211131027276" lon="14.415597397217496"><ele>603.0</ele><time>2026-04-12T06:58:59.999Z</time></trkpt><trkpt lat="42.04208152789269" lon="14.415521877052258"><ele>603.0</ele><time>2026-04-12T06:59:02.999Z</time></trkpt><trkpt lat="42.04204623423773" lon="14.415420143388413"><ele>603.0</ele><time>2026-04-12T06:59:06.999Z</time></trkpt><trkpt lat="42.04201876406135" lon="14.415335660987827"><ele>603.0</ele><time>2026-04-12T06:59:09.999Z</time></trkpt><trkpt lat="42.041987562307625" lon="14.415247085700097"><ele>603.0</ele><time>2026-04-12T06:59:13.999Z</time></trkpt><trkpt lat="42.04195057745158" lon="14.415150408122013"><ele>602.8333333333334</ele><time>2026-04-12T06:59:16.999Z</time></trkpt><trkpt lat="42.04191256772892" lon="14.415072168895756"><ele>602.6666666666666</ele><time>2026-04-12T06:59:20.999Z</time></trkpt><trkpt lat="42.04185368452252" lon="14.414961365063931"><ele>602.5</ele><time>2026-04-12T06:59:24.999Z</time></trkpt><trkpt lat="42.04179983126088" lon="14.414893558272057"><ele>602.3333333333333</ele><time>2026-04-12T06:59:28.999Z</time></trkpt><trkpt lat="42.04174309113192" lon="14.41483445039566"><ele>602.1666666666666</ele><time>2026-04-12T06:59:31.998Z</time></trkpt><trkpt lat="42.04169150011083" lon="14.414783963014301"><ele>602.0</ele><time>2026-04-12T06:59:33.998Z</time></trkpt><trkpt lat="42.0416198721345" lon="14.414717469486273"><ele>602.0</ele><time>2026-04-12T06:59:36.998Z</time></trkpt><trkpt lat="42.041558756914036" lon="14.414662180103562"><ele>602.0</ele><time>2026-04-12T06:59:39.998Z</time></trkpt><trkpt lat="42.041495855792476" lon="14.414609848898914"><ele>602.0</ele><time>2026-04-12T06:59:42.998Z</time></trkpt><trkpt lat="42.0414303047417" lon="14.414552109763855"><ele>602.0</ele><time>2026-04-12T06:59:45.998Z</time></trkpt><trkpt lat="42.041368066175416" lon="14.414489131577959"><ele>602.0</ele><time>2026-04-12T06:59:48.998Z</time></trkpt><trkpt lat="42.041314486391954" lon="14.414411823249612"><ele>602.0</ele><time>2026-04-12T06:59:51.998Z</time></trkpt><trkpt lat="42.04126500937662" lon="14.414327629828104"><ele>604.5</ele><time>2026-04-12T06:59:54.998Z</time></trkpt><trkpt lat="42.04122038461433" lon="14.41423623240218"><ele>607.0</ele><time>2026-04-12T06:59:57.998Z</time></trkpt><trkpt lat="42.041175605350794" lon="14.414149812803418"><ele>609.5</ele><time>2026-04-12T07:00:00.998Z</time></trkpt><trkpt lat="42.04113140507688" lon="14.414064561355865"><ele>612.0</ele><time>2026-04-12T07:00:03.998Z</time></trkpt><trkpt lat="42.04108815388279" lon="14.41397940841806"><ele>614.5</ele><time>2026-04-12T07:00:06.998Z</time></trkpt><trkpt lat="42.04104522007425" lon="14.413888730206576"><ele>617.0</ele><time>2026-04-12T07:00:09.998Z</time></trkpt><trkpt lat="42.04100330695775" lon="14.413802574942714"><ele>619.5</ele><time>2026-04-12T07:00:12.998Z</time></trkpt><trkpt lat="42.040957127902196" lon="14.413720322887572"><ele>622.0</ele><time>2026-04-12T07:00:15.998Z</time></trkpt><trkpt lat="42.04091581409443" lon="14.413631392797019"><ele>624.5</ele><time>2026-04-12T07:00:18.998Z</time></trkpt><trkpt lat="42.040870085728976" lon="14.41354446779901"><ele>627.0</ele><time>2026-04-12T07:00:22Z</time></trkpt><trkpt lat="42.04082936046537" lon="14.413456193183114"><ele>629.5</ele><time>2026-04-12T07:00:25Z</time></trkpt><trkpt lat="42.04078828208073" lon="14.413365726541725"><ele>632.0</ele><time>2026-04-12T07:00:28Z</time></trkpt><trkpt lat="42.04075464352139" lon="14.413270355037072"><ele>632.0</ele><time>2026-04-12T07:00:31Z</time></trkpt><trkpt lat="42.04072141425904" lon="14.413169643655685"><ele>632.0</ele><time>2026-04-12T07:00:34Z</time></trkpt><trkpt lat="42.040699457583614" lon="14.413061954203481"><ele>632.0</ele><time>2026-04-12T07:00:37Z</time></trkpt><trkpt lat="42.04068293881303" lon="14.412962741874495"><ele>632.0</ele><time>2026-04-12T07:00:39.999Z</time></trkpt><trkpt lat="42.04066603141211" lon="14.41287057082443"><ele>632.0</ele><time>2026-04-12T07:00:42.999Z</time></trkpt><trkpt lat="42.04065091900531" lon="14.412771037929604"><ele>632.0</ele><time>2026-04-12T07:00:45.999Z</time></trkpt><trkpt lat="42.040641532539915" lon="14.412676264238733"><ele>633.0000000000001</ele><time>2026-04-12T07:00:48.999Z</time></trkpt><trkpt lat="42.04062560710225" lon="14.412583627788724"><ele>634.0</ele><time>2026-04-12T07:00:51.999Z</time></trkpt><trkpt lat="42.040617275812835" lon="14.412495419757768"><ele>635.0</ele><time>2026-04-12T07:00:54.999Z</time></trkpt><trkpt lat="42.040613857799116" lon="14.412406343421747"><ele>636.0</ele><time>2026-04-12T07:00:57.999Z</time></trkpt><trkpt lat="42.04060607681562" lon="14.412314699403055"><ele>637.0</ele><time>2026-04-12T07:01:00.999Z</time></trkpt><trkpt lat="42.04059270803801" lon="14.412226298838192"><ele>638.0000000000001</ele><time>2026-04-12T07:01:03.999Z</time></trkpt><trkpt lat="42.0405697728416" lon="14.412120654948174"><ele>639.0</ele><time>2026-04-12T07:01:07.999Z</time></trkpt><trkpt lat="42.04054677892078" lon="14.412021307848068"><ele>640.1666666666666</ele><time>2026-04-12T07:01:11.999Z</time></trkpt><trkpt lat="42.040529489784475" lon="14.411917778742202"><ele>641.3333333333334</ele><time>2026-04-12T07:01:15.999Z</time></trkpt><trkpt lat="42.040507151614456" lon="14.411809901515575"><ele>642.5</ele><time>2026-04-12T07:01:19.999Z</time></trkpt><trkpt lat="42.04047724114012" lon="14.411713340027658"><ele>643.6666666666667</ele><time>2026-04-12T07:01:23.999Z</time></trkpt><trkpt lat="42.040442780783465" lon="14.411628562967492"><ele>644.8333333333334</ele><time>2026-04-12T07:01:27.999Z</time></trkpt><trkpt lat="42.04038996794863" lon="14.41155421199993"><ele>646.0</ele><time>2026-04-12T07:01:31.998Z</time></trkpt><trkpt lat="42.04032959268403" lon="14.411490322739851"><ele>646.0000000000001</ele><time>2026-04-12T07:01:35.998Z</time></trkpt><trkpt lat="42.04026006321584" lon="14.411455382424398"><ele>646.0</ele><time>2026-04-12T07:01:39.998Z</time></trkpt><trkpt lat="42.04019596129907" lon="14.411433702910733"><ele>646.0</ele><time>2026-04-12T07:01:43.998Z</time></trkpt><trkpt lat="42.040112985256684" lon="14.41142486338667"><ele>646.0</ele><time>2026-04-12T07:01:47.998Z</time></trkpt><trkpt lat="42.040035789739456" lon="14.411468190520992"><ele>646.0</ele><time>2026-04-12T07:01:52.998Z</time></trkpt><trkpt lat="42.039980104037" lon="14.411515897703367"><ele>646.0000000000001</ele><time>2026-04-12T07:01:56.998Z</time></trkpt><trkpt lat="42.03992948519104" lon="14.411578567389094"><ele>646.0</ele><time>2026-04-12T07:02:00.998Z</time></trkpt><trkpt lat="42.03988206524504" lon="14.4116681404133"><ele>647.2857142857143</ele><time>2026-04-12T07:02:04.998Z</time></trkpt><trkpt lat="42.0398515514331" lon="14.41175443021822"><ele>648.5714285714286</ele><time>2026-04-12T07:02:08.998Z</time></trkpt><trkpt lat="42.03982613963462" lon="14.41184040044584"><ele>649.8571428571429</ele><time>2026-04-12T07:02:11.998Z</time></trkpt><trkpt lat="42.0398028074281" lon="14.41192760423121"><ele>651.1428571428571</ele><time>2026-04-12T07:02:15.998Z</time></trkpt><trkpt lat="42.03977272150903" lon="14.412003674168682"><ele>652.4285714285714</ele><time>2026-04-12T07:02:18.998Z</time></trkpt><trkpt lat="42.03972102811591" lon="14.412074572174696"><ele>653.7142857142858</ele><time>2026-04-12T07:02:22.998Z</time></trkpt><trkpt lat="42.03964906319845" lon="14.41210308301835"><ele>655.0</ele><time>2026-04-12T07:02:27Z</time></trkpt><trkpt lat="42.03957075765369" lon="14.41207547001253"><ele>655.0</ele><time>2026-04-12T07:02:31Z</time></trkpt><trkpt lat="42.03949625682218" lon="14.412029916696012"><ele>655.0</ele><time>2026-04-12T07:02:34.999Z</time></trkpt><trkpt lat="42.03942599451537" lon="14.411987971719318"><ele>655.0</ele><time>2026-04-12T07:02:39Z</time></trkpt><trkpt lat="42.0393511285778" lon="14.411944935265502"><ele>655.0</ele><time>2026-04-12T07:02:43Z</time></trkpt><trkpt lat="42.03927566336539" lon="14.411901790982956"><ele>655.0</ele><time>2026-04-12T07:02:47Z</time></trkpt><trkpt lat="42.039209775279076" lon="14.411879173063204"><ele>655.0</ele><time>2026-04-12T07:02:50Z</time></trkpt><trkpt lat="42.03913981319309" lon="14.411860249963262"><ele>654.2</ele><time>2026-04-12T07:02:53Z</time></trkpt><trkpt lat="42.03904949431511" lon="14.411848548266956"><ele>653.4</ele><time>2026-04-12T07:02:56Z</time></trkpt><trkpt lat="42.03895981384124" lon="14.411830925363827"><ele>652.5999999999999</ele><time>2026-04-12T07:02:58Z</time></trkpt><trkpt lat="42.038858971633665" lon="14.411814335990357"><ele>651.8</ele><time>2026-04-12T07:03:00Z</time></trkpt><trkpt lat="42.03875204748975" lon="14.411789930313152"><ele>651.0</ele><time>2026-04-12T07:03:02Z</time></trkpt><trkpt lat="42.03864667075831" lon="14.411708533436268"><ele>651.0</ele><time>2026-04-12T07:03:04Z</time></trkpt><trkpt lat="42.03852414096471" lon="14.41167889619074"><ele>651.0</ele><time>2026-04-12T07:03:06Z</time></trkpt><trkpt lat="42.03846051603311" lon="14.411663506621988"><ele>651.0</ele><time>2026-04-12T07:03:07Z</time></trkpt><trkpt lat="42.0383547649903" lon="14.411637926427002"><ele>651.0</ele><time>2026-04-12T07:03:09Z</time></trkpt><trkpt lat="42.03826602738562" lon="14.411617898122696"><ele>651.0</ele><time>2026-04-12T07:03:11Z</time></trkpt><trkpt lat="42.03817933660766" lon="14.41159783261692"><ele>650.8333333333334</ele><time>2026-04-12T07:03:13Z</time></trkpt><trkpt lat="42.038104282543095" lon="14.411580460640444"><ele>650.6666666666666</ele><time>2026-04-12T07:03:15Z</time></trkpt><trkpt lat="42.038027615935654" lon="14.41156264607549"><ele>650.5</ele><time>2026-04-12T07:03:17Z</time></trkpt><trkpt lat="42.03795188746539" lon="14.411545791826311"><ele>650.3333333333333</ele><time>2026-04-12T07:03:19Z</time></trkpt><trkpt lat="42.03787815452143" lon="14.411529912592929"><ele>650.1666666666666</ele><time>2026-04-12T07:03:21Z</time></trkpt><trkpt lat="42.03780648325477" lon="14.411527998641501"><ele>650.0</ele><time>2026-04-12T07:03:23Z</time></trkpt><trkpt lat="42.03773528188141" lon="14.411502991149588"><ele>650.0</ele><time>2026-04-12T07:03:25Z</time></trkpt><trkpt lat="42.037662505827086" lon="14.411494677282633"><ele>650.0</ele><time>2026-04-12T07:03:27Z</time></trkpt><trkpt lat="42.037595625472974" lon="14.411480878986218"><ele>650.0</ele><time>2026-04-12T07:03:29Z</time></trkpt><trkpt lat="42.03750451164315" lon="14.411477230224884"><ele>650.0</ele><time>2026-04-12T07:03:32Z</time></trkpt><trkpt lat="42.0374207448741" lon="14.411489864504063"><ele>650.0</ele><time>2026-04-12T07:03:34.999Z</time></trkpt><trkpt lat="42.03732974001625" lon="14.411512988001144"><ele>650.0</ele><time>2026-04-12T07:03:37.999Z</time></trkpt><trkpt lat="42.0372656072934" lon="14.411535797612203"><ele>650.8571428571428</ele><time>2026-04-12T07:03:39.999Z</time></trkpt><trkpt lat="42.037201488530265" lon="14.411564869238516"><ele>651.7142857142858</ele><time>2026-04-12T07:03:41.999Z</time></trkpt><trkpt lat="42.037140085983474" lon="14.41159921241452"><ele>652.5714285714286</ele><time>2026-04-12T07:03:43.999Z</time></trkpt><trkpt lat="42.03707714735729" lon="14.411630880486182"><ele>653.4285714285713</ele><time>2026-04-12T07:03:45.999Z</time></trkpt><trkpt lat="42.03700987361742" lon="14.411657081228247"><ele>654.2857142857142</ele><time>2026-04-12T07:03:47.999Z</time></trkpt><trkpt lat="42.036950669752486" lon="14.411700142125744"><ele>655.1428571428571</ele><time>2026-04-12T07:03:49.999Z</time></trkpt><trkpt lat="42.036887922631024" lon="14.411731926091392"><ele>656.0</ele><time>2026-04-12T07:03:51.999Z</time></trkpt><trkpt lat="42.0368288120246" lon="14.411761575313328"><ele>656.0</ele><time>2026-04-12T07:03:53.999Z</time></trkpt><trkpt lat="42.03674053259327" lon="14.411807945205732"><ele>656.0</ele><time>2026-04-12T07:03:56.999Z</time></trkpt><trkpt lat="42.03668065978241" lon="14.411840777945669"><ele>656.0</ele><time>2026-04-12T07:03:58.999Z</time></trkpt><trkpt lat="42.036621881108616" lon="14.411881022035708"><ele>656.0</ele><time>2026-04-12T07:04:00.999Z</time></trkpt><trkpt lat="42.03656878865086" lon="14.411929368954674"><ele>656.0</ele><time>2026-04-12T07:04:02.999Z</time></trkpt><trkpt lat="42.03650030202474" lon="14.412003497362546"><ele>656.0</ele><time>2026-04-12T07:04:05.999Z</time></trkpt><trkpt lat="42.03644110421442" lon="14.41207706933653"><ele>656.5714285714286</ele><time>2026-04-12T07:04:08.999Z</time></trkpt><trkpt lat="42.036381684047015" lon="14.412159379784628"><ele>657.1428571428571</ele><time>2026-04-12T07:04:11.999Z</time></trkpt><trkpt lat="42.036338261726144" lon="14.412248466589467"><ele>657.7142857142858</ele><time>2026-04-12T07:04:14.999Z</time></trkpt><trkpt lat="42.03635122366897" lon="14.412342914752394"><ele>658.2857142857142</ele><time>2026-04-12T07:04:18.999Z</time></trkpt><trkpt lat="42.03631168652563" lon="14.412420132324966"><ele>658.8571428571429</ele><time>2026-04-12T07:04:24.999Z</time></trkpt><trkpt lat="42.03630235749038" lon="14.41251762545431"><ele>659.4285714285714</ele><time>2026-04-12T07:12:37.999Z</time></trkpt><trkpt lat="42.03627773818888" lon="14.412601131362623"><ele>660.0</ele><time>2026-04-12T07:12:44.998Z</time></trkpt><trkpt lat="42.036201831282206" lon="14.412607577581031"><ele>660.0</ele><time>2026-04-12T07:12:47.998Z</time></trkpt><trkpt lat="42.03615324734453" lon="14.412667005087389"><ele>660.0</ele><time>2026-04-12T07:12:50.998Z</time></trkpt><trkpt lat="42.03612204335561" lon="14.412767380236613"><ele>660.0</ele><time>2026-04-12T07:12:56Z</time></trkpt><trkpt lat="42.036090734215" lon="14.412864159069237"><ele>660.0</ele><time>2026-04-12T07:13:00Z</time></trkpt><trkpt lat="42.03605837743274" lon="14.41295809973936"><ele>660.0</ele><time>2026-04-12T07:13:03Z</time></trkpt><trkpt lat="42.03602366700449" lon="14.41304157086284"><ele>660.0</ele><time>2026-04-12T07:13:06Z</time></trkpt><trkpt lat="42.03597568835986" lon="14.413131134531982"><ele>660.4285714285714</ele><time>2026-04-12T07:13:09Z</time></trkpt><trkpt lat="42.035918184853635" lon="14.413223377675779"><ele>660.8571428571429</ele><time>2026-04-12T07:13:12Z</time></trkpt><trkpt lat="42.03587380838039" lon="14.413286538687288"><ele>661.2857142857142</ele><time>2026-04-12T07:13:14Z</time></trkpt><trkpt lat="42.03582838010635" lon="14.413352585991397"><ele>661.7142857142858</ele><time>2026-04-12T07:13:16Z</time></trkpt><trkpt lat="42.035779995877235" lon="14.41342006260343"><ele>662.1428571428571</ele><time>2026-04-12T07:13:18Z</time></trkpt><trkpt lat="42.03572815162048" lon="14.413486125046278"><ele>662.5714285714286</ele><time>2026-04-12T07:13:20Z</time></trkpt><trkpt lat="42.0356665562877" lon="14.413545004602673"><ele>663.0</ele><time>2026-04-12T07:13:22Z</time></trkpt><trkpt lat="42.03560173616675" lon="14.41358750791588"><ele>663.0</ele><time>2026-04-12T07:13:24Z</time></trkpt><trkpt lat="42.035527491715605" lon="14.413617992968598"><ele>663.0</ele><time>2026-04-12T07:13:26Z</time></trkpt><trkpt lat="42.03545012723523" lon="14.413626424698245"><ele>663.0</ele><time>2026-04-12T07:13:28Z</time></trkpt><trkpt lat="42.035372978394584" lon="14.413627343475065"><ele>663.0</ele><time>2026-04-12T07:13:30Z</time></trkpt><trkpt lat="42.03529416257641" lon="14.413628911807788"><ele>663.0</ele><time>2026-04-12T07:13:32Z</time></trkpt><trkpt lat="42.03521175078962" lon="14.41362468109165"><ele>663.0</ele><time>2026-04-12T07:13:34Z</time></trkpt><trkpt lat="42.03513333112184" lon="14.413616473046284"><ele>663.0</ele><time>2026-04-12T07:13:36Z</time></trkpt><trkpt lat="42.03505152584596" lon="14.413605434022683"><ele>663.0</ele><time>2026-04-12T07:13:38Z</time></trkpt><trkpt lat="42.03497014384678" lon="14.413594291785353"><ele>663.0</ele><time>2026-04-12T07:13:40Z</time></trkpt><trkpt lat="42.0348870413041" lon="14.41358608414472"><ele>663.0</ele><time>2026-04-12T07:13:42Z</time></trkpt><trkpt lat="42.03480349824113" lon="14.413574728565235"><ele>663.0</ele><time>2026-04-12T07:13:44Z</time></trkpt><trkpt lat="42.034719703158075" lon="14.413566244231951"><ele>663.0</ele><time>2026-04-12T07:13:45.999Z</time></trkpt><trkpt lat="42.03463671073182" lon="14.413569464517732"><ele>664.0</ele><time>2026-04-12T07:13:47.999Z</time></trkpt><trkpt lat="42.034556186554006" lon="14.41357399292444"><ele>665.0</ele><time>2026-04-12T07:13:49.999Z</time></trkpt><trkpt lat="42.03447270175152" lon="14.413592594781008"><ele>666.0</ele><time>2026-04-12T07:13:51.999Z</time></trkpt><trkpt lat="42.034391347442444" lon="14.413633912847287"><ele>667.0</ele><time>2026-04-12T07:13:53.999Z</time></trkpt><trkpt lat="42.03431284908558" lon="14.413694647662496"><ele>668.0</ele><time>2026-04-12T07:13:55.999Z</time></trkpt><trkpt lat="42.03423545131208" lon="14.413753374199024"><ele>669.0</ele><time>2026-04-12T07:13:57.999Z</time></trkpt><trkpt lat="42.03415903958275" lon="14.413816405070433"><ele>668.3333333333334</ele><time>2026-04-12T07:13:59.999Z</time></trkpt><trkpt lat="42.034080530355695" lon="14.413875311985452"><ele>667.6666666666666</ele><time>2026-04-12T07:14:01.999Z</time></trkpt><trkpt lat="42.03400219876373" lon="14.41391843842972"><ele>667.0</ele><time>2026-04-12T07:14:03.999Z</time></trkpt><trkpt lat="42.03392479327042" lon="14.413953715296273"><ele>666.3333333333333</ele><time>2026-04-12T07:14:05.999Z</time></trkpt><trkpt lat="42.03384422687102" lon="14.413988558283489"><ele>665.6666666666666</ele><time>2026-04-12T07:14:07.999Z</time></trkpt><trkpt lat="42.03376870112999" lon="14.414023334347162"><ele>665.0</ele><time>2026-04-12T07:14:09.999Z</time></trkpt><trkpt lat="42.03369710899162" lon="14.41408659212433"><ele>665.0</ele><time>2026-04-12T07:14:11.999Z</time></trkpt><trkpt lat="42.033636592494545" lon="14.414162816632093"><ele>665.0</ele><time>2026-04-12T07:14:13.999Z</time></trkpt><trkpt lat="42.03358712638629" lon="14.414255827740972"><ele>665.0</ele><time>2026-04-12T07:14:15.999Z</time></trkpt><trkpt lat="42.03355581699146" lon="14.414357275730184"><ele>665.0</ele><time>2026-04-12T07:14:17.999Z</time></trkpt><trkpt lat="42.03352967830456" lon="14.414463208926469"><ele>665.0</ele><time>2026-04-12T07:14:19.999Z</time></trkpt><trkpt lat="42.03350482389825" lon="14.41457088912566"><ele>665.0</ele><time>2026-04-12T07:14:21.999Z</time></trkpt><trkpt lat="42.03347930644807" lon="14.414673088810016"><ele>664.8333333333333</ele><time>2026-04-12T07:14:23.999Z</time></trkpt><trkpt lat="42.03345115196702" lon="14.414777272270296"><ele>664.6666666666666</ele><time>2026-04-12T07:14:25.999Z</time></trkpt><trkpt lat="42.0334234509651" lon="14.4148801071364"><ele>664.5</ele><time>2026-04-12T07:14:27.999Z</time></trkpt><trkpt lat="42.033393489255644" lon="14.414985214871631"><ele>664.3333333333334</ele><time>2026-04-12T07:14:29.999Z</time></trkpt><trkpt lat="42.03335325988805" lon="14.415088635009699"><ele>664.1666666666667</ele><time>2026-04-12T07:14:31.999Z</time></trkpt><trkpt lat="42.03330341927914" lon="14.415185117372683"><ele>664.0</ele><time>2026-04-12T07:14:33.999Z</time></trkpt><trkpt lat="42.03324582186356" lon="14.4152664194427"><ele>664.0</ele><time>2026-04-12T07:14:35.999Z</time></trkpt><trkpt lat="42.03317761374118" lon="14.415333524542278"><ele>664.0</ele><time>2026-04-12T07:14:37.999Z</time></trkpt><trkpt lat="42.03310174999142" lon="14.415380451722271"><ele>664.0</ele><time>2026-04-12T07:14:39.999Z</time></trkpt><trkpt lat="42.033026429450025" lon="14.415417186511993"><ele>664.0</ele><time>2026-04-12T07:14:41.998Z</time></trkpt><trkpt lat="42.03294440838759" lon="14.415437045211341"><ele>664.0</ele><time>2026-04-12T07:14:43.998Z</time></trkpt><trkpt lat="42.03287467068654" lon="14.41543377514559"><ele>664.0</ele><time>2026-04-12T07:14:45.998Z</time></trkpt><trkpt lat="42.03279821121068" lon="14.41539399673073"><ele>664.0</ele><time>2026-04-12T07:14:47.998Z</time></trkpt><trkpt lat="42.03272556156433" lon="14.41535108680413"><ele>664.0</ele><time>2026-04-12T07:14:49.998Z</time></trkpt><trkpt lat="42.03265751594509" lon="14.415302394816175"><ele>664.0</ele><time>2026-04-12T07:14:51.998Z</time></trkpt><trkpt lat="42.032590893211356" lon="14.415246338574876"><ele>664.0</ele><time>2026-04-12T07:14:53.998Z</time></trkpt><trkpt lat="42.032526298178844" lon="14.415191282762484"><ele>664.0</ele><time>2026-04-12T07:14:55.998Z</time></trkpt><trkpt lat="42.0324602990789" lon="14.4151414019044"><ele>664.0</ele><time>2026-04-12T07:14:57.998Z</time></trkpt><trkpt lat="42.032401604578304" lon="14.415095175131057"><ele>664.2857142857142</ele><time>2026-04-12T07:14:59.998Z</time></trkpt><trkpt lat="42.03234479967882" lon="14.415046827629277"><ele>664.5714285714287</ele><time>2026-04-12T07:15:02Z</time></trkpt><trkpt lat="42.03228552960545" lon="14.414997300877811"><ele>664.8571428571429</ele><time>2026-04-12T07:15:04Z</time></trkpt><trkpt lat="42.032226598398196" lon="14.41495117607973"><ele>665.1428571428571</ele><time>2026-04-12T07:15:06Z</time></trkpt><trkpt lat="42.03216139423526" lon="14.414926218193761"><ele>665.4285714285713</ele><time>2026-04-12T07:15:08Z</time></trkpt><trkpt lat="42.0320974669086" lon="14.414917867242636"><ele>665.7142857142858</ele><time>2026-04-12T07:15:10Z</time></trkpt><trkpt lat="42.03200608107538" lon="14.414953232806752"><ele>666.0</ele><time>2026-04-12T07:15:13Z</time></trkpt><trkpt lat="42.03195657239578" lon="14.415012833259736"><ele>666.0</ele><time>2026-04-12T07:15:15Z</time></trkpt><trkpt lat="42.03191599618979" lon="14.415085692684892"><ele>666.0</ele><time>2026-04-12T07:15:17Z</time></trkpt><trkpt lat="42.03188798166986" lon="14.415166282856125"><ele>666.0</ele><time>2026-04-12T07:15:19Z</time></trkpt><trkpt lat="42.031842400237196" lon="14.415277450199849"><ele>666.0</ele><time>2026-04-12T07:15:22Z</time></trkpt><trkpt lat="42.03180361998315" lon="14.415376684315214"><ele>666.0</ele><time>2026-04-12T07:15:25Z</time></trkpt><trkpt lat="42.03172917175252" lon="14.415443725203943"><ele>666.0</ele><time>2026-04-12T07:15:28Z</time></trkpt><trkpt lat="42.031672966682315" lon="14.415488901059913"><ele>664.8571428571429</ele><time>2026-04-12T07:15:30Z</time></trkpt><trkpt lat="42.03161501436788" lon="14.415525251988695"><ele>663.7142857142857</ele><time>2026-04-12T07:15:32Z</time></trkpt><trkpt lat="42.03152618483998" lon="14.415557824550286"><ele>662.5714285714286</ele><time>2026-04-12T07:15:35Z</time></trkpt><trkpt lat="42.031463465760616" lon="14.415568417199022"><ele>661.4285714285714</ele><time>2026-04-12T07:15:37Z</time></trkpt><trkpt lat="42.031400372741466" lon="14.415570220323376"><ele>660.2857142857142</ele><time>2026-04-12T07:15:39Z</time></trkpt><trkpt lat="42.031337402073724" lon="14.415548593706198"><ele>659.1428571428571</ele><time>2026-04-12T07:15:41Z</time></trkpt><trkpt lat="42.031275504024364" lon="14.415532892591548"><ele>658.0</ele><time>2026-04-12T07:15:43Z</time></trkpt><trkpt lat="42.031213400713355" lon="14.415514087461023"><ele>658.0</ele><time>2026-04-12T07:15:45Z</time></trkpt><trkpt lat="42.0311512958457" lon="14.41549532735684"><ele>658.0</ele><time>2026-04-12T07:15:47Z</time></trkpt><trkpt lat="42.0310622365257" lon="14.415469055978487"><ele>658.0</ele><time>2026-04-12T07:15:49.999Z</time></trkpt><trkpt lat="42.030972858660355" lon="14.4154375902712"><ele>658.0</ele><time>2026-04-12T07:15:52.999Z</time></trkpt><trkpt lat="42.03088609770281" lon="14.415389667463733"><ele>658.0</ele><time>2026-04-12T07:15:55.999Z</time></trkpt><trkpt lat="42.03080770856645" lon="14.415334644602833"><ele>658.0</ele><time>2026-04-12T07:15:58.999Z</time></trkpt><trkpt lat="42.03073726223521" lon="14.415263528436391"><ele>659.5</ele><time>2026-04-12T07:16:01.999Z</time></trkpt><trkpt lat="42.03066503071545" lon="14.41519853877131"><ele>661.0</ele><time>2026-04-12T07:16:04.999Z</time></trkpt><trkpt lat="42.030591202206764" lon="14.415128508519105"><ele>662.5</ele><time>2026-04-12T07:16:07.999Z</time></trkpt><trkpt lat="42.03051442160132" lon="14.415059359745834"><ele>664.0</ele><time>2026-04-12T07:16:10.999Z</time></trkpt><trkpt lat="42.030445944144695" lon="14.414991904303827"><ele>665.5</ele><time>2026-04-12T07:16:13.999Z</time></trkpt><trkpt lat="42.030371262199964" lon="14.414924107694882"><ele>667.0</ele><time>2026-04-12T07:16:16.999Z</time></trkpt><trkpt lat="42.03030029154515" lon="14.41485904022647"><ele>667.0</ele><time>2026-04-12T07:16:19.999Z</time></trkpt><trkpt lat="42.03022891708456" lon="14.414792738661925"><ele>667.0</ele><time>2026-04-12T07:16:22.999Z</time></trkpt><trkpt lat="42.03015685153159" lon="14.414726596530235"><ele>667.0</ele><time>2026-04-12T07:16:25.999Z</time></trkpt><trkpt lat="42.03008473149537" lon="14.414658414404002"><ele>667.0</ele><time>2026-04-12T07:16:28.999Z</time></trkpt><trkpt lat="42.03001549140721" lon="14.414592414456223"><ele>667.0</ele><time>2026-04-12T07:16:31.999Z</time></trkpt><trkpt lat="42.029946100427225" lon="14.41452602876273"><ele>667.0</ele><time>2026-04-12T07:16:34.999Z</time></trkpt><trkpt lat="42.02987903415865" lon="14.414460432508717"><ele>669.1666666666667</ele><time>2026-04-12T07:16:37.999Z</time></trkpt><trkpt lat="42.02981192690498" lon="14.41440130541155"><ele>671.3333333333334</ele><time>2026-04-12T07:16:40.999Z</time></trkpt><trkpt lat="42.02974450489078" lon="14.414349709784373"><ele>673.5</ele><time>2026-04-12T07:16:43.998Z</time></trkpt><trkpt lat="42.02966860308614" lon="14.414307339809033"><ele>675.6666666666666</ele><time>2026-04-12T07:16:46.998Z</time></trkpt><trkpt lat="42.029587060435155" lon="14.414274501016706"><ele>677.8333333333333</ele><time>2026-04-12T07:16:49.998Z</time></trkpt><trkpt lat="42.02950023651596" lon="14.414264925692324"><ele>680.0</ele><time>2026-04-12T07:16:52.998Z</time></trkpt><trkpt lat="42.029415913500415" lon="14.414267637083041"><ele>680.0</ele><time>2026-04-12T07:16:55.998Z</time></trkpt><trkpt lat="42.02933091781247" lon="14.414291567498406"><ele>680.0</ele><time>2026-04-12T07:16:58.998Z</time></trkpt><trkpt lat="42.02925180299874" lon="14.41433212575625"><ele>680.0</ele><time>2026-04-12T07:17:01.998Z</time></trkpt><trkpt lat="42.029178172016856" lon="14.414394891612107"><ele>680.0</ele><time>2026-04-12T07:17:04.998Z</time></trkpt><trkpt lat="42.02910979902949" lon="14.414459375959519"><ele>680.0</ele><time>2026-04-12T07:17:08Z</time></trkpt><trkpt lat="42.029047124340295" lon="14.414539001602487"><ele>680.0</ele><time>2026-04-12T07:17:11Z</time></trkpt><trkpt lat="42.02900320158244" lon="14.414618167622637"><ele>682.1666666666666</ele><time>2026-04-12T07:17:14Z</time></trkpt><trkpt lat="42.028971139678454" lon="14.41472199910768"><ele>684.3333333333333</ele><time>2026-04-12T07:17:17Z</time></trkpt><trkpt lat="42.02894576338475" lon="14.414829662658633"><ele>686.5</ele><time>2026-04-12T07:17:20Z</time></trkpt><trkpt lat="42.02893598959548" lon="14.414942747307494"><ele>688.6666666666666</ele><time>2026-04-12T07:17:23Z</time></trkpt><trkpt lat="42.02893354879333" lon="14.415059023617244"><ele>690.8333333333334</ele><time>2026-04-12T07:17:26Z</time></trkpt><trkpt lat="42.02893768612418" lon="14.415160559781759"><ele>693.0</ele><time>2026-04-12T07:17:29Z</time></trkpt><trkpt lat="42.028950668304624" lon="14.415268514081063"><ele>693.0</ele><time>2026-04-12T07:17:32Z</time></trkpt><trkpt lat="42.02897185565029" lon="14.415380207940913"><ele>693.0</ele><time>2026-04-12T07:17:35Z</time></trkpt><trkpt lat="42.02899146874537" lon="14.415493468260559"><ele>693.0</ele><time>2026-04-12T07:17:38Z</time></trkpt><trkpt lat="42.0290163091056" lon="14.415612282580579"><ele>693.0</ele><time>2026-04-12T07:17:41Z</time></trkpt><trkpt lat="42.02904325098047" lon="14.415727405158794"><ele>693.0</ele><time>2026-04-12T07:17:44Z</time></trkpt><trkpt lat="42.029065494571746" lon="14.415846581529001"><ele>693.0</ele><time>2026-04-12T07:17:46.999Z</time></trkpt><trkpt lat="42.0290824742836" lon="14.415965452318133"><ele>692.3333333333334</ele><time>2026-04-12T07:17:49.999Z</time></trkpt><trkpt lat="42.02909739115908" lon="14.416088102372475"><ele>691.6666666666666</ele><time>2026-04-12T07:17:52.999Z</time></trkpt><trkpt lat="42.02910395201345" lon="14.416213231209403"><ele>691.0</ele><time>2026-04-12T07:17:55.999Z</time></trkpt><trkpt lat="42.029104694637105" lon="14.41629798378834"><ele>690.3333333333333</ele><time>2026-04-12T07:17:57.999Z</time></trkpt><trkpt lat="42.0290874916556" lon="14.416423187908228"><ele>689.6666666666666</ele><time>2026-04-12T07:18:00.999Z</time></trkpt><trkpt lat="42.02905282489314" lon="14.416539182679886"><ele>689.0</ele><time>2026-04-12T07:18:03.999Z</time></trkpt><trkpt lat="42.02900750658968" lon="14.416644118614817"><ele>688.5</ele><time>2026-04-12T07:18:06.999Z</time></trkpt><trkpt lat="42.028954738212484" lon="14.416742729061285"><ele>688.0</ele><time>2026-04-12T07:18:09.999Z</time></trkpt><trkpt lat="42.028911307550125" lon="14.41683234602766"><ele>687.5</ele><time>2026-04-12T07:18:12.999Z</time></trkpt><trkpt lat="42.02886728773184" lon="14.416908969164167"><ele>687.0</ele><time>2026-04-12T07:18:16.999Z</time></trkpt><trkpt lat="42.02880103865212" lon="14.416937548066374"><ele>686.5</ele><time>2026-04-12T07:18:22.999Z</time></trkpt><trkpt lat="42.02872726817835" lon="14.416920586274978"><ele>686.0</ele><time>2026-04-12T07:18:27.999Z</time></trkpt><trkpt lat="42.028647451477404" lon="14.416896592160022"><ele>686.0</ele><time>2026-04-12T07:18:32.999Z</time></trkpt><trkpt lat="42.028567113717585" lon="14.41689017333263"><ele>686.0</ele><time>2026-04-12T07:18:36.999Z</time></trkpt><trkpt lat="42.02849771225371" lon="14.416879949630921"><ele>686.0</ele><time>2026-04-12T07:18:40.998Z</time></trkpt><trkpt lat="42.02841598258466" lon="14.416869146149144"><ele>686.0</ele><time>2026-04-12T07:18:44.998Z</time></trkpt><trkpt lat="42.02835177855144" lon="14.416859474082365"><ele>686.0</ele><time>2026-04-12T07:18:48.998Z</time></trkpt><trkpt lat="42.02827313236906" lon="14.416838795071955"><ele>686.0</ele><time>2026-04-12T07:18:52.998Z</time></trkpt><trkpt lat="42.02820935132397" lon="14.416809779698035"><ele>686.0</ele><time>2026-04-12T07:18:56.998Z</time></trkpt><trkpt lat="42.02814182672686" lon="14.416774081037078"><ele>687.2857142857143</ele><time>2026-04-12T07:19:00.998Z</time></trkpt><trkpt lat="42.028078231215474" lon="14.416748246504117"><ele>688.5714285714286</ele><time>2026-04-12T07:19:04.998Z</time></trkpt><trkpt lat="42.02803153627429" lon="14.41667745729874"><ele>689.8571428571429</ele><time>2026-04-12T07:19:09.998Z</time></trkpt><trkpt lat="42.02796564652653" lon="14.41668522783102"><ele>691.1428571428571</ele><time>2026-04-12T07:19:18Z</time></trkpt><trkpt lat="42.027879563818566" lon="14.416651318869917"><ele>692.4285714285714</ele><time>2026-04-12T07:19:22Z</time></trkpt><trkpt lat="42.02781372147955" lon="14.416623057666051"><ele>693.7142857142858</ele><time>2026-04-12T07:19:26Z</time></trkpt><trkpt lat="42.02774844742742" lon="14.41658816436047"><ele>695.0</ele><time>2026-04-12T07:19:30Z</time></trkpt><trkpt lat="42.02768429663708" lon="14.416555482659163"><ele>695.0000000000001</ele><time>2026-04-12T07:19:34Z</time></trkpt><trkpt lat="42.027622989482396" lon="14.416514826076538"><ele>695.0</ele><time>2026-04-12T07:19:38Z</time></trkpt><trkpt lat="42.02755791416451" lon="14.416478696480674"><ele>695.0</ele><time>2026-04-12T07:19:42Z</time></trkpt><trkpt lat="42.02749861921576" lon="14.416447237747319"><ele>695.0</ele><time>2026-04-12T07:19:46Z</time></trkpt><trkpt lat="42.0274324194164" lon="14.416412158145716"><ele>695.0</ele><time>2026-04-12T07:19:50Z</time></trkpt><trkpt lat="42.027359818917226" lon="14.4163740249017"><ele>695.0000000000001</ele><time>2026-04-12T07:19:54.999Z</time></trkpt><trkpt lat="42.02730066016669" lon="14.416339835495124"><ele>695.0</ele><time>2026-04-12T07:19:58.999Z</time></trkpt><trkpt lat="42.02723133119884" lon="14.416294420358772"><ele>698.1428571428572</ele><time>2026-04-12T07:20:03.999Z</time></trkpt><trkpt lat="42.02716473544093" lon="14.416260417619624"><ele>701.2857142857143</ele><time>2026-04-12T07:20:08.999Z</time></trkpt><trkpt lat="42.02710369921639" lon="14.416227264726988"><ele>704.4285714285714</ele><time>2026-04-12T07:20:12.999Z</time></trkpt><trkpt lat="42.027029544936504" lon="14.416203498049086"><ele>707.5714285714287</ele><time>2026-04-12T07:20:17.999Z</time></trkpt><trkpt lat="42.026958608373505" lon="14.41619267009117"><ele>710.7142857142857</ele><time>2026-04-12T07:20:22.999Z</time></trkpt><trkpt lat="42.02688077978257" lon="14.416187878262047"><ele>713.8571428571429</ele><time>2026-04-12T07:20:27.999Z</time></trkpt><trkpt lat="42.02681737059457" lon="14.416197979727"><ele>717.0</ele><time>2026-04-12T07:20:31.999Z</time></trkpt><trkpt lat="42.02674215155795" lon="14.41620991037337"><ele>717.0</ele><time>2026-04-12T07:20:36.999Z</time></trkpt><trkpt lat="42.0266794248338" lon="14.41622933285591"><ele>717.0</ele><time>2026-04-12T07:20:40.999Z</time></trkpt><trkpt lat="42.02660315528522" lon="14.416258636972223"><ele>717.0</ele><time>2026-04-12T07:20:45.999Z</time></trkpt><trkpt lat="42.02653909221761" lon="14.416286316108055"><ele>717.0</ele><time>2026-04-12T07:20:49.998Z</time></trkpt><trkpt lat="42.02647027420367" lon="14.416320517736894"><ele>717.0</ele><time>2026-04-12T07:20:53.998Z</time></trkpt><trkpt lat="42.026411651921705" lon="14.416354524304122"><ele>717.0</ele><time>2026-04-12T07:20:57.998Z</time></trkpt><trkpt lat="42.026342896565524" lon="14.416391874169463"><ele>717.0</ele><time>2026-04-12T07:21:01.998Z</time></trkpt><trkpt lat="42.02628078387845" lon="14.41643300560712"><ele>716.7142857142857</ele><time>2026-04-12T07:21:05.998Z</time></trkpt><trkpt lat="42.02620595157174" lon="14.41647603782859"><ele>716.4285714285713</ele><time>2026-04-12T07:21:09.998Z</time></trkpt><trkpt lat="42.02613947588152" lon="14.416508627859276"><ele>716.1428571428571</ele><time>2026-04-12T07:21:13.998Z</time></trkpt><trkpt lat="42.026073233158655" lon="14.41654756675997"><ele>715.8571428571429</ele><time>2026-04-12T07:21:17.998Z</time></trkpt><trkpt lat="42.026013550348445" lon="14.416582450874996"><ele>715.5714285714286</ele><time>2026-04-12T07:21:22Z</time></trkpt><trkpt lat="42.02594432787206" lon="14.416619915440142"><ele>715.2857142857143</ele><time>2026-04-12T07:21:26Z</time></trkpt><trkpt lat="42.02587731234878" lon="14.416662658802752"><ele>715.0</ele><time>2026-04-12T07:21:30Z</time></trkpt><trkpt lat="42.025805058197854" lon="14.416705011472924"><ele>717.5714285714286</ele><time>2026-04-12T07:21:34Z</time></trkpt><trkpt lat="42.02573556404402" lon="14.41673714159606"><ele>720.1428571428571</ele><time>2026-04-12T07:21:38Z</time></trkpt><trkpt lat="42.02566207125599" lon="14.4167809023423"><ele>722.7142857142857</ele><time>2026-04-12T07:21:42Z</time></trkpt><trkpt lat="42.02559608681468" lon="14.416817055988032"><ele>725.2857142857142</ele><time>2026-04-12T07:21:46Z</time></trkpt><trkpt lat="42.02552915660868" lon="14.41686192918625"><ele>727.8571428571429</ele><time>2026-04-12T07:21:50Z</time></trkpt><trkpt lat="42.02546780233269" lon="14.416899024892432"><ele>730.4285714285713</ele><time>2026-04-12T07:21:53Z</time></trkpt><trkpt lat="42.02540202214438" lon="14.416938953450996"><ele>733.0</ele><time>2026-04-12T07:21:57Z</time></trkpt><trkpt lat="42.02533041218755" lon="14.41698889723934"><ele>732.9999999999999</ele><time>2026-04-12T07:22:00.999Z</time></trkpt><trkpt lat="42.02526416887935" lon="14.417028698175079"><ele>733.0</ele><time>2026-04-12T07:22:04.999Z</time></trkpt><trkpt lat="42.025190510438215" lon="14.41705704840069"><ele>733.0</ele><time>2026-04-12T07:22:08.999Z</time></trkpt><trkpt lat="42.02511451719663" lon="14.417050864299249"><ele>733.0</ele><time>2026-04-12T07:22:12.999Z</time></trkpt><trkpt lat="42.02507868959398" lon="14.416968870253855"><ele>733.0</ele><time>2026-04-12T07:22:16.999Z</time></trkpt><trkpt lat="42.0251013255929" lon="14.416888379679765"><ele>732.9999999999999</ele><time>2026-04-12T07:22:19.999Z</time></trkpt><trkpt lat="42.025143396628486" lon="14.41682114924067"><ele>733.0</ele><time>2026-04-12T07:22:22.999Z</time></trkpt><trkpt lat="42.025196056978125" lon="14.416757203949151"><ele>732.9999999999999</ele><time>2026-04-12T07:22:26.999Z</time></trkpt><trkpt lat="42.025250178441574" lon="14.416683208250449"><ele>733.0</ele><time>2026-04-12T07:22:30.999Z</time></trkpt><trkpt lat="42.02530132802983" lon="14.416620420783437"><ele>733.0</ele><time>2026-04-12T07:22:34.999Z</time></trkpt><trkpt lat="42.02535454890886" lon="14.416552386888844"><ele>733.0</ele><time>2026-04-12T07:22:38.999Z</time></trkpt><trkpt lat="42.025402705410556" lon="14.416478091012268"><ele>733.0</ele><time>2026-04-12T07:22:42.999Z</time></trkpt><trkpt lat="42.02545340777335" lon="14.416414612856006"><ele>732.9999999999999</ele><time>2026-04-12T07:22:45.999Z</time></trkpt><trkpt lat="42.025497003789006" lon="14.416346375695985"><ele>733.0</ele><time>2026-04-12T07:22:50.999Z</time></trkpt><trkpt lat="42.0255490096226" lon="14.416259258580657"><ele>734.1428571428571</ele><time>2026-04-12T07:22:55.998Z</time></trkpt><trkpt lat="42.02558585456468" lon="14.416184791495152"><ele>735.2857142857142</ele><time>2026-04-12T07:22:59.998Z</time></trkpt><trkpt lat="42.02562438462845" lon="14.416105886103383"><ele>736.4285714285713</ele><time>2026-04-12T07:23:03.998Z</time></trkpt><trkpt lat="42.02566115038027" lon="14.41602184129106"><ele>737.5714285714286</ele><time>2026-04-12T07:23:07.998Z</time></trkpt><trkpt lat="42.025695450336976" lon="14.41594150613104"><ele>738.7142857142858</ele><time>2026-04-12T07:23:11.998Z</time></trkpt><trkpt lat="42.025724975683595" lon="14.415843953752507"><ele>739.8571428571428</ele><time>2026-04-12T07:23:15.998Z</time></trkpt><trkpt lat="42.025749997408845" lon="14.415754944831571"><ele>741.0</ele><time>2026-04-12T07:23:19.998Z</time></trkpt><trkpt lat="42.02577030773843" lon="14.415651759053173"><ele>741.0</ele><time>2026-04-12T07:23:25Z</time></trkpt><trkpt lat="42.0257731282482" lon="14.415560295243177"><ele>741.0</ele><time>2026-04-12T07:23:29Z</time></trkpt><trkpt lat="42.0257722954243" lon="14.41547332222616"><ele>741.0</ele><time>2026-04-12T07:23:33Z</time></trkpt><trkpt lat="42.0257717301708" lon="14.415384295331867"><ele>741.0</ele><time>2026-04-12T07:23:37Z</time></trkpt><trkpt lat="42.0257768781976" lon="14.415293181077583"><ele>741.0</ele><time>2026-04-12T07:23:41Z</time></trkpt><trkpt lat="42.02579952473067" lon="14.415204094255508"><ele>741.0</ele><time>2026-04-12T07:23:45Z</time></trkpt><trkpt lat="42.02584504657493" lon="14.415106999674443"><ele>741.0</ele><time>2026-04-12T07:23:50Z</time></trkpt><trkpt lat="42.02589233161496" lon="14.415041039272223"><ele>740.8571428571428</ele><time>2026-04-12T07:23:54Z</time></trkpt><trkpt lat="42.02593928091259" lon="14.41496488901579"><ele>740.7142857142858</ele><time>2026-04-12T07:23:57.999Z</time></trkpt><trkpt lat="42.02598760117246" lon="14.414891128528398"><ele>740.5714285714286</ele><time>2026-04-12T07:24:01.999Z</time></trkpt><trkpt lat="42.026011388488634" lon="14.414788790289375"><ele>740.4285714285713</ele><time>2026-04-12T07:24:05.999Z</time></trkpt><trkpt lat="42.02600947762791" lon="14.414695113190442"><ele>740.2857142857142</ele><time>2026-04-12T07:24:09.999Z</time></trkpt><trkpt lat="42.02598036985598" lon="14.414600142971237"><ele>740.1428571428571</ele><time>2026-04-12T07:24:14.999Z</time></trkpt><trkpt lat="42.025933961411546" lon="14.414537747225"><ele>740.0</ele><time>2026-04-12T07:24:18.999Z</time></trkpt><trkpt lat="42.02586936633172" lon="14.414493458096226"><ele>740.9999999999999</ele><time>2026-04-12T07:24:23.999Z</time></trkpt><trkpt lat="42.025810294789565" lon="14.414462137686904"><ele>742.0</ele><time>2026-04-12T07:24:27.999Z</time></trkpt><trkpt lat="42.0257384303991" lon="14.414452607691265"><ele>743.0</ele><time>2026-04-12T07:24:32.999Z</time></trkpt><trkpt lat="42.02566986212278" lon="14.414435626028848"><ele>744.0</ele><time>2026-04-12T07:24:36.999Z</time></trkpt><trkpt lat="42.02560483579947" lon="14.414428093664457"><ele>745.0</ele><time>2026-04-12T07:24:41.999Z</time></trkpt><trkpt lat="42.025539681836" lon="14.4144294348002"><ele>745.9999999999999</ele><time>2026-04-12T07:24:45.999Z</time></trkpt><trkpt lat="42.025461580028875" lon="14.414427222642"><ele>747.0</ele><time>2026-04-12T07:24:50.998Z</time></trkpt><trkpt lat="42.02539164815837" lon="14.4144210455834"><ele>746.9999999999999</ele><time>2026-04-12T07:24:54.998Z</time></trkpt><trkpt lat="42.02531955855769" lon="14.41441467624212"><ele>747.0</ele><time>2026-04-12T07:24:58.998Z</time></trkpt><trkpt lat="42.02524536042403" lon="14.414400857005226"><ele>747.0</ele><time>2026-04-12T07:25:02.998Z</time></trkpt><trkpt lat="42.02517469307065" lon="14.414385701063834"><ele>747.0</ele><time>2026-04-12T07:25:07.998Z</time></trkpt><trkpt lat="42.02510654106772" lon="14.414358901935936"><ele>747.0</ele><time>2026-04-12T07:25:13.998Z</time></trkpt><trkpt lat="42.0250585063357" lon="14.414304017159807"><ele>746.9999999999999</ele><time>2026-04-12T07:25:18.998Z</time></trkpt><trkpt lat="42.025006434065716" lon="14.41422174965721"><ele>747.0</ele><time>2026-04-12T07:25:23.998Z</time></trkpt><trkpt lat="42.024980135658" lon="14.414142697789465"><ele>747.2857142857142</ele><time>2026-04-12T07:25:26.998Z</time></trkpt><trkpt lat="42.02496461282305" lon="14.414038168754955"><ele>747.5714285714286</ele><time>2026-04-12T07:25:31Z</time></trkpt><trkpt lat="42.0249470776198" lon="14.413945937329155"><ele>747.8571428571429</ele><time>2026-04-12T07:25:35Z</time></trkpt><trkpt lat="42.0249350446267" lon="14.413861195591446"><ele>748.1428571428571</ele><time>2026-04-12T07:25:40Z</time></trkpt><trkpt lat="42.02491067845561" lon="14.413763326827254"><ele>748.4285714285714</ele><time>2026-04-12T07:25:44Z</time></trkpt><trkpt lat="42.02489054963102" lon="14.413681637785038"><ele>748.7142857142857</ele><time>2026-04-12T07:25:47Z</time></trkpt><trkpt lat="42.02486464117236" lon="14.413600430350309"><ele>749.0</ele><time>2026-04-12T07:25:50Z</time></trkpt><trkpt lat="42.02483778746909" lon="14.413514632853538"><ele>749.1428571428571</ele><time>2026-04-12T07:25:53Z</time></trkpt><trkpt lat="42.02480251280227" lon="14.41342892850197"><ele>749.2857142857142</ele><time>2026-04-12T07:25:56Z</time></trkpt><trkpt lat="42.02477186421962" lon="14.413343013143637"><ele>749.4285714285714</ele><time>2026-04-12T07:25:59Z</time></trkpt><trkpt lat="42.0247368954621" lon="14.413258460898108"><ele>749.5714285714286</ele><time>2026-04-12T07:26:02Z</time></trkpt><trkpt lat="42.02470526010418" lon="14.413174557025554"><ele>749.7142857142857</ele><time>2026-04-12T07:26:04.999Z</time></trkpt><trkpt lat="42.02466921004725" lon="14.413091441377246"><ele>749.8571428571429</ele><time>2026-04-12T07:26:07.999Z</time></trkpt><trkpt lat="42.02463342175037" lon="14.413009370389533"><ele>750.0</ele><time>2026-04-12T07:26:10.999Z</time></trkpt><trkpt lat="42.024598415346105" lon="14.412931176477434"><ele>750.3333333333334</ele><time>2026-04-12T07:26:13.999Z</time></trkpt><trkpt lat="42.02456112319711" lon="14.412856753409214"><ele>750.6666666666666</ele><time>2026-04-12T07:26:16.999Z</time></trkpt><trkpt lat="42.02450983148448" lon="14.412779517006298"><ele>751.0</ele><time>2026-04-12T07:26:20.999Z</time></trkpt><trkpt lat="42.02444848374014" lon="14.412705659335181"><ele>751.3333333333333</ele><time>2026-04-12T07:26:24.999Z</time></trkpt><trkpt lat="42.02438290006258" lon="14.412646731718594"><ele>751.6666666666666</ele><time>2026-04-12T07:26:27.999Z</time></trkpt><trkpt lat="42.02430493939996" lon="14.412596868325306"><ele>752.0</ele><time>2026-04-12T07:26:31.999Z</time></trkpt><trkpt lat="42.02423653657016" lon="14.412542209602861"><ele>752.0</ele><time>2026-04-12T07:26:35.999Z</time></trkpt><trkpt lat="42.02416236689029" lon="14.412495749560259"><ele>752.0</ele><time>2026-04-12T07:26:39.999Z</time></trkpt><trkpt lat="42.024090670199136" lon="14.412450320823371"><ele>752.0</ele><time>2026-04-12T07:26:43.999Z</time></trkpt><trkpt lat="42.02401215725981" lon="14.412406481014939"><ele>752.0</ele><time>2026-04-12T07:26:47.999Z</time></trkpt><trkpt lat="42.023950409139644" lon="14.412371854494598"><ele>752.0</ele><time>2026-04-12T07:26:50.999Z</time></trkpt><trkpt lat="42.023874494192974" lon="14.412335236288506"><ele>752.0</ele><time>2026-04-12T07:26:54.999Z</time></trkpt><trkpt lat="42.02381264085474" lon="14.4123084281986"><ele>752.2857142857142</ele><time>2026-04-12T07:26:57.998Z</time></trkpt><trkpt lat="42.02374748158058" lon="14.412283935113983"><ele>752.5714285714286</ele><time>2026-04-12T07:27:00.998Z</time></trkpt><trkpt lat="42.02366981922691" lon="14.41223632320374"><ele>752.8571428571429</ele><time>2026-04-12T07:27:04.998Z</time></trkpt><trkpt lat="42.02360811428147" lon="14.412199665222941"><ele>753.1428571428571</ele><time>2026-04-12T07:27:07.998Z</time></trkpt><trkpt lat="42.023550319237124" lon="14.412159780771018"><ele>753.4285714285714</ele><time>2026-04-12T07:27:10.998Z</time></trkpt><trkpt lat="42.023489434273436" lon="14.41211094471012"><ele>753.7142857142857</ele><time>2026-04-12T07:27:13.998Z</time></trkpt><trkpt lat="42.02343063862571" lon="14.412059052309631"><ele>754.0</ele><time>2026-04-12T07:27:16.998Z</time></trkpt><trkpt lat="42.02337667084646" lon="14.411999505862404"><ele>753.9999999999999</ele><time>2026-04-12T07:27:19.998Z</time></trkpt><trkpt lat="42.02331962803573" lon="14.411939820970215"><ele>754.0</ele><time>2026-04-12T07:27:22.998Z</time></trkpt><trkpt lat="42.02326941143101" lon="14.41187800159382"><ele>754.0</ele><time>2026-04-12T07:27:25.998Z</time></trkpt><trkpt lat="42.023218210044476" lon="14.411809397016567"><ele>754.0</ele><time>2026-04-12T07:27:28.998Z</time></trkpt><trkpt lat="42.02317002073213" lon="14.411739040231918"><ele>754.0</ele><time>2026-04-12T07:27:31.998Z</time></trkpt><trkpt lat="42.02312607415316" lon="14.411667604763041"><ele>753.9999999999999</ele><time>2026-04-12T07:27:34.998Z</time></trkpt><trkpt lat="42.023087755923434" lon="14.411586484823383"><ele>754.0</ele><time>2026-04-12T07:27:38Z</time></trkpt><trkpt lat="42.02305569383892" lon="14.411501452904995"><ele>754.6666666666667</ele><time>2026-04-12T07:27:41Z</time></trkpt><trkpt lat="42.02303023142654" lon="14.411409551026308"><ele>755.3333333333334</ele><time>2026-04-12T07:27:44Z</time></trkpt><trkpt lat="42.023016531934616" lon="14.411301802236663"><ele>756.0</ele><time>2026-04-12T07:27:47Z</time></trkpt><trkpt lat="42.022999331610016" lon="14.411181403469943"><ele>756.6666666666666</ele><time>2026-04-12T07:27:50Z</time></trkpt><trkpt lat="42.022983003170005" lon="14.411062206283193"><ele>757.3333333333333</ele><time>2026-04-12T07:27:53Z</time></trkpt><trkpt lat="42.02296997395445" lon="14.410943859686451"><ele>758.0</ele><time>2026-04-12T07:27:56Z</time></trkpt><trkpt lat="42.02295823485499" lon="14.41082190084153"><ele>758.1666666666666</ele><time>2026-04-12T07:27:59Z</time></trkpt><trkpt lat="42.02294477415884" lon="14.410701535107695"><ele>758.3333333333333</ele><time>2026-04-12T07:28:02Z</time></trkpt><trkpt lat="42.02293431332254" lon="14.41058084552068"><ele>758.5</ele><time>2026-04-12T07:28:04.999Z</time></trkpt><trkpt lat="42.02292215908904" lon="14.410461800809568"><ele>758.6666666666666</ele><time>2026-04-12T07:28:07.999Z</time></trkpt><trkpt lat="42.02291343196379" lon="14.410348551232754"><ele>758.8333333333334</ele><time>2026-04-12T07:28:10.999Z</time></trkpt><trkpt lat="42.02290716840059" lon="14.410236681699336"><ele>759.0</ele><time>2026-04-12T07:28:13.999Z</time></trkpt><trkpt lat="42.02290779238142" lon="14.41011793651913"><ele>759.1666666666666</ele><time>2026-04-12T07:28:16.999Z</time></trkpt><trkpt lat="42.022905226990844" lon="14.410033163213742"><ele>759.3333333333334</ele><time>2026-04-12T07:28:19.999Z</time></trkpt><trkpt lat="42.022902217944264" lon="14.409925222334751"><ele>759.5</ele><time>2026-04-12T07:28:22.999Z</time></trkpt><trkpt lat="42.02289697585005" lon="14.409816110911901"><ele>759.6666666666667</ele><time>2026-04-12T07:28:25.999Z</time></trkpt><trkpt lat="42.02288786164648" lon="14.409702011712152"><ele>759.8333333333334</ele><time>2026-04-12T07:28:28.999Z</time></trkpt><trkpt lat="42.02287692605017" lon="14.409615920123413"><ele>760.0</ele><time>2026-04-12T07:28:31.999Z</time></trkpt><trkpt lat="42.02285577112709" lon="14.40948990785659"><ele>760.5</ele><time>2026-04-12T07:28:34.999Z</time></trkpt><trkpt lat="42.022831381466624" lon="14.409376376929359"><ele>761.0</ele><time>2026-04-12T07:28:37.999Z</time></trkpt><trkpt lat="42.02280652216039" lon="14.409267028656682"><ele>761.5</ele><time>2026-04-12T07:28:40.999Z</time></trkpt><trkpt lat="42.022768784513445" lon="14.409169305656444"><ele>762.0</ele><time>2026-04-12T07:28:42.999Z</time></trkpt><trkpt lat="42.02274377789567" lon="14.409055893995784"><ele>762.5</ele><time>2026-04-12T07:28:45.999Z</time></trkpt><trkpt lat="42.02272390602174" lon="14.40896873618375"><ele>763.0</ele><time>2026-04-12T07:28:48.999Z</time></trkpt><trkpt lat="42.022697860827705" lon="14.408864313851325"><ele>763.5</ele><time>2026-04-12T07:28:51.999Z</time></trkpt><trkpt lat="42.02266934294104" lon="14.40875189239947"><ele>764.0</ele><time>2026-04-12T07:28:54.999Z</time></trkpt><trkpt lat="42.0226494544003" lon="14.408670264637394"><ele>764.5</ele><time>2026-04-12T07:28:56.999Z</time></trkpt><trkpt lat="42.022628931630265" lon="14.40858493246139"><ele>765.0</ele><time>2026-04-12T07:28:58.998Z</time></trkpt><trkpt lat="42.02260939020282" lon="14.408486597713802"><ele>765.5</ele><time>2026-04-12T07:29:00.998Z</time></trkpt><trkpt lat="42.02257564852336" lon="14.408384787573493"><ele>766.0</ele><time>2026-04-12T07:29:02.998Z</time></trkpt><trkpt lat="42.022549025150134" lon="14.408282676811313"><ele>766.0</ele><time>2026-04-12T07:29:04.998Z</time></trkpt><trkpt lat="42.02249095140146" lon="14.408184915335331"><ele>766.0</ele><time>2026-04-12T07:29:06.998Z</time></trkpt><trkpt lat="42.022417986698834" lon="14.408084868259296"><ele>766.0</ele><time>2026-04-12T07:29:08.998Z</time></trkpt><trkpt lat="42.02234162489985" lon="14.407984137530464"><ele>766.0</ele><time>2026-04-12T07:29:10.998Z</time></trkpt><trkpt lat="42.02225366907274" lon="14.407878176814119"><ele>766.0</ele><time>2026-04-12T07:29:12.998Z</time></trkpt><trkpt lat="42.0221424728756" lon="14.407810240683892"><ele>766.1666666666667</ele><time>2026-04-12T07:29:14.998Z</time></trkpt><trkpt lat="42.02208306426933" lon="14.407782002164252"><ele>766.3333333333334</ele><time>2026-04-12T07:29:15.998Z</time></trkpt><trkpt lat="42.0220204874023" lon="14.407769577639232"><ele>766.5</ele><time>2026-04-12T07:29:16.998Z</time></trkpt><trkpt lat="42.02192658672291" lon="14.407757464118296"><ele>766.6666666666666</ele><time>2026-04-12T07:29:18.998Z</time></trkpt><trkpt lat="42.02183132031904" lon="14.407730991269794"><ele>766.8333333333333</ele><time>2026-04-12T07:29:20.998Z</time></trkpt><trkpt lat="42.02173021971398" lon="14.40771565627199"><ele>767.0</ele><time>2026-04-12T07:29:22.998Z</time></trkpt><trkpt lat="42.02162433328949" lon="14.407702679872529"><ele>767.6666666666666</ele><time>2026-04-12T07:29:24.998Z</time></trkpt><trkpt lat="42.02155689654883" lon="14.4076944154878"><ele>768.3333333333333</ele><time>2026-04-12T07:29:26.998Z</time></trkpt><trkpt lat="42.02149044670751" lon="14.40768627203176"><ele>769.0</ele><time>2026-04-12T07:29:28.998Z</time></trkpt><trkpt lat="42.02142237655304" lon="14.407677930037012"><ele>769.6666666666666</ele><time>2026-04-12T07:29:30.998Z</time></trkpt><trkpt lat="42.02133059478919" lon="14.407669869427952"><ele>770.3333333333334</ele><time>2026-04-12T07:29:33.998Z</time></trkpt><trkpt lat="42.02124200163595" lon="14.407639588719084"><ele>771.0</ele><time>2026-04-12T07:29:36.998Z</time></trkpt><trkpt lat="42.02117155745305" lon="14.407610688292163"><ele>771.0</ele><time>2026-04-12T07:29:38.998Z</time></trkpt><trkpt lat="42.02110306488822" lon="14.407587511230352"><ele>771.0</ele><time>2026-04-12T07:29:41Z</time></trkpt><trkpt lat="42.021008905136576" lon="14.407553661482927"><ele>771.0</ele><time>2026-04-12T07:29:44Z</time></trkpt><trkpt lat="42.020943443786706" lon="14.407528565449654"><ele>771.0</ele><time>2026-04-12T07:29:46Z</time></trkpt><trkpt lat="42.020878467862666" lon="14.407514287280973"><ele>771.0</ele><time>2026-04-12T07:29:48Z</time></trkpt><trkpt lat="42.02080863933239" lon="14.407504746937123"><ele>771.0</ele><time>2026-04-12T07:29:50Z</time></trkpt><trkpt lat="42.020738597694056" lon="14.407501482392309"><ele>771.0</ele><time>2026-04-12T07:29:52Z</time></trkpt><trkpt lat="42.020645428846684" lon="14.4075094997701"><ele>771.0</ele><time>2026-04-12T07:29:55Z</time></trkpt><trkpt lat="42.020561629122966" lon="14.407519733849709"><ele>771.0</ele><time>2026-04-12T07:29:58Z</time></trkpt><trkpt lat="42.02049764066686" lon="14.407533448351614"><ele>771.0</ele><time>2026-04-12T07:30:00Z</time></trkpt><trkpt lat="42.020413968456914" lon="14.407550569917504"><ele>771.0</ele><time>2026-04-12T07:30:03Z</time></trkpt><trkpt lat="42.02034531496988" lon="14.4075505585005"><ele>771.0</ele><time>2026-04-12T07:30:05.999Z</time></trkpt><trkpt lat="42.0202746688756" lon="14.407558557150931"><ele>771.0</ele><time>2026-04-12T07:30:07.999Z</time></trkpt><trkpt lat="42.02019348590338" lon="14.40755748755447"><ele>771.0</ele><time>2026-04-12T07:30:10.999Z</time></trkpt><trkpt lat="42.0201094504123" lon="14.407534162815246"><ele>771.0</ele><time>2026-04-12T07:30:13.999Z</time></trkpt><trkpt lat="42.020020761823446" lon="14.407503480397871"><ele>771.0</ele><time>2026-04-12T07:30:16.999Z</time></trkpt><trkpt lat="42.01995999976367" lon="14.40747603000417"><ele>771.0</ele><time>2026-04-12T07:30:18.999Z</time></trkpt><trkpt lat="42.01989910064143" lon="14.407444836759945"><ele>771.0</ele><time>2026-04-12T07:30:20.999Z</time></trkpt><trkpt lat="42.01981535293022" lon="14.40740636586679"><ele>771.0</ele><time>2026-04-12T07:30:23.999Z</time></trkpt><trkpt lat="42.01972756144387" lon="14.40736402280183"><ele>771.0</ele><time>2026-04-12T07:30:26.999Z</time></trkpt><trkpt lat="42.01966295698572" lon="14.407335440067891"><ele>771.0</ele><time>2026-04-12T07:30:28.999Z</time></trkpt><trkpt lat="42.019597083502795" lon="14.407300602999866"><ele>771.0</ele><time>2026-04-12T07:30:30.999Z</time></trkpt><trkpt lat="42.01953242775514" lon="14.407274312362226"><ele>771.0</ele><time>2026-04-12T07:30:32.999Z</time></trkpt><trkpt lat="42.019462490171" lon="14.407241936351651"><ele>771.0</ele><time>2026-04-12T07:30:34.999Z</time></trkpt><trkpt lat="42.01939207822273" lon="14.40721132450755"><ele>771.0</ele><time>2026-04-12T07:30:36.999Z</time></trkpt><trkpt lat="42.01930940102494" lon="14.40718091139089"><ele>771.0</ele><time>2026-04-12T07:30:39.999Z</time></trkpt><trkpt lat="42.019244223896955" lon="14.407154885489836"><ele>771.0</ele><time>2026-04-12T07:30:41.999Z</time></trkpt><trkpt lat="42.01916678709522" lon="14.40711996089015"><ele>771.0</ele><time>2026-04-12T07:30:43.999Z</time></trkpt><trkpt lat="42.019092609756136" lon="14.4070842236002"><ele>771.0</ele><time>2026-04-12T07:30:45.999Z</time></trkpt><trkpt lat="42.01898861130386" lon="14.407030566307395"><ele>771.0</ele><time>2026-04-12T07:30:47.999Z</time></trkpt><trkpt lat="42.018923679038814" lon="14.407005818720206"><ele>771.0</ele><time>2026-04-12T07:30:49.999Z</time></trkpt><trkpt lat="42.01885843467004" lon="14.406963738895225"><ele>771.0</ele><time>2026-04-12T07:30:51.999Z</time></trkpt><trkpt lat="42.018801028941986" lon="14.406925546831559"><ele>771.8333333333334</ele><time>2026-04-12T07:30:53.999Z</time></trkpt><trkpt lat="42.018740975975525" lon="14.406891442249778"><ele>772.6666666666667</ele><time>2026-04-12T07:30:55.999Z</time></trkpt><trkpt lat="42.01866599459779" lon="14.406836068841766"><ele>773.5</ele><time>2026-04-12T07:30:58.999Z</time></trkpt><trkpt lat="42.01861248219904" lon="14.406780920916276"><ele>774.3333333333334</ele><time>2026-04-12T07:31:00.998Z</time></trkpt><trkpt lat="42.01855457786585" lon="14.406724764315497"><ele>775.1666666666667</ele><time>2026-04-12T07:31:02.998Z</time></trkpt><trkpt lat="42.01848347917155" lon="14.406674709882616"><ele>776.0</ele><time>2026-04-12T07:31:05.998Z</time></trkpt><trkpt lat="42.01839612200835" lon="14.406638231544978"><ele>776.0</ele><time>2026-04-12T07:31:08.998Z</time></trkpt><trkpt lat="42.018334555726476" lon="14.406612575452066"><ele>776.0</ele><time>2026-04-12T07:31:10.998Z</time></trkpt><trkpt lat="42.01826971297671" lon="14.406594403296912"><ele>776.0</ele><time>2026-04-12T07:31:12.998Z</time></trkpt><trkpt lat="42.018189635198894" lon="14.406576522584581"><ele>776.0</ele><time>2026-04-12T07:31:15.998Z</time></trkpt><trkpt lat="42.01812530080576" lon="14.406559912457801"><ele>776.0</ele><time>2026-04-12T07:31:18.998Z</time></trkpt><trkpt lat="42.018039177738686" lon="14.406543009738723"><ele>776.0</ele><time>2026-04-12T07:31:21.998Z</time></trkpt><trkpt lat="42.01797378969947" lon="14.406522422728878"><ele>776.0</ele><time>2026-04-12T07:31:23.998Z</time></trkpt><trkpt lat="42.01790645058378" lon="14.406515205581607"><ele>776.8333333333334</ele><time>2026-04-12T07:31:26.998Z</time></trkpt><trkpt lat="42.0178269830007" lon="14.406501143553243"><ele>777.6666666666667</ele><time>2026-04-12T07:31:29.998Z</time></trkpt><trkpt lat="42.01774377805924" lon="14.4064908981661"><ele>778.5</ele><time>2026-04-12T07:31:32.998Z</time></trkpt><trkpt lat="42.01766184286685" lon="14.406469889998611"><ele>779.3333333333333</ele><time>2026-04-12T07:31:35.998Z</time></trkpt><trkpt lat="42.017582226545095" lon="14.40644925352884"><ele>780.1666666666666</ele><time>2026-04-12T07:31:38.998Z</time></trkpt><trkpt lat="42.01749899876205" lon="14.40643487417881"><ele>781.0</ele><time>2026-04-12T07:31:41.998Z</time></trkpt><trkpt lat="42.01741833365844" lon="14.40641547178353"><ele>781.6666666666666</ele><time>2026-04-12T07:31:44.998Z</time></trkpt><trkpt lat="42.01733659851755" lon="14.406394004077876"><ele>782.3333333333333</ele><time>2026-04-12T07:31:48Z</time></trkpt><trkpt lat="42.0172564495169" lon="14.4063677791918"><ele>783.0</ele><time>2026-04-12T07:31:51Z</time></trkpt><trkpt lat="42.01717827673615" lon="14.406341938805705"><ele>783.6666666666667</ele><time>2026-04-12T07:31:54Z</time></trkpt><trkpt lat="42.01709342300196" lon="14.40631746094965"><ele>784.3333333333334</ele><time>2026-04-12T07:31:57Z</time></trkpt><trkpt lat="42.01701797201891" lon="14.406292070063092"><ele>785.0</ele><time>2026-04-12T07:32:00Z</time></trkpt><trkpt lat="42.01694417436036" lon="14.406259678515378"><ele>785.0000000000001</ele><time>2026-04-12T07:32:03Z</time></trkpt><trkpt lat="42.01686240410896" lon="14.406215723954379"><ele>785.0</ele><time>2026-04-12T07:32:06Z</time></trkpt><trkpt lat="42.0167800404644" lon="14.406167269409332"><ele>785.0</ele><time>2026-04-12T07:32:09.999Z</time></trkpt><trkpt lat="42.01671334061747" lon="14.406112544583687"><ele>785.0</ele><time>2026-04-12T07:32:12.999Z</time></trkpt><trkpt lat="42.016652836798144" lon="14.406060068243324"><ele>785.0000000000001</ele><time>2026-04-12T07:32:14.999Z</time></trkpt><trkpt lat="42.01660001891831" lon="14.406000663343512"><ele>785.0</ele><time>2026-04-12T07:32:17.999Z</time></trkpt><trkpt lat="42.016548057581595" lon="14.405939328741667"><ele>785.5000000000001</ele><time>2026-04-12T07:32:19.999Z</time></trkpt><trkpt lat="42.016491699444025" lon="14.405850922490236"><ele>786.0</ele><time>2026-04-12T07:32:22.999Z</time></trkpt><trkpt lat="42.01641943166392" lon="14.405754819581505"><ele>786.5</ele><time>2026-04-12T07:32:24.999Z</time></trkpt><trkpt lat="42.01637667436163" lon="14.405652863417666"><ele>787.0</ele><time>2026-04-12T07:32:26.999Z</time></trkpt><trkpt lat="42.016343170190844" lon="14.405566631131416"><ele>787.5000000000001</ele><time>2026-04-12T07:32:28.999Z</time></trkpt><trkpt lat="42.016300188130515" lon="14.405461050113034"><ele>788.0</ele><time>2026-04-12T07:32:31.999Z</time></trkpt><trkpt lat="42.01628316647449" lon="14.405363121699684"><ele>788.7142857142858</ele><time>2026-04-12T07:32:34.999Z</time></trkpt><trkpt lat="42.01625416870982" lon="14.40527668866663"><ele>789.4285714285714</ele><time>2026-04-12T07:32:36.999Z</time></trkpt><trkpt lat="42.01623402516937" lon="14.405168166400466"><ele>790.1428571428571</ele><time>2026-04-12T07:32:39.999Z</time></trkpt><trkpt lat="42.016204174251286" lon="14.405070329334393"><ele>790.8571428571429</ele><time>2026-04-12T07:32:42.999Z</time></trkpt><trkpt lat="42.016195470516905" lon="14.404980941684592"><ele>791.5714285714286</ele><time>2026-04-12T07:32:45.999Z</time></trkpt><trkpt lat="42.0161960325237" lon="14.404893281097653"><ele>792.2857142857143</ele><time>2026-04-12T07:32:48.999Z</time></trkpt><trkpt lat="42.01619003851988" lon="14.404808693368661"><ele>793.0</ele><time>2026-04-12T07:32:51.999Z</time></trkpt><trkpt lat="42.01620214704821" lon="14.404710512740566"><ele>793.8333333333333</ele><time>2026-04-12T07:32:55.999Z</time></trkpt><trkpt lat="42.016212860148904" lon="14.40459151860025"><ele>794.6666666666666</ele><time>2026-04-12T07:32:59.998Z</time></trkpt><trkpt lat="42.01622946996971" lon="14.404509785191845"><ele>795.5</ele><time>2026-04-12T07:33:02.998Z</time></trkpt><trkpt lat="42.016251959185986" lon="14.404411636369684"><ele>796.3333333333333</ele><time>2026-04-12T07:33:06.998Z</time></trkpt><trkpt lat="42.01629604625371" lon="14.404313645995757"><ele>797.1666666666666</ele><time>2026-04-12T07:33:11.998Z</time></trkpt><trkpt lat="42.01634609661466" lon="14.404231394403043"><ele>798.0</ele><time>2026-04-12T07:33:16.998Z</time></trkpt><trkpt lat="42.01638911019876" lon="14.404163977206297"><ele>798.0</ele><time>2026-04-12T07:33:20.998Z</time></trkpt><trkpt lat="42.01642982998123" lon="14.404077851996304"><ele>798.0</ele><time>2026-04-12T07:33:25.998Z</time></trkpt><trkpt lat="42.016469957409306" lon="14.404002895986292"><ele>798.0</ele><time>2026-04-12T07:33:28.998Z</time></trkpt><trkpt lat="42.016502341305184" lon="14.403928763770528"><ele>798.0</ele><time>2026-04-12T07:33:31.998Z</time></trkpt><trkpt lat="42.01653934560735" lon="14.403854611374797"><ele>798.0</ele><time>2026-04-12T07:33:34.998Z</time></trkpt><trkpt lat="42.016569515888015" lon="14.403763379948826"><ele>798.0</ele><time>2026-04-12T07:33:38.998Z</time></trkpt><trkpt lat="42.01660335770046" lon="14.403691259764507"><ele>798.0</ele><time>2026-04-12T07:33:41.998Z</time></trkpt><trkpt lat="42.01663047021965" lon="14.403602776887256"><ele>798.6666666666666</ele><time>2026-04-12T07:33:44.998Z</time></trkpt><trkpt lat="42.01665884713494" lon="14.403513849469004"><ele>799.3333333333333</ele><time>2026-04-12T07:33:48.998Z</time></trkpt><trkpt lat="42.01668642639017" lon="14.403400146308567"><ele>800.0</ele><time>2026-04-12T07:33:53Z</time></trkpt><trkpt lat="42.01670746142698" lon="14.40330170558307"><ele>800.6666666666666</ele><time>2026-04-12T07:33:57Z</time></trkpt><trkpt lat="42.01671923917828" lon="14.403211540589972"><ele>801.3333333333333</ele><time>2026-04-12T07:34:00Z</time></trkpt><trkpt lat="42.01671364287711" lon="14.403111436419502"><ele>802.0</ele><time>2026-04-12T07:34:04Z</time></trkpt><trkpt lat="42.01669120456185" lon="14.403008038730823"><ele>802.8571428571429</ele><time>2026-04-12T07:34:07.999Z</time></trkpt><trkpt lat="42.01664724424909" lon="14.402924129838729"><ele>803.7142857142858</ele><time>2026-04-12T07:34:11.999Z</time></trkpt><trkpt lat="42.016598001896064" lon="14.402849730215078"><ele>804.5714285714286</ele><time>2026-04-12T07:34:15.999Z</time></trkpt><trkpt lat="42.01654785772125" lon="14.402780801999736"><ele>805.4285714285714</ele><time>2026-04-12T07:34:19.999Z</time></trkpt><trkpt lat="42.01650230352332" lon="14.40270762021423"><ele>806.2857142857142</ele><time>2026-04-12T07:34:25.999Z</time></trkpt><trkpt lat="42.01646322959738" lon="14.402629162557394"><ele>807.1428571428571</ele><time>2026-04-12T07:36:11.999Z</time></trkpt><trkpt lat="42.01642489690599" lon="14.40253677430133"><ele>808.0</ele><time>2026-04-12T07:36:15.999Z</time></trkpt><trkpt lat="42.016383543149175" lon="14.402443721038054"><ele>808.0</ele><time>2026-04-12T07:36:19.999Z</time></trkpt><trkpt lat="42.01635952285911" lon="14.402345465517522"><ele>808.0</ele><time>2026-04-12T07:36:23.999Z</time></trkpt><trkpt lat="42.01633550418389" lon="14.402250058044114"><ele>808.0</ele><time>2026-04-12T07:36:27.999Z</time></trkpt><trkpt lat="42.01632312185042" lon="14.402154819406016"><ele>808.0</ele><time>2026-04-12T07:36:31.999Z</time></trkpt><trkpt lat="42.01631955534152" lon="14.402068170838934"><ele>808.0</ele><time>2026-04-12T07:36:35.999Z</time></trkpt><trkpt lat="42.01633840015018" lon="14.401975838544347"><ele>808.0</ele><time>2026-04-12T07:36:39.999Z</time></trkpt><trkpt lat="42.01636038869892" lon="14.401893544018996"><ele>808.0</ele><time>2026-04-12T07:36:43.999Z</time></trkpt><trkpt lat="42.01639311901181" lon="14.401817551071105"><ele>810.1666666666666</ele><time>2026-04-12T07:36:47.999Z</time></trkpt><trkpt lat="42.01642484381159" lon="14.401721996698432"><ele>812.3333333333333</ele><time>2026-04-12T07:36:52.999Z</time></trkpt><trkpt lat="42.01646283720468" lon="14.401632390599323"><ele>814.5</ele><time>2026-04-12T07:36:57.999Z</time></trkpt><trkpt lat="42.016505062253984" lon="14.40154289358057"><ele>816.6666666666667</ele><time>2026-04-12T07:37:03Z</time></trkpt><trkpt lat="42.0165484710869" lon="14.401466195161992"><ele>818.8333333333334</ele><time>2026-04-12T07:37:06.999Z</time></trkpt><trkpt lat="42.016594100436514" lon="14.401389123532745"><ele>821.0</ele><time>2026-04-12T07:37:11.999Z</time></trkpt><trkpt lat="42.01665580066658" lon="14.40133808445594"><ele>823.4285714285714</ele><time>2026-04-12T07:37:16.999Z</time></trkpt><trkpt lat="42.016721369102356" lon="14.401290449710237"><ele>825.8571428571429</ele><time>2026-04-12T07:37:21.999Z</time></trkpt><trkpt lat="42.016783589880816" lon="14.401249228438823"><ele>828.2857142857142</ele><time>2026-04-12T07:37:26.999Z</time></trkpt><trkpt lat="42.016845353808876" lon="14.401227777187781"><ele>830.7142857142858</ele><time>2026-04-12T07:37:31.999Z</time></trkpt><trkpt lat="42.01691731151349" lon="14.401196819860441"><ele>833.1428571428571</ele><time>2026-04-12T07:37:36.999Z</time></trkpt><trkpt lat="42.0169822970237" lon="14.401157554977752"><ele>835.5714285714286</ele><time>2026-04-12T07:37:41.999Z</time></trkpt><trkpt lat="42.01703363826985" lon="14.401102224968474"><ele>838.0</ele><time>2026-04-12T07:37:45.999Z</time></trkpt><trkpt lat="42.017094532993234" lon="14.401049336767436"><ele>837.9999999999999</ele><time>2026-04-12T07:37:50.999Z</time></trkpt><trkpt lat="42.01715495517814" lon="14.40098012626518"><ele>838.0</ele><time>2026-04-12T07:37:55.999Z</time></trkpt><trkpt lat="42.01720962614591" lon="14.400908351336453"><ele>838.0</ele><time>2026-04-12T07:38:00.998Z</time></trkpt><trkpt lat="42.017269179311356" lon="14.400858167388407"><ele>838.0</ele><time>2026-04-12T07:38:06Z</time></trkpt><trkpt lat="42.017325339836255" lon="14.400783328738063"><ele>838.0</ele><time>2026-04-12T07:38:11Z</time></trkpt><trkpt lat="42.01736109277273" lon="14.400698970359999"><ele>837.9999999999999</ele><time>2026-04-12T07:38:16Z</time></trkpt><trkpt lat="42.01740270323" lon="14.4006222883067"><ele>838.0</ele><time>2026-04-12T07:38:21Z</time></trkpt><trkpt lat="42.01743697186555" lon="14.400539691508115"><ele>838.4285714285713</ele><time>2026-04-12T07:38:27Z</time></trkpt><trkpt lat="42.01746436621385" lon="14.400452699106912"><ele>838.8571428571429</ele><time>2026-04-12T07:38:32Z</time></trkpt><trkpt lat="42.01748238598952" lon="14.400345548157595"><ele>839.2857142857142</ele><time>2026-04-12T07:38:38Z</time></trkpt><trkpt lat="42.01749329277693" lon="14.400260747680898"><ele>839.7142857142857</ele><time>2026-04-12T07:38:43Z</time></trkpt><trkpt lat="42.01750983002324" lon="14.40016798862684"><ele>840.1428571428571</ele><time>2026-04-12T07:38:48Z</time></trkpt><trkpt lat="42.01752051813203" lon="14.400055773120103"><ele>840.5714285714286</ele><time>2026-04-12T07:38:54Z</time></trkpt><trkpt lat="42.017530947812936" lon="14.39995066875879"><ele>841.0</ele><time>2026-04-12T07:38:58Z</time></trkpt><trkpt lat="42.01752939082188" lon="14.39986189468708"><ele>840.9999999999999</ele><time>2026-04-12T07:39:02Z</time></trkpt><trkpt lat="42.01753623425768" lon="14.399754225756695"><ele>841.0</ele><time>2026-04-12T07:39:06Z</time></trkpt><trkpt lat="42.017559321572776" lon="14.399647555391201"><ele>841.0</ele><time>2026-04-12T07:39:09.999Z</time></trkpt><trkpt lat="42.017585194650984" lon="14.399549498421985"><ele>841.0</ele><time>2026-04-12T07:39:13.999Z</time></trkpt><trkpt lat="42.01763057378379" lon="14.399464421615699"><ele>840.9999999999999</ele><time>2026-04-12T07:39:17.999Z</time></trkpt><trkpt lat="42.017679926921886" lon="14.399376704338973"><ele>841.0</ele><time>2026-04-12T07:39:21.999Z</time></trkpt><trkpt lat="42.01772253652344" lon="14.399285449609707"><ele>842.2857142857143</ele><time>2026-04-12T07:39:25.999Z</time></trkpt><trkpt lat="42.017758774860496" lon="14.399215963238852"><ele>843.5714285714286</ele><time>2026-04-12T07:39:28.999Z</time></trkpt><trkpt lat="42.017805504201704" lon="14.399135762828777"><ele>844.8571428571429</ele><time>2026-04-12T07:39:32.999Z</time></trkpt><trkpt lat="42.01784853707953" lon="14.39907209113303"><ele>846.1428571428571</ele><time>2026-04-12T07:39:35.999Z</time></trkpt><trkpt lat="42.01790949139372" lon="14.399008078159053"><ele>847.4285714285713</ele><time>2026-04-12T07:39:39.999Z</time></trkpt><trkpt lat="42.017959417352735" lon="14.39894592223907"><ele>848.7142857142857</ele><time>2026-04-12T07:39:43.999Z</time></trkpt><trkpt lat="42.01802441068384" lon="14.398876918820019"><ele>850.0</ele><time>2026-04-12T07:39:48.999Z</time></trkpt><trkpt lat="42.01808532867304" lon="14.398825696622982"><ele>850.6666666666666</ele><time>2026-04-12T07:39:52.999Z</time></trkpt><trkpt lat="42.018141753415605" lon="14.398773943139249"><ele>851.3333333333333</ele><time>2026-04-12T07:39:56.999Z</time></trkpt><trkpt lat="42.01819054008214" lon="14.398702769471011"><ele>852.0</ele><time>2026-04-12T07:40:00.999Z</time></trkpt><trkpt lat="42.01824263931506" lon="14.3986191642409"><ele>852.6666666666667</ele><time>2026-04-12T07:40:05.998Z</time></trkpt><trkpt lat="42.01828070019845" lon="14.398545626375276"><ele>853.3333333333334</ele><time>2026-04-12T07:40:11Z</time></trkpt><trkpt lat="42.018323859363534" lon="14.398457628345517"><ele>854.0</ele><time>2026-04-12T07:40:16Z</time></trkpt><trkpt lat="42.018361398053685" lon="14.39835481227348"><ele>854.0</ele><time>2026-04-12T07:40:20Z</time></trkpt><trkpt lat="42.01840440009979" lon="14.398263243644498"><ele>854.0</ele><time>2026-04-12T07:40:25Z</time></trkpt><trkpt lat="42.01844541736009" lon="14.398197093558467"><ele>854.0</ele><time>2026-04-12T07:40:28Z</time></trkpt><trkpt lat="42.01849120708234" lon="14.398127922439576"><ele>854.0</ele><time>2026-04-12T07:40:31Z</time></trkpt><trkpt lat="42.01854429819186" lon="14.39806604466076"><ele>854.0</ele><time>2026-04-12T07:40:35Z</time></trkpt><trkpt lat="42.0186254443245" lon="14.398037487419357"><ele>854.0</ele><time>2026-04-12T07:40:39Z</time></trkpt><trkpt lat="42.01869759335081" lon="14.39801625115567"><ele>854.0</ele><time>2026-04-12T07:40:44Z</time></trkpt><trkpt lat="42.01877157571711" lon="14.398004243280198"><ele>854.0</ele><time>2026-04-12T07:40:48Z</time></trkpt><trkpt lat="42.01883513874164" lon="14.39800443297394"><ele>854.0</ele><time>2026-04-12T07:40:52Z</time></trkpt><trkpt lat="42.018898476861885" lon="14.397992711187097"><ele>854.0</ele><time>2026-04-12T07:40:56Z</time></trkpt><trkpt lat="42.01896408160512" lon="14.397978723786302"><ele>854.0</ele><time>2026-04-12T07:41:00Z</time></trkpt><trkpt lat="42.01903888828885" lon="14.39795083393557"><ele>854.0</ele><time>2026-04-12T07:41:05Z</time></trkpt><trkpt lat="42.01910370291469" lon="14.397932727805687"><ele>854.0</ele><time>2026-04-12T07:41:09Z</time></trkpt><trkpt lat="42.01917915201087" lon="14.397906802722888"><ele>854.0</ele><time>2026-04-12T07:41:13Z</time></trkpt><trkpt lat="42.019250224651536" lon="14.39787631799232"><ele>855.6666666666667</ele><time>2026-04-12T07:41:15.999Z</time></trkpt><trkpt lat="42.01933422543031" lon="14.397845358124263"><ele>857.3333333333334</ele><time>2026-04-12T07:41:19.999Z</time></trkpt><trkpt lat="42.019401097481285" lon="14.397795889333523"><ele>859.0</ele><time>2026-04-12T07:41:22.999Z</time></trkpt><trkpt lat="42.01945687652606" lon="14.397732124421735"><ele>860.6666666666667</ele><time>2026-04-12T07:41:26.999Z</time></trkpt><trkpt lat="42.01949140755297" lon="14.397648153173682"><ele>862.3333333333334</ele><time>2026-04-12T07:41:30.999Z</time></trkpt><trkpt lat="42.01954169321262" lon="14.397564865036474"><ele>864.0</ele><time>2026-04-12T07:41:34.999Z</time></trkpt><trkpt lat="42.01956936546727" lon="14.397485811872768"><ele>864.0</ele><time>2026-04-12T07:41:39.999Z</time></trkpt><trkpt lat="42.019599528012634" lon="14.397404715115854"><ele>864.0</ele><time>2026-04-12T07:41:43.999Z</time></trkpt><trkpt lat="42.01962776987648" lon="14.39731151235476"><ele>864.0</ele><time>2026-04-12T07:41:47.999Z</time></trkpt><trkpt lat="42.019669688109964" lon="14.397226818346827"><ele>864.0</ele><time>2026-04-12T07:41:52.999Z</time></trkpt><trkpt lat="42.019741489458625" lon="14.397180114928588"><ele>864.0</ele><time>2026-04-12T07:41:57.999Z</time></trkpt><trkpt lat="42.019806261446945" lon="14.397162945446823"><ele>864.0</ele><time>2026-04-12T07:42:01.999Z</time></trkpt><trkpt lat="42.01987528523294" lon="14.397184593769536"><ele>864.0</ele><time>2026-04-12T07:42:05.999Z</time></trkpt><trkpt lat="42.01994707776006" lon="14.397213055773335"><ele>864.3333333333334</ele><time>2026-04-12T07:42:09.998Z</time></trkpt><trkpt lat="42.0200164639321" lon="14.39725183742985"><ele>864.6666666666667</ele><time>2026-04-12T07:42:13.998Z</time></trkpt><trkpt lat="42.02009751608664" lon="14.397268480462843"><ele>865.0</ele><time>2026-04-12T07:42:18Z</time></trkpt><trkpt lat="42.020172923114764" lon="14.397282173389588"><ele>865.3333333333334</ele><time>2026-04-12T07:42:22Z</time></trkpt><trkpt lat="42.02024894768932" lon="14.397276488321069"><ele>865.6666666666667</ele><time>2026-04-12T07:42:26Z</time></trkpt><trkpt lat="42.02032146411737" lon="14.397265661166028"><ele>866.0</ele><time>2026-04-12T07:42:30Z</time></trkpt><trkpt lat="42.020383813704164" lon="14.397300651340942"><ele>865.9999999999999</ele><time>2026-04-12T07:42:34Z</time></trkpt><trkpt lat="42.020428921543584" lon="14.397378732905135"><ele>866.0</ele><time>2026-04-12T07:42:38Z</time></trkpt><trkpt lat="42.020441577999144" lon="14.397482981739001"><ele>866.0</ele><time>2026-04-12T07:42:42Z</time></trkpt><trkpt lat="42.020430081816244" lon="14.397580420790055"><ele>866.0</ele><time>2026-04-12T07:42:46Z</time></trkpt><trkpt lat="42.0204090693373" lon="14.397682352570337"><ele>866.0</ele><time>2026-04-12T07:42:50Z</time></trkpt><trkpt lat="42.02038414766786" lon="14.397760973737158"><ele>865.9999999999999</ele><time>2026-04-12T07:42:53Z</time></trkpt><trkpt lat="42.0203410191719" lon="14.397845588956587"><ele>866.0</ele><time>2026-04-12T07:42:57Z</time></trkpt><trkpt lat="42.020303275360476" lon="14.397932720306123"><ele>864.9999999999999</ele><time>2026-04-12T07:43:00Z</time></trkpt><trkpt lat="42.02026584892088" lon="14.398019441541555"><ele>864.0</ele><time>2026-04-12T07:43:03Z</time></trkpt><trkpt lat="42.02025672245818" lon="14.398126313461045"><ele>863.0</ele><time>2026-04-12T07:43:06Z</time></trkpt><trkpt lat="42.02029709191392" lon="14.398206332079717"><ele>862.0</ele><time>2026-04-12T07:43:09Z</time></trkpt><trkpt lat="42.02035060674205" lon="14.398270651939399"><ele>861.0</ele><time>2026-04-12T07:43:12Z</time></trkpt><trkpt lat="42.0204200245163" lon="14.398303141566112"><ele>859.9999999999999</ele><time>2026-04-12T07:43:16Z</time></trkpt><trkpt lat="42.02049424265621" lon="14.398326005347933"><ele>859.0</ele><time>2026-04-12T07:43:18.999Z</time></trkpt><trkpt lat="42.02056933279471" lon="14.398368627482258"><ele>858.9999999999999</ele><time>2026-04-12T07:43:22.999Z</time></trkpt><trkpt lat="42.02062954709207" lon="14.398394813463607"><ele>859.0</ele><time>2026-04-12T07:43:26.999Z</time></trkpt><trkpt lat="42.020704397040156" lon="14.398426696081804"><ele>859.0</ele><time>2026-04-12T07:43:30.999Z</time></trkpt><trkpt lat="42.02078370582625" lon="14.398459918333733"><ele>859.0</ele><time>2026-04-12T07:43:34.999Z</time></trkpt><trkpt lat="42.02085153328297" lon="14.398467265608884"><ele>859.0</ele><time>2026-04-12T07:43:37.999Z</time></trkpt><trkpt lat="42.02091904930269" lon="14.39846597604524"><ele>858.9999999999999</ele><time>2026-04-12T07:43:40.999Z</time></trkpt><trkpt lat="42.02098566420942" lon="14.398461777310539"><ele>859.0</ele><time>2026-04-12T07:43:43.999Z</time></trkpt><trkpt lat="42.02112748753425" lon="14.398459871527708"><ele>861.1666666666666</ele><time>2026-04-12T07:43:49.999Z</time></trkpt><trkpt lat="42.02122206134774" lon="14.398433465496732"><ele>863.3333333333333</ele><time>2026-04-12T07:43:53.999Z</time></trkpt><trkpt lat="42.02128576165191" lon="14.398417584522198"><ele>865.5</ele><time>2026-04-12T07:43:56.999Z</time></trkpt><trkpt lat="42.02136996530672" lon="14.398403706258268"><ele>867.6666666666667</ele><time>2026-04-12T07:43:59.999Z</time></trkpt><trkpt lat="42.02144309013924" lon="14.398384484045014"><ele>869.8333333333334</ele><time>2026-04-12T07:44:01.999Z</time></trkpt><trkpt lat="42.02152539945706" lon="14.39837252942794"><ele>872.0</ele><time>2026-04-12T07:44:03.999Z</time></trkpt><trkpt lat="42.02161705000991" lon="14.3983438982002"><ele>872.4000000000001</ele><time>2026-04-12T07:44:05.999Z</time></trkpt><trkpt lat="42.02172882689506" lon="14.398322676671537"><ele>872.8000000000001</ele><time>2026-04-12T07:44:07.999Z</time></trkpt><trkpt lat="42.021849075728056" lon="14.398302162484388"><ele>873.2</ele><time>2026-04-12T07:44:09.999Z</time></trkpt><trkpt lat="42.021972373168" lon="14.398286920206168"><ele>873.6</ele><time>2026-04-12T07:44:11.998Z</time></trkpt><trkpt lat="42.02204139262369" lon="14.398291863914148"><ele>874.0</ele><time>2026-04-12T07:44:12.998Z</time></trkpt><trkpt lat="42.02211387218787" lon="14.398313373955723"><ele>874.0</ele><time>2026-04-12T07:44:13.998Z</time></trkpt><trkpt lat="42.022189764786575" lon="14.39834963234078"><ele>874.0000000000001</ele><time>2026-04-12T07:44:14.998Z</time></trkpt><trkpt lat="42.022271161443435" lon="14.398393829620042"><ele>874.0000000000001</ele><time>2026-04-12T07:44:15.998Z</time></trkpt><trkpt lat="42.02235886120405" lon="14.39844420707554"><ele>874.0</ele><time>2026-04-12T07:44:16.998Z</time></trkpt><trkpt lat="42.02245114183102" lon="14.398491903244155"><ele>874.0</ele><time>2026-04-12T07:44:17.998Z</time></trkpt><trkpt lat="42.022549563077725" lon="14.398541417498388"><ele>874.4000000000001</ele><time>2026-04-12T07:44:18.998Z</time></trkpt><trkpt lat="42.0226533964112" lon="14.398585743373713"><ele>874.8000000000001</ele><time>2026-04-12T07:44:19.998Z</time></trkpt><trkpt lat="42.0227546214726" lon="14.398632348394916"><ele>875.1999999999999</ele><time>2026-04-12T07:44:20.998Z</time></trkpt><trkpt lat="42.022852119338964" lon="14.39867250058647"><ele>875.5999999999999</ele><time>2026-04-12T07:44:22Z</time></trkpt><trkpt lat="42.022949079783466" lon="14.398702750226658"><ele>876.0</ele><time>2026-04-12T07:44:23Z</time></trkpt><trkpt lat="42.023047723472125" lon="14.398724560256364"><ele>876.0</ele><time>2026-04-12T07:44:24Z</time></trkpt><trkpt lat="42.02314302328726" lon="14.398731263060865"><ele>875.9999999999999</ele><time>2026-04-12T07:44:25Z</time></trkpt><trkpt lat="42.02323170832741" lon="14.398728520889598"><ele>875.9999999999999</ele><time>2026-04-12T07:44:26Z</time></trkpt><trkpt lat="42.02332625957327" lon="14.398735463357808"><ele>876.0</ele><time>2026-04-12T07:44:27Z</time></trkpt><trkpt lat="42.02341636782561" lon="14.39870724040427"><ele>876.0</ele><time>2026-04-12T07:44:28Z</time></trkpt><trkpt lat="42.02349937636977" lon="14.398668086130872"><ele>875.5999999999999</ele><time>2026-04-12T07:44:29Z</time></trkpt><trkpt lat="42.02358055925706" lon="14.39861887334548"><ele>875.1999999999999</ele><time>2026-04-12T07:44:30Z</time></trkpt><trkpt lat="42.02365233034403" lon="14.39856260922879"><ele>874.8000000000001</ele><time>2026-04-12T07:44:31Z</time></trkpt><trkpt lat="42.02370416208129" lon="14.39848816766591"><ele>874.4000000000001</ele><time>2026-04-12T07:44:32Z</time></trkpt><trkpt lat="42.02377159953886" lon="14.398394617022563"><ele>874.0</ele><time>2026-04-12T07:44:34Z</time></trkpt><trkpt lat="42.023877640725466" lon="14.39825510935492"><ele>874.0</ele><time>2026-04-12T07:44:36Z</time></trkpt><trkpt lat="42.02393390436608" lon="14.39818049040025"><ele>874.0000000000001</ele><time>2026-04-12T07:44:38Z</time></trkpt><trkpt lat="42.02400685166339" lon="14.398088681408764"><ele>874.0000000000001</ele><time>2026-04-12T07:44:40Z</time></trkpt><trkpt lat="42.024083201441655" lon="14.398002209516175"><ele>874.0</ele><time>2026-04-12T07:44:42Z</time></trkpt><trkpt lat="42.02421552362982" lon="14.397971304154387"><ele>874.0</ele><time>2026-04-12T07:44:44Z</time></trkpt><trkpt lat="42.02427928387014" lon="14.39796889145816"><ele>873.9999999999999</ele><time>2026-04-12T07:44:45Z</time></trkpt><trkpt lat="42.02434152534423" lon="14.39798826254146"><ele>874.0</ele><time>2026-04-12T07:44:46Z</time></trkpt><trkpt lat="42.024409376521135" lon="14.39802264559669"><ele>874.0</ele><time>2026-04-12T07:44:47Z</time></trkpt><trkpt lat="42.02446180893928" lon="14.398076121285378"><ele>874.0</ele><time>2026-04-12T07:44:48Z</time></trkpt><trkpt lat="42.024507692630465" lon="14.398200795505447"><ele>873.9999999999999</ele><time>2026-04-12T07:44:50Z</time></trkpt><trkpt lat="42.02453979114494" lon="14.398284211115755"><ele>874.0</ele><time>2026-04-12T07:44:52Z</time></trkpt><trkpt lat="42.0245726625966" lon="14.398395581354048"><ele>871.8333333333333</ele><time>2026-04-12T07:44:55Z</time></trkpt><trkpt lat="42.0246100084339" lon="14.398472172871825"><ele>869.6666666666666</ele><time>2026-04-12T07:44:57Z</time></trkpt><trkpt lat="42.02470403732195" lon="14.398504811490431"><ele>867.5</ele><time>2026-04-12T07:45:00Z</time></trkpt><trkpt lat="42.024761730479355" lon="14.398447684551108"><ele>865.3333333333333</ele><time>2026-04-12T07:45:02Z</time></trkpt><trkpt lat="42.02478894358" lon="14.39832972699502"><ele>863.1666666666666</ele><time>2026-04-12T07:45:05Z</time></trkpt><trkpt lat="42.024772891542156" lon="14.398239185356484"><ele>861.0</ele><time>2026-04-12T07:45:08Z</time></trkpt><trkpt lat="42.0247458571408" lon="14.398159472848718"><ele>861.0</ele><time>2026-04-12T07:45:11Z</time></trkpt><trkpt lat="42.02472760468972" lon="14.398064352631799"><ele>861.0</ele><time>2026-04-12T07:45:15Z</time></trkpt><trkpt lat="42.02470474259933" lon="14.397983335710109"><ele>861.0</ele><time>2026-04-12T07:45:17.999Z</time></trkpt><trkpt lat="42.024693058627754" lon="14.397880623100889"><ele>861.0</ele><time>2026-04-12T07:45:21.999Z</time></trkpt><trkpt lat="42.02465850291288" lon="14.397783666127635"><ele>861.0</ele><time>2026-04-12T07:45:25.999Z</time></trkpt><trkpt lat="42.024641299032055" lon="14.39767664904933"><ele>861.0</ele><time>2026-04-12T07:45:29.999Z</time></trkpt><trkpt lat="42.02469869662804" lon="14.397572299318652"><ele>862.1428571428571</ele><time>2026-04-12T07:45:33.999Z</time></trkpt><trkpt lat="42.024736477557056" lon="14.397491921316469"><ele>863.2857142857142</ele><time>2026-04-12T07:45:36.999Z</time></trkpt><trkpt lat="42.02478199899701" lon="14.397414978672078"><ele>864.4285714285714</ele><time>2026-04-12T07:45:40.999Z</time></trkpt><trkpt lat="42.024827401563584" lon="14.397343787300073"><ele>865.5714285714286</ele><time>2026-04-12T07:45:43.999Z</time></trkpt><trkpt lat="42.02487155126157" lon="14.397281683735564"><ele>866.7142857142857</ele><time>2026-04-12T07:45:47.999Z</time></trkpt><trkpt lat="42.02491510250035" lon="14.397216904282283"><ele>867.8571428571429</ele><time>2026-04-12T07:45:50.999Z</time></trkpt><trkpt lat="42.02496755561024" lon="14.397146532329765"><ele>869.0</ele><time>2026-04-12T07:45:54.999Z</time></trkpt><trkpt lat="42.02501189485019" lon="14.397084562767791"><ele>869.0000000000001</ele><time>2026-04-12T07:45:57.999Z</time></trkpt><trkpt lat="42.02508291658913" lon="14.397026691778963"><ele>869.0</ele><time>2026-04-12T07:46:01.999Z</time></trkpt><trkpt lat="42.025158513761625" lon="14.397006536470151"><ele>869.0</ele><time>2026-04-12T07:46:05.999Z</time></trkpt><trkpt lat="42.02523369005645" lon="14.397008136201315"><ele>869.0</ele><time>2026-04-12T07:46:09.998Z</time></trkpt><trkpt lat="42.02531515196573" lon="14.397010074548879"><ele>869.0000000000001</ele><time>2026-04-12T07:46:13.998Z</time></trkpt><trkpt lat="42.02538870170852" lon="14.397024008514181"><ele>869.0</ele><time>2026-04-12T07:46:17.998Z</time></trkpt><trkpt lat="42.02546089421182" lon="14.397032075758467"><ele>869.0</ele><time>2026-04-12T07:46:21.998Z</time></trkpt><trkpt lat="42.02552248640398" lon="14.397053166803982"><ele>869.0</ele><time>2026-04-12T07:46:25.998Z</time></trkpt><trkpt lat="42.02559445622568" lon="14.397070797941906"><ele>869.0</ele><time>2026-04-12T07:46:30Z</time></trkpt><trkpt lat="42.02566903896188" lon="14.397090034452557"><ele>869.0</ele><time>2026-04-12T07:46:34Z</time></trkpt><trkpt lat="42.02574495246804" lon="14.39711297802697"><ele>869.0</ele><time>2026-04-12T07:46:38Z</time></trkpt><trkpt lat="42.02582292040661" lon="14.397130482664085"><ele>869.0</ele><time>2026-04-12T07:46:42Z</time></trkpt><trkpt lat="42.025896985670705" lon="14.397145825747193"><ele>869.0</ele><time>2026-04-12T07:46:46Z</time></trkpt><trkpt lat="42.025969871607636" lon="14.397162496477732"><ele>869.1428571428572</ele><time>2026-04-12T07:46:50Z</time></trkpt><trkpt lat="42.02604397810072" lon="14.397177789709225"><ele>869.2857142857142</ele><time>2026-04-12T07:46:54Z</time></trkpt><trkpt lat="42.026117573762505" lon="14.397187063137578"><ele>869.4285714285714</ele><time>2026-04-12T07:46:58Z</time></trkpt><trkpt lat="42.02619269674742" lon="14.397193576315324"><ele>869.5714285714287</ele><time>2026-04-12T07:47:02Z</time></trkpt><trkpt lat="42.026267365704776" lon="14.397196457333353"><ele>869.7142857142858</ele><time>2026-04-12T07:47:06Z</time></trkpt><trkpt lat="42.02634206480876" lon="14.397189289393202"><ele>869.8571428571429</ele><time>2026-04-12T07:47:10Z</time></trkpt><trkpt lat="42.02641679287016" lon="14.39717387666142"><ele>870.0</ele><time>2026-04-12T07:47:14Z</time></trkpt><trkpt lat="42.02648984495051" lon="14.397159291133665"><ele>870.0000000000001</ele><time>2026-04-12T07:47:18Z</time></trkpt><trkpt lat="42.026553672553256" lon="14.397139604372736"><ele>870.0</ele><time>2026-04-12T07:47:21.999Z</time></trkpt><trkpt lat="42.02663152621512" lon="14.397111222112226"><ele>870.0</ele><time>2026-04-12T07:47:25.999Z</time></trkpt><trkpt lat="42.02669453367259" lon="14.397086897939861"><ele>870.0</ele><time>2026-04-12T07:47:29.999Z</time></trkpt><trkpt lat="42.02677481709965" lon="14.397050613356088"><ele>870.0</ele><time>2026-04-12T07:47:33.999Z</time></trkpt><trkpt lat="42.02683875714059" lon="14.397020839079687"><ele>870.0000000000001</ele><time>2026-04-12T07:47:37.999Z</time></trkpt><trkpt lat="42.026918250533114" lon="14.396993019618833"><ele>870.0</ele><time>2026-04-12T07:47:41.999Z</time></trkpt><trkpt lat="42.026983232513366" lon="14.396974293556733"><ele>871.0000000000001</ele><time>2026-04-12T07:47:45.999Z</time></trkpt><trkpt lat="42.02705145710508" lon="14.39696320261189"><ele>872.0</ele><time>2026-04-12T07:47:49.999Z</time></trkpt><trkpt lat="42.0271214557641" lon="14.396951480215995"><ele>873.0</ele><time>2026-04-12T07:47:53.999Z</time></trkpt><trkpt lat="42.027186243588794" lon="14.396951938584937"><ele>874.0</ele><time>2026-04-12T07:47:57.999Z</time></trkpt><trkpt lat="42.02725895931853" lon="14.39694857607353"><ele>875.0</ele><time>2026-04-12T07:48:01.999Z</time></trkpt><trkpt lat="42.02732239120723" lon="14.396950962678073"><ele>876.0000000000001</ele><time>2026-04-12T07:48:05.999Z</time></trkpt><trkpt lat="42.027399006830535" lon="14.396959805115602"><ele>877.0</ele><time>2026-04-12T07:48:09.999Z</time></trkpt><trkpt lat="42.027465944834994" lon="14.39696283451837"><ele>878.2857142857143</ele><time>2026-04-12T07:48:13.999Z</time></trkpt><trkpt lat="42.027536776341094" lon="14.396971582907101"><ele>879.5714285714286</ele><time>2026-04-12T07:48:17.998Z</time></trkpt><trkpt lat="42.02760981292896" lon="14.39697832334119"><ele>880.8571428571429</ele><time>2026-04-12T07:48:21.998Z</time></trkpt><trkpt lat="42.02767854009744" lon="14.39696694819729"><ele>882.1428571428571</ele><time>2026-04-12T07:48:25.998Z</time></trkpt><trkpt lat="42.027755757736024" lon="14.396960135663408"><ele>883.4285714285714</ele><time>2026-04-12T07:48:29.998Z</time></trkpt><trkpt lat="42.02782124339861" lon="14.396949403199073"><ele>884.7142857142858</ele><time>2026-04-12T07:48:34Z</time></trkpt><trkpt lat="42.02788752404077" lon="14.396932312176164"><ele>886.0</ele><time>2026-04-12T07:48:38Z</time></trkpt><trkpt lat="42.02796364963747" lon="14.396909876404758"><ele>886.0</ele><time>2026-04-12T07:48:42Z</time></trkpt><trkpt lat="42.02802826646683" lon="14.396883680397961"><ele>886.0</ele><time>2026-04-12T07:48:46Z</time></trkpt><trkpt lat="42.02809527128837" lon="14.39684162222548"><ele>886.0</ele><time>2026-04-12T07:48:50Z</time></trkpt><trkpt lat="42.028162395435515" lon="14.396799751850955"><ele>886.0</ele><time>2026-04-12T07:48:54Z</time></trkpt><trkpt lat="42.02823479971515" lon="14.396738412083641"><ele>886.0</ele><time>2026-04-12T07:48:58Z</time></trkpt><trkpt lat="42.02829680735506" lon="14.396685226852382"><ele>886.0</ele><time>2026-04-12T07:49:02Z</time></trkpt><trkpt lat="42.028357601846366" lon="14.396627457448039"><ele>886.0</ele><time>2026-04-12T07:49:06Z</time></trkpt><trkpt lat="42.02841891906826" lon="14.396567584094063"><ele>887.4999999999999</ele><time>2026-04-12T07:49:10Z</time></trkpt><trkpt lat="42.02847874366117" lon="14.39650218521903"><ele>889.0</ele><time>2026-04-12T07:49:14Z</time></trkpt><trkpt lat="42.02852843242005" lon="14.396444037266606"><ele>890.5</ele><time>2026-04-12T07:49:18Z</time></trkpt><trkpt lat="42.02859282133579" lon="14.396373126540084"><ele>892.0</ele><time>2026-04-12T07:49:22Z</time></trkpt><trkpt lat="42.028645907483444" lon="14.39631160293682"><ele>893.4999999999999</ele><time>2026-04-12T07:49:25.999Z</time></trkpt><trkpt lat="42.02871301346866" lon="14.396237509226712"><ele>895.0</ele><time>2026-04-12T07:49:29.999Z</time></trkpt><trkpt lat="42.02876545400479" lon="14.39617903543646"><ele>894.9999999999999</ele><time>2026-04-12T07:49:33.999Z</time></trkpt><trkpt lat="42.02882681765588" lon="14.396112373870825"><ele>895.0</ele><time>2026-04-12T07:49:37.999Z</time></trkpt><trkpt lat="42.028878622696574" lon="14.396054327897684"><ele>895.0</ele><time>2026-04-12T07:49:40.999Z</time></trkpt><trkpt lat="42.028929345108835" lon="14.39600085006405"><ele>895.0</ele><time>2026-04-12T07:49:43.999Z</time></trkpt><trkpt lat="42.02898913364096" lon="14.395927572000346"><ele>894.9999999999999</ele><time>2026-04-12T07:49:47.999Z</time></trkpt><trkpt lat="42.029049596017295" lon="14.395848750061848"><ele>895.0</ele><time>2026-04-12T07:49:51.999Z</time></trkpt><trkpt lat="42.02910572413093" lon="14.395770098904523"><ele>895.8571428571429</ele><time>2026-04-12T07:49:55.999Z</time></trkpt><trkpt lat="42.02916104208708" lon="14.395691862669937"><ele>896.7142857142858</ele><time>2026-04-12T07:49:59.999Z</time></trkpt><trkpt lat="42.02920428158474" lon="14.395628160362023"><ele>897.5714285714287</ele><time>2026-04-12T07:50:02.999Z</time></trkpt><trkpt lat="42.02924735615061" lon="14.395563412601446"><ele>898.4285714285714</ele><time>2026-04-12T07:50:05.999Z</time></trkpt><trkpt lat="42.02929120425865" lon="14.395491294082467"><ele>899.2857142857144</ele><time>2026-04-12T07:50:08.999Z</time></trkpt><trkpt lat="42.02933768481714" lon="14.395416578731146"><ele>900.1428571428572</ele><time>2026-04-12T07:50:11.999Z</time></trkpt><trkpt lat="42.029386413214546" lon="14.395343438852066"><ele>901.0</ele><time>2026-04-12T07:50:14.999Z</time></trkpt><trkpt lat="42.0294343480156" lon="14.395273011426168"><ele>901.0</ele><time>2026-04-12T07:50:17.999Z</time></trkpt><trkpt lat="42.029481553054936" lon="14.395205325105378"><ele>901.0000000000001</ele><time>2026-04-12T07:50:20.998Z</time></trkpt><trkpt lat="42.02952988748413" lon="14.395138347591216"><ele>901.0</ele><time>2026-04-12T07:50:23.998Z</time></trkpt><trkpt lat="42.029577893089915" lon="14.395070626530455"><ele>901.0</ele><time>2026-04-12T07:50:26.998Z</time></trkpt><trkpt lat="42.0296276479924" lon="14.395007718672582"><ele>901.0000000000001</ele><time>2026-04-12T07:50:29.998Z</time></trkpt><trkpt lat="42.02968167243269" lon="14.394942808906428"><ele>901.0</ele><time>2026-04-12T07:50:32.998Z</time></trkpt><trkpt lat="42.02974266582232" lon="14.394886888386775"><ele>901.0</ele><time>2026-04-12T07:50:35.998Z</time></trkpt><trkpt lat="42.02980204171749" lon="14.39484659268272"><ele>901.0</ele><time>2026-04-12T07:50:38.998Z</time></trkpt><trkpt lat="42.029869032869904" lon="14.394820273021736"><ele>901.0000000000001</ele><time>2026-04-12T07:50:42Z</time></trkpt><trkpt lat="42.02993416446212" lon="14.394809301201795"><ele>901.0</ele><time>2026-04-12T07:50:45Z</time></trkpt><trkpt lat="42.029998375801945" lon="14.39480099384307"><ele>901.0</ele><time>2026-04-12T07:50:48Z</time></trkpt><trkpt lat="42.030067669099516" lon="14.394797904383918"><ele>901.0000000000001</ele><time>2026-04-12T07:50:51Z</time></trkpt><trkpt lat="42.03013516557004" lon="14.394804704117231"><ele>901.0</ele><time>2026-04-12T07:50:54Z</time></trkpt><trkpt lat="42.030204643659395" lon="14.394813781171163"><ele>901.0</ele><time>2026-04-12T07:50:57Z</time></trkpt><trkpt lat="42.030272227184675" lon="14.394833636041838"><ele>902.0</ele><time>2026-04-12T07:51:00Z</time></trkpt><trkpt lat="42.03034034686688" lon="14.394859984179044"><ele>903.0000000000001</ele><time>2026-04-12T07:51:03Z</time></trkpt><trkpt lat="42.03041025063731" lon="14.394886753608326"><ele>904.0</ele><time>2026-04-12T07:51:06Z</time></trkpt><trkpt lat="42.03047768923099" lon="14.394916595467189"><ele>905.0</ele><time>2026-04-12T07:51:09Z</time></trkpt><trkpt lat="42.03054760889767" lon="14.394947347167282"><ele>906.0000000000001</ele><time>2026-04-12T07:51:12Z</time></trkpt><trkpt lat="42.03062288719261" lon="14.39497407612427"><ele>907.0</ele><time>2026-04-12T07:51:15Z</time></trkpt><trkpt lat="42.03070318605007" lon="14.395003526933055"><ele>908.0</ele><time>2026-04-12T07:51:18Z</time></trkpt><trkpt lat="42.03077910013292" lon="14.395031669771688"><ele>908.1428571428572</ele><time>2026-04-12T07:51:21Z</time></trkpt><trkpt lat="42.030854577422154" lon="14.395055735543824"><ele>908.2857142857144</ele><time>2026-04-12T07:51:24Z</time></trkpt><trkpt lat="42.03092290411136" lon="14.395083609211346"><ele>908.4285714285714</ele><time>2026-04-12T07:51:27Z</time></trkpt><trkpt lat="42.03098475507085" lon="14.395100916774311"><ele>908.5714285714287</ele><time>2026-04-12T07:51:29.999Z</time></trkpt><trkpt lat="42.031063948717836" lon="14.395124246752475"><ele>908.7142857142858</ele><time>2026-04-12T07:51:33.999Z</time></trkpt><trkpt lat="42.03113565118623" lon="14.395156543015867"><ele>908.8571428571429</ele><time>2026-04-12T07:51:36.999Z</time></trkpt><trkpt lat="42.031197981667205" lon="14.395177450094792"><ele>909.0</ele><time>2026-04-12T07:51:39.999Z</time></trkpt><trkpt lat="42.031278485629315" lon="14.39519640799687"><ele>909.0</ele><time>2026-04-12T07:51:43.999Z</time></trkpt><trkpt lat="42.03134595849997" lon="14.395209182811897"><ele>909.0</ele><time>2026-04-12T07:51:46.999Z</time></trkpt><trkpt lat="42.031422638659656" lon="14.39518822718473"><ele>909.0</ele><time>2026-04-12T07:51:50.999Z</time></trkpt><trkpt lat="42.03147523791" lon="14.395124347087506"><ele>909.0</ele><time>2026-04-12T07:51:54.999Z</time></trkpt><trkpt lat="42.03152267323767" lon="14.39506122003073"><ele>909.0</ele><time>2026-04-12T07:51:57.999Z</time></trkpt><trkpt lat="42.03156506232034" lon="14.394995211933397"><ele>909.0</ele><time>2026-04-12T07:52:00.999Z</time></trkpt><trkpt lat="42.031604733303595" lon="14.394926145575372"><ele>909.0</ele><time>2026-04-12T07:52:03.999Z</time></trkpt><trkpt lat="42.031645375137394" lon="14.394857932780678"><ele>908.4285714285713</ele><time>2026-04-12T07:52:06.999Z</time></trkpt><trkpt lat="42.03168757859514" lon="14.394794589930116"><ele>907.8571428571429</ele><time>2026-04-12T07:52:09.999Z</time></trkpt><trkpt lat="42.03172899396823" lon="14.394725343092365"><ele>907.2857142857142</ele><time>2026-04-12T07:52:12.999Z</time></trkpt><trkpt lat="42.03177450974546" lon="14.394662691531368"><ele>906.7142857142857</ele><time>2026-04-12T07:52:15.999Z</time></trkpt><trkpt lat="42.03182183462785" lon="14.394600017150804"><ele>906.1428571428571</ele><time>2026-04-12T07:52:18.999Z</time></trkpt><trkpt lat="42.03187174498457" lon="14.394542127957411"><ele>905.5714285714286</ele><time>2026-04-12T07:52:21.999Z</time></trkpt><trkpt lat="42.031937095437264" lon="14.394478940867629"><ele>905.0</ele><time>2026-04-12T07:52:25.998Z</time></trkpt><trkpt lat="42.03201093251412" lon="14.394431756648691"><ele>905.0</ele><time>2026-04-12T07:52:29.998Z</time></trkpt><trkpt lat="42.03206703680223" lon="14.394391864659747"><ele>904.9999999999999</ele><time>2026-04-12T07:52:32.998Z</time></trkpt><trkpt lat="42.03214449825032" lon="14.394345852109408"><ele>905.0</ele><time>2026-04-12T07:52:36.998Z</time></trkpt><trkpt lat="42.03221916460417" lon="14.39430608403212"><ele>905.0</ele><time>2026-04-12T07:52:40.998Z</time></trkpt><trkpt lat="42.03227948446316" lon="14.394281464185019"><ele>904.9999999999999</ele><time>2026-04-12T07:52:43.998Z</time></trkpt><trkpt lat="42.032342529765444" lon="14.39428047302438"><ele>905.0</ele><time>2026-04-12T07:52:47Z</time></trkpt><trkpt lat="42.0324217886171" lon="14.394314033806909"><ele>905.0</ele><time>2026-04-12T07:52:51Z</time></trkpt><trkpt lat="42.03249195372058" lon="14.394374972826663"><ele>906.5000000000001</ele><time>2026-04-12T07:52:55Z</time></trkpt><trkpt lat="42.03256030848081" lon="14.394431484573742"><ele>908.0</ele><time>2026-04-12T07:52:59Z</time></trkpt><trkpt lat="42.032621342244276" lon="14.394496813563833"><ele>909.5</ele><time>2026-04-12T07:53:03Z</time></trkpt><trkpt lat="42.03268296866529" lon="14.394561630864215"><ele>911.0</ele><time>2026-04-12T07:53:07Z</time></trkpt><trkpt lat="42.03274622156591" lon="14.394627739314458"><ele>912.5000000000001</ele><time>2026-04-12T07:53:11Z</time></trkpt><trkpt lat="42.03280958686141" lon="14.394692112716449"><ele>914.0</ele><time>2026-04-12T07:53:15Z</time></trkpt><trkpt lat="42.032875614009676" lon="14.394726429166164"><ele>914.0000000000001</ele><time>2026-04-12T07:53:19Z</time></trkpt><trkpt lat="42.0329487762293" lon="14.394721427677721"><ele>914.0</ele><time>2026-04-12T07:53:23Z</time></trkpt><trkpt lat="42.03300770468493" lon="14.394683075757303"><ele>914.0000000000001</ele><time>2026-04-12T07:53:26Z</time></trkpt><trkpt lat="42.03306346012265" lon="14.394640600798466"><ele>914.0000000000001</ele><time>2026-04-12T07:53:30Z</time></trkpt><trkpt lat="42.033084835571984" lon="14.394549023609727"><ele>914.0</ele><time>2026-04-12T07:53:33.999Z</time></trkpt><trkpt lat="42.03311982279797" lon="14.394453286766318"><ele>914.0000000000001</ele><time>2026-04-12T07:53:37.999Z</time></trkpt><trkpt lat="42.03314025252657" lon="14.394351098122137"><ele>914.0000000000001</ele><time>2026-04-12T07:53:40.999Z</time></trkpt><trkpt lat="42.033161984614516" lon="14.394253063987527"><ele>914.0000000000001</ele><time>2026-04-12T07:53:43.999Z</time></trkpt><trkpt lat="42.03317916893499" lon="14.394156441089686"><ele>914.0</ele><time>2026-04-12T07:53:46.999Z</time></trkpt><trkpt lat="42.03320649568948" lon="14.39406717597561"><ele>914.0000000000001</ele><time>2026-04-12T07:53:49.999Z</time></trkpt><trkpt lat="42.03322404996898" lon="14.393971657398174"><ele>914.0000000000001</ele><time>2026-04-12T07:53:52.999Z</time></trkpt><trkpt lat="42.03324342046604" lon="14.393884063902647"><ele>914.0</ele><time>2026-04-12T07:53:55.999Z</time></trkpt><trkpt lat="42.03326228126451" lon="14.393798088372117"><ele>914.0000000000001</ele><time>2026-04-12T07:53:58.999Z</time></trkpt><trkpt lat="42.03329115050473" lon="14.393697375481949"><ele>914.0000000000001</ele><time>2026-04-12T07:54:02.999Z</time></trkpt><trkpt lat="42.03333508704385" lon="14.393610051401385"><ele>915.2857142857144</ele><time>2026-04-12T07:54:06.999Z</time></trkpt><trkpt lat="42.03339857181132" lon="14.393543141715817"><ele>916.5714285714287</ele><time>2026-04-12T07:54:10.999Z</time></trkpt><trkpt lat="42.03346241845587" lon="14.393492247444781"><ele>917.8571428571429</ele><time>2026-04-12T07:54:14.999Z</time></trkpt><trkpt lat="42.03353296110763" lon="14.393462488435487"><ele>919.1428571428572</ele><time>2026-04-12T07:54:18.999Z</time></trkpt><trkpt lat="42.03360266703182" lon="14.393426236071921"><ele>920.4285714285716</ele><time>2026-04-12T07:54:22.999Z</time></trkpt><trkpt lat="42.03367017757789" lon="14.39339488070502"><ele>921.7142857142857</ele><time>2026-04-12T07:54:26.998Z</time></trkpt><trkpt lat="42.03373739926317" lon="14.393366861091788"><ele>923.0</ele><time>2026-04-12T07:54:30.998Z</time></trkpt><trkpt lat="42.03380395887074" lon="14.393335296237314"><ele>923.0</ele><time>2026-04-12T07:54:34.998Z</time></trkpt><trkpt lat="42.0338697409784" lon="14.39330356368825"><ele>923.0</ele><time>2026-04-12T07:54:38.998Z</time></trkpt><trkpt lat="42.03393766176697" lon="14.393273437201904"><ele>923.0</ele><time>2026-04-12T07:54:42.998Z</time></trkpt><trkpt lat="42.0340053181887" lon="14.393243024497227"><ele>923.0</ele><time>2026-04-12T07:54:46.998Z</time></trkpt><trkpt lat="42.034065762513414" lon="14.393216380161173"><ele>923.0</ele><time>2026-04-12T07:54:50.998Z</time></trkpt><trkpt lat="42.03414369825102" lon="14.393199280837086"><ele>923.0</ele><time>2026-04-12T07:54:56Z</time></trkpt><trkpt lat="42.034211036174185" lon="14.393185264467359"><ele>923.0</ele><time>2026-04-12T07:55:01Z</time></trkpt><trkpt lat="42.0342863610757" lon="14.393173409133665"><ele>922.7142857142857</ele><time>2026-04-12T07:55:06Z</time></trkpt><trkpt lat="42.03436652323311" lon="14.393174688900222"><ele>922.4285714285716</ele><time>2026-04-12T07:55:11Z</time></trkpt><trkpt lat="42.03442993504356" lon="14.393170050452323"><ele>922.1428571428572</ele><time>2026-04-12T07:55:15Z</time></trkpt><trkpt lat="42.03449510043088" lon="14.393168679286534"><ele>921.8571428571429</ele><time>2026-04-12T07:55:19Z</time></trkpt><trkpt lat="42.03456168131668" lon="14.393158190307568"><ele>921.5714285714287</ele><time>2026-04-12T07:55:24Z</time></trkpt><trkpt lat="42.034616426925005" lon="14.393107201196836"><ele>921.2857142857144</ele><time>2026-04-12T07:58:19.999Z</time></trkpt><trkpt lat="42.034673512846915" lon="14.393052858066207"><ele>921.0000000000001</ele><time>2026-04-12T07:58:23.999Z</time></trkpt><trkpt lat="42.034727225490066" lon="14.392990032390255"><ele>921.0000000000001</ele><time>2026-04-12T07:58:27.999Z</time></trkpt><trkpt lat="42.03478584552998" lon="14.392909669982043"><ele>921.0</ele><time>2026-04-12T07:58:31.998Z</time></trkpt><trkpt lat="42.034829252796406" lon="14.3928456053282"><ele>921.0000000000001</ele><time>2026-04-12T07:58:34.998Z</time></trkpt><trkpt lat="42.034872964606976" lon="14.392778360778454"><ele>921.0000000000001</ele><time>2026-04-12T07:58:37.998Z</time></trkpt><trkpt lat="42.03491758366011" lon="14.392708597963331"><ele>921.0</ele><time>2026-04-12T07:58:40.998Z</time></trkpt><trkpt lat="42.03496642292625" lon="14.392618883291217"><ele>921.0000000000001</ele><time>2026-04-12T07:58:44.998Z</time></trkpt><trkpt lat="42.03501945039075" lon="14.392536805077173"><ele>921.0000000000001</ele><time>2026-04-12T07:58:48.998Z</time></trkpt><trkpt lat="42.03507444397965" lon="14.392464695927185"><ele>923.857142857143</ele><time>2026-04-12T07:58:52.998Z</time></trkpt><trkpt lat="42.0351342713538" lon="14.392406980375656"><ele>926.7142857142858</ele><time>2026-04-12T07:58:56.998Z</time></trkpt><trkpt lat="42.03519936113456" lon="14.392360367830596"><ele>929.5714285714286</ele><time>2026-04-12T07:59:00.998Z</time></trkpt><trkpt lat="42.03526615889499" lon="14.392313339538763"><ele>932.4285714285714</ele><time>2026-04-12T07:59:06Z</time></trkpt><trkpt lat="42.03532587263566" lon="14.392279242145866"><ele>935.2857142857142</ele><time>2026-04-12T07:59:10Z</time></trkpt><trkpt lat="42.035398277901145" lon="14.392260490202691"><ele>938.142857142857</ele><time>2026-04-12T07:59:14Z</time></trkpt><trkpt lat="42.03546548006053" lon="14.392249744138327"><ele>940.9999999999999</ele><time>2026-04-12T07:59:18Z</time></trkpt><trkpt lat="42.03553243328409" lon="14.392222474732737"><ele>941.0</ele><time>2026-04-12T07:59:22Z</time></trkpt><trkpt lat="42.03570211426292" lon="14.392176248042706"><ele>940.9999999999999</ele><time>2026-04-12T07:59:33Z</time></trkpt><trkpt lat="42.03576477382325" lon="14.392143773221267"><ele>940.9999999999999</ele><time>2026-04-12T07:59:37.999Z</time></trkpt><trkpt lat="42.03583180118275" lon="14.392088747354899"><ele>941.0</ele><time>2026-04-12T07:59:42.999Z</time></trkpt><trkpt lat="42.035889653921146" lon="14.392043160310479"><ele>941.0</ele><time>2026-04-12T07:59:47.999Z</time></trkpt><trkpt lat="42.03594641133054" lon="14.391980074973473"><ele>941.7142857142856</ele><time>2026-04-12T07:59:52.999Z</time></trkpt><trkpt lat="42.036011075566876" lon="14.391937656923613"><ele>942.4285714285713</ele><time>2026-04-12T07:59:57.999Z</time></trkpt><trkpt lat="42.03607672818954" lon="14.391913164821919"><ele>943.1428571428571</ele><time>2026-04-12T08:00:02.999Z</time></trkpt><trkpt lat="42.036137812780076" lon="14.391859474731792"><ele>943.8571428571428</ele><time>2026-04-12T08:00:07.999Z</time></trkpt><trkpt lat="42.036211345582515" lon="14.391821683146656"><ele>944.5714285714284</ele><time>2026-04-12T08:00:12.999Z</time></trkpt><trkpt lat="42.036269823133075" lon="14.391775708820427"><ele>945.2857142857143</ele><time>2026-04-12T08:00:17.999Z</time></trkpt><trkpt lat="42.03633661039768" lon="14.391756940262564"><ele>946.0</ele><time>2026-04-12T08:00:22.999Z</time></trkpt><trkpt lat="42.03639202494473" lon="14.391691247463234"><ele>946.0</ele><time>2026-04-12T08:00:27.999Z</time></trkpt><trkpt lat="42.03646454247965" lon="14.391655782397597"><ele>946.0</ele><time>2026-04-12T08:00:32.998Z</time></trkpt><trkpt lat="42.03651733310481" lon="14.391598241987147"><ele>946.0</ele><time>2026-04-12T08:00:37.998Z</time></trkpt><trkpt lat="42.03656606008359" lon="14.391543418921483"><ele>946.0</ele><time>2026-04-12T08:00:41.998Z</time></trkpt><trkpt lat="42.03662577706175" lon="14.391486258008102"><ele>946.0</ele><time>2026-04-12T08:00:46.998Z</time></trkpt><trkpt lat="42.03666902157317" lon="14.391415268416669"><ele>946.0</ele><time>2026-04-12T08:00:51.998Z</time></trkpt><trkpt lat="42.03672464605333" lon="14.391372668856"><ele>946.0</ele><time>2026-04-12T08:00:55.998Z</time></trkpt><trkpt lat="42.036773287917526" lon="14.391304357277397"><ele>947.7142857142858</ele><time>2026-04-12T08:01:00.998Z</time></trkpt><trkpt lat="42.03683206405417" lon="14.391245697181875"><ele>949.4285714285713</ele><time>2026-04-12T08:01:05.998Z</time></trkpt><trkpt lat="42.03691183225858" lon="14.391224796879964"><ele>951.1428571428571</ele><time>2026-04-12T08:01:11Z</time></trkpt><trkpt lat="42.0369699444598" lon="14.391172561148363"><ele>952.8571428571429</ele><time>2026-04-12T08:01:16Z</time></trkpt><trkpt lat="42.03703104105894" lon="14.39114690377947"><ele>954.5714285714287</ele><time>2026-04-12T08:01:20Z</time></trkpt><trkpt lat="42.037098059813445" lon="14.391123807246393"><ele>956.2857142857142</ele><time>2026-04-12T08:01:25Z</time></trkpt><trkpt lat="42.03716150360122" lon="14.39109305225654"><ele>958.0</ele><time>2026-04-12T08:01:30Z</time></trkpt><trkpt lat="42.03722306928581" lon="14.391072300222984"><ele>958.0</ele><time>2026-04-12T08:01:34Z</time></trkpt><trkpt lat="42.03728831946566" lon="14.391023833995625"><ele>958.0</ele><time>2026-04-12T08:01:39Z</time></trkpt><trkpt lat="42.037358814541136" lon="14.390998529898171"><ele>958.0</ele><time>2026-04-12T08:01:43.999Z</time></trkpt><trkpt lat="42.03742113899215" lon="14.390966423041808"><ele>958.0</ele><time>2026-04-12T08:01:47.999Z</time></trkpt><trkpt lat="42.03747960527914" lon="14.390933870111619"><ele>958.0</ele><time>2026-04-12T08:01:51.999Z</time></trkpt><trkpt lat="42.037546831583676" lon="14.390890956621353"><ele>958.0</ele><time>2026-04-12T08:01:56.999Z</time></trkpt><trkpt lat="42.037617923738914" lon="14.390850237528767"><ele>958.0</ele><time>2026-04-12T08:02:01.999Z</time></trkpt><trkpt lat="42.03768995205994" lon="14.3908253812634"><ele>960.6666666666666</ele><time>2026-04-12T08:02:06.999Z</time></trkpt><trkpt lat="42.037760052832716" lon="14.390783194249849"><ele>963.3333333333333</ele><time>2026-04-12T08:02:11.999Z</time></trkpt><trkpt lat="42.03782293648705" lon="14.390757859891401"><ele>966.0</ele><time>2026-04-12T08:02:15.999Z</time></trkpt><trkpt lat="42.037957821619536" lon="14.390720586169111"><ele>968.6666666666667</ele><time>2026-04-12T08:02:24.999Z</time></trkpt><trkpt lat="42.0380500144753" lon="14.390690459356378"><ele>971.3333333333334</ele><time>2026-04-12T08:02:30.999Z</time></trkpt><trkpt lat="42.03811432588288" lon="14.39068390270252"><ele>974.0</ele><time>2026-04-12T08:02:34.998Z</time></trkpt><trkpt lat="42.0381731452499" lon="14.390638074931289"><ele>974.0</ele><time>2026-04-12T08:02:38.998Z</time></trkpt><trkpt lat="42.038206850952534" lon="14.390565932757855"><ele>974.0</ele><time>2026-04-12T08:02:42.998Z</time></trkpt><trkpt lat="42.038214101748544" lon="14.390460112164781"><ele>974.0</ele><time>2026-04-12T08:02:47.998Z</time></trkpt><trkpt lat="42.03821030706844" lon="14.390366595185688"><ele>974.0</ele><time>2026-04-12T08:02:51.998Z</time></trkpt><trkpt lat="42.03821012067124" lon="14.390273534719881"><ele>974.0</ele><time>2026-04-12T08:02:55.998Z</time></trkpt><trkpt lat="42.038200823755965" lon="14.390182821261389"><ele>974.0</ele><time>2026-04-12T08:02:59.998Z</time></trkpt><trkpt lat="42.03819663413283" lon="14.390089231499285"><ele>974.0</ele><time>2026-04-12T08:03:03.998Z</time></trkpt><trkpt lat="42.03819182335363" lon="14.390001350534627"><ele>973.7142857142858</ele><time>2026-04-12T08:03:07.998Z</time></trkpt><trkpt lat="42.03819303009879" lon="14.389914912224333"><ele>973.4285714285713</ele><time>2026-04-12T08:03:11.998Z</time></trkpt><trkpt lat="42.038195828218804" lon="14.389811192218135"><ele>973.1428571428571</ele><time>2026-04-12T08:03:17Z</time></trkpt><trkpt lat="42.03821139175838" lon="14.389725674205769"><ele>972.8571428571429</ele><time>2026-04-12T08:03:21Z</time></trkpt><trkpt lat="42.0382208051958" lon="14.389636145693808"><ele>972.5714285714287</ele><time>2026-04-12T08:03:25Z</time></trkpt><trkpt lat="42.03824272717634" lon="14.389553052191859"><ele>972.2857142857142</ele><time>2026-04-12T08:03:29Z</time></trkpt><trkpt lat="42.038254824679974" lon="14.389465081952054"><ele>972.0</ele><time>2026-04-12T08:03:33Z</time></trkpt><trkpt lat="42.038278514213765" lon="14.389366055714735"><ele>972.0</ele><time>2026-04-12T08:03:38Z</time></trkpt><trkpt lat="42.038290332559846" lon="14.38927774473024"><ele>972.0</ele><time>2026-04-12T08:03:42Z</time></trkpt><trkpt lat="42.03830696534784" lon="14.389194689578575"><ele>972.0</ele><time>2026-04-12T08:03:46Z</time></trkpt><trkpt lat="42.03833162247731" lon="14.389115426924059"><ele>972.0</ele><time>2026-04-12T08:03:49.999Z</time></trkpt><trkpt lat="42.03834010697612" lon="14.389023262907589"><ele>972.0</ele><time>2026-04-12T08:03:53.999Z</time></trkpt><trkpt lat="42.0383602566349" lon="14.388937140514324"><ele>972.0</ele><time>2026-04-12T08:03:57.999Z</time></trkpt><trkpt lat="42.03837509182784" lon="14.38885261328244"><ele>972.0</ele><time>2026-04-12T08:04:01.999Z</time></trkpt><trkpt lat="42.038395274002454" lon="14.388754977295282"><ele>974.5714285714286</ele><time>2026-04-12T08:04:06.999Z</time></trkpt><trkpt lat="42.038406816704864" lon="14.388667225925245"><ele>977.1428571428571</ele><time>2026-04-12T08:04:10.999Z</time></trkpt><trkpt lat="42.03842990063683" lon="14.388584888458352"><ele>979.7142857142857</ele><time>2026-04-12T08:04:14.999Z</time></trkpt><trkpt lat="42.03844944950491" lon="14.388498045274357"><ele>982.2857142857142</ele><time>2026-04-12T08:04:18.999Z</time></trkpt><trkpt lat="42.03847437178406" lon="14.388402426087893"><ele>984.8571428571429</ele><time>2026-04-12T08:04:23.999Z</time></trkpt><trkpt lat="42.038506390975066" lon="14.388304647712609"><ele>987.4285714285713</ele><time>2026-04-12T08:04:28.999Z</time></trkpt><trkpt lat="42.038534547995795" lon="14.388225779397288"><ele>989.9999999999999</ele><time>2026-04-12T08:04:32.999Z</time></trkpt><trkpt lat="42.03856570571254" lon="14.388145340899829"><ele>990.0</ele><time>2026-04-12T08:04:36.999Z</time></trkpt><trkpt lat="42.038599791346186" lon="14.38804869636881"><ele>990.0</ele><time>2026-04-12T08:04:41.999Z</time></trkpt><trkpt lat="42.038635559155466" lon="14.387953840326057"><ele>990.0</ele><time>2026-04-12T08:04:46.998Z</time></trkpt><trkpt lat="42.03867696236491" lon="14.387864651842255"><ele>990.0</ele><time>2026-04-12T08:04:51.998Z</time></trkpt><trkpt lat="42.038715907543974" lon="14.387775090345887"><ele>990.0</ele><time>2026-04-12T08:04:56.998Z</time></trkpt><trkpt lat="42.03876021106403" lon="14.387690332421817"><ele>990.0</ele><time>2026-04-12T08:05:01.998Z</time></trkpt><trkpt lat="42.038802620585564" lon="14.387601388204034"><ele>989.2857142857142</ele><time>2026-04-12T08:05:06.998Z</time></trkpt><trkpt lat="42.0388533434496" lon="14.387523053788911"><ele>988.5714285714286</ele><time>2026-04-12T08:05:11.998Z</time></trkpt><trkpt lat="42.038923646907605" lon="14.387490101710778"><ele>987.8571428571429</ele><time>2026-04-12T08:05:16.998Z</time></trkpt><trkpt lat="42.038983096868215" lon="14.387518387028436"><ele>987.1428571428571</ele><time>2026-04-12T08:05:20.998Z</time></trkpt><trkpt lat="42.039022358379576" lon="14.387591937441858"><ele>986.4285714285716</ele><time>2026-04-12T08:05:25Z</time></trkpt><trkpt lat="42.03901822005173" lon="14.387704835269556"><ele>985.7142857142858</ele><time>2026-04-12T08:05:30Z</time></trkpt><trkpt lat="42.03900469063138" lon="14.387787717555984"><ele>985.0</ele><time>2026-04-12T08:05:34Z</time></trkpt><trkpt lat="42.038986019718855" lon="14.387872220841407"><ele>984.9999999999999</ele><time>2026-04-12T08:05:38Z</time></trkpt><trkpt lat="42.03897984351302" lon="14.387961457375795"><ele>985.0</ele><time>2026-04-12T08:05:42Z</time></trkpt><trkpt lat="42.038976597012535" lon="14.38806499381431"><ele>985.0</ele><time>2026-04-12T08:05:46.999Z</time></trkpt><trkpt lat="42.038990387436364" lon="14.388174027346306"><ele>985.0</ele><time>2026-04-12T08:05:51.999Z</time></trkpt><trkpt lat="42.039004782912976" lon="14.388277015440424"><ele>984.9999999999999</ele><time>2026-04-12T08:05:56.999Z</time></trkpt><trkpt lat="42.03903655466871" lon="14.388369559042768"><ele>985.0</ele><time>2026-04-12T08:06:01.999Z</time></trkpt><trkpt lat="42.039101269695735" lon="14.388419684906552"><ele>985.8333333333333</ele><time>2026-04-12T08:06:06.999Z</time></trkpt><trkpt lat="42.039167886550885" lon="14.38842209321861"><ele>986.6666666666666</ele><time>2026-04-12T08:06:11.999Z</time></trkpt><trkpt lat="42.03918657646592" lon="14.388325452538325"><ele>987.5</ele><time>2026-04-12T08:12:49.998Z</time></trkpt><trkpt lat="42.03909687120375" lon="14.38832508466689"><ele>988.3333333333333</ele><time>2026-04-12T08:13:12.998Z</time></trkpt><trkpt lat="42.03903464567102" lon="14.38825185611803"><ele>989.1666666666666</ele><time>2026-04-12T08:13:14.998Z</time></trkpt><trkpt lat="42.03900936056689" lon="14.388138850945602"><ele>990.0</ele><time>2026-04-12T08:13:16.999Z</time></trkpt><trkpt lat="42.03900125945396" lon="14.388024872083129"><ele>989.1666666666666</ele><time>2026-04-12T08:13:18.999Z</time></trkpt><trkpt lat="42.039000210445536" lon="14.387923122470982"><ele>988.3333333333333</ele><time>2026-04-12T08:13:20.999Z</time></trkpt><trkpt lat="42.03901535836598" lon="14.387796736614147"><ele>987.5</ele><time>2026-04-12T08:13:22.999Z</time></trkpt><trkpt lat="42.03903166772567" lon="14.387688259376977"><ele>986.6666666666666</ele><time>2026-04-12T08:13:24.999Z</time></trkpt><trkpt lat="42.03902246387432" lon="14.38758796314163"><ele>985.8333333333333</ele><time>2026-04-12T08:13:26.999Z</time></trkpt><trkpt lat="42.03897180939087" lon="14.387513822257695"><ele>985.0</ele><time>2026-04-12T08:13:28.999Z</time></trkpt><trkpt lat="42.03889187076521" lon="14.387509152380842"><ele>985.0</ele><time>2026-04-12T08:13:30.999Z</time></trkpt><trkpt lat="42.038815885988186" lon="14.387576274754233"><ele>985.0</ele><time>2026-04-12T08:13:32.999Z</time></trkpt><trkpt lat="42.03876549670753" lon="14.387682759004685"><ele>985.0</ele><time>2026-04-12T08:13:34.998Z</time></trkpt><trkpt lat="42.03871396857055" lon="14.387796362732754"><ele>985.0</ele><time>2026-04-12T08:13:36.998Z</time></trkpt><trkpt lat="42.038660726244814" lon="14.387915955791497"><ele>985.0</ele><time>2026-04-12T08:13:38.998Z</time></trkpt><trkpt lat="42.03861040967534" lon="14.388049132026753"><ele>985.8333333333333</ele><time>2026-04-12T08:13:40.998Z</time></trkpt><trkpt lat="42.03855645158503" lon="14.38820593074139"><ele>986.6666666666666</ele><time>2026-04-12T08:13:42.998Z</time></trkpt><trkpt lat="42.03852769090692" lon="14.38828668035214"><ele>987.5</ele><time>2026-04-12T08:13:44Z</time></trkpt><trkpt lat="42.03850175970737" lon="14.388369926074803"><ele>988.3333333333333</ele><time>2026-04-12T08:13:45Z</time></trkpt><trkpt lat="42.03847705532275" lon="14.388452833198299"><ele>989.1666666666666</ele><time>2026-04-12T08:13:46Z</time></trkpt><trkpt lat="42.03845476490633" lon="14.388535858616388"><ele>990.0</ele><time>2026-04-12T08:13:47Z</time></trkpt><trkpt lat="42.038435874857534" lon="14.3886272359431"><ele>989.9999999999999</ele><time>2026-04-12T08:13:48Z</time></trkpt><trkpt lat="42.038418701319024" lon="14.388718163960236"><ele>990.0</ele><time>2026-04-12T08:13:49Z</time></trkpt><trkpt lat="42.03840194242555" lon="14.388803677696519"><ele>989.9999999999999</ele><time>2026-04-12T08:13:50Z</time></trkpt><trkpt lat="42.0383869198357" lon="14.388888470262971"><ele>989.9999999999999</ele><time>2026-04-12T08:13:51Z</time></trkpt><trkpt lat="42.03837128026674" lon="14.388972190148726"><ele>990.0</ele><time>2026-04-12T08:13:52Z</time></trkpt><trkpt lat="42.03835666639335" lon="14.389058856072165"><ele>989.9999999999999</ele><time>2026-04-12T08:13:53Z</time></trkpt><trkpt lat="42.038329187818206" lon="14.389214358343356"><ele>989.9999999999999</ele><time>2026-04-12T08:13:55Z</time></trkpt><trkpt lat="42.03830648731344" lon="14.38934378818161"><ele>987.0</ele><time>2026-04-12T08:13:57Z</time></trkpt><trkpt lat="42.03828351510987" lon="14.38945818232805"><ele>984.0</ele><time>2026-04-12T08:13:59Z</time></trkpt><trkpt lat="42.03826000353587" lon="14.389585300696483"><ele>981.0</ele><time>2026-04-12T08:14:01Z</time></trkpt><trkpt lat="42.03824221470177" lon="14.389692334319358"><ele>978.0</ele><time>2026-04-12T08:14:03Z</time></trkpt><trkpt lat="42.03821001398407" lon="14.389784721485409"><ele>975.0</ele><time>2026-04-12T08:14:06Z</time></trkpt><trkpt lat="42.03811532590447" lon="14.38979559265726"><ele>972.0</ele><time>2026-04-12T08:14:09Z</time></trkpt><trkpt lat="42.0380176932409" lon="14.389788857412805"><ele>972.0</ele><time>2026-04-12T08:14:11Z</time></trkpt><trkpt lat="42.03791970173646" lon="14.38973902015967"><ele>972.0</ele><time>2026-04-12T08:14:13Z</time></trkpt><trkpt lat="42.03783552795203" lon="14.389649342784514"><ele>972.0</ele><time>2026-04-12T08:14:15Z</time></trkpt><trkpt lat="42.03776568114037" lon="14.38956910430573"><ele>972.0</ele><time>2026-04-12T08:14:17Z</time></trkpt><trkpt lat="42.03770183579372" lon="14.38949672713344"><ele>972.0</ele><time>2026-04-12T08:14:19Z</time></trkpt><trkpt lat="42.03766012748024" lon="14.389388502218393"><ele>972.0</ele><time>2026-04-12T08:14:21Z</time></trkpt><trkpt lat="42.037649307183266" lon="14.389219443004093"><ele>972.0</ele><time>2026-04-12T08:14:23Z</time></trkpt><trkpt lat="42.03762414024065" lon="14.389133175073182"><ele>972.0</ele><time>2026-04-12T08:14:24Z</time></trkpt><trkpt lat="42.03762728594102" lon="14.389046815011655"><ele>972.0</ele><time>2026-04-12T08:14:25Z</time></trkpt><trkpt lat="42.03763369497566" lon="14.388960221977964"><ele>972.0</ele><time>2026-04-12T08:14:26Z</time></trkpt><trkpt lat="42.037642339817424" lon="14.388875589117589"><ele>972.0</ele><time>2026-04-12T08:14:27Z</time></trkpt><trkpt lat="42.03765952551086" lon="14.388788485145312"><ele>970.8333333333334</ele><time>2026-04-12T08:14:28Z</time></trkpt><trkpt lat="42.037686856607756" lon="14.38870299168417"><ele>969.6666666666667</ele><time>2026-04-12T08:14:29Z</time></trkpt><trkpt lat="42.03768392983548" lon="14.388610696311682"><ele>968.5</ele><time>2026-04-12T08:14:30Z</time></trkpt><trkpt lat="42.037647028255634" lon="14.38852795779129"><ele>967.3333333333334</ele><time>2026-04-12T08:14:31Z</time></trkpt><trkpt lat="42.03763525401291" lon="14.388443633131246"><ele>966.1666666666667</ele><time>2026-04-12T08:14:32Z</time></trkpt><trkpt lat="42.03761342353747" lon="14.388287287325129"><ele>965.0</ele><time>2026-04-12T08:14:34Z</time></trkpt><trkpt lat="42.03759367866012" lon="14.388123870753198"><ele>964.0</ele><time>2026-04-12T08:14:36Z</time></trkpt><trkpt lat="42.0375767755326" lon="14.38796903699376"><ele>963.0</ele><time>2026-04-12T08:14:38Z</time></trkpt><trkpt lat="42.03755652876646" lon="14.387829361704753"><ele>962.0</ele><time>2026-04-12T08:14:40Z</time></trkpt><trkpt lat="42.03753590367543" lon="14.387689833780916"><ele>961.0</ele><time>2026-04-12T08:14:42Z</time></trkpt><trkpt lat="42.03752906061658" lon="14.387546098178989"><ele>960.0</ele><time>2026-04-12T08:14:44Z</time></trkpt><trkpt lat="42.03751081465264" lon="14.387386538470045"><ele>960.0</ele><time>2026-04-12T08:14:46Z</time></trkpt><trkpt lat="42.03749745401191" lon="14.387223114926392"><ele>960.0</ele><time>2026-04-12T08:14:47.999Z</time></trkpt><trkpt lat="42.03747252689872" lon="14.387143479896116"><ele>960.0</ele><time>2026-04-12T08:14:48.999Z</time></trkpt><trkpt lat="42.03746325797985" lon="14.38705536924004"><ele>960.0</ele><time>2026-04-12T08:14:49.999Z</time></trkpt><trkpt lat="42.037453082260164" lon="14.3869586385887"><ele>960.0</ele><time>2026-04-12T08:14:50.999Z</time></trkpt><trkpt lat="42.03744238343843" lon="14.386861242819569"><ele>960.0</ele><time>2026-04-12T08:14:51.999Z</time></trkpt><trkpt lat="42.037450257662286" lon="14.386752995957254"><ele>956.2857142857143</ele><time>2026-04-12T08:14:52.999Z</time></trkpt><trkpt lat="42.037438023597616" lon="14.386651699843387"><ele>952.5714285714284</ele><time>2026-04-12T08:14:53.999Z</time></trkpt><trkpt lat="42.03742481850293" lon="14.386549992494759"><ele>948.8571428571428</ele><time>2026-04-12T08:14:54.999Z</time></trkpt><trkpt lat="42.03741239135906" lon="14.386449896348777"><ele>945.1428571428571</ele><time>2026-04-12T08:14:55.999Z</time></trkpt><trkpt lat="42.03739914749215" lon="14.386356692522474"><ele>941.4285714285713</ele><time>2026-04-12T08:14:56.999Z</time></trkpt><trkpt lat="42.037386088709084" lon="14.386258759744802"><ele>937.7142857142856</ele><time>2026-04-12T08:14:57.999Z</time></trkpt><trkpt lat="42.03737066787046" lon="14.38616481664531"><ele>933.9999999999999</ele><time>2026-04-12T08:14:58.999Z</time></trkpt><trkpt lat="42.03735542426104" lon="14.38607035727477"><ele>933.7142857142856</ele><time>2026-04-12T08:14:59.999Z</time></trkpt><trkpt lat="42.03733965272323" lon="14.385978869198343"><ele>933.4285714285713</ele><time>2026-04-12T08:15:00.999Z</time></trkpt><trkpt lat="42.03731785850622" lon="14.385896518655064"><ele>933.1428571428571</ele><time>2026-04-12T08:15:01.999Z</time></trkpt><trkpt lat="42.03728042789623" lon="14.385819239192683"><ele>932.8571428571428</ele><time>2026-04-12T08:15:02.999Z</time></trkpt><trkpt lat="42.03723224210295" lon="14.385754447471847"><ele>932.5714285714284</ele><time>2026-04-12T08:15:03.999Z</time></trkpt><trkpt lat="42.03717314371741" lon="14.385700561042862"><ele>932.2857142857143</ele><time>2026-04-12T08:15:04.999Z</time></trkpt><trkpt lat="42.03711366285855" lon="14.385649620692584"><ele>932.0</ele><time>2026-04-12T08:15:05.999Z</time></trkpt><trkpt lat="42.03705580154395" lon="14.385598756137908"><ele>932.0</ele><time>2026-04-12T08:15:06.999Z</time></trkpt><trkpt lat="42.03699939655238" lon="14.385554601465035"><ele>932.0</ele><time>2026-04-12T08:15:07.999Z</time></trkpt><trkpt lat="42.03689618330992" lon="14.385467439562186"><ele>932.0</ele><time>2026-04-12T08:15:09.999Z</time></trkpt><trkpt lat="42.036801238074375" lon="14.38537292165907"><ele>932.0</ele><time>2026-04-12T08:15:11.999Z</time></trkpt><trkpt lat="42.03672330476887" lon="14.385266650860705"><ele>932.0</ele><time>2026-04-12T08:15:13.999Z</time></trkpt><trkpt lat="42.0366473968001" lon="14.385174695005178"><ele>928.3333333333334</ele><time>2026-04-12T08:15:15.999Z</time></trkpt><trkpt lat="42.03653605326792" lon="14.385114101201546"><ele>924.6666666666667</ele><time>2026-04-12T08:15:17.999Z</time></trkpt><trkpt lat="42.03647059000571" lon="14.385126754087938"><ele>921.0</ele><time>2026-04-12T08:15:18.999Z</time></trkpt><trkpt lat="42.03640483952499" lon="14.38513840757572"><ele>917.3333333333333</ele><time>2026-04-12T08:15:19.999Z</time></trkpt><trkpt lat="42.03633491544255" lon="14.3851537117224"><ele>913.6666666666666</ele><time>2026-04-12T08:15:20.999Z</time></trkpt><trkpt lat="42.03625603122358" lon="14.385174526636193"><ele>910.0</ele><time>2026-04-12T08:15:21.999Z</time></trkpt><trkpt lat="42.03618056850854" lon="14.3851979958261"><ele>909.9999999999999</ele><time>2026-04-12T08:15:22.999Z</time></trkpt><trkpt lat="42.03610645002718" lon="14.385222787524775"><ele>910.0</ele><time>2026-04-12T08:15:23.999Z</time></trkpt><trkpt lat="42.03602815143646" lon="14.385248395557191"><ele>910.0</ele><time>2026-04-12T08:15:24.999Z</time></trkpt><trkpt lat="42.035944571707375" lon="14.38527223109446"><ele>910.0</ele><time>2026-04-12T08:15:25.999Z</time></trkpt><trkpt lat="42.03585718710369" lon="14.385296744751042"><ele>909.9999999999999</ele><time>2026-04-12T08:15:26.999Z</time></trkpt><trkpt lat="42.03577582963771" lon="14.385325793588398"><ele>910.0</ele><time>2026-04-12T08:15:27.999Z</time></trkpt><trkpt lat="42.0356881889413" lon="14.385361153351905"><ele>909.4</ele><time>2026-04-12T08:15:28.999Z</time></trkpt><trkpt lat="42.035595310842716" lon="14.385398631320774"><ele>908.8</ele><time>2026-04-12T08:15:29.999Z</time></trkpt><trkpt lat="42.035499446582975" lon="14.385436937191006"><ele>908.2</ele><time>2026-04-12T08:15:30.999Z</time></trkpt><trkpt lat="42.03540360481318" lon="14.385474178365923"><ele>907.6</ele><time>2026-04-12T08:15:31.999Z</time></trkpt><trkpt lat="42.03530876310958" lon="14.385510800404191"><ele>907.0</ele><time>2026-04-12T08:15:32.999Z</time></trkpt><trkpt lat="42.03521880011023" lon="14.385545538588623"><ele>906.9999999999999</ele><time>2026-04-12T08:15:33.999Z</time></trkpt><trkpt lat="42.035133833049905" lon="14.385578347655313"><ele>907.0</ele><time>2026-04-12T08:15:34.999Z</time></trkpt><trkpt lat="42.03505078735918" lon="14.385610414788049"><ele>907.0</ele><time>2026-04-12T08:15:35.999Z</time></trkpt><trkpt lat="42.034972103880996" lon="14.385632559897209"><ele>907.0</ele><time>2026-04-12T08:15:36.999Z</time></trkpt><trkpt lat="42.03488075158603" lon="14.385647238424271"><ele>906.9999999999999</ele><time>2026-04-12T08:15:37.999Z</time></trkpt><trkpt lat="42.03479455196315" lon="14.385683038276667"><ele>907.0</ele><time>2026-04-12T08:15:38.999Z</time></trkpt><trkpt lat="42.03471590014087" lon="14.385717627046395"><ele>904.1666666666666</ele><time>2026-04-12T08:15:39.999Z</time></trkpt><trkpt lat="42.03463725903666" lon="14.38574377911449"><ele>901.3333333333333</ele><time>2026-04-12T08:15:40.999Z</time></trkpt><trkpt lat="42.03455713937223" lon="14.385771310081585"><ele>898.5</ele><time>2026-04-12T08:15:41.999Z</time></trkpt><trkpt lat="42.034479456161705" lon="14.385799197990334"><ele>895.6666666666667</ele><time>2026-04-12T08:15:42.999Z</time></trkpt><trkpt lat="42.03439388115132" lon="14.38584437336694"><ele>892.8333333333334</ele><time>2026-04-12T08:15:43.999Z</time></trkpt><trkpt lat="42.03430941921919" lon="14.385912355182086"><ele>890.0</ele><time>2026-04-12T08:15:44.999Z</time></trkpt><trkpt lat="42.034230110775674" lon="14.385980893332466"><ele>890.0</ele><time>2026-04-12T08:15:45.999Z</time></trkpt><trkpt lat="42.03414930605387" lon="14.386050724573645"><ele>890.0</ele><time>2026-04-12T08:15:46.999Z</time></trkpt><trkpt lat="42.03406956614005" lon="14.386130297704925"><ele>890.0</ele><time>2026-04-12T08:15:47.999Z</time></trkpt><trkpt lat="42.03399625971468" lon="14.386210844800146"><ele>890.0</ele><time>2026-04-12T08:15:48.999Z</time></trkpt><trkpt lat="42.03392848595922" lon="14.386288146335591"><ele>890.0</ele><time>2026-04-12T08:15:50Z</time></trkpt><trkpt lat="42.03385924006075" lon="14.386369112771389"><ele>888.4</ele><time>2026-04-12T08:15:51Z</time></trkpt><trkpt lat="42.033789971664255" lon="14.38645115400516"><ele>886.8</ele><time>2026-04-12T08:15:52Z</time></trkpt><trkpt lat="42.03371657399607" lon="14.386538086739273"><ele>885.2</ele><time>2026-04-12T08:15:53Z</time></trkpt><trkpt lat="42.033641544564176" lon="14.386626951458767"><ele>883.6</ele><time>2026-04-12T08:15:54Z</time></trkpt><trkpt lat="42.0335683050805" lon="14.386713696104865"><ele>882.0</ele><time>2026-04-12T08:15:55Z</time></trkpt><trkpt lat="42.03349597093262" lon="14.386799368822684"><ele>882.0</ele><time>2026-04-12T08:15:56Z</time></trkpt><trkpt lat="42.033427627801565" lon="14.386880314454926"><ele>882.0</ele><time>2026-04-12T08:15:57Z</time></trkpt><trkpt lat="42.033357779091524" lon="14.386963044534214"><ele>882.0</ele><time>2026-04-12T08:15:58Z</time></trkpt><trkpt lat="42.03328788150882" lon="14.387045831217414"><ele>882.0</ele><time>2026-04-12T08:15:59Z</time></trkpt><trkpt lat="42.033221933597154" lon="14.387123939981654"><ele>882.0</ele><time>2026-04-12T08:16:00Z</time></trkpt><trkpt lat="42.03315674815867" lon="14.387201915187886"><ele>880.5</ele><time>2026-04-12T08:16:01Z</time></trkpt><trkpt lat="42.033095285304704" lon="14.387277649663568"><ele>879.0</ele><time>2026-04-12T08:16:02Z</time></trkpt><trkpt lat="42.03303891460195" lon="14.387351881889561"><ele>877.5</ele><time>2026-04-12T08:16:03Z</time></trkpt><trkpt lat="42.032989068724824" lon="14.38741897547467"><ele>876.0</ele><time>2026-04-12T08:16:04Z</time></trkpt><trkpt lat="42.032944123781085" lon="14.387479979742068"><ele>874.5</ele><time>2026-04-12T08:16:05Z</time></trkpt><trkpt lat="42.03287189726839" lon="14.387564023846576"><ele>873.0</ele><time>2026-04-12T08:16:07Z</time></trkpt><trkpt lat="42.032805266246065" lon="14.387602831405589"><ele>873.0</ele><time>2026-04-12T08:16:09Z</time></trkpt><trkpt lat="42.032750451317604" lon="14.387513018986239"><ele>873.0</ele><time>2026-04-12T08:16:11Z</time></trkpt><trkpt lat="42.0327468450787" lon="14.387403903893292"><ele>873.0</ele><time>2026-04-12T08:16:13Z</time></trkpt><trkpt lat="42.032780921536535" lon="14.38728323250923"><ele>873.0</ele><time>2026-04-12T08:16:15Z</time></trkpt><trkpt lat="42.03282218669858" lon="14.38717499556146"><ele>873.0</ele><time>2026-04-12T08:16:17Z</time></trkpt><trkpt lat="42.03287205988888" lon="14.38707449111712"><ele>873.0</ele><time>2026-04-12T08:16:19Z</time></trkpt><trkpt lat="42.032923689695174" lon="14.386968816938973"><ele>869.5999999999999</ele><time>2026-04-12T08:16:21Z</time></trkpt><trkpt lat="42.03297692062923" lon="14.38685211056925"><ele>866.1999999999999</ele><time>2026-04-12T08:16:23Z</time></trkpt><trkpt lat="42.033027100756094" lon="14.38671880048426"><ele>862.8</ele><time>2026-04-12T08:16:25Z</time></trkpt><trkpt lat="42.03309925596403" lon="14.38660345472462"><ele>859.4</ele><time>2026-04-12T08:16:27Z</time></trkpt><trkpt lat="42.033151829454496" lon="14.386477096271808"><ele>856.0</ele><time>2026-04-12T08:16:29Z</time></trkpt><trkpt lat="42.03320345322674" lon="14.386351576125042"><ele>858.0</ele><time>2026-04-12T08:16:31Z</time></trkpt><trkpt lat="42.033255229365714" lon="14.38622939649843"><ele>860.0</ele><time>2026-04-12T08:16:33Z</time></trkpt><trkpt lat="42.03331139832832" lon="14.386095299859155"><ele>862.0</ele><time>2026-04-12T08:16:35Z</time></trkpt><trkpt lat="42.033358097775356" lon="14.38594493231185"><ele>864.0</ele><time>2026-04-12T08:16:37Z</time></trkpt><trkpt lat="42.03343329640837" lon="14.385811718283387"><ele>864.0</ele><time>2026-04-12T08:16:39Z</time></trkpt><trkpt lat="42.03347862402137" lon="14.385749618852364"><ele>864.0000000000001</ele><time>2026-04-12T08:16:40Z</time></trkpt><trkpt lat="42.03357486773953" lon="14.38565151464815"><ele>864.0000000000001</ele><time>2026-04-12T08:16:42Z</time></trkpt><trkpt lat="42.03362231236428" lon="14.38559556768317"><ele>864.0</ele><time>2026-04-12T08:16:43Z</time></trkpt><trkpt lat="42.033712507574926" lon="14.385488087109968"><ele>864.0</ele><time>2026-04-12T08:16:45Z</time></trkpt><trkpt lat="42.033800793002584" lon="14.385390803330296"><ele>860.5</ele><time>2026-04-12T08:16:47Z</time></trkpt><trkpt lat="42.03386554546191" lon="14.385308308667964"><ele>857.0</ele><time>2026-04-12T08:16:49Z</time></trkpt><trkpt lat="42.03386501309162" lon="14.385201405079753"><ele>853.5</ele><time>2026-04-12T08:16:52Z</time></trkpt><trkpt lat="42.03377301234531" lon="14.3851599798712"><ele>850.0</ele><time>2026-04-12T08:16:54Z</time></trkpt><trkpt lat="42.03370875414005" lon="14.385192279337833"><ele>846.5</ele><time>2026-04-12T08:16:55Z</time></trkpt><trkpt lat="42.03361990155117" lon="14.385282729110028"><ele>843.0</ele><time>2026-04-12T08:16:57Z</time></trkpt><trkpt lat="42.03354507016547" lon="14.385361952391293"><ele>843.0</ele><time>2026-04-12T08:16:59Z</time></trkpt><trkpt lat="42.033485462959334" lon="14.38542735988577"><ele>843.0</ele><time>2026-04-12T08:17:01Z</time></trkpt><trkpt lat="42.03340605994449" lon="14.385490374146537"><ele>843.0</ele><time>2026-04-12T08:17:04Z</time></trkpt><trkpt lat="42.03341446076551" lon="14.385357883852258"><ele>843.0</ele><time>2026-04-12T08:17:06.999Z</time></trkpt><trkpt lat="42.03348815500863" lon="14.385280467502193"><ele>843.0</ele><time>2026-04-12T08:17:08.999Z</time></trkpt><trkpt lat="42.033560010657986" lon="14.385179674446462"><ele>843.0</ele><time>2026-04-12T08:17:10.999Z</time></trkpt><trkpt lat="42.033634628819" lon="14.385057563971213"><ele>843.0</ele><time>2026-04-12T08:17:12.999Z</time></trkpt><trkpt lat="42.03369225449005" lon="14.384957783263097"><ele>843.0</ele><time>2026-04-12T08:17:14.999Z</time></trkpt><trkpt lat="42.03376169704404" lon="14.38485663972178"><ele>843.0</ele><time>2026-04-12T08:17:16.999Z</time></trkpt><trkpt lat="42.033831569802615" lon="14.384755510425174"><ele>843.0</ele><time>2026-04-12T08:17:18.999Z</time></trkpt><trkpt lat="42.03389859018778" lon="14.384673178906345"><ele>838.5999999999999</ele><time>2026-04-12T08:17:20.999Z</time></trkpt><trkpt lat="42.03396122940485" lon="14.384596282538288"><ele>834.1999999999999</ele><time>2026-04-12T08:17:22.999Z</time></trkpt><trkpt lat="42.03400398753642" lon="14.384500900467033"><ele>829.8</ele><time>2026-04-12T08:17:24.999Z</time></trkpt><trkpt lat="42.033963331080265" lon="14.384424029367223"><ele>825.4</ele><time>2026-04-12T08:17:26.999Z</time></trkpt><trkpt lat="42.0338250881075" lon="14.384405524296053"><ele>821.0</ele><time>2026-04-12T08:17:29.999Z</time></trkpt><trkpt lat="42.03374247822003" lon="14.384481588608454"><ele>821.0000000000001</ele><time>2026-04-12T08:17:31.999Z</time></trkpt><trkpt lat="42.033680505552695" lon="14.384563356789297"><ele>821.0</ele><time>2026-04-12T08:17:33.999Z</time></trkpt><trkpt lat="42.03361189102469" lon="14.38465372438636"><ele>821.0</ele><time>2026-04-12T08:17:35.999Z</time></trkpt><trkpt lat="42.033550590991034" lon="14.384728609435934"><ele>821.0</ele><time>2026-04-12T08:17:37.999Z</time></trkpt><trkpt lat="42.03348167967132" lon="14.384805805698607"><ele>821.0000000000001</ele><time>2026-04-12T08:17:39.999Z</time></trkpt><trkpt lat="42.03341362004599" lon="14.384875464147498"><ele>821.0</ele><time>2026-04-12T08:17:41.999Z</time></trkpt><trkpt lat="42.03335538404203" lon="14.384951489715764"><ele>821.0</ele><time>2026-04-12T08:17:43.999Z</time></trkpt><trkpt lat="42.03329076302896" lon="14.38486665167355"><ele>821.0</ele><time>2026-04-12T08:17:45.999Z</time></trkpt><trkpt lat="42.03328515163595" lon="14.384776708915007"><ele>821.0</ele><time>2026-04-12T08:17:47.999Z</time></trkpt><trkpt lat="42.03336631775934" lon="14.384658438446866"><ele>821.0</ele><time>2026-04-12T08:17:49.999Z</time></trkpt><trkpt lat="42.03345542102269" lon="14.384552491322786"><ele>821.0</ele><time>2026-04-12T08:17:51.999Z</time></trkpt><trkpt lat="42.0335392169258" lon="14.384439571237007"><ele>821.0000000000001</ele><time>2026-04-12T08:17:53.999Z</time></trkpt><trkpt lat="42.03358707552118" lon="14.384369393148527"><ele>821.0</ele><time>2026-04-12T08:17:54.999Z</time></trkpt><trkpt lat="42.03363705316421" lon="14.38430393622595"><ele>821.0</ele><time>2026-04-12T08:17:56.001Z</time></trkpt><trkpt lat="42.03368116986751" lon="14.384241290324779"><ele>821.0</ele><time>2026-04-12T08:17:57.001Z</time></trkpt><trkpt lat="42.03377225407678" lon="14.384116037782176"><ele>821.0000000000001</ele><time>2026-04-12T08:17:59.001Z</time></trkpt><trkpt lat="42.03381740060052" lon="14.384048120974178"><ele>821.0</ele><time>2026-04-12T08:18:00.001Z</time></trkpt><trkpt lat="42.033866528683234" lon="14.383981031482596"><ele>821.0000000000001</ele><time>2026-04-12T08:18:01.001Z</time></trkpt><trkpt lat="42.03391560103734" lon="14.383907978548034"><ele>821.0</ele><time>2026-04-12T08:18:02.001Z</time></trkpt><trkpt lat="42.0339655266021" lon="14.383833632120243"><ele>821.0</ele><time>2026-04-12T08:18:03.001Z</time></trkpt><trkpt lat="42.03401153626843" lon="14.383756605703006"><ele>821.0</ele><time>2026-04-12T08:18:04.001Z</time></trkpt><trkpt lat="42.03405462698458" lon="14.383687171242965"><ele>821.0</ele><time>2026-04-12T08:18:05.001Z</time></trkpt><trkpt lat="42.03409987673606" lon="14.383621873167378"><ele>821.0000000000001</ele><time>2026-04-12T08:18:06.001Z</time></trkpt><trkpt lat="42.03414380608817" lon="14.383560870814284"><ele>821.0</ele><time>2026-04-12T08:18:07.001Z</time></trkpt><trkpt lat="42.034220287872735" lon="14.383444140646947"><ele>820.8</ele><time>2026-04-12T08:18:09.001Z</time></trkpt><trkpt lat="42.03428234928819" lon="14.383349127365335"><ele>820.5999999999999</ele><time>2026-04-12T08:18:11.001Z</time></trkpt><trkpt lat="42.03428650973021" lon="14.383255290086645"><ele>820.4</ele><time>2026-04-12T08:18:13Z</time></trkpt><trkpt lat="42.034211265564345" lon="14.383173014362276"><ele>820.2</ele><time>2026-04-12T08:18:15Z</time></trkpt><trkpt lat="42.0340983404547" lon="14.383136057704418"><ele>820.0</ele><time>2026-04-12T08:18:17Z</time></trkpt><trkpt lat="42.03398322117121" lon="14.383195270320718"><ele>817.6666666666666</ele><time>2026-04-12T08:18:19Z</time></trkpt><trkpt lat="42.03394582994842" lon="14.383281731459432"><ele>815.3333333333333</ele><time>2026-04-12T08:18:20Z</time></trkpt><trkpt lat="42.03382343930317" lon="14.383345416958605"><ele>813.0</ele><time>2026-04-12T08:18:22Z</time></trkpt><trkpt lat="42.03377875081018" lon="14.383405485688806"><ele>810.6666666666667</ele><time>2026-04-12T08:18:23Z</time></trkpt><trkpt lat="42.033719302716605" lon="14.38345430118251"><ele>808.3333333333334</ele><time>2026-04-12T08:18:24Z</time></trkpt><trkpt lat="42.0336588280227" lon="14.383501209875856"><ele>806.0</ele><time>2026-04-12T08:18:25Z</time></trkpt><trkpt lat="42.03359921700866" lon="14.383549966617556"><ele>806.0</ele><time>2026-04-12T08:18:26Z</time></trkpt><trkpt lat="42.033539315335524" lon="14.383599193671662"><ele>806.0</ele><time>2026-04-12T08:18:27Z</time></trkpt><trkpt lat="42.03347971494205" lon="14.383651326112897"><ele>806.0</ele><time>2026-04-12T08:18:28Z</time></trkpt><trkpt lat="42.03341686708878" lon="14.383707937258478"><ele>806.0</ele><time>2026-04-12T08:18:29Z</time></trkpt><trkpt lat="42.0333557107775" lon="14.383759960234908"><ele>806.0</ele><time>2026-04-12T08:18:30Z</time></trkpt><trkpt lat="42.033286570377655" lon="14.383816376622462"><ele>806.0</ele><time>2026-04-12T08:18:31Z</time></trkpt><trkpt lat="42.03322241822184" lon="14.383877781150218"><ele>806.0</ele><time>2026-04-12T08:18:32Z</time></trkpt><trkpt lat="42.03315240126907" lon="14.383932403857724"><ele>804.8333333333334</ele><time>2026-04-12T08:18:33Z</time></trkpt><trkpt lat="42.03307856138231" lon="14.38398555773656"><ele>803.6666666666667</ele><time>2026-04-12T08:18:34Z</time></trkpt><trkpt lat="42.03300628728386" lon="14.384039498981362"><ele>802.5</ele><time>2026-04-12T08:18:35Z</time></trkpt><trkpt lat="42.03293772289859" lon="14.384091797858037"><ele>801.3333333333333</ele><time>2026-04-12T08:18:36Z</time></trkpt><trkpt lat="42.03287704813295" lon="14.384143398530156"><ele>800.1666666666666</ele><time>2026-04-12T08:18:37Z</time></trkpt><trkpt lat="42.0328100793985" lon="14.384195716281791"><ele>799.0</ele><time>2026-04-12T08:18:38Z</time></trkpt><trkpt lat="42.03274110100556" lon="14.384246969573578"><ele>799.0</ele><time>2026-04-12T08:18:39Z</time></trkpt><trkpt lat="42.032668624183366" lon="14.384299367829954"><ele>799.0</ele><time>2026-04-12T08:18:40Z</time></trkpt><trkpt lat="42.03260223729564" lon="14.384351594452724"><ele>799.0</ele><time>2026-04-12T08:18:41Z</time></trkpt><trkpt lat="42.03253456016632" lon="14.384400573596068"><ele>799.0</ele><time>2026-04-12T08:18:42Z</time></trkpt><trkpt lat="42.03247218240387" lon="14.384443438601833"><ele>799.0</ele><time>2026-04-12T08:18:43Z</time></trkpt><trkpt lat="42.03241200503024" lon="14.384479918704704"><ele>799.0</ele><time>2026-04-12T08:18:44Z</time></trkpt><trkpt lat="42.03235581749107" lon="14.384521098483102"><ele>799.0</ele><time>2026-04-12T08:18:45Z</time></trkpt><trkpt lat="42.032295892389286" lon="14.384558931822369"><ele>798.4285714285714</ele><time>2026-04-12T08:18:46Z</time></trkpt><trkpt lat="42.03223593588239" lon="14.384600948806401"><ele>797.8571428571428</ele><time>2026-04-12T08:18:47Z</time></trkpt><trkpt lat="42.032176018419754" lon="14.384645263892702"><ele>797.2857142857142</ele><time>2026-04-12T08:18:48Z</time></trkpt><trkpt lat="42.032117566546276" lon="14.384688050307911"><ele>796.7142857142858</ele><time>2026-04-12T08:18:49Z</time></trkpt><trkpt lat="42.03205401873001" lon="14.384734711137378"><ele>796.1428571428571</ele><time>2026-04-12T08:18:50Z</time></trkpt><trkpt lat="42.03199444954363" lon="14.384782436825699"><ele>795.5714285714286</ele><time>2026-04-12T08:18:51Z</time></trkpt><trkpt lat="42.031930951734346" lon="14.384828768455842"><ele>795.0</ele><time>2026-04-12T08:18:52Z</time></trkpt><trkpt lat="42.03187281917641" lon="14.384879235204574"><ele>795.0</ele><time>2026-04-12T08:18:53Z</time></trkpt><trkpt lat="42.03181485468144" lon="14.384925949809157"><ele>795.0</ele><time>2026-04-12T08:18:54Z</time></trkpt><trkpt lat="42.03175672805726" lon="14.38497395183787"><ele>795.0</ele><time>2026-04-12T08:18:55Z</time></trkpt><trkpt lat="42.03169872740742" lon="14.385020964239947"><ele>795.0</ele><time>2026-04-12T08:18:56Z</time></trkpt><trkpt lat="42.03163742213107" lon="14.385061739593935"><ele>795.0</ele><time>2026-04-12T08:18:57Z</time></trkpt><trkpt lat="42.03151400390317" lon="14.385131406920864"><ele>795.0</ele><time>2026-04-12T08:18:59Z</time></trkpt><trkpt lat="42.031391889031184" lon="14.385245501391744"><ele>793.3333333333334</ele><time>2026-04-12T08:19:01Z</time></trkpt><trkpt lat="42.031328344427514" lon="14.38530768267604"><ele>791.6666666666667</ele><time>2026-04-12T08:19:02Z</time></trkpt><trkpt lat="42.031265278156134" lon="14.385375951039753"><ele>790.0</ele><time>2026-04-12T08:19:03Z</time></trkpt><trkpt lat="42.03120881070553" lon="14.385442195604572"><ele>788.3333333333334</ele><time>2026-04-12T08:19:04Z</time></trkpt><trkpt lat="42.031154746284656" lon="14.385510780563362"><ele>786.6666666666667</ele><time>2026-04-12T08:19:05Z</time></trkpt><trkpt lat="42.03109967960368" lon="14.385577945324581"><ele>785.0</ele><time>2026-04-12T08:19:06Z</time></trkpt><trkpt lat="42.03103731341901" lon="14.385646109358486"><ele>785.0000000000001</ele><time>2026-04-12T08:19:07Z</time></trkpt><trkpt lat="42.03097948006049" lon="14.385708034880993"><ele>785.0</ele><time>2026-04-12T08:19:08Z</time></trkpt><trkpt lat="42.030917242808414" lon="14.385770699154966"><ele>785.0</ele><time>2026-04-12T08:19:09Z</time></trkpt><trkpt lat="42.030861404139124" lon="14.385825099753808"><ele>785.0</ele><time>2026-04-12T08:19:10Z</time></trkpt><trkpt lat="42.03081106161892" lon="14.385878976469996"><ele>785.0000000000001</ele><time>2026-04-12T08:19:11Z</time></trkpt><trkpt lat="42.0307126114297" lon="14.385971154388919"><ele>785.0</ele><time>2026-04-12T08:19:13Z</time></trkpt><trkpt lat="42.030596865591285" lon="14.386033882536546"><ele>782.1666666666667</ele><time>2026-04-12T08:19:14.999Z</time></trkpt><trkpt lat="42.03053312985011" lon="14.38606796760713"><ele>779.3333333333334</ele><time>2026-04-12T08:19:15.999Z</time></trkpt><trkpt lat="42.03047256124755" lon="14.386096235006896"><ele>776.5</ele><time>2026-04-12T08:19:16.999Z</time></trkpt><trkpt lat="42.030355049646644" lon="14.38614451470902"><ele>773.6666666666667</ele><time>2026-04-12T08:19:18.999Z</time></trkpt><trkpt lat="42.030288267667025" lon="14.386161722402372"><ele>770.8333333333334</ele><time>2026-04-12T08:19:19.999Z</time></trkpt><trkpt lat="42.03021486383164" lon="14.386165318174942"><ele>768.0</ele><time>2026-04-12T08:19:20.999Z</time></trkpt><trkpt lat="42.03014665542079" lon="14.386165561281874"><ele>768.0</ele><time>2026-04-12T08:19:21.999Z</time></trkpt><trkpt lat="42.030079209457604" lon="14.386167767081389"><ele>768.0</ele><time>2026-04-12T08:19:22.999Z</time></trkpt><trkpt lat="42.030013675355626" lon="14.386165280126141"><ele>768.0</ele><time>2026-04-12T08:19:23.999Z</time></trkpt><trkpt lat="42.02988723483429" lon="14.386140354273245"><ele>768.0</ele><time>2026-04-12T08:19:25.999Z</time></trkpt><trkpt lat="42.02982380881705" lon="14.386114069783478"><ele>768.0</ele><time>2026-04-12T08:19:26.999Z</time></trkpt><trkpt lat="42.02975918636039" lon="14.386084588571078"><ele>768.0</ele><time>2026-04-12T08:19:27.999Z</time></trkpt><trkpt lat="42.02969129268429" lon="14.386059581598058"><ele>765.0</ele><time>2026-04-12T08:19:28.999Z</time></trkpt><trkpt lat="42.02958149678142" lon="14.386012548399927"><ele>762.0</ele><time>2026-04-12T08:19:30.999Z</time></trkpt><trkpt lat="42.029467694397255" lon="14.386014411194683"><ele>759.0</ele><time>2026-04-12T08:19:32.999Z</time></trkpt><trkpt lat="42.02935905328799" lon="14.38607312499653"><ele>756.0</ele><time>2026-04-12T08:19:34.999Z</time></trkpt><trkpt lat="42.02926137745122" lon="14.38616251758563"><ele>756.0</ele><time>2026-04-12T08:19:36.999Z</time></trkpt><trkpt lat="42.029182178197026" lon="14.386232431042451"><ele>756.0</ele><time>2026-04-12T08:19:38.999Z</time></trkpt><trkpt lat="42.02912288853517" lon="14.386308011481837"><ele>756.0</ele><time>2026-04-12T08:19:40.999Z</time></trkpt><trkpt lat="42.02908140152845" lon="14.386403846008047"><ele>756.0</ele><time>2026-04-12T08:19:42.999Z</time></trkpt><trkpt lat="42.02907520139285" lon="14.3865204327406"><ele>756.0</ele><time>2026-04-12T08:19:44.999Z</time></trkpt><trkpt lat="42.02909560300773" lon="14.386653678445807"><ele>756.0</ele><time>2026-04-12T08:19:46.999Z</time></trkpt><trkpt lat="42.029116136973" lon="14.386797265814067"><ele>757.0</ele><time>2026-04-12T08:19:48.999Z</time></trkpt><trkpt lat="42.029137718501275" lon="14.386950404521945"><ele>758.0</ele><time>2026-04-12T08:19:50.999Z</time></trkpt><trkpt lat="42.029159547727296" lon="14.387116957271386"><ele>759.0</ele><time>2026-04-12T08:19:52.999Z</time></trkpt><trkpt lat="42.0291764432393" lon="14.38728263769788"><ele>760.0</ele><time>2026-04-12T08:19:54.999Z</time></trkpt><trkpt lat="42.02918354968086" lon="14.38737009924535"><ele>761.0</ele><time>2026-04-12T08:19:55.999Z</time></trkpt><trkpt lat="42.029194341595456" lon="14.387462995805251"><ele>761.1428571428571</ele><time>2026-04-12T08:19:56.999Z</time></trkpt><trkpt lat="42.02919990528045" lon="14.387556618194475"><ele>761.2857142857142</ele><time>2026-04-12T08:19:57.999Z</time></trkpt><trkpt lat="42.02921319343802" lon="14.387650474821513"><ele>761.4285714285713</ele><time>2026-04-12T08:19:58.999Z</time></trkpt><trkpt lat="42.02922637450941" lon="14.387734646996755"><ele>761.5714285714286</ele><time>2026-04-12T08:19:59.999Z</time></trkpt><trkpt lat="42.0292302075488" lon="14.38782980003589"><ele>761.7142857142858</ele><time>2026-04-12T08:20:00.999Z</time></trkpt><trkpt lat="42.02923550137121" lon="14.387925204612245"><ele>761.8571428571428</ele><time>2026-04-12T08:20:02.001Z</time></trkpt><trkpt lat="42.02924049818774" lon="14.388018537679526"><ele>762.0</ele><time>2026-04-12T08:20:03.001Z</time></trkpt><trkpt lat="42.02925251815799" lon="14.388112182620413"><ele>762.4000000000001</ele><time>2026-04-12T08:20:04.001Z</time></trkpt><trkpt lat="42.0292685569017" lon="14.388280449253271"><ele>762.8000000000001</ele><time>2026-04-12T08:20:06.001Z</time></trkpt><trkpt lat="42.02927658429967" lon="14.388364580271924"><ele>763.2</ele><time>2026-04-12T08:20:07.001Z</time></trkpt><trkpt lat="42.029284978105366" lon="14.38845161074406"><ele>763.6</ele><time>2026-04-12T08:20:08.001Z</time></trkpt><trkpt lat="42.02929602608859" lon="14.388614552745794"><ele>764.0</ele><time>2026-04-12T08:20:10.001Z</time></trkpt><trkpt lat="42.0293020342273" lon="14.388747779426863"><ele>762.8333333333333</ele><time>2026-04-12T08:20:12.001Z</time></trkpt><trkpt lat="42.02930427135823" lon="14.388858585140756"><ele>761.6666666666666</ele><time>2026-04-12T08:20:14.001Z</time></trkpt><trkpt lat="42.029280890194514" lon="14.388950281661186"><ele>760.5</ele><time>2026-04-12T08:20:16.001Z</time></trkpt><trkpt lat="42.0292269656922" lon="14.38901275407933"><ele>759.3333333333334</ele><time>2026-04-12T08:20:19.001Z</time></trkpt><trkpt lat="42.029161797639354" lon="14.388952355709485"><ele>758.1666666666667</ele><time>2026-04-12T08:21:58.999Z</time></trkpt><trkpt lat="42.02909065829084" lon="14.388891482348107"><ele>757.0</ele><time>2026-04-12T08:22:00.999Z</time></trkpt><trkpt lat="42.029027216075484" lon="14.388813515681555"><ele>757.0</ele><time>2026-04-12T08:22:02.999Z</time></trkpt><trkpt lat="42.02898372382893" lon="14.388721866340223"><ele>757.0</ele><time>2026-04-12T08:22:04.999Z</time></trkpt><trkpt lat="42.028922331673954" lon="14.388627534870524"><ele>757.0</ele><time>2026-04-12T08:22:06.999Z</time></trkpt><trkpt lat="42.028820962000125" lon="14.388567398024817"><ele>757.0</ele><time>2026-04-12T08:22:09Z</time></trkpt><trkpt lat="42.02876450611165" lon="14.388491524749684"><ele>757.0</ele><time>2026-04-12T08:22:11Z</time></trkpt><trkpt lat="42.02870235057344" lon="14.38840191828885"><ele>757.0</ele><time>2026-04-12T08:22:13Z</time></trkpt><trkpt lat="42.02864420025439" lon="14.388315194857652"><ele>757.0</ele><time>2026-04-12T08:22:15Z</time></trkpt><trkpt lat="42.02857960692038" lon="14.388212425136967"><ele>757.0</ele><time>2026-04-12T08:22:17Z</time></trkpt><trkpt lat="42.0285087390999" lon="14.388103905779749"><ele>757.0</ele><time>2026-04-12T08:22:19Z</time></trkpt><trkpt lat="42.02845264487741" lon="14.388017472116005"><ele>757.0</ele><time>2026-04-12T08:22:21Z</time></trkpt><trkpt lat="42.02838816472055" lon="14.387967122563023"><ele>754.2</ele><time>2026-04-12T08:22:23Z</time></trkpt><trkpt lat="42.02833425718987" lon="14.38788784454882"><ele>751.4000000000001</ele><time>2026-04-12T08:22:25Z</time></trkpt><trkpt lat="42.02828108646699" lon="14.387808363434603"><ele>748.5999999999999</ele><time>2026-04-12T08:22:27Z</time></trkpt><trkpt lat="42.02821327853728" lon="14.387704950939096"><ele>745.8</ele><time>2026-04-12T08:22:29Z</time></trkpt><trkpt lat="42.02814441252327" lon="14.387605888524249"><ele>743.0</ele><time>2026-04-12T08:22:31Z</time></trkpt><trkpt lat="42.02806685039886" lon="14.387512917168403"><ele>743.0</ele><time>2026-04-12T08:22:33Z</time></trkpt><trkpt lat="42.02797596790335" lon="14.387412743844825"><ele>743.0</ele><time>2026-04-12T08:22:35Z</time></trkpt><trkpt lat="42.02788109552554" lon="14.387315449778068"><ele>743.0</ele><time>2026-04-12T08:22:37Z</time></trkpt><trkpt lat="42.027809652446926" lon="14.387244346444819"><ele>743.0</ele><time>2026-04-12T08:22:39Z</time></trkpt><trkpt lat="42.02775587156625" lon="14.387165287445912"><ele>743.0</ele><time>2026-04-12T08:22:41Z</time></trkpt><trkpt lat="42.027679066877404" lon="14.387111191664264"><ele>739.1666666666666</ele><time>2026-04-12T08:22:43Z</time></trkpt><trkpt lat="42.0275943554525" lon="14.38704026814452"><ele>735.3333333333333</ele><time>2026-04-12T08:22:45Z</time></trkpt><trkpt lat="42.027492406989715" lon="14.386958017822867"><ele>731.5</ele><time>2026-04-12T08:22:47Z</time></trkpt><trkpt lat="42.027441069228644" lon="14.386908314479331"><ele>727.6666666666666</ele><time>2026-04-12T08:22:48Z</time></trkpt><trkpt lat="42.02738724044093" lon="14.386862695352232"><ele>723.8333333333334</ele><time>2026-04-12T08:22:49Z</time></trkpt><trkpt lat="42.02732921951978" lon="14.386823370867322"><ele>720.0</ele><time>2026-04-12T08:22:50Z</time></trkpt><trkpt lat="42.02726848509399" lon="14.38679456009483"><ele>719.8571428571428</ele><time>2026-04-12T08:22:51Z</time></trkpt><trkpt lat="42.0272057088904" lon="14.386771667035518"><ele>719.7142857142858</ele><time>2026-04-12T08:22:52Z</time></trkpt><trkpt lat="42.02714301415116" lon="14.3867606678794"><ele>719.5714285714286</ele><time>2026-04-12T08:22:53Z</time></trkpt><trkpt lat="42.02707075121179" lon="14.386752486851627"><ele>719.4285714285713</ele><time>2026-04-12T08:22:54Z</time></trkpt><trkpt lat="42.02700001870469" lon="14.386726510459505"><ele>719.2857142857142</ele><time>2026-04-12T08:22:55Z</time></trkpt><trkpt lat="42.026924313433874" lon="14.386726563311457"><ele>719.1428571428571</ele><time>2026-04-12T08:22:56Z</time></trkpt><trkpt lat="42.0268484375395" lon="14.386732173209646"><ele>719.0</ele><time>2026-04-12T08:22:57Z</time></trkpt><trkpt lat="42.02676998849102" lon="14.38674489717778"><ele>718.9999999999999</ele><time>2026-04-12T08:22:58Z</time></trkpt><trkpt lat="42.02669319412222" lon="14.386755917569301"><ele>719.0</ele><time>2026-04-12T08:22:59Z</time></trkpt><trkpt lat="42.0266186188725" lon="14.38676331266361"><ele>719.0</ele><time>2026-04-12T08:23:00Z</time></trkpt><trkpt lat="42.026541400549775" lon="14.386770251974697"><ele>719.0</ele><time>2026-04-12T08:23:01Z</time></trkpt><trkpt lat="42.026463635683136" lon="14.38677724039498"><ele>719.0</ele><time>2026-04-12T08:23:02Z</time></trkpt><trkpt lat="42.02639402837629" lon="14.386781472086538"><ele>718.9999999999999</ele><time>2026-04-12T08:23:03Z</time></trkpt><trkpt lat="42.026328308013476" lon="14.386785642787446"><ele>719.0</ele><time>2026-04-12T08:23:04Z</time></trkpt><trkpt lat="42.02621059407887" lon="14.386781597721885"><ele>717.0</ele><time>2026-04-12T08:23:06Z</time></trkpt><trkpt lat="42.02611379693918" lon="14.386800518340243"><ele>715.0</ele><time>2026-04-12T08:23:08Z</time></trkpt><trkpt lat="42.026030154883756" lon="14.38678261576581"><ele>713.0</ele><time>2026-04-12T08:23:10Z</time></trkpt><trkpt lat="42.02594447399181" lon="14.386812019128165"><ele>711.0</ele><time>2026-04-12T08:23:11.999Z</time></trkpt><trkpt lat="42.025855378130224" lon="14.38690620081376"><ele>709.0</ele><time>2026-04-12T08:23:13.999Z</time></trkpt><trkpt lat="42.02577735351334" lon="14.387040595252811"><ele>710.1666666666667</ele><time>2026-04-12T08:23:15.999Z</time></trkpt><trkpt lat="42.02574079973839" lon="14.387115675270335"><ele>711.3333333333334</ele><time>2026-04-12T08:23:16.999Z</time></trkpt><trkpt lat="42.02570661124306" lon="14.38719216099437"><ele>712.5</ele><time>2026-04-12T08:23:17.999Z</time></trkpt><trkpt lat="42.02564443702721" lon="14.387306350077862"><ele>713.6666666666666</ele><time>2026-04-12T08:23:19.999Z</time></trkpt><trkpt lat="42.025597505597744" lon="14.387373412211389"><ele>714.8333333333333</ele><time>2026-04-12T08:23:22.999Z</time></trkpt><trkpt lat="42.02555127778549" lon="14.387435396055922"><ele>716.0</ele><time>2026-04-12T08:23:42.999Z</time></trkpt><trkpt lat="42.025397859208695" lon="14.387272840690967"><ele>713.1666666666666</ele><time>2026-04-12T08:23:48.999Z</time></trkpt><trkpt lat="42.02543318075663" lon="14.387131096505827"><ele>710.3333333333333</ele><time>2026-04-12T08:23:50.999Z</time></trkpt><trkpt lat="42.02536208417319" lon="14.38709364632704"><ele>707.5</ele><time>2026-04-12T08:23:51.999Z</time></trkpt><trkpt lat="42.02528887227647" lon="14.386968613864457"><ele>704.6666666666666</ele><time>2026-04-12T08:23:53.999Z</time></trkpt><trkpt lat="42.025234401253726" lon="14.38691598114057"><ele>701.8333333333334</ele><time>2026-04-12T08:23:54.999Z</time></trkpt><trkpt lat="42.02518188909844" lon="14.3868655049918"><ele>699.0</ele><time>2026-04-12T08:23:55.999Z</time></trkpt><trkpt lat="42.025132207463045" lon="14.386808418607751"><ele>699.0</ele><time>2026-04-12T08:23:56.999Z</time></trkpt><trkpt lat="42.02508622718778" lon="14.386747040777719"><ele>699.0</ele><time>2026-04-12T08:23:57.999Z</time></trkpt><trkpt lat="42.02503720475425" lon="14.386685539199195"><ele>699.0</ele><time>2026-04-12T08:23:58.999Z</time></trkpt><trkpt lat="42.024987100452186" lon="14.38663352417356"><ele>699.0</ele><time>2026-04-12T08:23:59.999Z</time></trkpt><trkpt lat="42.024890115607064" lon="14.386529825036446"><ele>699.0</ele><time>2026-04-12T08:24:01.999Z</time></trkpt><trkpt lat="42.02479205782627" lon="14.386441288300572"><ele>699.0</ele><time>2026-04-12T08:24:03.999Z</time></trkpt><trkpt lat="42.02470119127699" lon="14.38638775238072"><ele>698.8000000000001</ele><time>2026-04-12T08:24:05.999Z</time></trkpt><trkpt lat="42.0246215726628" lon="14.386363435135996"><ele>698.6</ele><time>2026-04-12T08:24:07.999Z</time></trkpt><trkpt lat="42.0245550648853" lon="14.386356966940197"><ele>698.4</ele><time>2026-04-12T08:24:09.999Z</time></trkpt><trkpt lat="42.02447204911764" lon="14.386362692004731"><ele>698.2</ele><time>2026-04-12T08:24:11.999Z</time></trkpt><trkpt lat="42.02436105693426" lon="14.386349658977307"><ele>698.0</ele><time>2026-04-12T08:24:14Z</time></trkpt><trkpt lat="42.02423285096228" lon="14.386324495885916"><ele>694.9999999999999</ele><time>2026-04-12T08:24:16Z</time></trkpt><trkpt lat="42.02416448202486" lon="14.386321451055588"><ele>692.0</ele><time>2026-04-12T08:24:17Z</time></trkpt><trkpt lat="42.02409404763618" lon="14.38631648540013"><ele>689.0</ele><time>2026-04-12T08:24:18Z</time></trkpt><trkpt lat="42.024027233263794" lon="14.386299385397548"><ele>686.0</ele><time>2026-04-12T08:24:19Z</time></trkpt><trkpt lat="42.0239584186162" lon="14.386283591847658"><ele>683.0</ele><time>2026-04-12T08:24:20Z</time></trkpt><trkpt lat="42.023893132266736" lon="14.386283564486243"><ele>679.9999999999999</ele><time>2026-04-12T08:24:21Z</time></trkpt><trkpt lat="42.023828218042574" lon="14.386293266824365"><ele>677.0</ele><time>2026-04-12T08:24:22Z</time></trkpt><trkpt lat="42.02376402268599" lon="14.386306064231194"><ele>677.0</ele><time>2026-04-12T08:24:23Z</time></trkpt><trkpt lat="42.02369170930998" lon="14.386325790142525"><ele>677.0</ele><time>2026-04-12T08:24:24Z</time></trkpt><trkpt lat="42.02361376719799" lon="14.386343728561506"><ele>677.0</ele><time>2026-04-12T08:24:25Z</time></trkpt><trkpt lat="42.02353111717564" lon="14.386361084689135"><ele>677.0</ele><time>2026-04-12T08:24:26Z</time></trkpt><trkpt lat="42.02345196743823" lon="14.386377862074406"><ele>677.0</ele><time>2026-04-12T08:24:27Z</time></trkpt><trkpt lat="42.02337781350345" lon="14.386396761481627"><ele>677.0</ele><time>2026-04-12T08:24:28Z</time></trkpt><trkpt lat="42.02330698892634" lon="14.386419795947507"><ele>676.9999999999999</ele><time>2026-04-12T08:24:29Z</time></trkpt><trkpt lat="42.0232393957486" lon="14.386449102525816"><ele>677.0</ele><time>2026-04-12T08:24:30Z</time></trkpt><trkpt lat="42.023178831739884" lon="14.38648121901248"><ele>677.0</ele><time>2026-04-12T08:24:31Z</time></trkpt><trkpt lat="42.023106274736456" lon="14.386499995570674"><ele>677.0</ele><time>2026-04-12T08:24:32Z</time></trkpt><trkpt lat="42.02304063958118" lon="14.38653796596284"><ele>677.0</ele><time>2026-04-12T08:24:33Z</time></trkpt><trkpt lat="42.02298296819404" lon="14.38659139558454"><ele>676.9999999999999</ele><time>2026-04-12T08:24:34Z</time></trkpt><trkpt lat="42.022908820780124" lon="14.386602034060813"><ele>677.0</ele><time>2026-04-12T08:24:35Z</time></trkpt><trkpt lat="42.022823418282904" lon="14.38658077303954"><ele>677.0</ele><time>2026-04-12T08:24:36Z</time></trkpt><trkpt lat="42.022734745945264" lon="14.386541555477306"><ele>677.0</ele><time>2026-04-12T08:24:37Z</time></trkpt><trkpt lat="42.02264681933327" lon="14.386502322468926"><ele>677.0</ele><time>2026-04-12T08:24:38Z</time></trkpt><trkpt lat="42.02256654095768" lon="14.386467343738406"><ele>677.0</ele><time>2026-04-12T08:24:39Z</time></trkpt><trkpt lat="42.02248736763792" lon="14.386432722017918"><ele>677.0</ele><time>2026-04-12T08:24:40Z</time></trkpt><trkpt lat="42.02240873945853" lon="14.386392574358801"><ele>677.0</ele><time>2026-04-12T08:24:41Z</time></trkpt><trkpt lat="42.022337505537315" lon="14.386341526751336"><ele>674.4285714285713</ele><time>2026-04-12T08:24:42Z</time></trkpt><trkpt lat="42.022269731560755" lon="14.386291533939799"><ele>671.8571428571429</ele><time>2026-04-12T08:24:43Z</time></trkpt><trkpt lat="42.022208033344675" lon="14.38625568951755"><ele>669.2857142857142</ele><time>2026-04-12T08:24:44Z</time></trkpt><trkpt lat="42.02214679844696" lon="14.38622046914671"><ele>666.7142857142857</ele><time>2026-04-12T08:24:45Z</time></trkpt><trkpt lat="42.02207955233578" lon="14.386194517962572"><ele>664.1428571428571</ele><time>2026-04-12T08:24:46Z</time></trkpt><trkpt lat="42.022007604489076" lon="14.386184790096676"><ele>661.5714285714286</ele><time>2026-04-12T08:24:47Z</time></trkpt><trkpt lat="42.0219370872627" lon="14.38618004283319"><ele>659.0</ele><time>2026-04-12T08:24:48Z</time></trkpt><trkpt lat="42.02187258772025" lon="14.386180449836662"><ele>659.0</ele><time>2026-04-12T08:24:49Z</time></trkpt><trkpt lat="42.02180808218363" lon="14.386181451902996"><ele>659.0</ele><time>2026-04-12T08:24:50Z</time></trkpt><trkpt lat="42.02168884614945" lon="14.386187171796136"><ele>659.0</ele><time>2026-04-12T08:24:52Z</time></trkpt><trkpt lat="42.02160903281734" lon="14.386192114523901"><ele>659.0</ele><time>2026-04-12T08:24:54Z</time></trkpt><trkpt lat="42.02152783994299" lon="14.386216730804701"><ele>659.0</ele><time>2026-04-12T08:24:57Z</time></trkpt><trkpt lat="42.02145418956343" lon="14.386182195872205"><ele>659.0</ele><time>2026-04-12T08:25:11Z</time></trkpt><trkpt lat="42.021371067311314" lon="14.386180741330715"><ele>659.1666666666666</ele><time>2026-04-12T08:25:14Z</time></trkpt><trkpt lat="42.02129160605062" lon="14.386200721053958"><ele>659.3333333333333</ele><time>2026-04-12T08:25:18.999Z</time></trkpt><trkpt lat="42.021225425589414" lon="14.386185496448798"><ele>659.5</ele><time>2026-04-12T08:25:20.999Z</time></trkpt><trkpt lat="42.021137249383465" lon="14.38615814954299"><ele>659.6666666666666</ele><time>2026-04-12T08:25:22.999Z</time></trkpt><trkpt lat="42.0210422071614" lon="14.386100440278547"><ele>659.8333333333334</ele><time>2026-04-12T08:25:24.999Z</time></trkpt><trkpt lat="42.02096978696705" lon="14.386039984799664"><ele>660.0</ele><time>2026-04-12T08:25:26.999Z</time></trkpt><trkpt lat="42.02091335168568" lon="14.385974507764974"><ele>660.0</ele><time>2026-04-12T08:25:28.999Z</time></trkpt><trkpt lat="42.02087144158755" lon="14.385899219774812"><ele>660.0</ele><time>2026-04-12T08:25:30.999Z</time></trkpt><trkpt lat="42.02082405232263" lon="14.385822674286592"><ele>660.0</ele><time>2026-04-12T08:25:32.999Z</time></trkpt><trkpt lat="42.02078536033304" lon="14.385740296377332"><ele>660.0</ele><time>2026-04-12T08:25:34.999Z</time></trkpt><trkpt lat="42.020753288426704" lon="14.385625392918348"><ele>660.0</ele><time>2026-04-12T08:25:36.999Z</time></trkpt><trkpt lat="42.02072060182175" lon="14.385504577794515"><ele>660.0</ele><time>2026-04-12T08:25:38.999Z</time></trkpt><trkpt lat="42.020688220733646" lon="14.38540533929971"><ele>658.8</ele><time>2026-04-12T08:25:40.999Z</time></trkpt><trkpt lat="42.020664849451826" lon="14.385320897807931"><ele>657.6</ele><time>2026-04-12T08:25:42.999Z</time></trkpt><trkpt lat="42.02063022271848" lon="14.3852192997285"><ele>656.4000000000001</ele><time>2026-04-12T08:25:44.999Z</time></trkpt><trkpt lat="42.020567316256056" lon="14.385100904635683"><ele>655.2</ele><time>2026-04-12T08:25:46.999Z</time></trkpt><trkpt lat="42.02049883167576" lon="14.384983157059484"><ele>654.0</ele><time>2026-04-12T08:25:48.999Z</time></trkpt><trkpt lat="42.0204318173097" lon="14.384854379815495"><ele>654.0</ele><time>2026-04-12T08:25:50.999Z</time></trkpt><trkpt lat="42.02039158711327" lon="14.384786223434398"><ele>654.0</ele><time>2026-04-12T08:25:51.999Z</time></trkpt><trkpt lat="42.020351915104364" lon="14.38470695018325"><ele>654.0</ele><time>2026-04-12T08:25:52.999Z</time></trkpt><trkpt lat="42.020313521325505" lon="14.384621924529412"><ele>654.0</ele><time>2026-04-12T08:25:53.999Z</time></trkpt><trkpt lat="42.02027355358644" lon="14.384541638899764"><ele>654.0</ele><time>2026-04-12T08:25:54.999Z</time></trkpt><trkpt lat="42.020230907818416" lon="14.384464801558401"><ele>654.0</ele><time>2026-04-12T08:25:55.999Z</time></trkpt><trkpt lat="42.02019429227132" lon="14.384395472855964"><ele>654.0</ele><time>2026-04-12T08:25:56.999Z</time></trkpt><trkpt lat="42.020127167986075" lon="14.384253862420852"><ele>654.0</ele><time>2026-04-12T08:25:58.999Z</time></trkpt><trkpt lat="42.02009231105735" lon="14.38417690859685"><ele>654.0</ele><time>2026-04-12T08:25:59.999Z</time></trkpt><trkpt lat="42.02005758843249" lon="14.384095036357259"><ele>654.0</ele><time>2026-04-12T08:26:00.999Z</time></trkpt><trkpt lat="42.02001937200849" lon="14.38401265406902"><ele>654.0</ele><time>2026-04-12T08:26:01.999Z</time></trkpt><trkpt lat="42.01997715490507" lon="14.383927148005387"><ele>654.0</ele><time>2026-04-12T08:26:02.999Z</time></trkpt><trkpt lat="42.01993825058543" lon="14.383841108783717"><ele>654.0</ele><time>2026-04-12T08:26:03.999Z</time></trkpt><trkpt lat="42.01990381390213" lon="14.383760419668354"><ele>654.0</ele><time>2026-04-12T08:26:04.999Z</time></trkpt><trkpt lat="42.01987128221756" lon="14.383676442386164"><ele>653.2857142857142</ele><time>2026-04-12T08:26:05.999Z</time></trkpt><trkpt lat="42.01982528887516" lon="14.38360592011097"><ele>652.5714285714286</ele><time>2026-04-12T08:26:06.999Z</time></trkpt><trkpt lat="42.01979552322783" lon="14.383525865382456"><ele>651.8571428571429</ele><time>2026-04-12T08:26:07.999Z</time></trkpt><trkpt lat="42.01976596465179" lon="14.383440556671948"><ele>651.1428571428571</ele><time>2026-04-12T08:26:08.999Z</time></trkpt><trkpt lat="42.01974933996037" lon="14.38334740675905"><ele>650.4285714285714</ele><time>2026-04-12T08:26:09.999Z</time></trkpt><trkpt lat="42.01971457158349" lon="14.383262455013737"><ele>649.7142857142857</ele><time>2026-04-12T08:26:10.999Z</time></trkpt><trkpt lat="42.01967826494813" lon="14.383175035268664"><ele>649.0</ele><time>2026-04-12T08:26:11.999Z</time></trkpt><trkpt lat="42.01964729232607" lon="14.383086519716569"><ele>646.8333333333334</ele><time>2026-04-12T08:26:12.999Z</time></trkpt><trkpt lat="42.01961472054226" lon="14.382999607016972"><ele>644.6666666666667</ele><time>2026-04-12T08:26:13.999Z</time></trkpt><trkpt lat="42.019583538295095" lon="14.382923059460959"><ele>642.5</ele><time>2026-04-12T08:26:14.999Z</time></trkpt><trkpt lat="42.01951467589265" lon="14.382788537303703"><ele>640.3333333333334</ele><time>2026-04-12T08:26:16.999Z</time></trkpt><trkpt lat="42.01945902621655" lon="14.382731424756189"><ele>638.1666666666666</ele><time>2026-04-12T08:26:17.999Z</time></trkpt><trkpt lat="42.019384094422925" lon="14.382684330320933"><ele>636.0</ele><time>2026-04-12T08:26:18.999Z</time></trkpt><trkpt lat="42.01930821215307" lon="14.382632576090373"><ele>636.0</ele><time>2026-04-12T08:26:20Z</time></trkpt><trkpt lat="42.019230909283735" lon="14.382573385287355"><ele>636.0</ele><time>2026-04-12T08:26:21Z</time></trkpt><trkpt lat="42.01914926401523" lon="14.382524367196808"><ele>636.0</ele><time>2026-04-12T08:26:22Z</time></trkpt><trkpt lat="42.019070556824516" lon="14.382482752817717"><ele>636.0</ele><time>2026-04-12T08:26:23Z</time></trkpt><trkpt lat="42.01899137183032" lon="14.382432236926793"><ele>636.0</ele><time>2026-04-12T08:26:24Z</time></trkpt><trkpt lat="42.01891337955466" lon="14.382378668378307"><ele>636.0</ele><time>2026-04-12T08:26:25Z</time></trkpt><trkpt lat="42.01883833669204" lon="14.382322305862377"><ele>635.8333333333334</ele><time>2026-04-12T08:26:26Z</time></trkpt><trkpt lat="42.01875878880758" lon="14.382272377415825"><ele>635.6666666666666</ele><time>2026-04-12T08:26:27Z</time></trkpt><trkpt lat="42.01867680194688" lon="14.382230951608637"><ele>635.5</ele><time>2026-04-12T08:26:28Z</time></trkpt><trkpt lat="42.018599251546696" lon="14.382192279382423"><ele>635.3333333333333</ele><time>2026-04-12T08:26:29Z</time></trkpt><trkpt lat="42.01852809293221" lon="14.38214552882157"><ele>635.1666666666666</ele><time>2026-04-12T08:26:30Z</time></trkpt><trkpt lat="42.01846269927503" lon="14.382098268893396"><ele>635.0</ele><time>2026-04-12T08:26:31Z</time></trkpt><trkpt lat="42.018399380925594" lon="14.38205009521043"><ele>632.8</ele><time>2026-04-12T08:26:32Z</time></trkpt><trkpt lat="42.01830704116519" lon="14.381955633601734"><ele>630.6</ele><time>2026-04-12T08:26:34Z</time></trkpt><trkpt lat="42.018272658165294" lon="14.3817911927713"><ele>628.4</ele><time>2026-04-12T08:26:36Z</time></trkpt><trkpt lat="42.018280026944204" lon="14.381698802152183"><ele>626.2</ele><time>2026-04-12T08:26:37Z</time></trkpt><trkpt lat="42.01829216024487" lon="14.381603350022871"><ele>624.0</ele><time>2026-04-12T08:26:38Z</time></trkpt><trkpt lat="42.018319817110836" lon="14.381507834743044"><ele>624.0</ele><time>2026-04-12T08:26:39Z</time></trkpt><trkpt lat="42.01835365653313" lon="14.381416552104476"><ele>624.0</ele><time>2026-04-12T08:26:40Z</time></trkpt><trkpt lat="42.01838956234442" lon="14.381327860834647"><ele>624.0</ele><time>2026-04-12T08:26:41Z</time></trkpt><trkpt lat="42.01843703831827" lon="14.38123783327587"><ele>624.0</ele><time>2026-04-12T08:26:42Z</time></trkpt><trkpt lat="42.018481382324126" lon="14.381145324947635"><ele>624.0</ele><time>2026-04-12T08:26:43Z</time></trkpt><trkpt lat="42.01851815192981" lon="14.381058917156048"><ele>624.0</ele><time>2026-04-12T08:26:44Z</time></trkpt><trkpt lat="42.01854897969541" lon="14.380982276614535"><ele>622.3333333333334</ele><time>2026-04-12T08:26:45Z</time></trkpt><trkpt lat="42.01861828257506" lon="14.380845981795298"><ele>620.6666666666666</ele><time>2026-04-12T08:26:47Z</time></trkpt><trkpt lat="42.01865598031473" lon="14.380766946911738"><ele>619.0</ele><time>2026-04-12T08:26:48Z</time></trkpt><trkpt lat="42.01869608413944" lon="14.380688113198048"><ele>617.3333333333333</ele><time>2026-04-12T08:26:49Z</time></trkpt><trkpt lat="42.01873466451153" lon="14.380606844369872"><ele>615.6666666666666</ele><time>2026-04-12T08:26:50Z</time></trkpt><trkpt lat="42.01876663940536" lon="14.380531343027625"><ele>614.0</ele><time>2026-04-12T08:26:51Z</time></trkpt><trkpt lat="42.018800538916466" lon="14.380454245185533"><ele>612.1666666666666</ele><time>2026-04-12T08:26:52Z</time></trkpt><trkpt lat="42.01883246121915" lon="14.380376924161567"><ele>610.3333333333333</ele><time>2026-04-12T08:26:53Z</time></trkpt><trkpt lat="42.0188699321528" lon="14.38030190417889"><ele>608.5</ele><time>2026-04-12T08:26:54Z</time></trkpt><trkpt lat="42.01890950433389" lon="14.380225102095848"><ele>606.6666666666666</ele><time>2026-04-12T08:26:55Z</time></trkpt><trkpt lat="42.01894213653778" lon="14.380143998067485"><ele>604.8333333333334</ele><time>2026-04-12T08:26:56Z</time></trkpt><trkpt lat="42.01900382394204" lon="14.380001810586997"><ele>603.0</ele><time>2026-04-12T08:26:58Z</time></trkpt><trkpt lat="42.01908540442102" lon="14.379868015878165"><ele>603.0</ele><time>2026-04-12T08:27:00Z</time></trkpt><trkpt lat="42.01913336900671" lon="14.379807886001116"><ele>603.0</ele><time>2026-04-12T08:27:01Z</time></trkpt><trkpt lat="42.01924859496138" lon="14.379704893329203"><ele>603.0</ele><time>2026-04-12T08:27:03Z</time></trkpt><trkpt lat="42.01931114291333" lon="14.37965004791483"><ele>603.0</ele><time>2026-04-12T08:27:04Z</time></trkpt><trkpt lat="42.01937337854915" lon="14.379609002629412"><ele>603.0</ele><time>2026-04-12T08:27:05Z</time></trkpt><trkpt lat="42.01944075942645" lon="14.379579469954248"><ele>603.0</ele><time>2026-04-12T08:27:06Z</time></trkpt><trkpt lat="42.01951279841222" lon="14.379588331724289"><ele>602.6666666666666</ele><time>2026-04-12T08:27:07Z</time></trkpt><trkpt lat="42.01959115223531" lon="14.37956435816634"><ele>602.3333333333334</ele><time>2026-04-12T08:27:08Z</time></trkpt><trkpt lat="42.019662092157674" lon="14.379572640788927"><ele>602.0</ele><time>2026-04-12T08:27:09Z</time></trkpt><trkpt lat="42.01972651738267" lon="14.379578716232592"><ele>601.6666666666667</ele><time>2026-04-12T08:27:10Z</time></trkpt><trkpt lat="42.01984336609205" lon="14.379572343567167"><ele>601.3333333333334</ele><time>2026-04-12T08:27:12Z</time></trkpt><trkpt lat="42.01995273775957" lon="14.379605971943832"><ele>601.0</ele><time>2026-04-12T08:27:14Z</time></trkpt><trkpt lat="42.02007030688457" lon="14.379649426737855"><ele>602.3333333333334</ele><time>2026-04-12T08:27:16Z</time></trkpt><trkpt lat="42.02013076568865" lon="14.379687421332696"><ele>603.6666666666667</ele><time>2026-04-12T08:27:17Z</time></trkpt><trkpt lat="42.020188921904655" lon="14.37973509647355"><ele>605.0</ele><time>2026-04-12T08:27:18Z</time></trkpt><trkpt lat="42.02024928823636" lon="14.379798614661771"><ele>606.3333333333334</ele><time>2026-04-12T08:27:19Z</time></trkpt><trkpt lat="42.020324406039336" lon="14.379850542080819"><ele>607.6666666666666</ele><time>2026-04-12T08:27:20Z</time></trkpt><trkpt lat="42.02038617654608" lon="14.379941932721431"><ele>609.0</ele><time>2026-04-12T08:27:20.999Z</time></trkpt><trkpt lat="42.020466606189935" lon="14.380008323494216"><ele>609.0</ele><time>2026-04-12T08:27:21.999Z</time></trkpt><trkpt lat="42.02054357279999" lon="14.380060531685682"><ele>609.0</ele><time>2026-04-12T08:27:22.999Z</time></trkpt><trkpt lat="42.02060984133827" lon="14.380107588152732"><ele>609.0</ele><time>2026-04-12T08:27:23.999Z</time></trkpt><trkpt lat="42.02066482431124" lon="14.380152568066945"><ele>609.0</ele><time>2026-04-12T08:27:24.999Z</time></trkpt><trkpt lat="42.020754193451566" lon="14.380254624408463"><ele>609.0</ele><time>2026-04-12T08:27:26.999Z</time></trkpt><trkpt lat="42.02080175197221" lon="14.380398212731425"><ele>609.0</ele><time>2026-04-12T08:27:28.999Z</time></trkpt><trkpt lat="42.02077676851879" lon="14.380478817310728"><ele>609.0</ele><time>2026-04-12T08:27:29.999Z</time></trkpt><trkpt lat="42.02078769799218" lon="14.380563245493425"><ele>609.0</ele><time>2026-04-12T08:27:30.999Z</time></trkpt><trkpt lat="42.02083280308656" lon="14.380658952963941"><ele>609.0</ele><time>2026-04-12T08:27:31.999Z</time></trkpt><trkpt lat="42.02090388997562" lon="14.380723251201035"><ele>609.0</ele><time>2026-04-12T08:27:32.999Z</time></trkpt><trkpt lat="42.020985819673676" lon="14.380739788317987"><ele>609.0</ele><time>2026-04-12T08:27:33.999Z</time></trkpt><trkpt lat="42.02106146697333" lon="14.38069502966287"><ele>608.0</ele><time>2026-04-12T08:27:34.999Z</time></trkpt><trkpt lat="42.02111924277811" lon="14.380658430791103"><ele>607.0</ele><time>2026-04-12T08:27:35.999Z</time></trkpt><trkpt lat="42.021168534037876" lon="14.380595786786573"><ele>606.0</ele><time>2026-04-12T08:27:36.999Z</time></trkpt><trkpt lat="42.0212186940592" lon="14.380536307100252"><ele>605.0</ele><time>2026-04-12T08:27:37.999Z</time></trkpt><trkpt lat="42.02128682101846" lon="14.380429432072646"><ele>604.0</ele><time>2026-04-12T08:27:39.999Z</time></trkpt><trkpt lat="42.02136828831568" lon="14.380338896424723"><ele>603.0</ele><time>2026-04-12T08:27:41.999Z</time></trkpt><trkpt lat="42.0214440377155" lon="14.380242593715511"><ele>601.1999999999999</ele><time>2026-04-12T08:27:43.999Z</time></trkpt><trkpt lat="42.02152840447004" lon="14.380140103716208"><ele>599.4</ele><time>2026-04-12T08:27:45.999Z</time></trkpt><trkpt lat="42.0216124779877" lon="14.38003140161483"><ele>597.5999999999999</ele><time>2026-04-12T08:27:47.999Z</time></trkpt><trkpt lat="42.02169506920186" lon="14.379931772622843"><ele>595.8</ele><time>2026-04-12T08:27:49.999Z</time></trkpt><trkpt lat="42.02174301136748" lon="14.379875060035696"><ele>594.0</ele><time>2026-04-12T08:27:50.999Z</time></trkpt><trkpt lat="42.02182876842066" lon="14.379768638763325"><ele>590.6</ele><time>2026-04-12T08:27:52.999Z</time></trkpt><trkpt lat="42.021908142168535" lon="14.379676317308654"><ele>587.2</ele><time>2026-04-12T08:27:54.999Z</time></trkpt><trkpt lat="42.02198454700242" lon="14.379585740216587"><ele>583.8000000000001</ele><time>2026-04-12T08:27:56.999Z</time></trkpt><trkpt lat="42.02203442977878" lon="14.379522037203532"><ele>580.4</ele><time>2026-04-12T08:27:58.999Z</time></trkpt><trkpt lat="42.02210927902589" lon="14.379474435374677"><ele>577.0</ele><time>2026-04-12T08:28:01.999Z</time></trkpt><trkpt lat="42.0221626149976" lon="14.379354575833435"><ele>577.0</ele><time>2026-04-12T08:28:03.999Z</time></trkpt><trkpt lat="42.02224253569351" lon="14.379298291500117"><ele>577.0</ele><time>2026-04-12T08:28:05.999Z</time></trkpt><trkpt lat="42.02233145619437" lon="14.379287915703847"><ele>577.0</ele><time>2026-04-12T08:28:07.999Z</time></trkpt><trkpt lat="42.02242675895942" lon="14.379297382505438"><ele>577.0</ele><time>2026-04-12T08:28:09.999Z</time></trkpt><trkpt lat="42.0225107352927" lon="14.37930424362848"><ele>577.0</ele><time>2026-04-12T08:28:11.999Z</time></trkpt><trkpt lat="42.022597466685546" lon="14.379311434326866"><ele>577.0</ele><time>2026-04-12T08:28:13.999Z</time></trkpt><trkpt lat="42.02282368571715" lon="14.379272268027448"><ele>576.6</ele><time>2026-04-12T08:28:19.999Z</time></trkpt><trkpt lat="42.02290287027741" lon="14.3792171940062"><ele>576.2</ele><time>2026-04-12T08:28:21.998Z</time></trkpt><trkpt lat="42.02298771690863" lon="14.379149493838627"><ele>575.8</ele><time>2026-04-12T08:28:23.998Z</time></trkpt><trkpt lat="42.023084107212746" lon="14.379075888753988"><ele>575.4</ele><time>2026-04-12T08:28:26Z</time></trkpt><trkpt lat="42.02317238299878" lon="14.379005455395728"><ele>575.0</ele><time>2026-04-12T08:28:28Z</time></trkpt><trkpt lat="42.02325001751631" lon="14.378936422582795"><ele>574.0</ele><time>2026-04-12T08:28:30Z</time></trkpt><trkpt lat="42.02332798167671" lon="14.378846861740023"><ele>573.0</ele><time>2026-04-12T08:28:32Z</time></trkpt><trkpt lat="42.023396328565696" lon="14.378738102624432"><ele>572.0</ele><time>2026-04-12T08:28:34Z</time></trkpt><trkpt lat="42.02346215119414" lon="14.378647391363465"><ele>571.0</ele><time>2026-04-12T08:28:36Z</time></trkpt><trkpt lat="42.023511957024375" lon="14.378563428724691"><ele>570.0</ele><time>2026-04-12T08:28:38Z</time></trkpt><trkpt lat="42.02356332337543" lon="14.378494749371256"><ele>570.0</ele><time>2026-04-12T08:28:41Z</time></trkpt><trkpt lat="42.02362023482054" lon="14.378449452382206"><ele>570.0</ele><time>2026-04-12T08:28:46Z</time></trkpt><trkpt lat="42.02355543520744" lon="14.378453795894035"><ele>570.0</ele><time>2026-04-12T08:28:52Z</time></trkpt><trkpt lat="42.023500642260466" lon="14.378504384584154"><ele>570.0</ele><time>2026-04-12T08:28:59Z</time></trkpt><trkpt lat="42.023571868832065" lon="14.378470342273479"><ele>570.0</ele><time>2026-04-12T08:29:42.999Z</time></trkpt><trkpt lat="42.02362941457425" lon="14.378410776390663"><ele>570.0</ele><time>2026-04-12T08:29:45.999Z</time></trkpt><trkpt lat="42.02369224311197" lon="14.37837941581856"><ele>570.0</ele><time>2026-04-12T08:29:47.999Z</time></trkpt><trkpt lat="42.02376381102915" lon="14.378322921906188"><ele>570.0</ele><time>2026-04-12T08:29:49.999Z</time></trkpt><trkpt lat="42.02383659472879" lon="14.378264263854945"><ele>570.0</ele><time>2026-04-12T08:29:51.999Z</time></trkpt><trkpt lat="42.02393131243915" lon="14.378208100359384"><ele>570.0</ele><time>2026-04-12T08:29:53.999Z</time></trkpt><trkpt lat="42.02403556002522" lon="14.378139804656216"><ele>570.0</ele><time>2026-04-12T08:29:55.999Z</time></trkpt><trkpt lat="42.02415570226268" lon="14.378088873112484"><ele>570.0</ele><time>2026-04-12T08:29:57.999Z</time></trkpt><trkpt lat="42.02427024017875" lon="14.37804189744011"><ele>567.8</ele><time>2026-04-12T08:29:59.999Z</time></trkpt><trkpt lat="42.024367821255936" lon="14.377954250052538"><ele>565.6</ele><time>2026-04-12T08:30:01.999Z</time></trkpt><trkpt lat="42.02440730392619" lon="14.377821387479477"><ele>563.4</ele><time>2026-04-12T08:30:03.999Z</time></trkpt><trkpt lat="42.02439578031902" lon="14.377690023238328"><ele>561.2</ele><time>2026-04-12T08:30:05.999Z</time></trkpt><trkpt lat="42.02431971584458" lon="14.377575414989948"><ele>559.0</ele><time>2026-04-12T08:30:07.999Z</time></trkpt><trkpt lat="42.02426170729172" lon="14.37754090155201"><ele>559.0</ele><time>2026-04-12T08:30:08.999Z</time></trkpt><trkpt lat="42.02419227419624" lon="14.377526035456098"><ele>559.0</ele><time>2026-04-12T08:30:09.999Z</time></trkpt><trkpt lat="42.02411733842297" lon="14.3775258419621"><ele>559.0</ele><time>2026-04-12T08:30:10.999Z</time></trkpt><trkpt lat="42.02404315564025" lon="14.377535099424454"><ele>559.0</ele><time>2026-04-12T08:30:11.999Z</time></trkpt><trkpt lat="42.023967363255466" lon="14.377538317482955"><ele>559.0</ele><time>2026-04-12T08:30:12.999Z</time></trkpt><trkpt lat="42.023891587313464" lon="14.377536948782128"><ele>559.0</ele><time>2026-04-12T08:30:13.999Z</time></trkpt><trkpt lat="42.023815011626596" lon="14.377538550943115"><ele>559.0</ele><time>2026-04-12T08:30:14.999Z</time></trkpt><trkpt lat="42.023738699724696" lon="14.377539722037096"><ele>558.8333333333334</ele><time>2026-04-12T08:30:15.999Z</time></trkpt><trkpt lat="42.0236627024171" lon="14.37753955820656"><ele>558.6666666666667</ele><time>2026-04-12T08:30:16.999Z</time></trkpt><trkpt lat="42.023585668487556" lon="14.377535804580358"><ele>558.5</ele><time>2026-04-12T08:30:17.998Z</time></trkpt><trkpt lat="42.0235098779461" lon="14.377518200628884"><ele>558.3333333333334</ele><time>2026-04-12T08:30:18.998Z</time></trkpt><trkpt lat="42.0234333072014" lon="14.377495268868774"><ele>558.1666666666666</ele><time>2026-04-12T08:30:19.998Z</time></trkpt><trkpt lat="42.023355587407956" lon="14.377475793868305"><ele>558.0</ele><time>2026-04-12T08:30:20.998Z</time></trkpt><trkpt lat="42.02327862258393" lon="14.377463892630736"><ele>557.8333333333334</ele><time>2026-04-12T08:30:21.998Z</time></trkpt><trkpt lat="42.02320552233497" lon="14.377448769627954"><ele>557.6666666666666</ele><time>2026-04-12T08:30:22.998Z</time></trkpt><trkpt lat="42.02313564254933" lon="14.377432150665086"><ele>557.5</ele><time>2026-04-12T08:30:23.998Z</time></trkpt><trkpt lat="42.02306617321907" lon="14.377420886003817"><ele>557.3333333333333</ele><time>2026-04-12T08:30:24.998Z</time></trkpt><trkpt lat="42.02300184548126" lon="14.37740804945351"><ele>557.1666666666666</ele><time>2026-04-12T08:30:25.998Z</time></trkpt><trkpt lat="42.022884893637425" lon="14.377379232560248"><ele>557.0</ele><time>2026-04-12T08:30:27.998Z</time></trkpt><trkpt lat="42.02278421643546" lon="14.377308238887844"><ele>554.2</ele><time>2026-04-12T08:30:30Z</time></trkpt><trkpt lat="42.022719605610874" lon="14.37717025536338"><ele>551.4000000000001</ele><time>2026-04-12T08:30:32Z</time></trkpt><trkpt lat="42.02275764357057" lon="14.377018820325759"><ele>548.5999999999999</ele><time>2026-04-12T08:30:34Z</time></trkpt><trkpt lat="42.02285065066372" lon="14.376903951325923"><ele>545.8</ele><time>2026-04-12T08:30:36Z</time></trkpt><trkpt lat="42.02291438599774" lon="14.376879264603234"><ele>543.0</ele><time>2026-04-12T08:30:37Z</time></trkpt><trkpt lat="42.0229830571421" lon="14.376880937490412"><ele>543.0</ele><time>2026-04-12T08:30:38Z</time></trkpt><trkpt lat="42.0230522158225" lon="14.376894470094424"><ele>543.0</ele><time>2026-04-12T08:30:39Z</time></trkpt><trkpt lat="42.023120918757755" lon="14.376903376782074"><ele>543.0</ele><time>2026-04-12T08:30:40Z</time></trkpt><trkpt lat="42.02318950046465" lon="14.37691292414136"><ele>543.0</ele><time>2026-04-12T08:30:41Z</time></trkpt><trkpt lat="42.023260136261335" lon="14.37691263043161"><ele>543.0</ele><time>2026-04-12T08:30:42Z</time></trkpt><trkpt lat="42.023328923539566" lon="14.37689448823752"><ele>543.0</ele><time>2026-04-12T08:30:43Z</time></trkpt><trkpt lat="42.02339396248568" lon="14.376867789938844"><ele>543.0</ele><time>2026-04-12T08:30:44Z</time></trkpt><trkpt lat="42.02345772884187" lon="14.376837220336684"><ele>543.4285714285714</ele><time>2026-04-12T08:30:45Z</time></trkpt><trkpt lat="42.02352589535235" lon="14.376810254308165"><ele>543.8571428571429</ele><time>2026-04-12T08:30:46Z</time></trkpt><trkpt lat="42.023596518959955" lon="14.37678656310436"><ele>544.2857142857142</ele><time>2026-04-12T08:30:47Z</time></trkpt><trkpt lat="42.023669734819435" lon="14.376763135900148"><ele>544.7142857142858</ele><time>2026-04-12T08:30:48Z</time></trkpt><trkpt lat="42.0237449763898" lon="14.376749692299093"><ele>545.1428571428571</ele><time>2026-04-12T08:30:49Z</time></trkpt><trkpt lat="42.023820436952306" lon="14.37674493234638"><ele>545.5714285714286</ele><time>2026-04-12T08:30:50Z</time></trkpt><trkpt lat="42.02389607540748" lon="14.376753337264208"><ele>546.0</ele><time>2026-04-12T08:30:51Z</time></trkpt><trkpt lat="42.02397386178334" lon="14.376773306482832"><ele>546.0</ele><time>2026-04-12T08:30:52Z</time></trkpt><trkpt lat="42.02405066102724" lon="14.376799278909933"><ele>546.0</ele><time>2026-04-12T08:30:53Z</time></trkpt><trkpt lat="42.02412859029748" lon="14.37682684254847"><ele>546.0</ele><time>2026-04-12T08:30:54Z</time></trkpt><trkpt lat="42.024208493053116" lon="14.376852933749646"><ele>546.0</ele><time>2026-04-12T08:30:55Z</time></trkpt><trkpt lat="42.0242908915536" lon="14.376876609882807"><ele>546.0</ele><time>2026-04-12T08:30:56Z</time></trkpt><trkpt lat="42.02437273014844" lon="14.376899857712308"><ele>546.0</ele><time>2026-04-12T08:30:57Z</time></trkpt><trkpt lat="42.02445099732946" lon="14.376923306924937"><ele>545.5</ele><time>2026-04-12T08:30:58Z</time></trkpt><trkpt lat="42.02452767491237" lon="14.376947551009765"><ele>545.0</ele><time>2026-04-12T08:30:59Z</time></trkpt><trkpt lat="42.024602323320636" lon="14.376968300931242"><ele>544.5</ele><time>2026-04-12T08:31:00Z</time></trkpt><trkpt lat="42.02467578368698" lon="14.376992480513982"><ele>544.0</ele><time>2026-04-12T08:31:01Z</time></trkpt><trkpt lat="42.02474892763721" lon="14.377017514952968"><ele>543.5</ele><time>2026-04-12T08:31:02Z</time></trkpt><trkpt lat="42.024820757684736" lon="14.377040780596992"><ele>543.0</ele><time>2026-04-12T08:31:03Z</time></trkpt><trkpt lat="42.02489373496597" lon="14.377068360967806"><ele>543.0</ele><time>2026-04-12T08:31:04Z</time></trkpt><trkpt lat="42.02496149358072" lon="14.377101139827829"><ele>543.0</ele><time>2026-04-12T08:31:05Z</time></trkpt><trkpt lat="42.02502669617991" lon="14.377138536699258"><ele>543.0</ele><time>2026-04-12T08:31:06Z</time></trkpt><trkpt lat="42.02508725572566" lon="14.377184942830084"><ele>543.0</ele><time>2026-04-12T08:31:07Z</time></trkpt><trkpt lat="42.025149644699994" lon="14.377227212126199"><ele>543.0</ele><time>2026-04-12T08:31:08Z</time></trkpt><trkpt lat="42.025211791174335" lon="14.377263970126931"><ele>543.0</ele><time>2026-04-12T08:31:09Z</time></trkpt><trkpt lat="42.02527234545323" lon="14.37729949789635"><ele>543.0</ele><time>2026-04-12T08:31:10Z</time></trkpt><trkpt lat="42.02537052115052" lon="14.3773429213356"><ele>542.4</ele><time>2026-04-12T08:31:12Z</time></trkpt><trkpt lat="42.02546177745736" lon="14.377292845688432"><ele>541.8</ele><time>2026-04-12T08:31:14Z</time></trkpt><trkpt lat="42.0255100578105" lon="14.377174682309109"><ele>541.2</ele><time>2026-04-12T08:31:16Z</time></trkpt><trkpt lat="42.025462771712654" lon="14.377026772412696"><ele>540.6</ele><time>2026-04-12T08:31:18Z</time></trkpt><trkpt lat="42.025443888163316" lon="14.376944821397096"><ele>540.0</ele><time>2026-04-12T08:31:19Z</time></trkpt><trkpt lat="42.025401074877266" lon="14.37687138234076"><ele>540.0</ele><time>2026-04-12T08:31:20Z</time></trkpt><trkpt lat="42.02536331691755" lon="14.376788429522211"><ele>540.0</ele><time>2026-04-12T08:31:21Z</time></trkpt><trkpt lat="42.025323621369246" lon="14.37670640823798"><ele>540.0</ele><time>2026-04-12T08:31:21.999Z</time></trkpt><trkpt lat="42.02528146120166" lon="14.376622299387499"><ele>540.0</ele><time>2026-04-12T08:31:22.999Z</time></trkpt><trkpt lat="42.025238301797714" lon="14.37654147692585"><ele>540.0</ele><time>2026-04-12T08:31:23.999Z</time></trkpt><trkpt lat="42.0251978917063" lon="14.37645295520053"><ele>540.0</ele><time>2026-04-12T08:31:24.999Z</time></trkpt><trkpt lat="42.025153580164485" lon="14.376364239446602"><ele>539.3333333333334</ele><time>2026-04-12T08:31:25.999Z</time></trkpt><trkpt lat="42.02510877560805" lon="14.376272799948904"><ele>538.6666666666666</ele><time>2026-04-12T08:31:26.999Z</time></trkpt><trkpt lat="42.02506521842805" lon="14.376179034552756"><ele>538.0</ele><time>2026-04-12T08:31:27.999Z</time></trkpt><trkpt lat="42.025022135144276" lon="14.376083858285929"><ele>537.3333333333333</ele><time>2026-04-12T08:31:28.999Z</time></trkpt><trkpt lat="42.024977215233626" lon="14.375992163814262"><ele>536.6666666666666</ele><time>2026-04-12T08:31:29.999Z</time></trkpt><trkpt lat="42.02493255022766" lon="14.375899045268481"><ele>536.0</ele><time>2026-04-12T08:31:30.999Z</time></trkpt><trkpt lat="42.024888730276686" lon="14.375804482199275"><ele>536.0</ele><time>2026-04-12T08:31:31.999Z</time></trkpt><trkpt lat="42.02484495925111" lon="14.37569721229284"><ele>536.0</ele><time>2026-04-12T08:31:32.999Z</time></trkpt><trkpt lat="42.02479780381319" lon="14.375608220773927"><ele>536.0</ele><time>2026-04-12T08:31:33.999Z</time></trkpt><trkpt lat="42.02475137255854" lon="14.375515175360299"><ele>536.0</ele><time>2026-04-12T08:31:34.999Z</time></trkpt><trkpt lat="42.024706370857956" lon="14.37542461480163"><ele>536.0</ele><time>2026-04-12T08:31:35.999Z</time></trkpt><trkpt lat="42.02466579638311" lon="14.375336816022594"><ele>536.0</ele><time>2026-04-12T08:31:36.999Z</time></trkpt><trkpt lat="42.02462469116729" lon="14.375248547843986"><ele>534.8333333333333</ele><time>2026-04-12T08:31:37.999Z</time></trkpt><trkpt lat="42.02457984014958" lon="14.375151139545917"><ele>533.6666666666666</ele><time>2026-04-12T08:31:38.999Z</time></trkpt><trkpt lat="42.02454109330897" lon="14.37505460631585"><ele>532.5</ele><time>2026-04-12T08:31:39.999Z</time></trkpt><trkpt lat="42.02451136476036" lon="14.37495009014464"><ele>531.3333333333334</ele><time>2026-04-12T08:31:40.999Z</time></trkpt><trkpt lat="42.02448815437804" lon="14.37484343886232"><ele>530.1666666666667</ele><time>2026-04-12T08:31:41.999Z</time></trkpt><trkpt lat="42.02446565327943" lon="14.37473442765968"><ele>529.0</ele><time>2026-04-12T08:31:42.999Z</time></trkpt><trkpt lat="42.024450322644014" lon="14.374622703333205"><ele>527.6666666666667</ele><time>2026-04-12T08:31:43.999Z</time></trkpt><trkpt lat="42.024438163894295" lon="14.37452386677476"><ele>526.3333333333334</ele><time>2026-04-12T08:31:44.999Z</time></trkpt><trkpt lat="42.02442416834241" lon="14.374416747085284"><ele>525.0</ele><time>2026-04-12T08:31:45.999Z</time></trkpt><trkpt lat="42.024411783301936" lon="14.374308868077096"><ele>523.6666666666666</ele><time>2026-04-12T08:31:46.999Z</time></trkpt><trkpt lat="42.0243972170334" lon="14.374209664632817"><ele>522.3333333333333</ele><time>2026-04-12T08:31:47.999Z</time></trkpt><trkpt lat="42.02437918796609" lon="14.374113857878575"><ele>521.0</ele><time>2026-04-12T08:31:48.999Z</time></trkpt><trkpt lat="42.024352268642154" lon="14.374022058617362"><ele>521.0</ele><time>2026-04-12T08:31:49.999Z</time></trkpt><trkpt lat="42.024311439799575" lon="14.373933777502096"><ele>521.0</ele><time>2026-04-12T08:31:50.999Z</time></trkpt><trkpt lat="42.02425448678687" lon="14.373863513920954"><ele>521.0</ele><time>2026-04-12T08:31:51.999Z</time></trkpt><trkpt lat="42.024183390252254" lon="14.373816546619036"><ele>521.0</ele><time>2026-04-12T08:31:52.999Z</time></trkpt><trkpt lat="42.02409935585305" lon="14.373786378604043"><ele>521.0</ele><time>2026-04-12T08:31:53.999Z</time></trkpt><trkpt lat="42.02401531656712" lon="14.373761976649725"><ele>521.0</ele><time>2026-04-12T08:31:54.999Z</time></trkpt><trkpt lat="42.02393057372305" lon="14.373740246451627"><ele>519.0</ele><time>2026-04-12T08:31:55.999Z</time></trkpt><trkpt lat="42.02384239037489" lon="14.37371551545664"><ele>517.0</ele><time>2026-04-12T08:31:56.999Z</time></trkpt><trkpt lat="42.02375241674602" lon="14.373691330233937"><ele>515.0</ele><time>2026-04-12T08:31:57.999Z</time></trkpt><trkpt lat="42.023661276489605" lon="14.373667409345703"><ele>513.0</ele><time>2026-04-12T08:31:58.999Z</time></trkpt><trkpt lat="42.02356942321655" lon="14.373637906015887"><ele>511.0</ele><time>2026-04-12T08:31:59.999Z</time></trkpt><trkpt lat="42.02348962456098" lon="14.373613100094046"><ele>511.0</ele><time>2026-04-12T08:32:00.999Z</time></trkpt><trkpt lat="42.02341699638269" lon="14.373593043525359"><ele>511.0</ele><time>2026-04-12T08:32:01.999Z</time></trkpt><trkpt lat="42.023350360102775" lon="14.373570201005483"><ele>511.0</ele><time>2026-04-12T08:32:02.999Z</time></trkpt><trkpt lat="42.023291475982695" lon="14.373532440564741"><ele>511.0</ele><time>2026-04-12T08:32:03.999Z</time></trkpt><trkpt lat="42.02324485017845" lon="14.373470170882214"><ele>511.0</ele><time>2026-04-12T08:32:04.999Z</time></trkpt><trkpt lat="42.023206573468265" lon="14.373397924817832"><ele>511.0</ele><time>2026-04-12T08:32:05.999Z</time></trkpt><trkpt lat="42.023203191649365" lon="14.373292831319796"><ele>511.0</ele><time>2026-04-12T08:32:06.999Z</time></trkpt><trkpt lat="42.023262398806246" lon="14.373200631941296"><ele>511.00000000000006</ele><time>2026-04-12T08:32:07.999Z</time></trkpt><trkpt lat="42.02332644249726" lon="14.373139083067473"><ele>511.0</ele><time>2026-04-12T08:32:08.999Z</time></trkpt><trkpt lat="42.02340720176448" lon="14.373120079792635"><ele>511.0</ele><time>2026-04-12T08:32:09.999Z</time></trkpt><trkpt lat="42.02349238032143" lon="14.373130651548806"><ele>511.0</ele><time>2026-04-12T08:32:10.999Z</time></trkpt><trkpt lat="42.02358032111827" lon="14.373141170941583"><ele>511.00000000000006</ele><time>2026-04-12T08:32:11.999Z</time></trkpt><trkpt lat="42.02366540410089" lon="14.373135350828429"><ele>511.0</ele><time>2026-04-12T08:32:12.999Z</time></trkpt><trkpt lat="42.02375603095752" lon="14.373139265646165"><ele>511.0</ele><time>2026-04-12T08:32:13.999Z</time></trkpt><trkpt lat="42.0238501040666" lon="14.373159038814377"><ele>511.0</ele><time>2026-04-12T08:32:14.999Z</time></trkpt><trkpt lat="42.02394322467927" lon="14.373173717979332"><ele>511.0</ele><time>2026-04-12T08:32:15.999Z</time></trkpt><trkpt lat="42.02404006894316" lon="14.373179095805455"><ele>511.0</ele><time>2026-04-12T08:32:16.999Z</time></trkpt><trkpt lat="42.02413627572872" lon="14.373195210135526"><ele>511.0</ele><time>2026-04-12T08:32:17.999Z</time></trkpt><trkpt lat="42.02423243768702" lon="14.373222213070274"><ele>510.33333333333337</ele><time>2026-04-12T08:32:18.999Z</time></trkpt><trkpt lat="42.02433051912611" lon="14.37324001893359"><ele>509.6666666666667</ele><time>2026-04-12T08:32:19.999Z</time></trkpt><trkpt lat="42.02442598476608" lon="14.373258013698846"><ele>509.0</ele><time>2026-04-12T08:32:20.998Z</time></trkpt><trkpt lat="42.024509716704515" lon="14.373277578434996"><ele>508.33333333333337</ele><time>2026-04-12T08:32:21.998Z</time></trkpt><trkpt lat="42.02457991069918" lon="14.373304769273686"><ele>507.6666666666667</ele><time>2026-04-12T08:32:22.998Z</time></trkpt><trkpt lat="42.02465430107437" lon="14.373343807429329"><ele>507.0</ele><time>2026-04-12T08:32:23.998Z</time></trkpt><trkpt lat="42.02472122919961" lon="14.373398770170798"><ele>507.0</ele><time>2026-04-12T08:32:24.998Z</time></trkpt><trkpt lat="42.02476452486848" lon="14.37350686652313"><ele>507.0</ele><time>2026-04-12T08:32:25.998Z</time></trkpt><trkpt lat="42.024823173842066" lon="14.373594425352843"><ele>507.0</ele><time>2026-04-12T08:32:26.998Z</time></trkpt><trkpt lat="42.02488731192725" lon="14.373657712182808"><ele>507.0</ele><time>2026-04-12T08:32:27.998Z</time></trkpt><trkpt lat="42.024948806230036" lon="14.373723057967615"><ele>507.0</ele><time>2026-04-12T08:32:28.998Z</time></trkpt><trkpt lat="42.02501796913281" lon="14.373769886059147"><ele>507.0</ele><time>2026-04-12T08:32:29.998Z</time></trkpt><trkpt lat="42.025099784720624" lon="14.373790396217423"><ele>504.6666666666667</ele><time>2026-04-12T08:32:30.998Z</time></trkpt><trkpt lat="42.02518606414885" lon="14.373779235286497"><ele>502.33333333333337</ele><time>2026-04-12T08:32:31.998Z</time></trkpt><trkpt lat="42.02526502880838" lon="14.373740002279352"><ele>500.0</ele><time>2026-04-12T08:32:32.998Z</time></trkpt><trkpt lat="42.02533100352389" lon="14.373683303863933"><ele>497.6666666666667</ele><time>2026-04-12T08:32:33.998Z</time></trkpt><trkpt lat="42.02539570979646" lon="14.373656403210347"><ele>495.33333333333337</ele><time>2026-04-12T08:32:34.998Z</time></trkpt><trkpt lat="42.02549084266662" lon="14.37355086666064"><ele>493.0</ele><time>2026-04-12T08:32:37Z</time></trkpt><trkpt lat="42.02552108115904" lon="14.373467810409391"><ele>493.00000000000006</ele><time>2026-04-12T08:32:38Z</time></trkpt><trkpt lat="42.02553773388738" lon="14.373372691551538"><ele>493.0</ele><time>2026-04-12T08:32:39Z</time></trkpt><trkpt lat="42.025544388923436" lon="14.373274474112698"><ele>493.0</ele><time>2026-04-12T08:32:40Z</time></trkpt><trkpt lat="42.02554275386859" lon="14.373170570145678"><ele>493.0</ele><time>2026-04-12T08:32:41Z</time></trkpt><trkpt lat="42.02552983482572" lon="14.373061764954905"><ele>493.00000000000006</ele><time>2026-04-12T08:32:42Z</time></trkpt><trkpt lat="42.02551129516663" lon="14.372962185322764"><ele>493.0</ele><time>2026-04-12T08:32:43Z</time></trkpt><trkpt lat="42.025481432645506" lon="14.372871985670724"><ele>491.00000000000006</ele><time>2026-04-12T08:32:44Z</time></trkpt><trkpt lat="42.02543639256083" lon="14.372791246558801"><ele>489.0</ele><time>2026-04-12T08:32:45Z</time></trkpt><trkpt lat="42.02537092078406" lon="14.37273368353279"><ele>487.0</ele><time>2026-04-12T08:32:46Z</time></trkpt><trkpt lat="42.0253051057904" lon="14.37269534813698"><ele>485.0</ele><time>2026-04-12T08:32:47Z</time></trkpt><trkpt lat="42.025205836090706" lon="14.372610484393665"><ele>483.00000000000006</ele><time>2026-04-12T08:32:49Z</time></trkpt><trkpt lat="42.02515114432354" lon="14.37255408034308"><ele>481.0</ele><time>2026-04-12T08:32:50Z</time></trkpt><trkpt lat="42.0251395885387" lon="14.372450446062118"><ele>481.00000000000006</ele><time>2026-04-12T08:32:51Z</time></trkpt><trkpt lat="42.02518494505244" lon="14.372351270316425"><ele>481.0</ele><time>2026-04-12T08:32:52Z</time></trkpt><trkpt lat="42.02523232307298" lon="14.37226661380306"><ele>481.0</ele><time>2026-04-12T08:32:53Z</time></trkpt><trkpt lat="42.025290245901594" lon="14.372193578981248"><ele>481.0</ele><time>2026-04-12T08:32:54Z</time></trkpt><trkpt lat="42.02533696132694" lon="14.37211631514839"><ele>481.00000000000006</ele><time>2026-04-12T08:32:55Z</time></trkpt><trkpt lat="42.02536608824326" lon="14.372020790242383"><ele>481.0</ele><time>2026-04-12T08:32:56Z</time></trkpt><trkpt lat="42.02536355477651" lon="14.371905991250658"><ele>479.6</ele><time>2026-04-12T08:32:57Z</time></trkpt><trkpt lat="42.025338007498654" lon="14.371792435133683"><ele>478.20000000000005</ele><time>2026-04-12T08:32:58Z</time></trkpt><trkpt lat="42.025312367786434" lon="14.371682989532605"><ele>476.79999999999995</ele><time>2026-04-12T08:32:59Z</time></trkpt><trkpt lat="42.025269913945934" lon="14.371583092289285"><ele>475.4</ele><time>2026-04-12T08:33:00Z</time></trkpt><trkpt lat="42.02527751615193" lon="14.37145247463843"><ele>474.0</ele><time>2026-04-12T08:33:01Z</time></trkpt><trkpt lat="42.02531488788675" lon="14.371336715722958"><ele>472.6</ele><time>2026-04-12T08:33:02Z</time></trkpt><trkpt lat="42.02535112263351" lon="14.371225144572088"><ele>471.2</ele><time>2026-04-12T08:33:03Z</time></trkpt><trkpt lat="42.02539259394438" lon="14.371113438200654"><ele>469.80000000000007</ele><time>2026-04-12T08:33:04Z</time></trkpt><trkpt lat="42.025435521061915" lon="14.371000560740217"><ele>468.40000000000003</ele><time>2026-04-12T08:33:05Z</time></trkpt><trkpt lat="42.025475667644294" lon="14.370883318687174"><ele>467.0</ele><time>2026-04-12T08:33:06Z</time></trkpt><trkpt lat="42.025514251077894" lon="14.370764415884148"><ele>467.0</ele><time>2026-04-12T08:33:07Z</time></trkpt><trkpt lat="42.02555322188513" lon="14.37065436693542"><ele>467.00000000000006</ele><time>2026-04-12T08:33:08Z</time></trkpt><trkpt lat="42.02561033051184" lon="14.370555451470024"><ele>467.00000000000006</ele><time>2026-04-12T08:33:09Z</time></trkpt><trkpt lat="42.02565955096056" lon="14.370448564795028"><ele>467.0</ele><time>2026-04-12T08:33:10Z</time></trkpt><trkpt lat="42.025721364801534" lon="14.370349178273477"><ele>467.0</ele><time>2026-04-12T08:33:11Z</time></trkpt><trkpt lat="42.025797627637345" lon="14.37026175989609"><ele>466.8</ele><time>2026-04-12T08:33:12Z</time></trkpt><trkpt lat="42.02588062689035" lon="14.370182732967583"><ele>466.6</ele><time>2026-04-12T08:33:13Z</time></trkpt><trkpt lat="42.025968724640386" lon="14.370106510382918"><ele>466.40000000000003</ele><time>2026-04-12T08:33:14Z</time></trkpt><trkpt lat="42.02605856445537" lon="14.370028252023262"><ele>466.20000000000005</ele><time>2026-04-12T08:33:15Z</time></trkpt><trkpt lat="42.026150362725616" lon="14.369948699483123"><ele>466.0</ele><time>2026-04-12T08:33:16Z</time></trkpt><trkpt lat="42.026244233476376" lon="14.369868904766912"><ele>466.0</ele><time>2026-04-12T08:33:17Z</time></trkpt><trkpt lat="42.0263305272896" lon="14.369792720574551"><ele>466.0</ele><time>2026-04-12T08:33:18Z</time></trkpt><trkpt lat="42.026413616928394" lon="14.36972183156298"><ele>466.0</ele><time>2026-04-12T08:33:19Z</time></trkpt><trkpt lat="42.02649750700201" lon="14.369650790886197"><ele>466.0</ele><time>2026-04-12T08:33:20Z</time></trkpt><trkpt lat="42.02658601682715" lon="14.369584709580394"><ele>466.0</ele><time>2026-04-12T08:33:21Z</time></trkpt><trkpt lat="42.0266845620398" lon="14.369537032486477"><ele>463.20000000000005</ele><time>2026-04-12T08:33:22Z</time></trkpt><trkpt lat="42.026784252055926" lon="14.369506828771277"><ele>460.40000000000003</ele><time>2026-04-12T08:33:23Z</time></trkpt><trkpt lat="42.02687852499671" lon="14.369484958325948"><ele>457.6</ele><time>2026-04-12T08:33:23.999Z</time></trkpt><trkpt lat="42.02697103013705" lon="14.36946263635794"><ele>454.8</ele><time>2026-04-12T08:33:24.999Z</time></trkpt><trkpt lat="42.027059106685904" lon="14.369437828703376"><ele>452.0</ele><time>2026-04-12T08:33:25.999Z</time></trkpt><trkpt lat="42.02714293798564" lon="14.369388960776094"><ele>452.0</ele><time>2026-04-12T08:33:26.999Z</time></trkpt><trkpt lat="42.02721980953604" lon="14.36932528154035"><ele>452.00000000000006</ele><time>2026-04-12T08:33:27.999Z</time></trkpt><trkpt lat="42.0272850834395" lon="14.369237176054693"><ele>452.00000000000006</ele><time>2026-04-12T08:33:28.999Z</time></trkpt><trkpt lat="42.027337152991926" lon="14.36913317315523"><ele>452.0</ele><time>2026-04-12T08:33:29.999Z</time></trkpt><trkpt lat="42.02736476134646" lon="14.369014289574771"><ele>452.0</ele><time>2026-04-12T08:33:30.999Z</time></trkpt><trkpt lat="42.027390968886436" lon="14.368894351691411"><ele>449.99999999999994</ele><time>2026-04-12T08:33:31.999Z</time></trkpt><trkpt lat="42.02741028123566" lon="14.36878495485489"><ele>448.0</ele><time>2026-04-12T08:33:32.999Z</time></trkpt><trkpt lat="42.027422770197425" lon="14.368682211002945"><ele>446.0</ele><time>2026-04-12T08:33:33.999Z</time></trkpt><trkpt lat="42.02747492462183" lon="14.368598858998185"><ele>444.0</ele><time>2026-04-12T08:33:34.999Z</time></trkpt><trkpt lat="42.027555171045606" lon="14.368549328302024"><ele>441.99999999999994</ele><time>2026-04-12T08:33:35.999Z</time></trkpt><trkpt lat="42.027632683517" lon="14.368502385437436"><ele>440.0</ele><time>2026-04-12T08:33:36.999Z</time></trkpt><trkpt lat="42.02770948799617" lon="14.368458113461749"><ele>439.99999999999994</ele><time>2026-04-12T08:33:37.999Z</time></trkpt><trkpt lat="42.02778859679304" lon="14.368414198733433"><ele>440.0</ele><time>2026-04-12T08:33:38.999Z</time></trkpt><trkpt lat="42.02786907018799" lon="14.368372859487485"><ele>440.0</ele><time>2026-04-12T08:33:39.999Z</time></trkpt><trkpt lat="42.02795563744117" lon="14.368333567175748"><ele>440.0</ele><time>2026-04-12T08:33:40.999Z</time></trkpt><trkpt lat="42.028046562568115" lon="14.368293121891297"><ele>439.99999999999994</ele><time>2026-04-12T08:33:41.999Z</time></trkpt><trkpt lat="42.02813182600576" lon="14.368251979792857"><ele>440.0</ele><time>2026-04-12T08:33:42.999Z</time></trkpt><trkpt lat="42.0282198028841" lon="14.368220589852555"><ele>441.0</ele><time>2026-04-12T08:33:43.999Z</time></trkpt><trkpt lat="42.02831372322729" lon="14.368194787419975"><ele>442.0</ele><time>2026-04-12T08:33:44.999Z</time></trkpt><trkpt lat="42.02840055105665" lon="14.368165150166694"><ele>443.0</ele><time>2026-04-12T08:33:45.999Z</time></trkpt><trkpt lat="42.028489303808335" lon="14.36813501642223"><ele>444.0</ele><time>2026-04-12T08:33:46.999Z</time></trkpt><trkpt lat="42.02858332689676" lon="14.368112831925131"><ele>445.0</ele><time>2026-04-12T08:33:47.999Z</time></trkpt><trkpt lat="42.02867503753992" lon="14.368085164176595"><ele>445.00000000000006</ele><time>2026-04-12T08:33:48.999Z</time></trkpt><trkpt lat="42.02876568864416" lon="14.368055838246512"><ele>445.0</ele><time>2026-04-12T08:33:49.999Z</time></trkpt><trkpt lat="42.02885216279574" lon="14.368028654108809"><ele>445.0</ele><time>2026-04-12T08:33:50.999Z</time></trkpt><trkpt lat="42.0289414139168" lon="14.367999009535756"><ele>445.0</ele><time>2026-04-12T08:33:51.999Z</time></trkpt><trkpt lat="42.02902723431567" lon="14.367971960586372"><ele>445.00000000000006</ele><time>2026-04-12T08:33:52.999Z</time></trkpt><trkpt lat="42.029106063089884" lon="14.367952501488343"><ele>445.0</ele><time>2026-04-12T08:33:53.999Z</time></trkpt><trkpt lat="42.02918661679321" lon="14.367936522780273"><ele>444.83333333333337</ele><time>2026-04-12T08:33:54.999Z</time></trkpt><trkpt lat="42.02926832434859" lon="14.36793255891058"><ele>444.6666666666667</ele><time>2026-04-12T08:33:55.999Z</time></trkpt><trkpt lat="42.02935024376174" lon="14.3679428978734"><ele>444.5</ele><time>2026-04-12T08:33:56.999Z</time></trkpt><trkpt lat="42.02943319451579" lon="14.367971947876311"><ele>444.33333333333337</ele><time>2026-04-12T08:33:57.999Z</time></trkpt><trkpt lat="42.02950456114681" lon="14.368046571812592"><ele>444.1666666666667</ele><time>2026-04-12T08:33:58.999Z</time></trkpt><trkpt lat="42.02957992944874" lon="14.368111259035976"><ele>444.0</ele><time>2026-04-12T08:33:59.999Z</time></trkpt><trkpt lat="42.02965178646008" lon="14.368180053185005"><ele>444.0</ele><time>2026-04-12T08:34:00.999Z</time></trkpt><trkpt lat="42.029720199437634" lon="14.36824830564276"><ele>444.0</ele><time>2026-04-12T08:34:01.999Z</time></trkpt><trkpt lat="42.02977582610796" lon="14.36831344156004"><ele>444.0</ele><time>2026-04-12T08:34:02.999Z</time></trkpt><trkpt lat="42.02989119078961" lon="14.368293937801436"><ele>444.0</ele><time>2026-04-12T08:34:03.999Z</time></trkpt><trkpt lat="42.029964298587124" lon="14.368251251732445"><ele>444.0</ele><time>2026-04-12T08:34:04.999Z</time></trkpt><trkpt lat="42.03003192037999" lon="14.36820643508855"><ele>444.0</ele><time>2026-04-12T08:34:05.999Z</time></trkpt><trkpt lat="42.03009206862381" lon="14.368138340817376"><ele>443.0</ele><time>2026-04-12T08:34:06.999Z</time></trkpt><trkpt lat="42.03013223260916" lon="14.368046856547817"><ele>442.0</ele><time>2026-04-12T08:34:07.999Z</time></trkpt><trkpt lat="42.030152599417036" lon="14.367944738484073"><ele>441.0</ele><time>2026-04-12T08:34:08.999Z</time></trkpt><trkpt lat="42.03013384747111" lon="14.367840061449192"><ele>440.0</ele><time>2026-04-12T08:34:09.999Z</time></trkpt><trkpt lat="42.03014108170674" lon="14.36774467193319"><ele>439.0</ele><time>2026-04-12T08:34:10.999Z</time></trkpt><trkpt lat="42.0301132210789" lon="14.367606135946566"><ele>438.0</ele><time>2026-04-12T08:34:12.999Z</time></trkpt><trkpt lat="42.03010185895176" lon="14.367510051842391"><ele>434.6666666666667</ele><time>2026-04-12T08:34:14.999Z</time></trkpt><trkpt lat="42.03018957488325" lon="14.36742361301588"><ele>431.33333333333337</ele><time>2026-04-12T08:34:16.999Z</time></trkpt><trkpt lat="42.03027204486454" lon="14.367384942670308"><ele>428.0</ele><time>2026-04-12T08:34:18.999Z</time></trkpt><trkpt lat="42.03034751256968" lon="14.367356784930935"><ele>424.6666666666667</ele><time>2026-04-12T08:34:20.999Z</time></trkpt><trkpt lat="42.03041880642951" lon="14.36735906282417"><ele>421.33333333333337</ele><time>2026-04-12T08:34:22.998Z</time></trkpt><trkpt lat="42.03049399239408" lon="14.367351655930728"><ele>418.0</ele><time>2026-04-12T08:34:24.998Z</time></trkpt><trkpt lat="42.030577840877335" lon="14.367345315430581"><ele>418.00000000000006</ele><time>2026-04-12T08:34:26.998Z</time></trkpt><trkpt lat="42.030660718379465" lon="14.367343540349669"><ele>418.0</ele><time>2026-04-12T08:34:28.998Z</time></trkpt><trkpt lat="42.030741893820824" lon="14.367344595061294"><ele>418.0</ele><time>2026-04-12T08:34:30.998Z</time></trkpt><trkpt lat="42.030826085538436" lon="14.367349498418141"><ele>418.0</ele><time>2026-04-12T08:34:32.998Z</time></trkpt><trkpt lat="42.03091048921061" lon="14.367354414037981"><ele>418.00000000000006</ele><time>2026-04-12T08:34:34.998Z</time></trkpt><trkpt lat="42.030999940863744" lon="14.367359623550648"><ele>418.0</ele><time>2026-04-12T08:34:36.998Z</time></trkpt><trkpt lat="42.03108894015819" lon="14.367364209586244"><ele>419.4</ele><time>2026-04-12T08:34:38.998Z</time></trkpt><trkpt lat="42.031178652977445" lon="14.367308897652523"><ele>420.79999999999995</ele><time>2026-04-12T08:34:40.998Z</time></trkpt><trkpt lat="42.031269905167164" lon="14.367312200878803"><ele>422.2</ele><time>2026-04-12T08:34:43Z</time></trkpt><trkpt lat="42.031363606491716" lon="14.367296784512535"><ele>423.6</ele><time>2026-04-12T08:34:45Z</time></trkpt><trkpt lat="42.03145030117092" lon="14.367254269302801"><ele>425.0</ele><time>2026-04-12T08:34:47Z</time></trkpt><trkpt lat="42.03153012028815" lon="14.367215809258843"><ele>425.0</ele><time>2026-04-12T08:34:49Z</time></trkpt><trkpt lat="42.031611047778355" lon="14.367228719025103"><ele>425.0</ele><time>2026-04-12T08:34:51Z</time></trkpt><trkpt lat="42.031699712746736" lon="14.367237711374175"><ele>425.0</ele><time>2026-04-12T08:34:53Z</time></trkpt><trkpt lat="42.03177838369896" lon="14.367242926303243"><ele>425.0</ele><time>2026-04-12T08:34:55Z</time></trkpt><trkpt lat="42.031883335029974" lon="14.367249617424555"><ele>425.0</ele><time>2026-04-12T08:34:57Z</time></trkpt><trkpt lat="42.031985308268396" lon="14.367253137807896"><ele>425.2</ele><time>2026-04-12T08:34:59Z</time></trkpt><trkpt lat="42.0320928753628" lon="14.367252774560278"><ele>425.4</ele><time>2026-04-12T08:35:01Z</time></trkpt><trkpt lat="42.03219566186073" lon="14.367247619159713"><ele>425.6</ele><time>2026-04-12T08:35:03Z</time></trkpt><trkpt lat="42.03225547287249" lon="14.367212418031288"><ele>425.8</ele><time>2026-04-12T08:35:04Z</time></trkpt><trkpt lat="42.032362061085" lon="14.367202157603518"><ele>426.0</ele><time>2026-04-12T08:35:06Z</time></trkpt><trkpt lat="42.03247203751365" lon="14.367161451777736"><ele>422.6</ele><time>2026-04-12T08:35:08Z</time></trkpt><trkpt lat="42.03257840925023" lon="14.367118386630304"><ele>419.20000000000005</ele><time>2026-04-12T08:35:10Z</time></trkpt><trkpt lat="42.03268357930154" lon="14.367093480959229"><ele>415.79999999999995</ele><time>2026-04-12T08:35:12Z</time></trkpt><trkpt lat="42.032791126021436" lon="14.367094837805091"><ele>412.4</ele><time>2026-04-12T08:35:14Z</time></trkpt><trkpt lat="42.03289870353866" lon="14.36710982275905"><ele>409.0</ele><time>2026-04-12T08:35:16Z</time></trkpt><trkpt lat="42.03300221753738" lon="14.367124943491662"><ele>409.0</ele><time>2026-04-12T08:35:18Z</time></trkpt><trkpt lat="42.033109535189254" lon="14.36712833947637"><ele>409.0</ele><time>2026-04-12T08:35:20Z</time></trkpt><trkpt lat="42.03321071405824" lon="14.367109467743665"><ele>409.0</ele><time>2026-04-12T08:35:22Z</time></trkpt><trkpt lat="42.033310139406495" lon="14.367061745025905"><ele>409.0</ele><time>2026-04-12T08:35:24Z</time></trkpt><trkpt lat="42.03339006580301" lon="14.367004910612225"><ele>409.0</ele><time>2026-04-12T08:35:25.999Z</time></trkpt><trkpt lat="42.03349078914312" lon="14.366933559598495"><ele>410.6666666666667</ele><time>2026-04-12T08:35:29.999Z</time></trkpt><trkpt lat="42.033576897055234" lon="14.366872562036082"><ele>412.33333333333337</ele><time>2026-04-12T08:35:31.999Z</time></trkpt><trkpt lat="42.03365104476857" lon="14.366794783439198"><ele>414.0</ele><time>2026-04-12T08:35:33.999Z</time></trkpt><trkpt lat="42.03373302740064" lon="14.36676196152464"><ele>415.66666666666663</ele><time>2026-04-12T08:35:35.999Z</time></trkpt><trkpt lat="42.03380248481963" lon="14.366689767773734"><ele>417.3333333333333</ele><time>2026-04-12T08:35:37.999Z</time></trkpt><trkpt lat="42.0338654974695" lon="14.366638780558516"><ele>419.0</ele><time>2026-04-12T08:35:39.999Z</time></trkpt><trkpt lat="42.033946381701874" lon="14.36657339737941"><ele>419.0</ele><time>2026-04-12T08:35:41.999Z</time></trkpt><trkpt lat="42.03403139806908" lon="14.366509608586016"><ele>419.0</ele><time>2026-04-12T08:35:43.999Z</time></trkpt><trkpt lat="42.034112413212995" lon="14.366447413624758"><ele>419.0</ele><time>2026-04-12T08:35:45.999Z</time></trkpt><trkpt lat="42.034173449730915" lon="14.366400787503792"><ele>419.0</ele><time>2026-04-12T08:35:47.999Z</time></trkpt><trkpt lat="42.03426034035092" lon="14.36638170307037"><ele>419.0</ele><time>2026-04-12T08:35:49.999Z</time></trkpt><trkpt lat="42.03436212786361" lon="14.366349429298756"><ele>421.0</ele><time>2026-04-12T08:35:51.999Z</time></trkpt><trkpt lat="42.03447571153495" lon="14.366412255879059"><ele>423.0</ele><time>2026-04-12T08:35:53.999Z</time></trkpt><trkpt lat="42.034596970333176" lon="14.366408270447664"><ele>425.0</ele><time>2026-04-12T08:35:55.999Z</time></trkpt><trkpt lat="42.034661716567136" lon="14.366406142423205"><ele>427.0</ele><time>2026-04-12T08:35:56.999Z</time></trkpt><trkpt lat="42.0347780950498" lon="14.366398098400527"><ele>429.0</ele><time>2026-04-12T08:35:58.999Z</time></trkpt><trkpt lat="42.03484127682477" lon="14.36638953669921"><ele>429.0</ele><time>2026-04-12T08:35:59.999Z</time></trkpt><trkpt lat="42.03493442740205" lon="14.366368097424292"><ele>429.0</ele><time>2026-04-12T08:36:01.999Z</time></trkpt><trkpt lat="42.035009340566" lon="14.366364181767056"><ele>429.0</ele><time>2026-04-12T08:36:21.998Z</time></trkpt><trkpt lat="42.0350421061174" lon="14.366522287826026"><ele>429.0</ele><time>2026-04-12T08:36:22.998Z</time></trkpt><trkpt lat="42.03497859139541" lon="14.366487883036514"><ele>429.0</ele><time>2026-04-12T08:38:10.998Z</time></trkpt><trkpt lat="42.034475618451495" lon="14.366819078595677"><ele>429.0</ele><time>2026-04-12T08:38:26.998Z</time></trkpt><trkpt lat="42.03439861137618" lon="14.366862463801139"><ele>429.0</ele><time>2026-04-12T08:38:28.998Z</time></trkpt><trkpt lat="42.03496347706354" lon="14.366421085690405"><ele>429.3333333333333</ele><time>2026-04-12T08:38:42.006Z</time></trkpt><trkpt lat="42.03506001754564" lon="14.366474068607905"><ele>429.66666666666663</ele><time>2026-04-12T08:42:08.999Z</time></trkpt><trkpt lat="42.035053585678696" lon="14.366388966785403"><ele>430.0</ele><time>2026-04-12T08:43:04.999Z</time></trkpt><trkpt lat="42.03508930585771" lon="14.366316740688424"><ele>430.3333333333333</ele><time>2026-04-12T08:43:07.999Z</time></trkpt><trkpt lat="42.03516277421176" lon="14.366269327937358"><ele>430.66666666666663</ele><time>2026-04-12T08:43:10.999Z</time></trkpt><trkpt lat="42.03522932527047" lon="14.366251225762557"><ele>431.0</ele><time>2026-04-12T08:43:12.999Z</time></trkpt><trkpt lat="42.03531890017657" lon="14.36621682199736"><ele>429.8333333333333</ele><time>2026-04-12T08:43:15.999Z</time></trkpt><trkpt lat="42.03538216069862" lon="14.366184244382112"><ele>428.66666666666663</ele><time>2026-04-12T08:43:17.999Z</time></trkpt><trkpt lat="42.03544941357477" lon="14.36615644320882"><ele>427.5</ele><time>2026-04-12T08:43:19.999Z</time></trkpt><trkpt lat="42.035510095246295" lon="14.366125379742067"><ele>426.33333333333337</ele><time>2026-04-12T08:43:21.999Z</time></trkpt><trkpt lat="42.03559592332941" lon="14.366083981123808"><ele>425.1666666666667</ele><time>2026-04-12T08:43:24.999Z</time></trkpt><trkpt lat="42.035670266765855" lon="14.366058256579196"><ele>424.0</ele><time>2026-04-12T08:43:26.999Z</time></trkpt><trkpt lat="42.035749008255294" lon="14.36603727263128"><ele>423.4</ele><time>2026-04-12T08:43:28.999Z</time></trkpt><trkpt lat="42.03584194584766" lon="14.365990329165731"><ele>422.79999999999995</ele><time>2026-04-12T08:43:30.999Z</time></trkpt><trkpt lat="42.03593939639976" lon="14.365944457798827"><ele>422.20000000000005</ele><time>2026-04-12T08:43:32.998Z</time></trkpt><trkpt lat="42.03604953479368" lon="14.365905869696553"><ele>421.6</ele><time>2026-04-12T08:43:34.998Z</time></trkpt><trkpt lat="42.03615568886297" lon="14.365858929393756"><ele>421.0</ele><time>2026-04-12T08:43:36.998Z</time></trkpt><trkpt lat="42.03625835235699" lon="14.36580635112588"><ele>421.0</ele><time>2026-04-12T08:43:38.998Z</time></trkpt><trkpt lat="42.03635507937855" lon="14.365722666111656"><ele>421.0</ele><time>2026-04-12T08:43:40.998Z</time></trkpt><trkpt lat="42.03644659889068" lon="14.365608994266694"><ele>421.0</ele><time>2026-04-12T08:43:42.998Z</time></trkpt><trkpt lat="42.03653516147405" lon="14.365491805513921"><ele>421.0</ele><time>2026-04-12T08:43:44.998Z</time></trkpt><trkpt lat="42.03657866077631" lon="14.365428319080234"><ele>421.0</ele><time>2026-04-12T08:43:45.998Z</time></trkpt><trkpt lat="42.036620251289534" lon="14.365360200271455"><ele>420.33333333333337</ele><time>2026-04-12T08:43:46.998Z</time></trkpt><trkpt lat="42.03665770515858" lon="14.365289250362869"><ele>419.6666666666667</ele><time>2026-04-12T08:43:47.998Z</time></trkpt><trkpt lat="42.036692088359125" lon="14.365211053186801"><ele>419.0</ele><time>2026-04-12T08:43:48.998Z</time></trkpt><trkpt lat="42.036721110880784" lon="14.365134025976381"><ele>418.33333333333337</ele><time>2026-04-12T08:43:49.998Z</time></trkpt><trkpt lat="42.036762221851326" lon="14.364989155642604"><ele>417.6666666666667</ele><time>2026-04-12T08:43:51.998Z</time></trkpt><trkpt lat="42.03681865193858" lon="14.364854427166911"><ele>417.0</ele><time>2026-04-12T08:43:53.998Z</time></trkpt><trkpt lat="42.036907718749234" lon="14.364735400524387"><ele>413.7142857142857</ele><time>2026-04-12T08:43:55.998Z</time></trkpt><trkpt lat="42.036953191551106" lon="14.364666653463244"><ele>410.4285714285714</ele><time>2026-04-12T08:43:56.998Z</time></trkpt><trkpt lat="42.03699704644588" lon="14.364593912288079"><ele>407.1428571428571</ele><time>2026-04-12T08:43:57.998Z</time></trkpt><trkpt lat="42.03703704304124" lon="14.36452139298793"><ele>403.8571428571429</ele><time>2026-04-12T08:43:58.998Z</time></trkpt><trkpt lat="42.037080285659755" lon="14.36445046549066"><ele>400.57142857142856</ele><time>2026-04-12T08:43:59.998Z</time></trkpt><trkpt lat="42.03712447719739" lon="14.364379259046414"><ele>397.2857142857143</ele><time>2026-04-12T08:44:00.998Z</time></trkpt><trkpt lat="42.03717066854467" lon="14.364309020902217"><ele>394.0</ele><time>2026-04-12T08:44:01.998Z</time></trkpt><trkpt lat="42.03721855324028" lon="14.364244211216187"><ele>394.0</ele><time>2026-04-12T08:44:02.998Z</time></trkpt><trkpt lat="42.03727157927906" lon="14.364193841214115"><ele>394.0</ele><time>2026-04-12T08:44:03.998Z</time></trkpt><trkpt lat="42.037328500330524" lon="14.364154504274488"><ele>394.0</ele><time>2026-04-12T08:44:04.998Z</time></trkpt><trkpt lat="42.03739685950693" lon="14.364149511182728"><ele>394.0</ele><time>2026-04-12T08:44:05.998Z</time></trkpt><trkpt lat="42.03746594623403" lon="14.364136018488717"><ele>394.0</ele><time>2026-04-12T08:44:06.998Z</time></trkpt><trkpt lat="42.03753667497298" lon="14.36412202934102"><ele>394.0</ele><time>2026-04-12T08:44:07.998Z</time></trkpt><trkpt lat="42.037608550920396" lon="14.364105400595204"><ele>394.0</ele><time>2026-04-12T08:44:08.998Z</time></trkpt><trkpt lat="42.03767917147941" lon="14.364067957500097"><ele>396.50000000000006</ele><time>2026-04-12T08:44:09.998Z</time></trkpt><trkpt lat="42.03775870378037" lon="14.36406810959149"><ele>399.0</ele><time>2026-04-12T08:44:10.998Z</time></trkpt><trkpt lat="42.037832093284436" lon="14.364047471594892"><ele>401.5</ele><time>2026-04-12T08:44:11.998Z</time></trkpt><trkpt lat="42.03790384058442" lon="14.364001728964546"><ele>404.0</ele><time>2026-04-12T08:44:12.998Z</time></trkpt><trkpt lat="42.03797981906144" lon="14.36397771245647"><ele>406.50000000000006</ele><time>2026-04-12T08:44:14Z</time></trkpt><trkpt lat="42.03805518331642" lon="14.363946055868265"><ele>409.0</ele><time>2026-04-12T08:44:15Z</time></trkpt><trkpt lat="42.03812689245151" lon="14.363913536354028"><ele>409.00000000000006</ele><time>2026-04-12T08:44:16Z</time></trkpt><trkpt lat="42.038197956941794" lon="14.36387915121829"><ele>409.0</ele><time>2026-04-12T08:44:17Z</time></trkpt><trkpt lat="42.03827146353361" lon="14.363847204598333"><ele>409.0</ele><time>2026-04-12T08:44:18Z</time></trkpt><trkpt lat="42.03834302228944" lon="14.363811156547639"><ele>409.0</ele><time>2026-04-12T08:44:19Z</time></trkpt><trkpt lat="42.038413661257856" lon="14.363770117528654"><ele>409.00000000000006</ele><time>2026-04-12T08:44:20Z</time></trkpt><trkpt lat="42.03848323864248" lon="14.363727354514655"><ele>409.0</ele><time>2026-04-12T08:44:21Z</time></trkpt><trkpt lat="42.038549911212705" lon="14.36368102725289"><ele>406.0</ele><time>2026-04-12T08:44:22Z</time></trkpt><trkpt lat="42.03861485943681" lon="14.363629746186005"><ele>403.0</ele><time>2026-04-12T08:44:23Z</time></trkpt><trkpt lat="42.038678577871515" lon="14.363590599856487"><ele>400.0</ele><time>2026-04-12T08:44:24Z</time></trkpt><trkpt lat="42.03874520282792" lon="14.363563763385706"><ele>397.0</ele><time>2026-04-12T08:44:25Z</time></trkpt><trkpt lat="42.03881476753875" lon="14.36359219110215"><ele>394.0</ele><time>2026-04-12T08:44:26Z</time></trkpt><trkpt lat="42.03888190576112" lon="14.36360806973478"><ele>391.0</ele><time>2026-04-12T08:44:27Z</time></trkpt><trkpt lat="42.03893900967587" lon="14.363652278326834"><ele>388.0</ele><time>2026-04-12T08:44:28Z</time></trkpt><trkpt lat="42.03901439930816" lon="14.363777533533526"><ele>388.00000000000006</ele><time>2026-04-12T08:44:30Z</time></trkpt><trkpt lat="42.03904724092437" lon="14.36385816793429"><ele>388.0</ele><time>2026-04-12T08:44:31Z</time></trkpt><trkpt lat="42.03911458568596" lon="14.363921001690985"><ele>388.0</ele><time>2026-04-12T08:44:32Z</time></trkpt><trkpt lat="42.039137588995125" lon="14.364010475896068"><ele>388.0</ele><time>2026-04-12T08:44:33Z</time></trkpt><trkpt lat="42.03916750229178" lon="14.364086467258424"><ele>388.00000000000006</ele><time>2026-04-12T08:44:34Z</time></trkpt><trkpt lat="42.039266403002266" lon="14.364175659003703"><ele>388.0</ele><time>2026-04-12T08:44:36Z</time></trkpt><trkpt lat="42.03933577161967" lon="14.364184673082736"><ele>387.7142857142857</ele><time>2026-04-12T08:44:37Z</time></trkpt><trkpt lat="42.03940249355163" lon="14.36416220744148"><ele>387.42857142857144</ele><time>2026-04-12T08:44:38Z</time></trkpt><trkpt lat="42.039459873669145" lon="14.364099877209318"><ele>387.14285714285717</ele><time>2026-04-12T08:44:39Z</time></trkpt><trkpt lat="42.03950161160939" lon="14.3640288015481"><ele>386.8571428571429</ele><time>2026-04-12T08:44:40Z</time></trkpt><trkpt lat="42.03953219318259" lon="14.36394712328919"><ele>386.57142857142856</ele><time>2026-04-12T08:44:41Z</time></trkpt><trkpt lat="42.039561134446274" lon="14.363870278365034"><ele>386.28571428571433</ele><time>2026-04-12T08:44:41.999Z</time></trkpt><trkpt lat="42.03959542923963" lon="14.363797464367636"><ele>386.0</ele><time>2026-04-12T08:44:42.999Z</time></trkpt><trkpt lat="42.03964497185098" lon="14.363738309928292"><ele>386.00000000000006</ele><time>2026-04-12T08:44:43.999Z</time></trkpt><trkpt lat="42.03970838355353" lon="14.363702441960625"><ele>386.0</ele><time>2026-04-12T08:44:44.999Z</time></trkpt><trkpt lat="42.039783635335326" lon="14.36369703574489"><ele>386.0</ele><time>2026-04-12T08:44:45.999Z</time></trkpt><trkpt lat="42.039856991357134" lon="14.3637054394691"><ele>386.0</ele><time>2026-04-12T08:44:46.999Z</time></trkpt><trkpt lat="42.03992878751235" lon="14.363716614574255"><ele>386.0</ele><time>2026-04-12T08:44:47.999Z</time></trkpt><trkpt lat="42.04000570827091" lon="14.363728399009082"><ele>386.00000000000006</ele><time>2026-04-12T08:44:48.999Z</time></trkpt><trkpt lat="42.04007807722471" lon="14.363738296161323"><ele>386.0</ele><time>2026-04-12T08:44:49.999Z</time></trkpt><trkpt lat="42.04014929958397" lon="14.36374769984419"><ele>384.66666666666663</ele><time>2026-04-12T08:44:50.999Z</time></trkpt><trkpt lat="42.040218165640105" lon="14.363756963309527"><ele>383.3333333333333</ele><time>2026-04-12T08:44:51.999Z</time></trkpt><trkpt lat="42.04028581717901" lon="14.363763682926079"><ele>382.0</ele><time>2026-04-12T08:44:52.999Z</time></trkpt><trkpt lat="42.04035284377053" lon="14.363768843994325"><ele>380.66666666666663</ele><time>2026-04-12T08:44:53.999Z</time></trkpt><trkpt lat="42.040417555253086" lon="14.363776972033977"><ele>379.3333333333333</ele><time>2026-04-12T08:44:54.999Z</time></trkpt><trkpt lat="42.04048241268041" lon="14.363784882207943"><ele>378.0</ele><time>2026-04-12T08:44:55.999Z</time></trkpt><trkpt lat="42.04060780097301" lon="14.36379276434527"><ele>378.0</ele><time>2026-04-12T08:44:57.999Z</time></trkpt><trkpt lat="42.040673267276844" lon="14.363797167468848"><ele>378.0</ele><time>2026-04-12T08:44:58.999Z</time></trkpt><trkpt lat="42.040736953442966" lon="14.363805336520361"><ele>378.0</ele><time>2026-04-12T08:44:59.999Z</time></trkpt><trkpt lat="42.04079997854431" lon="14.363814134045306"><ele>378.0</ele><time>2026-04-12T08:45:00.999Z</time></trkpt><trkpt lat="42.04092382493013" lon="14.363826604268588"><ele>378.0</ele><time>2026-04-12T08:45:02.999Z</time></trkpt><trkpt lat="42.04098593238054" lon="14.36384108970431"><ele>378.0</ele><time>2026-04-12T08:45:03.999Z</time></trkpt><trkpt lat="42.04110851107278" lon="14.363867769972492"><ele>377.5</ele><time>2026-04-12T08:45:05.999Z</time></trkpt><trkpt lat="42.04123151826626" lon="14.363862366437314"><ele>377.0</ele><time>2026-04-12T08:45:07.999Z</time></trkpt><trkpt lat="42.041356348282555" lon="14.36386125773494"><ele>376.5</ele><time>2026-04-12T08:45:09.999Z</time></trkpt><trkpt lat="42.04142007936381" lon="14.363865177368119"><ele>376.0</ele><time>2026-04-12T08:45:10.999Z</time></trkpt><trkpt lat="42.041483506215705" lon="14.363873045460409"><ele>375.5</ele><time>2026-04-12T08:45:11.999Z</time></trkpt><trkpt lat="42.04154649903381" lon="14.3638772234403"><ele>375.0</ele><time>2026-04-12T08:45:12.999Z</time></trkpt><trkpt lat="42.04161048069622" lon="14.363881065763849"><ele>381.0</ele><time>2026-04-12T08:45:13.999Z</time></trkpt><trkpt lat="42.0416763356971" lon="14.363886045371716"><ele>387.0</ele><time>2026-04-12T08:45:14.999Z</time></trkpt><trkpt lat="42.04174160435098" lon="14.363888647120078"><ele>393.0</ele><time>2026-04-12T08:45:15.999Z</time></trkpt><trkpt lat="42.0418081626189" lon="14.363894517894526"><ele>399.0</ele><time>2026-04-12T08:45:16.999Z</time></trkpt><trkpt lat="42.041875990543176" lon="14.363901090482658"><ele>405.0</ele><time>2026-04-12T08:45:17.999Z</time></trkpt><trkpt lat="42.041944810688115" lon="14.363905907961477"><ele>411.0</ele><time>2026-04-12T08:45:18.999Z</time></trkpt><trkpt lat="42.04200967285439" lon="14.363909066198907"><ele>417.0</ele><time>2026-04-12T08:45:19.999Z</time></trkpt><trkpt lat="42.042074782758185" lon="14.36391319450406"><ele>417.0</ele><time>2026-04-12T08:45:20.999Z</time></trkpt><trkpt lat="42.04214150711354" lon="14.363932191405887"><ele>417.0</ele><time>2026-04-12T08:45:21.999Z</time></trkpt><trkpt lat="42.04220857289038" lon="14.363954381561596"><ele>417.0</ele><time>2026-04-12T08:45:22.999Z</time></trkpt><trkpt lat="42.04226944060288" lon="14.364000170276405"><ele>417.0</ele><time>2026-04-12T08:45:23.999Z</time></trkpt><trkpt lat="42.042323444110544" lon="14.36406541032964"><ele>417.0</ele><time>2026-04-12T08:45:24.999Z</time></trkpt><trkpt lat="42.042364571743434" lon="14.364151023706498"><ele>417.0</ele><time>2026-04-12T08:45:25.999Z</time></trkpt><trkpt lat="42.04239400101849" lon="14.36425170881025"><ele>417.0</ele><time>2026-04-12T08:45:26.999Z</time></trkpt><trkpt lat="42.04241290987339" lon="14.364353931025537"><ele>417.0</ele><time>2026-04-12T08:45:27.999Z</time></trkpt><trkpt lat="42.0424381440398" lon="14.364450808660862"><ele>417.0</ele><time>2026-04-12T08:45:28.999Z</time></trkpt><trkpt lat="42.04247537494307" lon="14.364539033040918"><ele>417.0</ele><time>2026-04-12T08:45:29.999Z</time></trkpt><trkpt lat="42.04252478936949" lon="14.364612138667562"><ele>417.0</ele><time>2026-04-12T08:45:30.999Z</time></trkpt><trkpt lat="42.04259281029007" lon="14.364664281190016"><ele>417.0</ele><time>2026-04-12T08:45:31.999Z</time></trkpt><trkpt lat="42.042666655586274" lon="14.364694616299527"><ele>417.0</ele><time>2026-04-12T08:45:32.999Z</time></trkpt><trkpt lat="42.04274147099673" lon="14.364713487482854"><ele>414.5</ele><time>2026-04-12T08:45:33.999Z</time></trkpt><trkpt lat="42.042824265672955" lon="14.364689921891141"><ele>412.0</ele><time>2026-04-12T08:45:34.999Z</time></trkpt><trkpt lat="42.042903608140016" lon="14.364642275716811"><ele>409.5</ele><time>2026-04-12T08:45:35.999Z</time></trkpt><trkpt lat="42.04297437285191" lon="14.36458291926421"><ele>407.0</ele><time>2026-04-12T08:45:36.999Z</time></trkpt><trkpt lat="42.043039829363906" lon="14.364520744582393"><ele>404.5</ele><time>2026-04-12T08:45:37.999Z</time></trkpt><trkpt lat="42.04310360446191" lon="14.364467331786704"><ele>402.0</ele><time>2026-04-12T08:45:38.998Z</time></trkpt><trkpt lat="42.043153188931264" lon="14.364409487592539"><ele>402.0</ele><time>2026-04-12T08:45:39.998Z</time></trkpt><trkpt lat="42.043166390987416" lon="14.364321332181689"><ele>402.0</ele><time>2026-04-12T08:45:40.998Z</time></trkpt><trkpt lat="42.04313257909547" lon="14.364225397826319"><ele>402.0</ele><time>2026-04-12T08:45:41.998Z</time></trkpt><trkpt lat="42.043134539300006" lon="14.36412859444436"><ele>402.0</ele><time>2026-04-12T08:45:42.998Z</time></trkpt><trkpt lat="42.04312006180054" lon="14.364040050178135"><ele>402.0</ele><time>2026-04-12T08:45:43.998Z</time></trkpt><trkpt lat="42.0431001792699" lon="14.36395518928304"><ele>402.0</ele><time>2026-04-12T08:45:44.998Z</time></trkpt><trkpt lat="42.04307810326108" lon="14.363790926177703"><ele>400.1428571428571</ele><time>2026-04-12T08:45:46.998Z</time></trkpt><trkpt lat="42.043087126357605" lon="14.36370260047968"><ele>398.28571428571433</ele><time>2026-04-12T08:45:47.998Z</time></trkpt><trkpt lat="42.04311466987594" lon="14.363615856324316"><ele>396.42857142857144</ele><time>2026-04-12T08:45:48.998Z</time></trkpt><trkpt lat="42.0431614113438" lon="14.363539787558553"><ele>394.57142857142856</ele><time>2026-04-12T08:45:49.998Z</time></trkpt><trkpt lat="42.04322161526596" lon="14.363477279580541"><ele>392.71428571428567</ele><time>2026-04-12T08:45:50.998Z</time></trkpt><trkpt lat="42.043287268434675" lon="14.363423779064226"><ele>390.8571428571429</ele><time>2026-04-12T08:45:51.998Z</time></trkpt><trkpt lat="42.04335427435877" lon="14.363372886047165"><ele>389.0</ele><time>2026-04-12T08:45:52.998Z</time></trkpt><trkpt lat="42.043427598685696" lon="14.363333893858513"><ele>388.99999999999994</ele><time>2026-04-12T08:45:53.998Z</time></trkpt><trkpt lat="42.04350745725933" lon="14.363310504854276"><ele>389.0</ele><time>2026-04-12T08:45:54.998Z</time></trkpt><trkpt lat="42.04358967579664" lon="14.363301578314179"><ele>389.0</ele><time>2026-04-12T08:45:55.998Z</time></trkpt><trkpt lat="42.04367101233308" lon="14.363291854160728"><ele>389.0</ele><time>2026-04-12T08:45:56.998Z</time></trkpt><trkpt lat="42.043755473578706" lon="14.363285212333878"><ele>388.99999999999994</ele><time>2026-04-12T08:45:57.998Z</time></trkpt><trkpt lat="42.043839504947584" lon="14.363277715521239"><ele>389.0</ele><time>2026-04-12T08:45:58.998Z</time></trkpt><trkpt lat="42.04392274055802" lon="14.36326351192382"><ele>388.99999999999994</ele><time>2026-04-12T08:45:59.998Z</time></trkpt><trkpt lat="42.04401001373886" lon="14.363249331266198"><ele>389.0</ele><time>2026-04-12T08:46:00.998Z</time></trkpt><trkpt lat="42.04409496362895" lon="14.363246221253247"><ele>389.0</ele><time>2026-04-12T08:46:01.998Z</time></trkpt><trkpt lat="42.04418077031078" lon="14.363235022523938"><ele>389.0</ele><time>2026-04-12T08:46:02.998Z</time></trkpt><trkpt lat="42.04426723301514" lon="14.363230350657568"><ele>388.99999999999994</ele><time>2026-04-12T08:46:03.998Z</time></trkpt><trkpt lat="42.04435439597372" lon="14.363235584710194"><ele>389.0</ele><time>2026-04-12T08:46:04.998Z</time></trkpt><trkpt lat="42.044439530029756" lon="14.363248807150557"><ele>388.99999999999994</ele><time>2026-04-12T08:46:05.998Z</time></trkpt><trkpt lat="42.044528324666466" lon="14.363259462885821"><ele>389.0</ele><time>2026-04-12T08:46:06.998Z</time></trkpt><trkpt lat="42.04461602617341" lon="14.363269464024704"><ele>389.0</ele><time>2026-04-12T08:46:07.998Z</time></trkpt><trkpt lat="42.044703565575354" lon="14.36327623735685"><ele>389.0</ele><time>2026-04-12T08:46:08.998Z</time></trkpt><trkpt lat="42.04479163642696" lon="14.363290863710434"><ele>388.99999999999994</ele><time>2026-04-12T08:46:09.998Z</time></trkpt><trkpt lat="42.044877202889225" lon="14.363310213385732"><ele>389.0</ele><time>2026-04-12T08:46:10.998Z</time></trkpt><trkpt lat="42.044965820762876" lon="14.363322753624653"><ele>388.99999999999994</ele><time>2026-04-12T08:46:11.998Z</time></trkpt><trkpt lat="42.045053280053885" lon="14.363340983198855"><ele>389.0</ele><time>2026-04-12T08:46:12.998Z</time></trkpt><trkpt lat="42.04513941918123" lon="14.363362449590513"><ele>389.0</ele><time>2026-04-12T08:46:13.998Z</time></trkpt><trkpt lat="42.04522521583454" lon="14.363378802650978"><ele>389.0</ele><time>2026-04-12T08:46:14.998Z</time></trkpt><trkpt lat="42.04530808865887" lon="14.363413393543185"><ele>388.99999999999994</ele><time>2026-04-12T08:46:15.998Z</time></trkpt><trkpt lat="42.045383021618555" lon="14.36347743138707"><ele>389.0</ele><time>2026-04-12T08:46:16.998Z</time></trkpt><trkpt lat="42.04545936193144" lon="14.363530972156607"><ele>389.0</ele><time>2026-04-12T08:46:17.998Z</time></trkpt><trkpt lat="42.04553625923392" lon="14.3635915975515"><ele>389.0</ele><time>2026-04-12T08:46:18.998Z</time></trkpt><trkpt lat="42.04561636421018" lon="14.363652697218981"><ele>389.0</ele><time>2026-04-12T08:46:20Z</time></trkpt><trkpt lat="42.04569572938911" lon="14.363713232511245"><ele>389.0</ele><time>2026-04-12T08:46:21Z</time></trkpt><trkpt lat="42.04577955267575" lon="14.36376718306764"><ele>389.0</ele><time>2026-04-12T08:46:22Z</time></trkpt><trkpt lat="42.04586821831793" lon="14.363809960648968"><ele>387.6</ele><time>2026-04-12T08:46:23Z</time></trkpt><trkpt lat="42.045960154622" lon="14.363841639950843"><ele>386.2</ele><time>2026-04-12T08:46:24Z</time></trkpt><trkpt lat="42.04604950660841" lon="14.36386162655145"><ele>384.8</ele><time>2026-04-12T08:46:25Z</time></trkpt><trkpt lat="42.0461443827153" lon="14.363848311914898"><ele>383.40000000000003</ele><time>2026-04-12T08:46:26Z</time></trkpt><trkpt lat="42.04623782205754" lon="14.363845816698541"><ele>382.0</ele><time>2026-04-12T08:46:27Z</time></trkpt><trkpt lat="42.04632912933338" lon="14.363833217146379"><ele>382.0</ele><time>2026-04-12T08:46:28Z</time></trkpt><trkpt lat="42.04641969027147" lon="14.363813717335978"><ele>382.0</ele><time>2026-04-12T08:46:29Z</time></trkpt><trkpt lat="42.046506552727756" lon="14.36377788435091"><ele>382.0</ele><time>2026-04-12T08:46:30Z</time></trkpt><trkpt lat="42.04659034073207" lon="14.363730413121937"><ele>382.0</ele><time>2026-04-12T08:46:31Z</time></trkpt><trkpt lat="42.04666995144963" lon="14.36366614851426"><ele>382.0</ele><time>2026-04-12T08:46:32Z</time></trkpt><trkpt lat="42.04674849658114" lon="14.363596293506788"><ele>381.0</ele><time>2026-04-12T08:46:33Z</time></trkpt><trkpt lat="42.04682844699125" lon="14.363530517157468"><ele>380.0</ele><time>2026-04-12T08:46:34Z</time></trkpt><trkpt lat="42.04691098150331" lon="14.363470920357518"><ele>379.0</ele><time>2026-04-12T08:46:35Z</time></trkpt><trkpt lat="42.046998622953616" lon="14.363423606406936"><ele>378.0</ele><time>2026-04-12T08:46:36Z</time></trkpt><trkpt lat="42.047089502833444" lon="14.363391462303838"><ele>377.0</ele><time>2026-04-12T08:46:37Z</time></trkpt><trkpt lat="42.04718280186333" lon="14.363376490779585"><ele>377.0</ele><time>2026-04-12T08:46:38Z</time></trkpt><trkpt lat="42.04727286361015" lon="14.363381670357665"><ele>377.0</ele><time>2026-04-12T08:46:39Z</time></trkpt><trkpt lat="42.047348562891735" lon="14.363447288806688"><ele>377.0</ele><time>2026-04-12T08:46:40Z</time></trkpt><trkpt lat="42.047420839048335" lon="14.363517289464307"><ele>377.0</ele><time>2026-04-12T08:46:41Z</time></trkpt><trkpt lat="42.047496991881346" lon="14.363590978757072"><ele>377.0</ele><time>2026-04-12T08:46:42Z</time></trkpt><trkpt lat="42.04757159162718" lon="14.363654378667736"><ele>377.0</ele><time>2026-04-12T08:46:43Z</time></trkpt><trkpt lat="42.047657717968164" lon="14.363698451061165"><ele>377.0</ele><time>2026-04-12T08:46:44Z</time></trkpt><trkpt lat="42.0477578372073" lon="14.363692284174128"><ele>377.0</ele><time>2026-04-12T08:46:44.999Z</time></trkpt><trkpt lat="42.0478488515414" lon="14.363655595392526"><ele>377.0</ele><time>2026-04-12T08:46:45.999Z</time></trkpt><trkpt lat="42.04791485538196" lon="14.363539442233368"><ele>377.0</ele><time>2026-04-12T08:46:46.999Z</time></trkpt><trkpt lat="42.04798853489993" lon="14.363463685600795"><ele>377.0</ele><time>2026-04-12T08:46:47.999Z</time></trkpt><trkpt lat="42.04806790760078" lon="14.363398057974086"><ele>377.0</ele><time>2026-04-12T08:46:48.999Z</time></trkpt><trkpt lat="42.04814446520828" lon="14.36332777546951"><ele>377.0</ele><time>2026-04-12T08:46:49.999Z</time></trkpt><trkpt lat="42.04821704772158" lon="14.363247616210735"><ele>377.0</ele><time>2026-04-12T08:46:50.999Z</time></trkpt><trkpt lat="42.04829492092606" lon="14.363174256634533"><ele>377.0</ele><time>2026-04-12T08:46:51.999Z</time></trkpt><trkpt lat="42.0483782695555" lon="14.363108581195943"><ele>377.20000000000005</ele><time>2026-04-12T08:46:52.999Z</time></trkpt><trkpt lat="42.04846464713455" lon="14.363051211290761"><ele>377.4</ele><time>2026-04-12T08:46:53.999Z</time></trkpt><trkpt lat="42.04855503730992" lon="14.363006720482156"><ele>377.6</ele><time>2026-04-12T08:46:54.999Z</time></trkpt><trkpt lat="42.04864756320651" lon="14.362976974688966"><ele>377.79999999999995</ele><time>2026-04-12T08:46:55.999Z</time></trkpt><trkpt lat="42.048744992700826" lon="14.362958473425932"><ele>378.0</ele><time>2026-04-12T08:46:56.999Z</time></trkpt><trkpt lat="42.048846978639666" lon="14.362961633921735"><ele>375.79999999999995</ele><time>2026-04-12T08:46:57.999Z</time></trkpt><trkpt lat="42.04894966824894" lon="14.362960500449573"><ele>373.6</ele><time>2026-04-12T08:46:58.999Z</time></trkpt><trkpt lat="42.04904742110901" lon="14.362948949376651"><ele>371.4</ele><time>2026-04-12T08:46:59.999Z</time></trkpt><trkpt lat="42.04914445200455" lon="14.362926457255028"><ele>369.20000000000005</ele><time>2026-04-12T08:47:00.999Z</time></trkpt><trkpt lat="42.04923780508217" lon="14.362899871683519"><ele>367.0</ele><time>2026-04-12T08:47:01.999Z</time></trkpt><trkpt lat="42.04932893136048" lon="14.362871027438391"><ele>367.0</ele><time>2026-04-12T08:47:02.999Z</time></trkpt><trkpt lat="42.04941215429314" lon="14.362840986395922"><ele>367.0</ele><time>2026-04-12T08:47:03.999Z</time></trkpt><trkpt lat="42.049487290563796" lon="14.362813479362115"><ele>367.0</ele><time>2026-04-12T08:47:04.999Z</time></trkpt><trkpt lat="42.04955448691658" lon="14.362788213930028"><ele>367.0</ele><time>2026-04-12T08:47:05.999Z</time></trkpt><trkpt lat="42.04961793069136" lon="14.362757073645351"><ele>367.0</ele><time>2026-04-12T08:47:06.999Z</time></trkpt><trkpt lat="42.049675625838326" lon="14.362705145745776"><ele>367.0</ele><time>2026-04-12T08:47:07.999Z</time></trkpt><trkpt lat="42.049722448369366" lon="14.362633672956163"><ele>367.0</ele><time>2026-04-12T08:47:08.999Z</time></trkpt><trkpt lat="42.049755909110516" lon="14.362544269245937"><ele>367.0</ele><time>2026-04-12T08:47:09.999Z</time></trkpt><trkpt lat="42.0497732366052" lon="14.362447907083265"><ele>367.0</ele><time>2026-04-12T08:47:10.999Z</time></trkpt><trkpt lat="42.04977905559003" lon="14.362346414166423"><ele>367.0</ele><time>2026-04-12T08:47:11.999Z</time></trkpt><trkpt lat="42.049760221458364" lon="14.362240311260598"><ele>367.0</ele><time>2026-04-12T08:47:12.999Z</time></trkpt><trkpt lat="42.04972808414711" lon="14.36213613613058"><ele>367.0</ele><time>2026-04-12T08:47:13.999Z</time></trkpt><trkpt lat="42.04967444587464" lon="14.362043603104592"><ele>367.0</ele><time>2026-04-12T08:47:14.999Z</time></trkpt><trkpt lat="42.049647002797414" lon="14.361929205908048"><ele>365.20000000000005</ele><time>2026-04-12T08:47:15.999Z</time></trkpt><trkpt lat="42.04958994077529" lon="14.361835217543137"><ele>363.4</ele><time>2026-04-12T08:47:16.999Z</time></trkpt><trkpt lat="42.04954635164716" lon="14.361727881242041"><ele>361.6</ele><time>2026-04-12T08:47:17.999Z</time></trkpt><trkpt lat="42.04951628173788" lon="14.361609541794133"><ele>359.79999999999995</ele><time>2026-04-12T08:47:18.999Z</time></trkpt><trkpt lat="42.04945817846192" lon="14.361510313611948"><ele>358.0</ele><time>2026-04-12T08:47:19.999Z</time></trkpt><trkpt lat="42.049413148502275" lon="14.36140131112377"><ele>357.59999999999997</ele><time>2026-04-12T08:47:20.999Z</time></trkpt><trkpt lat="42.04937206364127" lon="14.361288185357177"><ele>357.2</ele><time>2026-04-12T08:47:21.999Z</time></trkpt><trkpt lat="42.04933708069713" lon="14.36117062076333"><ele>356.8</ele><time>2026-04-12T08:47:22.999Z</time></trkpt><trkpt lat="42.04931900502367" lon="14.361040444761587"><ele>356.4</ele><time>2026-04-12T08:47:23.999Z</time></trkpt><trkpt lat="42.049320887413856" lon="14.36090979056547"><ele>356.0</ele><time>2026-04-12T08:47:24.999Z</time></trkpt><trkpt lat="42.04933977161299" lon="14.36078958046729"><ele>356.0</ele><time>2026-04-12T08:47:25.999Z</time></trkpt><trkpt lat="42.0493425629193" lon="14.360670705477387"><ele>356.0</ele><time>2026-04-12T08:47:26.999Z</time></trkpt><trkpt lat="42.0493268659981" lon="14.360554389031682"><ele>356.0</ele><time>2026-04-12T08:47:27.999Z</time></trkpt><trkpt lat="42.049334958091386" lon="14.360438776030774"><ele>356.0</ele><time>2026-04-12T08:47:28.999Z</time></trkpt><trkpt lat="42.04935799147669" lon="14.36032263578222"><ele>356.0</ele><time>2026-04-12T08:47:29.999Z</time></trkpt><trkpt lat="42.04943071917241" lon="14.360233560065623"><ele>355.0</ele><time>2026-04-12T08:47:30.999Z</time></trkpt><trkpt lat="42.04949647795453" lon="14.360163819010294"><ele>354.0</ele><time>2026-04-12T08:47:31.999Z</time></trkpt><trkpt lat="42.04958116482622" lon="14.360127668404454"><ele>353.0</ele><time>2026-04-12T08:47:32.999Z</time></trkpt><trkpt lat="42.04966650154418" lon="14.3601354528285"><ele>352.0</ele><time>2026-04-12T08:47:33.999Z</time></trkpt><trkpt lat="42.049736498371516" lon="14.360192107436955"><ele>351.0</ele><time>2026-04-12T08:47:34.999Z</time></trkpt><trkpt lat="42.049838859481994" lon="14.36026190922307"><ele>351.0</ele><time>2026-04-12T08:47:36.999Z</time></trkpt><trkpt lat="42.049939998010636" lon="14.360300039823448"><ele>351.0</ele><time>2026-04-12T08:47:38.999Z</time></trkpt><trkpt lat="42.05001753127189" lon="14.360324813297348"><ele>351.0</ele><time>2026-04-12T08:47:40.998Z</time></trkpt><trkpt lat="42.0500670427125" lon="14.360234357354953"><ele>351.0</ele><time>2026-04-12T08:47:41.998Z</time></trkpt><trkpt lat="42.050147436082476" lon="14.360187691748775"><ele>351.0</ele><time>2026-04-12T08:47:43.998Z</time></trkpt><trkpt lat="42.050205241955894" lon="14.36009578897204"><ele>351.0</ele><time>2026-04-12T08:47:45.998Z</time></trkpt><trkpt lat="42.05023870959055" lon="14.35998969848276"><ele>352.0</ele><time>2026-04-12T08:47:47.998Z</time></trkpt><trkpt lat="42.05023909460677" lon="14.359862894557434"><ele>353.0</ele><time>2026-04-12T08:47:49.998Z</time></trkpt><trkpt lat="42.0501985863885" lon="14.359732333038956"><ele>354.0</ele><time>2026-04-12T08:47:51.998Z</time></trkpt><trkpt lat="42.05014587813203" lon="14.359612728707782"><ele>355.0</ele><time>2026-04-12T08:47:53.998Z</time></trkpt><trkpt lat="42.05009563063138" lon="14.359460745404633"><ele>356.0</ele><time>2026-04-12T08:47:55.998Z</time></trkpt><trkpt lat="42.050041829289384" lon="14.359309141762374"><ele>356.0</ele><time>2026-04-12T08:47:57.998Z</time></trkpt><trkpt lat="42.04998942197477" lon="14.3591549494726"><ele>356.0</ele><time>2026-04-12T08:47:59.998Z</time></trkpt><trkpt lat="42.04988590901108" lon="14.35905333956376"><ele>356.0</ele><time>2026-04-12T08:48:01.998Z</time></trkpt><trkpt lat="42.04982373115732" lon="14.35901388939493"><ele>356.0</ele><time>2026-04-12T08:48:02.998Z</time></trkpt><trkpt lat="42.04976027055729" lon="14.358978570420277"><ele>356.0</ele><time>2026-04-12T08:48:03.998Z</time></trkpt><trkpt lat="42.049692697376095" lon="14.358944846662343"><ele>355.71428571428567</ele><time>2026-04-12T08:48:04.998Z</time></trkpt><trkpt lat="42.049623521831805" lon="14.35891121175511"><ele>355.42857142857144</ele><time>2026-04-12T08:48:05.998Z</time></trkpt><trkpt lat="42.04955559895223" lon="14.3588748016025"><ele>355.1428571428571</ele><time>2026-04-12T08:48:06.998Z</time></trkpt><trkpt lat="42.04948721667305" lon="14.358840336164116"><ele>354.85714285714283</ele><time>2026-04-12T08:48:07.998Z</time></trkpt><trkpt lat="42.04941674928101" lon="14.358806023302893"><ele>354.57142857142856</ele><time>2026-04-12T08:48:08.998Z</time></trkpt><trkpt lat="42.04935026223832" lon="14.358771357543427"><ele>354.2857142857143</ele><time>2026-04-12T08:48:09.998Z</time></trkpt><trkpt lat="42.04928699358754" lon="14.358742211531352"><ele>354.0</ele><time>2026-04-12T08:48:10.998Z</time></trkpt><trkpt lat="42.04922251946632" lon="14.358710659708224"><ele>354.0</ele><time>2026-04-12T08:48:11.998Z</time></trkpt><trkpt lat="42.04915376279017" lon="14.35867993791314"><ele>354.0</ele><time>2026-04-12T08:48:12.998Z</time></trkpt><trkpt lat="42.04908848579876" lon="14.358636811211086"><ele>354.0</ele><time>2026-04-12T08:48:13.998Z</time></trkpt><trkpt lat="42.04903224599957" lon="14.35858415502784"><ele>354.0</ele><time>2026-04-12T08:48:14.998Z</time></trkpt><trkpt lat="42.04897362246185" lon="14.358543829022262"><ele>354.0</ele><time>2026-04-12T08:48:15.998Z</time></trkpt><trkpt lat="42.04893315334708" lon="14.358458677683547"><ele>354.0</ele><time>2026-04-12T08:48:16.998Z</time></trkpt><trkpt lat="42.04890765023129" lon="14.358358305904588"><ele>354.0</ele><time>2026-04-12T08:48:17.998Z</time></trkpt><trkpt lat="42.04889212083781" lon="14.358263892223865"><ele>352.0</ele><time>2026-04-12T08:48:18.998Z</time></trkpt><trkpt lat="42.04887897607344" lon="14.358168013608607"><ele>350.0</ele><time>2026-04-12T08:48:19.998Z</time></trkpt><trkpt lat="42.04887921203387" lon="14.358068226733096"><ele>348.0</ele><time>2026-04-12T08:48:20.998Z</time></trkpt><trkpt lat="42.0488566024162" lon="14.35797724741943"><ele>346.0</ele><time>2026-04-12T08:48:21.998Z</time></trkpt><trkpt lat="42.04883364956292" lon="14.357880300384439"><ele>344.0</ele><time>2026-04-12T08:48:22.998Z</time></trkpt><trkpt lat="42.04879746262568" lon="14.357780245346332"><ele>342.0</ele><time>2026-04-12T08:48:23.998Z</time></trkpt><trkpt lat="42.04875425825315" lon="14.357687994042633"><ele>342.0</ele><time>2026-04-12T08:48:24.998Z</time></trkpt><trkpt lat="42.04869939623191" lon="14.357604130189815"><ele>342.0</ele><time>2026-04-12T08:48:26Z</time></trkpt><trkpt lat="42.048633126697425" lon="14.357538218376689"><ele>342.0</ele><time>2026-04-12T08:48:27Z</time></trkpt><trkpt lat="42.048554946347735" lon="14.357488662223524"><ele>342.0</ele><time>2026-04-12T08:48:28Z</time></trkpt><trkpt lat="42.048472469448974" lon="14.357456054287592"><ele>342.0</ele><time>2026-04-12T08:48:29Z</time></trkpt><trkpt lat="42.048388185932076" lon="14.357435424269418"><ele>342.0</ele><time>2026-04-12T08:48:30Z</time></trkpt><trkpt lat="42.048301134811936" lon="14.35741763388367"><ele>341.5</ele><time>2026-04-12T08:48:31Z</time></trkpt><trkpt lat="42.04821475466172" lon="14.357395836110308"><ele>341.0</ele><time>2026-04-12T08:48:32Z</time></trkpt><trkpt lat="42.04812999005383" lon="14.35736710389491"><ele>340.5</ele><time>2026-04-12T08:48:33Z</time></trkpt><trkpt lat="42.048044784406166" lon="14.357340377527013"><ele>340.0</ele><time>2026-04-12T08:48:34Z</time></trkpt><trkpt lat="42.04796122651817" lon="14.357322252339712"><ele>339.5</ele><time>2026-04-12T08:48:35Z</time></trkpt><trkpt lat="42.04787878902922" lon="14.357306895861555"><ele>339.0</ele><time>2026-04-12T08:48:36Z</time></trkpt><trkpt lat="42.04779747233074" lon="14.357297004534894"><ele>339.0</ele><time>2026-04-12T08:48:37Z</time></trkpt><trkpt lat="42.04771538515317" lon="14.357293348938857"><ele>339.0</ele><time>2026-04-12T08:48:38Z</time></trkpt><trkpt lat="42.047638230856634" lon="14.357274519236833"><ele>339.0</ele><time>2026-04-12T08:48:39Z</time></trkpt><trkpt lat="42.04754835067816" lon="14.357274930590066"><ele>339.0</ele><time>2026-04-12T08:48:40Z</time></trkpt><trkpt lat="42.04745714259024" lon="14.357282690390363"><ele>339.0</ele><time>2026-04-12T08:48:41Z</time></trkpt><trkpt lat="42.047374017108446" lon="14.357296625524405"><ele>339.0</ele><time>2026-04-12T08:48:42Z</time></trkpt><trkpt lat="42.04729253431132" lon="14.357305443343359"><ele>336.8333333333333</ele><time>2026-04-12T08:48:43Z</time></trkpt><trkpt lat="42.047209004787916" lon="14.357319613516907"><ele>334.6666666666667</ele><time>2026-04-12T08:48:44Z</time></trkpt><trkpt lat="42.04712805328354" lon="14.357341632293299"><ele>332.5</ele><time>2026-04-12T08:48:45Z</time></trkpt><trkpt lat="42.047054177958415" lon="14.357368896469161"><ele>330.33333333333337</ele><time>2026-04-12T08:48:45.999Z</time></trkpt><trkpt lat="42.04696405286382" lon="14.357415891344624"><ele>328.1666666666667</ele><time>2026-04-12T08:48:46.999Z</time></trkpt><trkpt lat="42.046887080533516" lon="14.3574660934585"><ele>326.0</ele><time>2026-04-12T08:48:47.999Z</time></trkpt><trkpt lat="42.04681214987236" lon="14.357512740987746"><ele>326.0</ele><time>2026-04-12T08:48:48.999Z</time></trkpt><trkpt lat="42.04673421244691" lon="14.357547692810137"><ele>326.0</ele><time>2026-04-12T08:48:49.999Z</time></trkpt><trkpt lat="42.04666367762281" lon="14.35756022581987"><ele>326.0</ele><time>2026-04-12T08:48:50.999Z</time></trkpt><trkpt lat="42.04658399602618" lon="14.357533671021997"><ele>326.0</ele><time>2026-04-12T08:48:51.999Z</time></trkpt><trkpt lat="42.04651248211834" lon="14.35747590449205"><ele>326.0</ele><time>2026-04-12T08:48:52.999Z</time></trkpt><trkpt lat="42.04645965299989" lon="14.3573957270811"><ele>326.0</ele><time>2026-04-12T08:48:53.999Z</time></trkpt><trkpt lat="42.046416378266414" lon="14.357307693239198"><ele>322.0</ele><time>2026-04-12T08:48:54.999Z</time></trkpt><trkpt lat="42.04636897354924" lon="14.357224101470893"><ele>318.0</ele><time>2026-04-12T08:48:55.999Z</time></trkpt><trkpt lat="42.04631651383396" lon="14.357138617201537"><ele>314.0</ele><time>2026-04-12T08:48:56.999Z</time></trkpt><trkpt lat="42.046273293475316" lon="14.357057036188518"><ele>310.0</ele><time>2026-04-12T08:48:57.999Z</time></trkpt><trkpt lat="42.0462253540809" lon="14.35697760147739"><ele>306.0</ele><time>2026-04-12T08:48:58.999Z</time></trkpt><trkpt lat="42.04618267151833" lon="14.356901441690532"><ele>302.0</ele><time>2026-04-12T08:48:59.999Z</time></trkpt><trkpt lat="42.04614788772668" lon="14.356815599240036"><ele>302.0</ele><time>2026-04-12T08:49:00.999Z</time></trkpt><trkpt lat="42.04612309867554" lon="14.35672882294659"><ele>302.0</ele><time>2026-04-12T08:49:01.999Z</time></trkpt><trkpt lat="42.0460896843996" lon="14.356630943994366"><ele>302.0</ele><time>2026-04-12T08:49:02.999Z</time></trkpt><trkpt lat="42.04611334176735" lon="14.356504613404388"><ele>302.0</ele><time>2026-04-12T08:49:03.999Z</time></trkpt><trkpt lat="42.04614361879497" lon="14.35639504713781"><ele>302.0</ele><time>2026-04-12T08:49:04.999Z</time></trkpt><trkpt lat="42.04619353207173" lon="14.356297533340156"><ele>302.0</ele><time>2026-04-12T08:49:05.999Z</time></trkpt><trkpt lat="42.04625830336919" lon="14.356215698525867"><ele>301.83333333333337</ele><time>2026-04-12T08:49:06.999Z</time></trkpt><trkpt lat="42.046326459736306" lon="14.356142651398205"><ele>301.6666666666667</ele><time>2026-04-12T08:49:07.999Z</time></trkpt><trkpt lat="42.04640263228868" lon="14.356081723030245"><ele>301.5</ele><time>2026-04-12T08:49:08.999Z</time></trkpt><trkpt lat="42.046480378067365" lon="14.356022488688355"><ele>301.3333333333333</ele><time>2026-04-12T08:49:09.999Z</time></trkpt><trkpt lat="42.04656000943539" lon="14.355963757587643"><ele>301.16666666666663</ele><time>2026-04-12T08:49:10.999Z</time></trkpt><trkpt lat="42.046638564159466" lon="14.355899487076316"><ele>301.0</ele><time>2026-04-12T08:49:11.999Z</time></trkpt><trkpt lat="42.04671639898153" lon="14.3558303411569"><ele>303.16666666666663</ele><time>2026-04-12T08:49:12.999Z</time></trkpt><trkpt lat="42.04678887477279" lon="14.355760203809595"><ele>305.3333333333333</ele><time>2026-04-12T08:49:13.999Z</time></trkpt><trkpt lat="42.04685753920943" lon="14.355686437028703"><ele>307.5</ele><time>2026-04-12T08:49:14.999Z</time></trkpt><trkpt lat="42.04692333771617" lon="14.355619862182648"><ele>309.6666666666667</ele><time>2026-04-12T08:49:15.999Z</time></trkpt><trkpt lat="42.04700425383755" lon="14.355552607013022"><ele>311.83333333333337</ele><time>2026-04-12T08:49:16.999Z</time></trkpt><trkpt lat="42.04707822029949" lon="14.355481027112184"><ele>314.0</ele><time>2026-04-12T08:49:17.999Z</time></trkpt><trkpt lat="42.04715960924837" lon="14.355404815873321"><ele>314.0</ele><time>2026-04-12T08:49:18.999Z</time></trkpt><trkpt lat="42.047238818949545" lon="14.355323498318448"><ele>314.0</ele><time>2026-04-12T08:49:19.999Z</time></trkpt><trkpt lat="42.04731166192903" lon="14.355237789922452"><ele>314.0</ele><time>2026-04-12T08:49:20.999Z</time></trkpt><trkpt lat="42.04736847352197" lon="14.3551509007493"><ele>314.0</ele><time>2026-04-12T08:49:21.999Z</time></trkpt><trkpt lat="42.047408987856464" lon="14.355034417333398"><ele>314.0</ele><time>2026-04-12T08:49:22.999Z</time></trkpt><trkpt lat="42.04745882183374" lon="14.354921283128986"><ele>315.79999999999995</ele><time>2026-04-12T08:49:23.999Z</time></trkpt><trkpt lat="42.04752459956585" lon="14.354827632333837"><ele>317.59999999999997</ele><time>2026-04-12T08:49:24.999Z</time></trkpt><trkpt lat="42.0475899224528" lon="14.3547247647666"><ele>319.4</ele><time>2026-04-12T08:49:25.999Z</time></trkpt><trkpt lat="42.04766589709431" lon="14.35463750625815"><ele>321.2</ele><time>2026-04-12T08:49:26.999Z</time></trkpt><trkpt lat="42.047750848113765" lon="14.354565143066468"><ele>323.0</ele><time>2026-04-12T08:49:27.999Z</time></trkpt><trkpt lat="42.04783749389776" lon="14.354498076493202"><ele>318.2</ele><time>2026-04-12T08:49:28.999Z</time></trkpt><trkpt lat="42.04791611185857" lon="14.354422006010903"><ele>313.4</ele><time>2026-04-12T08:49:29.999Z</time></trkpt><trkpt lat="42.04799672909908" lon="14.354349024469576"><ele>308.59999999999997</ele><time>2026-04-12T08:49:30.999Z</time></trkpt><trkpt lat="42.04808667658471" lon="14.354294457250042"><ele>303.79999999999995</ele><time>2026-04-12T08:49:31.999Z</time></trkpt><trkpt lat="42.048182578503784" lon="14.354253416062319"><ele>299.0</ele><time>2026-04-12T08:49:32.999Z</time></trkpt><trkpt lat="42.04827714749749" lon="14.354213432071909"><ele>302.0</ele><time>2026-04-12T08:49:33.999Z</time></trkpt><trkpt lat="42.04837049011597" lon="14.354166116604839"><ele>305.0</ele><time>2026-04-12T08:49:34.999Z</time></trkpt><trkpt lat="42.04846376361164" lon="14.354122321224102"><ele>308.0</ele><time>2026-04-12T08:49:35.998Z</time></trkpt><trkpt lat="42.04855878822678" lon="14.354078749420971"><ele>311.0</ele><time>2026-04-12T08:49:36.998Z</time></trkpt><trkpt lat="42.048652109948435" lon="14.354032444659667"><ele>314.0</ele><time>2026-04-12T08:49:37.998Z</time></trkpt><trkpt lat="42.04874283446596" lon="14.353981084679"><ele>314.0</ele><time>2026-04-12T08:49:38.998Z</time></trkpt><trkpt lat="42.048830573741235" lon="14.353924315005537"><ele>314.0</ele><time>2026-04-12T08:49:39.998Z</time></trkpt><trkpt lat="42.04891050309458" lon="14.353857724405009"><ele>314.0</ele><time>2026-04-12T08:49:40.998Z</time></trkpt><trkpt lat="42.048988689443206" lon="14.353781119489604"><ele>314.0</ele><time>2026-04-12T08:49:41.998Z</time></trkpt><trkpt lat="42.04906506392196" lon="14.353705733930719"><ele>314.0</ele><time>2026-04-12T08:49:42.998Z</time></trkpt><trkpt lat="42.049138513135745" lon="14.353631566427996"><ele>309.59999999999997</ele><time>2026-04-12T08:49:43.998Z</time></trkpt><trkpt lat="42.049215794257265" lon="14.353569519660729"><ele>305.2</ele><time>2026-04-12T08:49:44.998Z</time></trkpt><trkpt lat="42.049301908480636" lon="14.353524214063675"><ele>300.79999999999995</ele><time>2026-04-12T08:49:45.998Z</time></trkpt><trkpt lat="42.049392650545755" lon="14.353494696787395"><ele>296.4</ele><time>2026-04-12T08:49:46.998Z</time></trkpt><trkpt lat="42.04948673366298" lon="14.353506502585024"><ele>292.0</ele><time>2026-04-12T08:49:47.998Z</time></trkpt><trkpt lat="42.049577022878566" lon="14.353515943364167"><ele>292.0</ele><time>2026-04-12T08:49:48.998Z</time></trkpt><trkpt lat="42.049671387293124" lon="14.35352835721042"><ele>292.0</ele><time>2026-04-12T08:49:49.998Z</time></trkpt><trkpt lat="42.04976478894142" lon="14.35354212779496"><ele>292.0</ele><time>2026-04-12T08:49:50.998Z</time></trkpt><trkpt lat="42.04985975429875" lon="14.353558166001639"><ele>292.0</ele><time>2026-04-12T08:49:51.998Z</time></trkpt><trkpt lat="42.04995855286609" lon="14.353566302035809"><ele>292.0</ele><time>2026-04-12T08:49:52.998Z</time></trkpt><trkpt lat="42.05005994379157" lon="14.353559439929478"><ele>293.6</ele><time>2026-04-12T08:49:53.998Z</time></trkpt><trkpt lat="42.05015725376919" lon="14.35350423098774"><ele>295.2</ele><time>2026-04-12T08:49:54.998Z</time></trkpt><trkpt lat="42.050252283854526" lon="14.353462789843785"><ele>296.8</ele><time>2026-04-12T08:49:55.998Z</time></trkpt><trkpt lat="42.05034725165635" lon="14.353413343683606"><ele>298.4</ele><time>2026-04-12T08:49:56.998Z</time></trkpt><trkpt lat="42.05044102428596" lon="14.353360944167019"><ele>300.0</ele><time>2026-04-12T08:49:57.998Z</time></trkpt><trkpt lat="42.050533359534725" lon="14.353305603495656"><ele>300.0</ele><time>2026-04-12T08:49:58.998Z</time></trkpt><trkpt lat="42.05062769157967" lon="14.353250296309541"><ele>300.0</ele><time>2026-04-12T08:49:59.998Z</time></trkpt><trkpt lat="42.050718145457004" lon="14.353193087295551"><ele>300.0</ele><time>2026-04-12T08:50:00.998Z</time></trkpt><trkpt lat="42.05080998770983" lon="14.353136049918293"><ele>300.0</ele><time>2026-04-12T08:50:01.998Z</time></trkpt><trkpt lat="42.05089994942916" lon="14.353086000634406"><ele>300.0</ele><time>2026-04-12T08:50:02.998Z</time></trkpt><trkpt lat="42.05098652361552" lon="14.353040819927783"><ele>301.8</ele><time>2026-04-12T08:50:03.998Z</time></trkpt><trkpt lat="42.051081642172775" lon="14.353032059713454"><ele>303.6</ele><time>2026-04-12T08:50:04.998Z</time></trkpt><trkpt lat="42.05117468590322" lon="14.35302189888945"><ele>305.4</ele><time>2026-04-12T08:50:05.998Z</time></trkpt><trkpt lat="42.05126741103251" lon="14.353026610996823"><ele>307.2</ele><time>2026-04-12T08:50:06.998Z</time></trkpt><trkpt lat="42.05136694975144" lon="14.353034454571576"><ele>309.0</ele><time>2026-04-12T08:50:07.998Z</time></trkpt><trkpt lat="42.05146136570842" lon="14.353041982513872"><ele>309.0</ele><time>2026-04-12T08:50:08.998Z</time></trkpt><trkpt lat="42.05155869679682" lon="14.353053142550053"><ele>309.0</ele><time>2026-04-12T08:50:09.998Z</time></trkpt><trkpt lat="42.05165905275691" lon="14.353063863547575"><ele>309.0</ele><time>2026-04-12T08:50:10.998Z</time></trkpt><trkpt lat="42.051758358056105" lon="14.353069245041826"><ele>309.0</ele><time>2026-04-12T08:50:11.998Z</time></trkpt><trkpt lat="42.05185889924287" lon="14.353065309447798"><ele>309.0</ele><time>2026-04-12T08:50:12.998Z</time></trkpt><trkpt lat="42.051957397554816" lon="14.353053233796656"><ele>301.59999999999997</ele><time>2026-04-12T08:50:13.998Z</time></trkpt><trkpt lat="42.05205592799819" lon="14.353032401695385"><ele>294.2</ele><time>2026-04-12T08:50:14.998Z</time></trkpt><trkpt lat="42.05215497230916" lon="14.352996783154175"><ele>286.79999999999995</ele><time>2026-04-12T08:50:15.998Z</time></trkpt><trkpt lat="42.05225036463239" lon="14.352962107351804"><ele>279.4</ele><time>2026-04-12T08:50:16.998Z</time></trkpt><trkpt lat="42.05233987263134" lon="14.352893470415177"><ele>272.0</ele><time>2026-04-12T08:50:17.998Z</time></trkpt><trkpt lat="42.05240826143653" lon="14.352794767706373"><ele>274.8</ele><time>2026-04-12T08:50:18.998Z</time></trkpt><trkpt lat="42.05247443622895" lon="14.352701981626852"><ele>277.6</ele><time>2026-04-12T08:50:19.998Z</time></trkpt><trkpt lat="42.05254284528966" lon="14.352603892448954"><ele>280.40000000000003</ele><time>2026-04-12T08:50:20.998Z</time></trkpt><trkpt lat="42.052622044494846" lon="14.352518369623203"><ele>283.2</ele><time>2026-04-12T08:50:21.998Z</time></trkpt><trkpt lat="42.05272332514967" lon="14.352475738812345"><ele>286.0</ele><time>2026-04-12T08:50:22.998Z</time></trkpt><trkpt lat="42.052807008407385" lon="14.352398740559453"><ele>286.0</ele><time>2026-04-12T08:50:23.998Z</time></trkpt><trkpt lat="42.05289837474463" lon="14.352339866830373"><ele>286.0</ele><time>2026-04-12T08:50:24.998Z</time></trkpt><trkpt lat="42.05299689598944" lon="14.352298460473728"><ele>286.0</ele><time>2026-04-12T08:50:25.998Z</time></trkpt><trkpt lat="42.05308824880747" lon="14.352238284187333"><ele>286.0</ele><time>2026-04-12T08:50:26.998Z</time></trkpt><trkpt lat="42.05317205499853" lon="14.352178898788"><ele>286.0</ele><time>2026-04-12T08:50:27.998Z</time></trkpt><trkpt lat="42.053248514387256" lon="14.35212671192071"><ele>289.3333333333333</ele><time>2026-04-12T08:50:28.998Z</time></trkpt><trkpt lat="42.053325113875424" lon="14.352087846792635"><ele>292.66666666666663</ele><time>2026-04-12T08:50:29.998Z</time></trkpt><trkpt lat="42.05340679640264" lon="14.352082920416686"><ele>296.0</ele><time>2026-04-12T08:50:30.998Z</time></trkpt><trkpt lat="42.053486388157495" lon="14.352113587487313"><ele>299.3333333333333</ele><time>2026-04-12T08:50:31.999Z</time></trkpt><trkpt lat="42.05357255174611" lon="14.352149524513836"><ele>302.6666666666667</ele><time>2026-04-12T08:50:32.999Z</time></trkpt><trkpt lat="42.05365890778871" lon="14.352203676703526"><ele>306.0</ele><time>2026-04-12T08:50:33.999Z</time></trkpt><trkpt lat="42.05375672676846" lon="14.352228442134216"><ele>298.0</ele><time>2026-04-12T08:50:34.999Z</time></trkpt><trkpt lat="42.05387534404976" lon="14.352172836753898"><ele>290.0</ele><time>2026-04-12T08:50:35.999Z</time></trkpt><trkpt lat="42.05396954718815" lon="14.352132200192335"><ele>282.0</ele><time>2026-04-12T08:50:36.999Z</time></trkpt><trkpt lat="42.05406277632654" lon="14.352089262147913"><ele>274.0</ele><time>2026-04-12T08:50:37.999Z</time></trkpt><trkpt lat="42.05415560435947" lon="14.352061375731092"><ele>266.0</ele><time>2026-04-12T08:50:39Z</time></trkpt><trkpt lat="42.05424661664677" lon="14.352072088407997"><ele>266.0</ele><time>2026-04-12T08:50:39.999Z</time></trkpt><trkpt lat="42.054334972089364" lon="14.352106341824781"><ele>266.0</ele><time>2026-04-12T08:50:41Z</time></trkpt><trkpt lat="42.05442305313186" lon="14.352151334991342"><ele>266.0</ele><time>2026-04-12T08:50:42Z</time></trkpt><trkpt lat="42.054501578957165" lon="14.352194001509485"><ele>266.0</ele><time>2026-04-12T08:50:42.999Z</time></trkpt><trkpt lat="42.05458749793891" lon="14.352250078978487"><ele>266.0</ele><time>2026-04-12T08:50:44Z</time></trkpt><trkpt lat="42.05466378950725" lon="14.352311178114972"><ele>268.0</ele><time>2026-04-12T08:50:45Z</time></trkpt><trkpt lat="42.05473532055381" lon="14.352381907660844"><ele>270.0</ele><time>2026-04-12T08:50:46Z</time></trkpt><trkpt lat="42.05480861510669" lon="14.352460740934243"><ele>272.0</ele><time>2026-04-12T08:50:47Z</time></trkpt><trkpt lat="42.05487713812998" lon="14.352542037261486"><ele>274.0</ele><time>2026-04-12T08:50:47.999Z</time></trkpt><trkpt lat="42.054945888771954" lon="14.35263162506833"><ele>276.0</ele><time>2026-04-12T08:50:48.999Z</time></trkpt><trkpt lat="42.05501316266452" lon="14.352724144480987"><ele>276.0</ele><time>2026-04-12T08:50:49.999Z</time></trkpt><trkpt lat="42.05508256036433" lon="14.352815414283073"><ele>276.0</ele><time>2026-04-12T08:50:50.999Z</time></trkpt><trkpt lat="42.055152632091904" lon="14.35290729555053"><ele>276.0</ele><time>2026-04-12T08:50:51.999Z</time></trkpt><trkpt lat="42.055233158429346" lon="14.353000352888996"><ele>276.0</ele><time>2026-04-12T08:50:52.999Z</time></trkpt><trkpt lat="42.05531735140971" lon="14.353079795369139"><ele>276.0</ele><time>2026-04-12T08:50:53.999Z</time></trkpt><trkpt lat="42.05540388091549" lon="14.353151923215815"><ele>276.2</ele><time>2026-04-12T08:50:54.999Z</time></trkpt><trkpt lat="42.05548951188085" lon="14.353223192135893"><ele>276.40000000000003</ele><time>2026-04-12T08:50:55.999Z</time></trkpt><trkpt lat="42.05557422203808" lon="14.353295165281732"><ele>276.6</ele><time>2026-04-12T08:50:56.999Z</time></trkpt><trkpt lat="42.055659273463" lon="14.353367428314298"><ele>276.8</ele><time>2026-04-12T08:50:57.999Z</time></trkpt><trkpt lat="42.05575213552565" lon="14.353439169345753"><ele>277.0</ele><time>2026-04-12T08:50:58.999Z</time></trkpt><trkpt lat="42.055842720772056" lon="14.353501272247533"><ele>277.0</ele><time>2026-04-12T08:50:59.999Z</time></trkpt><trkpt lat="42.055938890477044" lon="14.35356029232395"><ele>277.0</ele><time>2026-04-12T08:51:00.999Z</time></trkpt><trkpt lat="42.05603850933862" lon="14.353610536464965"><ele>277.0</ele><time>2026-04-12T08:51:01.999Z</time></trkpt><trkpt lat="42.05613343061112" lon="14.353652100317515"><ele>277.0</ele><time>2026-04-12T08:51:02.999Z</time></trkpt><trkpt lat="42.05624211437419" lon="14.353687668009789"><ele>277.0</ele><time>2026-04-12T08:51:03.999Z</time></trkpt><trkpt lat="42.056340783913576" lon="14.353715734928384"><ele>277.0</ele><time>2026-04-12T08:51:04.999Z</time></trkpt><trkpt lat="42.056444923076526" lon="14.353736633509262"><ele>277.0</ele><time>2026-04-12T08:51:06Z</time></trkpt><trkpt lat="42.05654388884682" lon="14.353752371929593"><ele>277.0</ele><time>2026-04-12T08:51:07Z</time></trkpt><trkpt lat="42.05664329895823" lon="14.353763212049845"><ele>277.0</ele><time>2026-04-12T08:51:08Z</time></trkpt><trkpt lat="42.05674466804798" lon="14.353765346870967"><ele>277.0</ele><time>2026-04-12T08:51:09Z</time></trkpt><trkpt lat="42.05685054450574" lon="14.353750893719504"><ele>273.4</ele><time>2026-04-12T08:51:10Z</time></trkpt><trkpt lat="42.05695801568323" lon="14.353720799755529"><ele>269.79999999999995</ele><time>2026-04-12T08:51:11Z</time></trkpt><trkpt lat="42.05706177348904" lon="14.353687539029705"><ele>266.2</ele><time>2026-04-12T08:51:12Z</time></trkpt><trkpt lat="42.05716735881954" lon="14.353651996344304"><ele>262.59999999999997</ele><time>2026-04-12T08:51:13Z</time></trkpt><trkpt lat="42.05727166001603" lon="14.353616878320494"><ele>259.0</ele><time>2026-04-12T08:51:14Z</time></trkpt><trkpt lat="42.05737828305569" lon="14.35358096426676"><ele>258.59999999999997</ele><time>2026-04-12T08:51:15Z</time></trkpt><trkpt lat="42.057483993238804" lon="14.353544945637847"><ele>258.2</ele><time>2026-04-12T08:51:16Z</time></trkpt><trkpt lat="42.057591802061914" lon="14.353507128615345"><ele>257.79999999999995</ele><time>2026-04-12T08:51:17Z</time></trkpt><trkpt lat="42.057699134577085" lon="14.353470449996019"><ele>257.4</ele><time>2026-04-12T08:51:18Z</time></trkpt><trkpt lat="42.05780915635893" lon="14.353436718629492"><ele>257.0</ele><time>2026-04-12T08:51:19Z</time></trkpt><trkpt lat="42.05791837048543" lon="14.353403595258223"><ele>257.0</ele><time>2026-04-12T08:51:20Z</time></trkpt><trkpt lat="42.058024512704506" lon="14.353376380420128"><ele>257.0</ele><time>2026-04-12T08:51:21Z</time></trkpt><trkpt lat="42.05812483257143" lon="14.353354613451105"><ele>257.0</ele><time>2026-04-12T08:51:22Z</time></trkpt><trkpt lat="42.058229107065905" lon="14.353348845822085"><ele>257.0</ele><time>2026-04-12T08:51:23Z</time></trkpt><trkpt lat="42.05832957713389" lon="14.353360747517284"><ele>257.0</ele><time>2026-04-12T08:51:24Z</time></trkpt><trkpt lat="42.058428899814324" lon="14.35338841218731"><ele>256.6</ele><time>2026-04-12T08:51:25Z</time></trkpt><trkpt lat="42.058535481267405" lon="14.353413535374974"><ele>256.2</ele><time>2026-04-12T08:51:26Z</time></trkpt><trkpt lat="42.05864382842221" lon="14.353430647253917"><ele>255.8</ele><time>2026-04-12T08:51:27Z</time></trkpt><trkpt lat="42.05874964592362" lon="14.353442253590455"><ele>255.4</ele><time>2026-04-12T08:51:28Z</time></trkpt><trkpt lat="42.05885463409157" lon="14.353445539868117"><ele>255.0</ele><time>2026-04-12T08:51:29Z</time></trkpt><trkpt lat="42.05895962140554" lon="14.353444449693393"><ele>255.0</ele><time>2026-04-12T08:51:30Z</time></trkpt><trkpt lat="42.0590611545804" lon="14.353441152764358"><ele>255.0</ele><time>2026-04-12T08:51:31Z</time></trkpt><trkpt lat="42.059165401207814" lon="14.353436311452171"><ele>255.0</ele><time>2026-04-12T08:51:32Z</time></trkpt><trkpt lat="42.0592742018667" lon="14.353425558735005"><ele>255.0</ele><time>2026-04-12T08:51:33Z</time></trkpt><trkpt lat="42.0593815344388" lon="14.353407176357646"><ele>255.0</ele><time>2026-04-12T08:51:34Z</time></trkpt><trkpt lat="42.059488767931555" lon="14.353373545208719"><ele>255.6</ele><time>2026-04-12T08:51:35Z</time></trkpt><trkpt lat="42.05959509778494" lon="14.353327482269743"><ele>256.2</ele><time>2026-04-12T08:51:36Z</time></trkpt><trkpt lat="42.05969601179435" lon="14.353287336251983"><ele>256.8</ele><time>2026-04-12T08:51:37Z</time></trkpt><trkpt lat="42.05980175222697" lon="14.35325162531852"><ele>257.4</ele><time>2026-04-12T08:51:38Z</time></trkpt><trkpt lat="42.059907566071686" lon="14.353217394422206"><ele>258.0</ele><time>2026-04-12T08:51:39Z</time></trkpt><trkpt lat="42.06001345925675" lon="14.35318484483588"><ele>258.0</ele><time>2026-04-12T08:51:40Z</time></trkpt><trkpt lat="42.06011664278619" lon="14.353153128159487"><ele>258.0</ele><time>2026-04-12T08:51:41Z</time></trkpt><trkpt lat="42.06021596895048" lon="14.353122718618085"><ele>258.0</ele><time>2026-04-12T08:51:42Z</time></trkpt><trkpt lat="42.060316419815116" lon="14.353092577273552"><ele>258.0</ele><time>2026-04-12T08:51:43Z</time></trkpt><trkpt lat="42.060418295368365" lon="14.35306243868338"><ele>258.0</ele><time>2026-04-12T08:51:44Z</time></trkpt><trkpt lat="42.060521519527796" lon="14.353032255238428"><ele>251.8</ele><time>2026-04-12T08:51:45Z</time></trkpt><trkpt lat="42.060623654797965" lon="14.353002326242514"><ele>245.60000000000002</ele><time>2026-04-12T08:51:46Z</time></trkpt><trkpt lat="42.060726252752914" lon="14.352974187829906"><ele>239.39999999999998</ele><time>2026-04-12T08:51:46.999Z</time></trkpt><trkpt lat="42.06082772611598" lon="14.35294706873425"><ele>233.2</ele><time>2026-04-12T08:51:47.999Z</time></trkpt><trkpt lat="42.06092558477536" lon="14.352922036640232"><ele>227.0</ele><time>2026-04-12T08:51:48.999Z</time></trkpt><trkpt lat="42.06101901375929" lon="14.352898972587514"><ele>227.0</ele><time>2026-04-12T08:51:49.999Z</time></trkpt><trkpt lat="42.06111387043548" lon="14.352876722068023"><ele>227.0</ele><time>2026-04-12T08:51:50.999Z</time></trkpt><trkpt lat="42.06120870292464" lon="14.352854861623674"><ele>227.0</ele><time>2026-04-12T08:51:51.999Z</time></trkpt><trkpt lat="42.06130494369133" lon="14.352833681272811"><ele>227.0</ele><time>2026-04-12T08:51:52.999Z</time></trkpt><trkpt lat="42.061402527482144" lon="14.352816461337895"><ele>227.0</ele><time>2026-04-12T08:51:53.999Z</time></trkpt><trkpt lat="42.061501713532316" lon="14.352796919953756"><ele>227.0</ele><time>2026-04-12T08:51:54.999Z</time></trkpt><trkpt lat="42.06160172698888" lon="14.352764442460245"><ele>227.0</ele><time>2026-04-12T08:51:55.999Z</time></trkpt><trkpt lat="42.061696875721104" lon="14.352714365553215"><ele>227.0</ele><time>2026-04-12T08:51:56.999Z</time></trkpt><trkpt lat="42.06177978561982" lon="14.352632518888191"><ele>227.0</ele><time>2026-04-12T08:51:57.999Z</time></trkpt><trkpt lat="42.06187639952817" lon="14.352585533452144"><ele>227.0</ele><time>2026-04-12T08:51:58.999Z</time></trkpt><trkpt lat="42.061964832473606" lon="14.352520270651544"><ele>228.2</ele><time>2026-04-12T08:51:59.999Z</time></trkpt><trkpt lat="42.062044075551185" lon="14.352439337841322"><ele>229.39999999999998</ele><time>2026-04-12T08:52:00.999Z</time></trkpt><trkpt lat="42.06213483387021" lon="14.352401582654489"><ele>230.60000000000002</ele><time>2026-04-12T08:52:01.999Z</time></trkpt><trkpt lat="42.06221972184059" lon="14.352350845012122"><ele>231.8</ele><time>2026-04-12T08:52:02.999Z</time></trkpt><trkpt lat="42.06230942602572" lon="14.352320764028748"><ele>233.0</ele><time>2026-04-12T08:52:03.999Z</time></trkpt><trkpt lat="42.062398756400604" lon="14.352313508268338"><ele>234.16666666666669</ele><time>2026-04-12T08:52:04.999Z</time></trkpt><trkpt lat="42.06248647304783" lon="14.352325996424327"><ele>235.33333333333334</ele><time>2026-04-12T08:52:05.999Z</time></trkpt><trkpt lat="42.06257236352998" lon="14.352355484408275"><ele>236.5</ele><time>2026-04-12T08:52:06.999Z</time></trkpt><trkpt lat="42.06264896338348" lon="14.352407664363863"><ele>237.66666666666669</ele><time>2026-04-12T08:52:07.999Z</time></trkpt><trkpt lat="42.062724469207424" lon="14.352482151167976"><ele>238.83333333333334</ele><time>2026-04-12T08:52:08.999Z</time></trkpt><trkpt lat="42.06279880464029" lon="14.352530323073472"><ele>240.0</ele><time>2026-04-12T08:52:09.999Z</time></trkpt><trkpt lat="42.06289229952937" lon="14.352567031689391"><ele>240.0</ele><time>2026-04-12T08:52:10.999Z</time></trkpt><trkpt lat="42.06300052589531" lon="14.35254629468994"><ele>240.0</ele><time>2026-04-12T08:52:11.999Z</time></trkpt><trkpt lat="42.063088611479024" lon="14.352465304103237"><ele>240.0</ele><time>2026-04-12T08:52:12.999Z</time></trkpt><trkpt lat="42.06315142804365" lon="14.352377294642045"><ele>240.0</ele><time>2026-04-12T08:52:13.999Z</time></trkpt><trkpt lat="42.06321504213483" lon="14.352292883484273"><ele>240.0</ele><time>2026-04-12T08:52:14.999Z</time></trkpt><trkpt lat="42.063274079294985" lon="14.35220875934379"><ele>235.5</ele><time>2026-04-12T08:52:15.999Z</time></trkpt><trkpt lat="42.063333703158335" lon="14.352123394707814"><ele>231.0</ele><time>2026-04-12T08:52:16.999Z</time></trkpt><trkpt lat="42.06339546561129" lon="14.352042458234857"><ele>226.5</ele><time>2026-04-12T08:52:17.999Z</time></trkpt><trkpt lat="42.06346068968915" lon="14.351976925766166"><ele>222.0</ele><time>2026-04-12T08:52:18.999Z</time></trkpt><trkpt lat="42.06353961823991" lon="14.351959459838259"><ele>217.5</ele><time>2026-04-12T08:52:19.999Z</time></trkpt><trkpt lat="42.06361459458684" lon="14.351956027865638"><ele>213.0</ele><time>2026-04-12T08:52:20.999Z</time></trkpt><trkpt lat="42.06367354683737" lon="14.35200182917779"><ele>213.0</ele><time>2026-04-12T08:52:21.999Z</time></trkpt><trkpt lat="42.06373980254123" lon="14.352045418530583"><ele>213.0</ele><time>2026-04-12T08:52:22.999Z</time></trkpt><trkpt lat="42.06381282710135" lon="14.352093037118788"><ele>213.0</ele><time>2026-04-12T08:52:23.999Z</time></trkpt><trkpt lat="42.06389385679502" lon="14.352142666349385"><ele>213.0</ele><time>2026-04-12T08:52:24.999Z</time></trkpt><trkpt lat="42.0639821312925" lon="14.35217662933416"><ele>213.0</ele><time>2026-04-12T08:52:25.999Z</time></trkpt><trkpt lat="42.064081466576596" lon="14.35217903802716"><ele>213.0</ele><time>2026-04-12T08:52:26.999Z</time></trkpt><trkpt lat="42.06418167353986" lon="14.35215190179742"><ele>213.2</ele><time>2026-04-12T08:52:27.999Z</time></trkpt><trkpt lat="42.06427250848025" lon="14.352133131268406"><ele>213.4</ele><time>2026-04-12T08:52:28.999Z</time></trkpt><trkpt lat="42.064365825753164" lon="14.352110937044786"><ele>213.59999999999997</ele><time>2026-04-12T08:52:29.999Z</time></trkpt><trkpt lat="42.06445872516389" lon="14.352089285383338"><ele>213.79999999999998</ele><time>2026-04-12T08:52:30.999Z</time></trkpt><trkpt lat="42.064552220200696" lon="14.352067585183587"><ele>214.0</ele><time>2026-04-12T08:52:31.999Z</time></trkpt><trkpt lat="42.06464580833699" lon="14.3520400209691"><ele>214.0</ele><time>2026-04-12T08:52:32.999Z</time></trkpt><trkpt lat="42.064737836508456" lon="14.351988476358747"><ele>213.99999999999997</ele><time>2026-04-12T08:52:33.999Z</time></trkpt><trkpt lat="42.06481348618663" lon="14.351907893492683"><ele>213.99999999999997</ele><time>2026-04-12T08:52:34.999Z</time></trkpt><trkpt lat="42.064893454822716" lon="14.351838709810366"><ele>214.0</ele><time>2026-04-12T08:52:35.999Z</time></trkpt><trkpt lat="42.06497074006554" lon="14.351761595503856"><ele>214.0</ele><time>2026-04-12T08:52:37.001Z</time></trkpt><trkpt lat="42.0650542308135" lon="14.351695559601607"><ele>214.79999999999998</ele><time>2026-04-12T08:52:38.001Z</time></trkpt><trkpt lat="42.06514346099389" lon="14.351641981564283"><ele>215.59999999999997</ele><time>2026-04-12T08:52:39.001Z</time></trkpt><trkpt lat="42.065236929361184" lon="14.35159451145898"><ele>216.4</ele><time>2026-04-12T08:52:40.001Z</time></trkpt><trkpt lat="42.06533239536177" lon="14.351557016938193"><ele>217.2</ele><time>2026-04-12T08:52:41.001Z</time></trkpt><trkpt lat="42.06542645495032" lon="14.35151728276155"><ele>218.0</ele><time>2026-04-12T08:52:42.001Z</time></trkpt><trkpt lat="42.065520029341016" lon="14.35146773095857"><ele>218.0</ele><time>2026-04-12T08:52:43.001Z</time></trkpt><trkpt lat="42.06561125359153" lon="14.351421450360885"><ele>218.0</ele><time>2026-04-12T08:52:44.001Z</time></trkpt><trkpt lat="42.06570637565795" lon="14.351384653739071"><ele>218.0</ele><time>2026-04-12T08:52:45.001Z</time></trkpt><trkpt lat="42.06580080947723" lon="14.351361168970385"><ele>218.0</ele><time>2026-04-12T08:52:46.001Z</time></trkpt><trkpt lat="42.0658919382555" lon="14.351423949029613"><ele>218.0</ele><time>2026-04-12T08:52:47.001Z</time></trkpt><trkpt lat="42.06597354661334" lon="14.351466469897801"><ele>218.83333333333334</ele><time>2026-04-12T08:52:48.001Z</time></trkpt><trkpt lat="42.066055452298905" lon="14.351481763619917"><ele>219.66666666666669</ele><time>2026-04-12T08:52:49.001Z</time></trkpt><trkpt lat="42.06613797047225" lon="14.351494423662599"><ele>220.5</ele><time>2026-04-12T08:52:50.001Z</time></trkpt><trkpt lat="42.0662208004028" lon="14.35150229014723"><ele>221.33333333333331</ele><time>2026-04-12T08:52:51.001Z</time></trkpt><trkpt lat="42.06630225998674" lon="14.351502673343916"><ele>222.16666666666666</ele><time>2026-04-12T08:52:52Z</time></trkpt><trkpt lat="42.0663814623577" lon="14.351500022243323"><ele>223.0</ele><time>2026-04-12T08:52:53Z</time></trkpt><trkpt lat="42.066470557823074" lon="14.351489731983152"><ele>222.99999999999997</ele><time>2026-04-12T08:52:54Z</time></trkpt><trkpt lat="42.06655613304384" lon="14.35146921748243"><ele>223.0</ele><time>2026-04-12T08:52:55Z</time></trkpt><trkpt lat="42.06664059048209" lon="14.351443479410019"><ele>223.0</ele><time>2026-04-12T08:52:56Z</time></trkpt><trkpt lat="42.06671995879646" lon="14.351421710865578"><ele>223.0</ele><time>2026-04-12T08:52:57Z</time></trkpt><trkpt lat="42.066800582842596" lon="14.351401160130132"><ele>222.99999999999997</ele><time>2026-04-12T08:52:58Z</time></trkpt><trkpt lat="42.06687851172329" lon="14.35138315152979"><ele>223.0</ele><time>2026-04-12T08:52:59Z</time></trkpt><trkpt lat="42.066957165913415" lon="14.351365384073693"><ele>223.33333333333331</ele><time>2026-04-12T08:53:00Z</time></trkpt><trkpt lat="42.067034276586945" lon="14.351357013729528"><ele>223.66666666666666</ele><time>2026-04-12T08:53:01Z</time></trkpt><trkpt lat="42.06711199914178" lon="14.351368015257933"><ele>224.0</ele><time>2026-04-12T08:53:02Z</time></trkpt><trkpt lat="42.06719554333778" lon="14.351383512909559"><ele>224.33333333333331</ele><time>2026-04-12T08:53:03Z</time></trkpt><trkpt lat="42.06727871479557" lon="14.35139710147661"><ele>224.66666666666666</ele><time>2026-04-12T08:53:04Z</time></trkpt><trkpt lat="42.06736039771921" lon="14.351412227893363"><ele>225.0</ele><time>2026-04-12T08:53:05Z</time></trkpt><trkpt lat="42.06744441914798" lon="14.351428122266654"><ele>223.66666666666666</ele><time>2026-04-12T08:53:06Z</time></trkpt><trkpt lat="42.0675235564112" lon="14.351448055715915"><ele>222.33333333333331</ele><time>2026-04-12T08:53:07Z</time></trkpt><trkpt lat="42.06760068202415" lon="14.351476007411263"><ele>221.0</ele><time>2026-04-12T08:53:08Z</time></trkpt><trkpt lat="42.067675124413384" lon="14.351517913635098"><ele>219.66666666666666</ele><time>2026-04-12T08:53:09Z</time></trkpt><trkpt lat="42.06773178309948" lon="14.351579395988562"><ele>218.33333333333331</ele><time>2026-04-12T08:53:10Z</time></trkpt><trkpt lat="42.06778763337004" lon="14.35165535394981"><ele>217.0</ele><time>2026-04-12T08:53:11Z</time></trkpt><trkpt lat="42.067845674579125" lon="14.351738305112528"><ele>217.0</ele><time>2026-04-12T08:53:12Z</time></trkpt><trkpt lat="42.067912427231924" lon="14.351827412840482"><ele>217.0</ele><time>2026-04-12T08:53:13Z</time></trkpt><trkpt lat="42.06798300141325" lon="14.351906477919119"><ele>217.0</ele><time>2026-04-12T08:53:14Z</time></trkpt><trkpt lat="42.06806044582883" lon="14.35197981154445"><ele>217.0</ele><time>2026-04-12T08:53:15Z</time></trkpt><trkpt lat="42.068138644225996" lon="14.352047454494015"><ele>217.0</ele><time>2026-04-12T08:53:16Z</time></trkpt><trkpt lat="42.068217802690995" lon="14.352110985893832"><ele>218.39999999999998</ele><time>2026-04-12T08:53:17Z</time></trkpt><trkpt lat="42.06829811764528" lon="14.352172913758777"><ele>219.79999999999998</ele><time>2026-04-12T08:53:18Z</time></trkpt><trkpt lat="42.06838289631882" lon="14.352232986202363"><ele>221.2</ele><time>2026-04-12T08:53:19Z</time></trkpt><trkpt lat="42.06847833437957" lon="14.352283476465463"><ele>222.6</ele><time>2026-04-12T08:53:20Z</time></trkpt><trkpt lat="42.068584694013396" lon="14.352304630124577"><ele>224.0</ele><time>2026-04-12T08:53:21Z</time></trkpt><trkpt lat="42.06868343390869" lon="14.352315123781796"><ele>224.0</ele><time>2026-04-12T08:53:22Z</time></trkpt><trkpt lat="42.068781063180154" lon="14.352325858341727"><ele>223.99999999999997</ele><time>2026-04-12T08:53:23Z</time></trkpt><trkpt lat="42.06887831789986" lon="14.352335713531495"><ele>223.99999999999997</ele><time>2026-04-12T08:53:24Z</time></trkpt><trkpt lat="42.06897347518134" lon="14.352345356126593"><ele>224.0</ele><time>2026-04-12T08:53:25Z</time></trkpt><trkpt lat="42.069069087609954" lon="14.352355044848595"><ele>224.0</ele><time>2026-04-12T08:53:26Z</time></trkpt><trkpt lat="42.06916417273254" lon="14.352364680151211"><ele>220.39999999999998</ele><time>2026-04-12T08:53:27Z</time></trkpt><trkpt lat="42.06925748660809" lon="14.35237794248306"><ele>216.79999999999998</ele><time>2026-04-12T08:53:28Z</time></trkpt><trkpt lat="42.06934985220987" lon="14.35239365385517"><ele>213.2</ele><time>2026-04-12T08:53:29Z</time></trkpt><trkpt lat="42.06943947011206" lon="14.352417172397525"><ele>209.60000000000002</ele><time>2026-04-12T08:53:30Z</time></trkpt><trkpt lat="42.06952712378841" lon="14.35245255552256"><ele>206.0</ele><time>2026-04-12T08:53:31Z</time></trkpt><trkpt lat="42.06961525116792" lon="14.35249386555627"><ele>206.0</ele><time>2026-04-12T08:53:32Z</time></trkpt><trkpt lat="42.069702319418134" lon="14.352540121299867"><ele>206.0</ele><time>2026-04-12T08:53:33Z</time></trkpt><trkpt lat="42.069791404443876" lon="14.352591034387403"><ele>206.0</ele><time>2026-04-12T08:53:34Z</time></trkpt><trkpt lat="42.06988207967277" lon="14.352640896372453"><ele>206.0</ele><time>2026-04-12T08:53:35Z</time></trkpt><trkpt lat="42.06997298373755" lon="14.35268599177188"><ele>206.0</ele><time>2026-04-12T08:53:36Z</time></trkpt><trkpt lat="42.07006525512958" lon="14.352729842285529"><ele>204.20000000000002</ele><time>2026-04-12T08:53:37Z</time></trkpt><trkpt lat="42.070157064184976" lon="14.352771543926666"><ele>202.4</ele><time>2026-04-12T08:53:38Z</time></trkpt><trkpt lat="42.0702496276148" lon="14.352813219027377"><ele>200.6</ele><time>2026-04-12T08:53:39Z</time></trkpt><trkpt lat="42.07034172657773" lon="14.352854298518055"><ele>198.8</ele><time>2026-04-12T08:53:40Z</time></trkpt><trkpt lat="42.0704313714804" lon="14.352894283748984"><ele>197.0</ele><time>2026-04-12T08:53:41Z</time></trkpt><trkpt lat="42.07052236184243" lon="14.352934354546647"><ele>197.0</ele><time>2026-04-12T08:53:42Z</time></trkpt><trkpt lat="42.07061285814794" lon="14.352966600344814"><ele>197.0</ele><time>2026-04-12T08:53:43Z</time></trkpt><trkpt lat="42.0707105947119" lon="14.352982454275441"><ele>197.0</ele><time>2026-04-12T08:53:44Z</time></trkpt><trkpt lat="42.070807528504766" lon="14.352982052113585"><ele>197.0</ele><time>2026-04-12T08:53:45Z</time></trkpt><trkpt lat="42.07090810861729" lon="14.352956681358473"><ele>197.0</ele><time>2026-04-12T08:53:46Z</time></trkpt><trkpt lat="42.07099874968313" lon="14.352922627819083"><ele>195.39999999999998</ele><time>2026-04-12T08:53:46.999Z</time></trkpt><trkpt lat="42.071090611470716" lon="14.352883432254526"><ele>193.79999999999998</ele><time>2026-04-12T08:53:47.999Z</time></trkpt><trkpt lat="42.07117991797022" lon="14.352843357441355"><ele>192.2</ele><time>2026-04-12T08:53:48.999Z</time></trkpt><trkpt lat="42.07127057179292" lon="14.352807902446626"><ele>190.6</ele><time>2026-04-12T08:53:49.999Z</time></trkpt><trkpt lat="42.071363683914946" lon="14.352774408867349"><ele>189.0</ele><time>2026-04-12T08:53:50.999Z</time></trkpt><trkpt lat="42.07145677979398" lon="14.352751790534638"><ele>189.0</ele><time>2026-04-12T08:53:51.999Z</time></trkpt><trkpt lat="42.07155165675467" lon="14.352740490944738"><ele>189.0</ele><time>2026-04-12T08:53:52.999Z</time></trkpt><trkpt lat="42.071638734078896" lon="14.352761660206484"><ele>189.0</ele><time>2026-04-12T08:53:53.999Z</time></trkpt><trkpt lat="42.07172764934808" lon="14.352789604121321"><ele>189.0</ele><time>2026-04-12T08:53:54.999Z</time></trkpt><trkpt lat="42.071815480139875" lon="14.352822595561681"><ele>189.0</ele><time>2026-04-12T08:53:55.999Z</time></trkpt><trkpt lat="42.07189779611928" lon="14.352865887041872"><ele>188.39999999999998</ele><time>2026-04-12T08:53:56.999Z</time></trkpt><trkpt lat="42.071974279259656" lon="14.352920265462151"><ele>187.8</ele><time>2026-04-12T08:53:57.999Z</time></trkpt><trkpt lat="42.072048393011144" lon="14.35298536168811"><ele>187.2</ele><time>2026-04-12T08:53:58.999Z</time></trkpt><trkpt lat="42.072118442435425" lon="14.353061899114529"><ele>186.60000000000002</ele><time>2026-04-12T08:53:59.999Z</time></trkpt><trkpt lat="42.07218527066714" lon="14.353147724236925"><ele>186.0</ele><time>2026-04-12T08:54:00.999Z</time></trkpt><trkpt lat="42.072247300687145" lon="14.353240915632496"><ele>186.8</ele><time>2026-04-12T08:54:01.999Z</time></trkpt><trkpt lat="42.0723084349006" lon="14.353336199496121"><ele>187.60000000000002</ele><time>2026-04-12T08:54:02.999Z</time></trkpt><trkpt lat="42.072369383907905" lon="14.353427547620324"><ele>188.4</ele><time>2026-04-12T08:54:03.999Z</time></trkpt><trkpt lat="42.072452795101945" lon="14.3535161336667"><ele>189.2</ele><time>2026-04-12T08:54:04.999Z</time></trkpt><trkpt lat="42.07254955846918" lon="14.353572887700137"><ele>190.0</ele><time>2026-04-12T08:54:05.999Z</time></trkpt><trkpt lat="42.07264973027862" lon="14.35360081396862"><ele>190.0</ele><time>2026-04-12T08:54:06.999Z</time></trkpt><trkpt lat="42.07275054807143" lon="14.353615369841167"><ele>190.0</ele><time>2026-04-12T08:54:07.999Z</time></trkpt><trkpt lat="42.07284562634967" lon="14.35362946807236"><ele>190.0</ele><time>2026-04-12T08:54:08.999Z</time></trkpt><trkpt lat="42.07294260118678" lon="14.353643847483859"><ele>190.0</ele><time>2026-04-12T08:54:09.999Z</time></trkpt><trkpt lat="42.07304125193367" lon="14.353656850106264"><ele>190.0</ele><time>2026-04-12T08:54:10.999Z</time></trkpt><trkpt lat="42.07313851751513" lon="14.353668556871922"><ele>190.0</ele><time>2026-04-12T08:54:11.999Z</time></trkpt><trkpt lat="42.073235413815155" lon="14.353680219198798"><ele>190.0</ele><time>2026-04-12T08:54:12.999Z</time></trkpt><trkpt lat="42.07333060047142" lon="14.353691675738913"><ele>190.0</ele><time>2026-04-12T08:54:13.999Z</time></trkpt><trkpt lat="42.07342484178855" lon="14.353703018504364"><ele>190.0</ele><time>2026-04-12T08:54:14.999Z</time></trkpt><trkpt lat="42.07351821378973" lon="14.35371425663632"><ele>190.0</ele><time>2026-04-12T08:54:15.999Z</time></trkpt><trkpt lat="42.073607296635615" lon="14.353723866810217"><ele>189.14285714285714</ele><time>2026-04-12T08:54:16.999Z</time></trkpt><trkpt lat="42.073688366948204" lon="14.353732268629555"><ele>188.28571428571428</ele><time>2026-04-12T08:54:17.999Z</time></trkpt><trkpt lat="42.073764878818146" lon="14.353740198080326"><ele>187.42857142857144</ele><time>2026-04-12T08:54:18.999Z</time></trkpt><trkpt lat="42.073842172120266" lon="14.35374989207088"><ele>186.57142857142856</ele><time>2026-04-12T08:54:19.999Z</time></trkpt><trkpt lat="42.07391275832388" lon="14.353761481947878"><ele>185.7142857142857</ele><time>2026-04-12T08:54:20.999Z</time></trkpt><trkpt lat="42.07398149720412" lon="14.353784868276476"><ele>184.85714285714286</ele><time>2026-04-12T08:54:21.999Z</time></trkpt><trkpt lat="42.07404778072029" lon="14.353820161405828"><ele>184.0</ele><time>2026-04-12T08:54:22.999Z</time></trkpt><trkpt lat="42.074108305624044" lon="14.35387100131071"><ele>183.5</ele><time>2026-04-12T08:54:23.999Z</time></trkpt><trkpt lat="42.07416044168925" lon="14.3539400823775"><ele>183.0</ele><time>2026-04-12T08:54:24.999Z</time></trkpt><trkpt lat="42.074213646458304" lon="14.354012282742765"><ele>182.5</ele><time>2026-04-12T08:54:25.999Z</time></trkpt><trkpt lat="42.074264523258506" lon="14.354090396904384"><ele>182.0</ele><time>2026-04-12T08:54:26.999Z</time></trkpt><trkpt lat="42.07431236046925" lon="14.354174485015609"><ele>181.5</ele><time>2026-04-12T08:54:27.999Z</time></trkpt><trkpt lat="42.07435270906504" lon="14.354263390382366"><ele>181.0</ele><time>2026-04-12T08:54:28.999Z</time></trkpt><trkpt lat="42.0743772628974" lon="14.354359938894268"><ele>181.0</ele><time>2026-04-12T08:54:29.999Z</time></trkpt><trkpt lat="42.07437674501168" lon="14.354464360920623"><ele>181.0</ele><time>2026-04-12T08:54:30.999Z</time></trkpt><trkpt lat="42.07437195056358" lon="14.354573096230547"><ele>181.0</ele><time>2026-04-12T08:54:31.999Z</time></trkpt><trkpt lat="42.0743541686928" lon="14.35467804862642"><ele>181.0</ele><time>2026-04-12T08:54:32.999Z</time></trkpt><trkpt lat="42.07433178962983" lon="14.354781872988086"><ele>181.0</ele><time>2026-04-12T08:54:33.999Z</time></trkpt><trkpt lat="42.074306160726735" lon="14.35488856471927"><ele>181.0</ele><time>2026-04-12T08:54:34.999Z</time></trkpt><trkpt lat="42.07428284936059" lon="14.354991373003733"><ele>181.16666666666669</ele><time>2026-04-12T08:54:35.999Z</time></trkpt><trkpt lat="42.074264252605026" lon="14.355097386211"><ele>181.33333333333334</ele><time>2026-04-12T08:54:36.999Z</time></trkpt><trkpt lat="42.07425491442421" lon="14.355195288085936"><ele>181.5</ele><time>2026-04-12T08:54:37.999Z</time></trkpt><trkpt lat="42.0742578661368" lon="14.355291957171758"><ele>181.66666666666666</ele><time>2026-04-12T08:54:38.999Z</time></trkpt><trkpt lat="42.07429151577787" lon="14.355394954238289"><ele>181.83333333333331</ele><time>2026-04-12T08:54:39.999Z</time></trkpt><trkpt lat="42.074341139909734" lon="14.355477971810767"><ele>182.0</ele><time>2026-04-12T08:54:40.999Z</time></trkpt><trkpt lat="42.07438296918447" lon="14.355552489393672"><ele>182.0</ele><time>2026-04-12T08:54:42Z</time></trkpt><trkpt lat="42.07446639669501" lon="14.355688591846059"><ele>182.0</ele><time>2026-04-12T08:54:44Z</time></trkpt><trkpt lat="42.07451516041415" lon="14.35574948381192"><ele>182.0</ele><time>2026-04-12T08:54:45Z</time></trkpt><trkpt lat="42.074579523341654" lon="14.355791608433849"><ele>182.0</ele><time>2026-04-12T08:54:46Z</time></trkpt><trkpt lat="42.07465402868223" lon="14.355784295193768"><ele>182.0</ele><time>2026-04-12T08:54:47Z</time></trkpt><trkpt lat="42.07472498187229" lon="14.355764940077524"><ele>182.0</ele><time>2026-04-12T08:54:48Z</time></trkpt><trkpt lat="42.07479137919845" lon="14.355729507478868"><ele>182.0</ele><time>2026-04-12T08:54:49Z</time></trkpt><trkpt lat="42.07485275201562" lon="14.355690386835743"><ele>182.0</ele><time>2026-04-12T08:54:50Z</time></trkpt><trkpt lat="42.074913649374594" lon="14.355649528632135"><ele>182.0</ele><time>2026-04-12T08:54:51Z</time></trkpt><trkpt lat="42.074975622136314" lon="14.355613002469457"><ele>182.0</ele><time>2026-04-12T08:54:52Z</time></trkpt><trkpt lat="42.07504176629134" lon="14.355581761777138"><ele>182.0</ele><time>2026-04-12T08:54:53Z</time></trkpt><trkpt lat="42.07511003859228" lon="14.355551671249149"><ele>182.0</ele><time>2026-04-12T08:54:54Z</time></trkpt><trkpt lat="42.075179768756094" lon="14.355530345338547"><ele>182.0</ele><time>2026-04-12T08:54:55Z</time></trkpt><trkpt lat="42.075250562585026" lon="14.355515743046416"><ele>179.42857142857142</ele><time>2026-04-12T08:54:56Z</time></trkpt><trkpt lat="42.075321604289755" lon="14.35549956893808"><ele>176.85714285714286</ele><time>2026-04-12T08:54:57Z</time></trkpt><trkpt lat="42.07539250449224" lon="14.355491031556486"><ele>174.28571428571428</ele><time>2026-04-12T08:54:58Z</time></trkpt><trkpt lat="42.075464270969476" lon="14.355473804406667"><ele>171.71428571428572</ele><time>2026-04-12T08:54:59Z</time></trkpt><trkpt lat="42.075536166411226" lon="14.355457141542162"><ele>169.14285714285714</ele><time>2026-04-12T08:55:00Z</time></trkpt><trkpt lat="42.07560692646611" lon="14.355440204065156"><ele>166.57142857142856</ele><time>2026-04-12T08:55:01Z</time></trkpt><trkpt lat="42.075680720084776" lon="14.355434175623463"><ele>164.0</ele><time>2026-04-12T08:55:02Z</time></trkpt><trkpt lat="42.07575193844659" lon="14.355411963780583"><ele>164.66666666666666</ele><time>2026-04-12T08:55:03Z</time></trkpt><trkpt lat="42.075822906802685" lon="14.355387298159961"><ele>165.33333333333331</ele><time>2026-04-12T08:55:04Z</time></trkpt><trkpt lat="42.075887784124944" lon="14.355338653587468"><ele>166.0</ele><time>2026-04-12T08:55:05Z</time></trkpt><trkpt lat="42.075946418138585" lon="14.355271677312112"><ele>166.66666666666666</ele><time>2026-04-12T08:55:06Z</time></trkpt><trkpt lat="42.07599820513717" lon="14.355194038549898"><ele>167.33333333333334</ele><time>2026-04-12T08:55:07Z</time></trkpt><trkpt lat="42.07603906630931" lon="14.35510275644399"><ele>168.0</ele><time>2026-04-12T08:55:08Z</time></trkpt><trkpt lat="42.07605383149347" lon="14.354993240785463"><ele>168.0</ele><time>2026-04-12T08:55:09Z</time></trkpt><trkpt lat="42.076106722843534" lon="14.354910185168142"><ele>168.0</ele><time>2026-04-12T08:55:10Z</time></trkpt><trkpt lat="42.07615030625808" lon="14.354818472529042"><ele>168.0</ele><time>2026-04-12T08:55:11Z</time></trkpt><trkpt lat="42.07619996945676" lon="14.35473132190365"><ele>168.0</ele><time>2026-04-12T08:55:12Z</time></trkpt><trkpt lat="42.076250056554784" lon="14.354643759946038"><ele>168.0</ele><time>2026-04-12T08:55:13Z</time></trkpt><trkpt lat="42.07630669408321" lon="14.354560638130408"><ele>168.0</ele><time>2026-04-12T08:55:14Z</time></trkpt><trkpt lat="42.07636684793781" lon="14.354482561537239"><ele>168.33333333333334</ele><time>2026-04-12T08:55:15Z</time></trkpt><trkpt lat="42.07642352971258" lon="14.354400587124285"><ele>168.66666666666666</ele><time>2026-04-12T08:55:16Z</time></trkpt><trkpt lat="42.07648275367905" lon="14.354322985816191"><ele>169.0</ele><time>2026-04-12T08:55:17Z</time></trkpt><trkpt lat="42.07654082147134" lon="14.354246453578947"><ele>169.33333333333331</ele><time>2026-04-12T08:55:18Z</time></trkpt><trkpt lat="42.076600942826396" lon="14.354168242963409"><ele>169.66666666666666</ele><time>2026-04-12T08:55:19Z</time></trkpt><trkpt lat="42.07665692455228" lon="14.354090293380368"><ele>170.0</ele><time>2026-04-12T08:55:20Z</time></trkpt><trkpt lat="42.076711676539844" lon="14.354010899150673"><ele>170.0</ele><time>2026-04-12T08:55:21Z</time></trkpt><trkpt lat="42.076763612657565" lon="14.35392968594913"><ele>170.0</ele><time>2026-04-12T08:55:22Z</time></trkpt><trkpt lat="42.07681944356056" lon="14.353856170677588"><ele>170.0</ele><time>2026-04-12T08:55:23Z</time></trkpt><trkpt lat="42.07687872047055" lon="14.353789280152727"><ele>170.0</ele><time>2026-04-12T08:55:24Z</time></trkpt><trkpt lat="42.0769350513415" lon="14.3537244845232"><ele>170.0</ele><time>2026-04-12T08:55:25Z</time></trkpt><trkpt lat="42.076990410096734" lon="14.353653465333808"><ele>170.0</ele><time>2026-04-12T08:55:26Z</time></trkpt><trkpt lat="42.07704310075605" lon="14.35357772238627"><ele>167.5</ele><time>2026-04-12T08:55:27Z</time></trkpt><trkpt lat="42.07709640850932" lon="14.353499288008292"><ele>165.0</ele><time>2026-04-12T08:55:28Z</time></trkpt><trkpt lat="42.07714969444659" lon="14.3534303073586"><ele>162.5</ele><time>2026-04-12T08:55:29Z</time></trkpt><trkpt lat="42.07720547721921" lon="14.353361189576235"><ele>160.0</ele><time>2026-04-12T08:55:30Z</time></trkpt><trkpt lat="42.07726826837863" lon="14.353309413794165"><ele>157.5</ele><time>2026-04-12T08:55:31Z</time></trkpt><trkpt lat="42.077338888319275" lon="14.353268176891842"><ele>155.0</ele><time>2026-04-12T08:55:32Z</time></trkpt><trkpt lat="42.07741104436271" lon="14.35323880734422"><ele>156.16666666666666</ele><time>2026-04-12T08:55:33Z</time></trkpt><trkpt lat="42.07748635718528" lon="14.353221452527809"><ele>157.33333333333331</ele><time>2026-04-12T08:55:34Z</time></trkpt><trkpt lat="42.07756693065156" lon="14.353217136108427"><ele>158.5</ele><time>2026-04-12T08:55:35Z</time></trkpt><trkpt lat="42.07764231699325" lon="14.353257547317662"><ele>159.66666666666666</ele><time>2026-04-12T08:55:36Z</time></trkpt><trkpt lat="42.0777239922874" lon="14.35328477310873"><ele>160.83333333333334</ele><time>2026-04-12T08:55:37Z</time></trkpt><trkpt lat="42.07780848308061" lon="14.353315285639269"><ele>162.0</ele><time>2026-04-12T08:55:38Z</time></trkpt><trkpt lat="42.077890022536636" lon="14.353346540334323"><ele>162.0</ele><time>2026-04-12T08:55:39Z</time></trkpt><trkpt lat="42.07797379004981" lon="14.3533816883004"><ele>162.0</ele><time>2026-04-12T08:55:40Z</time></trkpt><trkpt lat="42.0780552420461" lon="14.353419676148349"><ele>162.0</ele><time>2026-04-12T08:55:41Z</time></trkpt><trkpt lat="42.07813750327881" lon="14.353464568902766"><ele>162.0</ele><time>2026-04-12T08:55:42Z</time></trkpt><trkpt lat="42.078212111406124" lon="14.353509084119834"><ele>162.0</ele><time>2026-04-12T08:55:43Z</time></trkpt><trkpt lat="42.07830347659901" lon="14.353567511555326"><ele>162.0</ele><time>2026-04-12T08:55:44Z</time></trkpt><trkpt lat="42.07838900927722" lon="14.353623922141008"><ele>161.0</ele><time>2026-04-12T08:55:45Z</time></trkpt><trkpt lat="42.078472380852446" lon="14.353678907433382"><ele>160.0</ele><time>2026-04-12T08:55:46Z</time></trkpt><trkpt lat="42.0785577716988" lon="14.353732780647626"><ele>159.0</ele><time>2026-04-12T08:55:46.999Z</time></trkpt><trkpt lat="42.0786469449651" lon="14.353769095814709"><ele>158.0</ele><time>2026-04-12T08:55:47.999Z</time></trkpt><trkpt lat="42.07873436208001" lon="14.353817529522422"><ele>157.0</ele><time>2026-04-12T08:55:48.999Z</time></trkpt><trkpt lat="42.07882560965068" lon="14.353858642480272"><ele>158.6</ele><time>2026-04-12T08:55:49.999Z</time></trkpt><trkpt lat="42.07891050166616" lon="14.353925797447488"><ele>160.2</ele><time>2026-04-12T08:55:50.999Z</time></trkpt><trkpt lat="42.07900416257266" lon="14.353951428778752"><ele>161.8</ele><time>2026-04-12T08:55:51.999Z</time></trkpt><trkpt lat="42.07908825730455" lon="14.35401642893788"><ele>163.4</ele><time>2026-04-12T08:55:52.999Z</time></trkpt><trkpt lat="42.079185166013865" lon="14.354041501034478"><ele>165.0</ele><time>2026-04-12T08:55:53.999Z</time></trkpt><trkpt lat="42.07926833366543" lon="14.354106214896568"><ele>165.0</ele><time>2026-04-12T08:55:54.999Z</time></trkpt><trkpt lat="42.079361249725366" lon="14.354134829046998"><ele>165.0</ele><time>2026-04-12T08:55:55.999Z</time></trkpt><trkpt lat="42.07944811996894" lon="14.354182595364563"><ele>165.0</ele><time>2026-04-12T08:55:56.999Z</time></trkpt><trkpt lat="42.07953885688998" lon="14.354222883444812"><ele>165.0</ele><time>2026-04-12T08:55:57.999Z</time></trkpt><trkpt lat="42.07962916807817" lon="14.354262644153245"><ele>165.0</ele><time>2026-04-12T08:55:58.999Z</time></trkpt><trkpt lat="42.07971814392131" lon="14.35430843304455"><ele>165.0</ele><time>2026-04-12T08:55:59.999Z</time></trkpt><trkpt lat="42.07980781595526" lon="14.35434983802241"><ele>165.0</ele><time>2026-04-12T08:56:00.999Z</time></trkpt><trkpt lat="42.07989762555944" lon="14.354387020850158"><ele>165.0</ele><time>2026-04-12T08:56:01.999Z</time></trkpt><trkpt lat="42.07998158149558" lon="14.354447388303614"><ele>165.0</ele><time>2026-04-12T08:56:02.999Z</time></trkpt><trkpt lat="42.08006461075995" lon="14.35448684215581"><ele>165.0</ele><time>2026-04-12T08:56:03.999Z</time></trkpt><trkpt lat="42.0801484510346" lon="14.35452713712084"><ele>162.33333333333334</ele><time>2026-04-12T08:56:04.999Z</time></trkpt><trkpt lat="42.080234809754046" lon="14.354548127941401"><ele>159.66666666666666</ele><time>2026-04-12T08:56:05.999Z</time></trkpt><trkpt lat="42.08031110909154" lon="14.354603574196188"><ele>157.0</ele><time>2026-04-12T08:56:06.999Z</time></trkpt><trkpt lat="42.08039545304814" lon="14.354638703746584"><ele>154.33333333333331</ele><time>2026-04-12T08:56:07.999Z</time></trkpt><trkpt lat="42.08047859032484" lon="14.3546674424646"><ele>151.66666666666666</ele><time>2026-04-12T08:56:08.999Z</time></trkpt><trkpt lat="42.08055749826524" lon="14.354693556405298"><ele>149.0</ele><time>2026-04-12T08:56:09.999Z</time></trkpt><trkpt lat="42.080635815949" lon="14.354719474929126"><ele>151.42857142857142</ele><time>2026-04-12T08:56:10.999Z</time></trkpt><trkpt lat="42.08071124305074" lon="14.35474389201886"><ele>153.85714285714283</ele><time>2026-04-12T08:56:11.999Z</time></trkpt><trkpt lat="42.08078957470751" lon="14.35476924378603"><ele>156.28571428571428</ele><time>2026-04-12T08:56:12.999Z</time></trkpt><trkpt lat="42.08086391134543" lon="14.354792004008724"><ele>158.71428571428572</ele><time>2026-04-12T08:56:13.999Z</time></trkpt><trkpt lat="42.08093386310817" lon="14.354810859900647"><ele>161.14285714285717</ele><time>2026-04-12T08:56:14.999Z</time></trkpt><trkpt lat="42.081000549474844" lon="14.354826629122005"><ele>163.57142857142856</ele><time>2026-04-12T08:56:15.999Z</time></trkpt><trkpt lat="42.081067250791314" lon="14.354816566475222"><ele>166.0</ele><time>2026-04-12T08:56:16.999Z</time></trkpt><trkpt lat="42.08113098102816" lon="14.354849093857833"><ele>166.0</ele><time>2026-04-12T08:56:17.999Z</time></trkpt><trkpt lat="42.08119925210081" lon="14.354852013853655"><ele>166.0</ele><time>2026-04-12T08:56:18.999Z</time></trkpt><trkpt lat="42.08126456828013" lon="14.354850513609081"><ele>166.0</ele><time>2026-04-12T08:56:19.999Z</time></trkpt><trkpt lat="42.08132827966578" lon="14.354844992212282"><ele>166.0</ele><time>2026-04-12T08:56:20.999Z</time></trkpt><trkpt lat="42.081393656915466" lon="14.354837205406909"><ele>166.0</ele><time>2026-04-12T08:56:21.999Z</time></trkpt><trkpt lat="42.081457810615404" lon="14.354829054837905"><ele>166.0</ele><time>2026-04-12T08:56:22.999Z</time></trkpt><trkpt lat="42.08152538409743" lon="14.354798743687747"><ele>166.0</ele><time>2026-04-12T08:56:23.999Z</time></trkpt><trkpt lat="42.081595625614085" lon="14.354811545764898"><ele>164.28571428571428</ele><time>2026-04-12T08:56:24.999Z</time></trkpt><trkpt lat="42.08166658841043" lon="14.354801977158566"><ele>162.57142857142858</ele><time>2026-04-12T08:56:25.999Z</time></trkpt><trkpt lat="42.08173832834004" lon="14.35479205237936"><ele>160.85714285714286</ele><time>2026-04-12T08:56:26.999Z</time></trkpt><trkpt lat="42.081808769338245" lon="14.354782307295483"><ele>159.14285714285714</ele><time>2026-04-12T08:56:27.999Z</time></trkpt><trkpt lat="42.081877033212486" lon="14.354772863422408"><ele>157.42857142857144</ele><time>2026-04-12T08:56:28.999Z</time></trkpt><trkpt lat="42.081946947901464" lon="14.354762936542906"><ele>155.71428571428572</ele><time>2026-04-12T08:56:29.999Z</time></trkpt><trkpt lat="42.08201763166585" lon="14.354752526142804"><ele>154.0</ele><time>2026-04-12T08:56:30.999Z</time></trkpt><trkpt lat="42.082089077977976" lon="14.35474103661346"><ele>154.0</ele><time>2026-04-12T08:56:31.999Z</time></trkpt><trkpt lat="42.082162359461094" lon="14.354727412644605"><ele>154.0</ele><time>2026-04-12T08:56:32.999Z</time></trkpt><trkpt lat="42.08223522401072" lon="14.354707750393306"><ele>154.0</ele><time>2026-04-12T08:56:33.999Z</time></trkpt><trkpt lat="42.082308461181" lon="14.354685732685573"><ele>154.0</ele><time>2026-04-12T08:56:34.999Z</time></trkpt><trkpt lat="42.08237984889839" lon="14.354663178900669"><ele>154.0</ele><time>2026-04-12T08:56:35.999Z</time></trkpt><trkpt lat="42.08245399577682" lon="14.354639753324404"><ele>154.0</ele><time>2026-04-12T08:56:36.999Z</time></trkpt><trkpt lat="42.08252624074953" lon="14.354616928661274"><ele>154.0</ele><time>2026-04-12T08:56:37.999Z</time></trkpt><trkpt lat="42.08260011288831" lon="14.354597381401254"><ele>153.16666666666669</ele><time>2026-04-12T08:56:38.999Z</time></trkpt><trkpt lat="42.082674758320046" lon="14.354597423179769"><ele>152.33333333333334</ele><time>2026-04-12T08:56:39.999Z</time></trkpt><trkpt lat="42.08274697365136" lon="14.354617037217478"><ele>151.5</ele><time>2026-04-12T08:56:40.999Z</time></trkpt><trkpt lat="42.0828232590617" lon="14.354637630747419"><ele>150.66666666666666</ele><time>2026-04-12T08:56:41.998Z</time></trkpt><trkpt lat="42.082892895513766" lon="14.354669481616018"><ele>149.83333333333331</ele><time>2026-04-12T08:56:42.998Z</time></trkpt><trkpt lat="42.08296858447778" lon="14.35470340213205"><ele>149.0</ele><time>2026-04-12T08:56:43.998Z</time></trkpt><trkpt lat="42.08304632807677" lon="14.354738243398618"><ele>149.0</ele><time>2026-04-12T08:56:44.998Z</time></trkpt><trkpt lat="42.0831248018128" lon="14.354773411912852"><ele>149.0</ele><time>2026-04-12T08:56:45.998Z</time></trkpt><trkpt lat="42.08320509989013" lon="14.354809398042208"><ele>149.0</ele><time>2026-04-12T08:56:46.998Z</time></trkpt><trkpt lat="42.083285800109" lon="14.354845252620917"><ele>149.0</ele><time>2026-04-12T08:56:48Z</time></trkpt><trkpt lat="42.08336305463129" lon="14.354878999481024"><ele>149.0</ele><time>2026-04-12T08:56:49Z</time></trkpt><trkpt lat="42.08343856367846" lon="14.354911983872567"><ele>149.0</ele><time>2026-04-12T08:56:50Z</time></trkpt><trkpt lat="42.08351631371225" lon="14.354945947205303"><ele>148.0</ele><time>2026-04-12T08:56:51Z</time></trkpt><trkpt lat="42.083592082169886" lon="14.354979044916782"><ele>147.0</ele><time>2026-04-12T08:56:52Z</time></trkpt><trkpt lat="42.083668466423845" lon="14.355012411621637"><ele>146.0</ele><time>2026-04-12T08:56:53Z</time></trkpt><trkpt lat="42.083742761734904" lon="14.355044865849784"><ele>145.0</ele><time>2026-04-12T08:56:54Z</time></trkpt><trkpt lat="42.08381866844538" lon="14.355078023922326"><ele>144.0</ele><time>2026-04-12T08:56:55Z</time></trkpt><trkpt lat="42.08389313887904" lon="14.355110554628405"><ele>143.0</ele><time>2026-04-12T08:56:56Z</time></trkpt><trkpt lat="42.08396662647151" lon="14.355142655998584"><ele>143.0</ele><time>2026-04-12T08:56:57Z</time></trkpt><trkpt lat="42.084039052294116" lon="14.355175316545038"><ele>143.0</ele><time>2026-04-12T08:56:58Z</time></trkpt><trkpt lat="42.084111320766965" lon="14.355208975217518"><ele>143.0</ele><time>2026-04-12T08:56:59Z</time></trkpt><trkpt lat="42.084183657582294" lon="14.355244339868582"><ele>143.0</ele><time>2026-04-12T08:57:00Z</time></trkpt><trkpt lat="42.0842555201186" lon="14.355284016060661"><ele>143.0</ele><time>2026-04-12T08:57:01Z</time></trkpt><trkpt lat="42.08432291229476" lon="14.355329673784773"><ele>143.0</ele><time>2026-04-12T08:57:02Z</time></trkpt><trkpt lat="42.08438789575333" lon="14.355380494391362"><ele>141.66666666666666</ele><time>2026-04-12T08:57:03Z</time></trkpt><trkpt lat="42.08445133061466" lon="14.355437159117217"><ele>140.33333333333331</ele><time>2026-04-12T08:57:04Z</time></trkpt><trkpt lat="42.084515739589094" lon="14.355493239140474"><ele>139.0</ele><time>2026-04-12T08:57:05Z</time></trkpt><trkpt lat="42.084579292319745" lon="14.355547959807645"><ele>137.66666666666666</ele><time>2026-04-12T08:57:06Z</time></trkpt><trkpt lat="42.08464508432668" lon="14.35560098131119"><ele>136.33333333333334</ele><time>2026-04-12T08:57:07Z</time></trkpt><trkpt lat="42.08471386605258" lon="14.355649720664019"><ele>135.0</ele><time>2026-04-12T08:57:08Z</time></trkpt><trkpt lat="42.08478824791961" lon="14.355687648824386"><ele>135.85714285714286</ele><time>2026-04-12T08:57:09Z</time></trkpt><trkpt lat="42.08485987766925" lon="14.355718906425029"><ele>136.7142857142857</ele><time>2026-04-12T08:57:10Z</time></trkpt><trkpt lat="42.0849367352375" lon="14.355736372194935"><ele>137.57142857142856</ele><time>2026-04-12T08:57:11Z</time></trkpt><trkpt lat="42.08501056223537" lon="14.355756237162854"><ele>138.42857142857142</ele><time>2026-04-12T08:57:12Z</time></trkpt><trkpt lat="42.08508248296772" lon="14.35577398954996"><ele>139.28571428571428</ele><time>2026-04-12T08:57:13Z</time></trkpt><trkpt lat="42.08515430485964" lon="14.355770103888613"><ele>140.14285714285714</ele><time>2026-04-12T08:57:14Z</time></trkpt><trkpt lat="42.08522440578688" lon="14.355790944832657"><ele>141.0</ele><time>2026-04-12T08:57:15Z</time></trkpt><trkpt lat="42.08529366891681" lon="14.355811110872688"><ele>141.0</ele><time>2026-04-12T08:57:16Z</time></trkpt><trkpt lat="42.08536032978426" lon="14.355827750882353"><ele>141.0</ele><time>2026-04-12T08:57:17Z</time></trkpt><trkpt lat="42.08542613036223" lon="14.355842289886708"><ele>141.0</ele><time>2026-04-12T08:57:18Z</time></trkpt><trkpt lat="42.08549276662182" lon="14.355856708710746"><ele>141.0</ele><time>2026-04-12T08:57:19Z</time></trkpt><trkpt lat="42.08555382188516" lon="14.355896189683593"><ele>141.0</ele><time>2026-04-12T08:57:20Z</time></trkpt><trkpt lat="42.0856175561476" lon="14.355919184380026"><ele>141.0</ele><time>2026-04-12T08:57:21Z</time></trkpt><trkpt lat="42.085682767002254" lon="14.35594650404756"><ele>141.0</ele><time>2026-04-12T08:57:22Z</time></trkpt><trkpt lat="42.085748039531765" lon="14.355974953963806"><ele>140.14285714285714</ele><time>2026-04-12T08:57:23Z</time></trkpt><trkpt lat="42.08581449736412" lon="14.356004411849112"><ele>139.28571428571428</ele><time>2026-04-12T08:57:24Z</time></trkpt><trkpt lat="42.08588055429636" lon="14.356033692126386"><ele>138.42857142857142</ele><time>2026-04-12T08:57:25Z</time></trkpt><trkpt lat="42.085947257201475" lon="14.356063260327602"><ele>137.57142857142856</ele><time>2026-04-12T08:57:26Z</time></trkpt><trkpt lat="42.08601410770242" lon="14.356092892326286"><ele>136.7142857142857</ele><time>2026-04-12T08:57:27Z</time></trkpt><trkpt lat="42.08608042517119" lon="14.356121471826079"><ele>135.85714285714286</ele><time>2026-04-12T08:57:28Z</time></trkpt><trkpt lat="42.08614773709776" lon="14.356150445569854"><ele>135.0</ele><time>2026-04-12T08:57:29Z</time></trkpt><trkpt lat="42.08621780709778" lon="14.356144757792684"><ele>135.0</ele><time>2026-04-12T08:57:30Z</time></trkpt><trkpt lat="42.08628188665236" lon="14.356171664942886"><ele>135.0</ele><time>2026-04-12T08:57:31Z</time></trkpt><trkpt lat="42.086344280465525" lon="14.356197779749307"><ele>135.0</ele><time>2026-04-12T08:57:32Z</time></trkpt><trkpt lat="42.08640450971399" lon="14.35622904202716"><ele>135.0</ele><time>2026-04-12T08:57:33Z</time></trkpt><trkpt lat="42.08646684470646" lon="14.356244119258825"><ele>135.0</ele><time>2026-04-12T08:57:34Z</time></trkpt><trkpt lat="42.08653008187175" lon="14.356249579885453"><ele>135.0</ele><time>2026-04-12T08:57:35Z</time></trkpt><trkpt lat="42.08659440958578" lon="14.356250330600274"><ele>135.0</ele><time>2026-04-12T08:57:36Z</time></trkpt><trkpt lat="42.086659003114086" lon="14.356241879557926"><ele>135.14285714285714</ele><time>2026-04-12T08:57:37Z</time></trkpt><trkpt lat="42.0867219024201" lon="14.356223175843049"><ele>135.28571428571428</ele><time>2026-04-12T08:57:38Z</time></trkpt><trkpt lat="42.08678448579108" lon="14.356195297596223"><ele>135.42857142857142</ele><time>2026-04-12T08:57:39Z</time></trkpt><trkpt lat="42.08684228499237" lon="14.356160330780169"><ele>135.57142857142856</ele><time>2026-04-12T08:57:40Z</time></trkpt><trkpt lat="42.08689859552031" lon="14.356121350983083"><ele>135.71428571428572</ele><time>2026-04-12T08:57:41Z</time></trkpt><trkpt lat="42.086954098014665" lon="14.356079107518436"><ele>135.85714285714283</ele><time>2026-04-12T08:57:42Z</time></trkpt><trkpt lat="42.08706049468701" lon="14.355990721763373"><ele>136.0</ele><time>2026-04-12T08:57:44Z</time></trkpt><trkpt lat="42.08711351652018" lon="14.355944587348326"><ele>136.0</ele><time>2026-04-12T08:57:45Z</time></trkpt><trkpt lat="42.08721041319133" lon="14.355852828658728"><ele>136.0</ele><time>2026-04-12T08:57:47Z</time></trkpt><trkpt lat="42.08729734298988" lon="14.355764991943461"><ele>136.0</ele><time>2026-04-12T08:57:49Z</time></trkpt><trkpt lat="42.08737234618169" lon="14.355684662268905"><ele>136.0</ele><time>2026-04-12T08:57:51Z</time></trkpt><trkpt lat="42.08745533860813" lon="14.355633862995427"><ele>136.0</ele><time>2026-04-12T08:57:52.999Z</time></trkpt><trkpt lat="42.087539370173474" lon="14.35557419750906"><ele>133.8</ele><time>2026-04-12T08:57:54.999Z</time></trkpt><trkpt lat="42.08762697679975" lon="14.355526251953536"><ele>131.6</ele><time>2026-04-12T08:57:56.999Z</time></trkpt><trkpt lat="42.087717388329764" lon="14.355509456817035"><ele>129.4</ele><time>2026-04-12T08:57:58.999Z</time></trkpt><trkpt lat="42.08780614780262" lon="14.355498593452072"><ele>127.2</ele><time>2026-04-12T08:58:00.999Z</time></trkpt><trkpt lat="42.087941985031954" lon="14.355503976198035"><ele>125.0</ele><time>2026-04-12T08:58:03.999Z</time></trkpt><trkpt lat="42.08803009343927" lon="14.355531918139082"><ele>128.2</ele><time>2026-04-12T08:58:05.999Z</time></trkpt><trkpt lat="42.08812653216178" lon="14.355571130698292"><ele>131.4</ele><time>2026-04-12T08:58:07.999Z</time></trkpt><trkpt lat="42.08823006100873" lon="14.355605644307266"><ele>134.6</ele><time>2026-04-12T08:58:09.999Z</time></trkpt><trkpt lat="42.088334209383504" lon="14.355640638958295"><ele>137.8</ele><time>2026-04-12T08:58:11.999Z</time></trkpt><trkpt lat="42.08843757352278" lon="14.355692702576745"><ele>141.0</ele><time>2026-04-12T08:58:13.999Z</time></trkpt><trkpt lat="42.088529084678974" lon="14.355780661989108"><ele>141.0</ele><time>2026-04-12T08:58:15.999Z</time></trkpt><trkpt lat="42.08861305503446" lon="14.355878404225612"><ele>141.0</ele><time>2026-04-12T08:58:17.999Z</time></trkpt><trkpt lat="42.08869330017011" lon="14.355979077017992"><ele>141.0</ele><time>2026-04-12T08:58:19.999Z</time></trkpt><trkpt lat="42.088780729863444" lon="14.356079767774302"><ele>141.0</ele><time>2026-04-12T08:58:21.999Z</time></trkpt><trkpt lat="42.08886513602107" lon="14.356184091216509"><ele>141.0</ele><time>2026-04-12T08:58:23.999Z</time></trkpt><trkpt lat="42.088946879717454" lon="14.356294763972876"><ele>141.0</ele><time>2026-04-12T08:58:25.999Z</time></trkpt><trkpt lat="42.08901628336663" lon="14.356416317109591"><ele>141.0</ele><time>2026-04-12T08:58:27.999Z</time></trkpt><trkpt lat="42.08907294338286" lon="14.356554010269019"><ele>141.0</ele><time>2026-04-12T08:58:29.999Z</time></trkpt><trkpt lat="42.089106164083965" lon="14.356696861045736"><ele>139.25</ele><time>2026-04-12T08:58:31.999Z</time></trkpt><trkpt lat="42.08911230646431" lon="14.356849819936828"><ele>137.5</ele><time>2026-04-12T08:58:33.999Z</time></trkpt><trkpt lat="42.089111064909126" lon="14.356991555572417"><ele>135.75</ele><time>2026-04-12T08:58:35.999Z</time></trkpt><trkpt lat="42.089093972797045" lon="14.357143052670272"><ele>134.0</ele><time>2026-04-12T08:58:37.999Z</time></trkpt><trkpt lat="42.089081612527515" lon="14.357301792471988"><ele>134.83333333333331</ele><time>2026-04-12T08:58:39.999Z</time></trkpt><trkpt lat="42.08906390069205" lon="14.357455773695"><ele>135.66666666666666</ele><time>2026-04-12T08:58:41.999Z</time></trkpt><trkpt lat="42.08907707467856" lon="14.357620511395911"><ele>136.5</ele><time>2026-04-12T08:58:43.999Z</time></trkpt><trkpt lat="42.089097025750995" lon="14.357703273399395"><ele>137.33333333333334</ele><time>2026-04-12T08:58:44.999Z</time></trkpt><trkpt lat="42.089121828610985" lon="14.357785627242956"><ele>138.16666666666669</ele><time>2026-04-12T08:58:45.999Z</time></trkpt><trkpt lat="42.08915184882755" lon="14.357862362311883"><ele>139.0</ele><time>2026-04-12T08:58:46.999Z</time></trkpt><trkpt lat="42.08918459302061" lon="14.357935754236829"><ele>139.6</ele><time>2026-04-12T08:58:47.998Z</time></trkpt><trkpt lat="42.08924575983328" lon="14.358085384581644"><ele>140.2</ele><time>2026-04-12T08:58:49.998Z</time></trkpt><trkpt lat="42.089246133723286" lon="14.35817970886508"><ele>140.79999999999998</ele><time>2026-04-12T08:58:50.998Z</time></trkpt><trkpt lat="42.089277374402975" lon="14.35825441136224"><ele>141.4</ele><time>2026-04-12T08:58:51.998Z</time></trkpt><trkpt lat="42.089337387989225" lon="14.358397915302353"><ele>142.0</ele><time>2026-04-12T08:58:54Z</time></trkpt><trkpt lat="42.08939756831001" lon="14.358543033214671"><ele>142.0</ele><time>2026-04-12T08:58:56Z</time></trkpt><trkpt lat="42.08945382661518" lon="14.358594962300128"><ele>142.0</ele><time>2026-04-12T08:58:57Z</time></trkpt><trkpt lat="42.089513909466525" lon="14.35874161596638"><ele>142.0</ele><time>2026-04-12T08:58:59Z</time></trkpt><trkpt lat="42.08954599895914" lon="14.358816941867184"><ele>142.0</ele><time>2026-04-12T08:59:00Z</time></trkpt><trkpt lat="42.08960554389607" lon="14.35896535809213"><ele>142.0</ele><time>2026-04-12T08:59:02Z</time></trkpt><trkpt lat="42.08963659046611" lon="14.35903923161543"><ele>142.0</ele><time>2026-04-12T08:59:03Z</time></trkpt><trkpt lat="42.08969951371902" lon="14.35918231629014"><ele>141.0</ele><time>2026-04-12T08:59:05Z</time></trkpt><trkpt lat="42.08975762424089" lon="14.359327624389529"><ele>140.0</ele><time>2026-04-12T08:59:07Z</time></trkpt><trkpt lat="42.08982948963591" lon="14.359465328583587"><ele>139.0</ele><time>2026-04-12T08:59:09Z</time></trkpt><trkpt lat="42.08986622328178" lon="14.35953741647519"><ele>138.0</ele><time>2026-04-12T08:59:10Z</time></trkpt><trkpt lat="42.08991018312027" lon="14.359601759651504"><ele>137.0</ele><time>2026-04-12T08:59:11Z</time></trkpt><trkpt lat="42.089954590711194" lon="14.359664607403378"><ele>136.0</ele><time>2026-04-12T08:59:12Z</time></trkpt><trkpt lat="42.090049734363944" lon="14.35978391770182"><ele>135.99999999999997</ele><time>2026-04-12T08:59:14Z</time></trkpt><trkpt lat="42.090095462213064" lon="14.359844997903952"><ele>136.0</ele><time>2026-04-12T08:59:15Z</time></trkpt><trkpt lat="42.09014237543451" lon="14.359905451561545"><ele>136.0</ele><time>2026-04-12T08:59:16Z</time></trkpt><trkpt lat="42.09018873053262" lon="14.359965341330112"><ele>136.0</ele><time>2026-04-12T08:59:17Z</time></trkpt><trkpt lat="42.090237014461835" lon="14.36002257832762"><ele>136.0</ele><time>2026-04-12T08:59:18Z</time></trkpt><trkpt lat="42.09028337050453" lon="14.360080001954081"><ele>135.99999999999997</ele><time>2026-04-12T08:59:19Z</time></trkpt><trkpt lat="42.09037242093248" lon="14.360194056633746"><ele>136.0</ele><time>2026-04-12T08:59:21Z</time></trkpt><trkpt lat="42.09046217643918" lon="14.360308257872545"><ele>136.0</ele><time>2026-04-12T08:59:23Z</time></trkpt><trkpt lat="42.090561996846844" lon="14.360393129642672"><ele>136.0</ele><time>2026-04-12T08:59:25Z</time></trkpt><trkpt lat="42.09068165929029" lon="14.360413331652822"><ele>136.0</ele><time>2026-04-12T08:59:27Z</time></trkpt><trkpt lat="42.09080179701459" lon="14.360417614275457"><ele>136.0</ele><time>2026-04-12T08:59:29Z</time></trkpt><trkpt lat="42.09092173267691" lon="14.360437268568926"><ele>134.75</ele><time>2026-04-12T08:59:31Z</time></trkpt><trkpt lat="42.09102973511137" lon="14.36050000556416"><ele>133.5</ele><time>2026-04-12T08:59:33Z</time></trkpt><trkpt lat="42.09111538483088" lon="14.360614829333302"><ele>132.25</ele><time>2026-04-12T08:59:35Z</time></trkpt><trkpt lat="42.09118112630576" lon="14.360743360748947"><ele>131.0</ele><time>2026-04-12T08:59:37Z</time></trkpt><trkpt lat="42.091245651836125" lon="14.360879800513738"><ele>133.4</ele><time>2026-04-12T08:59:39Z</time></trkpt><trkpt lat="42.09131168944225" lon="14.361014051626544"><ele>135.8</ele><time>2026-04-12T08:59:41Z</time></trkpt><trkpt lat="42.091381206326744" lon="14.361150943304896"><ele>138.20000000000002</ele><time>2026-04-12T08:59:43Z</time></trkpt><trkpt lat="42.091435985953304" lon="14.36125908577965"><ele>140.6</ele><time>2026-04-12T08:59:45Z</time></trkpt><trkpt lat="42.09150219372434" lon="14.361330888825183"><ele>143.0</ele><time>2026-04-12T08:59:46Z</time></trkpt><trkpt lat="42.091553865562325" lon="14.361485742208707"><ele>142.20000000000002</ele><time>2026-04-12T08:59:48Z</time></trkpt><trkpt lat="42.09161738404718" lon="14.361612407423502"><ele>141.4</ele><time>2026-04-12T08:59:50Z</time></trkpt><trkpt lat="42.09165898928086" lon="14.36168182346806"><ele>140.60000000000002</ele><time>2026-04-12T08:59:51Z</time></trkpt><trkpt lat="42.0917483783992" lon="14.361780169705776"><ele>139.8</ele><time>2026-04-12T08:59:52.999Z</time></trkpt><trkpt lat="42.091852355837936" lon="14.361882720123322"><ele>139.0</ele><time>2026-04-12T08:59:54.999Z</time></trkpt><trkpt lat="42.091950084708344" lon="14.361969041906956"><ele>139.0</ele><time>2026-04-12T08:59:56.999Z</time></trkpt><trkpt lat="42.09200410350244" lon="14.362015815940955"><ele>139.0</ele><time>2026-04-12T08:59:57.999Z</time></trkpt><trkpt lat="42.0920566205493" lon="14.36206627856971"><ele>139.0</ele><time>2026-04-12T08:59:58.999Z</time></trkpt><trkpt lat="42.092110980024" lon="14.362112102332691"><ele>139.0</ele><time>2026-04-12T08:59:59.999Z</time></trkpt><trkpt lat="42.09216479007578" lon="14.362157737296036"><ele>139.0</ele><time>2026-04-12T09:00:00.999Z</time></trkpt><trkpt lat="42.092217766281365" lon="14.362205485742864"><ele>139.0</ele><time>2026-04-12T09:00:01.999Z</time></trkpt><trkpt lat="42.09227165936756" lon="14.36225467527221"><ele>139.0</ele><time>2026-04-12T09:00:02.999Z</time></trkpt><trkpt lat="42.09236063509902" lon="14.362373723239001"><ele>138.0</ele><time>2026-04-12T09:00:04.999Z</time></trkpt><trkpt lat="42.09239101770081" lon="14.362448510742839"><ele>137.0</ele><time>2026-04-12T09:00:05.999Z</time></trkpt><trkpt lat="42.09242552501199" lon="14.362597008545812"><ele>136.0</ele><time>2026-04-12T09:00:07.999Z</time></trkpt><trkpt lat="42.09245656865809" lon="14.3626798104224"><ele>135.0</ele><time>2026-04-12T09:00:08.999Z</time></trkpt><trkpt lat="42.09248796951579" lon="14.362759660670763"><ele>134.0</ele><time>2026-04-12T09:00:09.999Z</time></trkpt><trkpt lat="42.09250869589859" lon="14.362846618092297"><ele>133.0</ele><time>2026-04-12T09:00:10.999Z</time></trkpt><trkpt lat="42.092536281508565" lon="14.362924200039963"><ele>132.0</ele><time>2026-04-12T09:00:11.999Z</time></trkpt><trkpt lat="42.09256268457551" lon="14.363005095907932"><ele>133.0</ele><time>2026-04-12T09:00:12.999Z</time></trkpt><trkpt lat="42.09261868626407" lon="14.363161668571175"><ele>134.0</ele><time>2026-04-12T09:00:14.999Z</time></trkpt><trkpt lat="42.09264795433976" lon="14.363245928139506"><ele>135.0</ele><time>2026-04-12T09:00:15.999Z</time></trkpt><trkpt lat="42.09268831533484" lon="14.363321247288885"><ele>136.0</ele><time>2026-04-12T09:00:16.999Z</time></trkpt><trkpt lat="42.09272706863324" lon="14.363402074984231"><ele>137.0</ele><time>2026-04-12T09:00:17.999Z</time></trkpt><trkpt lat="42.092767385090454" lon="14.363471068270536"><ele>138.0</ele><time>2026-04-12T09:00:18.999Z</time></trkpt><trkpt lat="42.09280680639584" lon="14.36354160681369"><ele>138.0</ele><time>2026-04-12T09:00:19.999Z</time></trkpt><trkpt lat="42.09285088472089" lon="14.363602753717528"><ele>138.0</ele><time>2026-04-12T09:00:20.999Z</time></trkpt><trkpt lat="42.09293319981031" lon="14.363711848362275"><ele>138.0</ele><time>2026-04-12T09:00:22.999Z</time></trkpt><trkpt lat="42.093017548378334" lon="14.36381188842097"><ele>138.0</ele><time>2026-04-12T09:00:24.999Z</time></trkpt><trkpt lat="42.09311529631349" lon="14.363910291768079"><ele>138.0</ele><time>2026-04-12T09:00:26.999Z</time></trkpt><trkpt lat="42.093165722355856" lon="14.363972102754305"><ele>137.83333333333334</ele><time>2026-04-12T09:00:27.999Z</time></trkpt><trkpt lat="42.093205598905186" lon="14.364039060062929"><ele>137.66666666666666</ele><time>2026-04-12T09:00:28.999Z</time></trkpt><trkpt lat="42.09330831128208" lon="14.364136557370424"><ele>137.5</ele><time>2026-04-12T09:00:30.999Z</time></trkpt><trkpt lat="42.093393333331704" lon="14.364251326282353"><ele>137.33333333333331</ele><time>2026-04-12T09:00:32.999Z</time></trkpt><trkpt lat="42.09344685317044" lon="14.364298889481363"><ele>137.16666666666666</ele><time>2026-04-12T09:00:33.999Z</time></trkpt><trkpt lat="42.0934995949296" lon="14.364349622863719"><ele>137.0</ele><time>2026-04-12T09:00:34.999Z</time></trkpt><trkpt lat="42.09354346793476" lon="14.364417786701814"><ele>137.00000000000003</ele><time>2026-04-12T09:00:35.999Z</time></trkpt><trkpt lat="42.09358994900248" lon="14.364476271321685"><ele>137.0</ele><time>2026-04-12T09:00:36.999Z</time></trkpt><trkpt lat="42.093641712929816" lon="14.364532195916832"><ele>137.0</ele><time>2026-04-12T09:00:37.999Z</time></trkpt><trkpt lat="42.093693101643105" lon="14.364589257842884"><ele>137.0</ele><time>2026-04-12T09:00:38.999Z</time></trkpt><trkpt lat="42.09374258608875" lon="14.364657439672454"><ele>137.0</ele><time>2026-04-12T09:00:39.999Z</time></trkpt><trkpt lat="42.09379463725545" lon="14.364715683747963"><ele>137.00000000000003</ele><time>2026-04-12T09:00:40.999Z</time></trkpt><trkpt lat="42.09384876030202" lon="14.364772426894227"><ele>137.0</ele><time>2026-04-12T09:00:41.999Z</time></trkpt><trkpt lat="42.093896076759805" lon="14.36483651397799"><ele>136.57142857142858</ele><time>2026-04-12T09:00:42.999Z</time></trkpt><trkpt lat="42.093948375486775" lon="14.364898003872199"><ele>136.14285714285714</ele><time>2026-04-12T09:00:43.999Z</time></trkpt><trkpt lat="42.09400280615756" lon="14.364959249268516"><ele>135.71428571428572</ele><time>2026-04-12T09:00:44.999Z</time></trkpt><trkpt lat="42.09405390528736" lon="14.365022073134801"><ele>135.28571428571428</ele><time>2026-04-12T09:00:45.999Z</time></trkpt><trkpt lat="42.094106992699665" lon="14.365082645949983"><ele>134.85714285714286</ele><time>2026-04-12T09:00:46.998Z</time></trkpt><trkpt lat="42.09416202538156" lon="14.36514186893072"><ele>134.42857142857144</ele><time>2026-04-12T09:00:47.998Z</time></trkpt><trkpt lat="42.094215543348874" lon="14.365207196173246"><ele>134.0</ele><time>2026-04-12T09:00:48.998Z</time></trkpt><trkpt lat="42.09427125775608" lon="14.365269351926315"><ele>134.0</ele><time>2026-04-12T09:00:49.998Z</time></trkpt><trkpt lat="42.09432072376612" lon="14.365342818482794"><ele>134.0</ele><time>2026-04-12T09:00:50.998Z</time></trkpt><trkpt lat="42.0943723247596" lon="14.365410155401026"><ele>134.0</ele><time>2026-04-12T09:00:51.998Z</time></trkpt><trkpt lat="42.09442981684274" lon="14.365470748538938"><ele>134.0</ele><time>2026-04-12T09:00:52.998Z</time></trkpt><trkpt lat="42.09448605733844" lon="14.365532319127885"><ele>134.0</ele><time>2026-04-12T09:00:53.998Z</time></trkpt><trkpt lat="42.09454040513023" lon="14.36559993387228"><ele>134.0</ele><time>2026-04-12T09:00:54.998Z</time></trkpt><trkpt lat="42.09460261521458" lon="14.365654388328831"><ele>134.0</ele><time>2026-04-12T09:00:55.998Z</time></trkpt><trkpt lat="42.09467802750496" lon="14.365673915206518"><ele>133.5</ele><time>2026-04-12T09:00:56.998Z</time></trkpt><trkpt lat="42.094753641650435" lon="14.365695604359589"><ele>133.0</ele><time>2026-04-12T09:00:57.998Z</time></trkpt><trkpt lat="42.09482130007693" lon="14.365753710539497"><ele>132.5</ele><time>2026-04-12T09:00:58.998Z</time></trkpt><trkpt lat="42.09489698790546" lon="14.36577704875039"><ele>132.0</ele><time>2026-04-12T09:01:00Z</time></trkpt><trkpt lat="42.0949714825188" lon="14.365795896683636"><ele>131.5</ele><time>2026-04-12T09:01:01Z</time></trkpt><trkpt lat="42.0950470304606" lon="14.365810542035524"><ele>131.0</ele><time>2026-04-12T09:01:02Z</time></trkpt><trkpt lat="42.09511133062174" lon="14.365853137776538"><ele>131.0</ele><time>2026-04-12T09:01:03Z</time></trkpt><trkpt lat="42.095178062721935" lon="14.365911521655772"><ele>131.0</ele><time>2026-04-12T09:01:04Z</time></trkpt><trkpt lat="42.09523936110084" lon="14.365991606216543"><ele>131.0</ele><time>2026-04-12T09:01:05Z</time></trkpt><trkpt lat="42.09528420482897" lon="14.366087087837155"><ele>131.0</ele><time>2026-04-12T09:01:06Z</time></trkpt><trkpt lat="42.09533166230873" lon="14.366177809261984"><ele>131.0</ele><time>2026-04-12T09:01:07Z</time></trkpt><trkpt lat="42.09538262736768" lon="14.366262473247918"><ele>131.0</ele><time>2026-04-12T09:01:08Z</time></trkpt><trkpt lat="42.09544393088541" lon="14.366337897516582"><ele>130.33333333333331</ele><time>2026-04-12T09:01:09Z</time></trkpt><trkpt lat="42.09551108296813" lon="14.366401695670918"><ele>129.66666666666666</ele><time>2026-04-12T09:01:10Z</time></trkpt><trkpt lat="42.095591868694285" lon="14.366433857479596"><ele>129.0</ele><time>2026-04-12T09:01:11Z</time></trkpt><trkpt lat="42.095678808549756" lon="14.366458871229236"><ele>128.33333333333334</ele><time>2026-04-12T09:01:12Z</time></trkpt><trkpt lat="42.09576729114565" lon="14.366483243523497"><ele>127.66666666666667</ele><time>2026-04-12T09:01:13Z</time></trkpt><trkpt lat="42.095855476879436" lon="14.366506854789172"><ele>127.0</ele><time>2026-04-12T09:01:14Z</time></trkpt><trkpt lat="42.09593829121336" lon="14.366539542401098"><ele>127.00000000000001</ele><time>2026-04-12T09:01:15Z</time></trkpt><trkpt lat="42.09602299350812" lon="14.366585973094322"><ele>127.0</ele><time>2026-04-12T09:01:16Z</time></trkpt><trkpt lat="42.09608712740734" lon="14.366666027500012"><ele>127.0</ele><time>2026-04-12T09:01:17Z</time></trkpt><trkpt lat="42.09613962199421" lon="14.366768668541845"><ele>127.0</ele><time>2026-04-12T09:01:18Z</time></trkpt><trkpt lat="42.09618015800396" lon="14.366874825262705"><ele>127.00000000000001</ele><time>2026-04-12T09:01:19Z</time></trkpt><trkpt lat="42.09621643634126" lon="14.366969376596193"><ele>127.0</ele><time>2026-04-12T09:01:20Z</time></trkpt><trkpt lat="42.09626676023077" lon="14.36708309108506"><ele>127.00000000000001</ele><time>2026-04-12T09:01:21Z</time></trkpt><trkpt lat="42.096316546452535" lon="14.367185120203096"><ele>127.0</ele><time>2026-04-12T09:01:22Z</time></trkpt><trkpt lat="42.09637578472976" lon="14.367264067454439"><ele>127.0</ele><time>2026-04-12T09:01:23Z</time></trkpt><trkpt lat="42.096450469869616" lon="14.36733145420781"><ele>127.0</ele><time>2026-04-12T09:01:24Z</time></trkpt><trkpt lat="42.096536338212076" lon="14.367371975636582"><ele>127.00000000000001</ele><time>2026-04-12T09:01:25Z</time></trkpt><trkpt lat="42.0966226965324" lon="14.367402769770154"><ele>127.0</ele><time>2026-04-12T09:01:26Z</time></trkpt><trkpt lat="42.09670914127091" lon="14.36743152209596"><ele>127.16666666666667</ele><time>2026-04-12T09:01:27Z</time></trkpt><trkpt lat="42.09678630920207" lon="14.367443662789764"><ele>127.33333333333334</ele><time>2026-04-12T09:01:28Z</time></trkpt><trkpt lat="42.09688151102549" lon="14.36745080219753"><ele>127.5</ele><time>2026-04-12T09:01:29Z</time></trkpt><trkpt lat="42.09696844659315" lon="14.367452480963664"><ele>127.66666666666666</ele><time>2026-04-12T09:01:30Z</time></trkpt><trkpt lat="42.09705710073794" lon="14.367442995318227"><ele>127.83333333333333</ele><time>2026-04-12T09:01:31Z</time></trkpt><trkpt lat="42.09714594933083" lon="14.367433361771626"><ele>128.0</ele><time>2026-04-12T09:01:32Z</time></trkpt><trkpt lat="42.09723314217894" lon="14.367423400459035"><ele>127.99999999999999</ele><time>2026-04-12T09:01:33Z</time></trkpt><trkpt lat="42.09732023988448" lon="14.36741583977642"><ele>128.0</ele><time>2026-04-12T09:01:34Z</time></trkpt><trkpt lat="42.097403287105216" lon="14.367407664486784"><ele>128.0</ele><time>2026-04-12T09:01:35Z</time></trkpt><trkpt lat="42.09748430314263" lon="14.367390686371472"><ele>128.0</ele><time>2026-04-12T09:01:36Z</time></trkpt><trkpt lat="42.09756348337106" lon="14.367383895074484"><ele>127.99999999999999</ele><time>2026-04-12T09:01:37Z</time></trkpt><trkpt lat="42.09764875413263" lon="14.367394117940169"><ele>128.0</ele><time>2026-04-12T09:01:38Z</time></trkpt><trkpt lat="42.097728888996876" lon="14.367421540210348"><ele>127.33333333333333</ele><time>2026-04-12T09:01:39Z</time></trkpt><trkpt lat="42.09780739440686" lon="14.36746071588831"><ele>126.66666666666666</ele><time>2026-04-12T09:01:40Z</time></trkpt><trkpt lat="42.09788071643593" lon="14.367506740365268"><ele>126.0</ele><time>2026-04-12T09:01:41Z</time></trkpt><trkpt lat="42.097958643173094" lon="14.367553166315412"><ele>125.33333333333334</ele><time>2026-04-12T09:01:42Z</time></trkpt><trkpt lat="42.09803677784462" lon="14.367608670484422"><ele>124.66666666666667</ele><time>2026-04-12T09:01:43Z</time></trkpt><trkpt lat="42.09811434642942" lon="14.367658096774601"><ele>124.0</ele><time>2026-04-12T09:01:44Z</time></trkpt><trkpt lat="42.09818853232092" lon="14.367710296050877"><ele>124.50000000000001</ele><time>2026-04-12T09:01:45Z</time></trkpt><trkpt lat="42.09826472283003" lon="14.36776500288236"><ele>125.0</ele><time>2026-04-12T09:01:46Z</time></trkpt><trkpt lat="42.09833947044879" lon="14.36782322421974"><ele>125.5</ele><time>2026-04-12T09:01:47Z</time></trkpt><trkpt lat="42.0984111572018" lon="14.367888871669328"><ele>126.0</ele><time>2026-04-12T09:01:48Z</time></trkpt><trkpt lat="42.098470712290144" lon="14.367970944049828"><ele>126.50000000000001</ele><time>2026-04-12T09:01:49Z</time></trkpt><trkpt lat="42.098521420208506" lon="14.368058782872453"><ele>127.0</ele><time>2026-04-12T09:01:50Z</time></trkpt><trkpt lat="42.09856961074308" lon="14.368150255166357"><ele>127.00000000000001</ele><time>2026-04-12T09:01:51Z</time></trkpt><trkpt lat="42.09862292935119" lon="14.368243197722762"><ele>127.0</ele><time>2026-04-12T09:01:52Z</time></trkpt><trkpt lat="42.09868255930825" lon="14.368320881858562"><ele>127.0</ele><time>2026-04-12T09:01:53Z</time></trkpt><trkpt lat="42.09874887266433" lon="14.368385781378652"><ele>127.0</ele><time>2026-04-12T09:01:54Z</time></trkpt><trkpt lat="42.09883135727319" lon="14.368421226668492"><ele>127.00000000000001</ele><time>2026-04-12T09:01:55Z</time></trkpt><trkpt lat="42.098919962512625" lon="14.36843809245371"><ele>127.0</ele><time>2026-04-12T09:01:55.999Z</time></trkpt><trkpt lat="42.09901011399497" lon="14.36843940690985"><ele>125.33333333333334</ele><time>2026-04-12T09:01:56.999Z</time></trkpt><trkpt lat="42.09909841110795" lon="14.368438815911917"><ele>123.66666666666667</ele><time>2026-04-12T09:01:57.999Z</time></trkpt><trkpt lat="42.09918530838028" lon="14.368433558305275"><ele>122.0</ele><time>2026-04-12T09:01:58.999Z</time></trkpt><trkpt lat="42.09926967090778" lon="14.36842781819301"><ele>120.33333333333334</ele><time>2026-04-12T09:01:59.999Z</time></trkpt><trkpt lat="42.09935597269999" lon="14.368434341199265"><ele>118.66666666666667</ele><time>2026-04-12T09:02:00.999Z</time></trkpt><trkpt lat="42.099442033638084" lon="14.368447409803911"><ele>117.0</ele><time>2026-04-12T09:02:01.999Z</time></trkpt><trkpt lat="42.09952584129048" lon="14.368470104435662"><ele>117.0</ele><time>2026-04-12T09:02:02.999Z</time></trkpt><trkpt lat="42.09960484464443" lon="14.368517933787091"><ele>117.0</ele><time>2026-04-12T09:02:03.999Z</time></trkpt><trkpt lat="42.09967763947204" lon="14.368584728304471"><ele>117.0</ele><time>2026-04-12T09:02:04.999Z</time></trkpt><trkpt lat="42.099744482087885" lon="14.368658717897045"><ele>117.0</ele><time>2026-04-12T09:02:05.999Z</time></trkpt><trkpt lat="42.09980684702786" lon="14.368731470573954"><ele>117.0</ele><time>2026-04-12T09:02:06.999Z</time></trkpt><trkpt lat="42.099869601244464" lon="14.368793578663505"><ele>117.0</ele><time>2026-04-12T09:02:07.999Z</time></trkpt><trkpt lat="42.09993485720288" lon="14.368851429894004"><ele>117.0</ele><time>2026-04-12T09:02:08.999Z</time></trkpt><trkpt lat="42.099995710685995" lon="14.3689131547624"><ele>117.00000000000001</ele><time>2026-04-12T09:02:09.999Z</time></trkpt><trkpt lat="42.10005221917968" lon="14.368982447914009"><ele>117.0</ele><time>2026-04-12T09:02:10.999Z</time></trkpt><trkpt lat="42.100105893500995" lon="14.36905316994534"><ele>117.0</ele><time>2026-04-12T09:02:11.999Z</time></trkpt><trkpt lat="42.10016300625348" lon="14.36911990942536"><ele>117.00000000000001</ele><time>2026-04-12T09:02:12.999Z</time></trkpt><trkpt lat="42.100218553209366" lon="14.369179593314355"><ele>117.0</ele><time>2026-04-12T09:02:13.999Z</time></trkpt><trkpt lat="42.10027167176078" lon="14.369238693972248"><ele>117.0</ele><time>2026-04-12T09:02:14.999Z</time></trkpt><trkpt lat="42.10032490227649" lon="14.36929386136842"><ele>117.0</ele><time>2026-04-12T09:02:15.999Z</time></trkpt><trkpt lat="42.10041289760557" lon="14.369384692339377"><ele>116.99999999999999</ele><time>2026-04-12T09:02:17.999Z</time></trkpt><trkpt lat="42.10048541933206" lon="14.369456836683774"><ele>116.99999999999999</ele><time>2026-04-12T09:02:19.999Z</time></trkpt><trkpt lat="42.10054730426821" lon="14.369557284884843"><ele>117.0</ele><time>2026-04-12T09:02:21.999Z</time></trkpt><trkpt lat="42.10062897503692" lon="14.36964568157518"><ele>117.0</ele><time>2026-04-12T09:02:23.999Z</time></trkpt><trkpt lat="42.100712524612774" lon="14.369761164240348"><ele>117.0</ele><time>2026-04-12T09:02:25.999Z</time></trkpt><trkpt lat="42.100810057106116" lon="14.369868912790263"><ele>117.0</ele><time>2026-04-12T09:02:27.999Z</time></trkpt><trkpt lat="42.10086168819769" lon="14.369925951985234"><ele>117.0</ele><time>2026-04-12T09:02:28.999Z</time></trkpt><trkpt lat="42.10091729192738" lon="14.369987379907426"><ele>117.0</ele><time>2026-04-12T09:02:29.999Z</time></trkpt><trkpt lat="42.100970897190834" lon="14.370048947585307"><ele>117.0</ele><time>2026-04-12T09:02:30.999Z</time></trkpt><trkpt lat="42.101028013736325" lon="14.370114765821155"><ele>117.0</ele><time>2026-04-12T09:02:31.999Z</time></trkpt><trkpt lat="42.10108573165563" lon="14.370179078156587"><ele>117.0</ele><time>2026-04-12T09:02:32.999Z</time></trkpt><trkpt lat="42.101152310169894" lon="14.370243160036155"><ele>117.0</ele><time>2026-04-12T09:02:33.999Z</time></trkpt><trkpt lat="42.10123135435279" lon="14.370275272844887"><ele>117.0</ele><time>2026-04-12T09:02:34.999Z</time></trkpt><trkpt lat="42.10130807638061" lon="14.370312560721072"><ele>117.0</ele><time>2026-04-12T09:02:35.999Z</time></trkpt><trkpt lat="42.10139176513046" lon="14.370326850668189"><ele>117.0</ele><time>2026-04-12T09:02:36.999Z</time></trkpt><trkpt lat="42.10147040425914" lon="14.370321565014246"><ele>117.0</ele><time>2026-04-12T09:02:37.999Z</time></trkpt><trkpt lat="42.101534724104376" lon="14.370295227165485"><ele>115.8</ele><time>2026-04-12T09:02:38.999Z</time></trkpt><trkpt lat="42.101638902433194" lon="14.370238156680887"><ele>114.6</ele><time>2026-04-12T09:02:40.999Z</time></trkpt><trkpt lat="42.101726142984454" lon="14.370181082280276"><ele>113.39999999999999</ele><time>2026-04-12T09:02:42.999Z</time></trkpt><trkpt lat="42.10182876443156" lon="14.370130036632212"><ele>112.19999999999999</ele><time>2026-04-12T09:02:44.999Z</time></trkpt><trkpt lat="42.10194773166743" lon="14.370072180871038"><ele>111.0</ele><time>2026-04-12T09:02:46.999Z</time></trkpt><trkpt lat="42.10200980693053" lon="14.370038885663956"><ele>111.0</ele><time>2026-04-12T09:02:47.999Z</time></trkpt><trkpt lat="42.102074026073204" lon="14.370005956934325"><ele>111.0</ele><time>2026-04-12T09:02:48.999Z</time></trkpt><trkpt lat="42.1021418115042" lon="14.369971273981673"><ele>111.0</ele><time>2026-04-12T09:02:49.999Z</time></trkpt><trkpt lat="42.10221160303478" lon="14.369943418146166"><ele>111.0</ele><time>2026-04-12T09:02:50.998Z</time></trkpt><trkpt lat="42.10228009220402" lon="14.369918031762927"><ele>111.0</ele><time>2026-04-12T09:02:51.998Z</time></trkpt><trkpt lat="42.10235123224848" lon="14.369903956870496"><ele>111.0</ele><time>2026-04-12T09:02:52.998Z</time></trkpt><trkpt lat="42.10241630614324" lon="14.369897314386403"><ele>111.0</ele><time>2026-04-12T09:02:53.998Z</time></trkpt><trkpt lat="42.10250886242492" lon="14.369898346782634"><ele>110.83333333333333</ele><time>2026-04-12T09:02:55.998Z</time></trkpt><trkpt lat="42.102594547043005" lon="14.369904620312399"><ele>110.66666666666666</ele><time>2026-04-12T09:02:57.998Z</time></trkpt><trkpt lat="42.10265969692067" lon="14.369912443638839"><ele>110.5</ele><time>2026-04-12T09:02:59.998Z</time></trkpt><trkpt lat="42.10272332137881" lon="14.369903638920599"><ele>110.33333333333333</ele><time>2026-04-12T09:03:01.998Z</time></trkpt><trkpt lat="42.102800497976716" lon="14.369942427446931"><ele>110.16666666666666</ele><time>2026-04-12T09:03:04.998Z</time></trkpt><trkpt lat="42.10288436042775" lon="14.3699633270742"><ele>110.0</ele><time>2026-04-12T09:03:08Z</time></trkpt><trkpt lat="42.10296618767914" lon="14.369974894805987"><ele>109.99999999999999</ele><time>2026-04-12T09:03:11Z</time></trkpt><trkpt lat="42.10304159559237" lon="14.369984206993632"><ele>110.0</ele><time>2026-04-12T09:03:15Z</time></trkpt><trkpt lat="42.10311256296874" lon="14.369999663238525"><ele>110.0</ele><time>2026-04-12T09:03:19Z</time></trkpt><trkpt lat="42.10317461874114" lon="14.370019198420973"><ele>110.0</ele><time>2026-04-12T09:03:23Z</time></trkpt><trkpt lat="42.10323853581145" lon="14.37003693881524"><ele>110.0</ele><time>2026-04-12T09:03:32Z</time></trkpt><trkpt lat="42.10330768149185" lon="14.370050744690456"><ele>109.99999999999999</ele><time>2026-04-12T09:03:37Z</time></trkpt><trkpt lat="42.1033774184189" lon="14.370073580821508"><ele>110.0</ele><time>2026-04-12T09:03:43Z</time></trkpt><trkpt lat="42.1034615089676" lon="14.370098817358222"><ele>109.99999999999999</ele><time>2026-04-12T09:03:48Z</time></trkpt><trkpt lat="42.10355221639366" lon="14.370122342609298"><ele>110.0</ele><time>2026-04-12T09:03:57.999Z</time></trkpt><trkpt lat="42.10365419716243" lon="14.370164822515683"><ele>110.0</ele><time>2026-04-12T09:04:12.999Z</time></trkpt><trkpt lat="42.103720877701136" lon="14.370209035507248"><ele>110.0</ele><time>2026-04-12T09:04:25.999Z</time></trkpt><trkpt lat="42.10377633383593" lon="14.370253106059216"><ele>109.99999999999999</ele><time>2026-04-12T09:04:31.999Z</time></trkpt><trkpt lat="42.10383335769362" lon="14.370296201449975"><ele>110.0</ele><time>2026-04-12T09:04:42.999Z</time></trkpt><trkpt lat="42.10388460116509" lon="14.370357958777257"><ele>109.99999999999999</ele><time>2026-04-12T09:04:47.999Z</time></trkpt><trkpt lat="42.103950682406854" lon="14.370422953651204"><ele>110.0</ele><time>2026-04-12T09:04:52.998Z</time></trkpt><trkpt lat="42.104009080581164" lon="14.370489327780707"><ele>110.0</ele><time>2026-04-12T09:04:56.998Z</time></trkpt><trkpt lat="42.1040771735767" lon="14.370527577236707"><ele>110.0</ele><time>2026-04-12T09:05:00.998Z</time></trkpt><trkpt lat="42.104132670444706" lon="14.370583179243381"><ele>110.0</ele><time>2026-04-12T09:05:04.998Z</time></trkpt><trkpt lat="42.1041753921546" lon="14.370656166317694"><ele>109.99999999999999</ele><time>2026-04-12T09:05:08.998Z</time></trkpt><trkpt lat="42.10423056087719" lon="14.370705142853339"><ele>110.0</ele><time>2026-04-12T09:05:29Z</time></trkpt><trkpt lat="42.104287619393034" lon="14.370749609117636"><ele>109.99999999999999</ele><time>2026-04-12T09:05:34Z</time></trkpt><trkpt lat="42.10432965464336" lon="14.370837093531842"><ele>110.0</ele><time>2026-04-12T09:05:41Z</time></trkpt><trkpt lat="42.10440520127984" lon="14.370855948672332"><ele>110.0</ele><time>2026-04-12T09:05:44Z</time></trkpt><trkpt lat="42.10446047241467" lon="14.370899423505472"><ele>110.0</ele><time>2026-04-12T09:05:49Z</time></trkpt><trkpt lat="42.1045232594668" lon="14.370948213014646"><ele>110.0</ele><time>2026-04-12T09:05:54Z</time></trkpt><trkpt lat="42.104583054663394" lon="14.37098878970178"><ele>109.99999999999999</ele><time>2026-04-12T09:06:00.999Z</time></trkpt><trkpt lat="42.10462188381945" lon="14.3710712591589"><ele>110.0</ele><time>2026-04-12T09:06:06.999Z</time></trkpt><trkpt lat="42.104676752961524" lon="14.37113439636441"><ele>109.99999999999999</ele><time>2026-04-12T09:06:11.999Z</time></trkpt><trkpt lat="42.10472836792732" lon="14.371209085430154"><ele>110.0</ele><time>2026-04-12T09:06:14.999Z</time></trkpt><trkpt lat="42.10479732322868" lon="14.371278165100659"><ele>110.0</ele><time>2026-04-12T09:06:17.999Z</time></trkpt><trkpt lat="42.10486840878562" lon="14.371341875151726"><ele>110.0</ele><time>2026-04-12T09:06:20.999Z</time></trkpt><trkpt lat="42.10493495920831" lon="14.3714132455287"><ele>109.99999999999999</ele><time>2026-04-12T09:06:23.999Z</time></trkpt><trkpt lat="42.10501265235129" lon="14.371467474053619"><ele>110.0</ele><time>2026-04-12T09:06:28.999Z</time></trkpt><trkpt lat="42.10507165738866" lon="14.371533325093301"><ele>109.66666666666666</ele><time>2026-04-12T09:06:31.999Z</time></trkpt><trkpt lat="42.10513149192241" lon="14.371598963373724"><ele>109.33333333333333</ele><time>2026-04-12T09:06:34.999Z</time></trkpt><trkpt lat="42.10518963663816" lon="14.371645108585161"><ele>109.0</ele><time>2026-04-12T09:06:37.999Z</time></trkpt><trkpt lat="42.1052326037003" lon="14.37170815270132"><ele>108.66666666666666</ele><time>2026-04-12T09:06:39.999Z</time></trkpt><trkpt lat="42.105297279293325" lon="14.371788533260379"><ele>108.33333333333333</ele><time>2026-04-12T09:06:42.999Z</time></trkpt><trkpt lat="42.10536438625315" lon="14.37185329041777"><ele>108.0</ele><time>2026-04-12T09:06:45.999Z</time></trkpt><trkpt lat="42.10541938894761" lon="14.371917881637819"><ele>108.0</ele><time>2026-04-12T09:06:48.999Z</time></trkpt><trkpt lat="42.10547398182116" lon="14.37196630224731"><ele>108.0</ele><time>2026-04-12T09:06:54.999Z</time></trkpt><trkpt lat="42.10553491559673" lon="14.37199703267363"><ele>108.0</ele><time>2026-04-12T09:06:58.998Z</time></trkpt><trkpt lat="42.10559300618915" lon="14.372050781503777"><ele>108.0</ele><time>2026-04-12T09:07:04.998Z</time></trkpt><trkpt lat="42.10564732938456" lon="14.372106930903582"><ele>108.0</ele><time>2026-04-12T09:07:08.998Z</time></trkpt><trkpt lat="42.10569627163985" lon="14.372167484434023"><ele>108.0</ele><time>2026-04-12T09:07:09.998Z</time></trkpt><trkpt lat="42.105737988618834" lon="14.372237800557274"><ele>108.0</ele><time>2026-04-12T09:07:14.998Z</time></trkpt><trkpt lat="42.105784052519525" lon="14.372324992553391"><ele>107.66666666666667</ele><time>2026-04-12T09:07:19Z</time></trkpt><trkpt lat="42.10584390508287" lon="14.372398312042957"><ele>107.33333333333334</ele><time>2026-04-12T09:07:23Z</time></trkpt><trkpt lat="42.105918966411735" lon="14.372433007500396"><ele>107.0</ele><time>2026-04-12T09:07:27Z</time></trkpt><trkpt lat="42.10595291281012" lon="14.372515975680937"><ele>106.66666666666667</ele><time>2026-04-12T09:07:36Z</time></trkpt><trkpt lat="42.105991723858395" lon="14.372598207139513"><ele>106.33333333333334</ele><time>2026-04-12T09:07:46Z</time></trkpt><trkpt lat="42.106049451868714" lon="14.37264856896512"><ele>106.0</ele><time>2026-04-12T09:07:52Z</time></trkpt><trkpt lat="42.10611146384983" lon="14.37271896486767"><ele>106.0</ele><time>2026-04-12T09:08:01Z</time></trkpt><trkpt lat="42.106137866372386" lon="14.372888716703665"><ele>106.0</ele><time>2026-04-12T09:08:05.999Z</time></trkpt><trkpt lat="42.10621265416918" lon="14.372974271726713"><ele>106.0</ele><time>2026-04-12T09:08:08.999Z</time></trkpt><trkpt lat="42.10627452525519" lon="14.373026063240975"><ele>106.0</ele><time>2026-04-12T09:08:50.999Z</time></trkpt><trkpt lat="42.10633995878579" lon="14.373101584683083"><ele>106.0</ele><time>2026-04-12T09:08:53.999Z</time></trkpt><trkpt lat="42.106407545764114" lon="14.37315127685992"><ele>105.6</ele><time>2026-04-12T09:08:55.999Z</time></trkpt><trkpt lat="42.10645967453156" lon="14.373237300597044"><ele>105.19999999999999</ele><time>2026-04-12T09:08:57.999Z</time></trkpt><trkpt lat="42.1065269743775" lon="14.373313605138316"><ele>104.80000000000001</ele><time>2026-04-12T09:08:59.998Z</time></trkpt><trkpt lat="42.10660318178488" lon="14.373394112158165"><ele>104.4</ele><time>2026-04-12T09:09:01.998Z</time></trkpt><trkpt lat="42.10667976112812" lon="14.373471814475765"><ele>104.0</ele><time>2026-04-12T09:09:03.998Z</time></trkpt><trkpt lat="42.10676246960858" lon="14.373547116554574"><ele>104.0</ele><time>2026-04-12T09:09:05.998Z</time></trkpt><trkpt lat="42.10683786158791" lon="14.373645050350223"><ele>104.0</ele><time>2026-04-12T09:09:07.998Z</time></trkpt><trkpt lat="42.1069188686481" lon="14.373741755680197"><ele>104.0</ele><time>2026-04-12T09:09:09.998Z</time></trkpt><trkpt lat="42.10700642372595" lon="14.373832839358046"><ele>104.0</ele><time>2026-04-12T09:09:11.998Z</time></trkpt><trkpt lat="42.10709542926166" lon="14.373924704880089"><ele>104.0</ele><time>2026-04-12T09:09:13.998Z</time></trkpt><trkpt lat="42.10718498415307" lon="14.374018169462326"><ele>104.2</ele><time>2026-04-12T09:09:15.998Z</time></trkpt><trkpt lat="42.107271665968526" lon="14.374111465444559"><ele>104.4</ele><time>2026-04-12T09:09:17.998Z</time></trkpt><trkpt lat="42.107359336196076" lon="14.374205589879855"><ele>104.6</ele><time>2026-04-12T09:09:19.998Z</time></trkpt><trkpt lat="42.10744702127936" lon="14.374299420896113"><ele>104.8</ele><time>2026-04-12T09:09:22Z</time></trkpt><trkpt lat="42.107535887012716" lon="14.374390693087719"><ele>105.0</ele><time>2026-04-12T09:09:24Z</time></trkpt><trkpt lat="42.10762999148203" lon="14.374486558437"><ele>104.5</ele><time>2026-04-12T09:09:26Z</time></trkpt><trkpt lat="42.10772142627387" lon="14.374590390149327"><ele>104.0</ele><time>2026-04-12T09:09:28Z</time></trkpt><trkpt lat="42.10781760318827" lon="14.374690565514914"><ele>103.5</ele><time>2026-04-12T09:09:30Z</time></trkpt><trkpt lat="42.10791035724194" lon="14.37479392384213"><ele>103.0</ele><time>2026-04-12T09:09:32Z</time></trkpt><trkpt lat="42.10800337743323" lon="14.374891896572132"><ele>103.0</ele><time>2026-04-12T09:09:34Z</time></trkpt><trkpt lat="42.1080990641957" lon="14.374978932446679"><ele>103.0</ele><time>2026-04-12T09:09:36Z</time></trkpt><trkpt lat="42.10818790443196" lon="14.375084675437352"><ele>103.0</ele><time>2026-04-12T09:09:38Z</time></trkpt><trkpt lat="42.108284075141206" lon="14.375185321732838"><ele>103.0</ele><time>2026-04-12T09:09:40Z</time></trkpt><trkpt lat="42.10838114124771" lon="14.375280646043754"><ele>102.80000000000001</ele><time>2026-04-12T09:09:42Z</time></trkpt><trkpt lat="42.108478146473324" lon="14.375379657869152"><ele>102.6</ele><time>2026-04-12T09:09:44Z</time></trkpt><trkpt lat="42.10857336689092" lon="14.37548187972687"><ele>102.4</ele><time>2026-04-12T09:09:46Z</time></trkpt><trkpt lat="42.10867010358571" lon="14.375580906628791"><ele>102.19999999999999</ele><time>2026-04-12T09:09:48Z</time></trkpt><trkpt lat="42.1087205833856" lon="14.375638337532093"><ele>102.0</ele><time>2026-04-12T09:09:49Z</time></trkpt><trkpt lat="42.10877016242144" lon="14.375695202851665"><ele>102.0</ele><time>2026-04-12T09:09:50Z</time></trkpt><trkpt lat="42.10882193482614" lon="14.37574670521725"><ele>102.0</ele><time>2026-04-12T09:09:51Z</time></trkpt><trkpt lat="42.10887354284625" lon="14.375801383160251"><ele>102.0</ele><time>2026-04-12T09:09:52Z</time></trkpt><trkpt lat="42.10892566807752" lon="14.375855164983525"><ele>102.0</ele><time>2026-04-12T09:09:53Z</time></trkpt><trkpt lat="42.10897658236127" lon="14.375914126553324"><ele>102.0</ele><time>2026-04-12T09:09:54Z</time></trkpt><trkpt lat="42.109029219603336" lon="14.375964776122265"><ele>102.0</ele><time>2026-04-12T09:09:55Z</time></trkpt><trkpt lat="42.109079248257885" lon="14.376019161766044"><ele>102.0</ele><time>2026-04-12T09:09:56Z</time></trkpt><trkpt lat="42.10913053767835" lon="14.37607404958598"><ele>101.83333333333333</ele><time>2026-04-12T09:09:57Z</time></trkpt><trkpt lat="42.109179209952515" lon="14.376130021707406"><ele>101.66666666666666</ele><time>2026-04-12T09:09:58Z</time></trkpt><trkpt lat="42.10922836311863" lon="14.376184164901954"><ele>101.5</ele><time>2026-04-12T09:09:59Z</time></trkpt><trkpt lat="42.10932821689507" lon="14.376288922386204"><ele>101.33333333333333</ele><time>2026-04-12T09:10:01Z</time></trkpt><trkpt lat="42.10942674873804" lon="14.376395365618425"><ele>101.16666666666666</ele><time>2026-04-12T09:10:03Z</time></trkpt><trkpt lat="42.10947655245746" lon="14.376447832567965"><ele>101.0</ele><time>2026-04-12T09:10:04Z</time></trkpt><trkpt lat="42.109526350894974" lon="14.37650066901378"><ele>100.75</ele><time>2026-04-12T09:10:05Z</time></trkpt><trkpt lat="42.109626407071" lon="14.376602578082144"><ele>100.5</ele><time>2026-04-12T09:10:07Z</time></trkpt><trkpt lat="42.109717804420264" lon="14.376712366436848"><ele>100.25</ele><time>2026-04-12T09:10:08.999Z</time></trkpt><trkpt lat="42.10981464454252" lon="14.37681632189521"><ele>100.0</ele><time>2026-04-12T09:10:10.999Z</time></trkpt><trkpt lat="42.10991008348884" lon="14.376918026795096"><ele>100.0</ele><time>2026-04-12T09:10:12.999Z</time></trkpt><trkpt lat="42.110003516681275" lon="14.377024261409748"><ele>100.0</ele><time>2026-04-12T09:10:14.999Z</time></trkpt><trkpt lat="42.110095517278324" lon="14.377128064852863"><ele>100.0</ele><time>2026-04-12T09:10:16.999Z</time></trkpt><trkpt lat="42.11014526511456" lon="14.377180405563843"><ele>100.0</ele><time>2026-04-12T09:10:17.999Z</time></trkpt><trkpt lat="42.11023919695329" lon="14.377284155438517"><ele>100.0</ele><time>2026-04-12T09:10:19.999Z</time></trkpt><trkpt lat="42.11028940314055" lon="14.377338956911212"><ele>101.14285714285715</ele><time>2026-04-12T09:10:20.999Z</time></trkpt><trkpt lat="42.1103389589862" lon="14.3773942163759"><ele>102.28571428571429</ele><time>2026-04-12T09:10:21.999Z</time></trkpt><trkpt lat="42.110389581132786" lon="14.377447847785673"><ele>103.42857142857143</ele><time>2026-04-12T09:10:22.999Z</time></trkpt><trkpt lat="42.11044057318579" lon="14.377505074758991"><ele>104.57142857142858</ele><time>2026-04-12T09:10:23.999Z</time></trkpt><trkpt lat="42.1104886827822" lon="14.37756482845788"><ele>105.71428571428571</ele><time>2026-04-12T09:10:24.999Z</time></trkpt><trkpt lat="42.11053855025207" lon="14.377624643252313"><ele>106.85714285714286</ele><time>2026-04-12T09:10:25.999Z</time></trkpt><trkpt lat="42.11058517115998" lon="14.377683840261772"><ele>108.0</ele><time>2026-04-12T09:10:26.999Z</time></trkpt><trkpt lat="42.11063295335377" lon="14.377745981102992"><ele>108.0</ele><time>2026-04-12T09:10:27.999Z</time></trkpt><trkpt lat="42.11067711114589" lon="14.377809686524747"><ele>108.0</ele><time>2026-04-12T09:10:28.999Z</time></trkpt><trkpt lat="42.110720408378064" lon="14.377881900352616"><ele>108.0</ele><time>2026-04-12T09:10:29.999Z</time></trkpt><trkpt lat="42.11075762959298" lon="14.377953147399646"><ele>108.0</ele><time>2026-04-12T09:10:30.999Z</time></trkpt><trkpt lat="42.11078874501994" lon="14.378028918829422"><ele>108.0</ele><time>2026-04-12T09:10:31.999Z</time></trkpt><trkpt lat="42.110836252780025" lon="14.378189111775669"><ele>108.0</ele><time>2026-04-12T09:10:33.999Z</time></trkpt><trkpt lat="42.110856370142145" lon="14.378270127603402"><ele>107.4</ele><time>2026-04-12T09:10:34.999Z</time></trkpt><trkpt lat="42.11087626772131" lon="14.378351038957598"><ele>106.80000000000001</ele><time>2026-04-12T09:10:35.999Z</time></trkpt><trkpt lat="42.11090083108281" lon="14.378508615703886"><ele>106.2</ele><time>2026-04-12T09:10:37.999Z</time></trkpt><trkpt lat="42.11092367136232" lon="14.37866768317721"><ele>105.6</ele><time>2026-04-12T09:10:39.999Z</time></trkpt><trkpt lat="42.11090784729119" lon="14.378752784179229"><ele>105.0</ele><time>2026-04-12T09:10:40.999Z</time></trkpt><trkpt lat="42.11090496748092" lon="14.37891710324925"><ele>105.0</ele><time>2026-04-12T09:10:42.999Z</time></trkpt><trkpt lat="42.11089343005654" lon="14.37908785668764"><ele>105.0</ele><time>2026-04-12T09:10:44.999Z</time></trkpt><trkpt lat="42.11090360001072" lon="14.37917599871414"><ele>105.0</ele><time>2026-04-12T09:10:45.999Z</time></trkpt><trkpt lat="42.11089653143578" lon="14.379260953263291"><ele>105.0</ele><time>2026-04-12T09:10:46.999Z</time></trkpt><trkpt lat="42.110889015289274" lon="14.379345778237214"><ele>105.0</ele><time>2026-04-12T09:10:47.999Z</time></trkpt><trkpt lat="42.11088313450771" lon="14.379432886015437"><ele>105.0</ele><time>2026-04-12T09:10:48.999Z</time></trkpt><trkpt lat="42.11087841556474" lon="14.379518619414334"><ele>105.0</ele><time>2026-04-12T09:10:49.999Z</time></trkpt><trkpt lat="42.110867782018595" lon="14.379689962887003"><ele>104.83333333333333</ele><time>2026-04-12T09:10:51.999Z</time></trkpt><trkpt lat="42.11086376032771" lon="14.379776445701669"><ele>104.66666666666666</ele><time>2026-04-12T09:10:52.999Z</time></trkpt><trkpt lat="42.11085844873824" lon="14.379862668844877"><ele>104.5</ele><time>2026-04-12T09:10:53.999Z</time></trkpt><trkpt lat="42.11084770731222" lon="14.380032925873966"><ele>104.33333333333333</ele><time>2026-04-12T09:10:55.999Z</time></trkpt><trkpt lat="42.11083953212544" lon="14.380120551946138"><ele>104.16666666666666</ele><time>2026-04-12T09:10:56.999Z</time></trkpt><trkpt lat="42.1108330993763" lon="14.38020741591723"><ele>104.0</ele><time>2026-04-12T09:10:57.999Z</time></trkpt><trkpt lat="42.11082535113111" lon="14.380295147989509"><ele>104.0</ele><time>2026-04-12T09:10:58.999Z</time></trkpt><trkpt lat="42.11081944508157" lon="14.38038285857001"><ele>104.0</ele><time>2026-04-12T09:10:59.999Z</time></trkpt><trkpt lat="42.11081315976461" lon="14.380469427977419"><ele>104.0</ele><time>2026-04-12T09:11:00.999Z</time></trkpt><trkpt lat="42.11080784270102" lon="14.380554803838866"><ele>104.0</ele><time>2026-04-12T09:11:01.999Z</time></trkpt><trkpt lat="42.110802708372695" lon="14.380640872436166"><ele>104.0</ele><time>2026-04-12T09:11:02.999Z</time></trkpt><trkpt lat="42.110803052721" lon="14.380727918217481"><ele>104.0</ele><time>2026-04-12T09:11:03.998Z</time></trkpt><trkpt lat="42.11080384890647" lon="14.380814442219068"><ele>104.0</ele><time>2026-04-12T09:11:04.998Z</time></trkpt><trkpt lat="42.110809696545736" lon="14.380899874629419"><ele>103.2</ele><time>2026-04-12T09:11:05.998Z</time></trkpt><trkpt lat="42.110834919782064" lon="14.381062814990344"><ele>102.4</ele><time>2026-04-12T09:11:07.998Z</time></trkpt><trkpt lat="42.11086523761847" lon="14.381218065985946"><ele>101.6</ele><time>2026-04-12T09:11:09.998Z</time></trkpt><trkpt lat="42.11089463386727" lon="14.381382194607639"><ele>100.8</ele><time>2026-04-12T09:11:11.998Z</time></trkpt><trkpt lat="42.110910011616674" lon="14.38146733787456"><ele>100.0</ele><time>2026-04-12T09:11:12.998Z</time></trkpt><trkpt lat="42.11093916956886" lon="14.381631984429138"><ele>99.25</ele><time>2026-04-12T09:11:14.998Z</time></trkpt><trkpt lat="42.11097039953261" lon="14.381794950276634"><ele>98.5</ele><time>2026-04-12T09:11:16.998Z</time></trkpt><trkpt lat="42.111001459862216" lon="14.381957551807922"><ele>97.75</ele><time>2026-04-12T09:11:18.998Z</time></trkpt><trkpt lat="42.111031863390885" lon="14.382111750662064"><ele>97.0</ele><time>2026-04-12T09:11:20.998Z</time></trkpt><trkpt lat="42.11105919481293" lon="14.382263087691562"><ele>97.0</ele><time>2026-04-12T09:11:22.998Z</time></trkpt><trkpt lat="42.1110903749625" lon="14.382418548215487"><ele>97.0</ele><time>2026-04-12T09:11:24.998Z</time></trkpt><trkpt lat="42.111116870178584" lon="14.382568638282633"><ele>97.0</ele><time>2026-04-12T09:11:26.998Z</time></trkpt><trkpt lat="42.111145994391684" lon="14.382712984366382"><ele>97.0</ele><time>2026-04-12T09:11:29Z</time></trkpt><trkpt lat="42.111175132549214" lon="14.382861996846845"><ele>97.0</ele><time>2026-04-12T09:11:31Z</time></trkpt><trkpt lat="42.111202958007595" lon="14.383003991341882"><ele>97.0</ele><time>2026-04-12T09:11:33Z</time></trkpt><trkpt lat="42.11122892207554" lon="14.383143448539359"><ele>97.0</ele><time>2026-04-12T09:11:35Z</time></trkpt><trkpt lat="42.11125593882366" lon="14.383285018892067"><ele>97.0</ele><time>2026-04-12T09:11:37Z</time></trkpt><trkpt lat="42.11128426916206" lon="14.383426250506508"><ele>97.0</ele><time>2026-04-12T09:11:39Z</time></trkpt><trkpt lat="42.11131000898022" lon="14.38355963611895"><ele>98.0</ele><time>2026-04-12T09:11:41Z</time></trkpt><trkpt lat="42.11133769622433" lon="14.383690086120458"><ele>99.0</ele><time>2026-04-12T09:11:43Z</time></trkpt><trkpt lat="42.11136319323407" lon="14.383826479129988"><ele>100.0</ele><time>2026-04-12T09:11:45Z</time></trkpt><trkpt lat="42.11139002693324" lon="14.3839597241696"><ele>101.0</ele><time>2026-04-12T09:11:47Z</time></trkpt><trkpt lat="42.11142170714292" lon="14.3840927815556"><ele>102.0</ele><time>2026-04-12T09:11:49Z</time></trkpt><trkpt lat="42.11144707131284" lon="14.384227602504794"><ele>101.39999999999999</ele><time>2026-04-12T09:11:51Z</time></trkpt><trkpt lat="42.111473725655344" lon="14.384364059582396"><ele>100.8</ele><time>2026-04-12T09:11:53Z</time></trkpt><trkpt lat="42.11150054319556" lon="14.384494076439616"><ele>100.2</ele><time>2026-04-12T09:11:55Z</time></trkpt><trkpt lat="42.111528232687114" lon="14.384621742420583"><ele>99.6</ele><time>2026-04-12T09:11:57Z</time></trkpt><trkpt lat="42.111552273154366" lon="14.384753197203734"><ele>99.0</ele><time>2026-04-12T09:11:59Z</time></trkpt><trkpt lat="42.11157566220434" lon="14.38488196991505"><ele>99.0</ele><time>2026-04-12T09:12:01Z</time></trkpt><trkpt lat="42.111600987220406" lon="14.3850196213845"><ele>99.0</ele><time>2026-04-12T09:12:03Z</time></trkpt><trkpt lat="42.111625560187505" lon="14.385159758987603"><ele>99.0</ele><time>2026-04-12T09:12:05Z</time></trkpt><trkpt lat="42.11165034020573" lon="14.385290331628566"><ele>99.0</ele><time>2026-04-12T09:12:07Z</time></trkpt><trkpt lat="42.111674897504166" lon="14.385417334832935"><ele>99.0</ele><time>2026-04-12T09:12:08.999Z</time></trkpt><trkpt lat="42.11169614612113" lon="14.385544885822219"><ele>99.2</ele><time>2026-04-12T09:12:10.999Z</time></trkpt><trkpt lat="42.1117084021793" lon="14.38567458654678"><ele>99.4</ele><time>2026-04-12T09:12:12.999Z</time></trkpt><trkpt lat="42.1117075393297" lon="14.3858072552416"><ele>99.6</ele><time>2026-04-12T09:12:14.999Z</time></trkpt><trkpt lat="42.111704635391604" lon="14.385943289579368"><ele>99.8</ele><time>2026-04-12T09:12:16.999Z</time></trkpt><trkpt lat="42.11168887668484" lon="14.386079043551428"><ele>100.0</ele><time>2026-04-12T09:12:18.999Z</time></trkpt><trkpt lat="42.11167747198646" lon="14.38621600511258"><ele>100.4</ele><time>2026-04-12T09:12:20.999Z</time></trkpt><trkpt lat="42.11166091150969" lon="14.386354001425023"><ele>100.8</ele><time>2026-04-12T09:12:22.999Z</time></trkpt><trkpt lat="42.11164530911795" lon="14.386490413846419"><ele>101.19999999999999</ele><time>2026-04-12T09:12:24.999Z</time></trkpt><trkpt lat="42.11163034063539" lon="14.386624686750777"><ele>101.6</ele><time>2026-04-12T09:12:26.999Z</time></trkpt><trkpt lat="42.11161592667404" lon="14.386759738450145"><ele>102.0</ele><time>2026-04-12T09:12:28.999Z</time></trkpt><trkpt lat="42.1116008420794" lon="14.386892517761932"><ele>102.0</ele><time>2026-04-12T09:12:30.999Z</time></trkpt><trkpt lat="42.11158819970948" lon="14.38702411563548"><ele>102.0</ele><time>2026-04-12T09:12:32.999Z</time></trkpt><trkpt lat="42.11158209441686" lon="14.387153394956947"><ele>102.0</ele><time>2026-04-12T09:12:34.999Z</time></trkpt><trkpt lat="42.111597810885286" lon="14.387285993432045"><ele>102.0</ele><time>2026-04-12T09:12:36.999Z</time></trkpt><trkpt lat="42.111641162875735" lon="14.387414441198262"><ele>102.0</ele><time>2026-04-12T09:12:38.999Z</time></trkpt><trkpt lat="42.11170888436386" lon="14.387522393428211"><ele>102.6</ele><time>2026-04-12T09:12:40.999Z</time></trkpt><trkpt lat="42.11178278381014" lon="14.38762063028423"><ele>103.19999999999999</ele><time>2026-04-12T09:12:42.999Z</time></trkpt><trkpt lat="42.111864216296716" lon="14.387711205596315"><ele>103.8</ele><time>2026-04-12T09:12:44.999Z</time></trkpt><trkpt lat="42.111948829188414" lon="14.387811395536096"><ele>104.4</ele><time>2026-04-12T09:12:46.999Z</time></trkpt><trkpt lat="42.11202965468889" lon="14.387906447046328"><ele>105.0</ele><time>2026-04-12T09:12:48.999Z</time></trkpt><trkpt lat="42.11211083935779" lon="14.388002371217787"><ele>105.2</ele><time>2026-04-12T09:12:50.999Z</time></trkpt><trkpt lat="42.11219199532416" lon="14.388100348369212"><ele>105.4</ele><time>2026-04-12T09:12:52.999Z</time></trkpt><trkpt lat="42.11227047304749" lon="14.388194826865954"><ele>105.6</ele><time>2026-04-12T09:12:54.999Z</time></trkpt><trkpt lat="42.11235335133231" lon="14.388288575395109"><ele>105.8</ele><time>2026-04-12T09:12:56.999Z</time></trkpt><trkpt lat="42.11243627350024" lon="14.388387006534773"><ele>106.0</ele><time>2026-04-12T09:12:58.999Z</time></trkpt><trkpt lat="42.112515306299706" lon="14.388482402356615"><ele>105.19999999999999</ele><time>2026-04-12T09:13:00.999Z</time></trkpt><trkpt lat="42.11259771263783" lon="14.388578589126668"><ele>104.39999999999999</ele><time>2026-04-12T09:13:02.998Z</time></trkpt><trkpt lat="42.11268240167349" lon="14.388674189512574"><ele>103.6</ele><time>2026-04-12T09:13:04.998Z</time></trkpt><trkpt lat="42.1127664018064" lon="14.388772561286485"><ele>102.8</ele><time>2026-04-12T09:13:06.998Z</time></trkpt><trkpt lat="42.1128493756217" lon="14.388870008525988"><ele>102.0</ele><time>2026-04-12T09:13:08.998Z</time></trkpt><trkpt lat="42.112927700487326" lon="14.388966339028977"><ele>102.0</ele><time>2026-04-12T09:13:10.998Z</time></trkpt><trkpt lat="42.11300798923462" lon="14.389059485349238"><ele>102.0</ele><time>2026-04-12T09:13:12.998Z</time></trkpt><trkpt lat="42.113085706594454" lon="14.389153069554999"><ele>102.0</ele><time>2026-04-12T09:13:14.998Z</time></trkpt><trkpt lat="42.11316595291458" lon="14.38924550314223"><ele>102.0</ele><time>2026-04-12T09:13:16.998Z</time></trkpt><trkpt lat="42.11324526138482" lon="14.389336162866057"><ele>102.0</ele><time>2026-04-12T09:13:18.998Z</time></trkpt><trkpt lat="42.113326593001524" lon="14.389430370157088"><ele>102.0</ele><time>2026-04-12T09:13:20.998Z</time></trkpt><trkpt lat="42.11340598492514" lon="14.389525551403592"><ele>102.0</ele><time>2026-04-12T09:13:22.998Z</time></trkpt><trkpt lat="42.113488186512726" lon="14.38962332681372"><ele>102.0</ele><time>2026-04-12T09:13:24.998Z</time></trkpt><trkpt lat="42.113572231776295" lon="14.389721557276097"><ele>102.0</ele><time>2026-04-12T09:13:26.998Z</time></trkpt><trkpt lat="42.1136538642074" lon="14.389821416890703"><ele>102.0</ele><time>2026-04-12T09:13:28.998Z</time></trkpt><trkpt lat="42.11373727964272" lon="14.389923034321743"><ele>102.19999999999999</ele><time>2026-04-12T09:13:30.998Z</time></trkpt><trkpt lat="42.113821225081665" lon="14.390020014686511"><ele>102.4</ele><time>2026-04-12T09:13:32.998Z</time></trkpt><trkpt lat="42.11390114794275" lon="14.390114706064658"><ele>102.6</ele><time>2026-04-12T09:13:35Z</time></trkpt><trkpt lat="42.113983090087565" lon="14.390209272999414"><ele>102.80000000000001</ele><time>2026-04-12T09:13:37Z</time></trkpt><trkpt lat="42.114063773170464" lon="14.390301620911131"><ele>103.0</ele><time>2026-04-12T09:13:39Z</time></trkpt><trkpt lat="42.11414204402616" lon="14.390391597882324"><ele>103.0</ele><time>2026-04-12T09:13:41Z</time></trkpt><trkpt lat="42.11421396402428" lon="14.390476126751489"><ele>103.0</ele><time>2026-04-12T09:13:43Z</time></trkpt><trkpt lat="42.11428658893051" lon="14.39056463354587"><ele>103.0</ele><time>2026-04-12T09:13:45Z</time></trkpt><trkpt lat="42.11436304263619" lon="14.390654103950547"><ele>103.0</ele><time>2026-04-12T09:13:47Z</time></trkpt><trkpt lat="42.11444279758715" lon="14.390745262528212"><ele>103.0</ele><time>2026-04-12T09:13:49Z</time></trkpt><trkpt lat="42.11452307010066" lon="14.390837080462127"><ele>103.0</ele><time>2026-04-12T09:13:51Z</time></trkpt><trkpt lat="42.114603978733655" lon="14.390931799782383"><ele>103.0</ele><time>2026-04-12T09:13:53Z</time></trkpt><trkpt lat="42.114689812951376" lon="14.3910269951513"><ele>103.0</ele><time>2026-04-12T09:13:55Z</time></trkpt><trkpt lat="42.11477474868529" lon="14.391125453258002"><ele>103.0</ele><time>2026-04-12T09:13:57Z</time></trkpt><trkpt lat="42.1148605305079" lon="14.391222732088858"><ele>103.0</ele><time>2026-04-12T09:13:59Z</time></trkpt><trkpt lat="42.11494266440075" lon="14.391316252299836"><ele>103.0</ele><time>2026-04-12T09:14:01Z</time></trkpt><trkpt lat="42.115019535017645" lon="14.391413768251589"><ele>103.0</ele><time>2026-04-12T09:14:03Z</time></trkpt><trkpt lat="42.115097120550416" lon="14.391502262128594"><ele>103.0</ele><time>2026-04-12T09:14:05Z</time></trkpt><trkpt lat="42.11517146888002" lon="14.391587321942353"><ele>103.0</ele><time>2026-04-12T09:14:07Z</time></trkpt><trkpt lat="42.11523636777137" lon="14.391665657290025"><ele>103.0</ele><time>2026-04-12T09:14:08.999Z</time></trkpt><trkpt lat="42.11530149061952" lon="14.391743366607292"><ele>103.0</ele><time>2026-04-12T09:14:10.999Z</time></trkpt><trkpt lat="42.115368911858624" lon="14.391824697744125"><ele>103.0</ele><time>2026-04-12T09:14:12.999Z</time></trkpt><trkpt lat="42.11544220616403" lon="14.391906077169"><ele>103.0</ele><time>2026-04-12T09:14:14.999Z</time></trkpt><trkpt lat="42.11551534645476" lon="14.391990953130728"><ele>103.0</ele><time>2026-04-12T09:14:16.999Z</time></trkpt><trkpt lat="42.11558656723141" lon="14.392077268450665"><ele>103.0</ele><time>2026-04-12T09:14:18.999Z</time></trkpt><trkpt lat="42.11565630395258" lon="14.392156603221595"><ele>103.50000000000001</ele><time>2026-04-12T09:14:20.999Z</time></trkpt><trkpt lat="42.11572675306392" lon="14.392238597980267"><ele>104.0</ele><time>2026-04-12T09:14:22.999Z</time></trkpt><trkpt lat="42.11579484294276" lon="14.392319293118344"><ele>104.5</ele><time>2026-04-12T09:14:24.999Z</time></trkpt><trkpt lat="42.115861579167436" lon="14.392398270342637"><ele>105.0</ele><time>2026-04-12T09:14:26.999Z</time></trkpt><trkpt lat="42.11592736219767" lon="14.392476760895551"><ele>105.50000000000001</ele><time>2026-04-12T09:14:28.999Z</time></trkpt><trkpt lat="42.11599325493447" lon="14.392553597172027"><ele>106.0</ele><time>2026-04-12T09:14:30.999Z</time></trkpt><trkpt lat="42.1160590251078" lon="14.392629502087575"><ele>106.0</ele><time>2026-04-12T09:14:32.999Z</time></trkpt><trkpt lat="42.116120559777215" lon="14.392702250700575"><ele>106.0</ele><time>2026-04-12T09:14:34.999Z</time></trkpt><trkpt lat="42.116176004995005" lon="14.392768386634959"><ele>106.0</ele><time>2026-04-12T09:14:36.999Z</time></trkpt><trkpt lat="42.11623394793606" lon="14.392835451257595"><ele>106.0</ele><time>2026-04-12T09:14:38.999Z</time></trkpt><trkpt lat="42.11629354681061" lon="14.392896470027148"><ele>106.0</ele><time>2026-04-12T09:14:40.999Z</time></trkpt><trkpt lat="42.11635003985047" lon="14.392953514005331"><ele>106.0</ele><time>2026-04-12T09:14:42.999Z</time></trkpt><trkpt lat="42.116398938117676" lon="14.393018812732276"><ele>106.0</ele><time>2026-04-12T09:14:44.999Z</time></trkpt><trkpt lat="42.116440887611994" lon="14.393093409375261"><ele>106.66666666666667</ele><time>2026-04-12T09:14:46.999Z</time></trkpt><trkpt lat="42.11649892747523" lon="14.393155001076277"><ele>107.33333333333334</ele><time>2026-04-12T09:14:48.999Z</time></trkpt><trkpt lat="42.11655649172598" lon="14.393223479403936"><ele>108.0</ele><time>2026-04-12T09:14:50.999Z</time></trkpt><trkpt lat="42.11661190446901" lon="14.393290659618657"><ele>108.66666666666666</ele><time>2026-04-12T09:14:52.999Z</time></trkpt><trkpt lat="42.116670330343" lon="14.393357245184793"><ele>109.33333333333333</ele><time>2026-04-12T09:14:54.999Z</time></trkpt><trkpt lat="42.116727782166194" lon="14.393423387094439"><ele>110.0</ele><time>2026-04-12T09:14:56.999Z</time></trkpt><trkpt lat="42.11678467557327" lon="14.393492489949592"><ele>109.99999999999999</ele><time>2026-04-12T09:14:58.999Z</time></trkpt><trkpt lat="42.11684053632894" lon="14.393556618333758"><ele>110.0</ele><time>2026-04-12T09:15:00.999Z</time></trkpt><trkpt lat="42.11690096300077" lon="14.393624827132646"><ele>110.0</ele><time>2026-04-12T09:15:02.998Z</time></trkpt><trkpt lat="42.11695771208816" lon="14.393690576875455"><ele>110.0</ele><time>2026-04-12T09:15:04.998Z</time></trkpt><trkpt lat="42.11701088846493" lon="14.393760957049816"><ele>110.0</ele><time>2026-04-12T09:15:06.998Z</time></trkpt><trkpt lat="42.117060925385395" lon="14.393837729007094"><ele>109.99999999999999</ele><time>2026-04-12T09:15:08.998Z</time></trkpt><trkpt lat="42.117112655045794" lon="14.393898805773896"><ele>110.0</ele><time>2026-04-12T09:15:10.998Z</time></trkpt><trkpt lat="42.11716744684095" lon="14.393957128203557"><ele>110.16666666666666</ele><time>2026-04-12T09:15:12.998Z</time></trkpt><trkpt lat="42.1172315400394" lon="14.394012731727555"><ele>110.33333333333333</ele><time>2026-04-12T09:15:14.998Z</time></trkpt><trkpt lat="42.1172898720642" lon="14.39407401402689"><ele>110.5</ele><time>2026-04-12T09:15:16.998Z</time></trkpt><trkpt lat="42.11735451442862" lon="14.394138271732771"><ele>110.66666666666666</ele><time>2026-04-12T09:15:18.998Z</time></trkpt><trkpt lat="42.11742365125425" lon="14.394208936622169"><ele>110.83333333333333</ele><time>2026-04-12T09:15:20.998Z</time></trkpt><trkpt lat="42.11749098525718" lon="14.394283858891658"><ele>111.0</ele><time>2026-04-12T09:15:22.998Z</time></trkpt><trkpt lat="42.11755685143254" lon="14.394366694334146"><ele>111.0</ele><time>2026-04-12T09:15:24.998Z</time></trkpt><trkpt lat="42.11763091578788" lon="14.394446148584274"><ele>111.0</ele><time>2026-04-12T09:15:26.998Z</time></trkpt><trkpt lat="42.11770238265288" lon="14.394526439916882"><ele>111.0</ele><time>2026-04-12T09:15:28.998Z</time></trkpt><trkpt lat="42.117771815132464" lon="14.394606377364607"><ele>111.0</ele><time>2026-04-12T09:15:30.998Z</time></trkpt><trkpt lat="42.11784235011387" lon="14.394687827776824"><ele>111.0</ele><time>2026-04-12T09:15:32.998Z</time></trkpt><trkpt lat="42.11791274333883" lon="14.39476735409551"><ele>111.19999999999999</ele><time>2026-04-12T09:15:34.998Z</time></trkpt><trkpt lat="42.11799122671354" lon="14.394847045242479"><ele>111.39999999999999</ele><time>2026-04-12T09:15:36.998Z</time></trkpt><trkpt lat="42.1180640932036" lon="14.39494020398567"><ele>111.6</ele><time>2026-04-12T09:15:39Z</time></trkpt><trkpt lat="42.118144023614704" lon="14.395034811122636"><ele>111.8</ele><time>2026-04-12T09:15:41Z</time></trkpt><trkpt lat="42.11822300165261" lon="14.395125512830324"><ele>112.0</ele><time>2026-04-12T09:15:43Z</time></trkpt><trkpt lat="42.11830600307755" lon="14.395223386903863"><ele>112.0</ele><time>2026-04-12T09:15:45Z</time></trkpt><trkpt lat="42.118386818705496" lon="14.395316877768716"><ele>111.99999999999999</ele><time>2026-04-12T09:15:47Z</time></trkpt><trkpt lat="42.118460446947786" lon="14.395405430620132"><ele>111.99999999999999</ele><time>2026-04-12T09:15:49Z</time></trkpt><trkpt lat="42.118532071418805" lon="14.395491548005296"><ele>112.0</ele><time>2026-04-12T09:15:51Z</time></trkpt><trkpt lat="42.11860387281012" lon="14.395581075695013"><ele>112.0</ele><time>2026-04-12T09:15:53Z</time></trkpt><trkpt lat="42.1186768364482" lon="14.395674739047958"><ele>112.0</ele><time>2026-04-12T09:15:55Z</time></trkpt><trkpt lat="42.118752301607245" lon="14.395770716799442"><ele>111.99999999999999</ele><time>2026-04-12T09:15:57Z</time></trkpt><trkpt lat="42.11883006158512" lon="14.395866638621225"><ele>111.99999999999999</ele><time>2026-04-12T09:15:59Z</time></trkpt><trkpt lat="42.118909985961494" lon="14.395966372105672"><ele>112.0</ele><time>2026-04-12T09:16:01Z</time></trkpt><trkpt lat="42.11899353864218" lon="14.396070465736152"><ele>112.0</ele><time>2026-04-12T09:16:03Z</time></trkpt><trkpt lat="42.11907766150456" lon="14.396178312376355"><ele>112.0</ele><time>2026-04-12T09:16:05Z</time></trkpt><trkpt lat="42.11916659100123" lon="14.396284154441823"><ele>112.0</ele><time>2026-04-12T09:16:07Z</time></trkpt><trkpt lat="42.11925359271076" lon="14.396392980738138"><ele>112.0</ele><time>2026-04-12T09:16:09Z</time></trkpt><trkpt lat="42.11934370631748" lon="14.396506866235196"><ele>112.0</ele><time>2026-04-12T09:16:10.999Z</time></trkpt><trkpt lat="42.11943465220772" lon="14.39661486032469"><ele>112.25</ele><time>2026-04-12T09:16:12.999Z</time></trkpt><trkpt lat="42.11952787237772" lon="14.396723651475453"><ele>112.5</ele><time>2026-04-12T09:16:14.999Z</time></trkpt><trkpt lat="42.11962066444498" lon="14.39683110919276"><ele>112.75</ele><time>2026-04-12T09:16:16.999Z</time></trkpt><trkpt lat="42.11970935975466" lon="14.39694336064924"><ele>113.0</ele><time>2026-04-12T09:16:18.999Z</time></trkpt><trkpt lat="42.11980586521579" lon="14.397047904313345"><ele>113.0</ele><time>2026-04-12T09:16:20.999Z</time></trkpt><trkpt lat="42.11989856162515" lon="14.39715876512467"><ele>113.00000000000001</ele><time>2026-04-12T09:16:22.999Z</time></trkpt><trkpt lat="42.11999211360035" lon="14.397269717332803"><ele>113.00000000000001</ele><time>2026-04-12T09:16:24.999Z</time></trkpt><trkpt lat="42.12003898199381" lon="14.397327333120135"><ele>113.0</ele><time>2026-04-12T09:16:25.999Z</time></trkpt><trkpt lat="42.120130585787365" lon="14.397433844362945"><ele>113.0</ele><time>2026-04-12T09:16:27.999Z</time></trkpt><trkpt lat="42.12017814940468" lon="14.397491567395164"><ele>112.66666666666666</ele><time>2026-04-12T09:16:28.999Z</time></trkpt><trkpt lat="42.120228798800035" lon="14.397551752343544"><ele>112.33333333333333</ele><time>2026-04-12T09:16:29.999Z</time></trkpt><trkpt lat="42.12032618136233" lon="14.39766352116758"><ele>112.0</ele><time>2026-04-12T09:16:31.999Z</time></trkpt><trkpt lat="42.12037432469289" lon="14.397718206641594"><ele>111.66666666666666</ele><time>2026-04-12T09:16:32.999Z</time></trkpt><trkpt lat="42.120425364843" lon="14.39778077101523"><ele>111.33333333333333</ele><time>2026-04-12T09:16:33.999Z</time></trkpt><trkpt lat="42.12047160444391" lon="14.397839084771963"><ele>111.0</ele><time>2026-04-12T09:16:34.999Z</time></trkpt><trkpt lat="42.120523084995625" lon="14.39789713821294"><ele>111.0</ele><time>2026-04-12T09:16:35.999Z</time></trkpt><trkpt lat="42.120573997451515" lon="14.397952597249063"><ele>111.0</ele><time>2026-04-12T09:16:36.999Z</time></trkpt><trkpt lat="42.12062328137486" lon="14.398006962378922"><ele>111.0</ele><time>2026-04-12T09:16:37.999Z</time></trkpt><trkpt lat="42.12071697226148" lon="14.398119690149569"><ele>111.0</ele><time>2026-04-12T09:16:39.999Z</time></trkpt><trkpt lat="42.12080537008577" lon="14.398228935040798"><ele>111.0</ele><time>2026-04-12T09:16:41.999Z</time></trkpt><trkpt lat="42.120897962888186" lon="14.398335615789213"><ele>110.5</ele><time>2026-04-12T09:16:43.999Z</time></trkpt><trkpt lat="42.120991735631705" lon="14.398445462865824"><ele>110.0</ele><time>2026-04-12T09:16:45.999Z</time></trkpt><trkpt lat="42.121039948266386" lon="14.398502487289838"><ele>109.5</ele><time>2026-04-12T09:16:46.999Z</time></trkpt><trkpt lat="42.121135245753905" lon="14.398610795358982"><ele>109.0</ele><time>2026-04-12T09:16:48.999Z</time></trkpt><trkpt lat="42.12118280963348" lon="14.398671313346641"><ele>108.5</ele><time>2026-04-12T09:16:49.999Z</time></trkpt><trkpt lat="42.121232050336836" lon="14.398730957917644"><ele>108.0</ele><time>2026-04-12T09:16:50.999Z</time></trkpt><trkpt lat="42.12128081023102" lon="14.398787008179768"><ele>108.0</ele><time>2026-04-12T09:16:51.999Z</time></trkpt><trkpt lat="42.12132934159446" lon="14.398844611858337"><ele>108.0</ele><time>2026-04-12T09:16:52.999Z</time></trkpt><trkpt lat="42.12137896473716" lon="14.398903112326522"><ele>108.0</ele><time>2026-04-12T09:16:53.999Z</time></trkpt><trkpt lat="42.12142864785835" lon="14.398963731360675"><ele>108.0</ele><time>2026-04-12T09:16:54.999Z</time></trkpt><trkpt lat="42.1214785070946" lon="14.399023215120044"><ele>108.0</ele><time>2026-04-12T09:16:55.999Z</time></trkpt><trkpt lat="42.121528730571924" lon="14.399082831454642"><ele>108.0</ele><time>2026-04-12T09:16:56.999Z</time></trkpt><trkpt lat="42.12157953531512" lon="14.399143556279698"><ele>108.0</ele><time>2026-04-12T09:16:57.999Z</time></trkpt><trkpt lat="42.121631233860775" lon="14.399203649803283"><ele>107.85714285714286</ele><time>2026-04-12T09:16:58.999Z</time></trkpt><trkpt lat="42.12167945099938" lon="14.399262880879885"><ele>107.71428571428571</ele><time>2026-04-12T09:16:59.999Z</time></trkpt><trkpt lat="42.12172707323682" lon="14.399331005425147"><ele>107.57142857142858</ele><time>2026-04-12T09:17:00.999Z</time></trkpt><trkpt lat="42.12177344659297" lon="14.39939896059677"><ele>107.42857142857143</ele><time>2026-04-12T09:17:01.999Z</time></trkpt><trkpt lat="42.1218178515134" lon="14.399468547746746"><ele>107.28571428571429</ele><time>2026-04-12T09:17:02.999Z</time></trkpt><trkpt lat="42.12185611546707" lon="14.3995478473522"><ele>107.14285714285715</ele><time>2026-04-12T09:17:03.999Z</time></trkpt><trkpt lat="42.12189626162976" lon="14.399624337166028"><ele>107.0</ele><time>2026-04-12T09:17:04.999Z</time></trkpt><trkpt lat="42.12193501550124" lon="14.399705157345906"><ele>107.00000000000001</ele><time>2026-04-12T09:17:05.999Z</time></trkpt><trkpt lat="42.12197009707066" lon="14.399786116902472"><ele>107.0</ele><time>2026-04-12T09:17:06.998Z</time></trkpt><trkpt lat="42.12200735486607" lon="14.399863398651068"><ele>107.0</ele><time>2026-04-12T09:17:07.998Z</time></trkpt><trkpt lat="42.12204523014703" lon="14.399946044030468"><ele>107.0</ele><time>2026-04-12T09:17:08.998Z</time></trkpt><trkpt lat="42.12208256770531" lon="14.400025987825988"><ele>107.0</ele><time>2026-04-12T09:17:09.998Z</time></trkpt><trkpt lat="42.122121817913886" lon="14.400105644848916"><ele>107.00000000000001</ele><time>2026-04-12T09:17:10.998Z</time></trkpt><trkpt lat="42.12215954355419" lon="14.400185242560678"><ele>107.0</ele><time>2026-04-12T09:17:11.998Z</time></trkpt><trkpt lat="42.12219675995841" lon="14.400267656709154"><ele>107.00000000000001</ele><time>2026-04-12T09:17:12.998Z</time></trkpt><trkpt lat="42.122233696927715" lon="14.400345341593852"><ele>107.0</ele><time>2026-04-12T09:17:13.998Z</time></trkpt><trkpt lat="42.12227091291627" lon="14.400429213100553"><ele>107.0</ele><time>2026-04-12T09:17:14.998Z</time></trkpt><trkpt lat="42.122309399269554" lon="14.400506175572895"><ele>107.0</ele><time>2026-04-12T09:17:15.998Z</time></trkpt><trkpt lat="42.12234424502291" lon="14.400585317281186"><ele>107.0</ele><time>2026-04-12T09:17:16.998Z</time></trkpt><trkpt lat="42.122382556216046" lon="14.400663208763943"><ele>107.00000000000001</ele><time>2026-04-12T09:17:17.998Z</time></trkpt><trkpt lat="42.12242044452651" lon="14.40074230512486"><ele>107.0</ele><time>2026-04-12T09:17:18.998Z</time></trkpt><trkpt lat="42.12245577855785" lon="14.400821998709437"><ele>106.71428571428572</ele><time>2026-04-12T09:17:19.998Z</time></trkpt><trkpt lat="42.122492809569025" lon="14.400900251757726"><ele>106.42857142857143</ele><time>2026-04-12T09:17:20.998Z</time></trkpt><trkpt lat="42.12252934802442" lon="14.400976106890841"><ele>106.14285714285714</ele><time>2026-04-12T09:17:21.998Z</time></trkpt><trkpt lat="42.12256476912762" lon="14.401055091174465"><ele>105.85714285714286</ele><time>2026-04-12T09:17:22.998Z</time></trkpt><trkpt lat="42.12260021245182" lon="14.401131193137482"><ele>105.57142857142857</ele><time>2026-04-12T09:17:23.998Z</time></trkpt><trkpt lat="42.12263551441632" lon="14.401210094934715"><ele>105.28571428571429</ele><time>2026-04-12T09:17:24.998Z</time></trkpt><trkpt lat="42.12267156944427" lon="14.401290972809702"><ele>105.0</ele><time>2026-04-12T09:17:25.998Z</time></trkpt><trkpt lat="42.122709842621276" lon="14.401373423585268"><ele>104.71428571428571</ele><time>2026-04-12T09:17:26.998Z</time></trkpt><trkpt lat="42.12274747856067" lon="14.401453003564882"><ele>104.42857142857143</ele><time>2026-04-12T09:17:27.998Z</time></trkpt><trkpt lat="42.12278481933666" lon="14.401532043609107"><ele>104.14285714285714</ele><time>2026-04-12T09:17:28.998Z</time></trkpt><trkpt lat="42.12282070961754" lon="14.401612293263783"><ele>103.85714285714286</ele><time>2026-04-12T09:17:29.998Z</time></trkpt><trkpt lat="42.12285842917951" lon="14.401695195111685"><ele>103.57142857142857</ele><time>2026-04-12T09:17:30.998Z</time></trkpt><trkpt lat="42.122895404051484" lon="14.401777656764532"><ele>103.28571428571428</ele><time>2026-04-12T09:17:31.998Z</time></trkpt><trkpt lat="42.12293412629097" lon="14.401861803913954"><ele>103.0</ele><time>2026-04-12T09:17:32.998Z</time></trkpt><trkpt lat="42.1229708256189" lon="14.40194400607735"><ele>102.99999999999999</ele><time>2026-04-12T09:17:33.998Z</time></trkpt><trkpt lat="42.12300953166724" lon="14.402029408572536"><ele>103.0</ele><time>2026-04-12T09:17:34.998Z</time></trkpt><trkpt lat="42.12304942242419" lon="14.40211254527909"><ele>103.0</ele><time>2026-04-12T09:17:35.998Z</time></trkpt><trkpt lat="42.12308836220263" lon="14.402194815936415"><ele>103.0</ele><time>2026-04-12T09:17:36.998Z</time></trkpt><trkpt lat="42.12312819117611" lon="14.402278881813084"><ele>103.0</ele><time>2026-04-12T09:17:37.998Z</time></trkpt><trkpt lat="42.123168930558364" lon="14.40236386624489"><ele>102.99999999999999</ele><time>2026-04-12T09:17:38.998Z</time></trkpt><trkpt lat="42.123206384294036" lon="14.402448794509384"><ele>103.0</ele><time>2026-04-12T09:17:39.998Z</time></trkpt><trkpt lat="42.123244072336774" lon="14.40253460997314"><ele>102.85714285714285</ele><time>2026-04-12T09:17:40.998Z</time></trkpt><trkpt lat="42.12328421976501" lon="14.40262279122941"><ele>102.71428571428571</ele><time>2026-04-12T09:17:41.998Z</time></trkpt><trkpt lat="42.12332568916633" lon="14.402701860746571"><ele>102.57142857142857</ele><time>2026-04-12T09:17:42.998Z</time></trkpt><trkpt lat="42.12336610295519" lon="14.40278481488811"><ele>102.42857142857142</ele><time>2026-04-12T09:17:43.998Z</time></trkpt><trkpt lat="42.12340840030703" lon="14.402866508826294"><ele>102.28571428571429</ele><time>2026-04-12T09:17:45Z</time></trkpt><trkpt lat="42.12344892888278" lon="14.40294935410645"><ele>102.14285714285714</ele><time>2026-04-12T09:17:46Z</time></trkpt><trkpt lat="42.12348668195148" lon="14.403031288864343"><ele>102.0</ele><time>2026-04-12T09:17:47Z</time></trkpt><trkpt lat="42.12352144385813" lon="14.403120485996185"><ele>101.57142857142857</ele><time>2026-04-12T09:17:48Z</time></trkpt><trkpt lat="42.12355724250533" lon="14.403206189625191"><ele>101.14285714285714</ele><time>2026-04-12T09:17:49Z</time></trkpt><trkpt lat="42.12359506185293" lon="14.403294601468343"><ele>100.71428571428572</ele><time>2026-04-12T09:17:50Z</time></trkpt><trkpt lat="42.12363292235581" lon="14.403374599781069"><ele>100.28571428571428</ele><time>2026-04-12T09:17:51Z</time></trkpt><trkpt lat="42.123671958342584" lon="14.403458148070591"><ele>99.85714285714285</ele><time>2026-04-12T09:17:52Z</time></trkpt><trkpt lat="42.123710046124145" lon="14.403539545151904"><ele>99.42857142857143</ele><time>2026-04-12T09:17:53Z</time></trkpt><trkpt lat="42.12374942099496" lon="14.40362198869405"><ele>99.0</ele><time>2026-04-12T09:17:54Z</time></trkpt><trkpt lat="42.123787624827706" lon="14.403703946196908"><ele>99.0</ele><time>2026-04-12T09:17:55Z</time></trkpt><trkpt lat="42.12382603950483" lon="14.40378818694148"><ele>99.0</ele><time>2026-04-12T09:17:56Z</time></trkpt><trkpt lat="42.12386193452792" lon="14.403872844526205"><ele>99.0</ele><time>2026-04-12T09:17:57Z</time></trkpt><trkpt lat="42.12390085478374" lon="14.403954288388526"><ele>99.0</ele><time>2026-04-12T09:17:58Z</time></trkpt><trkpt lat="42.12393721130074" lon="14.404031956414487"><ele>99.0</ele><time>2026-04-12T09:17:59Z</time></trkpt><trkpt lat="42.123975694815975" lon="14.404118965741123"><ele>99.0</ele><time>2026-04-12T09:18:00Z</time></trkpt><trkpt lat="42.124014185146514" lon="14.40419814413483"><ele>99.0</ele><time>2026-04-12T09:18:01Z</time></trkpt><trkpt lat="42.124050202895226" lon="14.404278745333727"><ele>98.71428571428572</ele><time>2026-04-12T09:18:02Z</time></trkpt><trkpt lat="42.12408495607741" lon="14.404361458999226"><ele>98.42857142857142</ele><time>2026-04-12T09:18:03Z</time></trkpt><trkpt lat="42.124122062746416" lon="14.404440006645753"><ele>98.14285714285714</ele><time>2026-04-12T09:18:04Z</time></trkpt><trkpt lat="42.12415671467289" lon="14.404520080348895"><ele>97.85714285714286</ele><time>2026-04-12T09:18:05Z</time></trkpt><trkpt lat="42.12419263758208" lon="14.404596834218937"><ele>97.57142857142858</ele><time>2026-04-12T09:18:06Z</time></trkpt><trkpt lat="42.12422774325821" lon="14.404672651012472"><ele>97.28571428571428</ele><time>2026-04-12T09:18:07Z</time></trkpt><trkpt lat="42.12426293894006" lon="14.404751549902233"><ele>97.0</ele><time>2026-04-12T09:18:08Z</time></trkpt><trkpt lat="42.12430002985649" lon="14.404829104886785"><ele>96.85714285714285</ele><time>2026-04-12T09:18:09Z</time></trkpt><trkpt lat="42.12433374140597" lon="14.404903050964403"><ele>96.71428571428572</ele><time>2026-04-12T09:18:10Z</time></trkpt><trkpt lat="42.124373927857164" lon="14.404982281261374"><ele>96.57142857142857</ele><time>2026-04-12T09:18:11Z</time></trkpt><trkpt lat="42.12440767878246" lon="14.405060703739178"><ele>96.42857142857142</ele><time>2026-04-12T09:18:12Z</time></trkpt><trkpt lat="42.12444620944791" lon="14.405140605303954"><ele>96.28571428571428</ele><time>2026-04-12T09:18:12.999Z</time></trkpt><trkpt lat="42.1244843797121" lon="14.405219961275204"><ele>96.14285714285714</ele><time>2026-04-12T09:18:13.999Z</time></trkpt><trkpt lat="42.12452530601266" lon="14.405306962657317"><ele>96.0</ele><time>2026-04-12T09:18:14.999Z</time></trkpt><trkpt lat="42.12456328010901" lon="14.405389512919331"><ele>96.0</ele><time>2026-04-12T09:18:15.999Z</time></trkpt><trkpt lat="42.12460307724162" lon="14.405473306189357"><ele>96.0</ele><time>2026-04-12T09:18:16.999Z</time></trkpt><trkpt lat="42.1246407138488" lon="14.40556341294324"><ele>96.0</ele><time>2026-04-12T09:18:17.999Z</time></trkpt><trkpt lat="42.12467765318814" lon="14.405652418785419"><ele>96.0</ele><time>2026-04-12T09:18:18.999Z</time></trkpt><trkpt lat="42.12471904287557" lon="14.405739096983748"><ele>96.0</ele><time>2026-04-12T09:18:19.999Z</time></trkpt><trkpt lat="42.12475932718252" lon="14.40582695838001"><ele>96.0</ele><time>2026-04-12T09:18:20.999Z</time></trkpt><trkpt lat="42.12480011515211" lon="14.405911561230571"><ele>95.85714285714285</ele><time>2026-04-12T09:18:21.999Z</time></trkpt><trkpt lat="42.12484435666252" lon="14.40599330899096"><ele>95.71428571428571</ele><time>2026-04-12T09:18:22.999Z</time></trkpt><trkpt lat="42.12488131791163" lon="14.406081601552463"><ele>95.57142857142857</ele><time>2026-04-12T09:18:23.999Z</time></trkpt><trkpt lat="42.12492040691376" lon="14.406166148751499"><ele>95.42857142857142</ele><time>2026-04-12T09:18:24.999Z</time></trkpt><trkpt lat="42.12495862694064" lon="14.406250500232979"><ele>95.28571428571429</ele><time>2026-04-12T09:18:25.999Z</time></trkpt><trkpt lat="42.124994071820105" lon="14.406328705777728"><ele>95.14285714285714</ele><time>2026-04-12T09:18:26.999Z</time></trkpt><trkpt lat="42.12503610959721" lon="14.406402142688796"><ele>95.0</ele><time>2026-04-12T09:18:27.999Z</time></trkpt><trkpt lat="42.125066517638835" lon="14.406481147695432"><ele>95.0</ele><time>2026-04-12T09:18:28.999Z</time></trkpt><trkpt lat="42.125104964322375" lon="14.406561336716905"><ele>95.0</ele><time>2026-04-12T09:18:29.999Z</time></trkpt><trkpt lat="42.125141325974326" lon="14.4066442963358"><ele>95.0</ele><time>2026-04-12T09:18:30.999Z</time></trkpt><trkpt lat="42.12517825742538" lon="14.40672708252401"><ele>95.0</ele><time>2026-04-12T09:18:31.999Z</time></trkpt><trkpt lat="42.12521833409377" lon="14.406806992226812"><ele>95.0</ele><time>2026-04-12T09:18:32.999Z</time></trkpt><trkpt lat="42.12525675898064" lon="14.406893359079378"><ele>95.0</ele><time>2026-04-12T09:18:33.999Z</time></trkpt><trkpt lat="42.125295270959484" lon="14.406977969127288"><ele>95.0</ele><time>2026-04-12T09:18:34.999Z</time></trkpt><trkpt lat="42.12533941128975" lon="14.407062005605768"><ele>95.0</ele><time>2026-04-12T09:18:35.999Z</time></trkpt><trkpt lat="42.125377017892745" lon="14.407149137473626"><ele>95.0</ele><time>2026-04-12T09:18:36.999Z</time></trkpt><trkpt lat="42.12542051084771" lon="14.407235895244506"><ele>95.0</ele><time>2026-04-12T09:18:37.999Z</time></trkpt><trkpt lat="42.12546039876403" lon="14.407327101243144"><ele>95.0</ele><time>2026-04-12T09:18:38.999Z</time></trkpt><trkpt lat="42.125501985624666" lon="14.407412130157766"><ele>95.0</ele><time>2026-04-12T09:18:39.999Z</time></trkpt><trkpt lat="42.12553946918137" lon="14.407499553063394"><ele>95.0</ele><time>2026-04-12T09:18:40.999Z</time></trkpt><trkpt lat="42.12558210913018" lon="14.407585411701064"><ele>95.14285714285714</ele><time>2026-04-12T09:18:41.999Z</time></trkpt><trkpt lat="42.125621932802545" lon="14.407670287830404"><ele>95.28571428571429</ele><time>2026-04-12T09:18:42.999Z</time></trkpt><trkpt lat="42.1256594846222" lon="14.407754301863003"><ele>95.42857142857142</ele><time>2026-04-12T09:18:43.999Z</time></trkpt><trkpt lat="42.12570135031959" lon="14.407836913637343"><ele>95.57142857142857</ele><time>2026-04-12T09:18:44.999Z</time></trkpt><trkpt lat="42.12573906737861" lon="14.40791677012989"><ele>95.71428571428571</ele><time>2026-04-12T09:18:45.999Z</time></trkpt><trkpt lat="42.125774729577834" lon="14.408001315260117"><ele>95.85714285714285</ele><time>2026-04-12T09:18:46.999Z</time></trkpt><trkpt lat="42.125813130986586" lon="14.408082744900963"><ele>96.0</ele><time>2026-04-12T09:18:47.999Z</time></trkpt><trkpt lat="42.125848509691245" lon="14.408163750405427"><ele>95.42857142857142</ele><time>2026-04-12T09:18:48.999Z</time></trkpt><trkpt lat="42.12588800037658" lon="14.408240737557165"><ele>94.85714285714286</ele><time>2026-04-12T09:18:49.999Z</time></trkpt><trkpt lat="42.12592036686703" lon="14.408320300474388"><ele>94.28571428571428</ele><time>2026-04-12T09:18:50.999Z</time></trkpt><trkpt lat="42.12595434898146" lon="14.408404119250385"><ele>93.71428571428571</ele><time>2026-04-12T09:18:51.999Z</time></trkpt><trkpt lat="42.12599106980828" lon="14.40848076945514"><ele>93.14285714285714</ele><time>2026-04-12T09:18:52.999Z</time></trkpt><trkpt lat="42.12602547671324" lon="14.408558166029476"><ele>92.57142857142857</ele><time>2026-04-12T09:18:53.999Z</time></trkpt><trkpt lat="42.126061374997164" lon="14.408635763267261"><ele>92.0</ele><time>2026-04-12T09:18:54.999Z</time></trkpt><trkpt lat="42.126099554753225" lon="14.408718445254136"><ele>92.0</ele><time>2026-04-12T09:18:55.999Z</time></trkpt><trkpt lat="42.126138459568814" lon="14.408801558682049"><ele>92.0</ele><time>2026-04-12T09:18:56.999Z</time></trkpt><trkpt lat="42.126175625267265" lon="14.408883448390265"><ele>92.0</ele><time>2026-04-12T09:18:57.999Z</time></trkpt><trkpt lat="42.12621420170488" lon="14.408966297695214"><ele>92.0</ele><time>2026-04-12T09:18:58.999Z</time></trkpt><trkpt lat="42.12625142728504" lon="14.409051134399267"><ele>92.0</ele><time>2026-04-12T09:18:59.999Z</time></trkpt><trkpt lat="42.126290288746716" lon="14.409135218909796"><ele>92.0</ele><time>2026-04-12T09:19:00.999Z</time></trkpt><trkpt lat="42.126329723803295" lon="14.409220618437775"><ele>92.0</ele><time>2026-04-12T09:19:01.999Z</time></trkpt><trkpt lat="42.12636832980233" lon="14.409305198091149"><ele>91.85714285714286</ele><time>2026-04-12T09:19:02.999Z</time></trkpt><trkpt lat="42.1264067110742" lon="14.40938940544645"><ele>91.71428571428571</ele><time>2026-04-12T09:19:03.999Z</time></trkpt><trkpt lat="42.12644699280923" lon="14.409474645056703"><ele>91.57142857142857</ele><time>2026-04-12T09:19:04.999Z</time></trkpt><trkpt lat="42.126484648363146" lon="14.409557489751219"><ele>91.42857142857143</ele><time>2026-04-12T09:19:05.999Z</time></trkpt><trkpt lat="42.12652190888939" lon="14.409642326951595"><ele>91.28571428571428</ele><time>2026-04-12T09:19:06.998Z</time></trkpt><trkpt lat="42.126561842938735" lon="14.40972591588788"><ele>91.14285714285714</ele><time>2026-04-12T09:19:07.998Z</time></trkpt><trkpt lat="42.126602413502575" lon="14.409808906888834"><ele>91.0</ele><time>2026-04-12T09:19:08.998Z</time></trkpt><trkpt lat="42.12664447382827" lon="14.409891923942327"><ele>90.66666666666666</ele><time>2026-04-12T09:19:09.998Z</time></trkpt><trkpt lat="42.12669098345043" lon="14.40998376289594"><ele>90.33333333333333</ele><time>2026-04-12T09:19:10.998Z</time></trkpt><trkpt lat="42.126737348181855" lon="14.410075607339513"><ele>90.0</ele><time>2026-04-12T09:19:11.998Z</time></trkpt><trkpt lat="42.12677993947839" lon="14.41017258923018"><ele>89.66666666666667</ele><time>2026-04-12T09:19:12.998Z</time></trkpt><trkpt lat="42.126822223619236" lon="14.410270649584666"><ele>89.33333333333334</ele><time>2026-04-12T09:19:13.998Z</time></trkpt><trkpt lat="42.12686753995859" lon="14.41036789335234"><ele>89.0</ele><time>2026-04-12T09:19:14.998Z</time></trkpt><trkpt lat="42.12690842743721" lon="14.410466314557215"><ele>89.16666666666667</ele><time>2026-04-12T09:19:15.998Z</time></trkpt><trkpt lat="42.126949460006195" lon="14.410562710104664"><ele>89.33333333333334</ele><time>2026-04-12T09:19:16.998Z</time></trkpt><trkpt lat="42.12698957047022" lon="14.410653849857525"><ele>89.5</ele><time>2026-04-12T09:19:17.998Z</time></trkpt><trkpt lat="42.12703304052215" lon="14.41074076254705"><ele>89.66666666666667</ele><time>2026-04-12T09:19:18.998Z</time></trkpt><trkpt lat="42.127073650328214" lon="14.410825181104112"><ele>89.83333333333333</ele><time>2026-04-12T09:19:19.998Z</time></trkpt><trkpt lat="42.12711281338914" lon="14.410911836882422"><ele>90.0</ele><time>2026-04-12T09:19:20.998Z</time></trkpt><trkpt lat="42.12715092524294" lon="14.410995124038802"><ele>90.0</ele><time>2026-04-12T09:19:21.998Z</time></trkpt><trkpt lat="42.12719037431884" lon="14.411077581492734"><ele>90.0</ele><time>2026-04-12T09:19:22.998Z</time></trkpt><trkpt lat="42.12722614459681" lon="14.41116049279037"><ele>90.0</ele><time>2026-04-12T09:19:23.998Z</time></trkpt><trkpt lat="42.127261334677364" lon="14.411237503265014"><ele>90.0</ele><time>2026-04-12T09:19:24.998Z</time></trkpt><trkpt lat="42.127297276331696" lon="14.411317382000846"><ele>90.0</ele><time>2026-04-12T09:19:25.998Z</time></trkpt><trkpt lat="42.12733242217163" lon="14.411395681217977"><ele>90.0</ele><time>2026-04-12T09:19:26.998Z</time></trkpt><trkpt lat="42.127368499440195" lon="14.411475252319153"><ele>90.0</ele><time>2026-04-12T09:19:27.998Z</time></trkpt><trkpt lat="42.1274053653969" lon="14.411554214158967"><ele>89.14285714285714</ele><time>2026-04-12T09:19:28.998Z</time></trkpt><trkpt lat="42.12744133339696" lon="14.41163745888205"><ele>88.28571428571429</ele><time>2026-04-12T09:19:29.998Z</time></trkpt><trkpt lat="42.127479013434886" lon="14.411715591079732"><ele>87.42857142857143</ele><time>2026-04-12T09:19:30.998Z</time></trkpt><trkpt lat="42.127516873059335" lon="14.411798023435209"><ele>86.57142857142857</ele><time>2026-04-12T09:19:31.998Z</time></trkpt><trkpt lat="42.127555194246845" lon="14.411880748045371"><ele>85.71428571428572</ele><time>2026-04-12T09:19:32.998Z</time></trkpt><trkpt lat="42.12759126537703" lon="14.41196534216586"><ele>84.85714285714286</ele><time>2026-04-12T09:19:33.998Z</time></trkpt><trkpt lat="42.12763023504147" lon="14.412049427548247"><ele>84.0</ele><time>2026-04-12T09:19:34.998Z</time></trkpt><trkpt lat="42.127669144660494" lon="14.412133896705095"><ele>84.14285714285714</ele><time>2026-04-12T09:19:35.998Z</time></trkpt><trkpt lat="42.127709300014835" lon="14.412218302724293"><ele>84.28571428571428</ele><time>2026-04-12T09:19:36.998Z</time></trkpt><trkpt lat="42.127746917536015" lon="14.412302874651528"><ele>84.42857142857143</ele><time>2026-04-12T09:19:37.998Z</time></trkpt><trkpt lat="42.12778439134267" lon="14.412387708659963"><ele>84.57142857142857</ele><time>2026-04-12T09:19:38.998Z</time></trkpt><trkpt lat="42.12782089065847" lon="14.412469018339493"><ele>84.71428571428571</ele><time>2026-04-12T09:19:39.998Z</time></trkpt><trkpt lat="42.12785907541071" lon="14.412550865754223"><ele>84.85714285714286</ele><time>2026-04-12T09:19:40.998Z</time></trkpt><trkpt lat="42.12789636335651" lon="14.412632968904619"><ele>85.0</ele><time>2026-04-12T09:19:41.998Z</time></trkpt><trkpt lat="42.127932309472754" lon="14.412715128281308"><ele>85.0</ele><time>2026-04-12T09:19:42.998Z</time></trkpt><trkpt lat="42.12797087825062" lon="14.412797628630708"><ele>85.0</ele><time>2026-04-12T09:19:43.998Z</time></trkpt><trkpt lat="42.12800960527827" lon="14.412878114298538"><ele>85.0</ele><time>2026-04-12T09:19:44.998Z</time></trkpt><trkpt lat="42.12804809574262" lon="14.412963274820205"><ele>85.0</ele><time>2026-04-12T09:19:45.998Z</time></trkpt><trkpt lat="42.12808784782516" lon="14.413047769397586"><ele>85.0</ele><time>2026-04-12T09:19:46.998Z</time></trkpt><trkpt lat="42.128129270047936" lon="14.413129900215756"><ele>85.0</ele><time>2026-04-12T09:19:47.998Z</time></trkpt><trkpt lat="42.12816523375793" lon="14.41321540324347"><ele>85.0</ele><time>2026-04-12T09:19:48.998Z</time></trkpt><trkpt lat="42.128204080556024" lon="14.413298358072604"><ele>84.85714285714286</ele><time>2026-04-12T09:19:49.998Z</time></trkpt><trkpt lat="42.12824322660436" lon="14.41338224884347"><ele>84.71428571428571</ele><time>2026-04-12T09:19:51Z</time></trkpt><trkpt lat="42.12828198430874" lon="14.41346582436953"><ele>84.57142857142857</ele><time>2026-04-12T09:19:52Z</time></trkpt><trkpt lat="42.12832109846013" lon="14.413546972322717"><ele>84.42857142857143</ele><time>2026-04-12T09:19:53Z</time></trkpt><trkpt lat="42.12836110567435" lon="14.413630732307825"><ele>84.28571428571428</ele><time>2026-04-12T09:19:54Z</time></trkpt><trkpt lat="42.12839811723531" lon="14.413710555119188"><ele>84.14285714285714</ele><time>2026-04-12T09:19:55Z</time></trkpt><trkpt lat="42.128436134603156" lon="14.413791425548204"><ele>84.0</ele><time>2026-04-12T09:19:56Z</time></trkpt><trkpt lat="42.12847268203979" lon="14.413872742884191"><ele>83.85714285714286</ele><time>2026-04-12T09:19:57Z</time></trkpt><trkpt lat="42.12850962101857" lon="14.413950198804772"><ele>83.71428571428572</ele><time>2026-04-12T09:19:58Z</time></trkpt><trkpt lat="42.12854605542526" lon="14.414034166084607"><ele>83.57142857142857</ele><time>2026-04-12T09:19:59Z</time></trkpt><trkpt lat="42.12858112063419" lon="14.414117541818433"><ele>83.42857142857143</ele><time>2026-04-12T09:20:00Z</time></trkpt><trkpt lat="42.12861615402954" lon="14.414201665558346"><ele>83.28571428571429</ele><time>2026-04-12T09:20:01Z</time></trkpt><trkpt lat="42.12865187280977" lon="14.41428443055833"><ele>83.14285714285714</ele><time>2026-04-12T09:20:02Z</time></trkpt><trkpt lat="42.12868403726514" lon="14.4143710463352"><ele>83.0</ele><time>2026-04-12T09:20:03Z</time></trkpt><trkpt lat="42.12871427896786" lon="14.414458748791231"><ele>83.0</ele><time>2026-04-12T09:20:04Z</time></trkpt><trkpt lat="42.12874326752619" lon="14.414545890059788"><ele>83.0</ele><time>2026-04-12T09:20:05Z</time></trkpt><trkpt lat="42.12877215821859" lon="14.414631355839704"><ele>83.0</ele><time>2026-04-12T09:20:06Z</time></trkpt><trkpt lat="42.12880600456789" lon="14.41471493186236"><ele>83.0</ele><time>2026-04-12T09:20:07Z</time></trkpt><trkpt lat="42.12883522413512" lon="14.414798185060688"><ele>83.0</ele><time>2026-04-12T09:20:08Z</time></trkpt><trkpt lat="42.128867045338254" lon="14.41488251611507"><ele>83.0</ele><time>2026-04-12T09:20:09Z</time></trkpt><trkpt lat="42.12889722805261" lon="14.414966379484856"><ele>83.0</ele><time>2026-04-12T09:20:10Z</time></trkpt><trkpt lat="42.128926150709525" lon="14.415050642031002"><ele>82.71428571428571</ele><time>2026-04-12T09:20:11Z</time></trkpt><trkpt lat="42.12895582147822" lon="14.415135708953274"><ele>82.42857142857143</ele><time>2026-04-12T09:20:12Z</time></trkpt><trkpt lat="42.12898664457493" lon="14.415221637130625"><ele>82.14285714285714</ele><time>2026-04-12T09:20:13Z</time></trkpt><trkpt lat="42.12901473834008" lon="14.415304270855168"><ele>81.85714285714286</ele><time>2026-04-12T09:20:14Z</time></trkpt><trkpt lat="42.129042948192875" lon="14.415385752863564"><ele>81.57142857142857</ele><time>2026-04-12T09:20:14.999Z</time></trkpt><trkpt lat="42.12907550067062" lon="14.415468834901985"><ele>81.28571428571429</ele><time>2026-04-12T09:20:15.999Z</time></trkpt><trkpt lat="42.12910417963067" lon="14.415548082083978"><ele>81.0</ele><time>2026-04-12T09:20:16.999Z</time></trkpt><trkpt lat="42.12912753907954" lon="14.4156345348832"><ele>80.85714285714286</ele><time>2026-04-12T09:20:17.999Z</time></trkpt><trkpt lat="42.1291421864648" lon="14.415726573022381"><ele>80.71428571428571</ele><time>2026-04-12T09:20:18.999Z</time></trkpt><trkpt lat="42.12914615872701" lon="14.415819740649924"><ele>80.57142857142857</ele><time>2026-04-12T09:20:19.999Z</time></trkpt><trkpt lat="42.129147154378764" lon="14.415912662778426"><ele>80.42857142857143</ele><time>2026-04-12T09:20:20.999Z</time></trkpt><trkpt lat="42.129154107080474" lon="14.416007538156926"><ele>80.28571428571429</ele><time>2026-04-12T09:20:21.999Z</time></trkpt><trkpt lat="42.12916933956432" lon="14.41609614839081"><ele>80.14285714285714</ele><time>2026-04-12T09:20:22.999Z</time></trkpt><trkpt lat="42.12919772238097" lon="14.416179635813277"><ele>80.0</ele><time>2026-04-12T09:20:23.999Z</time></trkpt><trkpt lat="42.129234381093404" lon="14.416255693449987"><ele>80.0</ele><time>2026-04-12T09:20:24.999Z</time></trkpt><trkpt lat="42.12927942025947" lon="14.41632274438118"><ele>80.0</ele><time>2026-04-12T09:20:25.999Z</time></trkpt><trkpt lat="42.12932465147792" lon="14.416388019074336"><ele>80.0</ele><time>2026-04-12T09:20:26.999Z</time></trkpt><trkpt lat="42.129369142273035" lon="14.416452484000947"><ele>80.0</ele><time>2026-04-12T09:20:27.999Z</time></trkpt><trkpt lat="42.12941428694026" lon="14.416517398295099"><ele>80.0</ele><time>2026-04-12T09:20:28.999Z</time></trkpt><trkpt lat="42.12945704952727" lon="14.41658409955398"><ele>80.0</ele><time>2026-04-12T09:20:29.999Z</time></trkpt><trkpt lat="42.12949600819731" lon="14.416656100865833"><ele>80.0</ele><time>2026-04-12T09:20:30.999Z</time></trkpt><trkpt lat="42.12952858530558" lon="14.41673009134303"><ele>80.0</ele><time>2026-04-12T09:20:31.999Z</time></trkpt><trkpt lat="42.12955803649155" lon="14.416809632594498"><ele>80.0</ele><time>2026-04-12T09:20:32.999Z</time></trkpt><trkpt lat="42.129587682298975" lon="14.416886763825937"><ele>80.0</ele><time>2026-04-12T09:20:33.999Z</time></trkpt><trkpt lat="42.12962009051788" lon="14.416966211398659"><ele>80.0</ele><time>2026-04-12T09:20:34.999Z</time></trkpt><trkpt lat="42.12964993482213" lon="14.417046450176787"><ele>80.0</ele><time>2026-04-12T09:20:35.999Z</time></trkpt><trkpt lat="42.12967687364234" lon="14.417130442855632"><ele>80.0</ele><time>2026-04-12T09:20:36.999Z</time></trkpt><trkpt lat="42.12970475566896" lon="14.417208094264383"><ele>80.0</ele><time>2026-04-12T09:20:37.999Z</time></trkpt><trkpt lat="42.129737142089894" lon="14.41728635741898"><ele>80.0</ele><time>2026-04-12T09:20:38.999Z</time></trkpt><trkpt lat="42.12976665719764" lon="14.417365424494232"><ele>80.0</ele><time>2026-04-12T09:20:39.999Z</time></trkpt><trkpt lat="42.129793853649204" lon="14.417444564136128"><ele>80.0</ele><time>2026-04-12T09:20:40.999Z</time></trkpt><trkpt lat="42.129822478106654" lon="14.41752212481684"><ele>80.0</ele><time>2026-04-12T09:20:41.999Z</time></trkpt><trkpt lat="42.129851148816876" lon="14.417600380282064"><ele>80.0</ele><time>2026-04-12T09:20:42.999Z</time></trkpt><trkpt lat="42.12988006246482" lon="14.41767964557098"><ele>80.0</ele><time>2026-04-12T09:20:43.999Z</time></trkpt><trkpt lat="42.129909513126506" lon="14.417756853884095"><ele>80.0</ele><time>2026-04-12T09:20:44.999Z</time></trkpt><trkpt lat="42.129937972159084" lon="14.41783352291233"><ele>80.0</ele><time>2026-04-12T09:20:45.999Z</time></trkpt><trkpt lat="42.129963928603715" lon="14.417913904552565"><ele>80.0</ele><time>2026-04-12T09:20:46.999Z</time></trkpt><trkpt lat="42.129991731683866" lon="14.417993191195361"><ele>80.0</ele><time>2026-04-12T09:20:47.999Z</time></trkpt><trkpt lat="42.13002182584663" lon="14.418071006405178"><ele>80.0</ele><time>2026-04-12T09:20:48.999Z</time></trkpt><trkpt lat="42.13004973842231" lon="14.418148006134373"><ele>80.0</ele><time>2026-04-12T09:20:49.999Z</time></trkpt><trkpt lat="42.13007879399453" lon="14.41822645415373"><ele>80.0</ele><time>2026-04-12T09:20:50.999Z</time></trkpt><trkpt lat="42.130108176115726" lon="14.41830383167651"><ele>80.0</ele><time>2026-04-12T09:20:51.999Z</time></trkpt><trkpt lat="42.130137791300506" lon="14.4183815209599"><ele>80.0</ele><time>2026-04-12T09:20:52.999Z</time></trkpt><trkpt lat="42.130167474884495" lon="14.418461831397837"><ele>80.0</ele><time>2026-04-12T09:20:53.999Z</time></trkpt><trkpt lat="42.13019480997919" lon="14.418540065289752"><ele>80.0</ele><time>2026-04-12T09:20:54.999Z</time></trkpt><trkpt lat="42.13022379603438" lon="14.418621378580093"><ele>80.0</ele><time>2026-04-12T09:20:55.999Z</time></trkpt><trkpt lat="42.13025112873986" lon="14.418700786166351"><ele>80.0</ele><time>2026-04-12T09:20:56.999Z</time></trkpt><trkpt lat="42.130282921584275" lon="14.418779817522442"><ele>80.0</ele><time>2026-04-12T09:20:57.999Z</time></trkpt><trkpt lat="42.13031033070918" lon="14.41885897774424"><ele>80.0</ele><time>2026-04-12T09:20:58.999Z</time></trkpt><trkpt lat="42.130338944915756" lon="14.418937252080116"><ele>80.14285714285714</ele><time>2026-04-12T09:20:59.999Z</time></trkpt><trkpt lat="42.13036652288295" lon="14.419016942758079"><ele>80.28571428571429</ele><time>2026-04-12T09:21:00.999Z</time></trkpt><trkpt lat="42.13039540811677" lon="14.419095350284143"><ele>80.42857142857143</ele><time>2026-04-12T09:21:01.999Z</time></trkpt><trkpt lat="42.130423522823186" lon="14.419172498286073"><ele>80.57142857142857</ele><time>2026-04-12T09:21:02.999Z</time></trkpt><trkpt lat="42.13045381557635" lon="14.419249120057856"><ele>80.71428571428571</ele><time>2026-04-12T09:21:03.999Z</time></trkpt><trkpt lat="42.13048145587007" lon="14.41932739313398"><ele>80.85714285714286</ele><time>2026-04-12T09:21:04.999Z</time></trkpt><trkpt lat="42.1305102437143" lon="14.419408443830882"><ele>81.0</ele><time>2026-04-12T09:21:05.999Z</time></trkpt><trkpt lat="42.13053967309268" lon="14.4194856988607"><ele>81.0</ele><time>2026-04-12T09:21:06.999Z</time></trkpt><trkpt lat="42.1305667806803" lon="14.41956746577306"><ele>81.0</ele><time>2026-04-12T09:21:07.999Z</time></trkpt><trkpt lat="42.13059574795423" lon="14.419645982789351"><ele>81.0</ele><time>2026-04-12T09:21:08.999Z</time></trkpt><trkpt lat="42.13065112511675" lon="14.419796641694576"><ele>81.0</ele><time>2026-04-12T09:21:10.998Z</time></trkpt><trkpt lat="42.13070980103669" lon="14.419945723741774"><ele>81.0</ele><time>2026-04-12T09:21:12.998Z</time></trkpt><trkpt lat="42.130767896520645" lon="14.42009814043088"><ele>80.83333333333333</ele><time>2026-04-12T09:21:14.998Z</time></trkpt><trkpt lat="42.1308316586438" lon="14.420249359240708"><ele>80.66666666666667</ele><time>2026-04-12T09:21:16.998Z</time></trkpt><trkpt lat="42.13086839643128" lon="14.420323469091514"><ele>80.5</ele><time>2026-04-12T09:21:17.998Z</time></trkpt><trkpt lat="42.1309099255981" lon="14.42039287778718"><ele>80.33333333333334</ele><time>2026-04-12T09:21:18.998Z</time></trkpt><trkpt lat="42.13095084642565" lon="14.42046343822592"><ele>80.16666666666667</ele><time>2026-04-12T09:21:19.998Z</time></trkpt><trkpt lat="42.13099308820367" lon="14.420535345371405"><ele>80.0</ele><time>2026-04-12T09:21:20.998Z</time></trkpt><trkpt lat="42.131033526145245" lon="14.420606597081314"><ele>80.42857142857143</ele><time>2026-04-12T09:21:21.998Z</time></trkpt><trkpt lat="42.13107533482785" lon="14.420676102447532"><ele>80.85714285714286</ele><time>2026-04-12T09:21:22.998Z</time></trkpt><trkpt lat="42.13112242424352" lon="14.420742765601194"><ele>81.28571428571428</ele><time>2026-04-12T09:21:23.998Z</time></trkpt><trkpt lat="42.1311693185685" lon="14.420810729810318"><ele>81.71428571428572</ele><time>2026-04-12T09:21:24.998Z</time></trkpt><trkpt lat="42.131212599717" lon="14.420882441196895"><ele>82.14285714285715</ele><time>2026-04-12T09:21:25.998Z</time></trkpt><trkpt lat="42.13125967573534" lon="14.420952786954507"><ele>82.57142857142857</ele><time>2026-04-12T09:21:26.998Z</time></trkpt><trkpt lat="42.131307334110055" lon="14.421022923091035"><ele>83.0</ele><time>2026-04-12T09:21:27.998Z</time></trkpt><trkpt lat="42.13135545555902" lon="14.421093836442834"><ele>83.0</ele><time>2026-04-12T09:21:28.998Z</time></trkpt><trkpt lat="42.131402873938136" lon="14.421161622228528"><ele>83.0</ele><time>2026-04-12T09:21:29.998Z</time></trkpt><trkpt lat="42.13144905216751" lon="14.421232021337284"><ele>83.0</ele><time>2026-04-12T09:21:30.998Z</time></trkpt><trkpt lat="42.13149670005652" lon="14.42130171138292"><ele>83.0</ele><time>2026-04-12T09:21:31.998Z</time></trkpt><trkpt lat="42.131544491344876" lon="14.421370878094995"><ele>83.0</ele><time>2026-04-12T09:21:32.998Z</time></trkpt><trkpt lat="42.13159246260601" lon="14.4214426381218"><ele>83.0</ele><time>2026-04-12T09:21:33.998Z</time></trkpt><trkpt lat="42.131638662825104" lon="14.421511987541196"><ele>83.0</ele><time>2026-04-12T09:21:34.998Z</time></trkpt><trkpt lat="42.13168510615226" lon="14.42158079700428"><ele>82.28571428571428</ele><time>2026-04-12T09:21:35.998Z</time></trkpt><trkpt lat="42.13173294890167" lon="14.421652887904353"><ele>81.57142857142858</ele><time>2026-04-12T09:21:36.998Z</time></trkpt><trkpt lat="42.13177919898141" lon="14.421722122653657"><ele>80.85714285714286</ele><time>2026-04-12T09:21:37.998Z</time></trkpt><trkpt lat="42.13182674581971" lon="14.421789781159067"><ele>80.14285714285714</ele><time>2026-04-12T09:21:38.998Z</time></trkpt><trkpt lat="42.131874401424774" lon="14.421858179680726"><ele>79.42857142857142</ele><time>2026-04-12T09:21:39.998Z</time></trkpt><trkpt lat="42.1319187563644" lon="14.42192838515703"><ele>78.71428571428572</ele><time>2026-04-12T09:21:40.998Z</time></trkpt><trkpt lat="42.13196381980095" lon="14.421996778024816"><ele>78.0</ele><time>2026-04-12T09:21:41.998Z</time></trkpt><trkpt lat="42.132010147497304" lon="14.422064812033382"><ele>78.0</ele><time>2026-04-12T09:21:42.998Z</time></trkpt><trkpt lat="42.13205533721197" lon="14.42212907911775"><ele>78.0</ele><time>2026-04-12T09:21:43.998Z</time></trkpt><trkpt lat="42.13209686815791" lon="14.42219642221525"><ele>78.0</ele><time>2026-04-12T09:21:44.998Z</time></trkpt><trkpt lat="42.132143809822495" lon="14.422261100747031"><ele>78.0</ele><time>2026-04-12T09:21:45.998Z</time></trkpt><trkpt lat="42.132188766024136" lon="14.422331010298743"><ele>78.0</ele><time>2026-04-12T09:21:46.998Z</time></trkpt><trkpt lat="42.13223638600738" lon="14.422398328450031"><ele>78.0</ele><time>2026-04-12T09:21:47.998Z</time></trkpt><trkpt lat="42.13228194442652" lon="14.422469044754855"><ele>78.0</ele><time>2026-04-12T09:21:48.998Z</time></trkpt><trkpt lat="42.13233054794562" lon="14.42253872193797"><ele>78.28571428571429</ele><time>2026-04-12T09:21:49.998Z</time></trkpt><trkpt lat="42.13237826398325" lon="14.422608442182833"><ele>78.57142857142857</ele><time>2026-04-12T09:21:50.998Z</time></trkpt><trkpt lat="42.13242673513033" lon="14.422677543495793"><ele>78.85714285714286</ele><time>2026-04-12T09:21:51.998Z</time></trkpt><trkpt lat="42.13247340480771" lon="14.4227483772012"><ele>79.14285714285714</ele><time>2026-04-12T09:21:52.998Z</time></trkpt><trkpt lat="42.132521222983904" lon="14.42281846046918"><ele>79.42857142857143</ele><time>2026-04-12T09:21:53.998Z</time></trkpt><trkpt lat="42.13256713134392" lon="14.422887846930422"><ele>79.71428571428571</ele><time>2026-04-12T09:21:54.998Z</time></trkpt><trkpt lat="42.13261507213799" lon="14.422962470186441"><ele>80.0</ele><time>2026-04-12T09:21:55.998Z</time></trkpt><trkpt lat="42.13266438170088" lon="14.423033308025794"><ele>79.42857142857143</ele><time>2026-04-12T09:21:57Z</time></trkpt><trkpt lat="42.13271404531739" lon="14.423104512099632"><ele>78.85714285714286</ele><time>2026-04-12T09:21:58Z</time></trkpt><trkpt lat="42.13275909781448" lon="14.423175240063914"><ele>78.28571428571428</ele><time>2026-04-12T09:21:59Z</time></trkpt><trkpt lat="42.13280767228371" lon="14.423247670106647"><ele>77.71428571428572</ele><time>2026-04-12T09:22:00Z</time></trkpt><trkpt lat="42.13285483689794" lon="14.423320095265591"><ele>77.14285714285715</ele><time>2026-04-12T09:22:01Z</time></trkpt><trkpt lat="42.132902288899125" lon="14.423391504420733"><ele>76.57142857142857</ele><time>2026-04-12T09:22:02Z</time></trkpt><trkpt lat="42.13295135301742" lon="14.423462342352224"><ele>76.0</ele><time>2026-04-12T09:22:03Z</time></trkpt><trkpt lat="42.132997855101294" lon="14.42353540051058"><ele>76.0</ele><time>2026-04-12T09:22:04Z</time></trkpt><trkpt lat="42.133048143122636" lon="14.423607531325747"><ele>76.0</ele><time>2026-04-12T09:22:05Z</time></trkpt><trkpt lat="42.13309771379283" lon="14.4236774175942"><ele>76.0</ele><time>2026-04-12T09:22:06Z</time></trkpt><trkpt lat="42.13314542842078" lon="14.423749765011001"><ele>76.0</ele><time>2026-04-12T09:22:07Z</time></trkpt><trkpt lat="42.13319456190489" lon="14.42381955862832"><ele>76.0</ele><time>2026-04-12T09:22:08Z</time></trkpt><trkpt lat="42.13324484357681" lon="14.423888967689638"><ele>76.0</ele><time>2026-04-12T09:22:09Z</time></trkpt><trkpt lat="42.133290046382186" lon="14.423961262188701"><ele>76.0</ele><time>2026-04-12T09:22:10Z</time></trkpt><trkpt lat="42.13333598312794" lon="14.424029935457586"><ele>75.57142857142857</ele><time>2026-04-12T09:22:11Z</time></trkpt><trkpt lat="42.13338328203796" lon="14.424103215153723"><ele>75.14285714285715</ele><time>2026-04-12T09:22:12Z</time></trkpt><trkpt lat="42.13342939630578" lon="14.424175142529727"><ele>74.71428571428572</ele><time>2026-04-12T09:22:13Z</time></trkpt><trkpt lat="42.133477732417845" lon="14.42424387802513"><ele>74.28571428571428</ele><time>2026-04-12T09:22:14Z</time></trkpt><trkpt lat="42.13352374112283" lon="14.424313168117072"><ele>73.85714285714286</ele><time>2026-04-12T09:22:15Z</time></trkpt><trkpt lat="42.13357259651864" lon="14.424381502765518"><ele>73.42857142857143</ele><time>2026-04-12T09:22:15.999Z</time></trkpt><trkpt lat="42.13361972257083" lon="14.424448233576108"><ele>73.0</ele><time>2026-04-12T09:22:16.999Z</time></trkpt><trkpt lat="42.13366473604032" lon="14.424518116627437"><ele>73.0</ele><time>2026-04-12T09:22:17.999Z</time></trkpt><trkpt lat="42.13370921724229" lon="14.424586269938953"><ele>73.0</ele><time>2026-04-12T09:22:18.999Z</time></trkpt><trkpt lat="42.133754396758356" lon="14.424653450012253"><ele>73.0</ele><time>2026-04-12T09:22:19.999Z</time></trkpt><trkpt lat="42.13379792165891" lon="14.424722040576942"><ele>73.0</ele><time>2026-04-12T09:22:20.999Z</time></trkpt><trkpt lat="42.133845106231014" lon="14.424786512792581"><ele>73.0</ele><time>2026-04-12T09:22:21.999Z</time></trkpt><trkpt lat="42.13389038680214" lon="14.424854247625088"><ele>73.0</ele><time>2026-04-12T09:22:22.999Z</time></trkpt><trkpt lat="42.13393325453562" lon="14.424921861338076"><ele>73.0</ele><time>2026-04-12T09:22:23.999Z</time></trkpt><trkpt lat="42.133978928504625" lon="14.424987688752987"><ele>73.0</ele><time>2026-04-12T09:22:24.999Z</time></trkpt><trkpt lat="42.13402312140335" lon="14.425056759837938"><ele>73.0</ele><time>2026-04-12T09:22:25.999Z</time></trkpt><trkpt lat="42.13406711660129" lon="14.4251277028144"><ele>73.0</ele><time>2026-04-12T09:22:26.999Z</time></trkpt><trkpt lat="42.13411445073065" lon="14.425197493003795"><ele>73.0</ele><time>2026-04-12T09:22:27.999Z</time></trkpt><trkpt lat="42.13415971006013" lon="14.42526715771113"><ele>73.0</ele><time>2026-04-12T09:22:28.999Z</time></trkpt><trkpt lat="42.134206984958745" lon="14.42533748915015"><ele>73.0</ele><time>2026-04-12T09:22:29.999Z</time></trkpt><trkpt lat="42.134254674118125" lon="14.42540657638237"><ele>73.0</ele><time>2026-04-12T09:22:30.999Z</time></trkpt><trkpt lat="42.13430219903172" lon="14.425477553257045"><ele>72.71428571428571</ele><time>2026-04-12T09:22:31.999Z</time></trkpt><trkpt lat="42.13435050644356" lon="14.425547035509926"><ele>72.42857142857143</ele><time>2026-04-12T09:22:32.999Z</time></trkpt><trkpt lat="42.13439754875161" lon="14.42561621384364"><ele>72.14285714285714</ele><time>2026-04-12T09:22:33.999Z</time></trkpt><trkpt lat="42.13444590403207" lon="14.425687090698503"><ele>71.85714285714286</ele><time>2026-04-12T09:22:34.999Z</time></trkpt><trkpt lat="42.134493260599704" lon="14.42575678119765"><ele>71.57142857142857</ele><time>2026-04-12T09:22:35.999Z</time></trkpt><trkpt lat="42.13453937346679" lon="14.425827600447619"><ele>71.28571428571428</ele><time>2026-04-12T09:22:36.999Z</time></trkpt><trkpt lat="42.134585873778555" lon="14.425898307901313"><ele>71.0</ele><time>2026-04-12T09:22:37.999Z</time></trkpt><trkpt lat="42.13463229965661" lon="14.425969611089878"><ele>71.0</ele><time>2026-04-12T09:22:38.999Z</time></trkpt><trkpt lat="42.134678687404694" lon="14.426040942446388"><ele>71.0</ele><time>2026-04-12T09:22:39.999Z</time></trkpt><trkpt lat="42.13472663319632" lon="14.426112869229813"><ele>71.0</ele><time>2026-04-12T09:22:40.999Z</time></trkpt><trkpt lat="42.13477470124185" lon="14.426186197254939"><ele>71.0</ele><time>2026-04-12T09:22:41.999Z</time></trkpt><trkpt lat="42.13482255940496" lon="14.426256325351703"><ele>71.0</ele><time>2026-04-12T09:22:42.999Z</time></trkpt><trkpt lat="42.13487172091981" lon="14.426325831820295"><ele>71.0</ele><time>2026-04-12T09:22:43.999Z</time></trkpt><trkpt lat="42.13492006740344" lon="14.426396858339645"><ele>71.0</ele><time>2026-04-12T09:22:44.999Z</time></trkpt><trkpt lat="42.13496673375474" lon="14.426469060975556"><ele>70.71428571428571</ele><time>2026-04-12T09:22:45.999Z</time></trkpt><trkpt lat="42.135013776059225" lon="14.426539309655414"><ele>70.42857142857142</ele><time>2026-04-12T09:22:46.999Z</time></trkpt><trkpt lat="42.13506244273082" lon="14.426607920013181"><ele>70.14285714285714</ele><time>2026-04-12T09:22:47.999Z</time></trkpt><trkpt lat="42.13510869008744" lon="14.426680362454073"><ele>69.85714285714286</ele><time>2026-04-12T09:22:48.999Z</time></trkpt><trkpt lat="42.13515420271027" lon="14.426749996707256"><ele>69.57142857142858</ele><time>2026-04-12T09:22:49.999Z</time></trkpt><trkpt lat="42.135200851351875" lon="14.426817193549638"><ele>69.28571428571429</ele><time>2026-04-12T09:22:50.999Z</time></trkpt><trkpt lat="42.13524640366093" lon="14.426889166701724"><ele>69.0</ele><time>2026-04-12T09:22:51.999Z</time></trkpt><trkpt lat="42.13529266467492" lon="14.426955761948301"><ele>69.0</ele><time>2026-04-12T09:22:52.999Z</time></trkpt><trkpt lat="42.13533938463591" lon="14.427021800530243"><ele>69.0</ele><time>2026-04-12T09:22:53.999Z</time></trkpt><trkpt lat="42.135382160729186" lon="14.42709107237894"><ele>69.0</ele><time>2026-04-12T09:22:54.999Z</time></trkpt><trkpt lat="42.13543207169346" lon="14.427157848905926"><ele>69.0</ele><time>2026-04-12T09:22:55.999Z</time></trkpt><trkpt lat="42.1354745441051" lon="14.42722523153735"><ele>69.0</ele><time>2026-04-12T09:22:56.999Z</time></trkpt><trkpt lat="42.135518235613674" lon="14.42729303116114"><ele>69.0</ele><time>2026-04-12T09:22:57.999Z</time></trkpt><trkpt lat="42.13556175096756" lon="14.427357260955517"><ele>69.0</ele><time>2026-04-12T09:22:58.999Z</time></trkpt><trkpt lat="42.135605077163746" lon="14.427420268560905"><ele>69.0</ele><time>2026-04-12T09:22:59.999Z</time></trkpt><trkpt lat="42.135648662629926" lon="14.427486092529525"><ele>69.0</ele><time>2026-04-12T09:23:00.999Z</time></trkpt><trkpt lat="42.13569234691809" lon="14.427550916890349"><ele>69.0</ele><time>2026-04-12T09:23:01.999Z</time></trkpt><trkpt lat="42.135735767596834" lon="14.427612910000802"><ele>69.0</ele><time>2026-04-12T09:23:02.999Z</time></trkpt><trkpt lat="42.135811439334724" lon="14.427740359032418"><ele>69.0</ele><time>2026-04-12T09:23:04.999Z</time></trkpt><trkpt lat="42.13585571576416" lon="14.427893421009363"><ele>69.0</ele><time>2026-04-12T09:23:06.999Z</time></trkpt><trkpt lat="42.13588459014776" lon="14.428055208443539"><ele>69.0</ele><time>2026-04-12T09:23:08.999Z</time></trkpt><trkpt lat="42.135915817482456" lon="14.428129005840194"><ele>69.0</ele><time>2026-04-12T09:23:09.999Z</time></trkpt><trkpt lat="42.135990764153" lon="14.428263231745165"><ele>69.0</ele><time>2026-04-12T09:23:11.998Z</time></trkpt><trkpt lat="42.13603399092463" lon="14.428326360002343"><ele>69.0</ele><time>2026-04-12T09:23:12.998Z</time></trkpt><trkpt lat="42.13613050213554" lon="14.42843782697987"><ele>69.0</ele><time>2026-04-12T09:23:14.998Z</time></trkpt><trkpt lat="42.13618812487522" lon="14.428477868290265"><ele>69.0</ele><time>2026-04-12T09:23:15.998Z</time></trkpt><trkpt lat="42.13624855599792" lon="14.428505148527595"><ele>69.0</ele><time>2026-04-12T09:23:16.998Z</time></trkpt><trkpt lat="42.13630843609175" lon="14.42853426446125"><ele>69.0</ele><time>2026-04-12T09:23:17.998Z</time></trkpt><trkpt lat="42.136363285503094" lon="14.428579055641476"><ele>69.0</ele><time>2026-04-12T09:23:18.998Z</time></trkpt><trkpt lat="42.13641155286234" lon="14.428636824590006"><ele>69.0</ele><time>2026-04-12T09:23:19.998Z</time></trkpt><trkpt lat="42.13645784876069" lon="14.428695403828232"><ele>69.0</ele><time>2026-04-12T09:23:20.998Z</time></trkpt><trkpt lat="42.1365030614208" lon="14.428755358452864"><ele>69.0</ele><time>2026-04-12T09:23:21.998Z</time></trkpt><trkpt lat="42.136585887778224" lon="14.428879797093611"><ele>69.0</ele><time>2026-04-12T09:23:23.998Z</time></trkpt><trkpt lat="42.136668432149385" lon="14.429006781493394"><ele>68.75</ele><time>2026-04-12T09:23:25.998Z</time></trkpt><trkpt lat="42.13670964454478" lon="14.429071136024357"><ele>68.5</ele><time>2026-04-12T09:23:26.998Z</time></trkpt><trkpt lat="42.13675169020414" lon="14.429135457487915"><ele>68.25</ele><time>2026-04-12T09:23:27.998Z</time></trkpt><trkpt lat="42.13679554928145" lon="14.429198346950374"><ele>68.0</ele><time>2026-04-12T09:23:28.998Z</time></trkpt><trkpt lat="42.13683926473507" lon="14.429262102624774"><ele>67.75</ele><time>2026-04-12T09:23:29.998Z</time></trkpt><trkpt lat="42.13688320250672" lon="14.429325279018716"><ele>67.5</ele><time>2026-04-12T09:23:30.998Z</time></trkpt><trkpt lat="42.13692605471713" lon="14.429390617439982"><ele>67.25</ele><time>2026-04-12T09:23:31.998Z</time></trkpt><trkpt lat="42.13696949696516" lon="14.429453922645193"><ele>67.0</ele><time>2026-04-12T09:23:32.998Z</time></trkpt><trkpt lat="42.13701166954624" lon="14.429518974311458"><ele>67.0</ele><time>2026-04-12T09:23:33.998Z</time></trkpt><trkpt lat="42.13705558903912" lon="14.429582011796157"><ele>67.0</ele><time>2026-04-12T09:23:34.998Z</time></trkpt><trkpt lat="42.13709950290224" lon="14.429647355141855"><ele>67.0</ele><time>2026-04-12T09:23:35.998Z</time></trkpt><trkpt lat="42.13714267539048" lon="14.42971174387461"><ele>67.0</ele><time>2026-04-12T09:23:36.998Z</time></trkpt><trkpt lat="42.137185699293745" lon="14.429776353834558"><ele>67.0</ele><time>2026-04-12T09:23:37.998Z</time></trkpt><trkpt lat="42.1372279189824" lon="14.429843317563229"><ele>67.0</ele><time>2026-04-12T09:23:38.998Z</time></trkpt><trkpt lat="42.13727228966619" lon="14.429905339446602"><ele>67.0</ele><time>2026-04-12T09:23:39.998Z</time></trkpt><trkpt lat="42.13731722182649" lon="14.42997193773826"><ele>66.85714285714286</ele><time>2026-04-12T09:23:40.998Z</time></trkpt><trkpt lat="42.13735953182467" lon="14.430037074041804"><ele>66.71428571428571</ele><time>2026-04-12T09:23:41.998Z</time></trkpt><trkpt lat="42.13740197812435" lon="14.430101943938165"><ele>66.57142857142857</ele><time>2026-04-12T09:23:42.998Z</time></trkpt><trkpt lat="42.137446369661866" lon="14.43016739125499"><ele>66.42857142857143</ele><time>2026-04-12T09:23:43.998Z</time></trkpt><trkpt lat="42.13749142041073" lon="14.430231519754615"><ele>66.28571428571429</ele><time>2026-04-12T09:23:44.998Z</time></trkpt><trkpt lat="42.137533801728544" lon="14.430298565529396"><ele>66.14285714285714</ele><time>2026-04-12T09:23:45.998Z</time></trkpt><trkpt lat="42.137575174013634" lon="14.43036492857551"><ele>66.0</ele><time>2026-04-12T09:23:46.998Z</time></trkpt><trkpt lat="42.13761845313557" lon="14.430430333331765"><ele>65.57142857142857</ele><time>2026-04-12T09:23:47.998Z</time></trkpt><trkpt lat="42.137660941982766" lon="14.430496346666795"><ele>65.14285714285714</ele><time>2026-04-12T09:23:48.998Z</time></trkpt><trkpt lat="42.137706706501575" lon="14.430560738954053"><ele>64.71428571428572</ele><time>2026-04-12T09:23:49.998Z</time></trkpt><trkpt lat="42.137751280664865" lon="14.430625682483518"><ele>64.28571428571428</ele><time>2026-04-12T09:23:50.998Z</time></trkpt><trkpt lat="42.1377943770821" lon="14.430689743935469"><ele>63.85714285714286</ele><time>2026-04-12T09:23:51.998Z</time></trkpt><trkpt lat="42.137836220463235" lon="14.430756526010832"><ele>63.42857142857143</ele><time>2026-04-12T09:23:52.998Z</time></trkpt><trkpt lat="42.13787881900789" lon="14.43082158276774"><ele>63.0</ele><time>2026-04-12T09:23:53.998Z</time></trkpt><trkpt lat="42.13792353684184" lon="14.430886895289978"><ele>63.0</ele><time>2026-04-12T09:23:54.998Z</time></trkpt><trkpt lat="42.13796415315381" lon="14.430956428775012"><ele>63.0</ele><time>2026-04-12T09:23:55.998Z</time></trkpt><trkpt lat="42.13804939758691" lon="14.431084590448343"><ele>63.0</ele><time>2026-04-12T09:23:57.998Z</time></trkpt><trkpt lat="42.13809306771923" lon="14.431149051147623"><ele>63.0</ele><time>2026-04-12T09:23:58.998Z</time></trkpt><trkpt lat="42.13813525897232" lon="14.431216027560122"><ele>63.0</ele><time>2026-04-12T09:23:59.998Z</time></trkpt><trkpt lat="42.13817909652198" lon="14.431277504498329"><ele>63.0</ele><time>2026-04-12T09:24:00.998Z</time></trkpt><trkpt lat="42.138224360642674" lon="14.431343177640741"><ele>63.42857142857143</ele><time>2026-04-12T09:24:01.999Z</time></trkpt><trkpt lat="42.13826691061624" lon="14.431408452654548"><ele>63.85714285714286</ele><time>2026-04-12T09:24:02.999Z</time></trkpt><trkpt lat="42.13830968677141" lon="14.431475812997261"><ele>64.28571428571428</ele><time>2026-04-12T09:24:03.999Z</time></trkpt><trkpt lat="42.1383541692326" lon="14.431540037870857"><ele>64.71428571428572</ele><time>2026-04-12T09:24:04.999Z</time></trkpt><trkpt lat="42.13840082175094" lon="14.431606026734789"><ele>65.14285714285714</ele><time>2026-04-12T09:24:05.999Z</time></trkpt><trkpt lat="42.13844753705893" lon="14.431670905549323"><ele>65.57142857142857</ele><time>2026-04-12T09:24:06.999Z</time></trkpt><trkpt lat="42.13849187134217" lon="14.431737646940567"><ele>66.0</ele><time>2026-04-12T09:24:07.999Z</time></trkpt><trkpt lat="42.138537155748956" lon="14.431804786683886"><ele>66.0</ele><time>2026-04-12T09:24:08.999Z</time></trkpt><trkpt lat="42.13858330306777" lon="14.431874667255267"><ele>66.0</ele><time>2026-04-12T09:24:09.999Z</time></trkpt><trkpt lat="42.138629066010154" lon="14.431939328946457"><ele>66.0</ele><time>2026-04-12T09:24:10.999Z</time></trkpt><trkpt lat="42.138675171214274" lon="14.43200691425216"><ele>66.0</ele><time>2026-04-12T09:24:11.999Z</time></trkpt><trkpt lat="42.13872035014831" lon="14.432072607755098"><ele>66.0</ele><time>2026-04-12T09:24:12.999Z</time></trkpt><trkpt lat="42.13876768913336" lon="14.43214257362022"><ele>66.0</ele><time>2026-04-12T09:24:13.999Z</time></trkpt><trkpt lat="42.138810232878555" lon="14.432209585456052"><ele>66.0</ele><time>2026-04-12T09:24:15Z</time></trkpt><trkpt lat="42.13885923320168" lon="14.432275658909855"><ele>65.85714285714286</ele><time>2026-04-12T09:24:15.999Z</time></trkpt><trkpt lat="42.138903743713634" lon="14.432343575694315"><ele>65.71428571428572</ele><time>2026-04-12T09:24:16.999Z</time></trkpt><trkpt lat="42.138948390171706" lon="14.432412297793084"><ele>65.57142857142858</ele><time>2026-04-12T09:24:17.999Z</time></trkpt><trkpt lat="42.13899468309607" lon="14.432478699693243"><ele>65.42857142857143</ele><time>2026-04-12T09:24:18.999Z</time></trkpt><trkpt lat="42.139043069552166" lon="14.43254691494869"><ele>65.28571428571429</ele><time>2026-04-12T09:24:19.999Z</time></trkpt><trkpt lat="42.139090288862995" lon="14.43261317640702"><ele>65.14285714285715</ele><time>2026-04-12T09:24:20.999Z</time></trkpt><trkpt lat="42.139138039911195" lon="14.432681962903267"><ele>65.0</ele><time>2026-04-12T09:24:21.999Z</time></trkpt><trkpt lat="42.139184273236346" lon="14.432751896011474"><ele>65.00000000000001</ele><time>2026-04-12T09:24:22.999Z</time></trkpt><trkpt lat="42.13923093126265" lon="14.43282191956081"><ele>65.0</ele><time>2026-04-12T09:24:23.999Z</time></trkpt><trkpt lat="42.1392793596805" lon="14.432890751697105"><ele>65.0</ele><time>2026-04-12T09:24:24.999Z</time></trkpt><trkpt lat="42.139325323196964" lon="14.432956444671447"><ele>65.0</ele><time>2026-04-12T09:24:25.999Z</time></trkpt><trkpt lat="42.13937327640367" lon="14.433026349353451"><ele>65.0</ele><time>2026-04-12T09:24:26.999Z</time></trkpt><trkpt lat="42.139419555364" lon="14.433096430470894"><ele>65.00000000000001</ele><time>2026-04-12T09:24:27.999Z</time></trkpt><trkpt lat="42.13946516579933" lon="14.43316292833078"><ele>65.0</ele><time>2026-04-12T09:24:28.999Z</time></trkpt><trkpt lat="42.139512941532736" lon="14.433233366154688"><ele>65.00000000000001</ele><time>2026-04-12T09:24:29.999Z</time></trkpt><trkpt lat="42.139555996833295" lon="14.433304823415126"><ele>65.0</ele><time>2026-04-12T09:24:30.999Z</time></trkpt><trkpt lat="42.139600643102284" lon="14.433370707201952"><ele>65.0</ele><time>2026-04-12T09:24:31.999Z</time></trkpt><trkpt lat="42.13964627366719" lon="14.43343756696384"><ele>65.0</ele><time>2026-04-12T09:24:32.999Z</time></trkpt><trkpt lat="42.139693687207675" lon="14.433501027224231"><ele>65.0</ele><time>2026-04-12T09:24:33.999Z</time></trkpt><trkpt lat="42.139740366389425" lon="14.433569341145926"><ele>65.00000000000001</ele><time>2026-04-12T09:24:34.999Z</time></trkpt><trkpt lat="42.13978274567302" lon="14.433638220953581"><ele>65.0</ele><time>2026-04-12T09:24:35.999Z</time></trkpt><trkpt lat="42.13982316055168" lon="14.43371229560853"><ele>65.00000000000001</ele><time>2026-04-12T09:24:36.999Z</time></trkpt><trkpt lat="42.13985298538924" lon="14.433794110043177"><ele>65.0</ele><time>2026-04-12T09:24:37.999Z</time></trkpt><trkpt lat="42.13987352997888" lon="14.433884931629507"><ele>65.0</ele><time>2026-04-12T09:24:38.999Z</time></trkpt><trkpt lat="42.139892592367644" lon="14.433975958104677"><ele>65.0</ele><time>2026-04-12T09:24:39.999Z</time></trkpt><trkpt lat="42.139908368804306" lon="14.434068638359465"><ele>65.0</ele><time>2026-04-12T09:24:40.999Z</time></trkpt><trkpt lat="42.13992879294159" lon="14.434157894096769"><ele>65.00000000000001</ele><time>2026-04-12T09:24:41.999Z</time></trkpt><trkpt lat="42.13995486269468" lon="14.434246236819236"><ele>65.0</ele><time>2026-04-12T09:24:42.999Z</time></trkpt><trkpt lat="42.139990943980514" lon="14.434321178342646"><ele>64.28571428571429</ele><time>2026-04-12T09:24:43.999Z</time></trkpt><trkpt lat="42.14003746940584" lon="14.434383410492503"><ele>63.57142857142857</ele><time>2026-04-12T09:24:44.999Z</time></trkpt><trkpt lat="42.140098579415536" lon="14.434433880683429"><ele>62.85714285714286</ele><time>2026-04-12T09:24:45.999Z</time></trkpt><trkpt lat="42.140166897848815" lon="14.43446388667487"><ele>62.142857142857146</ele><time>2026-04-12T09:24:46.999Z</time></trkpt><trkpt lat="42.14023441113722" lon="14.434484996833012"><ele>61.42857142857143</ele><time>2026-04-12T09:24:47.999Z</time></trkpt><trkpt lat="42.14030149663323" lon="14.434504234562864"><ele>60.714285714285715</ele><time>2026-04-12T09:24:48.999Z</time></trkpt><trkpt lat="42.14036462786774" lon="14.434539567379911"><ele>60.0</ele><time>2026-04-12T09:24:49.999Z</time></trkpt><trkpt lat="42.140423851482836" lon="14.434595465060468"><ele>60.142857142857146</ele><time>2026-04-12T09:24:50.999Z</time></trkpt><trkpt lat="42.14047467702256" lon="14.434662762977707"><ele>60.28571428571428</ele><time>2026-04-12T09:24:51.999Z</time></trkpt><trkpt lat="42.14052236836211" lon="14.434733398127944"><ele>60.42857142857142</ele><time>2026-04-12T09:24:52.999Z</time></trkpt><trkpt lat="42.14056727527756" lon="14.434802558924753"><ele>60.57142857142857</ele><time>2026-04-12T09:24:53.999Z</time></trkpt><trkpt lat="42.14061315916431" lon="14.434873668387475"><ele>60.71428571428571</ele><time>2026-04-12T09:24:54.999Z</time></trkpt><trkpt lat="42.140658784506954" lon="14.434944808080129"><ele>60.85714285714285</ele><time>2026-04-12T09:24:55.999Z</time></trkpt><trkpt lat="42.14070813306498" lon="14.435017954429798"><ele>60.99999999999999</ele><time>2026-04-12T09:24:56.999Z</time></trkpt><trkpt lat="42.140756318397806" lon="14.435090252768298"><ele>61.28571428571428</ele><time>2026-04-12T09:24:57.999Z</time></trkpt><trkpt lat="42.140803438761196" lon="14.43516086754337"><ele>61.57142857142857</ele><time>2026-04-12T09:24:58.999Z</time></trkpt><trkpt lat="42.140851610614526" lon="14.435233656982252"><ele>61.857142857142854</ele><time>2026-04-12T09:24:59.999Z</time></trkpt><trkpt lat="42.14089933396204" lon="14.435308032954769"><ele>62.14285714285714</ele><time>2026-04-12T09:25:00.999Z</time></trkpt><trkpt lat="42.14094808865518" lon="14.435380498736132"><ele>62.42857142857143</ele><time>2026-04-12T09:25:01.999Z</time></trkpt><trkpt lat="42.14099513763969" lon="14.435451978869338"><ele>62.714285714285715</ele><time>2026-04-12T09:25:02.999Z</time></trkpt><trkpt lat="42.14104320140838" lon="14.435523918698554"><ele>63.0</ele><time>2026-04-12T09:25:03.999Z</time></trkpt><trkpt lat="42.14109155102928" lon="14.435594908814348"><ele>63.285714285714285</ele><time>2026-04-12T09:25:04.999Z</time></trkpt><trkpt lat="42.141139851329356" lon="14.435668451276827"><ele>63.57142857142857</ele><time>2026-04-12T09:25:05.999Z</time></trkpt><trkpt lat="42.1411875392545" lon="14.435740671425705"><ele>63.85714285714286</ele><time>2026-04-12T09:25:06.999Z</time></trkpt><trkpt lat="42.141236478899124" lon="14.435812481678834"><ele>64.14285714285714</ele><time>2026-04-12T09:25:07.999Z</time></trkpt><trkpt lat="42.14128715430426" lon="14.435885213974274"><ele>64.42857142857143</ele><time>2026-04-12T09:25:08.999Z</time></trkpt><trkpt lat="42.14133653144911" lon="14.4359573422317"><ele>64.71428571428572</ele><time>2026-04-12T09:25:09.999Z</time></trkpt><trkpt lat="42.14138520479685" lon="14.436031489946432"><ele>65.0</ele><time>2026-04-12T09:25:10.999Z</time></trkpt><trkpt lat="42.141436155271016" lon="14.436102889763253"><ele>65.00000000000001</ele><time>2026-04-12T09:25:11.999Z</time></trkpt><trkpt lat="42.14148204445643" lon="14.43617379446404"><ele>65.0</ele><time>2026-04-12T09:25:12.999Z</time></trkpt><trkpt lat="42.14152869525462" lon="14.436243534816061"><ele>65.0</ele><time>2026-04-12T09:25:13.998Z</time></trkpt><trkpt lat="42.14157426217617" lon="14.43631149054735"><ele>65.0</ele><time>2026-04-12T09:25:14.998Z</time></trkpt><trkpt lat="42.14161841707867" lon="14.436378075050973"><ele>65.0</ele><time>2026-04-12T09:25:15.998Z</time></trkpt><trkpt lat="42.14166309649407" lon="14.436444461617109"><ele>65.00000000000001</ele><time>2026-04-12T09:25:16.998Z</time></trkpt><trkpt lat="42.14170902420576" lon="14.43651119085024"><ele>65.0</ele><time>2026-04-12T09:25:17.998Z</time></trkpt><trkpt lat="42.1417538631368" lon="14.436577529896224"><ele>64.57142857142858</ele><time>2026-04-12T09:25:18.998Z</time></trkpt><trkpt lat="42.1417983574682" lon="14.43664286499341"><ele>64.14285714285714</ele><time>2026-04-12T09:25:19.998Z</time></trkpt><trkpt lat="42.14184371933142" lon="14.436708635525473"><ele>63.71428571428572</ele><time>2026-04-12T09:25:20.998Z</time></trkpt><trkpt lat="42.14188679798211" lon="14.436774829535517"><ele>63.28571428571429</ele><time>2026-04-12T09:25:21.998Z</time></trkpt><trkpt lat="42.14193296482223" lon="14.436841304107745"><ele>62.85714285714286</ele><time>2026-04-12T09:25:22.998Z</time></trkpt><trkpt lat="42.141977917868275" lon="14.436910995607505"><ele>62.42857142857143</ele><time>2026-04-12T09:25:23.998Z</time></trkpt><trkpt lat="42.142022457274514" lon="14.436980174991502"><ele>62.0</ele><time>2026-04-12T09:25:24.998Z</time></trkpt><trkpt lat="42.14206974339959" lon="14.437046554854165"><ele>62.0</ele><time>2026-04-12T09:25:25.998Z</time></trkpt><trkpt lat="42.14211617923419" lon="14.437111404523613"><ele>62.00000000000001</ele><time>2026-04-12T09:25:26.998Z</time></trkpt><trkpt lat="42.14216153933896" lon="14.437181489336563"><ele>62.0</ele><time>2026-04-12T09:25:27.998Z</time></trkpt><trkpt lat="42.14220519702793" lon="14.437249666450821"><ele>62.0</ele><time>2026-04-12T09:25:28.998Z</time></trkpt><trkpt lat="42.142251375386515" lon="14.437315976245378"><ele>62.00000000000001</ele><time>2026-04-12T09:25:29.998Z</time></trkpt><trkpt lat="42.142298559638625" lon="14.437384310085095"><ele>62.0</ele><time>2026-04-12T09:25:30.998Z</time></trkpt><trkpt lat="42.142343558123734" lon="14.437453038508949"><ele>62.0</ele><time>2026-04-12T09:25:31.998Z</time></trkpt><trkpt lat="42.142390887144266" lon="14.437521601821858"><ele>61.714285714285715</ele><time>2026-04-12T09:25:32.998Z</time></trkpt><trkpt lat="42.14243744952266" lon="14.43758926804515"><ele>61.42857142857143</ele><time>2026-04-12T09:25:33.998Z</time></trkpt><trkpt lat="42.14248377766206" lon="14.437658126687076"><ele>61.142857142857146</ele><time>2026-04-12T09:25:34.998Z</time></trkpt><trkpt lat="42.142530269866725" lon="14.43772771225765"><ele>60.85714285714286</ele><time>2026-04-12T09:25:35.998Z</time></trkpt><trkpt lat="42.142576102477065" lon="14.437794877236541"><ele>60.57142857142857</ele><time>2026-04-12T09:25:36.998Z</time></trkpt><trkpt lat="42.1426240889516" lon="14.437864688741731"><ele>60.28571428571429</ele><time>2026-04-12T09:25:37.998Z</time></trkpt><trkpt lat="42.14267062285573" lon="14.437935978524582"><ele>60.0</ele><time>2026-04-12T09:25:38.998Z</time></trkpt><trkpt lat="42.14271593584668" lon="14.438003926699325"><ele>60.0</ele><time>2026-04-12T09:25:39.998Z</time></trkpt><trkpt lat="42.142763464235564" lon="14.438074127563366"><ele>60.0</ele><time>2026-04-12T09:25:40.998Z</time></trkpt><trkpt lat="42.142808437103994" lon="14.438142450608236"><ele>60.0</ele><time>2026-04-12T09:25:41.998Z</time></trkpt><trkpt lat="42.14285498676742" lon="14.438211588592392"><ele>60.0</ele><time>2026-04-12T09:25:42.998Z</time></trkpt><trkpt lat="42.14290052092837" lon="14.438279428452622"><ele>60.0</ele><time>2026-04-12T09:25:43.998Z</time></trkpt><trkpt lat="42.142944703976255" lon="14.438348739578467"><ele>60.0</ele><time>2026-04-12T09:25:44.998Z</time></trkpt><trkpt lat="42.14299008788746" lon="14.438413169744498"><ele>60.0</ele><time>2026-04-12T09:25:45.998Z</time></trkpt><trkpt lat="42.14303530728003" lon="14.438478819584857"><ele>60.0</ele><time>2026-04-12T09:25:46.998Z</time></trkpt><trkpt lat="42.14308040553985" lon="14.438544528529382"><ele>60.0</ele><time>2026-04-12T09:25:47.998Z</time></trkpt><trkpt lat="42.14312432335577" lon="14.438609753833724"><ele>60.0</ele><time>2026-04-12T09:25:48.998Z</time></trkpt><trkpt lat="42.14316922391054" lon="14.438676543372637"><ele>60.0</ele><time>2026-04-12T09:25:49.998Z</time></trkpt><trkpt lat="42.14321521773853" lon="14.438742462611252"><ele>60.0</ele><time>2026-04-12T09:25:50.998Z</time></trkpt><trkpt lat="42.143260004937254" lon="14.438812112872426"><ele>60.0</ele><time>2026-04-12T09:25:51.998Z</time></trkpt><trkpt lat="42.14330496447638" lon="14.438879521242233"><ele>60.0</ele><time>2026-04-12T09:25:52.998Z</time></trkpt><trkpt lat="42.14335038638875" lon="14.438944635151932"><ele>59.85714285714286</ele><time>2026-04-12T09:25:53.998Z</time></trkpt><trkpt lat="42.143395236333596" lon="14.43901160141642"><ele>59.71428571428571</ele><time>2026-04-12T09:25:54.998Z</time></trkpt><trkpt lat="42.1434399913145" lon="14.439079231869588"><ele>59.57142857142857</ele><time>2026-04-12T09:25:55.998Z</time></trkpt><trkpt lat="42.14348667832707" lon="14.43914530778016"><ele>59.42857142857143</ele><time>2026-04-12T09:25:56.998Z</time></trkpt><trkpt lat="42.14353127835489" lon="14.439209969501023"><ele>59.28571428571429</ele><time>2026-04-12T09:25:57.998Z</time></trkpt><trkpt lat="42.1435765641005" lon="14.439277424976629"><ele>59.14285714285714</ele><time>2026-04-12T09:25:58.998Z</time></trkpt><trkpt lat="42.14362049089761" lon="14.439344244361351"><ele>59.0</ele><time>2026-04-12T09:25:59.998Z</time></trkpt><trkpt lat="42.14366375198989" lon="14.439408811412836"><ele>59.0</ele><time>2026-04-12T09:26:00.998Z</time></trkpt><trkpt lat="42.14370873953166" lon="14.43947816465587"><ele>59.0</ele><time>2026-04-12T09:26:01.998Z</time></trkpt><trkpt lat="42.14375360759832" lon="14.439542984601104"><ele>59.0</ele><time>2026-04-12T09:26:02.998Z</time></trkpt><trkpt lat="42.14379768270244" lon="14.439610536582753"><ele>59.0</ele><time>2026-04-12T09:26:03.998Z</time></trkpt><trkpt lat="42.14384338904637" lon="14.439680676961181"><ele>59.0</ele><time>2026-04-12T09:26:04.998Z</time></trkpt><trkpt lat="42.143888286909025" lon="14.43974796042679"><ele>59.0</ele><time>2026-04-12T09:26:05.998Z</time></trkpt><trkpt lat="42.14393300842889" lon="14.439815044885847"><ele>59.0</ele><time>2026-04-12T09:26:06.999Z</time></trkpt><trkpt lat="42.143975863377094" lon="14.439879721928849"><ele>58.857142857142854</ele><time>2026-04-12T09:26:07.999Z</time></trkpt><trkpt lat="42.14402105295119" lon="14.439947352061617"><ele>58.71428571428572</ele><time>2026-04-12T09:26:08.999Z</time></trkpt><trkpt lat="42.144066589161966" lon="14.440010553302313"><ele>58.57142857142858</ele><time>2026-04-12T09:26:09.999Z</time></trkpt><trkpt lat="42.14411010343089" lon="14.440078577608665"><ele>58.42857142857143</ele><time>2026-04-12T09:26:10.999Z</time></trkpt><trkpt lat="42.144155191337056" lon="14.440147257859127"><ele>58.28571428571429</ele><time>2026-04-12T09:26:11.999Z</time></trkpt><trkpt lat="42.14420308994452" lon="14.440213269884147"><ele>58.14285714285715</ele><time>2026-04-12T09:26:12.999Z</time></trkpt><trkpt lat="42.14424921219546" lon="14.440280012640033"><ele>58.00000000000001</ele><time>2026-04-12T09:26:13.999Z</time></trkpt><trkpt lat="42.14429471139081" lon="14.440347492656787"><ele>57.85714285714286</ele><time>2026-04-12T09:26:14.999Z</time></trkpt><trkpt lat="42.14434158339705" lon="14.440414815407847"><ele>57.714285714285715</ele><time>2026-04-12T09:26:15.999Z</time></trkpt><trkpt lat="42.14438828702406" lon="14.440484033990558"><ele>57.57142857142857</ele><time>2026-04-12T09:26:16.999Z</time></trkpt><trkpt lat="42.14443255011832" lon="14.44055298332551"><ele>57.42857142857143</ele><time>2026-04-12T09:26:17.999Z</time></trkpt><trkpt lat="42.14447745757552" lon="14.440620287897746"><ele>57.28571428571428</ele><time>2026-04-12T09:26:18.999Z</time></trkpt><trkpt lat="42.14452433741636" lon="14.440688510916056"><ele>57.14285714285714</ele><time>2026-04-12T09:26:19.999Z</time></trkpt><trkpt lat="42.14456829300729" lon="14.440760006000662"><ele>57.0</ele><time>2026-04-12T09:26:20.999Z</time></trkpt><trkpt lat="42.144614835243864" lon="14.440826633416645"><ele>57.285714285714285</ele><time>2026-04-12T09:26:21.999Z</time></trkpt><trkpt lat="42.144660048316396" lon="14.440895808270412"><ele>57.57142857142857</ele><time>2026-04-12T09:26:22.999Z</time></trkpt><trkpt lat="42.14470799525323" lon="14.44096201614219"><ele>57.857142857142854</ele><time>2026-04-12T09:26:23.999Z</time></trkpt><trkpt lat="42.14475507156498" lon="14.441030582833754"><ele>58.14285714285714</ele><time>2026-04-12T09:26:24.999Z</time></trkpt><trkpt lat="42.14479902646733" lon="14.441100717656568"><ele>58.42857142857143</ele><time>2026-04-12T09:26:25.999Z</time></trkpt><trkpt lat="42.144845387767035" lon="14.441168687037324"><ele>58.71428571428571</ele><time>2026-04-12T09:26:26.999Z</time></trkpt><trkpt lat="42.14488925104552" lon="14.441236131377941"><ele>59.0</ele><time>2026-04-12T09:26:27.999Z</time></trkpt><trkpt lat="42.14493537404427" lon="14.441302032377004"><ele>59.0</ele><time>2026-04-12T09:26:28.999Z</time></trkpt><trkpt lat="42.144979918739885" lon="14.44136836323953"><ele>59.0</ele><time>2026-04-12T09:26:29.999Z</time></trkpt><trkpt lat="42.14502475245838" lon="14.4414322257047"><ele>59.0</ele><time>2026-04-12T09:26:30.999Z</time></trkpt><trkpt lat="42.14506814868485" lon="14.44150106162978"><ele>59.0</ele><time>2026-04-12T09:26:31.999Z</time></trkpt><trkpt lat="42.145111546369165" lon="14.44157115004782"><ele>59.0</ele><time>2026-04-12T09:26:32.999Z</time></trkpt><trkpt lat="42.14515758688919" lon="14.441638325933301"><ele>59.0</ele><time>2026-04-12T09:26:33.999Z</time></trkpt><trkpt lat="42.14520198093004" lon="14.44170678544273"><ele>59.0</ele><time>2026-04-12T09:26:34.999Z</time></trkpt><trkpt lat="42.14524657971886" lon="14.441772552631221"><ele>59.0</ele><time>2026-04-12T09:26:35.999Z</time></trkpt><trkpt lat="42.145290911386525" lon="14.441838720189276"><ele>59.0</ele><time>2026-04-12T09:26:36.999Z</time></trkpt><trkpt lat="42.145336557110895" lon="14.441906109792459"><ele>59.0</ele><time>2026-04-12T09:26:37.999Z</time></trkpt><trkpt lat="42.1453819642735" lon="14.441973909177134"><ele>59.0</ele><time>2026-04-12T09:26:38.999Z</time></trkpt><trkpt lat="42.14542719220096" lon="14.442041118023683"><ele>59.0</ele><time>2026-04-12T09:26:39.999Z</time></trkpt><trkpt lat="42.14547172464999" lon="14.442108005303764"><ele>59.0</ele><time>2026-04-12T09:26:40.999Z</time></trkpt><trkpt lat="42.14551495295603" lon="14.442172457974012"><ele>59.0</ele><time>2026-04-12T09:26:41.999Z</time></trkpt><trkpt lat="42.14556003750466" lon="14.442240122108894"><ele>58.857142857142854</ele><time>2026-04-12T09:26:42.999Z</time></trkpt><trkpt lat="42.14560429102494" lon="14.442306909664383"><ele>58.71428571428572</ele><time>2026-04-12T09:26:43.999Z</time></trkpt><trkpt lat="42.14564793424972" lon="14.442370331454324"><ele>58.57142857142858</ele><time>2026-04-12T09:26:44.999Z</time></trkpt><trkpt lat="42.14569162719854" lon="14.442440960462157"><ele>58.42857142857143</ele><time>2026-04-12T09:26:45.999Z</time></trkpt><trkpt lat="42.145737683196344" lon="14.442502989570272"><ele>58.28571428571429</ele><time>2026-04-12T09:26:46.999Z</time></trkpt><trkpt lat="42.145781316643735" lon="14.442565524658121"><ele>58.14285714285715</ele><time>2026-04-12T09:26:47.999Z</time></trkpt><trkpt lat="42.14582626449745" lon="14.442632298941552"><ele>58.00000000000001</ele><time>2026-04-12T09:26:48.999Z</time></trkpt><trkpt lat="42.14587034036666" lon="14.442696865556307"><ele>58.00000000000001</ele><time>2026-04-12T09:26:49.999Z</time></trkpt><trkpt lat="42.14591473407276" lon="14.442763556836233"><ele>58.0</ele><time>2026-04-12T09:26:50.999Z</time></trkpt><trkpt lat="42.14595872946275" lon="14.442830852701707"><ele>58.00000000000001</ele><time>2026-04-12T09:26:51.999Z</time></trkpt><trkpt lat="42.14600360206567" lon="14.442895228929238"><ele>58.00000000000001</ele><time>2026-04-12T09:26:52.999Z</time></trkpt><trkpt lat="42.146048668279526" lon="14.442959726315323"><ele>58.0</ele><time>2026-04-12T09:26:53.999Z</time></trkpt><trkpt lat="42.14609202206843" lon="14.443026497349072"><ele>58.00000000000001</ele><time>2026-04-12T09:26:54.999Z</time></trkpt><trkpt lat="42.146137552747014" lon="14.443092066090637"><ele>58.00000000000001</ele><time>2026-04-12T09:26:55.999Z</time></trkpt><trkpt lat="42.146185692483485" lon="14.443161767606231"><ele>58.00000000000001</ele><time>2026-04-12T09:26:56.999Z</time></trkpt><trkpt lat="42.146230378228886" lon="14.44323188243456"><ele>58.0</ele><time>2026-04-12T09:26:58Z</time></trkpt><trkpt lat="42.146279229149954" lon="14.443301080620344"><ele>58.00000000000001</ele><time>2026-04-12T09:26:59Z</time></trkpt><trkpt lat="42.14632368681341" lon="14.44337135785022"><ele>58.00000000000001</ele><time>2026-04-12T09:27:00Z</time></trkpt><trkpt lat="42.146367331632455" lon="14.443441132811717"><ele>58.0</ele><time>2026-04-12T09:27:01Z</time></trkpt><trkpt lat="42.14641375675368" lon="14.443507330813858"><ele>58.00000000000001</ele><time>2026-04-12T09:27:02Z</time></trkpt><trkpt lat="42.14645988300412" lon="14.44357324424128"><ele>58.00000000000001</ele><time>2026-04-12T09:27:03Z</time></trkpt><trkpt lat="42.14650696527691" lon="14.443643215863643"><ele>58.00000000000001</ele><time>2026-04-12T09:27:04Z</time></trkpt><trkpt lat="42.14655243661414" lon="14.44371049652135"><ele>58.0</ele><time>2026-04-12T09:27:05Z</time></trkpt><trkpt lat="42.14659871316397" lon="14.443781167541447"><ele>58.00000000000001</ele><time>2026-04-12T09:27:06Z</time></trkpt><trkpt lat="42.14664458253245" lon="14.443850141829158"><ele>58.00000000000001</ele><time>2026-04-12T09:27:07Z</time></trkpt><trkpt lat="42.1466912720166" lon="14.44391977061413"><ele>58.0</ele><time>2026-04-12T09:27:08Z</time></trkpt><trkpt lat="42.14673626800752" lon="14.443988572457469"><ele>58.00000000000001</ele><time>2026-04-12T09:27:09Z</time></trkpt><trkpt lat="42.14678246030605" lon="14.444054589116442"><ele>58.00000000000001</ele><time>2026-04-12T09:27:10Z</time></trkpt><trkpt lat="42.146831618471744" lon="14.444121870018401"><ele>58.00000000000001</ele><time>2026-04-12T09:27:11Z</time></trkpt><trkpt lat="42.14687396833585" lon="14.444189315244914"><ele>58.0</ele><time>2026-04-12T09:27:12Z</time></trkpt><trkpt lat="42.14692008444543" lon="14.444254609031535"><ele>58.00000000000001</ele><time>2026-04-12T09:27:13Z</time></trkpt><trkpt lat="42.14696406038074" lon="14.444320247449111"><ele>58.00000000000001</ele><time>2026-04-12T09:27:14Z</time></trkpt><trkpt lat="42.14700820544041" lon="14.444386593354874"><ele>58.0</ele><time>2026-04-12T09:27:15Z</time></trkpt><trkpt lat="42.14705236449926" lon="14.444451267112457"><ele>58.00000000000001</ele><time>2026-04-12T09:27:15.999Z</time></trkpt><trkpt lat="42.14709556569486" lon="14.444517996114346"><ele>58.00000000000001</ele><time>2026-04-12T09:27:16.999Z</time></trkpt><trkpt lat="42.147139777070755" lon="14.444586916485491"><ele>57.99999999999999</ele><time>2026-04-12T09:27:17.999Z</time></trkpt><trkpt lat="42.14718272811215" lon="14.444653344325507"><ele>58.0</ele><time>2026-04-12T09:27:18.999Z</time></trkpt><trkpt lat="42.14726905970074" lon="14.444775627540952"><ele>58.0</ele><time>2026-04-12T09:27:20.999Z</time></trkpt><trkpt lat="42.14731530854623" lon="14.444839140133501"><ele>58.0</ele><time>2026-04-12T09:27:21.999Z</time></trkpt><trkpt lat="42.14735684626384" lon="14.444908096796642"><ele>57.99999999999999</ele><time>2026-04-12T09:27:22.999Z</time></trkpt><trkpt lat="42.14740109780785" lon="14.444976821371782"><ele>58.0</ele><time>2026-04-12T09:27:23.999Z</time></trkpt><trkpt lat="42.147446894120016" lon="14.445042738841437"><ele>58.00000000000001</ele><time>2026-04-12T09:27:24.999Z</time></trkpt><trkpt lat="42.14748911582932" lon="14.445108517221499"><ele>58.0</ele><time>2026-04-12T09:27:25.999Z</time></trkpt><trkpt lat="42.147534266906355" lon="14.445176838923791"><ele>58.00000000000001</ele><time>2026-04-12T09:27:26.999Z</time></trkpt><trkpt lat="42.147576713482785" lon="14.445245952871254"><ele>58.00000000000001</ele><time>2026-04-12T09:27:27.999Z</time></trkpt><trkpt lat="42.14762179734946" lon="14.445311346679881"><ele>58.0</ele><time>2026-04-12T09:27:28.999Z</time></trkpt><trkpt lat="42.14766599739288" lon="14.445379141618982"><ele>58.00000000000001</ele><time>2026-04-12T09:27:29.999Z</time></trkpt><trkpt lat="42.14771087812548" lon="14.445444641252845"><ele>58.00000000000001</ele><time>2026-04-12T09:27:30.999Z</time></trkpt><trkpt lat="42.14775598813987" lon="14.445510268394438"><ele>57.42857142857144</ele><time>2026-04-12T09:27:31.999Z</time></trkpt><trkpt lat="42.147800047272256" lon="14.445579095915903"><ele>56.85714285714286</ele><time>2026-04-12T09:27:32.999Z</time></trkpt><trkpt lat="42.14784871841281" lon="14.44564757578018"><ele>56.28571428571429</ele><time>2026-04-12T09:27:33.999Z</time></trkpt><trkpt lat="42.14789878853474" lon="14.445717640293442"><ele>55.71428571428572</ele><time>2026-04-12T09:27:34.999Z</time></trkpt><trkpt lat="42.147946135520336" lon="14.445790258618374"><ele>55.14285714285714</ele><time>2026-04-12T09:27:35.999Z</time></trkpt><trkpt lat="42.147994672976424" lon="14.44586122664014"><ele>54.57142857142857</ele><time>2026-04-12T09:27:36.999Z</time></trkpt><trkpt lat="42.14804438916255" lon="14.445932082703896"><ele>54.0</ele><time>2026-04-12T09:27:37.999Z</time></trkpt><trkpt lat="42.1480905726307" lon="14.446003519639401"><ele>54.0</ele><time>2026-04-12T09:27:38.999Z</time></trkpt><trkpt lat="42.14813867853149" lon="14.446074820822904"><ele>54.0</ele><time>2026-04-12T09:27:39.999Z</time></trkpt><trkpt lat="42.1481845900854" lon="14.446147284267312"><ele>54.0</ele><time>2026-04-12T09:27:40.999Z</time></trkpt><trkpt lat="42.1482329743574" lon="14.446219601948586"><ele>54.0</ele><time>2026-04-12T09:27:41.999Z</time></trkpt><trkpt lat="42.14828104092673" lon="14.446290321093326"><ele>54.0</ele><time>2026-04-12T09:27:42.999Z</time></trkpt><trkpt lat="42.14832975406977" lon="14.446361599729014"><ele>54.0</ele><time>2026-04-12T09:27:43.999Z</time></trkpt><trkpt lat="42.1483813815162" lon="14.44643277659747"><ele>54.0</ele><time>2026-04-12T09:27:44.999Z</time></trkpt><trkpt lat="42.1484263388729" lon="14.446504737253571"><ele>53.714285714285715</ele><time>2026-04-12T09:27:45.999Z</time></trkpt><trkpt lat="42.14847481893901" lon="14.446578659711909"><ele>53.42857142857143</ele><time>2026-04-12T09:27:46.999Z</time></trkpt><trkpt lat="42.148522595367034" lon="14.446651892165171"><ele>53.14285714285714</ele><time>2026-04-12T09:27:47.999Z</time></trkpt><trkpt lat="42.1485707803374" lon="14.44672333812287"><ele>52.85714285714286</ele><time>2026-04-12T09:27:48.999Z</time></trkpt><trkpt lat="42.1486210859298" lon="14.44679468995098"><ele>52.57142857142858</ele><time>2026-04-12T09:27:49.999Z</time></trkpt><trkpt lat="42.14866942644026" lon="14.446868456122106"><ele>52.285714285714285</ele><time>2026-04-12T09:27:50.999Z</time></trkpt><trkpt lat="42.14871729414117" lon="14.446939599349859"><ele>52.0</ele><time>2026-04-12T09:27:51.999Z</time></trkpt><trkpt lat="42.148765990164016" lon="14.447011181585072"><ele>52.0</ele><time>2026-04-12T09:27:52.999Z</time></trkpt><trkpt lat="42.14881300746884" lon="14.447083023711974"><ele>52.0</ele><time>2026-04-12T09:27:53.999Z</time></trkpt><trkpt lat="42.148859136509955" lon="14.447153853940202"><ele>52.0</ele><time>2026-04-12T09:27:54.999Z</time></trkpt><trkpt lat="42.14890870215901" lon="14.447224500786357"><ele>52.0</ele><time>2026-04-12T09:27:55.999Z</time></trkpt><trkpt lat="42.14895696917118" lon="14.447295402123869"><ele>52.0</ele><time>2026-04-12T09:27:56.999Z</time></trkpt><trkpt lat="42.14900533602704" lon="14.447368936802304"><ele>52.0</ele><time>2026-04-12T09:27:57.999Z</time></trkpt><trkpt lat="42.14905411267551" lon="14.447437822228107"><ele>52.0</ele><time>2026-04-12T09:27:58.999Z</time></trkpt><trkpt lat="42.149102130935454" lon="14.44751066219616"><ele>52.0</ele><time>2026-04-12T09:27:59.999Z</time></trkpt><trkpt lat="42.14914944867155" lon="14.447580049585678"><ele>52.0</ele><time>2026-04-12T09:28:00.999Z</time></trkpt><trkpt lat="42.14919777311906" lon="14.447651794274368"><ele>52.0</ele><time>2026-04-12T09:28:01.999Z</time></trkpt><trkpt lat="42.14924748654198" lon="14.44772396547319"><ele>52.0</ele><time>2026-04-12T09:28:02.999Z</time></trkpt><trkpt lat="42.149293656867535" lon="14.447797503798814"><ele>52.0</ele><time>2026-04-12T09:28:03.999Z</time></trkpt><trkpt lat="42.14934200481082" lon="14.447867823621698"><ele>52.0</ele><time>2026-04-12T09:28:04.999Z</time></trkpt><trkpt lat="42.14939157886058" lon="14.447941113011678"><ele>52.0</ele><time>2026-04-12T09:28:05.999Z</time></trkpt><trkpt lat="42.149440656940136" lon="14.448011788415629"><ele>52.0</ele><time>2026-04-12T09:28:06.999Z</time></trkpt><trkpt lat="42.1494876702522" lon="14.448084291277238"><ele>52.0</ele><time>2026-04-12T09:28:07.999Z</time></trkpt><trkpt lat="42.14953608300027" lon="14.448155785895045"><ele>52.0</ele><time>2026-04-12T09:28:08.999Z</time></trkpt><trkpt lat="42.149582824489045" lon="14.448226936948656"><ele>52.0</ele><time>2026-04-12T09:28:09.999Z</time></trkpt><trkpt lat="42.14963003446001" lon="14.448299046509657"><ele>52.0</ele><time>2026-04-12T09:28:10.999Z</time></trkpt><trkpt lat="42.14967855429537" lon="14.448369963636107"><ele>52.0</ele><time>2026-04-12T09:28:12Z</time></trkpt><trkpt lat="42.14972372878963" lon="14.448442683254465"><ele>52.0</ele><time>2026-04-12T09:28:13Z</time></trkpt><trkpt lat="42.14977442312276" lon="14.44851118298088"><ele>52.0</ele><time>2026-04-12T09:28:14Z</time></trkpt><trkpt lat="42.14982119821318" lon="14.44858375897384"><ele>52.0</ele><time>2026-04-12T09:28:15Z</time></trkpt><trkpt lat="42.14986928335767" lon="14.448654588533131"><ele>52.0</ele><time>2026-04-12T09:28:16Z</time></trkpt><trkpt lat="42.149917728725356" lon="14.448725334610879"><ele>52.0</ele><time>2026-04-12T09:28:17Z</time></trkpt><trkpt lat="42.14996521752375" lon="14.448795169748873"><ele>52.0</ele><time>2026-04-12T09:28:18Z</time></trkpt><trkpt lat="42.15001271747404" lon="14.448865797276717"><ele>52.0</ele><time>2026-04-12T09:28:19Z</time></trkpt><trkpt lat="42.150061122400864" lon="14.448933228630258"><ele>52.0</ele><time>2026-04-12T09:28:20Z</time></trkpt><trkpt lat="42.150109900153566" lon="14.44900170998952"><ele>51.714285714285715</ele><time>2026-04-12T09:28:21Z</time></trkpt><trkpt lat="42.15015644713682" lon="14.44907143158188"><ele>51.42857142857143</ele><time>2026-04-12T09:28:22Z</time></trkpt><trkpt lat="42.150203319807616" lon="14.449140523029438"><ele>51.142857142857146</ele><time>2026-04-12T09:28:23Z</time></trkpt><trkpt lat="42.15025168325224" lon="14.44920914577021"><ele>50.85714285714286</ele><time>2026-04-12T09:28:24Z</time></trkpt><trkpt lat="42.15029867780806" lon="14.44927954014259"><ele>50.57142857142857</ele><time>2026-04-12T09:28:25Z</time></trkpt><trkpt lat="42.150345788070005" lon="14.449349522552533"><ele>50.28571428571429</ele><time>2026-04-12T09:28:26Z</time></trkpt><trkpt lat="42.1503938695781" lon="14.449419049102323"><ele>50.0</ele><time>2026-04-12T09:28:27Z</time></trkpt><trkpt lat="42.15044175391573" lon="14.449486371892588"><ele>50.00000000000001</ele><time>2026-04-12T09:28:28Z</time></trkpt><trkpt lat="42.15048815416405" lon="14.449552599415206"><ele>50.0</ele><time>2026-04-12T09:28:29Z</time></trkpt><trkpt lat="42.15057686793308" lon="14.449675580411503"><ele>50.0</ele><time>2026-04-12T09:28:31Z</time></trkpt><trkpt lat="42.15062338535762" lon="14.449739121455222"><ele>50.0</ele><time>2026-04-12T09:28:32Z</time></trkpt><trkpt lat="42.15066926927592" lon="14.449802691185555"><ele>50.00000000000001</ele><time>2026-04-12T09:28:33Z</time></trkpt><trkpt lat="42.15070748785911" lon="14.449873648945488"><ele>50.0</ele><time>2026-04-12T09:28:34Z</time></trkpt><trkpt lat="42.1507475561571" lon="14.449945795816479"><ele>50.28571428571429</ele><time>2026-04-12T09:28:35Z</time></trkpt><trkpt lat="42.15079289865516" lon="14.450015874380682"><ele>50.57142857142857</ele><time>2026-04-12T09:28:36Z</time></trkpt><trkpt lat="42.150841854761616" lon="14.450083661482397"><ele>50.85714285714286</ele><time>2026-04-12T09:28:37Z</time></trkpt><trkpt lat="42.15088982921897" lon="14.450150865078173"><ele>51.142857142857146</ele><time>2026-04-12T09:28:38Z</time></trkpt><trkpt lat="42.15093580355484" lon="14.450219972636148"><ele>51.42857142857143</ele><time>2026-04-12T09:28:39Z</time></trkpt><trkpt lat="42.15098093434441" lon="14.450291002963562"><ele>51.714285714285715</ele><time>2026-04-12T09:28:40Z</time></trkpt><trkpt lat="42.151026296081824" lon="14.450358368285528"><ele>52.0</ele><time>2026-04-12T09:28:41Z</time></trkpt><trkpt lat="42.151071386646066" lon="14.450426189790345"><ele>52.0</ele><time>2026-04-12T09:28:42Z</time></trkpt><trkpt lat="42.15111911558887" lon="14.450495882528367"><ele>52.0</ele><time>2026-04-12T09:28:43Z</time></trkpt><trkpt lat="42.1511655523162" lon="14.450562548210895"><ele>52.0</ele><time>2026-04-12T09:28:44Z</time></trkpt><trkpt lat="42.15121166575043" lon="14.450632639634737"><ele>52.0</ele><time>2026-04-12T09:28:45Z</time></trkpt><trkpt lat="42.15125944707788" lon="14.450701433966511"><ele>52.0</ele><time>2026-04-12T09:28:46Z</time></trkpt><trkpt lat="42.151308095643856" lon="14.450771620654505"><ele>52.0</ele><time>2026-04-12T09:28:47Z</time></trkpt><trkpt lat="42.15135487215293" lon="14.450842553480475"><ele>52.0</ele><time>2026-04-12T09:28:48Z</time></trkpt><trkpt lat="42.15140173031836" lon="14.450914094960872"><ele>52.0</ele><time>2026-04-12T09:28:49Z</time></trkpt><trkpt lat="42.151447671437744" lon="14.450981366112577"><ele>52.0</ele><time>2026-04-12T09:28:50Z</time></trkpt><trkpt lat="42.151495390953805" lon="14.451050281226298"><ele>52.0</ele><time>2026-04-12T09:28:51Z</time></trkpt><trkpt lat="42.15154012671774" lon="14.451121787121703"><ele>52.0</ele><time>2026-04-12T09:28:52Z</time></trkpt><trkpt lat="42.15158718350734" lon="14.451192234064266"><ele>52.0</ele><time>2026-04-12T09:28:53Z</time></trkpt><trkpt lat="42.151634024146986" lon="14.451259915509423"><ele>52.0</ele><time>2026-04-12T09:28:54Z</time></trkpt><trkpt lat="42.15168064335259" lon="14.451326670508628"><ele>52.0</ele><time>2026-04-12T09:28:55Z</time></trkpt><trkpt lat="42.15172613041144" lon="14.45139258327781"><ele>51.666666666666664</ele><time>2026-04-12T09:28:56Z</time></trkpt><trkpt lat="42.151769581624535" lon="14.451461041639481"><ele>51.33333333333333</ele><time>2026-04-12T09:28:57Z</time></trkpt><trkpt lat="42.15181352476279" lon="14.45152775597858"><ele>51.0</ele><time>2026-04-12T09:28:58Z</time></trkpt><trkpt lat="42.15185692251245" lon="14.4515915493608"><ele>50.66666666666667</ele><time>2026-04-12T09:28:59Z</time></trkpt><trkpt lat="42.15189978981277" lon="14.451655648837304"><ele>50.333333333333336</ele><time>2026-04-12T09:29:00Z</time></trkpt><trkpt lat="42.151944408365274" lon="14.451719209203297"><ele>50.0</ele><time>2026-04-12T09:29:01Z</time></trkpt><trkpt lat="42.152025291119415" lon="14.451846280065837"><ele>50.00000000000001</ele><time>2026-04-12T09:29:03Z</time></trkpt><trkpt lat="42.152108253719526" lon="14.451966630287663"><ele>50.0</ele><time>2026-04-12T09:29:05Z</time></trkpt><trkpt lat="42.152150874739135" lon="14.452029388867473"><ele>50.0</ele><time>2026-04-12T09:29:06Z</time></trkpt><trkpt lat="42.152233508364404" lon="14.452155408940529"><ele>50.0</ele><time>2026-04-12T09:29:08Z</time></trkpt><trkpt lat="42.15227473182276" lon="14.452220357515078"><ele>50.00000000000001</ele><time>2026-04-12T09:29:09Z</time></trkpt><trkpt lat="42.152318689924606" lon="14.452281480148612"><ele>50.0</ele><time>2026-04-12T09:29:10Z</time></trkpt><trkpt lat="42.152360750014054" lon="14.45234654873104"><ele>50.142857142857146</ele><time>2026-04-12T09:29:11Z</time></trkpt><trkpt lat="42.152406273262386" lon="14.452410026598951"><ele>50.285714285714285</ele><time>2026-04-12T09:29:12Z</time></trkpt><trkpt lat="42.15244874197624" lon="14.452476556650769"><ele>50.42857142857143</ele><time>2026-04-12T09:29:13Z</time></trkpt><trkpt lat="42.152492704052165" lon="14.452543534400712"><ele>50.57142857142857</ele><time>2026-04-12T09:29:14Z</time></trkpt><trkpt lat="42.15253791583211" lon="14.452607019934732"><ele>50.714285714285715</ele><time>2026-04-12T09:29:15Z</time></trkpt><trkpt lat="42.15258312446498" lon="14.452672851499226"><ele>50.85714285714286</ele><time>2026-04-12T09:29:16Z</time></trkpt><trkpt lat="42.15262834094113" lon="14.452740163432871"><ele>51.0</ele><time>2026-04-12T09:29:17Z</time></trkpt><trkpt lat="42.152673173519965" lon="14.452808291613012"><ele>51.0</ele><time>2026-04-12T09:29:17.999Z</time></trkpt><trkpt lat="42.15271911378927" lon="14.452872577880205"><ele>51.0</ele><time>2026-04-12T09:29:18.999Z</time></trkpt><trkpt lat="42.15276368249445" lon="14.452942062032314"><ele>51.0</ele><time>2026-04-12T09:29:19.999Z</time></trkpt><trkpt lat="42.15280845399832" lon="14.453008631617575"><ele>51.0</ele><time>2026-04-12T09:29:20.999Z</time></trkpt><trkpt lat="42.15285291992172" lon="14.453074152836717"><ele>51.0</ele><time>2026-04-12T09:29:21.999Z</time></trkpt><trkpt lat="42.152898789750886" lon="14.453141227298413"><ele>51.0</ele><time>2026-04-12T09:29:22.999Z</time></trkpt><trkpt lat="42.15294666936033" lon="14.453209711273082"><ele>51.0</ele><time>2026-04-12T09:29:23.999Z</time></trkpt><trkpt lat="42.15299168219785" lon="14.453278580003692"><ele>50.714285714285715</ele><time>2026-04-12T09:29:24.999Z</time></trkpt><trkpt lat="42.153037889042594" lon="14.453345744106477"><ele>50.42857142857143</ele><time>2026-04-12T09:29:25.999Z</time></trkpt><trkpt lat="42.153084111179304" lon="14.453415355457592"><ele>50.14285714285714</ele><time>2026-04-12T09:29:26.999Z</time></trkpt><trkpt lat="42.15313171924346" lon="14.453483824591903"><ele>49.85714285714286</ele><time>2026-04-12T09:29:27.999Z</time></trkpt><trkpt lat="42.15317856563458" lon="14.453555023923114"><ele>49.57142857142857</ele><time>2026-04-12T09:29:28.999Z</time></trkpt><trkpt lat="42.15322482383776" lon="14.453626534240454"><ele>49.285714285714285</ele><time>2026-04-12T09:29:29.999Z</time></trkpt><trkpt lat="42.15327468735035" lon="14.45369836308048"><ele>49.0</ele><time>2026-04-12T09:29:30.999Z</time></trkpt><trkpt lat="42.15332230216022" lon="14.453771857643263"><ele>49.0</ele><time>2026-04-12T09:29:31.999Z</time></trkpt><trkpt lat="42.15336665966232" lon="14.453842995976109"><ele>49.0</ele><time>2026-04-12T09:29:32.999Z</time></trkpt><trkpt lat="42.15341439886648" lon="14.453910732572924"><ele>49.0</ele><time>2026-04-12T09:29:33.999Z</time></trkpt><trkpt lat="42.15345917672042" lon="14.453980980432734"><ele>49.0</ele><time>2026-04-12T09:29:34.999Z</time></trkpt><trkpt lat="42.15350704007862" lon="14.45404917192752"><ele>49.0</ele><time>2026-04-12T09:29:35.999Z</time></trkpt><trkpt lat="42.15355408816309" lon="14.454117399251334"><ele>49.0</ele><time>2026-04-12T09:29:36.999Z</time></trkpt><trkpt lat="42.15359689531757" lon="14.45418563981781"><ele>49.0</ele><time>2026-04-12T09:29:37.999Z</time></trkpt><trkpt lat="42.1536451538104" lon="14.45425611514542"><ele>49.0</ele><time>2026-04-12T09:29:38.999Z</time></trkpt><trkpt lat="42.153690230305564" lon="14.454327101790847"><ele>49.0</ele><time>2026-04-12T09:29:39.999Z</time></trkpt><trkpt lat="42.153734688551005" lon="14.454395018785403"><ele>49.0</ele><time>2026-04-12T09:29:40.999Z</time></trkpt><trkpt lat="42.15378172872861" lon="14.454460962801832"><ele>49.0</ele><time>2026-04-12T09:29:41.999Z</time></trkpt><trkpt lat="42.153827431736715" lon="14.454527321342066"><ele>49.0</ele><time>2026-04-12T09:29:42.999Z</time></trkpt><trkpt lat="42.153873722408775" lon="14.454593044706549"><ele>49.0</ele><time>2026-04-12T09:29:43.999Z</time></trkpt><trkpt lat="42.15391881394428" lon="14.454662711393365"><ele>49.0</ele><time>2026-04-12T09:29:44.999Z</time></trkpt><trkpt lat="42.15396395925612" lon="14.454729984742382"><ele>49.0</ele><time>2026-04-12T09:29:45.999Z</time></trkpt><trkpt lat="42.15401001115506" lon="14.454797550996204"><ele>49.0</ele><time>2026-04-12T09:29:46.999Z</time></trkpt><trkpt lat="42.1540560915948" lon="14.454863925350018"><ele>49.0</ele><time>2026-04-12T09:29:47.999Z</time></trkpt><trkpt lat="42.154102119481706" lon="14.454929888523324"><ele>49.0</ele><time>2026-04-12T09:29:48.999Z</time></trkpt><trkpt lat="42.15414850850158" lon="14.45499838009385"><ele>49.0</ele><time>2026-04-12T09:29:49.999Z</time></trkpt><trkpt lat="42.15419347692688" lon="14.455062618160428"><ele>49.0</ele><time>2026-04-12T09:29:50.999Z</time></trkpt><trkpt lat="42.154239431298166" lon="14.455134561772045"><ele>49.0</ele><time>2026-04-12T09:29:51.999Z</time></trkpt><trkpt lat="42.15428480123226" lon="14.45520164518449"><ele>49.0</ele><time>2026-04-12T09:29:52.999Z</time></trkpt><trkpt lat="42.1543295734525" lon="14.455267784839094"><ele>49.0</ele><time>2026-04-12T09:29:53.999Z</time></trkpt><trkpt lat="42.15437478412329" lon="14.455334965874966"><ele>49.0</ele><time>2026-04-12T09:29:54.999Z</time></trkpt><trkpt lat="42.15441946039112" lon="14.455402035611066"><ele>49.0</ele><time>2026-04-12T09:29:55.999Z</time></trkpt><trkpt lat="42.15446375905666" lon="14.455472016373543"><ele>49.0</ele><time>2026-04-12T09:29:56.999Z</time></trkpt><trkpt lat="42.1545077326745" lon="14.455538042773801"><ele>49.0</ele><time>2026-04-12T09:29:57.999Z</time></trkpt><trkpt lat="42.154552073302995" lon="14.45559968337696"><ele>49.0</ele><time>2026-04-12T09:29:58.999Z</time></trkpt><trkpt lat="42.15459493023508" lon="14.455664420414976"><ele>49.0</ele><time>2026-04-12T09:29:59.999Z</time></trkpt><trkpt lat="42.154678931461085" lon="14.455792378493879"><ele>49.0</ele><time>2026-04-12T09:30:01.999Z</time></trkpt><trkpt lat="42.154764200521804" lon="14.455916047995384"><ele>49.0</ele><time>2026-04-12T09:30:03.999Z</time></trkpt><trkpt lat="42.154846741355826" lon="14.45603967262629"><ele>49.0</ele><time>2026-04-12T09:30:05.999Z</time></trkpt><trkpt lat="42.154931125512" lon="14.456167512686388"><ele>48.99999999999999</ele><time>2026-04-12T09:30:07.999Z</time></trkpt><trkpt lat="42.15497455213618" lon="14.456231955612223"><ele>49.0</ele><time>2026-04-12T09:30:08.999Z</time></trkpt><trkpt lat="42.15501697554296" lon="14.456298598916387"><ele>49.0</ele><time>2026-04-12T09:30:09.999Z</time></trkpt><trkpt lat="42.15506017374274" lon="14.456364257923282"><ele>49.0</ele><time>2026-04-12T09:30:10.999Z</time></trkpt><trkpt lat="42.155146251184796" lon="14.456488442594011"><ele>48.99999999999999</ele><time>2026-04-12T09:30:12.999Z</time></trkpt><trkpt lat="42.15518949419781" lon="14.456550803328923"><ele>49.0</ele><time>2026-04-12T09:30:13.999Z</time></trkpt><trkpt lat="42.15527498561556" lon="14.456677501805876"><ele>48.5</ele><time>2026-04-12T09:30:15.998Z</time></trkpt><trkpt lat="42.15535658976213" lon="14.456795971997318"><ele>48.0</ele><time>2026-04-12T09:30:18Z</time></trkpt><trkpt lat="42.15543655467263" lon="14.45691487318591"><ele>47.5</ele><time>2026-04-12T09:30:20Z</time></trkpt><trkpt lat="42.15551515070832" lon="14.457029721270208"><ele>47.0</ele><time>2026-04-12T09:30:22Z</time></trkpt><trkpt lat="42.15559329639848" lon="14.457151808292775"><ele>47.0</ele><time>2026-04-12T09:30:24Z</time></trkpt><trkpt lat="42.15567610568365" lon="14.457275420082814"><ele>47.0</ele><time>2026-04-12T09:30:26Z</time></trkpt><trkpt lat="42.155720122822" lon="14.457338343568637"><ele>47.0</ele><time>2026-04-12T09:30:27Z</time></trkpt><trkpt lat="42.15580337278938" lon="14.457464228558052"><ele>47.0</ele><time>2026-04-12T09:30:29Z</time></trkpt><trkpt lat="42.15588475782788" lon="14.4575853367107"><ele>47.0</ele><time>2026-04-12T09:30:31Z</time></trkpt><trkpt lat="42.155967162903316" lon="14.457704193808473"><ele>47.0</ele><time>2026-04-12T09:30:33Z</time></trkpt><trkpt lat="42.15604872784485" lon="14.457823191325165"><ele>47.0</ele><time>2026-04-12T09:30:35Z</time></trkpt><trkpt lat="42.15612988351792" lon="14.457946074190467"><ele>47.0</ele><time>2026-04-12T09:30:37Z</time></trkpt><trkpt lat="42.156164927954606" lon="14.45801806751145"><ele>47.0</ele><time>2026-04-12T09:30:38Z</time></trkpt><trkpt lat="42.15621060684882" lon="14.458178113679423"><ele>47.0</ele><time>2026-04-12T09:30:40Z</time></trkpt><trkpt lat="42.156227209779814" lon="14.458262771096962"><ele>46.857142857142854</ele><time>2026-04-12T09:30:41Z</time></trkpt><trkpt lat="42.15624557759381" lon="14.458348841614143"><ele>46.71428571428571</ele><time>2026-04-12T09:30:42Z</time></trkpt><trkpt lat="42.15627111795682" lon="14.458429005477727"><ele>46.57142857142857</ele><time>2026-04-12T09:30:43Z</time></trkpt><trkpt lat="42.156301028220106" lon="14.45850563691303"><ele>46.42857142857143</ele><time>2026-04-12T09:30:44Z</time></trkpt><trkpt lat="42.15634186029527" lon="14.458572825044689"><ele>46.285714285714285</ele><time>2026-04-12T09:30:45Z</time></trkpt><trkpt lat="42.15638985875479" lon="14.458631740133102"><ele>46.142857142857146</ele><time>2026-04-12T09:30:46Z</time></trkpt><trkpt lat="42.15644354706977" lon="14.458677376390627"><ele>46.0</ele><time>2026-04-12T09:30:47Z</time></trkpt><trkpt lat="42.156503032437136" lon="14.458717252630482"><ele>46.142857142857146</ele><time>2026-04-12T09:30:48Z</time></trkpt><trkpt lat="42.1565613441723" lon="14.458752071212231"><ele>46.285714285714285</ele><time>2026-04-12T09:30:49Z</time></trkpt><trkpt lat="42.15662024625513" lon="14.458791953235135"><ele>46.42857142857143</ele><time>2026-04-12T09:30:50Z</time></trkpt><trkpt lat="42.15667701763022" lon="14.45883391424698"><ele>46.57142857142857</ele><time>2026-04-12T09:30:51Z</time></trkpt><trkpt lat="42.15673321121304" lon="14.458880766710143"><ele>46.71428571428571</ele><time>2026-04-12T09:30:52Z</time></trkpt><trkpt lat="42.15678517803545" lon="14.458934634032753"><ele>46.857142857142854</ele><time>2026-04-12T09:30:53Z</time></trkpt><trkpt lat="42.15683274191857" lon="14.458991927830132"><ele>47.0</ele><time>2026-04-12T09:30:54Z</time></trkpt><trkpt lat="42.156881329149314" lon="14.459055422232233"><ele>47.0</ele><time>2026-04-12T09:30:55Z</time></trkpt><trkpt lat="42.15692989535815" lon="14.459123472540954"><ele>47.0</ele><time>2026-04-12T09:30:56Z</time></trkpt><trkpt lat="42.156982542760865" lon="14.459195651188447"><ele>47.0</ele><time>2026-04-12T09:30:57Z</time></trkpt><trkpt lat="42.15703331929662" lon="14.459271839465606"><ele>47.0</ele><time>2026-04-12T09:30:58Z</time></trkpt><trkpt lat="42.157083465958806" lon="14.459348191871728"><ele>47.0</ele><time>2026-04-12T09:30:59Z</time></trkpt><trkpt lat="42.157130601244766" lon="14.459422418321203"><ele>47.0</ele><time>2026-04-12T09:31:00Z</time></trkpt><trkpt lat="42.157177966552666" lon="14.459498830747703"><ele>47.0</ele><time>2026-04-12T09:31:01Z</time></trkpt><trkpt lat="42.157226431218746" lon="14.459572311388657"><ele>46.857142857142854</ele><time>2026-04-12T09:31:02Z</time></trkpt><trkpt lat="42.157274125230884" lon="14.459645079585668"><ele>46.71428571428571</ele><time>2026-04-12T09:31:03Z</time></trkpt><trkpt lat="42.15731651981668" lon="14.459720516015288"><ele>46.57142857142857</ele><time>2026-04-12T09:31:04Z</time></trkpt><trkpt lat="42.15736018527676" lon="14.459797086241329"><ele>46.42857142857143</ele><time>2026-04-12T09:31:05Z</time></trkpt><trkpt lat="42.15740635741935" lon="14.459870102581892"><ele>46.285714285714285</ele><time>2026-04-12T09:31:06Z</time></trkpt><trkpt lat="42.15745494443782" lon="14.459938969183503"><ele>46.142857142857146</ele><time>2026-04-12T09:31:07Z</time></trkpt><trkpt lat="42.15750071503575" lon="14.460005937818183"><ele>46.0</ele><time>2026-04-12T09:31:08Z</time></trkpt><trkpt lat="42.1575463944428" lon="14.460070218662572"><ele>46.0</ele><time>2026-04-12T09:31:09Z</time></trkpt><trkpt lat="42.15759051314471" lon="14.460133873443107"><ele>46.0</ele><time>2026-04-12T09:31:10Z</time></trkpt><trkpt lat="42.157632300746734" lon="14.460199514423515"><ele>46.0</ele><time>2026-04-12T09:31:11Z</time></trkpt><trkpt lat="42.15771489069155" lon="14.460325212431258"><ele>46.0</ele><time>2026-04-12T09:31:13Z</time></trkpt><trkpt lat="42.15779923811084" lon="14.460446002172139"><ele>46.0</ele><time>2026-04-12T09:31:15Z</time></trkpt><trkpt lat="42.157878558875424" lon="14.460566581641848"><ele>46.0</ele><time>2026-04-12T09:31:17Z</time></trkpt><trkpt lat="42.15795840309021" lon="14.460690226551861"><ele>46.0</ele><time>2026-04-12T09:31:19Z</time></trkpt><trkpt lat="42.158040827429275" lon="14.460811361139461"><ele>46.0</ele><time>2026-04-12T09:31:21Z</time></trkpt><trkpt lat="42.158083581831015" lon="14.46087622757797"><ele>46.0</ele><time>2026-04-12T09:31:22Z</time></trkpt><trkpt lat="42.158168705373065" lon="14.461002789218272"><ele>46.0</ele><time>2026-04-12T09:31:23.999Z</time></trkpt><trkpt lat="42.158211553517376" lon="14.461065255957402"><ele>46.0</ele><time>2026-04-12T09:31:24.999Z</time></trkpt><trkpt lat="42.15825524481122" lon="14.461131201098722"><ele>46.0</ele><time>2026-04-12T09:31:25.999Z</time></trkpt><trkpt lat="42.15829937047812" lon="14.461195281971845"><ele>46.0</ele><time>2026-04-12T09:31:26.999Z</time></trkpt><trkpt lat="42.15834237551169" lon="14.461258936608811"><ele>46.0</ele><time>2026-04-12T09:31:27.999Z</time></trkpt><trkpt lat="42.15838530183719" lon="14.461322433770102"><ele>46.0</ele><time>2026-04-12T09:31:28.999Z</time></trkpt><trkpt lat="42.1584284813373" lon="14.461384839904236"><ele>46.0</ele><time>2026-04-12T09:31:29.999Z</time></trkpt><trkpt lat="42.15847122676444" lon="14.46144938145082"><ele>46.0</ele><time>2026-04-12T09:31:30.999Z</time></trkpt><trkpt lat="42.15851442541507" lon="14.461514393086965"><ele>46.0</ele><time>2026-04-12T09:31:31.999Z</time></trkpt><trkpt lat="42.15855652466259" lon="14.461579853593204"><ele>46.0</ele><time>2026-04-12T09:31:32.999Z</time></trkpt><trkpt lat="42.15859936818714" lon="14.461644863938034"><ele>46.0</ele><time>2026-04-12T09:31:33.999Z</time></trkpt><trkpt lat="42.15864347245691" lon="14.461709733265266"><ele>46.0</ele><time>2026-04-12T09:31:34.999Z</time></trkpt><trkpt lat="42.15868709788725" lon="14.461774951464875"><ele>46.0</ele><time>2026-04-12T09:31:35.999Z</time></trkpt><trkpt lat="42.15873038173285" lon="14.461840048513348"><ele>46.0</ele><time>2026-04-12T09:31:36.999Z</time></trkpt><trkpt lat="42.158775175476194" lon="14.461904603101395"><ele>46.0</ele><time>2026-04-12T09:31:37.999Z</time></trkpt><trkpt lat="42.158818197902896" lon="14.461971277287722"><ele>46.0</ele><time>2026-04-12T09:31:38.999Z</time></trkpt><trkpt lat="42.158863194762" lon="14.462037592361732"><ele>46.0</ele><time>2026-04-12T09:31:39.999Z</time></trkpt><trkpt lat="42.15890614412962" lon="14.462105546011522"><ele>46.0</ele><time>2026-04-12T09:31:40.999Z</time></trkpt><trkpt lat="42.15895077411271" lon="14.462172121192296"><ele>46.0</ele><time>2026-04-12T09:31:41.999Z</time></trkpt><trkpt lat="42.158993310595235" lon="14.462240363426494"><ele>46.0</ele><time>2026-04-12T09:31:42.999Z</time></trkpt><trkpt lat="42.15903726167431" lon="14.462306570151169"><ele>46.0</ele><time>2026-04-12T09:31:43.999Z</time></trkpt><trkpt lat="42.15908111322103" lon="14.462371883458806"><ele>46.0</ele><time>2026-04-12T09:31:44.999Z</time></trkpt><trkpt lat="42.15912587830896" lon="14.46243752131285"><ele>46.285714285714285</ele><time>2026-04-12T09:31:45.999Z</time></trkpt><trkpt lat="42.15917071239032" lon="14.462503519329186"><ele>46.57142857142857</ele><time>2026-04-12T09:31:46.999Z</time></trkpt><trkpt lat="42.159214358758945" lon="14.462568295082832"><ele>46.857142857142854</ele><time>2026-04-12T09:31:47.999Z</time></trkpt><trkpt lat="42.15925839637521" lon="14.462634560137385"><ele>47.14285714285714</ele><time>2026-04-12T09:31:48.999Z</time></trkpt><trkpt lat="42.15930221243136" lon="14.462698168646114"><ele>47.42857142857143</ele><time>2026-04-12T09:31:49.999Z</time></trkpt><trkpt lat="42.15934500409884" lon="14.46276231894178"><ele>47.71428571428571</ele><time>2026-04-12T09:31:50.999Z</time></trkpt><trkpt lat="42.159387622256915" lon="14.462828955140504"><ele>48.0</ele><time>2026-04-12T09:31:51.999Z</time></trkpt><trkpt lat="42.159430911150466" lon="14.462894006564499"><ele>47.57142857142857</ele><time>2026-04-12T09:31:52.999Z</time></trkpt><trkpt lat="42.159474319965376" lon="14.462958015915174"><ele>47.14285714285714</ele><time>2026-04-12T09:31:53.999Z</time></trkpt><trkpt lat="42.159517868587564" lon="14.463024206870925"><ele>46.71428571428571</ele><time>2026-04-12T09:31:54.999Z</time></trkpt><trkpt lat="42.15956076703434" lon="14.46308947092805"><ele>46.285714285714285</ele><time>2026-04-12T09:31:55.999Z</time></trkpt><trkpt lat="42.15960500635152" lon="14.463152574712893"><ele>45.85714285714286</ele><time>2026-04-12T09:31:56.999Z</time></trkpt><trkpt lat="42.159648326844604" lon="14.463217259185635"><ele>45.42857142857142</ele><time>2026-04-12T09:31:57.999Z</time></trkpt><trkpt lat="42.15969255084409" lon="14.463277739488557"><ele>45.0</ele><time>2026-04-12T09:31:58.999Z</time></trkpt><trkpt lat="42.15973388185157" lon="14.463342286557735"><ele>45.0</ele><time>2026-04-12T09:31:59.999Z</time></trkpt><trkpt lat="42.159777292546984" lon="14.463404173092984"><ele>45.0</ele><time>2026-04-12T09:32:00.999Z</time></trkpt><trkpt lat="42.15981907622251" lon="14.463470223021885"><ele>45.0</ele><time>2026-04-12T09:32:01.999Z</time></trkpt><trkpt lat="42.15990317259958" lon="14.46359383432187"><ele>45.0</ele><time>2026-04-12T09:32:03.999Z</time></trkpt><trkpt lat="42.15994670493634" lon="14.463656161476644"><ele>45.0</ele><time>2026-04-12T09:32:04.999Z</time></trkpt><trkpt lat="42.160030781334484" lon="14.4637806754577"><ele>45.0</ele><time>2026-04-12T09:32:06.999Z</time></trkpt><trkpt lat="42.160115393591724" lon="14.463903627395476"><ele>45.166666666666664</ele><time>2026-04-12T09:32:08.999Z</time></trkpt><trkpt lat="42.1601987933764" lon="14.464022143388028"><ele>45.333333333333336</ele><time>2026-04-12T09:32:10.999Z</time></trkpt><trkpt lat="42.160239417313456" lon="14.46408830697989"><ele>45.5</ele><time>2026-04-12T09:32:11.999Z</time></trkpt><trkpt lat="42.160282942619645" lon="14.464154667016839"><ele>45.66666666666667</ele><time>2026-04-12T09:32:12.999Z</time></trkpt><trkpt lat="42.16036823397465" lon="14.464278788247386"><ele>45.833333333333336</ele><time>2026-04-12T09:32:14.999Z</time></trkpt><trkpt lat="42.16041372889314" lon="14.464344160102407"><ele>46.0</ele><time>2026-04-12T09:32:15.999Z</time></trkpt><trkpt lat="42.16045289014932" lon="14.4644115638008"><ele>46.0</ele><time>2026-04-12T09:32:16.999Z</time></trkpt><trkpt lat="42.160495130972706" lon="14.464476626353562"><ele>46.0</ele><time>2026-04-12T09:32:17.999Z</time></trkpt><trkpt lat="42.16053866808614" lon="14.46453928359955"><ele>46.0</ele><time>2026-04-12T09:32:18.999Z</time></trkpt><trkpt lat="42.160586581079684" lon="14.464604168981426"><ele>46.0</ele><time>2026-04-12T09:32:19.999Z</time></trkpt><trkpt lat="42.160634079190565" lon="14.464668638242857"><ele>46.0</ele><time>2026-04-12T09:32:20.998Z</time></trkpt><trkpt lat="42.16067257173436" lon="14.464738101035366"><ele>46.0</ele><time>2026-04-12T09:32:21.998Z</time></trkpt><trkpt lat="42.160718692696385" lon="14.46480101184582"><ele>46.0</ele><time>2026-04-12T09:32:22.998Z</time></trkpt><trkpt lat="42.160761595251365" lon="14.464863948811276"><ele>46.0</ele><time>2026-04-12T09:32:24Z</time></trkpt><trkpt lat="42.16080370682633" lon="14.464931602801535"><ele>46.0</ele><time>2026-04-12T09:32:25Z</time></trkpt><trkpt lat="42.160847190123974" lon="14.464997626543521"><ele>46.0</ele><time>2026-04-12T09:32:26Z</time></trkpt><trkpt lat="42.160891866573365" lon="14.46506118186737"><ele>46.0</ele><time>2026-04-12T09:32:27Z</time></trkpt><trkpt lat="42.16093745680494" lon="14.465124554712283"><ele>46.0</ele><time>2026-04-12T09:32:28Z</time></trkpt><trkpt lat="42.160980479680305" lon="14.465191043619805"><ele>46.0</ele><time>2026-04-12T09:32:29Z</time></trkpt><trkpt lat="42.16102581746208" lon="14.465254768514622"><ele>46.0</ele><time>2026-04-12T09:32:30Z</time></trkpt><trkpt lat="42.16106904106487" lon="14.465322603649847"><ele>46.0</ele><time>2026-04-12T09:32:31Z</time></trkpt><trkpt lat="42.16111421705236" lon="14.46538964510799"><ele>46.0</ele><time>2026-04-12T09:32:32Z</time></trkpt><trkpt lat="42.1611584569166" lon="14.465454251180978"><ele>46.0</ele><time>2026-04-12T09:32:33Z</time></trkpt><trkpt lat="42.16120413875339" lon="14.465522150071804"><ele>46.0</ele><time>2026-04-12T09:32:34Z</time></trkpt><trkpt lat="42.1612485774216" lon="14.465588049388334"><ele>46.0</ele><time>2026-04-12T09:32:35Z</time></trkpt><trkpt lat="42.16129366697227" lon="14.465653633381368"><ele>46.0</ele><time>2026-04-12T09:32:36Z</time></trkpt><trkpt lat="42.16133706163055" lon="14.465718915203674"><ele>46.0</ele><time>2026-04-12T09:32:37Z</time></trkpt><trkpt lat="42.16138210614519" lon="14.465785296936433"><ele>46.142857142857146</ele><time>2026-04-12T09:32:38Z</time></trkpt><trkpt lat="42.161426366114114" lon="14.465853836913002"><ele>46.285714285714285</ele><time>2026-04-12T09:32:39Z</time></trkpt><trkpt lat="42.16147384021017" lon="14.465922206918483"><ele>46.42857142857143</ele><time>2026-04-12T09:32:40Z</time></trkpt><trkpt lat="42.161519187350905" lon="14.465992590406767"><ele>46.57142857142857</ele><time>2026-04-12T09:32:41Z</time></trkpt><trkpt lat="42.161567856376614" lon="14.466061916854033"><ele>46.71428571428571</ele><time>2026-04-12T09:32:42Z</time></trkpt><trkpt lat="42.161615260164" lon="14.466128041705877"><ele>46.857142857142854</ele><time>2026-04-12T09:32:43Z</time></trkpt><trkpt lat="42.161660815773075" lon="14.46619514559094"><ele>47.0</ele><time>2026-04-12T09:32:44Z</time></trkpt><trkpt lat="42.16170712506869" lon="14.4662661289621"><ele>46.42857142857143</ele><time>2026-04-12T09:32:45Z</time></trkpt><trkpt lat="42.16175258037146" lon="14.466336264236807"><ele>45.857142857142854</ele><time>2026-04-12T09:32:46Z</time></trkpt><trkpt lat="42.16179861477508" lon="14.466402532414797"><ele>45.28571428571429</ele><time>2026-04-12T09:32:47Z</time></trkpt><trkpt lat="42.16184406293349" lon="14.466470978145708"><ele>44.714285714285715</ele><time>2026-04-12T09:32:48Z</time></trkpt><trkpt lat="42.16189028922201" lon="14.466537864527458"><ele>44.142857142857146</ele><time>2026-04-12T09:32:49Z</time></trkpt><trkpt lat="42.161936408872045" lon="14.466605770814944"><ele>43.57142857142858</ele><time>2026-04-12T09:32:50Z</time></trkpt><trkpt lat="42.16198150554565" lon="14.466674158531065"><ele>43.0</ele><time>2026-04-12T09:32:51Z</time></trkpt><trkpt lat="42.16202788393267" lon="14.4667430977604"><ele>43.00000000000001</ele><time>2026-04-12T09:32:52Z</time></trkpt><trkpt lat="42.16207303717661" lon="14.466812694868487"><ele>43.0</ele><time>2026-04-12T09:32:53Z</time></trkpt><trkpt lat="42.162118822334826" lon="14.466878578646343"><ele>43.0</ele><time>2026-04-12T09:32:54Z</time></trkpt><trkpt lat="42.162163702443664" lon="14.46694848757588"><ele>43.0</ele><time>2026-04-12T09:32:55Z</time></trkpt><trkpt lat="42.16220902061549" lon="14.467016099506486"><ele>43.0</ele><time>2026-04-12T09:32:56Z</time></trkpt><trkpt lat="42.162256608762156" lon="14.467083516480853"><ele>43.00000000000001</ele><time>2026-04-12T09:32:57Z</time></trkpt><trkpt lat="42.1623010525514" lon="14.467155121791983"><ele>43.0</ele><time>2026-04-12T09:32:58Z</time></trkpt><trkpt lat="42.1623477184258" lon="14.467223310167123"><ele>43.28571428571429</ele><time>2026-04-12T09:32:59Z</time></trkpt><trkpt lat="42.16239426117274" lon="14.46729125089745"><ele>43.57142857142857</ele><time>2026-04-12T09:33:00Z</time></trkpt><trkpt lat="42.16244049079976" lon="14.467359339170267"><ele>43.85714285714286</ele><time>2026-04-12T09:33:01Z</time></trkpt><trkpt lat="42.162486984296955" lon="14.467426760154604"><ele>44.142857142857146</ele><time>2026-04-12T09:33:02Z</time></trkpt><trkpt lat="42.162532022610606" lon="14.467495789848996"><ele>44.42857142857143</ele><time>2026-04-12T09:33:03Z</time></trkpt><trkpt lat="42.1625788680361" lon="14.467563587748014"><ele>44.714285714285715</ele><time>2026-04-12T09:33:04Z</time></trkpt><trkpt lat="42.162622200447636" lon="14.467633073091635"><ele>45.0</ele><time>2026-04-12T09:33:05Z</time></trkpt><trkpt lat="42.1626674956857" lon="14.467699548468094"><ele>45.0</ele><time>2026-04-12T09:33:06Z</time></trkpt><trkpt lat="42.16271321874626" lon="14.467764758090635"><ele>45.0</ele><time>2026-04-12T09:33:07Z</time></trkpt><trkpt lat="42.162757917008" lon="14.467832694651573"><ele>45.0</ele><time>2026-04-12T09:33:08Z</time></trkpt><trkpt lat="42.1628031761746" lon="14.46789823746754"><ele>45.0</ele><time>2026-04-12T09:33:09Z</time></trkpt><trkpt lat="42.16284825887343" lon="14.467963362602491"><ele>45.0</ele><time>2026-04-12T09:33:10Z</time></trkpt><trkpt lat="42.16289380167885" lon="14.468028859427282"><ele>45.0</ele><time>2026-04-12T09:33:11Z</time></trkpt><trkpt lat="42.1629390081361" lon="14.46809435986779"><ele>45.0</ele><time>2026-04-12T09:33:12Z</time></trkpt><trkpt lat="42.16298316103711" lon="14.468159892502415"><ele>44.833333333333336</ele><time>2026-04-12T09:33:13Z</time></trkpt><trkpt lat="42.16302430677341" lon="14.468226240893983"><ele>44.666666666666664</ele><time>2026-04-12T09:33:14Z</time></trkpt><trkpt lat="42.16306676482135" lon="14.468289696960689"><ele>44.5</ele><time>2026-04-12T09:33:15Z</time></trkpt><trkpt lat="42.16310956698733" lon="14.468356040536861"><ele>44.33333333333333</ele><time>2026-04-12T09:33:16Z</time></trkpt><trkpt lat="42.16315312709796" lon="14.468421409609636"><ele>44.166666666666664</ele><time>2026-04-12T09:33:17Z</time></trkpt><trkpt lat="42.1632420327187" lon="14.468545179646673"><ele>44.0</ele><time>2026-04-12T09:33:19Z</time></trkpt><trkpt lat="42.16328598657562" lon="14.468609121718172"><ele>43.85714285714286</ele><time>2026-04-12T09:33:20Z</time></trkpt><trkpt lat="42.163328114243974" lon="14.468674424673939"><ele>43.714285714285715</ele><time>2026-04-12T09:33:21Z</time></trkpt><trkpt lat="42.16337309292386" lon="14.468740423373692"><ele>43.57142857142857</ele><time>2026-04-12T09:33:22Z</time></trkpt><trkpt lat="42.16341602137508" lon="14.468806068107389"><ele>43.42857142857143</ele><time>2026-04-12T09:33:23Z</time></trkpt><trkpt lat="42.16345964305085" lon="14.468870054080563"><ele>43.285714285714285</ele><time>2026-04-12T09:33:23.999Z</time></trkpt><trkpt lat="42.163504803518265" lon="14.46893381991834"><ele>43.142857142857146</ele><time>2026-04-12T09:33:24.999Z</time></trkpt><trkpt lat="42.163547632156124" lon="14.46899997084687"><ele>43.0</ele><time>2026-04-12T09:33:25.999Z</time></trkpt><trkpt lat="42.16359211504691" lon="14.469063539521333"><ele>42.85714285714286</ele><time>2026-04-12T09:33:26.999Z</time></trkpt><trkpt lat="42.1636330777696" lon="14.469129109137933"><ele>42.714285714285715</ele><time>2026-04-12T09:33:27.999Z</time></trkpt><trkpt lat="42.163674319186875" lon="14.46919344495477"><ele>42.57142857142857</ele><time>2026-04-12T09:33:28.999Z</time></trkpt><trkpt lat="42.1637160162785" lon="14.469261623015226"><ele>42.42857142857143</ele><time>2026-04-12T09:33:29.999Z</time></trkpt><trkpt lat="42.16375858874445" lon="14.469324568656383"><ele>42.285714285714285</ele><time>2026-04-12T09:33:30.999Z</time></trkpt><trkpt lat="42.163803033307126" lon="14.469389762219778"><ele>42.142857142857146</ele><time>2026-04-12T09:33:31.999Z</time></trkpt><trkpt lat="42.163847052746114" lon="14.469456107197045"><ele>42.0</ele><time>2026-04-12T09:33:32.999Z</time></trkpt><trkpt lat="42.16388916072127" lon="14.469520968997355"><ele>42.0</ele><time>2026-04-12T09:33:33.999Z</time></trkpt><trkpt lat="42.16393475049203" lon="14.469585321209552"><ele>42.0</ele><time>2026-04-12T09:33:34.999Z</time></trkpt><trkpt lat="42.163978480386916" lon="14.46964959895512"><ele>42.0</ele><time>2026-04-12T09:33:35.999Z</time></trkpt><trkpt lat="42.16402239470826" lon="14.469714062433262"><ele>42.0</ele><time>2026-04-12T09:33:36.999Z</time></trkpt><trkpt lat="42.16406828021519" lon="14.469780506815294"><ele>42.0</ele><time>2026-04-12T09:33:37.999Z</time></trkpt><trkpt lat="42.164112677906516" lon="14.469849654852085"><ele>42.0</ele><time>2026-04-12T09:33:38.999Z</time></trkpt><trkpt lat="42.16415497236771" lon="14.469916407376386"><ele>42.0</ele><time>2026-04-12T09:33:39.999Z</time></trkpt><trkpt lat="42.16420020142343" lon="14.469982165418793"><ele>42.0</ele><time>2026-04-12T09:33:40.999Z</time></trkpt><trkpt lat="42.16424314108776" lon="14.470050337175211"><ele>42.0</ele><time>2026-04-12T09:33:41.999Z</time></trkpt><trkpt lat="42.16429109731051" lon="14.470119474725823"><ele>42.0</ele><time>2026-04-12T09:33:42.999Z</time></trkpt><trkpt lat="42.16433500606197" lon="14.470186298499915"><ele>42.0</ele><time>2026-04-12T09:33:43.999Z</time></trkpt><trkpt lat="42.16438094023903" lon="14.470252844987346"><ele>42.0</ele><time>2026-04-12T09:33:44.999Z</time></trkpt><trkpt lat="42.16442608684635" lon="14.47032044477245"><ele>42.0</ele><time>2026-04-12T09:33:45.999Z</time></trkpt><trkpt lat="42.16447292089321" lon="14.470387291363057"><ele>42.0</ele><time>2026-04-12T09:33:46.999Z</time></trkpt><trkpt lat="42.16451752476904" lon="14.470454074773201"><ele>42.0</ele><time>2026-04-12T09:33:47.999Z</time></trkpt><trkpt lat="42.164560724442524" lon="14.47052403188669"><ele>42.0</ele><time>2026-04-12T09:33:48.999Z</time></trkpt><trkpt lat="42.16460636794377" lon="14.470586561313922"><ele>42.0</ele><time>2026-04-12T09:33:49.999Z</time></trkpt><trkpt lat="42.16465082760235" lon="14.470649795785747"><ele>42.0</ele><time>2026-04-12T09:33:50.999Z</time></trkpt><trkpt lat="42.16469654157197" lon="14.470713620961437"><ele>42.0</ele><time>2026-04-12T09:33:51.999Z</time></trkpt><trkpt lat="42.16474032946376" lon="14.47077827659565"><ele>42.0</ele><time>2026-04-12T09:33:52.999Z</time></trkpt><trkpt lat="42.16478315889624" lon="14.47084595810835"><ele>42.0</ele><time>2026-04-12T09:33:53.999Z</time></trkpt><trkpt lat="42.1648258738964" lon="14.470910280094788"><ele>42.0</ele><time>2026-04-12T09:33:54.999Z</time></trkpt><trkpt lat="42.16486952549964" lon="14.470973285126703"><ele>42.0</ele><time>2026-04-12T09:33:55.999Z</time></trkpt><trkpt lat="42.16491391698547" lon="14.471039406601317"><ele>42.0</ele><time>2026-04-12T09:33:56.999Z</time></trkpt><trkpt lat="42.16495738531458" lon="14.471103956830301"><ele>42.0</ele><time>2026-04-12T09:33:57.999Z</time></trkpt><trkpt lat="42.165002565888386" lon="14.471169163895905"><ele>42.0</ele><time>2026-04-12T09:33:58.999Z</time></trkpt><trkpt lat="42.165045630577296" lon="14.471236577543394"><ele>42.0</ele><time>2026-04-12T09:33:59.999Z</time></trkpt><trkpt lat="42.16508956512667" lon="14.471302793464774"><ele>42.0</ele><time>2026-04-12T09:34:00.999Z</time></trkpt><trkpt lat="42.165132279898394" lon="14.471366906817497"><ele>42.0</ele><time>2026-04-12T09:34:01.999Z</time></trkpt><trkpt lat="42.16517560441399" lon="14.471430809013432"><ele>42.0</ele><time>2026-04-12T09:34:02.999Z</time></trkpt><trkpt lat="42.16521802545423" lon="14.471494921616593"><ele>42.0</ele><time>2026-04-12T09:34:03.999Z</time></trkpt><trkpt lat="42.16526294223844" lon="14.47155885388343"><ele>42.0</ele><time>2026-04-12T09:34:04.999Z</time></trkpt><trkpt lat="42.16530584799909" lon="14.471622445237832"><ele>42.0</ele><time>2026-04-12T09:34:05.999Z</time></trkpt><trkpt lat="42.165383859966234" lon="14.471741208452416"><ele>42.0</ele><time>2026-04-12T09:34:07.999Z</time></trkpt><trkpt lat="42.16545199425344" lon="14.471855275957857"><ele>42.0</ele><time>2026-04-12T09:34:09.999Z</time></trkpt><trkpt lat="42.1654339732737" lon="14.471985389718718"><ele>42.0</ele><time>2026-04-12T09:34:11.999Z</time></trkpt><trkpt lat="42.165347515768126" lon="14.472056104070354"><ele>42.0</ele><time>2026-04-12T09:34:13.999Z</time></trkpt><trkpt lat="42.16526577261176" lon="14.472123172274625"><ele>42.0</ele><time>2026-04-12T09:34:15.999Z</time></trkpt><trkpt lat="42.165186292393564" lon="14.472187932757928"><ele>42.0</ele><time>2026-04-12T09:34:17.999Z</time></trkpt><trkpt lat="42.16510562843949" lon="14.4722526820134"><ele>41.8</ele><time>2026-04-12T09:34:19.999Z</time></trkpt><trkpt lat="42.165018188203064" lon="14.472325612161539"><ele>41.6</ele><time>2026-04-12T09:34:21.998Z</time></trkpt><trkpt lat="42.16493178422356" lon="14.472392725120164"><ele>41.4</ele><time>2026-04-12T09:34:23.998Z</time></trkpt><trkpt lat="42.164843993855584" lon="14.472461940790923"><ele>41.199999999999996</ele><time>2026-04-12T09:34:25.998Z</time></trkpt><trkpt lat="42.16475519514737" lon="14.472521308061504"><ele>41.0</ele><time>2026-04-12T09:34:27.998Z</time></trkpt><trkpt lat="42.16466591282657" lon="14.472590020766187"><ele>40.8</ele><time>2026-04-12T09:34:30Z</time></trkpt><trkpt lat="42.16457461368964" lon="14.472643379987597"><ele>40.599999999999994</ele><time>2026-04-12T09:34:32Z</time></trkpt><trkpt lat="42.16448188817611" lon="14.47269839047429"><ele>40.4</ele><time>2026-04-12T09:34:34Z</time></trkpt><trkpt lat="42.164384337998676" lon="14.472744200328309"><ele>40.2</ele><time>2026-04-12T09:34:36Z</time></trkpt><trkpt lat="42.164288347339685" lon="14.472787860110621"><ele>40.0</ele><time>2026-04-12T09:34:38Z</time></trkpt><trkpt lat="42.16419348951083" lon="14.47283555864279"><ele>40.0</ele><time>2026-04-12T09:34:40Z</time></trkpt><trkpt lat="42.16409610609083" lon="14.472879972830562"><ele>40.0</ele><time>2026-04-12T09:34:42Z</time></trkpt><trkpt lat="42.163999028925495" lon="14.472924039530822"><ele>40.0</ele><time>2026-04-12T09:34:44Z</time></trkpt><trkpt lat="42.16390375882397" lon="14.472967471446777"><ele>40.0</ele><time>2026-04-12T09:34:46Z</time></trkpt><trkpt lat="42.163808879156484" lon="14.473010230733278"><ele>40.0</ele><time>2026-04-12T09:34:48Z</time></trkpt><trkpt lat="42.16371284423003" lon="14.473048654013118"><ele>40.4</ele><time>2026-04-12T09:34:50Z</time></trkpt><trkpt lat="42.163620808429584" lon="14.473090693935003"><ele>40.8</ele><time>2026-04-12T09:34:52Z</time></trkpt><trkpt lat="42.163528260771024" lon="14.473133778001777"><ele>41.2</ele><time>2026-04-12T09:34:54Z</time></trkpt><trkpt lat="42.16343860940951" lon="14.473172487728581"><ele>41.6</ele><time>2026-04-12T09:34:56Z</time></trkpt><trkpt lat="42.163348071545734" lon="14.47321529908952"><ele>42.0</ele><time>2026-04-12T09:34:58Z</time></trkpt><trkpt lat="42.16325563897811" lon="14.473254261111451"><ele>41.833333333333336</ele><time>2026-04-12T09:35:00Z</time></trkpt><trkpt lat="42.163169143547" lon="14.473294718817865"><ele>41.666666666666664</ele><time>2026-04-12T09:35:02Z</time></trkpt><trkpt lat="42.16309237906607" lon="14.473323902515386"><ele>41.5</ele><time>2026-04-12T09:35:04Z</time></trkpt><trkpt lat="42.16302334199474" lon="14.47328273654273"><ele>41.33333333333333</ele><time>2026-04-12T09:35:07Z</time></trkpt><trkpt lat="42.16298756570469" lon="14.47320448314653"><ele>41.166666666666664</ele><time>2026-04-12T09:35:10Z</time></trkpt><trkpt lat="42.16293427848453" lon="14.473137032848133"><ele>41.0</ele><time>2026-04-12T09:35:13Z</time></trkpt><trkpt lat="42.16287869034885" lon="14.473065906614435"><ele>41.0</ele><time>2026-04-12T09:35:16Z</time></trkpt><trkpt lat="42.16283732094193" lon="14.47298323946838"><ele>41.0</ele><time>2026-04-12T09:35:19Z</time></trkpt><trkpt lat="42.16279969225375" lon="14.472913673027795"><ele>41.0</ele><time>2026-04-12T09:35:22Z</time></trkpt><trkpt lat="42.162750304388254" lon="14.472826984299429"><ele>41.0</ele><time>2026-04-12T09:35:26Z</time></trkpt><trkpt lat="42.162681353533195" lon="14.472800810816839"><ele>41.0</ele><time>2026-04-12T09:35:29.999Z</time></trkpt><trkpt lat="42.16262956587129" lon="14.472717578814722"><ele>41.0</ele><time>2026-04-12T09:39:05Z</time></trkpt><trkpt lat="42.1627093119235" lon="14.472731267530051"><ele>40.99999999999999</ele><time>2026-04-12T09:46:12.999Z</time></trkpt><trkpt lat="42.16276288814209" lon="14.472829187173101"><ele>41.0</ele><time>2026-04-12T09:46:45.998Z</time></trkpt><trkpt lat="42.162789487899005" lon="14.472911354504097"><ele>41.0</ele><time>2026-04-12T09:46:47.998Z</time></trkpt><trkpt lat="42.16282804177367" lon="14.472989723079579"><ele>41.0</ele><time>2026-04-12T09:46:49.998Z</time></trkpt><trkpt lat="42.16287728328461" lon="14.473059229182253"><ele>41.0</ele><time>2026-04-12T09:46:51.998Z</time></trkpt><trkpt lat="42.16292939151079" lon="14.473127233441796"><ele>40.99999999999999</ele><time>2026-04-12T09:46:53.998Z</time></trkpt><trkpt lat="42.16297998711198" lon="14.47319163678324"><ele>41.0</ele><time>2026-04-12T09:46:55.998Z</time></trkpt><trkpt lat="42.16300178501535" lon="14.473271807797756"><ele>41.0</ele><time>2026-04-12T09:46:57.998Z</time></trkpt><trkpt lat="42.16297146707513" lon="14.473368603872558"><ele>41.0</ele><time>2026-04-12T09:46:59.998Z</time></trkpt><trkpt lat="42.16288697004695" lon="14.473418475382138"><ele>41.0</ele><time>2026-04-12T09:47:01.998Z</time></trkpt><trkpt lat="42.162813149946246" lon="14.47347721877167"><ele>41.0</ele><time>2026-04-12T09:47:03.998Z</time></trkpt><trkpt lat="42.16274191308654" lon="14.47355206833478"><ele>41.0</ele><time>2026-04-12T09:47:06Z</time></trkpt><trkpt lat="42.16266419945814" lon="14.473625638167213"><ele>41.0</ele><time>2026-04-12T09:47:08Z</time></trkpt><trkpt lat="42.162590023121595" lon="14.473713288302434"><ele>41.199999999999996</ele><time>2026-04-12T09:47:10Z</time></trkpt><trkpt lat="42.162511358844306" lon="14.473802743838316"><ele>41.4</ele><time>2026-04-12T09:47:12Z</time></trkpt><trkpt lat="42.16242920690905" lon="14.473886788832903"><ele>41.6</ele><time>2026-04-12T09:47:14Z</time></trkpt><trkpt lat="42.16234863714594" lon="14.473973835627612"><ele>41.8</ele><time>2026-04-12T09:47:16Z</time></trkpt><trkpt lat="42.16227278008946" lon="14.474065690394353"><ele>42.0</ele><time>2026-04-12T09:47:18Z</time></trkpt><trkpt lat="42.16219647070506" lon="14.47415640201661"><ele>42.0</ele><time>2026-04-12T09:47:20Z</time></trkpt><trkpt lat="42.16212553625314" lon="14.474251529494783"><ele>42.0</ele><time>2026-04-12T09:47:22Z</time></trkpt><trkpt lat="42.162065462409835" lon="14.474357770951935"><ele>42.0</ele><time>2026-04-12T09:47:24Z</time></trkpt><trkpt lat="42.16200918133387" lon="14.474460338605807"><ele>42.0</ele><time>2026-04-12T09:47:26Z</time></trkpt><trkpt lat="42.161955303732974" lon="14.474569805604379"><ele>42.0</ele><time>2026-04-12T09:47:28Z</time></trkpt><trkpt lat="42.161901415777" lon="14.474690812339096"><ele>42.0</ele><time>2026-04-12T09:47:30Z</time></trkpt><trkpt lat="42.161844429170706" lon="14.47481303434294"><ele>42.0</ele><time>2026-04-12T09:47:32Z</time></trkpt><trkpt lat="42.16178879248822" lon="14.47493726051977"><ele>42.0</ele><time>2026-04-12T09:47:34Z</time></trkpt><trkpt lat="42.16173057672142" lon="14.475062407054153"><ele>42.0</ele><time>2026-04-12T09:47:36Z</time></trkpt><trkpt lat="42.161675583658955" lon="14.47519237299835"><ele>42.0</ele><time>2026-04-12T09:47:38Z</time></trkpt><trkpt lat="42.161618516509186" lon="14.475320475475167"><ele>42.400000000000006</ele><time>2026-04-12T09:47:40Z</time></trkpt><trkpt lat="42.16155959423434" lon="14.475450537613376"><ele>42.800000000000004</ele><time>2026-04-12T09:47:42Z</time></trkpt><trkpt lat="42.16150066390182" lon="14.475575163816368"><ele>43.2</ele><time>2026-04-12T09:47:44Z</time></trkpt><trkpt lat="42.161445789404326" lon="14.475704600609804"><ele>43.6</ele><time>2026-04-12T09:47:45.999Z</time></trkpt><trkpt lat="42.16138848641732" lon="14.475832217088573"><ele>44.0</ele><time>2026-04-12T09:47:47.999Z</time></trkpt><trkpt lat="42.161331296752664" lon="14.47596206679923"><ele>44.0</ele><time>2026-04-12T09:47:49.999Z</time></trkpt><trkpt lat="42.16127623250195" lon="14.476089114829865"><ele>44.0</ele><time>2026-04-12T09:47:51.999Z</time></trkpt><trkpt lat="42.16122423858482" lon="14.476211528014842"><ele>44.0</ele><time>2026-04-12T09:47:53.999Z</time></trkpt><trkpt lat="42.161149776099215" lon="14.47630878506253"><ele>44.0</ele><time>2026-04-12T09:47:55.999Z</time></trkpt><trkpt lat="42.161050076313536" lon="14.476350661795536"><ele>44.0</ele><time>2026-04-12T09:47:57.999Z</time></trkpt><trkpt lat="42.16093400608503" lon="14.476325963039088"><ele>44.0</ele><time>2026-04-12T09:47:59.999Z</time></trkpt><trkpt lat="42.160830015154936" lon="14.476248897019115"><ele>44.0</ele><time>2026-04-12T09:48:01.999Z</time></trkpt><trkpt lat="42.16072978506506" lon="14.476166954744148"><ele>44.0</ele><time>2026-04-12T09:48:03.999Z</time></trkpt><trkpt lat="42.16062852619517" lon="14.476086138789324"><ele>44.0</ele><time>2026-04-12T09:48:05.999Z</time></trkpt><trkpt lat="42.16052488325257" lon="14.476006179081006"><ele>44.0</ele><time>2026-04-12T09:48:07.999Z</time></trkpt><trkpt lat="42.16041928969864" lon="14.475932207672262"><ele>44.0</ele><time>2026-04-12T09:48:09.999Z</time></trkpt><trkpt lat="42.16030286259459" lon="14.47588761188205"><ele>44.0</ele><time>2026-04-12T09:48:11.999Z</time></trkpt><trkpt lat="42.16018758587279" lon="14.475839864131402"><ele>44.0</ele><time>2026-04-12T09:48:13.999Z</time></trkpt><trkpt lat="42.16012744101609" lon="14.47580911718416"><ele>44.0</ele><time>2026-04-12T09:48:14.999Z</time></trkpt><trkpt lat="42.16006579705456" lon="14.475782597705507"><ele>44.0</ele><time>2026-04-12T09:48:15.999Z</time></trkpt><trkpt lat="42.1600050929316" lon="14.475758926497363"><ele>44.0</ele><time>2026-04-12T09:48:16.999Z</time></trkpt><trkpt lat="42.15988882202964" lon="14.475706060469658"><ele>44.0</ele><time>2026-04-12T09:48:18.999Z</time></trkpt><trkpt lat="42.159778142388454" lon="14.475658139222672"><ele>44.0</ele><time>2026-04-12T09:48:20.999Z</time></trkpt><trkpt lat="42.15967306223012" lon="14.475613019038871"><ele>44.0</ele><time>2026-04-12T09:48:22.999Z</time></trkpt><trkpt lat="42.15956935645153" lon="14.47556629712728"><ele>44.25</ele><time>2026-04-12T09:48:24.999Z</time></trkpt><trkpt lat="42.15946537068897" lon="14.475518262502156"><ele>44.5</ele><time>2026-04-12T09:48:26.999Z</time></trkpt><trkpt lat="42.15935979834204" lon="14.475467928176917"><ele>44.75</ele><time>2026-04-12T09:48:28.999Z</time></trkpt><trkpt lat="42.1592532682293" lon="14.475419014567983"><ele>45.0</ele><time>2026-04-12T09:48:30.999Z</time></trkpt><trkpt lat="42.15914356807247" lon="14.47536631315407"><ele>45.25</ele><time>2026-04-12T09:48:32.999Z</time></trkpt><trkpt lat="42.15903382045241" lon="14.475318962808332"><ele>45.5</ele><time>2026-04-12T09:48:34.999Z</time></trkpt><trkpt lat="42.15892679099856" lon="14.475275986662599"><ele>45.75</ele><time>2026-04-12T09:48:36.999Z</time></trkpt><trkpt lat="42.15882068546274" lon="14.475223813599001"><ele>46.0</ele><time>2026-04-12T09:48:38.999Z</time></trkpt><trkpt lat="42.15871201381425" lon="14.475179482041176"><ele>46.0</ele><time>2026-04-12T09:48:40.998Z</time></trkpt><trkpt lat="42.15860067397352" lon="14.47513438666242"><ele>46.0</ele><time>2026-04-12T09:48:42.998Z</time></trkpt><trkpt lat="42.158491969739956" lon="14.47508346239265"><ele>46.0</ele><time>2026-04-12T09:48:44.998Z</time></trkpt><trkpt lat="42.1583804515772" lon="14.475021020505478"><ele>46.0</ele><time>2026-04-12T09:48:46.998Z</time></trkpt><trkpt lat="42.15826943796669" lon="14.474958748596174"><ele>45.75</ele><time>2026-04-12T09:48:48.998Z</time></trkpt><trkpt lat="42.158167736403534" lon="14.474877068186691"><ele>45.5</ele><time>2026-04-12T09:48:50.998Z</time></trkpt><trkpt lat="42.158070551678975" lon="14.474788866305504"><ele>45.25</ele><time>2026-04-12T09:48:52.998Z</time></trkpt><trkpt lat="42.15797560287627" lon="14.474701623542034"><ele>45.0</ele><time>2026-04-12T09:48:54.998Z</time></trkpt><trkpt lat="42.157881248690096" lon="14.474614637618316"><ele>44.75</ele><time>2026-04-12T09:48:56.998Z</time></trkpt><trkpt lat="42.15778760579061" lon="14.474527548228572"><ele>44.5</ele><time>2026-04-12T09:48:58.998Z</time></trkpt><trkpt lat="42.15769714036272" lon="14.4744385073611"><ele>44.25</ele><time>2026-04-12T09:49:00.998Z</time></trkpt><trkpt lat="42.1576048456975" lon="14.474350453649654"><ele>44.0</ele><time>2026-04-12T09:49:02.998Z</time></trkpt><trkpt lat="42.15751470368827" lon="14.474261452232305"><ele>44.0</ele><time>2026-04-12T09:49:04.998Z</time></trkpt><trkpt lat="42.15742111556813" lon="14.474173680398152"><ele>44.0</ele><time>2026-04-12T09:49:06.998Z</time></trkpt><trkpt lat="42.157324003067735" lon="14.474086907165498"><ele>44.0</ele><time>2026-04-12T09:49:08.998Z</time></trkpt><trkpt lat="42.157224677827564" lon="14.474016651740104"><ele>44.0</ele><time>2026-04-12T09:49:10.998Z</time></trkpt><trkpt lat="42.15711380122618" lon="14.473972984854289"><ele>44.0</ele><time>2026-04-12T09:49:13Z</time></trkpt><trkpt lat="42.15700001309393" lon="14.473967535183698"><ele>44.0</ele><time>2026-04-12T09:49:15Z</time></trkpt><trkpt lat="42.156886205436095" lon="14.473988095712082"><ele>44.0</ele><time>2026-04-12T09:49:17Z</time></trkpt><trkpt lat="42.156773303881906" lon="14.474011868935053"><ele>44.0</ele><time>2026-04-12T09:49:19Z</time></trkpt><trkpt lat="42.15666330807154" lon="14.47404338441827"><ele>44.0</ele><time>2026-04-12T09:49:21Z</time></trkpt><trkpt lat="42.156554184733814" lon="14.474067100587662"><ele>44.0</ele><time>2026-04-12T09:49:23Z</time></trkpt><trkpt lat="42.156446379669056" lon="14.474090434582365"><ele>44.0</ele><time>2026-04-12T09:49:25Z</time></trkpt><trkpt lat="42.15633814443961" lon="14.474111185220412"><ele>44.0</ele><time>2026-04-12T09:49:27Z</time></trkpt><trkpt lat="42.15622927118677" lon="14.474121711824324"><ele>44.0</ele><time>2026-04-12T09:49:29Z</time></trkpt><trkpt lat="42.1561197387971" lon="14.474114416213945"><ele>44.2</ele><time>2026-04-12T09:49:31Z</time></trkpt><trkpt lat="42.156018269758896" lon="14.47408279643583"><ele>44.400000000000006</ele><time>2026-04-12T09:49:33Z</time></trkpt><trkpt lat="42.155923039379125" lon="14.474041898660962"><ele>44.6</ele><time>2026-04-12T09:49:35Z</time></trkpt><trkpt lat="42.15582815887637" lon="14.473997396013129"><ele>44.8</ele><time>2026-04-12T09:49:37Z</time></trkpt><trkpt lat="42.155732221229876" lon="14.473945941560233"><ele>45.0</ele><time>2026-04-12T09:49:39Z</time></trkpt><trkpt lat="42.155635848093404" lon="14.473899216085082"><ele>45.8</ele><time>2026-04-12T09:49:41Z</time></trkpt><trkpt lat="42.15553985159712" lon="14.473848486967306"><ele>46.6</ele><time>2026-04-12T09:49:43Z</time></trkpt><trkpt lat="42.15544613234678" lon="14.473801751256246"><ele>47.400000000000006</ele><time>2026-04-12T09:49:44.999Z</time></trkpt><trkpt lat="42.155353760126665" lon="14.473759831992869"><ele>48.2</ele><time>2026-04-12T09:49:46.999Z</time></trkpt><trkpt lat="42.15526144783745" lon="14.473720516540148"><ele>49.0</ele><time>2026-04-12T09:49:48.999Z</time></trkpt><trkpt lat="42.15516487817836" lon="14.47368590758522"><ele>49.0</ele><time>2026-04-12T09:49:50.999Z</time></trkpt><trkpt lat="42.15506516311435" lon="14.473661940682218"><ele>49.0</ele><time>2026-04-12T09:49:52.999Z</time></trkpt><trkpt lat="42.15496522001703" lon="14.473638375000306"><ele>49.0</ele><time>2026-04-12T09:49:54.999Z</time></trkpt><trkpt lat="42.154864439572926" lon="14.473618619228"><ele>49.0</ele><time>2026-04-12T09:49:56.999Z</time></trkpt><trkpt lat="42.15476182364397" lon="14.473603097819248"><ele>49.0</ele><time>2026-04-12T09:49:58.999Z</time></trkpt><trkpt lat="42.15466160690707" lon="14.473586505377687"><ele>48.800000000000004</ele><time>2026-04-12T09:50:00.999Z</time></trkpt><trkpt lat="42.15455966966634" lon="14.473569406814219"><ele>48.6</ele><time>2026-04-12T09:50:02.999Z</time></trkpt><trkpt lat="42.15446138586848" lon="14.473549859140682"><ele>48.4</ele><time>2026-04-12T09:50:04.999Z</time></trkpt><trkpt lat="42.15436180621278" lon="14.47353418522812"><ele>48.2</ele><time>2026-04-12T09:50:06.999Z</time></trkpt><trkpt lat="42.15426430144518" lon="14.473516034797692"><ele>48.0</ele><time>2026-04-12T09:50:08.999Z</time></trkpt><trkpt lat="42.15417048991447" lon="14.473498444585623"><ele>48.0</ele><time>2026-04-12T09:50:10.999Z</time></trkpt><trkpt lat="42.15408056119699" lon="14.473483864906056"><ele>48.0</ele><time>2026-04-12T09:50:12.999Z</time></trkpt><trkpt lat="42.15399752152121" lon="14.473466437198365"><ele>48.0</ele><time>2026-04-12T09:50:14.999Z</time></trkpt><trkpt lat="42.15391920655493" lon="14.473447924146498"><ele>48.0</ele><time>2026-04-12T09:50:16.999Z</time></trkpt><trkpt lat="42.15384663848496" lon="14.473429642778736"><ele>48.0</ele><time>2026-04-12T09:50:18.999Z</time></trkpt><trkpt lat="42.15377758705113" lon="14.473409013049746"><ele>48.0</ele><time>2026-04-12T09:50:20.999Z</time></trkpt><trkpt lat="42.15371351671677" lon="14.473401611401346"><ele>48.833333333333336</ele><time>2026-04-12T09:50:22.999Z</time></trkpt><trkpt lat="42.15362804430196" lon="14.473399672321344"><ele>49.66666666666667</ele><time>2026-04-12T09:50:25.999Z</time></trkpt><trkpt lat="42.15356113683446" lon="14.473394563587876"><ele>50.5</ele><time>2026-04-12T09:50:28.999Z</time></trkpt><trkpt lat="42.1534856402849" lon="14.473386227123427"><ele>51.333333333333336</ele><time>2026-04-12T09:50:31.999Z</time></trkpt><trkpt lat="42.15340292390811" lon="14.473388195696533"><ele>52.16666666666667</ele><time>2026-04-12T09:50:34.999Z</time></trkpt><trkpt lat="42.153325073930056" lon="14.473403232993004"><ele>53.0</ele><time>2026-04-12T09:50:37.999Z</time></trkpt><trkpt lat="42.153258518487306" lon="14.473443621397456"><ele>54.142857142857146</ele><time>2026-04-12T09:50:40.998Z</time></trkpt><trkpt lat="42.15319635183683" lon="14.473479207294035"><ele>55.28571428571428</ele><time>2026-04-12T09:50:43.998Z</time></trkpt><trkpt lat="42.153126125579995" lon="14.473536349658353"><ele>56.42857142857142</ele><time>2026-04-12T09:50:47.998Z</time></trkpt><trkpt lat="42.15307046010692" lon="14.473582235176512"><ele>57.57142857142857</ele><time>2026-04-12T09:50:51.998Z</time></trkpt><trkpt lat="42.153012518026074" lon="14.473631173124467"><ele>58.71428571428571</ele><time>2026-04-12T09:50:55.998Z</time></trkpt><trkpt lat="42.152944022705725" lon="14.473684316530512"><ele>59.85714285714285</ele><time>2026-04-12T09:50:59.998Z</time></trkpt><trkpt lat="42.15287947599541" lon="14.473739529123277"><ele>60.99999999999999</ele><time>2026-04-12T09:51:03.998Z</time></trkpt><trkpt lat="42.15281255352756" lon="14.473803584054524"><ele>61.166666666666664</ele><time>2026-04-12T09:51:07.998Z</time></trkpt><trkpt lat="42.15274493358332" lon="14.47386159870004"><ele>61.33333333333333</ele><time>2026-04-12T09:51:11.998Z</time></trkpt><trkpt lat="42.152688899217324" lon="14.473914607355384"><ele>61.5</ele><time>2026-04-12T09:51:15.998Z</time></trkpt><trkpt lat="42.15261443911403" lon="14.473972400951578"><ele>61.66666666666667</ele><time>2026-04-12T09:51:20Z</time></trkpt><trkpt lat="42.152554478950734" lon="14.474017574422895"><ele>61.833333333333336</ele><time>2026-04-12T09:51:23Z</time></trkpt><trkpt lat="42.15249013356547" lon="14.474074056631553"><ele>62.0</ele><time>2026-04-12T09:51:27Z</time></trkpt><trkpt lat="42.15241468539527" lon="14.474130413482122"><ele>62.0</ele><time>2026-04-12T09:51:31Z</time></trkpt><trkpt lat="42.15236029017997" lon="14.474188874963323"><ele>62.00000000000001</ele><time>2026-04-12T09:51:35Z</time></trkpt><trkpt lat="42.152368468582885" lon="14.474285789414512"><ele>62.0</ele><time>2026-04-12T09:51:39Z</time></trkpt><trkpt lat="42.15241297266534" lon="14.474350296356846"><ele>62.0</ele><time>2026-04-12T09:51:43Z</time></trkpt><trkpt lat="42.152476217767976" lon="14.47443884908528"><ele>62.00000000000001</ele><time>2026-04-12T09:51:47Z</time></trkpt><trkpt lat="42.15252448679062" lon="14.474503430355584"><ele>62.0</ele><time>2026-04-12T09:51:50.999Z</time></trkpt><trkpt lat="42.152572151467524" lon="14.47458622101291"><ele>62.0</ele><time>2026-04-12T09:51:53.999Z</time></trkpt><trkpt lat="42.152628720248636" lon="14.474666177092534"><ele>62.142857142857146</ele><time>2026-04-12T09:51:57.999Z</time></trkpt><trkpt lat="42.15267903534235" lon="14.474721287898744"><ele>62.28571428571429</ele><time>2026-04-12T09:52:00.999Z</time></trkpt><trkpt lat="42.15272269763437" lon="14.474807218172286"><ele>62.42857142857143</ele><time>2026-04-12T09:52:04.999Z</time></trkpt><trkpt lat="42.15277617169454" lon="14.474876868946536"><ele>62.57142857142857</ele><time>2026-04-12T09:52:08.999Z</time></trkpt><trkpt lat="42.15282406646454" lon="14.474944648822415"><ele>62.714285714285715</ele><time>2026-04-12T09:52:12.999Z</time></trkpt><trkpt lat="42.152880986644945" lon="14.47501280990547"><ele>62.85714285714286</ele><time>2026-04-12T09:52:16.999Z</time></trkpt><trkpt lat="42.15293197692805" lon="14.475090751867535"><ele>63.0</ele><time>2026-04-12T09:52:19.999Z</time></trkpt><trkpt lat="42.152982135170646" lon="14.47514960714691"><ele>63.0</ele><time>2026-04-12T09:52:22.999Z</time></trkpt><trkpt lat="42.15303653842139" lon="14.475195846225358"><ele>63.0</ele><time>2026-04-12T09:52:25.999Z</time></trkpt><trkpt lat="42.153093899191596" lon="14.475267005962449"><ele>63.0</ele><time>2026-04-12T09:52:29.999Z</time></trkpt><trkpt lat="42.15316027227286" lon="14.475288832199867"><ele>63.0</ele><time>2026-04-12T09:52:34.999Z</time></trkpt><trkpt lat="42.1531901782484" lon="14.475379509085199"><ele>63.0</ele><time>2026-04-12T09:53:49.999Z</time></trkpt><trkpt lat="42.15322464081704" lon="14.475450584264573"><ele>63.0</ele><time>2026-04-12T09:53:52.999Z</time></trkpt><trkpt lat="42.15328762498689" lon="14.475518675660936"><ele>63.0</ele><time>2026-04-12T09:53:56.999Z</time></trkpt><trkpt lat="42.15333192669889" lon="14.475581876791138"><ele>63.85714285714286</ele><time>2026-04-12T09:53:59.999Z</time></trkpt><trkpt lat="42.153376158705" lon="14.47564953679944"><ele>64.71428571428572</ele><time>2026-04-12T09:54:02.999Z</time></trkpt><trkpt lat="42.15342175705745" lon="14.475745654037274"><ele>65.57142857142857</ele><time>2026-04-12T09:54:06.999Z</time></trkpt><trkpt lat="42.15346383770614" lon="14.475815457939785"><ele>66.42857142857143</ele><time>2026-04-12T09:54:09.999Z</time></trkpt><trkpt lat="42.1534993234113" lon="14.475894576946065"><ele>67.28571428571429</ele><time>2026-04-12T09:54:12.999Z</time></trkpt><trkpt lat="42.153526916695164" lon="14.475976456443824"><ele>68.14285714285714</ele><time>2026-04-12T09:54:15.999Z</time></trkpt><trkpt lat="42.153551796556094" lon="14.476056695138052"><ele>69.0</ele><time>2026-04-12T09:54:18.999Z</time></trkpt><trkpt lat="42.15357121346169" lon="14.476164702222604"><ele>69.0</ele><time>2026-04-12T09:54:22.999Z</time></trkpt><trkpt lat="42.153584290262295" lon="14.476257132453371"><ele>69.0</ele><time>2026-04-12T09:54:25.999Z</time></trkpt><trkpt lat="42.15359091719022" lon="14.47634378249204"><ele>69.0</ele><time>2026-04-12T09:54:28.999Z</time></trkpt><trkpt lat="42.15359288991324" lon="14.47643215879227"><ele>69.0</ele><time>2026-04-12T09:54:31.999Z</time></trkpt><trkpt lat="42.153590948177914" lon="14.476518813878565"><ele>69.0</ele><time>2026-04-12T09:54:34.999Z</time></trkpt><trkpt lat="42.15358090138905" lon="14.476627832390127"><ele>69.0</ele><time>2026-04-12T09:54:38.999Z</time></trkpt><trkpt lat="42.1535584536583" lon="14.476737910935315"><ele>69.0</ele><time>2026-04-12T09:54:42.999Z</time></trkpt><trkpt lat="42.15353961001152" lon="14.476821292351595"><ele>69.57142857142857</ele><time>2026-04-12T09:54:45.999Z</time></trkpt><trkpt lat="42.15351977490212" lon="14.47692938589023"><ele>70.14285714285715</ele><time>2026-04-12T09:54:49.998Z</time></trkpt><trkpt lat="42.15351106681347" lon="14.477016087467288"><ele>70.71428571428572</ele><time>2026-04-12T09:54:52.998Z</time></trkpt><trkpt lat="42.15349869508576" lon="14.47713173704111"><ele>71.28571428571429</ele><time>2026-04-12T09:54:56.998Z</time></trkpt><trkpt lat="42.1534962943918" lon="14.47722737543148"><ele>71.85714285714286</ele><time>2026-04-12T09:55:00.998Z</time></trkpt><trkpt lat="42.15349656792328" lon="14.47732391360086"><ele>72.42857142857143</ele><time>2026-04-12T09:55:04.998Z</time></trkpt><trkpt lat="42.153499355147474" lon="14.477422081661196"><ele>73.0</ele><time>2026-04-12T09:55:08.998Z</time></trkpt><trkpt lat="42.15349860768328" lon="14.477534136238527"><ele>73.85714285714286</ele><time>2026-04-12T09:55:12.998Z</time></trkpt><trkpt lat="42.15349908880427" lon="14.477638719844354"><ele>74.71428571428572</ele><time>2026-04-12T09:55:16.998Z</time></trkpt><trkpt lat="42.153496323479246" lon="14.477734961402525"><ele>75.57142857142858</ele><time>2026-04-12T09:55:20.998Z</time></trkpt><trkpt lat="42.15349752118156" lon="14.477827003212536"><ele>76.42857142857143</ele><time>2026-04-12T09:55:24.998Z</time></trkpt><trkpt lat="42.15349759861831" lon="14.47792179020524"><ele>77.28571428571429</ele><time>2026-04-12T09:55:29Z</time></trkpt><trkpt lat="42.15349953922719" lon="14.47800989622001"><ele>78.14285714285715</ele><time>2026-04-12T09:55:33Z</time></trkpt><trkpt lat="42.15351777514885" lon="14.478091394718145"><ele>79.0</ele><time>2026-04-12T09:55:37Z</time></trkpt><trkpt lat="42.15354535270409" lon="14.478168766192729"><ele>80.14285714285715</ele><time>2026-04-12T09:55:41Z</time></trkpt><trkpt lat="42.15357589038499" lon="14.478249085482302"><ele>81.28571428571429</ele><time>2026-04-12T09:55:45Z</time></trkpt><trkpt lat="42.1536003278727" lon="14.478334799775647"><ele>82.42857142857143</ele><time>2026-04-12T09:55:49Z</time></trkpt><trkpt lat="42.15362332633989" lon="14.478427694673059"><ele>83.57142857142858</ele><time>2026-04-12T09:55:53Z</time></trkpt><trkpt lat="42.15364304511517" lon="14.478512065697407"><ele>84.71428571428572</ele><time>2026-04-12T09:55:56.999Z</time></trkpt><trkpt lat="42.15363514427285" lon="14.478603583358263"><ele>85.85714285714286</ele><time>2026-04-12T09:55:59.999Z</time></trkpt><trkpt lat="42.15361817793488" lon="14.478685438692235"><ele>87.0</ele><time>2026-04-12T09:56:01.999Z</time></trkpt><trkpt lat="42.15359527331604" lon="14.478783311574636"><ele>87.19999999999999</ele><time>2026-04-12T09:56:03.999Z</time></trkpt><trkpt lat="42.15354513112177" lon="14.478885509574583"><ele>87.4</ele><time>2026-04-12T09:56:05.999Z</time></trkpt><trkpt lat="42.153482981266045" lon="14.478997793958321"><ele>87.6</ele><time>2026-04-12T09:56:07.999Z</time></trkpt><trkpt lat="42.15340682497474" lon="14.479117945893794"><ele>87.80000000000001</ele><time>2026-04-12T09:56:09.999Z</time></trkpt><trkpt lat="42.153333061778646" lon="14.479255990528731"><ele>88.0</ele><time>2026-04-12T09:56:11.999Z</time></trkpt><trkpt lat="42.153294910855344" lon="14.479332239408217"><ele>88.0</ele><time>2026-04-12T09:56:12.999Z</time></trkpt><trkpt lat="42.1532671204822" lon="14.479416758609728"><ele>88.0</ele><time>2026-04-12T09:56:13.999Z</time></trkpt><trkpt lat="42.153246501676186" lon="14.479503298864577"><ele>88.0</ele><time>2026-04-12T09:56:14.999Z</time></trkpt><trkpt lat="42.153229317865474" lon="14.479592395790702"><ele>88.0</ele><time>2026-04-12T09:56:15.999Z</time></trkpt><trkpt lat="42.15322843658294" lon="14.479679325511047"><ele>88.0</ele><time>2026-04-12T09:56:16.999Z</time></trkpt><trkpt lat="42.15323553971427" lon="14.479765345017055"><ele>88.0</ele><time>2026-04-12T09:56:17.999Z</time></trkpt><trkpt lat="42.153261702426285" lon="14.47992596959314"><ele>87.0</ele><time>2026-04-12T09:56:19.999Z</time></trkpt><trkpt lat="42.15330028661812" lon="14.480061315510627"><ele>86.0</ele><time>2026-04-12T09:56:21.999Z</time></trkpt><trkpt lat="42.153332818631455" lon="14.480186173863279"><ele>85.0</ele><time>2026-04-12T09:56:23.999Z</time></trkpt><trkpt lat="42.153372979971834" lon="14.480294993220484"><ele>84.0</ele><time>2026-04-12T09:56:25.999Z</time></trkpt><trkpt lat="42.153405381667675" lon="14.480391198280534"><ele>83.0</ele><time>2026-04-12T09:56:27.999Z</time></trkpt><trkpt lat="42.153422786857575" lon="14.480483897294945"><ele>82.0</ele><time>2026-04-12T09:56:29.999Z</time></trkpt><trkpt lat="42.153462012618256" lon="14.480596740834192"><ele>81.5</ele><time>2026-04-12T09:56:32.999Z</time></trkpt><trkpt lat="42.153503872873294" lon="14.480664513153062"><ele>81.0</ele><time>2026-04-12T09:56:34.999Z</time></trkpt><trkpt lat="42.153556848694436" lon="14.480738308014995"><ele>80.5</ele><time>2026-04-12T09:56:36.999Z</time></trkpt><trkpt lat="42.153613839337375" lon="14.48083206665209"><ele>80.0</ele><time>2026-04-12T09:56:38.999Z</time></trkpt><trkpt lat="42.1536701058583" lon="14.480926339078934"><ele>79.5</ele><time>2026-04-12T09:56:40.999Z</time></trkpt><trkpt lat="42.153730730637555" lon="14.481006192611641"><ele>79.0</ele><time>2026-04-12T09:56:42.999Z</time></trkpt><trkpt lat="42.15378285851318" lon="14.481095240915018"><ele>79.0</ele><time>2026-04-12T09:56:44.999Z</time></trkpt><trkpt lat="42.15385207972418" lon="14.481176852561788"><ele>79.0</ele><time>2026-04-12T09:56:46.999Z</time></trkpt><trkpt lat="42.1539171600963" lon="14.481267372921454"><ele>79.0</ele><time>2026-04-12T09:56:48.999Z</time></trkpt><trkpt lat="42.153984629175866" lon="14.48134940199049"><ele>79.0</ele><time>2026-04-12T09:56:50.999Z</time></trkpt><trkpt lat="42.15403668045711" lon="14.481434545775056"><ele>79.0</ele><time>2026-04-12T09:56:52.999Z</time></trkpt><trkpt lat="42.15406588682013" lon="14.481531750561578"><ele>79.0</ele><time>2026-04-12T09:56:54.998Z</time></trkpt><trkpt lat="42.15408460512813" lon="14.48162051344384"><ele>79.00000000000001</ele><time>2026-04-12T09:56:56.998Z</time></trkpt><trkpt lat="42.15407434917906" lon="14.481735892486753"><ele>79.0</ele><time>2026-04-12T09:56:59.998Z</time></trkpt><trkpt lat="42.15408250669798" lon="14.481839032221096"><ele>79.0</ele><time>2026-04-12T09:57:02.998Z</time></trkpt><trkpt lat="42.154060107141994" lon="14.481925496598857"><ele>79.0</ele><time>2026-04-12T09:57:05.998Z</time></trkpt><trkpt lat="42.154016709402654" lon="14.48199465908079"><ele>79.0</ele><time>2026-04-12T09:57:08.998Z</time></trkpt><trkpt lat="42.15395286721742" lon="14.482040155804842"><ele>79.00000000000001</ele><time>2026-04-12T09:57:11.998Z</time></trkpt><trkpt lat="42.153897809043556" lon="14.48208890171018"><ele>79.0</ele><time>2026-04-12T09:57:14.998Z</time></trkpt><trkpt lat="42.15382883322332" lon="14.482142540539485"><ele>79.0</ele><time>2026-04-12T09:57:18.998Z</time></trkpt><trkpt lat="42.153762731288005" lon="14.482135138733321"><ele>79.0</ele><time>2026-04-12T09:57:22.998Z</time></trkpt><trkpt lat="42.15367459832865" lon="14.482058785607073"><ele>79.0</ele><time>2026-04-12T09:57:25.998Z</time></trkpt><trkpt lat="42.153606999493284" lon="14.48197244630918"><ele>79.0</ele><time>2026-04-12T09:57:27.998Z</time></trkpt><trkpt lat="42.15356830600632" lon="14.48187374184892"><ele>79.0</ele><time>2026-04-12T09:57:30.998Z</time></trkpt><trkpt lat="42.15356873381999" lon="14.48177063970775"><ele>79.0</ele><time>2026-04-12T09:57:36Z</time></trkpt><trkpt lat="42.15356193382519" lon="14.481857351060432"><ele>79.0</ele><time>2026-04-12T10:03:49.998Z</time></trkpt><trkpt lat="42.15359917978123" lon="14.481930650474055"><ele>79.0</ele><time>2026-04-12T10:03:58Z</time></trkpt><trkpt lat="42.1536613218099" lon="14.482032783875649"><ele>79.0</ele><time>2026-04-12T10:04:12Z</time></trkpt></trkseg></trk></gpx>